<?xml version="1.0" encoding="UTF-8"?>
<gpx version="1.1" creator="https://www.www-youtrack-es.amenigma.com" xsi:schemaLocation="http://www.topografix.com/GPX/1/1 http://www.topografix.com/GPX/1/1/gpx.xsd http://www.garmin.com/xmlschemas/GpxExtensions/v3 http://www.garmin.com/xmlschemas/GpxExtensionsv3.xsd http://www.garmin.com/xmlschemas/TrackPointExtension/v1 http://www.garmin.com/xmlschemas/TrackPointExtensionv1.xsd" xmlns:gpxtpx="http://www.garmin.com/xmlschemas/TrackPointExtension/v1" xmlns:gpxx="http://www.garmin.com/xmlschemas/GpxExtensions/v3" xmlns:xsi="http://www.w3.org/2001/XMLSchema-instance">
  <metadata>
    <link href="https://www.www-youtrack-es.amenigma.com">
      <text>YouTrack.es</text>
    </link>
    <time>2026-08-31T19:51:18Z</time>
  </metadata>
  <trk>
    <src>https://www.www-youtrack-es.amenigma.com</src>
    <link href="https://www.www-youtrack-es.amenigma.com/ruta/2696-reto-2018--segovia-bilbao-parte-ii--poza-de-la-sal-bilbao">
      <text>YouTrack.es</text>
    </link>
    <trkseg>
      <trkpt lat="42.6634850" lon="-3.5002580">
        <ele>723.3</ele>
        <time>2018-10-21T06:23:26Z</time>
      </trkpt>
      <trkpt lat="42.6634850" lon="-3.5002580">
        <ele>723.3</ele>
        <time>2018-10-21T06:23:27Z</time>
      </trkpt>
      <trkpt lat="42.6634730" lon="-3.5002330">
        <ele>723.3</ele>
        <time>2018-10-21T06:23:28Z</time>
      </trkpt>
      <trkpt lat="42.6634730" lon="-3.5001900">
        <ele>723.3</ele>
        <time>2018-10-21T06:23:29Z</time>
      </trkpt>
      <trkpt lat="42.6634780" lon="-3.5001200">
        <ele>723.3</ele>
        <time>2018-10-21T06:23:30Z</time>
      </trkpt>
      <trkpt lat="42.6634820" lon="-3.5000400">
        <ele>722.2</ele>
        <time>2018-10-21T06:23:31Z</time>
      </trkpt>
      <trkpt lat="42.6634870" lon="-3.4999600">
        <ele>722.2</ele>
        <time>2018-10-21T06:23:32Z</time>
      </trkpt>
      <trkpt lat="42.6635050" lon="-3.4998800">
        <ele>721.2</ele>
        <time>2018-10-21T06:23:33Z</time>
      </trkpt>
      <trkpt lat="42.6635430" lon="-3.4998170">
        <ele>721.2</ele>
        <time>2018-10-21T06:23:34Z</time>
      </trkpt>
      <trkpt lat="42.6635980" lon="-3.4997720">
        <ele>721.2</ele>
        <time>2018-10-21T06:23:35Z</time>
      </trkpt>
      <trkpt lat="42.6636570" lon="-3.4997450">
        <ele>721.2</ele>
        <time>2018-10-21T06:23:36Z</time>
      </trkpt>
      <trkpt lat="42.6637180" lon="-3.4997270">
        <ele>720.3</ele>
        <time>2018-10-21T06:23:37Z</time>
      </trkpt>
      <trkpt lat="42.6637770" lon="-3.4997130">
        <ele>720.3</ele>
        <time>2018-10-21T06:23:38Z</time>
      </trkpt>
      <trkpt lat="42.6638350" lon="-3.4997050">
        <ele>719.2</ele>
        <time>2018-10-21T06:23:39Z</time>
      </trkpt>
      <trkpt lat="42.6638950" lon="-3.4997020">
        <ele>719.2</ele>
        <time>2018-10-21T06:23:40Z</time>
      </trkpt>
      <trkpt lat="42.6639530" lon="-3.4996980">
        <ele>719.2</ele>
        <time>2018-10-21T06:23:41Z</time>
      </trkpt>
      <trkpt lat="42.6640120" lon="-3.4996950">
        <ele>719.2</ele>
        <time>2018-10-21T06:23:42Z</time>
      </trkpt>
      <trkpt lat="42.6640680" lon="-3.4996900">
        <ele>719.2</ele>
        <time>2018-10-21T06:23:43Z</time>
      </trkpt>
      <trkpt lat="42.6641220" lon="-3.4996830">
        <ele>719.2</ele>
        <time>2018-10-21T06:23:44Z</time>
      </trkpt>
      <trkpt lat="42.6641750" lon="-3.4996800">
        <ele>719.2</ele>
        <time>2018-10-21T06:23:45Z</time>
      </trkpt>
      <trkpt lat="42.6642270" lon="-3.4996730">
        <ele>719.2</ele>
        <time>2018-10-21T06:23:46Z</time>
      </trkpt>
      <trkpt lat="42.6642780" lon="-3.4996700">
        <ele>719.2</ele>
        <time>2018-10-21T06:23:47Z</time>
      </trkpt>
      <trkpt lat="42.6643300" lon="-3.4996680">
        <ele>719.2</ele>
        <time>2018-10-21T06:23:48Z</time>
      </trkpt>
      <trkpt lat="42.6643830" lon="-3.4996680">
        <ele>719.2</ele>
        <time>2018-10-21T06:23:49Z</time>
      </trkpt>
      <trkpt lat="42.6644380" lon="-3.4996670">
        <ele>719.2</ele>
        <time>2018-10-21T06:23:50Z</time>
      </trkpt>
      <trkpt lat="42.6644900" lon="-3.4996620">
        <ele>719.2</ele>
        <time>2018-10-21T06:23:51Z</time>
      </trkpt>
      <trkpt lat="42.6645420" lon="-3.4996580">
        <ele>719.2</ele>
        <time>2018-10-21T06:23:52Z</time>
      </trkpt>
      <trkpt lat="42.6645880" lon="-3.4996570">
        <ele>719.2</ele>
        <time>2018-10-21T06:23:53Z</time>
      </trkpt>
      <trkpt lat="42.6646320" lon="-3.4996580">
        <ele>719.2</ele>
        <time>2018-10-21T06:23:54Z</time>
      </trkpt>
      <trkpt lat="42.6646700" lon="-3.4996580">
        <ele>719.2</ele>
        <time>2018-10-21T06:23:55Z</time>
      </trkpt>
      <trkpt lat="42.6647030" lon="-3.4996570">
        <ele>719.2</ele>
        <time>2018-10-21T06:23:56Z</time>
      </trkpt>
      <trkpt lat="42.6647350" lon="-3.4996520">
        <ele>720.3</ele>
        <time>2018-10-21T06:23:57Z</time>
      </trkpt>
      <trkpt lat="42.6647670" lon="-3.4996550">
        <ele>720.3</ele>
        <time>2018-10-21T06:23:58Z</time>
      </trkpt>
      <trkpt lat="42.6647950" lon="-3.4996700">
        <ele>720.3</ele>
        <time>2018-10-21T06:23:59Z</time>
      </trkpt>
      <trkpt lat="42.6648200" lon="-3.4996830">
        <ele>720.3</ele>
        <time>2018-10-21T06:24:00Z</time>
      </trkpt>
      <trkpt lat="42.6648450" lon="-3.4996900">
        <ele>720.3</ele>
        <time>2018-10-21T06:24:01Z</time>
      </trkpt>
      <trkpt lat="42.6648680" lon="-3.4996920">
        <ele>720.3</ele>
        <time>2018-10-21T06:24:02Z</time>
      </trkpt>
      <trkpt lat="42.6648930" lon="-3.4996880">
        <ele>720.3</ele>
        <time>2018-10-21T06:24:03Z</time>
      </trkpt>
      <trkpt lat="42.6649120" lon="-3.4996770">
        <ele>721.2</ele>
        <time>2018-10-21T06:24:04Z</time>
      </trkpt>
      <trkpt lat="42.6651070" lon="-3.4996800">
        <ele>721.2</ele>
        <time>2018-10-21T06:24:45Z</time>
      </trkpt>
      <trkpt lat="42.6651370" lon="-3.4996680">
        <ele>721.2</ele>
        <time>2018-10-21T06:24:46Z</time>
      </trkpt>
      <trkpt lat="42.6651670" lon="-3.4996570">
        <ele>721.2</ele>
        <time>2018-10-21T06:24:47Z</time>
      </trkpt>
      <trkpt lat="42.6652000" lon="-3.4996430">
        <ele>722.2</ele>
        <time>2018-10-21T06:24:48Z</time>
      </trkpt>
      <trkpt lat="42.6652370" lon="-3.4996320">
        <ele>722.2</ele>
        <time>2018-10-21T06:24:49Z</time>
      </trkpt>
      <trkpt lat="42.6652730" lon="-3.4996180">
        <ele>722.2</ele>
        <time>2018-10-21T06:24:50Z</time>
      </trkpt>
      <trkpt lat="42.6653070" lon="-3.4996000">
        <ele>722.2</ele>
        <time>2018-10-21T06:24:51Z</time>
      </trkpt>
      <trkpt lat="42.6653370" lon="-3.4995750">
        <ele>722.2</ele>
        <time>2018-10-21T06:24:52Z</time>
      </trkpt>
      <trkpt lat="42.6653620" lon="-3.4995450">
        <ele>722.2</ele>
        <time>2018-10-21T06:24:53Z</time>
      </trkpt>
      <trkpt lat="42.6653900" lon="-3.4995130">
        <ele>722.2</ele>
        <time>2018-10-21T06:24:54Z</time>
      </trkpt>
      <trkpt lat="42.6654200" lon="-3.4994820">
        <ele>722.2</ele>
        <time>2018-10-21T06:24:55Z</time>
      </trkpt>
      <trkpt lat="42.6654530" lon="-3.4994480">
        <ele>722.2</ele>
        <time>2018-10-21T06:24:56Z</time>
      </trkpt>
      <trkpt lat="42.6654880" lon="-3.4994100">
        <ele>722.2</ele>
        <time>2018-10-21T06:24:57Z</time>
      </trkpt>
      <trkpt lat="42.6655170" lon="-3.4993620">
        <ele>722.2</ele>
        <time>2018-10-21T06:24:58Z</time>
      </trkpt>
      <trkpt lat="42.6655400" lon="-3.4993030">
        <ele>722.2</ele>
        <time>2018-10-21T06:24:59Z</time>
      </trkpt>
      <trkpt lat="42.6655620" lon="-3.4992450">
        <ele>721.2</ele>
        <time>2018-10-21T06:25:00Z</time>
      </trkpt>
      <trkpt lat="42.6655820" lon="-3.4991830">
        <ele>721.2</ele>
        <time>2018-10-21T06:25:01Z</time>
      </trkpt>
      <trkpt lat="42.6656030" lon="-3.4991180">
        <ele>720.3</ele>
        <time>2018-10-21T06:25:02Z</time>
      </trkpt>
      <trkpt lat="42.6656200" lon="-3.4990480">
        <ele>720.3</ele>
        <time>2018-10-21T06:25:03Z</time>
      </trkpt>
      <trkpt lat="42.6656330" lon="-3.4989800">
        <ele>719.2</ele>
        <time>2018-10-21T06:25:04Z</time>
      </trkpt>
      <trkpt lat="42.6656420" lon="-3.4989130">
        <ele>719.2</ele>
        <time>2018-10-21T06:25:05Z</time>
      </trkpt>
      <trkpt lat="42.6656470" lon="-3.4988500">
        <ele>718.3</ele>
        <time>2018-10-21T06:25:06Z</time>
      </trkpt>
      <trkpt lat="42.6656450" lon="-3.4987870">
        <ele>718.3</ele>
        <time>2018-10-21T06:25:07Z</time>
      </trkpt>
      <trkpt lat="42.6656320" lon="-3.4987220">
        <ele>717.2</ele>
        <time>2018-10-21T06:25:08Z</time>
      </trkpt>
      <trkpt lat="42.6656120" lon="-3.4986580">
        <ele>717.2</ele>
        <time>2018-10-21T06:25:09Z</time>
      </trkpt>
      <trkpt lat="42.6655930" lon="-3.4985930">
        <ele>716.3</ele>
        <time>2018-10-21T06:25:10Z</time>
      </trkpt>
      <trkpt lat="42.6655800" lon="-3.4985230">
        <ele>716.3</ele>
        <time>2018-10-21T06:25:11Z</time>
      </trkpt>
      <trkpt lat="42.6655750" lon="-3.4984480">
        <ele>715.2</ele>
        <time>2018-10-21T06:25:12Z</time>
      </trkpt>
      <trkpt lat="42.6655820" lon="-3.4983670">
        <ele>715.2</ele>
        <time>2018-10-21T06:25:13Z</time>
      </trkpt>
      <trkpt lat="42.6655980" lon="-3.4982800">
        <ele>714.3</ele>
        <time>2018-10-21T06:25:14Z</time>
      </trkpt>
      <trkpt lat="42.6656180" lon="-3.4981930">
        <ele>714.3</ele>
        <time>2018-10-21T06:25:15Z</time>
      </trkpt>
      <trkpt lat="42.6656450" lon="-3.4981080">
        <ele>713.2</ele>
        <time>2018-10-21T06:25:16Z</time>
      </trkpt>
      <trkpt lat="42.6656750" lon="-3.4980230">
        <ele>713.2</ele>
        <time>2018-10-21T06:25:17Z</time>
      </trkpt>
      <trkpt lat="42.6657030" lon="-3.4979300">
        <ele>712.2</ele>
        <time>2018-10-21T06:25:18Z</time>
      </trkpt>
      <trkpt lat="42.6657300" lon="-3.4978350">
        <ele>712.2</ele>
        <time>2018-10-21T06:25:19Z</time>
      </trkpt>
      <trkpt lat="42.6657570" lon="-3.4977380">
        <ele>711.3</ele>
        <time>2018-10-21T06:25:20Z</time>
      </trkpt>
      <trkpt lat="42.6657830" lon="-3.4976420">
        <ele>711.3</ele>
        <time>2018-10-21T06:25:21Z</time>
      </trkpt>
      <trkpt lat="42.6658130" lon="-3.4975450">
        <ele>710.2</ele>
        <time>2018-10-21T06:25:22Z</time>
      </trkpt>
      <trkpt lat="42.6658430" lon="-3.4974470">
        <ele>710.2</ele>
        <time>2018-10-21T06:25:23Z</time>
      </trkpt>
      <trkpt lat="42.6658730" lon="-3.4973480">
        <ele>709.3</ele>
        <time>2018-10-21T06:25:24Z</time>
      </trkpt>
      <trkpt lat="42.6659100" lon="-3.4972550">
        <ele>709.3</ele>
        <time>2018-10-21T06:25:25Z</time>
      </trkpt>
      <trkpt lat="42.6659450" lon="-3.4971580">
        <ele>708.2</ele>
        <time>2018-10-21T06:25:26Z</time>
      </trkpt>
      <trkpt lat="42.6659820" lon="-3.4970620">
        <ele>708.2</ele>
        <time>2018-10-21T06:25:27Z</time>
      </trkpt>
      <trkpt lat="42.6660230" lon="-3.4969680">
        <ele>708.2</ele>
        <time>2018-10-21T06:25:28Z</time>
      </trkpt>
      <trkpt lat="42.6660670" lon="-3.4968820">
        <ele>708.2</ele>
        <time>2018-10-21T06:25:29Z</time>
      </trkpt>
      <trkpt lat="42.6661070" lon="-3.4968030">
        <ele>707.3</ele>
        <time>2018-10-21T06:25:30Z</time>
      </trkpt>
      <trkpt lat="42.6661420" lon="-3.4967280">
        <ele>707.3</ele>
        <time>2018-10-21T06:25:31Z</time>
      </trkpt>
      <trkpt lat="42.6661720" lon="-3.4966620">
        <ele>706.2</ele>
        <time>2018-10-21T06:25:32Z</time>
      </trkpt>
      <trkpt lat="42.6662030" lon="-3.4965880">
        <ele>706.2</ele>
        <time>2018-10-21T06:25:33Z</time>
      </trkpt>
      <trkpt lat="42.6662350" lon="-3.4965150">
        <ele>706.2</ele>
        <time>2018-10-21T06:25:34Z</time>
      </trkpt>
      <trkpt lat="42.6662680" lon="-3.4964380">
        <ele>706.2</ele>
        <time>2018-10-21T06:25:35Z</time>
      </trkpt>
      <trkpt lat="42.6662980" lon="-3.4963530">
        <ele>706.2</ele>
        <time>2018-10-21T06:25:36Z</time>
      </trkpt>
      <trkpt lat="42.6663270" lon="-3.4962580">
        <ele>706.2</ele>
        <time>2018-10-21T06:25:37Z</time>
      </trkpt>
      <trkpt lat="42.6663450" lon="-3.4961580">
        <ele>706.2</ele>
        <time>2018-10-21T06:25:38Z</time>
      </trkpt>
      <trkpt lat="42.6663520" lon="-3.4960530">
        <ele>706.2</ele>
        <time>2018-10-21T06:25:39Z</time>
      </trkpt>
      <trkpt lat="42.6663450" lon="-3.4959430">
        <ele>701.2</ele>
        <time>2018-10-21T06:25:40Z</time>
      </trkpt>
      <trkpt lat="42.6663320" lon="-3.4958330">
        <ele>701.2</ele>
        <time>2018-10-21T06:25:41Z</time>
      </trkpt>
      <trkpt lat="42.6663180" lon="-3.4957200">
        <ele>700.3</ele>
        <time>2018-10-21T06:25:42Z</time>
      </trkpt>
      <trkpt lat="42.6663030" lon="-3.4956120">
        <ele>700.3</ele>
        <time>2018-10-21T06:25:43Z</time>
      </trkpt>
      <trkpt lat="42.6662880" lon="-3.4954970">
        <ele>700.3</ele>
        <time>2018-10-21T06:25:44Z</time>
      </trkpt>
      <trkpt lat="42.6662770" lon="-3.4953780">
        <ele>700.3</ele>
        <time>2018-10-21T06:25:45Z</time>
      </trkpt>
      <trkpt lat="42.6662670" lon="-3.4952600">
        <ele>699.2</ele>
        <time>2018-10-21T06:25:46Z</time>
      </trkpt>
      <trkpt lat="42.6662600" lon="-3.4951380">
        <ele>699.2</ele>
        <time>2018-10-21T06:25:47Z</time>
      </trkpt>
      <trkpt lat="42.6662620" lon="-3.4950080">
        <ele>698.3</ele>
        <time>2018-10-21T06:25:48Z</time>
      </trkpt>
      <trkpt lat="42.6662730" lon="-3.4948830">
        <ele>698.3</ele>
        <time>2018-10-21T06:25:49Z</time>
      </trkpt>
      <trkpt lat="42.6662950" lon="-3.4947620">
        <ele>698.3</ele>
        <time>2018-10-21T06:25:50Z</time>
      </trkpt>
      <trkpt lat="42.6663200" lon="-3.4946380">
        <ele>698.3</ele>
        <time>2018-10-21T06:25:51Z</time>
      </trkpt>
      <trkpt lat="42.6663430" lon="-3.4945130">
        <ele>698.3</ele>
        <time>2018-10-21T06:25:52Z</time>
      </trkpt>
      <trkpt lat="42.6663550" lon="-3.4943850">
        <ele>698.3</ele>
        <time>2018-10-21T06:25:53Z</time>
      </trkpt>
      <trkpt lat="42.6663550" lon="-3.4942530">
        <ele>694.2</ele>
        <time>2018-10-21T06:25:54Z</time>
      </trkpt>
      <trkpt lat="42.6663470" lon="-3.4941220">
        <ele>694.2</ele>
        <time>2018-10-21T06:25:55Z</time>
      </trkpt>
      <trkpt lat="42.6663270" lon="-3.4939900">
        <ele>694.2</ele>
        <time>2018-10-21T06:25:56Z</time>
      </trkpt>
      <trkpt lat="42.6663000" lon="-3.4938620">
        <ele>694.2</ele>
        <time>2018-10-21T06:25:57Z</time>
      </trkpt>
      <trkpt lat="42.6662700" lon="-3.4937330">
        <ele>692.2</ele>
        <time>2018-10-21T06:25:58Z</time>
      </trkpt>
      <trkpt lat="42.6662380" lon="-3.4936030">
        <ele>692.2</ele>
        <time>2018-10-21T06:25:59Z</time>
      </trkpt>
      <trkpt lat="42.6662080" lon="-3.4934720">
        <ele>691.3</ele>
        <time>2018-10-21T06:26:00Z</time>
      </trkpt>
      <trkpt lat="42.6661770" lon="-3.4933400">
        <ele>691.3</ele>
        <time>2018-10-21T06:26:01Z</time>
      </trkpt>
      <trkpt lat="42.6661420" lon="-3.4932080">
        <ele>690.2</ele>
        <time>2018-10-21T06:26:02Z</time>
      </trkpt>
      <trkpt lat="42.6661080" lon="-3.4930730">
        <ele>690.2</ele>
        <time>2018-10-21T06:26:03Z</time>
      </trkpt>
      <trkpt lat="42.6660770" lon="-3.4929380">
        <ele>688.2</ele>
        <time>2018-10-21T06:26:04Z</time>
      </trkpt>
      <trkpt lat="42.6660450" lon="-3.4928020">
        <ele>688.2</ele>
        <time>2018-10-21T06:26:05Z</time>
      </trkpt>
      <trkpt lat="42.6660120" lon="-3.4926670">
        <ele>688.2</ele>
        <time>2018-10-21T06:26:06Z</time>
      </trkpt>
      <trkpt lat="42.6659770" lon="-3.4925320">
        <ele>688.2</ele>
        <time>2018-10-21T06:26:07Z</time>
      </trkpt>
      <trkpt lat="42.6659430" lon="-3.4923950">
        <ele>687.2</ele>
        <time>2018-10-21T06:26:08Z</time>
      </trkpt>
      <trkpt lat="42.6659070" lon="-3.4922580">
        <ele>687.2</ele>
        <time>2018-10-21T06:26:09Z</time>
      </trkpt>
      <trkpt lat="42.6658730" lon="-3.4921230">
        <ele>685.2</ele>
        <time>2018-10-21T06:26:10Z</time>
      </trkpt>
      <trkpt lat="42.6658380" lon="-3.4919880">
        <ele>685.2</ele>
        <time>2018-10-21T06:26:11Z</time>
      </trkpt>
      <trkpt lat="42.6658020" lon="-3.4918530">
        <ele>684.3</ele>
        <time>2018-10-21T06:26:12Z</time>
      </trkpt>
      <trkpt lat="42.6657670" lon="-3.4917170">
        <ele>684.3</ele>
        <time>2018-10-21T06:26:13Z</time>
      </trkpt>
      <trkpt lat="42.6657300" lon="-3.4915820">
        <ele>683.2</ele>
        <time>2018-10-21T06:26:14Z</time>
      </trkpt>
      <trkpt lat="42.6656950" lon="-3.4914430">
        <ele>683.2</ele>
        <time>2018-10-21T06:26:15Z</time>
      </trkpt>
      <trkpt lat="42.6656620" lon="-3.4913030">
        <ele>682.3</ele>
        <time>2018-10-21T06:26:16Z</time>
      </trkpt>
      <trkpt lat="42.6656270" lon="-3.4911630">
        <ele>682.3</ele>
        <time>2018-10-21T06:26:17Z</time>
      </trkpt>
      <trkpt lat="42.6655980" lon="-3.4910220">
        <ele>682.3</ele>
        <time>2018-10-21T06:26:18Z</time>
      </trkpt>
      <trkpt lat="42.6655750" lon="-3.4908780">
        <ele>682.3</ele>
        <time>2018-10-21T06:26:19Z</time>
      </trkpt>
      <trkpt lat="42.6655570" lon="-3.4907420">
        <ele>680.2</ele>
        <time>2018-10-21T06:26:20Z</time>
      </trkpt>
      <trkpt lat="42.6655430" lon="-3.4906080">
        <ele>680.2</ele>
        <time>2018-10-21T06:26:21Z</time>
      </trkpt>
      <trkpt lat="42.6655430" lon="-3.4904750">
        <ele>679.3</ele>
        <time>2018-10-21T06:26:22Z</time>
      </trkpt>
      <trkpt lat="42.6655600" lon="-3.4903430">
        <ele>679.3</ele>
        <time>2018-10-21T06:26:23Z</time>
      </trkpt>
      <trkpt lat="42.6655930" lon="-3.4902180">
        <ele>677.3</ele>
        <time>2018-10-21T06:26:24Z</time>
      </trkpt>
      <trkpt lat="42.6656420" lon="-3.4901020">
        <ele>677.3</ele>
        <time>2018-10-21T06:26:25Z</time>
      </trkpt>
      <trkpt lat="42.6657030" lon="-3.4899970">
        <ele>676.2</ele>
        <time>2018-10-21T06:26:26Z</time>
      </trkpt>
      <trkpt lat="42.6657700" lon="-3.4898980">
        <ele>676.2</ele>
        <time>2018-10-21T06:26:27Z</time>
      </trkpt>
      <trkpt lat="42.6658400" lon="-3.4898020">
        <ele>674.2</ele>
        <time>2018-10-21T06:26:28Z</time>
      </trkpt>
      <trkpt lat="42.6659070" lon="-3.4897020">
        <ele>674.2</ele>
        <time>2018-10-21T06:26:29Z</time>
      </trkpt>
      <trkpt lat="42.6659670" lon="-3.4895970">
        <ele>673.3</ele>
        <time>2018-10-21T06:26:30Z</time>
      </trkpt>
      <trkpt lat="42.6660180" lon="-3.4894830">
        <ele>673.3</ele>
        <time>2018-10-21T06:26:31Z</time>
      </trkpt>
      <trkpt lat="42.6660630" lon="-3.4893670">
        <ele>672.2</ele>
        <time>2018-10-21T06:26:32Z</time>
      </trkpt>
      <trkpt lat="42.6661020" lon="-3.4892470">
        <ele>672.2</ele>
        <time>2018-10-21T06:26:33Z</time>
      </trkpt>
      <trkpt lat="42.6661280" lon="-3.4891200">
        <ele>672.2</ele>
        <time>2018-10-21T06:26:34Z</time>
      </trkpt>
      <trkpt lat="42.6661350" lon="-3.4889900">
        <ele>672.2</ele>
        <time>2018-10-21T06:26:35Z</time>
      </trkpt>
      <trkpt lat="42.6661230" lon="-3.4888580">
        <ele>671.2</ele>
        <time>2018-10-21T06:26:36Z</time>
      </trkpt>
      <trkpt lat="42.6661020" lon="-3.4887300">
        <ele>671.2</ele>
        <time>2018-10-21T06:26:37Z</time>
      </trkpt>
      <trkpt lat="42.6660750" lon="-3.4886020">
        <ele>671.2</ele>
        <time>2018-10-21T06:26:38Z</time>
      </trkpt>
      <trkpt lat="42.6660520" lon="-3.4884730">
        <ele>671.2</ele>
        <time>2018-10-21T06:26:39Z</time>
      </trkpt>
      <trkpt lat="42.6660280" lon="-3.4883470">
        <ele>671.2</ele>
        <time>2018-10-21T06:26:40Z</time>
      </trkpt>
      <trkpt lat="42.6660000" lon="-3.4882200">
        <ele>671.2</ele>
        <time>2018-10-21T06:26:41Z</time>
      </trkpt>
      <trkpt lat="42.6659720" lon="-3.4880970">
        <ele>671.2</ele>
        <time>2018-10-21T06:26:42Z</time>
      </trkpt>
      <trkpt lat="42.6659430" lon="-3.4879730">
        <ele>671.2</ele>
        <time>2018-10-21T06:26:43Z</time>
      </trkpt>
      <trkpt lat="42.6659130" lon="-3.4878520">
        <ele>668.3</ele>
        <time>2018-10-21T06:26:44Z</time>
      </trkpt>
      <trkpt lat="42.6658800" lon="-3.4877280">
        <ele>668.3</ele>
        <time>2018-10-21T06:26:45Z</time>
      </trkpt>
      <trkpt lat="42.6658470" lon="-3.4876070">
        <ele>666.3</ele>
        <time>2018-10-21T06:26:46Z</time>
      </trkpt>
      <trkpt lat="42.6658100" lon="-3.4874830">
        <ele>666.3</ele>
        <time>2018-10-21T06:26:47Z</time>
      </trkpt>
      <trkpt lat="42.6657730" lon="-3.4873600">
        <ele>665.2</ele>
        <time>2018-10-21T06:26:48Z</time>
      </trkpt>
      <trkpt lat="42.6657370" lon="-3.4872370">
        <ele>665.2</ele>
        <time>2018-10-21T06:26:49Z</time>
      </trkpt>
      <trkpt lat="42.6656980" lon="-3.4871150">
        <ele>665.2</ele>
        <time>2018-10-21T06:26:50Z</time>
      </trkpt>
      <trkpt lat="42.6656580" lon="-3.4869900">
        <ele>665.2</ele>
        <time>2018-10-21T06:26:51Z</time>
      </trkpt>
      <trkpt lat="42.6656220" lon="-3.4868670">
        <ele>664.2</ele>
        <time>2018-10-21T06:26:52Z</time>
      </trkpt>
      <trkpt lat="42.6655870" lon="-3.4867420">
        <ele>664.2</ele>
        <time>2018-10-21T06:26:53Z</time>
      </trkpt>
      <trkpt lat="42.6655500" lon="-3.4866170">
        <ele>664.2</ele>
        <time>2018-10-21T06:26:54Z</time>
      </trkpt>
      <trkpt lat="42.6655130" lon="-3.4864920">
        <ele>664.2</ele>
        <time>2018-10-21T06:26:55Z</time>
      </trkpt>
      <trkpt lat="42.6654780" lon="-3.4863650">
        <ele>664.2</ele>
        <time>2018-10-21T06:26:56Z</time>
      </trkpt>
      <trkpt lat="42.6654400" lon="-3.4862400">
        <ele>664.2</ele>
        <time>2018-10-21T06:26:57Z</time>
      </trkpt>
      <trkpt lat="42.6654020" lon="-3.4861130">
        <ele>661.3</ele>
        <time>2018-10-21T06:26:58Z</time>
      </trkpt>
      <trkpt lat="42.6653620" lon="-3.4859850">
        <ele>661.3</ele>
        <time>2018-10-21T06:26:59Z</time>
      </trkpt>
      <trkpt lat="42.6653230" lon="-3.4858530">
        <ele>659.3</ele>
        <time>2018-10-21T06:27:00Z</time>
      </trkpt>
      <trkpt lat="42.6652850" lon="-3.4857200">
        <ele>659.3</ele>
        <time>2018-10-21T06:27:01Z</time>
      </trkpt>
      <trkpt lat="42.6652470" lon="-3.4855850">
        <ele>658.2</ele>
        <time>2018-10-21T06:27:02Z</time>
      </trkpt>
      <trkpt lat="42.6652120" lon="-3.4854470">
        <ele>658.2</ele>
        <time>2018-10-21T06:27:03Z</time>
      </trkpt>
      <trkpt lat="42.6651870" lon="-3.4853050">
        <ele>657.3</ele>
        <time>2018-10-21T06:27:04Z</time>
      </trkpt>
      <trkpt lat="42.6651700" lon="-3.4851580">
        <ele>657.3</ele>
        <time>2018-10-21T06:27:05Z</time>
      </trkpt>
      <trkpt lat="42.6651620" lon="-3.4850120">
        <ele>656.2</ele>
        <time>2018-10-21T06:27:06Z</time>
      </trkpt>
      <trkpt lat="42.6651580" lon="-3.4848630">
        <ele>656.2</ele>
        <time>2018-10-21T06:27:07Z</time>
      </trkpt>
      <trkpt lat="42.6651530" lon="-3.4847150">
        <ele>656.2</ele>
        <time>2018-10-21T06:27:08Z</time>
      </trkpt>
      <trkpt lat="42.6651520" lon="-3.4845670">
        <ele>656.2</ele>
        <time>2018-10-21T06:27:09Z</time>
      </trkpt>
      <trkpt lat="42.6651480" lon="-3.4844200">
        <ele>654.3</ele>
        <time>2018-10-21T06:27:10Z</time>
      </trkpt>
      <trkpt lat="42.6651450" lon="-3.4842750">
        <ele>654.3</ele>
        <time>2018-10-21T06:27:11Z</time>
      </trkpt>
      <trkpt lat="42.6651430" lon="-3.4841300">
        <ele>653.2</ele>
        <time>2018-10-21T06:27:12Z</time>
      </trkpt>
      <trkpt lat="42.6651420" lon="-3.4839870">
        <ele>653.2</ele>
        <time>2018-10-21T06:27:13Z</time>
      </trkpt>
      <trkpt lat="42.6651420" lon="-3.4838450">
        <ele>652.3</ele>
        <time>2018-10-21T06:27:14Z</time>
      </trkpt>
      <trkpt lat="42.6651470" lon="-3.4837070">
        <ele>652.3</ele>
        <time>2018-10-21T06:27:15Z</time>
      </trkpt>
      <trkpt lat="42.6651630" lon="-3.4835700">
        <ele>651.2</ele>
        <time>2018-10-21T06:27:16Z</time>
      </trkpt>
      <trkpt lat="42.6651950" lon="-3.4834380">
        <ele>651.2</ele>
        <time>2018-10-21T06:27:17Z</time>
      </trkpt>
      <trkpt lat="42.6652400" lon="-3.4833180">
        <ele>650.3</ele>
        <time>2018-10-21T06:27:18Z</time>
      </trkpt>
      <trkpt lat="42.6652970" lon="-3.4832080">
        <ele>650.3</ele>
        <time>2018-10-21T06:27:19Z</time>
      </trkpt>
      <trkpt lat="42.6653530" lon="-3.4831000">
        <ele>649.2</ele>
        <time>2018-10-21T06:27:20Z</time>
      </trkpt>
      <trkpt lat="42.6654130" lon="-3.4829920">
        <ele>649.2</ele>
        <time>2018-10-21T06:27:21Z</time>
      </trkpt>
      <trkpt lat="42.6654750" lon="-3.4828870">
        <ele>647.3</ele>
        <time>2018-10-21T06:27:22Z</time>
      </trkpt>
      <trkpt lat="42.6655350" lon="-3.4827800">
        <ele>647.3</ele>
        <time>2018-10-21T06:27:23Z</time>
      </trkpt>
      <trkpt lat="42.6655930" lon="-3.4826720">
        <ele>647.3</ele>
        <time>2018-10-21T06:27:24Z</time>
      </trkpt>
      <trkpt lat="42.6656520" lon="-3.4825630">
        <ele>647.3</ele>
        <time>2018-10-21T06:27:25Z</time>
      </trkpt>
      <trkpt lat="42.6657080" lon="-3.4824550">
        <ele>646.2</ele>
        <time>2018-10-21T06:27:26Z</time>
      </trkpt>
      <trkpt lat="42.6657680" lon="-3.4823480">
        <ele>646.2</ele>
        <time>2018-10-21T06:27:27Z</time>
      </trkpt>
      <trkpt lat="42.6658270" lon="-3.4822420">
        <ele>645.3</ele>
        <time>2018-10-21T06:27:28Z</time>
      </trkpt>
      <trkpt lat="42.6658850" lon="-3.4821370">
        <ele>645.3</ele>
        <time>2018-10-21T06:27:29Z</time>
      </trkpt>
      <trkpt lat="42.6659420" lon="-3.4820280">
        <ele>645.3</ele>
        <time>2018-10-21T06:27:30Z</time>
      </trkpt>
      <trkpt lat="42.6660000" lon="-3.4819220">
        <ele>645.3</ele>
        <time>2018-10-21T06:27:31Z</time>
      </trkpt>
      <trkpt lat="42.6660580" lon="-3.4818150">
        <ele>644.2</ele>
        <time>2018-10-21T06:27:32Z</time>
      </trkpt>
      <trkpt lat="42.6661130" lon="-3.4817080">
        <ele>644.2</ele>
        <time>2018-10-21T06:27:33Z</time>
      </trkpt>
      <trkpt lat="42.6661700" lon="-3.4816020">
        <ele>643.3</ele>
        <time>2018-10-21T06:27:34Z</time>
      </trkpt>
      <trkpt lat="42.6662230" lon="-3.4814930">
        <ele>643.3</ele>
        <time>2018-10-21T06:27:35Z</time>
      </trkpt>
      <trkpt lat="42.6662730" lon="-3.4813850">
        <ele>642.2</ele>
        <time>2018-10-21T06:27:36Z</time>
      </trkpt>
      <trkpt lat="42.6663250" lon="-3.4812780">
        <ele>642.2</ele>
        <time>2018-10-21T06:27:37Z</time>
      </trkpt>
      <trkpt lat="42.6663750" lon="-3.4811730">
        <ele>642.2</ele>
        <time>2018-10-21T06:27:38Z</time>
      </trkpt>
      <trkpt lat="42.6664230" lon="-3.4810680">
        <ele>642.2</ele>
        <time>2018-10-21T06:27:39Z</time>
      </trkpt>
      <trkpt lat="42.6664730" lon="-3.4809650">
        <ele>640.2</ele>
        <time>2018-10-21T06:27:40Z</time>
      </trkpt>
      <trkpt lat="42.6665230" lon="-3.4808600">
        <ele>640.2</ele>
        <time>2018-10-21T06:27:41Z</time>
      </trkpt>
      <trkpt lat="42.6665700" lon="-3.4807550">
        <ele>640.2</ele>
        <time>2018-10-21T06:27:42Z</time>
      </trkpt>
      <trkpt lat="42.6666170" lon="-3.4806500">
        <ele>640.2</ele>
        <time>2018-10-21T06:27:43Z</time>
      </trkpt>
      <trkpt lat="42.6666630" lon="-3.4805470">
        <ele>640.2</ele>
        <time>2018-10-21T06:27:44Z</time>
      </trkpt>
      <trkpt lat="42.6667100" lon="-3.4804430">
        <ele>640.2</ele>
        <time>2018-10-21T06:27:45Z</time>
      </trkpt>
      <trkpt lat="42.6667570" lon="-3.4803400">
        <ele>640.2</ele>
        <time>2018-10-21T06:27:46Z</time>
      </trkpt>
      <trkpt lat="42.6668020" lon="-3.4802350">
        <ele>640.2</ele>
        <time>2018-10-21T06:27:47Z</time>
      </trkpt>
      <trkpt lat="42.6668480" lon="-3.4801320">
        <ele>635.2</ele>
        <time>2018-10-21T06:27:48Z</time>
      </trkpt>
      <trkpt lat="42.6668970" lon="-3.4800300">
        <ele>635.2</ele>
        <time>2018-10-21T06:27:49Z</time>
      </trkpt>
      <trkpt lat="42.6669400" lon="-3.4799250">
        <ele>636.3</ele>
        <time>2018-10-21T06:27:50Z</time>
      </trkpt>
      <trkpt lat="42.6669830" lon="-3.4798220">
        <ele>636.3</ele>
        <time>2018-10-21T06:27:51Z</time>
      </trkpt>
      <trkpt lat="42.6670280" lon="-3.4797180">
        <ele>636.3</ele>
        <time>2018-10-21T06:27:52Z</time>
      </trkpt>
      <trkpt lat="42.6670830" lon="-3.4796250">
        <ele>636.3</ele>
        <time>2018-10-21T06:27:53Z</time>
      </trkpt>
      <trkpt lat="42.6671470" lon="-3.4795400">
        <ele>635.2</ele>
        <time>2018-10-21T06:27:54Z</time>
      </trkpt>
      <trkpt lat="42.6672180" lon="-3.4794650">
        <ele>635.2</ele>
        <time>2018-10-21T06:27:55Z</time>
      </trkpt>
      <trkpt lat="42.6672950" lon="-3.4793980">
        <ele>634.3</ele>
        <time>2018-10-21T06:27:56Z</time>
      </trkpt>
      <trkpt lat="42.6673730" lon="-3.4793330">
        <ele>634.3</ele>
        <time>2018-10-21T06:27:57Z</time>
      </trkpt>
      <trkpt lat="42.6674530" lon="-3.4792700">
        <ele>634.3</ele>
        <time>2018-10-21T06:27:58Z</time>
      </trkpt>
      <trkpt lat="42.6675330" lon="-3.4792070">
        <ele>634.3</ele>
        <time>2018-10-21T06:27:59Z</time>
      </trkpt>
      <trkpt lat="42.6676120" lon="-3.4791450">
        <ele>633.2</ele>
        <time>2018-10-21T06:28:00Z</time>
      </trkpt>
      <trkpt lat="42.6676920" lon="-3.4790830">
        <ele>633.2</ele>
        <time>2018-10-21T06:28:01Z</time>
      </trkpt>
      <trkpt lat="42.6677720" lon="-3.4790230">
        <ele>632.3</ele>
        <time>2018-10-21T06:28:02Z</time>
      </trkpt>
      <trkpt lat="42.6678480" lon="-3.4789600">
        <ele>632.3</ele>
        <time>2018-10-21T06:28:03Z</time>
      </trkpt>
      <trkpt lat="42.6679250" lon="-3.4788970">
        <ele>632.3</ele>
        <time>2018-10-21T06:28:04Z</time>
      </trkpt>
      <trkpt lat="42.6679970" lon="-3.4788330">
        <ele>632.3</ele>
        <time>2018-10-21T06:28:05Z</time>
      </trkpt>
      <trkpt lat="42.6680650" lon="-3.4787650">
        <ele>631.2</ele>
        <time>2018-10-21T06:28:06Z</time>
      </trkpt>
      <trkpt lat="42.6681300" lon="-3.4786930">
        <ele>631.2</ele>
        <time>2018-10-21T06:28:07Z</time>
      </trkpt>
      <trkpt lat="42.6681920" lon="-3.4786180">
        <ele>631.2</ele>
        <time>2018-10-21T06:28:08Z</time>
      </trkpt>
      <trkpt lat="42.6682520" lon="-3.4785450">
        <ele>631.2</ele>
        <time>2018-10-21T06:28:09Z</time>
      </trkpt>
      <trkpt lat="42.6683130" lon="-3.4784730">
        <ele>631.2</ele>
        <time>2018-10-21T06:28:10Z</time>
      </trkpt>
      <trkpt lat="42.6683780" lon="-3.4784080">
        <ele>631.2</ele>
        <time>2018-10-21T06:28:11Z</time>
      </trkpt>
      <trkpt lat="42.6684480" lon="-3.4783530">
        <ele>630.2</ele>
        <time>2018-10-21T06:28:12Z</time>
      </trkpt>
      <trkpt lat="42.6685220" lon="-3.4783100">
        <ele>630.2</ele>
        <time>2018-10-21T06:28:13Z</time>
      </trkpt>
      <trkpt lat="42.6685980" lon="-3.4782800">
        <ele>629.3</ele>
        <time>2018-10-21T06:28:14Z</time>
      </trkpt>
      <trkpt lat="42.6686770" lon="-3.4782580">
        <ele>629.3</ele>
        <time>2018-10-21T06:28:15Z</time>
      </trkpt>
      <trkpt lat="42.6687580" lon="-3.4782480">
        <ele>629.3</ele>
        <time>2018-10-21T06:28:16Z</time>
      </trkpt>
      <trkpt lat="42.6688400" lon="-3.4782420">
        <ele>629.3</ele>
        <time>2018-10-21T06:28:17Z</time>
      </trkpt>
      <trkpt lat="42.6689250" lon="-3.4782380">
        <ele>628.2</ele>
        <time>2018-10-21T06:28:18Z</time>
      </trkpt>
      <trkpt lat="42.6690100" lon="-3.4782350">
        <ele>628.2</ele>
        <time>2018-10-21T06:28:19Z</time>
      </trkpt>
      <trkpt lat="42.6690970" lon="-3.4782330">
        <ele>627.3</ele>
        <time>2018-10-21T06:28:20Z</time>
      </trkpt>
      <trkpt lat="42.6691830" lon="-3.4782300">
        <ele>627.3</ele>
        <time>2018-10-21T06:28:21Z</time>
      </trkpt>
      <trkpt lat="42.6692700" lon="-3.4782230">
        <ele>626.2</ele>
        <time>2018-10-21T06:28:22Z</time>
      </trkpt>
      <trkpt lat="42.6693550" lon="-3.4782050">
        <ele>626.2</ele>
        <time>2018-10-21T06:28:23Z</time>
      </trkpt>
      <trkpt lat="42.6694350" lon="-3.4781720">
        <ele>626.2</ele>
        <time>2018-10-21T06:28:24Z</time>
      </trkpt>
      <trkpt lat="42.6695120" lon="-3.4781280">
        <ele>626.2</ele>
        <time>2018-10-21T06:28:25Z</time>
      </trkpt>
      <trkpt lat="42.6695880" lon="-3.4780830">
        <ele>626.2</ele>
        <time>2018-10-21T06:28:26Z</time>
      </trkpt>
      <trkpt lat="42.6696630" lon="-3.4780380">
        <ele>626.2</ele>
        <time>2018-10-21T06:28:27Z</time>
      </trkpt>
      <trkpt lat="42.6697380" lon="-3.4779930">
        <ele>626.2</ele>
        <time>2018-10-21T06:28:28Z</time>
      </trkpt>
      <trkpt lat="42.6698150" lon="-3.4779550">
        <ele>626.2</ele>
        <time>2018-10-21T06:28:29Z</time>
      </trkpt>
      <trkpt lat="42.6698920" lon="-3.4779300">
        <ele>623.2</ele>
        <time>2018-10-21T06:28:30Z</time>
      </trkpt>
      <trkpt lat="42.6699680" lon="-3.4779150">
        <ele>623.2</ele>
        <time>2018-10-21T06:28:31Z</time>
      </trkpt>
      <trkpt lat="42.6700400" lon="-3.4779000">
        <ele>623.2</ele>
        <time>2018-10-21T06:28:32Z</time>
      </trkpt>
      <trkpt lat="42.6701120" lon="-3.4778850">
        <ele>623.2</ele>
        <time>2018-10-21T06:28:33Z</time>
      </trkpt>
      <trkpt lat="42.6701820" lon="-3.4778700">
        <ele>622.3</ele>
        <time>2018-10-21T06:28:34Z</time>
      </trkpt>
      <trkpt lat="42.6702520" lon="-3.4778580">
        <ele>622.3</ele>
        <time>2018-10-21T06:28:35Z</time>
      </trkpt>
      <trkpt lat="42.6703200" lon="-3.4778480">
        <ele>622.3</ele>
        <time>2018-10-21T06:28:36Z</time>
      </trkpt>
      <trkpt lat="42.6703880" lon="-3.4778380">
        <ele>622.3</ele>
        <time>2018-10-21T06:28:37Z</time>
      </trkpt>
      <trkpt lat="42.6704550" lon="-3.4778270">
        <ele>622.3</ele>
        <time>2018-10-21T06:28:38Z</time>
      </trkpt>
      <trkpt lat="42.6705200" lon="-3.4778130">
        <ele>622.3</ele>
        <time>2018-10-21T06:28:39Z</time>
      </trkpt>
      <trkpt lat="42.6705870" lon="-3.4778050">
        <ele>621.2</ele>
        <time>2018-10-21T06:28:40Z</time>
      </trkpt>
      <trkpt lat="42.6706520" lon="-3.4777950">
        <ele>621.2</ele>
        <time>2018-10-21T06:28:41Z</time>
      </trkpt>
      <trkpt lat="42.6707170" lon="-3.4777850">
        <ele>621.2</ele>
        <time>2018-10-21T06:28:42Z</time>
      </trkpt>
      <trkpt lat="42.6707820" lon="-3.4777730">
        <ele>621.2</ele>
        <time>2018-10-21T06:28:43Z</time>
      </trkpt>
      <trkpt lat="42.6708450" lon="-3.4777620">
        <ele>621.2</ele>
        <time>2018-10-21T06:28:44Z</time>
      </trkpt>
      <trkpt lat="42.6709100" lon="-3.4777520">
        <ele>621.2</ele>
        <time>2018-10-21T06:28:45Z</time>
      </trkpt>
      <trkpt lat="42.6709730" lon="-3.4777430">
        <ele>621.2</ele>
        <time>2018-10-21T06:28:46Z</time>
      </trkpt>
      <trkpt lat="42.6710380" lon="-3.4777330">
        <ele>621.2</ele>
        <time>2018-10-21T06:28:47Z</time>
      </trkpt>
      <trkpt lat="42.6711020" lon="-3.4777200">
        <ele>621.2</ele>
        <time>2018-10-21T06:28:48Z</time>
      </trkpt>
      <trkpt lat="42.6711670" lon="-3.4777070">
        <ele>621.2</ele>
        <time>2018-10-21T06:28:49Z</time>
      </trkpt>
      <trkpt lat="42.6712320" lon="-3.4776930">
        <ele>621.2</ele>
        <time>2018-10-21T06:28:50Z</time>
      </trkpt>
      <trkpt lat="42.6712980" lon="-3.4776800">
        <ele>621.2</ele>
        <time>2018-10-21T06:28:51Z</time>
      </trkpt>
      <trkpt lat="42.6713670" lon="-3.4776680">
        <ele>621.2</ele>
        <time>2018-10-21T06:28:52Z</time>
      </trkpt>
      <trkpt lat="42.6714350" lon="-3.4776570">
        <ele>621.2</ele>
        <time>2018-10-21T06:28:53Z</time>
      </trkpt>
      <trkpt lat="42.6715020" lon="-3.4776480">
        <ele>621.2</ele>
        <time>2018-10-21T06:28:54Z</time>
      </trkpt>
      <trkpt lat="42.6715700" lon="-3.4776370">
        <ele>621.2</ele>
        <time>2018-10-21T06:28:55Z</time>
      </trkpt>
      <trkpt lat="42.6716400" lon="-3.4776230">
        <ele>620.3</ele>
        <time>2018-10-21T06:28:56Z</time>
      </trkpt>
      <trkpt lat="42.6717080" lon="-3.4776130">
        <ele>620.3</ele>
        <time>2018-10-21T06:28:57Z</time>
      </trkpt>
      <trkpt lat="42.6717780" lon="-3.4776030">
        <ele>620.3</ele>
        <time>2018-10-21T06:28:58Z</time>
      </trkpt>
      <trkpt lat="42.6718480" lon="-3.4775900">
        <ele>620.3</ele>
        <time>2018-10-21T06:28:59Z</time>
      </trkpt>
      <trkpt lat="42.6719200" lon="-3.4775770">
        <ele>619.2</ele>
        <time>2018-10-21T06:29:00Z</time>
      </trkpt>
      <trkpt lat="42.6719930" lon="-3.4775650">
        <ele>619.2</ele>
        <time>2018-10-21T06:29:01Z</time>
      </trkpt>
      <trkpt lat="42.6720650" lon="-3.4775530">
        <ele>619.2</ele>
        <time>2018-10-21T06:29:02Z</time>
      </trkpt>
      <trkpt lat="42.6721370" lon="-3.4775400">
        <ele>619.2</ele>
        <time>2018-10-21T06:29:03Z</time>
      </trkpt>
      <trkpt lat="42.6722080" lon="-3.4775270">
        <ele>619.2</ele>
        <time>2018-10-21T06:29:04Z</time>
      </trkpt>
      <trkpt lat="42.6722820" lon="-3.4775150">
        <ele>619.2</ele>
        <time>2018-10-21T06:29:05Z</time>
      </trkpt>
      <trkpt lat="42.6723550" lon="-3.4775000">
        <ele>619.2</ele>
        <time>2018-10-21T06:29:06Z</time>
      </trkpt>
      <trkpt lat="42.6724270" lon="-3.4774870">
        <ele>619.2</ele>
        <time>2018-10-21T06:29:07Z</time>
      </trkpt>
      <trkpt lat="42.6725000" lon="-3.4774730">
        <ele>619.2</ele>
        <time>2018-10-21T06:29:08Z</time>
      </trkpt>
      <trkpt lat="42.6725720" lon="-3.4774620">
        <ele>619.2</ele>
        <time>2018-10-21T06:29:09Z</time>
      </trkpt>
      <trkpt lat="42.6726420" lon="-3.4774480">
        <ele>619.2</ele>
        <time>2018-10-21T06:29:10Z</time>
      </trkpt>
      <trkpt lat="42.6727130" lon="-3.4774350">
        <ele>619.2</ele>
        <time>2018-10-21T06:29:11Z</time>
      </trkpt>
      <trkpt lat="42.6727830" lon="-3.4774230">
        <ele>619.2</ele>
        <time>2018-10-21T06:29:12Z</time>
      </trkpt>
      <trkpt lat="42.6728520" lon="-3.4774100">
        <ele>619.2</ele>
        <time>2018-10-21T06:29:13Z</time>
      </trkpt>
      <trkpt lat="42.6729220" lon="-3.4773980">
        <ele>619.2</ele>
        <time>2018-10-21T06:29:14Z</time>
      </trkpt>
      <trkpt lat="42.6729920" lon="-3.4773870">
        <ele>619.2</ele>
        <time>2018-10-21T06:29:15Z</time>
      </trkpt>
      <trkpt lat="42.6730620" lon="-3.4773750">
        <ele>619.2</ele>
        <time>2018-10-21T06:29:16Z</time>
      </trkpt>
      <trkpt lat="42.6731330" lon="-3.4773630">
        <ele>619.2</ele>
        <time>2018-10-21T06:29:17Z</time>
      </trkpt>
      <trkpt lat="42.6732030" lon="-3.4773530">
        <ele>619.2</ele>
        <time>2018-10-21T06:29:18Z</time>
      </trkpt>
      <trkpt lat="42.6732730" lon="-3.4773400">
        <ele>619.2</ele>
        <time>2018-10-21T06:29:19Z</time>
      </trkpt>
      <trkpt lat="42.6733430" lon="-3.4773270">
        <ele>619.2</ele>
        <time>2018-10-21T06:29:20Z</time>
      </trkpt>
      <trkpt lat="42.6734130" lon="-3.4773130">
        <ele>619.2</ele>
        <time>2018-10-21T06:29:21Z</time>
      </trkpt>
      <trkpt lat="42.6734830" lon="-3.4773020">
        <ele>619.2</ele>
        <time>2018-10-21T06:29:22Z</time>
      </trkpt>
      <trkpt lat="42.6735530" lon="-3.4772900">
        <ele>619.2</ele>
        <time>2018-10-21T06:29:23Z</time>
      </trkpt>
      <trkpt lat="42.6736220" lon="-3.4772770">
        <ele>619.2</ele>
        <time>2018-10-21T06:29:24Z</time>
      </trkpt>
      <trkpt lat="42.6736920" lon="-3.4772630">
        <ele>619.2</ele>
        <time>2018-10-21T06:29:25Z</time>
      </trkpt>
      <trkpt lat="42.6737620" lon="-3.4772500">
        <ele>619.2</ele>
        <time>2018-10-21T06:29:26Z</time>
      </trkpt>
      <trkpt lat="42.6738320" lon="-3.4772380">
        <ele>619.2</ele>
        <time>2018-10-21T06:29:27Z</time>
      </trkpt>
      <trkpt lat="42.6739020" lon="-3.4772280">
        <ele>619.2</ele>
        <time>2018-10-21T06:29:28Z</time>
      </trkpt>
      <trkpt lat="42.6739720" lon="-3.4772180">
        <ele>619.2</ele>
        <time>2018-10-21T06:29:29Z</time>
      </trkpt>
      <trkpt lat="42.6740420" lon="-3.4772050">
        <ele>619.2</ele>
        <time>2018-10-21T06:29:30Z</time>
      </trkpt>
      <trkpt lat="42.6741120" lon="-3.4771920">
        <ele>619.2</ele>
        <time>2018-10-21T06:29:31Z</time>
      </trkpt>
      <trkpt lat="42.6741800" lon="-3.4771820">
        <ele>619.2</ele>
        <time>2018-10-21T06:29:32Z</time>
      </trkpt>
      <trkpt lat="42.6742500" lon="-3.4771670">
        <ele>619.2</ele>
        <time>2018-10-21T06:29:33Z</time>
      </trkpt>
      <trkpt lat="42.6743180" lon="-3.4771530">
        <ele>619.2</ele>
        <time>2018-10-21T06:29:34Z</time>
      </trkpt>
      <trkpt lat="42.6743870" lon="-3.4771400">
        <ele>619.2</ele>
        <time>2018-10-21T06:29:35Z</time>
      </trkpt>
      <trkpt lat="42.6744570" lon="-3.4771230">
        <ele>619.2</ele>
        <time>2018-10-21T06:29:36Z</time>
      </trkpt>
      <trkpt lat="42.6745250" lon="-3.4771100">
        <ele>619.2</ele>
        <time>2018-10-21T06:29:37Z</time>
      </trkpt>
      <trkpt lat="42.6745920" lon="-3.4770980">
        <ele>619.2</ele>
        <time>2018-10-21T06:29:38Z</time>
      </trkpt>
      <trkpt lat="42.6746580" lon="-3.4770830">
        <ele>619.2</ele>
        <time>2018-10-21T06:29:39Z</time>
      </trkpt>
      <trkpt lat="42.6747230" lon="-3.4770700">
        <ele>619.2</ele>
        <time>2018-10-21T06:29:40Z</time>
      </trkpt>
      <trkpt lat="42.6747850" lon="-3.4770570">
        <ele>619.2</ele>
        <time>2018-10-21T06:29:41Z</time>
      </trkpt>
      <trkpt lat="42.6748480" lon="-3.4770430">
        <ele>619.2</ele>
        <time>2018-10-21T06:29:42Z</time>
      </trkpt>
      <trkpt lat="42.6749120" lon="-3.4770270">
        <ele>619.2</ele>
        <time>2018-10-21T06:29:43Z</time>
      </trkpt>
      <trkpt lat="42.6749750" lon="-3.4770120">
        <ele>619.2</ele>
        <time>2018-10-21T06:29:44Z</time>
      </trkpt>
      <trkpt lat="42.6750400" lon="-3.4769970">
        <ele>619.2</ele>
        <time>2018-10-21T06:29:45Z</time>
      </trkpt>
      <trkpt lat="42.6751030" lon="-3.4769820">
        <ele>619.2</ele>
        <time>2018-10-21T06:29:46Z</time>
      </trkpt>
      <trkpt lat="42.6751680" lon="-3.4769680">
        <ele>619.2</ele>
        <time>2018-10-21T06:29:47Z</time>
      </trkpt>
      <trkpt lat="42.6752320" lon="-3.4769550">
        <ele>619.2</ele>
        <time>2018-10-21T06:29:48Z</time>
      </trkpt>
      <trkpt lat="42.6752980" lon="-3.4769400">
        <ele>619.2</ele>
        <time>2018-10-21T06:29:49Z</time>
      </trkpt>
      <trkpt lat="42.6753650" lon="-3.4769250">
        <ele>619.2</ele>
        <time>2018-10-21T06:29:50Z</time>
      </trkpt>
      <trkpt lat="42.6754330" lon="-3.4769120">
        <ele>619.2</ele>
        <time>2018-10-21T06:29:51Z</time>
      </trkpt>
      <trkpt lat="42.6755020" lon="-3.4768980">
        <ele>618.3</ele>
        <time>2018-10-21T06:29:52Z</time>
      </trkpt>
      <trkpt lat="42.6755680" lon="-3.4768820">
        <ele>618.3</ele>
        <time>2018-10-21T06:29:53Z</time>
      </trkpt>
      <trkpt lat="42.6756380" lon="-3.4768630">
        <ele>618.3</ele>
        <time>2018-10-21T06:29:54Z</time>
      </trkpt>
      <trkpt lat="42.6757070" lon="-3.4768480">
        <ele>618.3</ele>
        <time>2018-10-21T06:29:55Z</time>
      </trkpt>
      <trkpt lat="42.6757770" lon="-3.4768320">
        <ele>618.3</ele>
        <time>2018-10-21T06:29:56Z</time>
      </trkpt>
      <trkpt lat="42.6758480" lon="-3.4768170">
        <ele>618.3</ele>
        <time>2018-10-21T06:29:57Z</time>
      </trkpt>
      <trkpt lat="42.6759180" lon="-3.4768020">
        <ele>617.2</ele>
        <time>2018-10-21T06:29:58Z</time>
      </trkpt>
      <trkpt lat="42.6759900" lon="-3.4767850">
        <ele>617.2</ele>
        <time>2018-10-21T06:29:59Z</time>
      </trkpt>
      <trkpt lat="42.6760600" lon="-3.4767700">
        <ele>617.2</ele>
        <time>2018-10-21T06:30:00Z</time>
      </trkpt>
      <trkpt lat="42.6761320" lon="-3.4767530">
        <ele>617.2</ele>
        <time>2018-10-21T06:30:01Z</time>
      </trkpt>
      <trkpt lat="42.6762030" lon="-3.4767370">
        <ele>617.2</ele>
        <time>2018-10-21T06:30:02Z</time>
      </trkpt>
      <trkpt lat="42.6762730" lon="-3.4767170">
        <ele>617.2</ele>
        <time>2018-10-21T06:30:03Z</time>
      </trkpt>
      <trkpt lat="42.6763450" lon="-3.4766980">
        <ele>616.3</ele>
        <time>2018-10-21T06:30:04Z</time>
      </trkpt>
      <trkpt lat="42.6764170" lon="-3.4766830">
        <ele>616.3</ele>
        <time>2018-10-21T06:30:05Z</time>
      </trkpt>
      <trkpt lat="42.6764880" lon="-3.4766680">
        <ele>616.3</ele>
        <time>2018-10-21T06:30:06Z</time>
      </trkpt>
      <trkpt lat="42.6765600" lon="-3.4766530">
        <ele>616.3</ele>
        <time>2018-10-21T06:30:07Z</time>
      </trkpt>
      <trkpt lat="42.6766320" lon="-3.4766380">
        <ele>616.3</ele>
        <time>2018-10-21T06:30:08Z</time>
      </trkpt>
      <trkpt lat="42.6767030" lon="-3.4766220">
        <ele>616.3</ele>
        <time>2018-10-21T06:30:09Z</time>
      </trkpt>
      <trkpt lat="42.6767770" lon="-3.4766030">
        <ele>615.2</ele>
        <time>2018-10-21T06:30:10Z</time>
      </trkpt>
      <trkpt lat="42.6768480" lon="-3.4765870">
        <ele>615.2</ele>
        <time>2018-10-21T06:30:11Z</time>
      </trkpt>
      <trkpt lat="42.6769200" lon="-3.4765700">
        <ele>615.2</ele>
        <time>2018-10-21T06:30:12Z</time>
      </trkpt>
      <trkpt lat="42.6769920" lon="-3.4765550">
        <ele>615.2</ele>
        <time>2018-10-21T06:30:13Z</time>
      </trkpt>
      <trkpt lat="42.6770630" lon="-3.4765380">
        <ele>615.2</ele>
        <time>2018-10-21T06:30:14Z</time>
      </trkpt>
      <trkpt lat="42.6771330" lon="-3.4765180">
        <ele>615.2</ele>
        <time>2018-10-21T06:30:15Z</time>
      </trkpt>
      <trkpt lat="42.6772050" lon="-3.4764970">
        <ele>615.2</ele>
        <time>2018-10-21T06:30:16Z</time>
      </trkpt>
      <trkpt lat="42.6772770" lon="-3.4764780">
        <ele>615.2</ele>
        <time>2018-10-21T06:30:17Z</time>
      </trkpt>
      <trkpt lat="42.6773480" lon="-3.4764630">
        <ele>614.2</ele>
        <time>2018-10-21T06:30:18Z</time>
      </trkpt>
      <trkpt lat="42.6774200" lon="-3.4764480">
        <ele>614.2</ele>
        <time>2018-10-21T06:30:19Z</time>
      </trkpt>
      <trkpt lat="42.6774920" lon="-3.4764330">
        <ele>614.2</ele>
        <time>2018-10-21T06:30:20Z</time>
      </trkpt>
      <trkpt lat="42.6775620" lon="-3.4764150">
        <ele>614.2</ele>
        <time>2018-10-21T06:30:21Z</time>
      </trkpt>
      <trkpt lat="42.6776300" lon="-3.4763970">
        <ele>614.2</ele>
        <time>2018-10-21T06:30:22Z</time>
      </trkpt>
      <trkpt lat="42.6777000" lon="-3.4763820">
        <ele>614.2</ele>
        <time>2018-10-21T06:30:23Z</time>
      </trkpt>
      <trkpt lat="42.6777680" lon="-3.4763630">
        <ele>614.2</ele>
        <time>2018-10-21T06:30:24Z</time>
      </trkpt>
      <trkpt lat="42.6778370" lon="-3.4763450">
        <ele>614.2</ele>
        <time>2018-10-21T06:30:25Z</time>
      </trkpt>
      <trkpt lat="42.6779050" lon="-3.4763280">
        <ele>614.2</ele>
        <time>2018-10-21T06:30:26Z</time>
      </trkpt>
      <trkpt lat="42.6779720" lon="-3.4763130">
        <ele>614.2</ele>
        <time>2018-10-21T06:30:27Z</time>
      </trkpt>
      <trkpt lat="42.6780380" lon="-3.4762980">
        <ele>614.2</ele>
        <time>2018-10-21T06:30:28Z</time>
      </trkpt>
      <trkpt lat="42.6781030" lon="-3.4762820">
        <ele>614.2</ele>
        <time>2018-10-21T06:30:29Z</time>
      </trkpt>
      <trkpt lat="42.6781680" lon="-3.4762650">
        <ele>614.2</ele>
        <time>2018-10-21T06:30:30Z</time>
      </trkpt>
      <trkpt lat="42.6782350" lon="-3.4762500">
        <ele>614.2</ele>
        <time>2018-10-21T06:30:31Z</time>
      </trkpt>
      <trkpt lat="42.6783000" lon="-3.4762350">
        <ele>614.2</ele>
        <time>2018-10-21T06:30:32Z</time>
      </trkpt>
      <trkpt lat="42.6783650" lon="-3.4762200">
        <ele>614.2</ele>
        <time>2018-10-21T06:30:33Z</time>
      </trkpt>
      <trkpt lat="42.6784320" lon="-3.4762070">
        <ele>614.2</ele>
        <time>2018-10-21T06:30:34Z</time>
      </trkpt>
      <trkpt lat="42.6784980" lon="-3.4761900">
        <ele>614.2</ele>
        <time>2018-10-21T06:30:35Z</time>
      </trkpt>
      <trkpt lat="42.6785650" lon="-3.4761750">
        <ele>614.2</ele>
        <time>2018-10-21T06:30:36Z</time>
      </trkpt>
      <trkpt lat="42.6786330" lon="-3.4761580">
        <ele>614.2</ele>
        <time>2018-10-21T06:30:37Z</time>
      </trkpt>
      <trkpt lat="42.6787000" lon="-3.4761420">
        <ele>614.2</ele>
        <time>2018-10-21T06:30:38Z</time>
      </trkpt>
      <trkpt lat="42.6787670" lon="-3.4761270">
        <ele>614.2</ele>
        <time>2018-10-21T06:30:39Z</time>
      </trkpt>
      <trkpt lat="42.6788330" lon="-3.4761120">
        <ele>614.2</ele>
        <time>2018-10-21T06:30:40Z</time>
      </trkpt>
      <trkpt lat="42.6789000" lon="-3.4760950">
        <ele>614.2</ele>
        <time>2018-10-21T06:30:41Z</time>
      </trkpt>
      <trkpt lat="42.6789670" lon="-3.4760780">
        <ele>614.2</ele>
        <time>2018-10-21T06:30:42Z</time>
      </trkpt>
      <trkpt lat="42.6790330" lon="-3.4760630">
        <ele>614.2</ele>
        <time>2018-10-21T06:30:43Z</time>
      </trkpt>
      <trkpt lat="42.6791000" lon="-3.4760470">
        <ele>614.2</ele>
        <time>2018-10-21T06:30:44Z</time>
      </trkpt>
      <trkpt lat="42.6791680" lon="-3.4760330">
        <ele>614.2</ele>
        <time>2018-10-21T06:30:45Z</time>
      </trkpt>
      <trkpt lat="42.6792370" lon="-3.4760180">
        <ele>614.2</ele>
        <time>2018-10-21T06:30:46Z</time>
      </trkpt>
      <trkpt lat="42.6793070" lon="-3.4760020">
        <ele>614.2</ele>
        <time>2018-10-21T06:30:47Z</time>
      </trkpt>
      <trkpt lat="42.6793770" lon="-3.4759870">
        <ele>614.2</ele>
        <time>2018-10-21T06:30:48Z</time>
      </trkpt>
      <trkpt lat="42.6794470" lon="-3.4759720">
        <ele>614.2</ele>
        <time>2018-10-21T06:30:49Z</time>
      </trkpt>
      <trkpt lat="42.6795170" lon="-3.4759530">
        <ele>614.2</ele>
        <time>2018-10-21T06:30:50Z</time>
      </trkpt>
      <trkpt lat="42.6795870" lon="-3.4759370">
        <ele>614.2</ele>
        <time>2018-10-21T06:30:51Z</time>
      </trkpt>
      <trkpt lat="42.6796580" lon="-3.4759200">
        <ele>613.3</ele>
        <time>2018-10-21T06:30:52Z</time>
      </trkpt>
      <trkpt lat="42.6797300" lon="-3.4759030">
        <ele>613.3</ele>
        <time>2018-10-21T06:30:53Z</time>
      </trkpt>
      <trkpt lat="42.6798020" lon="-3.4758870">
        <ele>613.3</ele>
        <time>2018-10-21T06:30:54Z</time>
      </trkpt>
      <trkpt lat="42.6798730" lon="-3.4758700">
        <ele>613.3</ele>
        <time>2018-10-21T06:30:55Z</time>
      </trkpt>
      <trkpt lat="42.6799470" lon="-3.4758530">
        <ele>613.3</ele>
        <time>2018-10-21T06:30:56Z</time>
      </trkpt>
      <trkpt lat="42.6800200" lon="-3.4758350">
        <ele>613.3</ele>
        <time>2018-10-21T06:30:57Z</time>
      </trkpt>
      <trkpt lat="42.6800930" lon="-3.4758180">
        <ele>613.3</ele>
        <time>2018-10-21T06:30:58Z</time>
      </trkpt>
      <trkpt lat="42.6801670" lon="-3.4758030">
        <ele>613.3</ele>
        <time>2018-10-21T06:30:59Z</time>
      </trkpt>
      <trkpt lat="42.6802400" lon="-3.4757870">
        <ele>613.3</ele>
        <time>2018-10-21T06:31:00Z</time>
      </trkpt>
      <trkpt lat="42.6803130" lon="-3.4757720">
        <ele>613.3</ele>
        <time>2018-10-21T06:31:01Z</time>
      </trkpt>
      <trkpt lat="42.6803870" lon="-3.4757530">
        <ele>613.3</ele>
        <time>2018-10-21T06:31:02Z</time>
      </trkpt>
      <trkpt lat="42.6804600" lon="-3.4757330">
        <ele>613.3</ele>
        <time>2018-10-21T06:31:03Z</time>
      </trkpt>
      <trkpt lat="42.6805330" lon="-3.4757150">
        <ele>613.3</ele>
        <time>2018-10-21T06:31:04Z</time>
      </trkpt>
      <trkpt lat="42.6806070" lon="-3.4756950">
        <ele>613.3</ele>
        <time>2018-10-21T06:31:05Z</time>
      </trkpt>
      <trkpt lat="42.6806820" lon="-3.4756800">
        <ele>613.3</ele>
        <time>2018-10-21T06:31:06Z</time>
      </trkpt>
      <trkpt lat="42.6807550" lon="-3.4756630">
        <ele>613.3</ele>
        <time>2018-10-21T06:31:07Z</time>
      </trkpt>
      <trkpt lat="42.6808280" lon="-3.4756470">
        <ele>612.2</ele>
        <time>2018-10-21T06:31:08Z</time>
      </trkpt>
      <trkpt lat="42.6809020" lon="-3.4756320">
        <ele>612.2</ele>
        <time>2018-10-21T06:31:09Z</time>
      </trkpt>
      <trkpt lat="42.6809770" lon="-3.4756170">
        <ele>612.2</ele>
        <time>2018-10-21T06:31:10Z</time>
      </trkpt>
      <trkpt lat="42.6810500" lon="-3.4756020">
        <ele>612.2</ele>
        <time>2018-10-21T06:31:11Z</time>
      </trkpt>
      <trkpt lat="42.6811230" lon="-3.4755850">
        <ele>612.2</ele>
        <time>2018-10-21T06:31:12Z</time>
      </trkpt>
      <trkpt lat="42.6811950" lon="-3.4755680">
        <ele>612.2</ele>
        <time>2018-10-21T06:31:13Z</time>
      </trkpt>
      <trkpt lat="42.6812680" lon="-3.4755480">
        <ele>612.2</ele>
        <time>2018-10-21T06:31:14Z</time>
      </trkpt>
      <trkpt lat="42.6813400" lon="-3.4755320">
        <ele>612.2</ele>
        <time>2018-10-21T06:31:15Z</time>
      </trkpt>
      <trkpt lat="42.6814120" lon="-3.4755150">
        <ele>612.2</ele>
        <time>2018-10-21T06:31:16Z</time>
      </trkpt>
      <trkpt lat="42.6814820" lon="-3.4754980">
        <ele>612.2</ele>
        <time>2018-10-21T06:31:17Z</time>
      </trkpt>
      <trkpt lat="42.6815530" lon="-3.4754800">
        <ele>611.3</ele>
        <time>2018-10-21T06:31:18Z</time>
      </trkpt>
      <trkpt lat="42.6816230" lon="-3.4754630">
        <ele>611.3</ele>
        <time>2018-10-21T06:31:19Z</time>
      </trkpt>
      <trkpt lat="42.6816930" lon="-3.4754450">
        <ele>611.3</ele>
        <time>2018-10-21T06:31:20Z</time>
      </trkpt>
      <trkpt lat="42.6817620" lon="-3.4754280">
        <ele>611.3</ele>
        <time>2018-10-21T06:31:21Z</time>
      </trkpt>
      <trkpt lat="42.6818320" lon="-3.4754100">
        <ele>611.3</ele>
        <time>2018-10-21T06:31:22Z</time>
      </trkpt>
      <trkpt lat="42.6819000" lon="-3.4753930">
        <ele>611.3</ele>
        <time>2018-10-21T06:31:23Z</time>
      </trkpt>
      <trkpt lat="42.6819700" lon="-3.4753780">
        <ele>611.3</ele>
        <time>2018-10-21T06:31:24Z</time>
      </trkpt>
      <trkpt lat="42.6820380" lon="-3.4753600">
        <ele>611.3</ele>
        <time>2018-10-21T06:31:25Z</time>
      </trkpt>
      <trkpt lat="42.6821070" lon="-3.4753430">
        <ele>610.2</ele>
        <time>2018-10-21T06:31:26Z</time>
      </trkpt>
      <trkpt lat="42.6821750" lon="-3.4753280">
        <ele>610.2</ele>
        <time>2018-10-21T06:31:27Z</time>
      </trkpt>
      <trkpt lat="42.6822430" lon="-3.4753150">
        <ele>610.2</ele>
        <time>2018-10-21T06:31:28Z</time>
      </trkpt>
      <trkpt lat="42.6823120" lon="-3.4753020">
        <ele>610.2</ele>
        <time>2018-10-21T06:31:29Z</time>
      </trkpt>
      <trkpt lat="42.6823780" lon="-3.4752850">
        <ele>610.2</ele>
        <time>2018-10-21T06:31:30Z</time>
      </trkpt>
      <trkpt lat="42.6824450" lon="-3.4752700">
        <ele>610.2</ele>
        <time>2018-10-21T06:31:31Z</time>
      </trkpt>
      <trkpt lat="42.6825120" lon="-3.4752530">
        <ele>610.2</ele>
        <time>2018-10-21T06:31:32Z</time>
      </trkpt>
      <trkpt lat="42.6825780" lon="-3.4752370">
        <ele>610.2</ele>
        <time>2018-10-21T06:31:33Z</time>
      </trkpt>
      <trkpt lat="42.6826470" lon="-3.4752200">
        <ele>610.2</ele>
        <time>2018-10-21T06:31:34Z</time>
      </trkpt>
      <trkpt lat="42.6827150" lon="-3.4752030">
        <ele>610.2</ele>
        <time>2018-10-21T06:31:35Z</time>
      </trkpt>
      <trkpt lat="42.6827820" lon="-3.4751880">
        <ele>610.2</ele>
        <time>2018-10-21T06:31:36Z</time>
      </trkpt>
      <trkpt lat="42.6828480" lon="-3.4751750">
        <ele>610.2</ele>
        <time>2018-10-21T06:31:37Z</time>
      </trkpt>
      <trkpt lat="42.6829150" lon="-3.4751600">
        <ele>610.2</ele>
        <time>2018-10-21T06:31:38Z</time>
      </trkpt>
      <trkpt lat="42.6829820" lon="-3.4751430">
        <ele>610.2</ele>
        <time>2018-10-21T06:31:39Z</time>
      </trkpt>
      <trkpt lat="42.6830500" lon="-3.4751280">
        <ele>610.2</ele>
        <time>2018-10-21T06:31:40Z</time>
      </trkpt>
      <trkpt lat="42.6831170" lon="-3.4751130">
        <ele>610.2</ele>
        <time>2018-10-21T06:31:41Z</time>
      </trkpt>
      <trkpt lat="42.6831830" lon="-3.4750970">
        <ele>610.2</ele>
        <time>2018-10-21T06:31:42Z</time>
      </trkpt>
      <trkpt lat="42.6832500" lon="-3.4750820">
        <ele>610.2</ele>
        <time>2018-10-21T06:31:43Z</time>
      </trkpt>
      <trkpt lat="42.6833170" lon="-3.4750670">
        <ele>610.2</ele>
        <time>2018-10-21T06:31:44Z</time>
      </trkpt>
      <trkpt lat="42.6833820" lon="-3.4750480">
        <ele>610.2</ele>
        <time>2018-10-21T06:31:45Z</time>
      </trkpt>
      <trkpt lat="42.6834480" lon="-3.4750330">
        <ele>610.2</ele>
        <time>2018-10-21T06:31:46Z</time>
      </trkpt>
      <trkpt lat="42.6835150" lon="-3.4750170">
        <ele>610.2</ele>
        <time>2018-10-21T06:31:47Z</time>
      </trkpt>
      <trkpt lat="42.6835800" lon="-3.4750000">
        <ele>610.2</ele>
        <time>2018-10-21T06:31:48Z</time>
      </trkpt>
      <trkpt lat="42.6836450" lon="-3.4749850">
        <ele>610.2</ele>
        <time>2018-10-21T06:31:49Z</time>
      </trkpt>
      <trkpt lat="42.6837100" lon="-3.4749700">
        <ele>609.3</ele>
        <time>2018-10-21T06:31:50Z</time>
      </trkpt>
      <trkpt lat="42.6837770" lon="-3.4749530">
        <ele>609.3</ele>
        <time>2018-10-21T06:31:51Z</time>
      </trkpt>
      <trkpt lat="42.6837770" lon="-3.4749530">
        <ele>609.3</ele>
        <time>2018-10-21T06:31:52Z</time>
      </trkpt>
      <trkpt lat="42.6839080" lon="-3.4749180">
        <ele>609.3</ele>
        <time>2018-10-21T06:31:53Z</time>
      </trkpt>
      <trkpt lat="42.6839770" lon="-3.4748980">
        <ele>609.3</ele>
        <time>2018-10-21T06:31:54Z</time>
      </trkpt>
      <trkpt lat="42.6840430" lon="-3.4748820">
        <ele>609.3</ele>
        <time>2018-10-21T06:31:55Z</time>
      </trkpt>
      <trkpt lat="42.6841100" lon="-3.4748670">
        <ele>609.3</ele>
        <time>2018-10-21T06:31:56Z</time>
      </trkpt>
      <trkpt lat="42.6841780" lon="-3.4748530">
        <ele>609.3</ele>
        <time>2018-10-21T06:31:57Z</time>
      </trkpt>
      <trkpt lat="42.6842450" lon="-3.4748380">
        <ele>609.3</ele>
        <time>2018-10-21T06:31:58Z</time>
      </trkpt>
      <trkpt lat="42.6843120" lon="-3.4748220">
        <ele>609.3</ele>
        <time>2018-10-21T06:31:59Z</time>
      </trkpt>
      <trkpt lat="42.6843800" lon="-3.4748020">
        <ele>608.2</ele>
        <time>2018-10-21T06:32:00Z</time>
      </trkpt>
      <trkpt lat="42.6844470" lon="-3.4747850">
        <ele>608.2</ele>
        <time>2018-10-21T06:32:01Z</time>
      </trkpt>
      <trkpt lat="42.6845150" lon="-3.4747700">
        <ele>608.2</ele>
        <time>2018-10-21T06:32:02Z</time>
      </trkpt>
      <trkpt lat="42.6845830" lon="-3.4747550">
        <ele>608.2</ele>
        <time>2018-10-21T06:32:03Z</time>
      </trkpt>
      <trkpt lat="42.6846520" lon="-3.4747370">
        <ele>608.2</ele>
        <time>2018-10-21T06:32:04Z</time>
      </trkpt>
      <trkpt lat="42.6846520" lon="-3.4747370">
        <ele>608.2</ele>
        <time>2018-10-21T06:32:05Z</time>
      </trkpt>
      <trkpt lat="42.6847880" lon="-3.4747070">
        <ele>608.2</ele>
        <time>2018-10-21T06:32:06Z</time>
      </trkpt>
      <trkpt lat="42.6848580" lon="-3.4746930">
        <ele>608.2</ele>
        <time>2018-10-21T06:32:07Z</time>
      </trkpt>
      <trkpt lat="42.6849270" lon="-3.4746750">
        <ele>608.2</ele>
        <time>2018-10-21T06:32:08Z</time>
      </trkpt>
      <trkpt lat="42.6849950" lon="-3.4746580">
        <ele>608.2</ele>
        <time>2018-10-21T06:32:09Z</time>
      </trkpt>
      <trkpt lat="42.6850630" lon="-3.4746400">
        <ele>608.2</ele>
        <time>2018-10-21T06:32:10Z</time>
      </trkpt>
      <trkpt lat="42.6851320" lon="-3.4746230">
        <ele>608.2</ele>
        <time>2018-10-21T06:32:11Z</time>
      </trkpt>
      <trkpt lat="42.6852020" lon="-3.4746100">
        <ele>608.2</ele>
        <time>2018-10-21T06:32:12Z</time>
      </trkpt>
      <trkpt lat="42.6852700" lon="-3.4745930">
        <ele>608.2</ele>
        <time>2018-10-21T06:32:13Z</time>
      </trkpt>
      <trkpt lat="42.6853370" lon="-3.4745780">
        <ele>608.2</ele>
        <time>2018-10-21T06:32:14Z</time>
      </trkpt>
      <trkpt lat="42.6854050" lon="-3.4745620">
        <ele>608.2</ele>
        <time>2018-10-21T06:32:15Z</time>
      </trkpt>
      <trkpt lat="42.6854730" lon="-3.4745450">
        <ele>608.2</ele>
        <time>2018-10-21T06:32:16Z</time>
      </trkpt>
      <trkpt lat="42.6855420" lon="-3.4745280">
        <ele>608.2</ele>
        <time>2018-10-21T06:32:17Z</time>
      </trkpt>
      <trkpt lat="42.6856100" lon="-3.4745130">
        <ele>608.2</ele>
        <time>2018-10-21T06:32:18Z</time>
      </trkpt>
      <trkpt lat="42.6856770" lon="-3.4744970">
        <ele>608.2</ele>
        <time>2018-10-21T06:32:19Z</time>
      </trkpt>
      <trkpt lat="42.6857420" lon="-3.4744800">
        <ele>608.2</ele>
        <time>2018-10-21T06:32:20Z</time>
      </trkpt>
      <trkpt lat="42.6858070" lon="-3.4744630">
        <ele>608.2</ele>
        <time>2018-10-21T06:32:21Z</time>
      </trkpt>
      <trkpt lat="42.6858720" lon="-3.4744470">
        <ele>608.2</ele>
        <time>2018-10-21T06:32:22Z</time>
      </trkpt>
      <trkpt lat="42.6859350" lon="-3.4744320">
        <ele>608.2</ele>
        <time>2018-10-21T06:32:23Z</time>
      </trkpt>
      <trkpt lat="42.6859970" lon="-3.4744170">
        <ele>608.2</ele>
        <time>2018-10-21T06:32:24Z</time>
      </trkpt>
      <trkpt lat="42.6860580" lon="-3.4744020">
        <ele>608.2</ele>
        <time>2018-10-21T06:32:25Z</time>
      </trkpt>
      <trkpt lat="42.6861180" lon="-3.4743880">
        <ele>609.3</ele>
        <time>2018-10-21T06:32:26Z</time>
      </trkpt>
      <trkpt lat="42.6861770" lon="-3.4743720">
        <ele>609.3</ele>
        <time>2018-10-21T06:32:27Z</time>
      </trkpt>
      <trkpt lat="42.6862350" lon="-3.4743570">
        <ele>609.3</ele>
        <time>2018-10-21T06:32:28Z</time>
      </trkpt>
      <trkpt lat="42.6862930" lon="-3.4743420">
        <ele>609.3</ele>
        <time>2018-10-21T06:32:29Z</time>
      </trkpt>
      <trkpt lat="42.6863520" lon="-3.4743270">
        <ele>610.2</ele>
        <time>2018-10-21T06:32:30Z</time>
      </trkpt>
      <trkpt lat="42.6864080" lon="-3.4743120">
        <ele>610.2</ele>
        <time>2018-10-21T06:32:31Z</time>
      </trkpt>
      <trkpt lat="42.6864670" lon="-3.4742970">
        <ele>610.2</ele>
        <time>2018-10-21T06:32:32Z</time>
      </trkpt>
      <trkpt lat="42.6865220" lon="-3.4742850">
        <ele>610.2</ele>
        <time>2018-10-21T06:32:33Z</time>
      </trkpt>
      <trkpt lat="42.6865770" lon="-3.4742730">
        <ele>610.2</ele>
        <time>2018-10-21T06:32:34Z</time>
      </trkpt>
      <trkpt lat="42.6866300" lon="-3.4742600">
        <ele>610.2</ele>
        <time>2018-10-21T06:32:35Z</time>
      </trkpt>
      <trkpt lat="42.6866830" lon="-3.4742480">
        <ele>610.2</ele>
        <time>2018-10-21T06:32:36Z</time>
      </trkpt>
      <trkpt lat="42.6867380" lon="-3.4742370">
        <ele>610.2</ele>
        <time>2018-10-21T06:32:37Z</time>
      </trkpt>
      <trkpt lat="42.6867920" lon="-3.4742250">
        <ele>610.2</ele>
        <time>2018-10-21T06:32:38Z</time>
      </trkpt>
      <trkpt lat="42.6868450" lon="-3.4742120">
        <ele>610.2</ele>
        <time>2018-10-21T06:32:39Z</time>
      </trkpt>
      <trkpt lat="42.6869020" lon="-3.4741970">
        <ele>610.2</ele>
        <time>2018-10-21T06:32:40Z</time>
      </trkpt>
      <trkpt lat="42.6869580" lon="-3.4741830">
        <ele>610.2</ele>
        <time>2018-10-21T06:32:41Z</time>
      </trkpt>
      <trkpt lat="42.6870170" lon="-3.4741720">
        <ele>611.3</ele>
        <time>2018-10-21T06:32:42Z</time>
      </trkpt>
      <trkpt lat="42.6870780" lon="-3.4741580">
        <ele>611.3</ele>
        <time>2018-10-21T06:32:43Z</time>
      </trkpt>
      <trkpt lat="42.6871400" lon="-3.4741450">
        <ele>611.3</ele>
        <time>2018-10-21T06:32:44Z</time>
      </trkpt>
      <trkpt lat="42.6872020" lon="-3.4741320">
        <ele>611.3</ele>
        <time>2018-10-21T06:32:45Z</time>
      </trkpt>
      <trkpt lat="42.6872650" lon="-3.4741170">
        <ele>611.3</ele>
        <time>2018-10-21T06:32:46Z</time>
      </trkpt>
      <trkpt lat="42.6873280" lon="-3.4741000">
        <ele>611.3</ele>
        <time>2018-10-21T06:32:47Z</time>
      </trkpt>
      <trkpt lat="42.6873920" lon="-3.4740830">
        <ele>611.3</ele>
        <time>2018-10-21T06:32:48Z</time>
      </trkpt>
      <trkpt lat="42.6873920" lon="-3.4740830">
        <ele>611.3</ele>
        <time>2018-10-21T06:32:49Z</time>
      </trkpt>
      <trkpt lat="42.6875170" lon="-3.4740530">
        <ele>611.3</ele>
        <time>2018-10-21T06:32:50Z</time>
      </trkpt>
      <trkpt lat="42.6875800" lon="-3.4740380">
        <ele>611.3</ele>
        <time>2018-10-21T06:32:51Z</time>
      </trkpt>
      <trkpt lat="42.6876420" lon="-3.4740220">
        <ele>611.3</ele>
        <time>2018-10-21T06:32:52Z</time>
      </trkpt>
      <trkpt lat="42.6877030" lon="-3.4740080">
        <ele>611.3</ele>
        <time>2018-10-21T06:32:53Z</time>
      </trkpt>
      <trkpt lat="42.6877630" lon="-3.4739950">
        <ele>611.3</ele>
        <time>2018-10-21T06:32:54Z</time>
      </trkpt>
      <trkpt lat="42.6878230" lon="-3.4739820">
        <ele>611.3</ele>
        <time>2018-10-21T06:32:55Z</time>
      </trkpt>
      <trkpt lat="42.6878830" lon="-3.4739670">
        <ele>611.3</ele>
        <time>2018-10-21T06:32:56Z</time>
      </trkpt>
      <trkpt lat="42.6879420" lon="-3.4739520">
        <ele>611.3</ele>
        <time>2018-10-21T06:32:57Z</time>
      </trkpt>
      <trkpt lat="42.6879970" lon="-3.4739380">
        <ele>611.3</ele>
        <time>2018-10-21T06:32:58Z</time>
      </trkpt>
      <trkpt lat="42.6880500" lon="-3.4739250">
        <ele>611.3</ele>
        <time>2018-10-21T06:32:59Z</time>
      </trkpt>
      <trkpt lat="42.6881070" lon="-3.4739100">
        <ele>611.3</ele>
        <time>2018-10-21T06:33:00Z</time>
      </trkpt>
      <trkpt lat="42.6881630" lon="-3.4738970">
        <ele>611.3</ele>
        <time>2018-10-21T06:33:01Z</time>
      </trkpt>
      <trkpt lat="42.6882180" lon="-3.4738850">
        <ele>611.3</ele>
        <time>2018-10-21T06:33:02Z</time>
      </trkpt>
      <trkpt lat="42.6882750" lon="-3.4738720">
        <ele>611.3</ele>
        <time>2018-10-21T06:33:03Z</time>
      </trkpt>
      <trkpt lat="42.6883300" lon="-3.4738580">
        <ele>611.3</ele>
        <time>2018-10-21T06:33:04Z</time>
      </trkpt>
      <trkpt lat="42.6883850" lon="-3.4738450">
        <ele>611.3</ele>
        <time>2018-10-21T06:33:05Z</time>
      </trkpt>
      <trkpt lat="42.6884400" lon="-3.4738330">
        <ele>611.3</ele>
        <time>2018-10-21T06:33:06Z</time>
      </trkpt>
      <trkpt lat="42.6884950" lon="-3.4738200">
        <ele>611.3</ele>
        <time>2018-10-21T06:33:07Z</time>
      </trkpt>
      <trkpt lat="42.6885480" lon="-3.4738080">
        <ele>612.2</ele>
        <time>2018-10-21T06:33:08Z</time>
      </trkpt>
      <trkpt lat="42.6886020" lon="-3.4737950">
        <ele>612.2</ele>
        <time>2018-10-21T06:33:09Z</time>
      </trkpt>
      <trkpt lat="42.6886530" lon="-3.4737820">
        <ele>612.2</ele>
        <time>2018-10-21T06:33:10Z</time>
      </trkpt>
      <trkpt lat="42.6887030" lon="-3.4737700">
        <ele>612.2</ele>
        <time>2018-10-21T06:33:11Z</time>
      </trkpt>
      <trkpt lat="42.6887570" lon="-3.4737580">
        <ele>613.3</ele>
        <time>2018-10-21T06:33:12Z</time>
      </trkpt>
      <trkpt lat="42.6888100" lon="-3.4737430">
        <ele>613.3</ele>
        <time>2018-10-21T06:33:13Z</time>
      </trkpt>
      <trkpt lat="42.6888650" lon="-3.4737300">
        <ele>613.3</ele>
        <time>2018-10-21T06:33:14Z</time>
      </trkpt>
      <trkpt lat="42.6889170" lon="-3.4737200">
        <ele>613.3</ele>
        <time>2018-10-21T06:33:15Z</time>
      </trkpt>
      <trkpt lat="42.6889700" lon="-3.4737070">
        <ele>613.3</ele>
        <time>2018-10-21T06:33:16Z</time>
      </trkpt>
      <trkpt lat="42.6890270" lon="-3.4736930">
        <ele>613.3</ele>
        <time>2018-10-21T06:33:17Z</time>
      </trkpt>
      <trkpt lat="42.6890830" lon="-3.4736780">
        <ele>613.3</ele>
        <time>2018-10-21T06:33:18Z</time>
      </trkpt>
      <trkpt lat="42.6891420" lon="-3.4736630">
        <ele>613.3</ele>
        <time>2018-10-21T06:33:19Z</time>
      </trkpt>
      <trkpt lat="42.6892000" lon="-3.4736500">
        <ele>613.3</ele>
        <time>2018-10-21T06:33:20Z</time>
      </trkpt>
      <trkpt lat="42.6892600" lon="-3.4736400">
        <ele>613.3</ele>
        <time>2018-10-21T06:33:21Z</time>
      </trkpt>
      <trkpt lat="42.6893200" lon="-3.4736270">
        <ele>612.2</ele>
        <time>2018-10-21T06:33:22Z</time>
      </trkpt>
      <trkpt lat="42.6893800" lon="-3.4736100">
        <ele>612.2</ele>
        <time>2018-10-21T06:33:23Z</time>
      </trkpt>
      <trkpt lat="42.6894400" lon="-3.4735950">
        <ele>612.2</ele>
        <time>2018-10-21T06:33:24Z</time>
      </trkpt>
      <trkpt lat="42.6895020" lon="-3.4735780">
        <ele>612.2</ele>
        <time>2018-10-21T06:33:25Z</time>
      </trkpt>
      <trkpt lat="42.6895630" lon="-3.4735630">
        <ele>612.2</ele>
        <time>2018-10-21T06:33:26Z</time>
      </trkpt>
      <trkpt lat="42.6896270" lon="-3.4735500">
        <ele>612.2</ele>
        <time>2018-10-21T06:33:27Z</time>
      </trkpt>
      <trkpt lat="42.6896880" lon="-3.4735330">
        <ele>612.2</ele>
        <time>2018-10-21T06:33:28Z</time>
      </trkpt>
      <trkpt lat="42.6897520" lon="-3.4735180">
        <ele>612.2</ele>
        <time>2018-10-21T06:33:29Z</time>
      </trkpt>
      <trkpt lat="42.6898170" lon="-3.4735020">
        <ele>612.2</ele>
        <time>2018-10-21T06:33:30Z</time>
      </trkpt>
      <trkpt lat="42.6898800" lon="-3.4734870">
        <ele>612.2</ele>
        <time>2018-10-21T06:33:31Z</time>
      </trkpt>
      <trkpt lat="42.6899450" lon="-3.4734700">
        <ele>612.2</ele>
        <time>2018-10-21T06:33:32Z</time>
      </trkpt>
      <trkpt lat="42.6900100" lon="-3.4734520">
        <ele>612.2</ele>
        <time>2018-10-21T06:33:33Z</time>
      </trkpt>
      <trkpt lat="42.6900750" lon="-3.4734350">
        <ele>612.2</ele>
        <time>2018-10-21T06:33:34Z</time>
      </trkpt>
      <trkpt lat="42.6901420" lon="-3.4734170">
        <ele>612.2</ele>
        <time>2018-10-21T06:33:35Z</time>
      </trkpt>
      <trkpt lat="42.6902050" lon="-3.4733970">
        <ele>612.2</ele>
        <time>2018-10-21T06:33:36Z</time>
      </trkpt>
      <trkpt lat="42.6902680" lon="-3.4733800">
        <ele>612.2</ele>
        <time>2018-10-21T06:33:37Z</time>
      </trkpt>
      <trkpt lat="42.6903300" lon="-3.4733630">
        <ele>612.2</ele>
        <time>2018-10-21T06:33:38Z</time>
      </trkpt>
      <trkpt lat="42.6903930" lon="-3.4733470">
        <ele>612.2</ele>
        <time>2018-10-21T06:33:39Z</time>
      </trkpt>
      <trkpt lat="42.6904500" lon="-3.4733300">
        <ele>612.2</ele>
        <time>2018-10-21T06:33:40Z</time>
      </trkpt>
      <trkpt lat="42.6905050" lon="-3.4733180">
        <ele>612.2</ele>
        <time>2018-10-21T06:33:41Z</time>
      </trkpt>
      <trkpt lat="42.6905580" lon="-3.4733080">
        <ele>612.2</ele>
        <time>2018-10-21T06:33:42Z</time>
      </trkpt>
      <trkpt lat="42.6906080" lon="-3.4733050">
        <ele>612.2</ele>
        <time>2018-10-21T06:33:43Z</time>
      </trkpt>
      <trkpt lat="42.6906550" lon="-3.4733080">
        <ele>612.2</ele>
        <time>2018-10-21T06:33:44Z</time>
      </trkpt>
      <trkpt lat="42.6907020" lon="-3.4733180">
        <ele>612.2</ele>
        <time>2018-10-21T06:33:45Z</time>
      </trkpt>
      <trkpt lat="42.6907470" lon="-3.4733370">
        <ele>612.2</ele>
        <time>2018-10-21T06:33:46Z</time>
      </trkpt>
      <trkpt lat="42.6907930" lon="-3.4733600">
        <ele>612.2</ele>
        <time>2018-10-21T06:33:47Z</time>
      </trkpt>
      <trkpt lat="42.6908370" lon="-3.4733870">
        <ele>613.3</ele>
        <time>2018-10-21T06:33:48Z</time>
      </trkpt>
      <trkpt lat="42.6908770" lon="-3.4734120">
        <ele>613.3</ele>
        <time>2018-10-21T06:33:49Z</time>
      </trkpt>
      <trkpt lat="42.6909170" lon="-3.4734350">
        <ele>613.3</ele>
        <time>2018-10-21T06:33:50Z</time>
      </trkpt>
      <trkpt lat="42.6909550" lon="-3.4734600">
        <ele>613.3</ele>
        <time>2018-10-21T06:33:51Z</time>
      </trkpt>
      <trkpt lat="42.6909930" lon="-3.4734820">
        <ele>613.3</ele>
        <time>2018-10-21T06:33:52Z</time>
      </trkpt>
      <trkpt lat="42.6910330" lon="-3.4735050">
        <ele>613.3</ele>
        <time>2018-10-21T06:33:53Z</time>
      </trkpt>
      <trkpt lat="42.6910700" lon="-3.4735200">
        <ele>613.3</ele>
        <time>2018-10-21T06:33:54Z</time>
      </trkpt>
      <trkpt lat="42.6911070" lon="-3.4735300">
        <ele>613.3</ele>
        <time>2018-10-21T06:33:55Z</time>
      </trkpt>
      <trkpt lat="42.6911450" lon="-3.4735380">
        <ele>613.3</ele>
        <time>2018-10-21T06:33:56Z</time>
      </trkpt>
      <trkpt lat="42.6911850" lon="-3.4735370">
        <ele>613.3</ele>
        <time>2018-10-21T06:33:57Z</time>
      </trkpt>
      <trkpt lat="42.6912200" lon="-3.4735370">
        <ele>613.3</ele>
        <time>2018-10-21T06:33:58Z</time>
      </trkpt>
      <trkpt lat="42.6912500" lon="-3.4735320">
        <ele>613.3</ele>
        <time>2018-10-21T06:33:59Z</time>
      </trkpt>
      <trkpt lat="42.6912850" lon="-3.4735230">
        <ele>614.2</ele>
        <time>2018-10-21T06:34:00Z</time>
      </trkpt>
      <trkpt lat="42.6913230" lon="-3.4735130">
        <ele>614.2</ele>
        <time>2018-10-21T06:34:01Z</time>
      </trkpt>
      <trkpt lat="42.6913570" lon="-3.4735030">
        <ele>614.2</ele>
        <time>2018-10-21T06:34:02Z</time>
      </trkpt>
      <trkpt lat="42.6913900" lon="-3.4734930">
        <ele>614.2</ele>
        <time>2018-10-21T06:34:03Z</time>
      </trkpt>
      <trkpt lat="42.6914200" lon="-3.4734880">
        <ele>615.2</ele>
        <time>2018-10-21T06:34:04Z</time>
      </trkpt>
      <trkpt lat="42.6914500" lon="-3.4734800">
        <ele>615.2</ele>
        <time>2018-10-21T06:34:05Z</time>
      </trkpt>
      <trkpt lat="42.6914770" lon="-3.4734680">
        <ele>615.2</ele>
        <time>2018-10-21T06:34:06Z</time>
      </trkpt>
      <trkpt lat="42.6915050" lon="-3.4734570">
        <ele>615.2</ele>
        <time>2018-10-21T06:34:07Z</time>
      </trkpt>
      <trkpt lat="42.6915300" lon="-3.4734430">
        <ele>615.2</ele>
        <time>2018-10-21T06:34:08Z</time>
      </trkpt>
      <trkpt lat="42.6915530" lon="-3.4734270">
        <ele>615.2</ele>
        <time>2018-10-21T06:34:09Z</time>
      </trkpt>
      <trkpt lat="42.6915830" lon="-3.4734080">
        <ele>615.2</ele>
        <time>2018-10-21T06:34:10Z</time>
      </trkpt>
      <trkpt lat="42.6916180" lon="-3.4733950">
        <ele>615.2</ele>
        <time>2018-10-21T06:34:11Z</time>
      </trkpt>
      <trkpt lat="42.6916520" lon="-3.4733820">
        <ele>615.2</ele>
        <time>2018-10-21T06:34:12Z</time>
      </trkpt>
      <trkpt lat="42.6916820" lon="-3.4733670">
        <ele>615.2</ele>
        <time>2018-10-21T06:34:13Z</time>
      </trkpt>
      <trkpt lat="42.6917120" lon="-3.4733480">
        <ele>616.3</ele>
        <time>2018-10-21T06:34:14Z</time>
      </trkpt>
      <trkpt lat="42.6917400" lon="-3.4733370">
        <ele>616.3</ele>
        <time>2018-10-21T06:34:15Z</time>
      </trkpt>
      <trkpt lat="42.6917730" lon="-3.4733250">
        <ele>616.3</ele>
        <time>2018-10-21T06:34:16Z</time>
      </trkpt>
      <trkpt lat="42.6918070" lon="-3.4733100">
        <ele>616.3</ele>
        <time>2018-10-21T06:34:17Z</time>
      </trkpt>
      <trkpt lat="42.6918400" lon="-3.4732930">
        <ele>616.3</ele>
        <time>2018-10-21T06:34:18Z</time>
      </trkpt>
      <trkpt lat="42.6918730" lon="-3.4732780">
        <ele>616.3</ele>
        <time>2018-10-21T06:34:19Z</time>
      </trkpt>
      <trkpt lat="42.6919070" lon="-3.4732630">
        <ele>616.3</ele>
        <time>2018-10-21T06:34:20Z</time>
      </trkpt>
      <trkpt lat="42.6919380" lon="-3.4732470">
        <ele>616.3</ele>
        <time>2018-10-21T06:34:21Z</time>
      </trkpt>
      <trkpt lat="42.6919680" lon="-3.4732270">
        <ele>616.3</ele>
        <time>2018-10-21T06:34:22Z</time>
      </trkpt>
      <trkpt lat="42.6920020" lon="-3.4732100">
        <ele>616.3</ele>
        <time>2018-10-21T06:34:23Z</time>
      </trkpt>
      <trkpt lat="42.6920350" lon="-3.4731920">
        <ele>617.2</ele>
        <time>2018-10-21T06:34:24Z</time>
      </trkpt>
      <trkpt lat="42.6920670" lon="-3.4731720">
        <ele>617.2</ele>
        <time>2018-10-21T06:34:25Z</time>
      </trkpt>
      <trkpt lat="42.6920970" lon="-3.4731500">
        <ele>617.2</ele>
        <time>2018-10-21T06:34:26Z</time>
      </trkpt>
      <trkpt lat="42.6921270" lon="-3.4731280">
        <ele>617.2</ele>
        <time>2018-10-21T06:34:27Z</time>
      </trkpt>
      <trkpt lat="42.6921570" lon="-3.4731050">
        <ele>617.2</ele>
        <time>2018-10-21T06:34:28Z</time>
      </trkpt>
      <trkpt lat="42.6921880" lon="-3.4730780">
        <ele>617.2</ele>
        <time>2018-10-21T06:34:29Z</time>
      </trkpt>
      <trkpt lat="42.6922180" lon="-3.4730550">
        <ele>617.2</ele>
        <time>2018-10-21T06:34:30Z</time>
      </trkpt>
      <trkpt lat="42.6922480" lon="-3.4730320">
        <ele>617.2</ele>
        <time>2018-10-21T06:34:31Z</time>
      </trkpt>
      <trkpt lat="42.6922780" lon="-3.4730070">
        <ele>618.3</ele>
        <time>2018-10-21T06:34:32Z</time>
      </trkpt>
      <trkpt lat="42.6923070" lon="-3.4729780">
        <ele>618.3</ele>
        <time>2018-10-21T06:34:33Z</time>
      </trkpt>
      <trkpt lat="42.6923350" lon="-3.4729480">
        <ele>618.3</ele>
        <time>2018-10-21T06:34:34Z</time>
      </trkpt>
      <trkpt lat="42.6923650" lon="-3.4729230">
        <ele>618.3</ele>
        <time>2018-10-21T06:34:35Z</time>
      </trkpt>
      <trkpt lat="42.6923950" lon="-3.4728980">
        <ele>619.2</ele>
        <time>2018-10-21T06:34:36Z</time>
      </trkpt>
      <trkpt lat="42.6924270" lon="-3.4728720">
        <ele>619.2</ele>
        <time>2018-10-21T06:34:37Z</time>
      </trkpt>
      <trkpt lat="42.6924580" lon="-3.4728480">
        <ele>619.2</ele>
        <time>2018-10-21T06:34:38Z</time>
      </trkpt>
      <trkpt lat="42.6924870" lon="-3.4728230">
        <ele>619.2</ele>
        <time>2018-10-21T06:34:39Z</time>
      </trkpt>
      <trkpt lat="42.6925150" lon="-3.4727980">
        <ele>619.2</ele>
        <time>2018-10-21T06:34:40Z</time>
      </trkpt>
      <trkpt lat="42.6925450" lon="-3.4727750">
        <ele>619.2</ele>
        <time>2018-10-21T06:34:41Z</time>
      </trkpt>
      <trkpt lat="42.6925730" lon="-3.4727520">
        <ele>619.2</ele>
        <time>2018-10-21T06:34:42Z</time>
      </trkpt>
      <trkpt lat="42.6926050" lon="-3.4727300">
        <ele>619.2</ele>
        <time>2018-10-21T06:34:43Z</time>
      </trkpt>
      <trkpt lat="42.6926370" lon="-3.4727080">
        <ele>619.2</ele>
        <time>2018-10-21T06:34:44Z</time>
      </trkpt>
      <trkpt lat="42.6926670" lon="-3.4726900">
        <ele>619.2</ele>
        <time>2018-10-21T06:34:45Z</time>
      </trkpt>
      <trkpt lat="42.6926930" lon="-3.4726650">
        <ele>620.3</ele>
        <time>2018-10-21T06:34:46Z</time>
      </trkpt>
      <trkpt lat="42.6927230" lon="-3.4726370">
        <ele>620.3</ele>
        <time>2018-10-21T06:34:47Z</time>
      </trkpt>
      <trkpt lat="42.6927550" lon="-3.4726030">
        <ele>620.3</ele>
        <time>2018-10-21T06:34:48Z</time>
      </trkpt>
      <trkpt lat="42.6927900" lon="-3.4725670">
        <ele>620.3</ele>
        <time>2018-10-21T06:34:49Z</time>
      </trkpt>
      <trkpt lat="42.6928250" lon="-3.4725270">
        <ele>620.3</ele>
        <time>2018-10-21T06:34:50Z</time>
      </trkpt>
      <trkpt lat="42.6928650" lon="-3.4724850">
        <ele>620.3</ele>
        <time>2018-10-21T06:34:51Z</time>
      </trkpt>
      <trkpt lat="42.6929080" lon="-3.4724420">
        <ele>619.2</ele>
        <time>2018-10-21T06:34:52Z</time>
      </trkpt>
      <trkpt lat="42.6929520" lon="-3.4723930">
        <ele>619.2</ele>
        <time>2018-10-21T06:34:53Z</time>
      </trkpt>
      <trkpt lat="42.6929950" lon="-3.4723450">
        <ele>619.2</ele>
        <time>2018-10-21T06:34:54Z</time>
      </trkpt>
      <trkpt lat="42.6930400" lon="-3.4722980">
        <ele>619.2</ele>
        <time>2018-10-21T06:34:55Z</time>
      </trkpt>
      <trkpt lat="42.6930870" lon="-3.4722520">
        <ele>619.2</ele>
        <time>2018-10-21T06:34:56Z</time>
      </trkpt>
      <trkpt lat="42.6931350" lon="-3.4722070">
        <ele>619.2</ele>
        <time>2018-10-21T06:34:57Z</time>
      </trkpt>
      <trkpt lat="42.6931820" lon="-3.4721600">
        <ele>618.3</ele>
        <time>2018-10-21T06:34:58Z</time>
      </trkpt>
      <trkpt lat="42.6932270" lon="-3.4721100">
        <ele>618.3</ele>
        <time>2018-10-21T06:34:59Z</time>
      </trkpt>
      <trkpt lat="42.6932730" lon="-3.4720630">
        <ele>618.3</ele>
        <time>2018-10-21T06:35:00Z</time>
      </trkpt>
      <trkpt lat="42.6933170" lon="-3.4720150">
        <ele>618.3</ele>
        <time>2018-10-21T06:35:01Z</time>
      </trkpt>
      <trkpt lat="42.6933600" lon="-3.4719670">
        <ele>618.3</ele>
        <time>2018-10-21T06:35:02Z</time>
      </trkpt>
      <trkpt lat="42.6934030" lon="-3.4719170">
        <ele>618.3</ele>
        <time>2018-10-21T06:35:03Z</time>
      </trkpt>
      <trkpt lat="42.6934030" lon="-3.4719170">
        <ele>618.3</ele>
        <time>2018-10-21T06:35:04Z</time>
      </trkpt>
      <trkpt lat="42.6934880" lon="-3.4718100">
        <ele>618.3</ele>
        <time>2018-10-21T06:35:05Z</time>
      </trkpt>
      <trkpt lat="42.6935280" lon="-3.4717550">
        <ele>617.2</ele>
        <time>2018-10-21T06:35:06Z</time>
      </trkpt>
      <trkpt lat="42.6935670" lon="-3.4716970">
        <ele>617.2</ele>
        <time>2018-10-21T06:35:07Z</time>
      </trkpt>
      <trkpt lat="42.6936050" lon="-3.4716420">
        <ele>617.2</ele>
        <time>2018-10-21T06:35:08Z</time>
      </trkpt>
      <trkpt lat="42.6936430" lon="-3.4715880">
        <ele>617.2</ele>
        <time>2018-10-21T06:35:09Z</time>
      </trkpt>
      <trkpt lat="42.6936800" lon="-3.4715350">
        <ele>617.2</ele>
        <time>2018-10-21T06:35:10Z</time>
      </trkpt>
      <trkpt lat="42.6937170" lon="-3.4714820">
        <ele>617.2</ele>
        <time>2018-10-21T06:35:11Z</time>
      </trkpt>
      <trkpt lat="42.6937500" lon="-3.4714280">
        <ele>617.2</ele>
        <time>2018-10-21T06:35:12Z</time>
      </trkpt>
      <trkpt lat="42.6937850" lon="-3.4713730">
        <ele>617.2</ele>
        <time>2018-10-21T06:35:13Z</time>
      </trkpt>
      <trkpt lat="42.6938180" lon="-3.4713220">
        <ele>618.3</ele>
        <time>2018-10-21T06:35:14Z</time>
      </trkpt>
      <trkpt lat="42.6938520" lon="-3.4712680">
        <ele>618.3</ele>
        <time>2018-10-21T06:35:15Z</time>
      </trkpt>
      <trkpt lat="42.6938830" lon="-3.4712150">
        <ele>618.3</ele>
        <time>2018-10-21T06:35:16Z</time>
      </trkpt>
      <trkpt lat="42.6939150" lon="-3.4711600">
        <ele>618.3</ele>
        <time>2018-10-21T06:35:17Z</time>
      </trkpt>
      <trkpt lat="42.6939480" lon="-3.4711030">
        <ele>618.3</ele>
        <time>2018-10-21T06:35:18Z</time>
      </trkpt>
      <trkpt lat="42.6939830" lon="-3.4710450">
        <ele>618.3</ele>
        <time>2018-10-21T06:35:19Z</time>
      </trkpt>
      <trkpt lat="42.6940200" lon="-3.4709830">
        <ele>619.2</ele>
        <time>2018-10-21T06:35:20Z</time>
      </trkpt>
      <trkpt lat="42.6940550" lon="-3.4709220">
        <ele>619.2</ele>
        <time>2018-10-21T06:35:21Z</time>
      </trkpt>
      <trkpt lat="42.6940950" lon="-3.4708570">
        <ele>619.2</ele>
        <time>2018-10-21T06:35:22Z</time>
      </trkpt>
      <trkpt lat="42.6941370" lon="-3.4707900">
        <ele>619.2</ele>
        <time>2018-10-21T06:35:23Z</time>
      </trkpt>
      <trkpt lat="42.6941780" lon="-3.4707200">
        <ele>619.2</ele>
        <time>2018-10-21T06:35:24Z</time>
      </trkpt>
      <trkpt lat="42.6942220" lon="-3.4706500">
        <ele>619.2</ele>
        <time>2018-10-21T06:35:25Z</time>
      </trkpt>
      <trkpt lat="42.6942630" lon="-3.4705770">
        <ele>616.3</ele>
        <time>2018-10-21T06:35:26Z</time>
      </trkpt>
      <trkpt lat="42.6943070" lon="-3.4705000">
        <ele>616.3</ele>
        <time>2018-10-21T06:35:27Z</time>
      </trkpt>
      <trkpt lat="42.6943530" lon="-3.4704230">
        <ele>616.3</ele>
        <time>2018-10-21T06:35:28Z</time>
      </trkpt>
      <trkpt lat="42.6944000" lon="-3.4703470">
        <ele>616.3</ele>
        <time>2018-10-21T06:35:29Z</time>
      </trkpt>
      <trkpt lat="42.6944480" lon="-3.4702680">
        <ele>615.2</ele>
        <time>2018-10-21T06:35:30Z</time>
      </trkpt>
      <trkpt lat="42.6944980" lon="-3.4701880">
        <ele>615.2</ele>
        <time>2018-10-21T06:35:31Z</time>
      </trkpt>
      <trkpt lat="42.6945480" lon="-3.4701070">
        <ele>614.2</ele>
        <time>2018-10-21T06:35:32Z</time>
      </trkpt>
      <trkpt lat="42.6945980" lon="-3.4700270">
        <ele>614.2</ele>
        <time>2018-10-21T06:35:33Z</time>
      </trkpt>
      <trkpt lat="42.6946480" lon="-3.4699430">
        <ele>614.2</ele>
        <time>2018-10-21T06:35:34Z</time>
      </trkpt>
      <trkpt lat="42.6946980" lon="-3.4698570">
        <ele>614.2</ele>
        <time>2018-10-21T06:35:35Z</time>
      </trkpt>
      <trkpt lat="42.6947480" lon="-3.4697720">
        <ele>613.3</ele>
        <time>2018-10-21T06:35:36Z</time>
      </trkpt>
      <trkpt lat="42.6948000" lon="-3.4696870">
        <ele>613.3</ele>
        <time>2018-10-21T06:35:37Z</time>
      </trkpt>
      <trkpt lat="42.6948520" lon="-3.4696020">
        <ele>612.2</ele>
        <time>2018-10-21T06:35:38Z</time>
      </trkpt>
      <trkpt lat="42.6949030" lon="-3.4695170">
        <ele>612.2</ele>
        <time>2018-10-21T06:35:39Z</time>
      </trkpt>
      <trkpt lat="42.6949550" lon="-3.4694330">
        <ele>612.2</ele>
        <time>2018-10-21T06:35:40Z</time>
      </trkpt>
      <trkpt lat="42.6950050" lon="-3.4693500">
        <ele>612.2</ele>
        <time>2018-10-21T06:35:41Z</time>
      </trkpt>
      <trkpt lat="42.6950550" lon="-3.4692700">
        <ele>612.2</ele>
        <time>2018-10-21T06:35:42Z</time>
      </trkpt>
      <trkpt lat="42.6951020" lon="-3.4691920">
        <ele>612.2</ele>
        <time>2018-10-21T06:35:43Z</time>
      </trkpt>
      <trkpt lat="42.6951480" lon="-3.4691120">
        <ele>612.2</ele>
        <time>2018-10-21T06:35:44Z</time>
      </trkpt>
      <trkpt lat="42.6951950" lon="-3.4690330">
        <ele>612.2</ele>
        <time>2018-10-21T06:35:45Z</time>
      </trkpt>
      <trkpt lat="42.6952400" lon="-3.4689550">
        <ele>612.2</ele>
        <time>2018-10-21T06:35:46Z</time>
      </trkpt>
      <trkpt lat="42.6952870" lon="-3.4688780">
        <ele>612.2</ele>
        <time>2018-10-21T06:35:47Z</time>
      </trkpt>
      <trkpt lat="42.6953320" lon="-3.4688020">
        <ele>612.2</ele>
        <time>2018-10-21T06:35:48Z</time>
      </trkpt>
      <trkpt lat="42.6953780" lon="-3.4687250">
        <ele>612.2</ele>
        <time>2018-10-21T06:35:49Z</time>
      </trkpt>
      <trkpt lat="42.6954250" lon="-3.4686500">
        <ele>612.2</ele>
        <time>2018-10-21T06:35:50Z</time>
      </trkpt>
      <trkpt lat="42.6954700" lon="-3.4685770">
        <ele>612.2</ele>
        <time>2018-10-21T06:35:51Z</time>
      </trkpt>
      <trkpt lat="42.6955130" lon="-3.4685020">
        <ele>612.2</ele>
        <time>2018-10-21T06:35:52Z</time>
      </trkpt>
      <trkpt lat="42.6955570" lon="-3.4684300">
        <ele>612.2</ele>
        <time>2018-10-21T06:35:53Z</time>
      </trkpt>
      <trkpt lat="42.6956000" lon="-3.4683630">
        <ele>611.3</ele>
        <time>2018-10-21T06:35:54Z</time>
      </trkpt>
      <trkpt lat="42.6956420" lon="-3.4682930">
        <ele>611.3</ele>
        <time>2018-10-21T06:35:55Z</time>
      </trkpt>
      <trkpt lat="42.6956820" lon="-3.4682280">
        <ele>612.2</ele>
        <time>2018-10-21T06:35:56Z</time>
      </trkpt>
      <trkpt lat="42.6957200" lon="-3.4681630">
        <ele>612.2</ele>
        <time>2018-10-21T06:35:57Z</time>
      </trkpt>
      <trkpt lat="42.6957570" lon="-3.4680980">
        <ele>612.2</ele>
        <time>2018-10-21T06:35:58Z</time>
      </trkpt>
      <trkpt lat="42.6957930" lon="-3.4680370">
        <ele>612.2</ele>
        <time>2018-10-21T06:35:59Z</time>
      </trkpt>
      <trkpt lat="42.6958280" lon="-3.4679780">
        <ele>612.2</ele>
        <time>2018-10-21T06:36:00Z</time>
      </trkpt>
      <trkpt lat="42.6958630" lon="-3.4679200">
        <ele>612.2</ele>
        <time>2018-10-21T06:36:01Z</time>
      </trkpt>
      <trkpt lat="42.6959000" lon="-3.4678630">
        <ele>612.2</ele>
        <time>2018-10-21T06:36:02Z</time>
      </trkpt>
      <trkpt lat="42.6959370" lon="-3.4678070">
        <ele>612.2</ele>
        <time>2018-10-21T06:36:03Z</time>
      </trkpt>
      <trkpt lat="42.6959700" lon="-3.4677500">
        <ele>614.2</ele>
        <time>2018-10-21T06:36:04Z</time>
      </trkpt>
      <trkpt lat="42.6960050" lon="-3.4676920">
        <ele>614.2</ele>
        <time>2018-10-21T06:36:05Z</time>
      </trkpt>
      <trkpt lat="42.6960380" lon="-3.4676370">
        <ele>614.2</ele>
        <time>2018-10-21T06:36:06Z</time>
      </trkpt>
      <trkpt lat="42.6960700" lon="-3.4675820">
        <ele>614.2</ele>
        <time>2018-10-21T06:36:07Z</time>
      </trkpt>
      <trkpt lat="42.6961030" lon="-3.4675250">
        <ele>614.2</ele>
        <time>2018-10-21T06:36:08Z</time>
      </trkpt>
      <trkpt lat="42.6961380" lon="-3.4674680">
        <ele>614.2</ele>
        <time>2018-10-21T06:36:09Z</time>
      </trkpt>
      <trkpt lat="42.6961730" lon="-3.4674100">
        <ele>614.2</ele>
        <time>2018-10-21T06:36:10Z</time>
      </trkpt>
      <trkpt lat="42.6962080" lon="-3.4673520">
        <ele>614.2</ele>
        <time>2018-10-21T06:36:11Z</time>
      </trkpt>
      <trkpt lat="42.6962450" lon="-3.4672930">
        <ele>614.2</ele>
        <time>2018-10-21T06:36:12Z</time>
      </trkpt>
      <trkpt lat="42.6962820" lon="-3.4672330">
        <ele>614.2</ele>
        <time>2018-10-21T06:36:13Z</time>
      </trkpt>
      <trkpt lat="42.6963180" lon="-3.4671730">
        <ele>614.2</ele>
        <time>2018-10-21T06:36:14Z</time>
      </trkpt>
      <trkpt lat="42.6963570" lon="-3.4671120">
        <ele>614.2</ele>
        <time>2018-10-21T06:36:15Z</time>
      </trkpt>
      <trkpt lat="42.6963930" lon="-3.4670520">
        <ele>614.2</ele>
        <time>2018-10-21T06:36:16Z</time>
      </trkpt>
      <trkpt lat="42.6964320" lon="-3.4669880">
        <ele>614.2</ele>
        <time>2018-10-21T06:36:17Z</time>
      </trkpt>
      <trkpt lat="42.6964700" lon="-3.4669250">
        <ele>614.2</ele>
        <time>2018-10-21T06:36:18Z</time>
      </trkpt>
      <trkpt lat="42.6965100" lon="-3.4668620">
        <ele>614.2</ele>
        <time>2018-10-21T06:36:19Z</time>
      </trkpt>
      <trkpt lat="42.6965480" lon="-3.4667970">
        <ele>614.2</ele>
        <time>2018-10-21T06:36:20Z</time>
      </trkpt>
      <trkpt lat="42.6965880" lon="-3.4667330">
        <ele>614.2</ele>
        <time>2018-10-21T06:36:21Z</time>
      </trkpt>
      <trkpt lat="42.6966280" lon="-3.4666700">
        <ele>614.2</ele>
        <time>2018-10-21T06:36:22Z</time>
      </trkpt>
      <trkpt lat="42.6966650" lon="-3.4666050">
        <ele>614.2</ele>
        <time>2018-10-21T06:36:23Z</time>
      </trkpt>
      <trkpt lat="42.6967030" lon="-3.4665380">
        <ele>615.2</ele>
        <time>2018-10-21T06:36:24Z</time>
      </trkpt>
      <trkpt lat="42.6967400" lon="-3.4664730">
        <ele>615.2</ele>
        <time>2018-10-21T06:36:25Z</time>
      </trkpt>
      <trkpt lat="42.6967770" lon="-3.4664050">
        <ele>615.2</ele>
        <time>2018-10-21T06:36:26Z</time>
      </trkpt>
      <trkpt lat="42.6968100" lon="-3.4663350">
        <ele>615.2</ele>
        <time>2018-10-21T06:36:27Z</time>
      </trkpt>
      <trkpt lat="42.6968430" lon="-3.4662630">
        <ele>615.2</ele>
        <time>2018-10-21T06:36:28Z</time>
      </trkpt>
      <trkpt lat="42.6968730" lon="-3.4661900">
        <ele>615.2</ele>
        <time>2018-10-21T06:36:29Z</time>
      </trkpt>
      <trkpt lat="42.6969000" lon="-3.4661150">
        <ele>615.2</ele>
        <time>2018-10-21T06:36:30Z</time>
      </trkpt>
      <trkpt lat="42.6969280" lon="-3.4660400">
        <ele>615.2</ele>
        <time>2018-10-21T06:36:31Z</time>
      </trkpt>
      <trkpt lat="42.6969520" lon="-3.4659630">
        <ele>616.3</ele>
        <time>2018-10-21T06:36:32Z</time>
      </trkpt>
      <trkpt lat="42.6969750" lon="-3.4658870">
        <ele>616.3</ele>
        <time>2018-10-21T06:36:33Z</time>
      </trkpt>
      <trkpt lat="42.6969980" lon="-3.4658100">
        <ele>616.3</ele>
        <time>2018-10-21T06:36:34Z</time>
      </trkpt>
      <trkpt lat="42.6970220" lon="-3.4657350">
        <ele>616.3</ele>
        <time>2018-10-21T06:36:35Z</time>
      </trkpt>
      <trkpt lat="42.6970450" lon="-3.4656620">
        <ele>616.3</ele>
        <time>2018-10-21T06:36:36Z</time>
      </trkpt>
      <trkpt lat="42.6970670" lon="-3.4655880">
        <ele>616.3</ele>
        <time>2018-10-21T06:36:37Z</time>
      </trkpt>
      <trkpt lat="42.6970900" lon="-3.4655180">
        <ele>616.3</ele>
        <time>2018-10-21T06:36:38Z</time>
      </trkpt>
      <trkpt lat="42.6971130" lon="-3.4654500">
        <ele>616.3</ele>
        <time>2018-10-21T06:36:39Z</time>
      </trkpt>
      <trkpt lat="42.6971350" lon="-3.4653820">
        <ele>616.3</ele>
        <time>2018-10-21T06:36:40Z</time>
      </trkpt>
      <trkpt lat="42.6971570" lon="-3.4653150">
        <ele>616.3</ele>
        <time>2018-10-21T06:36:41Z</time>
      </trkpt>
      <trkpt lat="42.6971780" lon="-3.4652480">
        <ele>616.3</ele>
        <time>2018-10-21T06:36:42Z</time>
      </trkpt>
      <trkpt lat="42.6972020" lon="-3.4651780">
        <ele>616.3</ele>
        <time>2018-10-21T06:36:43Z</time>
      </trkpt>
      <trkpt lat="42.6972250" lon="-3.4651050">
        <ele>615.2</ele>
        <time>2018-10-21T06:36:44Z</time>
      </trkpt>
      <trkpt lat="42.6972480" lon="-3.4650300">
        <ele>615.2</ele>
        <time>2018-10-21T06:36:45Z</time>
      </trkpt>
      <trkpt lat="42.6972720" lon="-3.4649550">
        <ele>615.2</ele>
        <time>2018-10-21T06:36:46Z</time>
      </trkpt>
      <trkpt lat="42.6972970" lon="-3.4648780">
        <ele>615.2</ele>
        <time>2018-10-21T06:36:47Z</time>
      </trkpt>
      <trkpt lat="42.6973220" lon="-3.4648020">
        <ele>615.2</ele>
        <time>2018-10-21T06:36:48Z</time>
      </trkpt>
      <trkpt lat="42.6973450" lon="-3.4647230">
        <ele>615.2</ele>
        <time>2018-10-21T06:36:49Z</time>
      </trkpt>
      <trkpt lat="42.6973680" lon="-3.4646450">
        <ele>615.2</ele>
        <time>2018-10-21T06:36:50Z</time>
      </trkpt>
      <trkpt lat="42.6973930" lon="-3.4645670">
        <ele>615.2</ele>
        <time>2018-10-21T06:36:51Z</time>
      </trkpt>
      <trkpt lat="42.6974180" lon="-3.4644880">
        <ele>615.2</ele>
        <time>2018-10-21T06:36:52Z</time>
      </trkpt>
      <trkpt lat="42.6974450" lon="-3.4644120">
        <ele>615.2</ele>
        <time>2018-10-21T06:36:53Z</time>
      </trkpt>
      <trkpt lat="42.6974730" lon="-3.4643370">
        <ele>615.2</ele>
        <time>2018-10-21T06:36:54Z</time>
      </trkpt>
      <trkpt lat="42.6975050" lon="-3.4642630">
        <ele>615.2</ele>
        <time>2018-10-21T06:36:55Z</time>
      </trkpt>
      <trkpt lat="42.6975350" lon="-3.4641880">
        <ele>615.2</ele>
        <time>2018-10-21T06:36:56Z</time>
      </trkpt>
      <trkpt lat="42.6975670" lon="-3.4641120">
        <ele>615.2</ele>
        <time>2018-10-21T06:36:57Z</time>
      </trkpt>
      <trkpt lat="42.6976000" lon="-3.4640380">
        <ele>615.2</ele>
        <time>2018-10-21T06:36:58Z</time>
      </trkpt>
      <trkpt lat="42.6976330" lon="-3.4639650">
        <ele>615.2</ele>
        <time>2018-10-21T06:36:59Z</time>
      </trkpt>
      <trkpt lat="42.6976670" lon="-3.4638920">
        <ele>614.2</ele>
        <time>2018-10-21T06:37:00Z</time>
      </trkpt>
      <trkpt lat="42.6977000" lon="-3.4638180">
        <ele>614.2</ele>
        <time>2018-10-21T06:37:01Z</time>
      </trkpt>
      <trkpt lat="42.6977330" lon="-3.4637430">
        <ele>614.2</ele>
        <time>2018-10-21T06:37:02Z</time>
      </trkpt>
      <trkpt lat="42.6977670" lon="-3.4636680">
        <ele>614.2</ele>
        <time>2018-10-21T06:37:03Z</time>
      </trkpt>
      <trkpt lat="42.6978000" lon="-3.4635930">
        <ele>614.2</ele>
        <time>2018-10-21T06:37:04Z</time>
      </trkpt>
      <trkpt lat="42.6978320" lon="-3.4635130">
        <ele>614.2</ele>
        <time>2018-10-21T06:37:05Z</time>
      </trkpt>
      <trkpt lat="42.6978670" lon="-3.4634350">
        <ele>614.2</ele>
        <time>2018-10-21T06:37:06Z</time>
      </trkpt>
      <trkpt lat="42.6979020" lon="-3.4633580">
        <ele>614.2</ele>
        <time>2018-10-21T06:37:07Z</time>
      </trkpt>
      <trkpt lat="42.6979350" lon="-3.4632820">
        <ele>614.2</ele>
        <time>2018-10-21T06:37:08Z</time>
      </trkpt>
      <trkpt lat="42.6979700" lon="-3.4632070">
        <ele>614.2</ele>
        <time>2018-10-21T06:37:09Z</time>
      </trkpt>
      <trkpt lat="42.6980030" lon="-3.4631320">
        <ele>614.2</ele>
        <time>2018-10-21T06:37:10Z</time>
      </trkpt>
      <trkpt lat="42.6980370" lon="-3.4630570">
        <ele>614.2</ele>
        <time>2018-10-21T06:37:11Z</time>
      </trkpt>
      <trkpt lat="42.6980720" lon="-3.4629850">
        <ele>613.3</ele>
        <time>2018-10-21T06:37:12Z</time>
      </trkpt>
      <trkpt lat="42.6981050" lon="-3.4629130">
        <ele>613.3</ele>
        <time>2018-10-21T06:37:13Z</time>
      </trkpt>
      <trkpt lat="42.6981400" lon="-3.4628420">
        <ele>612.2</ele>
        <time>2018-10-21T06:37:14Z</time>
      </trkpt>
      <trkpt lat="42.6981750" lon="-3.4627720">
        <ele>612.2</ele>
        <time>2018-10-21T06:37:15Z</time>
      </trkpt>
      <trkpt lat="42.6982120" lon="-3.4627020">
        <ele>612.2</ele>
        <time>2018-10-21T06:37:16Z</time>
      </trkpt>
      <trkpt lat="42.6982520" lon="-3.4626350">
        <ele>612.2</ele>
        <time>2018-10-21T06:37:17Z</time>
      </trkpt>
      <trkpt lat="42.6982920" lon="-3.4625720">
        <ele>612.2</ele>
        <time>2018-10-21T06:37:18Z</time>
      </trkpt>
      <trkpt lat="42.6983370" lon="-3.4625120">
        <ele>612.2</ele>
        <time>2018-10-21T06:37:19Z</time>
      </trkpt>
      <trkpt lat="42.6983820" lon="-3.4624550">
        <ele>612.2</ele>
        <time>2018-10-21T06:37:20Z</time>
      </trkpt>
      <trkpt lat="42.6984250" lon="-3.4623970">
        <ele>612.2</ele>
        <time>2018-10-21T06:37:21Z</time>
      </trkpt>
      <trkpt lat="42.6984680" lon="-3.4623370">
        <ele>612.2</ele>
        <time>2018-10-21T06:37:22Z</time>
      </trkpt>
      <trkpt lat="42.6985130" lon="-3.4622770">
        <ele>612.2</ele>
        <time>2018-10-21T06:37:23Z</time>
      </trkpt>
      <trkpt lat="42.6985600" lon="-3.4622180">
        <ele>612.2</ele>
        <time>2018-10-21T06:37:24Z</time>
      </trkpt>
      <trkpt lat="42.6986070" lon="-3.4621620">
        <ele>612.2</ele>
        <time>2018-10-21T06:37:25Z</time>
      </trkpt>
      <trkpt lat="42.6986550" lon="-3.4621030">
        <ele>612.2</ele>
        <time>2018-10-21T06:37:26Z</time>
      </trkpt>
      <trkpt lat="42.6987020" lon="-3.4620450">
        <ele>612.2</ele>
        <time>2018-10-21T06:37:27Z</time>
      </trkpt>
      <trkpt lat="42.6987470" lon="-3.4619880">
        <ele>612.2</ele>
        <time>2018-10-21T06:37:28Z</time>
      </trkpt>
      <trkpt lat="42.6987930" lon="-3.4619320">
        <ele>612.2</ele>
        <time>2018-10-21T06:37:29Z</time>
      </trkpt>
      <trkpt lat="42.6988380" lon="-3.4618730">
        <ele>612.2</ele>
        <time>2018-10-21T06:37:30Z</time>
      </trkpt>
      <trkpt lat="42.6988830" lon="-3.4618170">
        <ele>612.2</ele>
        <time>2018-10-21T06:37:31Z</time>
      </trkpt>
      <trkpt lat="42.6989280" lon="-3.4617620">
        <ele>612.2</ele>
        <time>2018-10-21T06:37:32Z</time>
      </trkpt>
      <trkpt lat="42.6989730" lon="-3.4617070">
        <ele>612.2</ele>
        <time>2018-10-21T06:37:33Z</time>
      </trkpt>
      <trkpt lat="42.6990150" lon="-3.4616550">
        <ele>612.2</ele>
        <time>2018-10-21T06:37:34Z</time>
      </trkpt>
      <trkpt lat="42.6990550" lon="-3.4616030">
        <ele>612.2</ele>
        <time>2018-10-21T06:37:35Z</time>
      </trkpt>
      <trkpt lat="42.6990970" lon="-3.4615550">
        <ele>612.2</ele>
        <time>2018-10-21T06:37:36Z</time>
      </trkpt>
      <trkpt lat="42.6991350" lon="-3.4615070">
        <ele>612.2</ele>
        <time>2018-10-21T06:37:37Z</time>
      </trkpt>
      <trkpt lat="42.6991720" lon="-3.4614580">
        <ele>613.3</ele>
        <time>2018-10-21T06:37:38Z</time>
      </trkpt>
      <trkpt lat="42.6992100" lon="-3.4614120">
        <ele>613.3</ele>
        <time>2018-10-21T06:37:39Z</time>
      </trkpt>
      <trkpt lat="42.6992470" lon="-3.4613670">
        <ele>613.3</ele>
        <time>2018-10-21T06:37:40Z</time>
      </trkpt>
      <trkpt lat="42.6992870" lon="-3.4613250">
        <ele>613.3</ele>
        <time>2018-10-21T06:37:41Z</time>
      </trkpt>
      <trkpt lat="42.6993250" lon="-3.4612830">
        <ele>614.2</ele>
        <time>2018-10-21T06:37:42Z</time>
      </trkpt>
      <trkpt lat="42.6993650" lon="-3.4612400">
        <ele>614.2</ele>
        <time>2018-10-21T06:37:43Z</time>
      </trkpt>
      <trkpt lat="42.6994050" lon="-3.4611980">
        <ele>614.2</ele>
        <time>2018-10-21T06:37:44Z</time>
      </trkpt>
      <trkpt lat="42.6994480" lon="-3.4611580">
        <ele>614.2</ele>
        <time>2018-10-21T06:37:45Z</time>
      </trkpt>
      <trkpt lat="42.6994900" lon="-3.4611200">
        <ele>614.2</ele>
        <time>2018-10-21T06:37:46Z</time>
      </trkpt>
      <trkpt lat="42.6995320" lon="-3.4610820">
        <ele>614.2</ele>
        <time>2018-10-21T06:37:47Z</time>
      </trkpt>
      <trkpt lat="42.6995730" lon="-3.4610470">
        <ele>614.2</ele>
        <time>2018-10-21T06:37:48Z</time>
      </trkpt>
      <trkpt lat="42.6996180" lon="-3.4610170">
        <ele>614.2</ele>
        <time>2018-10-21T06:37:49Z</time>
      </trkpt>
      <trkpt lat="42.6996630" lon="-3.4609880">
        <ele>615.2</ele>
        <time>2018-10-21T06:37:50Z</time>
      </trkpt>
      <trkpt lat="42.6997080" lon="-3.4609570">
        <ele>615.2</ele>
        <time>2018-10-21T06:37:51Z</time>
      </trkpt>
      <trkpt lat="42.6997520" lon="-3.4609230">
        <ele>615.2</ele>
        <time>2018-10-21T06:37:52Z</time>
      </trkpt>
      <trkpt lat="42.6997950" lon="-3.4608880">
        <ele>615.2</ele>
        <time>2018-10-21T06:37:53Z</time>
      </trkpt>
      <trkpt lat="42.6998380" lon="-3.4608530">
        <ele>615.2</ele>
        <time>2018-10-21T06:37:54Z</time>
      </trkpt>
      <trkpt lat="42.6998830" lon="-3.4608170">
        <ele>615.2</ele>
        <time>2018-10-21T06:37:55Z</time>
      </trkpt>
      <trkpt lat="42.6999280" lon="-3.4607800">
        <ele>616.3</ele>
        <time>2018-10-21T06:37:56Z</time>
      </trkpt>
      <trkpt lat="42.6999720" lon="-3.4607400">
        <ele>616.3</ele>
        <time>2018-10-21T06:37:57Z</time>
      </trkpt>
      <trkpt lat="42.7000150" lon="-3.4607000">
        <ele>616.3</ele>
        <time>2018-10-21T06:37:58Z</time>
      </trkpt>
      <trkpt lat="42.7000550" lon="-3.4606570">
        <ele>616.3</ele>
        <time>2018-10-21T06:37:59Z</time>
      </trkpt>
      <trkpt lat="42.7000950" lon="-3.4606150">
        <ele>616.3</ele>
        <time>2018-10-21T06:38:00Z</time>
      </trkpt>
      <trkpt lat="42.7001330" lon="-3.4605750">
        <ele>616.3</ele>
        <time>2018-10-21T06:38:01Z</time>
      </trkpt>
      <trkpt lat="42.7001680" lon="-3.4605330">
        <ele>617.2</ele>
        <time>2018-10-21T06:38:02Z</time>
      </trkpt>
      <trkpt lat="42.7002030" lon="-3.4604920">
        <ele>617.2</ele>
        <time>2018-10-21T06:38:03Z</time>
      </trkpt>
      <trkpt lat="42.7002380" lon="-3.4604480">
        <ele>617.2</ele>
        <time>2018-10-21T06:38:04Z</time>
      </trkpt>
      <trkpt lat="42.7002750" lon="-3.4604030">
        <ele>617.2</ele>
        <time>2018-10-21T06:38:05Z</time>
      </trkpt>
      <trkpt lat="42.7003100" lon="-3.4603570">
        <ele>617.2</ele>
        <time>2018-10-21T06:38:06Z</time>
      </trkpt>
      <trkpt lat="42.7003470" lon="-3.4603050">
        <ele>617.2</ele>
        <time>2018-10-21T06:38:07Z</time>
      </trkpt>
      <trkpt lat="42.7003830" lon="-3.4602520">
        <ele>617.2</ele>
        <time>2018-10-21T06:38:08Z</time>
      </trkpt>
      <trkpt lat="42.7004220" lon="-3.4601950">
        <ele>617.2</ele>
        <time>2018-10-21T06:38:09Z</time>
      </trkpt>
      <trkpt lat="42.7004600" lon="-3.4601380">
        <ele>617.2</ele>
        <time>2018-10-21T06:38:10Z</time>
      </trkpt>
      <trkpt lat="42.7005000" lon="-3.4600770">
        <ele>617.2</ele>
        <time>2018-10-21T06:38:11Z</time>
      </trkpt>
      <trkpt lat="42.7005430" lon="-3.4600170">
        <ele>616.3</ele>
        <time>2018-10-21T06:38:12Z</time>
      </trkpt>
      <trkpt lat="42.7005880" lon="-3.4599550">
        <ele>616.3</ele>
        <time>2018-10-21T06:38:13Z</time>
      </trkpt>
      <trkpt lat="42.7006320" lon="-3.4598920">
        <ele>616.3</ele>
        <time>2018-10-21T06:38:14Z</time>
      </trkpt>
      <trkpt lat="42.7006750" lon="-3.4598270">
        <ele>616.3</ele>
        <time>2018-10-21T06:38:15Z</time>
      </trkpt>
      <trkpt lat="42.7007220" lon="-3.4597600">
        <ele>615.2</ele>
        <time>2018-10-21T06:38:16Z</time>
      </trkpt>
      <trkpt lat="42.7007680" lon="-3.4596920">
        <ele>615.2</ele>
        <time>2018-10-21T06:38:17Z</time>
      </trkpt>
      <trkpt lat="42.7008170" lon="-3.4596230">
        <ele>615.2</ele>
        <time>2018-10-21T06:38:18Z</time>
      </trkpt>
      <trkpt lat="42.7008650" lon="-3.4595530">
        <ele>615.2</ele>
        <time>2018-10-21T06:38:19Z</time>
      </trkpt>
      <trkpt lat="42.7009150" lon="-3.4594820">
        <ele>614.2</ele>
        <time>2018-10-21T06:38:20Z</time>
      </trkpt>
      <trkpt lat="42.7009620" lon="-3.4594070">
        <ele>614.2</ele>
        <time>2018-10-21T06:38:21Z</time>
      </trkpt>
      <trkpt lat="42.7010120" lon="-3.4593300">
        <ele>614.2</ele>
        <time>2018-10-21T06:38:22Z</time>
      </trkpt>
      <trkpt lat="42.7010120" lon="-3.4593300">
        <ele>614.2</ele>
        <time>2018-10-21T06:38:23Z</time>
      </trkpt>
      <trkpt lat="42.7011080" lon="-3.4591720">
        <ele>614.2</ele>
        <time>2018-10-21T06:38:24Z</time>
      </trkpt>
      <trkpt lat="42.7011580" lon="-3.4590900">
        <ele>614.2</ele>
        <time>2018-10-21T06:38:25Z</time>
      </trkpt>
      <trkpt lat="42.7012050" lon="-3.4590050">
        <ele>615.2</ele>
        <time>2018-10-21T06:38:26Z</time>
      </trkpt>
      <trkpt lat="42.7012500" lon="-3.4589180">
        <ele>615.2</ele>
        <time>2018-10-21T06:38:27Z</time>
      </trkpt>
      <trkpt lat="42.7012980" lon="-3.4588330">
        <ele>615.2</ele>
        <time>2018-10-21T06:38:28Z</time>
      </trkpt>
      <trkpt lat="42.7013450" lon="-3.4587480">
        <ele>615.2</ele>
        <time>2018-10-21T06:38:29Z</time>
      </trkpt>
      <trkpt lat="42.7013920" lon="-3.4586620">
        <ele>614.2</ele>
        <time>2018-10-21T06:38:30Z</time>
      </trkpt>
      <trkpt lat="42.7014380" lon="-3.4585730">
        <ele>614.2</ele>
        <time>2018-10-21T06:38:31Z</time>
      </trkpt>
      <trkpt lat="42.7014870" lon="-3.4584830">
        <ele>613.3</ele>
        <time>2018-10-21T06:38:32Z</time>
      </trkpt>
      <trkpt lat="42.7014870" lon="-3.4584830">
        <ele>613.3</ele>
        <time>2018-10-21T06:38:33Z</time>
      </trkpt>
      <trkpt lat="42.7015830" lon="-3.4582980">
        <ele>612.2</ele>
        <time>2018-10-21T06:38:34Z</time>
      </trkpt>
      <trkpt lat="42.7016320" lon="-3.4582030">
        <ele>612.2</ele>
        <time>2018-10-21T06:38:35Z</time>
      </trkpt>
      <trkpt lat="42.7016830" lon="-3.4581100">
        <ele>612.2</ele>
        <time>2018-10-21T06:38:36Z</time>
      </trkpt>
      <trkpt lat="42.7017320" lon="-3.4580130">
        <ele>612.2</ele>
        <time>2018-10-21T06:38:37Z</time>
      </trkpt>
      <trkpt lat="42.7017320" lon="-3.4580130">
        <ele>611.3</ele>
        <time>2018-10-21T06:38:38Z</time>
      </trkpt>
      <trkpt lat="42.7018330" lon="-3.4578230">
        <ele>611.3</ele>
        <time>2018-10-21T06:38:39Z</time>
      </trkpt>
      <trkpt lat="42.7018830" lon="-3.4577280">
        <ele>610.2</ele>
        <time>2018-10-21T06:38:40Z</time>
      </trkpt>
      <trkpt lat="42.7018830" lon="-3.4577280">
        <ele>610.2</ele>
        <time>2018-10-21T06:38:41Z</time>
      </trkpt>
      <trkpt lat="42.7019870" lon="-3.4575350">
        <ele>610.2</ele>
        <time>2018-10-21T06:38:42Z</time>
      </trkpt>
      <trkpt lat="42.7020370" lon="-3.4574380">
        <ele>610.2</ele>
        <time>2018-10-21T06:38:43Z</time>
      </trkpt>
      <trkpt lat="42.7020900" lon="-3.4573420">
        <ele>609.3</ele>
        <time>2018-10-21T06:38:44Z</time>
      </trkpt>
      <trkpt lat="42.7021420" lon="-3.4572450">
        <ele>609.3</ele>
        <time>2018-10-21T06:38:45Z</time>
      </trkpt>
      <trkpt lat="42.7021930" lon="-3.4571480">
        <ele>609.3</ele>
        <time>2018-10-21T06:38:46Z</time>
      </trkpt>
      <trkpt lat="42.7022450" lon="-3.4570550">
        <ele>609.3</ele>
        <time>2018-10-21T06:38:47Z</time>
      </trkpt>
      <trkpt lat="42.7022970" lon="-3.4569630">
        <ele>608.2</ele>
        <time>2018-10-21T06:38:48Z</time>
      </trkpt>
      <trkpt lat="42.7023500" lon="-3.4568770">
        <ele>608.2</ele>
        <time>2018-10-21T06:38:49Z</time>
      </trkpt>
      <trkpt lat="42.7024050" lon="-3.4567980">
        <ele>608.2</ele>
        <time>2018-10-21T06:38:50Z</time>
      </trkpt>
      <trkpt lat="42.7024630" lon="-3.4567250">
        <ele>608.2</ele>
        <time>2018-10-21T06:38:51Z</time>
      </trkpt>
      <trkpt lat="42.7025220" lon="-3.4566570">
        <ele>608.2</ele>
        <time>2018-10-21T06:38:52Z</time>
      </trkpt>
      <trkpt lat="42.7025830" lon="-3.4565930">
        <ele>608.2</ele>
        <time>2018-10-21T06:38:53Z</time>
      </trkpt>
      <trkpt lat="42.7026450" lon="-3.4565370">
        <ele>607.2</ele>
        <time>2018-10-21T06:38:54Z</time>
      </trkpt>
      <trkpt lat="42.7027080" lon="-3.4564870">
        <ele>607.2</ele>
        <time>2018-10-21T06:38:55Z</time>
      </trkpt>
      <trkpt lat="42.7027700" lon="-3.4564350">
        <ele>607.2</ele>
        <time>2018-10-21T06:38:56Z</time>
      </trkpt>
      <trkpt lat="42.7028300" lon="-3.4563830">
        <ele>607.2</ele>
        <time>2018-10-21T06:38:57Z</time>
      </trkpt>
      <trkpt lat="42.7028880" lon="-3.4563330">
        <ele>607.2</ele>
        <time>2018-10-21T06:38:58Z</time>
      </trkpt>
      <trkpt lat="42.7029470" lon="-3.4562830">
        <ele>607.2</ele>
        <time>2018-10-21T06:38:59Z</time>
      </trkpt>
      <trkpt lat="42.7030050" lon="-3.4562350">
        <ele>607.2</ele>
        <time>2018-10-21T06:39:00Z</time>
      </trkpt>
      <trkpt lat="42.7030630" lon="-3.4561870">
        <ele>607.2</ele>
        <time>2018-10-21T06:39:01Z</time>
      </trkpt>
      <trkpt lat="42.7031200" lon="-3.4561400">
        <ele>607.2</ele>
        <time>2018-10-21T06:39:02Z</time>
      </trkpt>
      <trkpt lat="42.7031780" lon="-3.4560930">
        <ele>607.2</ele>
        <time>2018-10-21T06:39:03Z</time>
      </trkpt>
      <trkpt lat="42.7032350" lon="-3.4560470">
        <ele>607.2</ele>
        <time>2018-10-21T06:39:04Z</time>
      </trkpt>
      <trkpt lat="42.7032930" lon="-3.4560030">
        <ele>607.2</ele>
        <time>2018-10-21T06:39:05Z</time>
      </trkpt>
      <trkpt lat="42.7033500" lon="-3.4559550">
        <ele>607.2</ele>
        <time>2018-10-21T06:39:06Z</time>
      </trkpt>
      <trkpt lat="42.7034050" lon="-3.4559100">
        <ele>607.2</ele>
        <time>2018-10-21T06:39:07Z</time>
      </trkpt>
      <trkpt lat="42.7034620" lon="-3.4558620">
        <ele>607.2</ele>
        <time>2018-10-21T06:39:08Z</time>
      </trkpt>
      <trkpt lat="42.7035180" lon="-3.4558130">
        <ele>607.2</ele>
        <time>2018-10-21T06:39:09Z</time>
      </trkpt>
      <trkpt lat="42.7035730" lon="-3.4557620">
        <ele>607.2</ele>
        <time>2018-10-21T06:39:10Z</time>
      </trkpt>
      <trkpt lat="42.7036280" lon="-3.4557100">
        <ele>607.2</ele>
        <time>2018-10-21T06:39:11Z</time>
      </trkpt>
      <trkpt lat="42.7036850" lon="-3.4556550">
        <ele>607.2</ele>
        <time>2018-10-21T06:39:12Z</time>
      </trkpt>
      <trkpt lat="42.7037400" lon="-3.4555970">
        <ele>607.2</ele>
        <time>2018-10-21T06:39:13Z</time>
      </trkpt>
      <trkpt lat="42.7037950" lon="-3.4555370">
        <ele>607.2</ele>
        <time>2018-10-21T06:39:14Z</time>
      </trkpt>
      <trkpt lat="42.7038470" lon="-3.4554750">
        <ele>607.2</ele>
        <time>2018-10-21T06:39:15Z</time>
      </trkpt>
      <trkpt lat="42.7039000" lon="-3.4554130">
        <ele>607.2</ele>
        <time>2018-10-21T06:39:16Z</time>
      </trkpt>
      <trkpt lat="42.7039530" lon="-3.4553500">
        <ele>607.2</ele>
        <time>2018-10-21T06:39:17Z</time>
      </trkpt>
      <trkpt lat="42.7040070" lon="-3.4552850">
        <ele>606.3</ele>
        <time>2018-10-21T06:39:18Z</time>
      </trkpt>
      <trkpt lat="42.7040580" lon="-3.4552180">
        <ele>606.3</ele>
        <time>2018-10-21T06:39:19Z</time>
      </trkpt>
      <trkpt lat="42.7041120" lon="-3.4551530">
        <ele>606.3</ele>
        <time>2018-10-21T06:39:20Z</time>
      </trkpt>
      <trkpt lat="42.7041670" lon="-3.4550880">
        <ele>606.3</ele>
        <time>2018-10-21T06:39:21Z</time>
      </trkpt>
      <trkpt lat="42.7042200" lon="-3.4550230">
        <ele>605.2</ele>
        <time>2018-10-21T06:39:22Z</time>
      </trkpt>
      <trkpt lat="42.7042730" lon="-3.4549570">
        <ele>605.2</ele>
        <time>2018-10-21T06:39:23Z</time>
      </trkpt>
      <trkpt lat="42.7043270" lon="-3.4548900">
        <ele>605.2</ele>
        <time>2018-10-21T06:39:24Z</time>
      </trkpt>
      <trkpt lat="42.7043820" lon="-3.4548230">
        <ele>605.2</ele>
        <time>2018-10-21T06:39:25Z</time>
      </trkpt>
      <trkpt lat="42.7044370" lon="-3.4547550">
        <ele>604.3</ele>
        <time>2018-10-21T06:39:26Z</time>
      </trkpt>
      <trkpt lat="42.7044930" lon="-3.4546850">
        <ele>604.3</ele>
        <time>2018-10-21T06:39:27Z</time>
      </trkpt>
      <trkpt lat="42.7045520" lon="-3.4546120">
        <ele>603.2</ele>
        <time>2018-10-21T06:39:28Z</time>
      </trkpt>
      <trkpt lat="42.7046130" lon="-3.4545400">
        <ele>603.2</ele>
        <time>2018-10-21T06:39:29Z</time>
      </trkpt>
      <trkpt lat="42.7046730" lon="-3.4544650">
        <ele>603.2</ele>
        <time>2018-10-21T06:39:30Z</time>
      </trkpt>
      <trkpt lat="42.7047330" lon="-3.4543850">
        <ele>603.2</ele>
        <time>2018-10-21T06:39:31Z</time>
      </trkpt>
      <trkpt lat="42.7047950" lon="-3.4543070">
        <ele>603.2</ele>
        <time>2018-10-21T06:39:32Z</time>
      </trkpt>
      <trkpt lat="42.7048580" lon="-3.4542270">
        <ele>603.2</ele>
        <time>2018-10-21T06:39:33Z</time>
      </trkpt>
      <trkpt lat="42.7049250" lon="-3.4541470">
        <ele>603.2</ele>
        <time>2018-10-21T06:39:34Z</time>
      </trkpt>
      <trkpt lat="42.7049900" lon="-3.4540650">
        <ele>603.2</ele>
        <time>2018-10-21T06:39:35Z</time>
      </trkpt>
      <trkpt lat="42.7050570" lon="-3.4539830">
        <ele>599.2</ele>
        <time>2018-10-21T06:39:36Z</time>
      </trkpt>
      <trkpt lat="42.7051220" lon="-3.4539020">
        <ele>599.2</ele>
        <time>2018-10-21T06:39:37Z</time>
      </trkpt>
      <trkpt lat="42.7051830" lon="-3.4538180">
        <ele>599.2</ele>
        <time>2018-10-21T06:39:38Z</time>
      </trkpt>
      <trkpt lat="42.7052370" lon="-3.4537280">
        <ele>599.2</ele>
        <time>2018-10-21T06:39:39Z</time>
      </trkpt>
      <trkpt lat="42.7052730" lon="-3.4536300">
        <ele>599.2</ele>
        <time>2018-10-21T06:39:40Z</time>
      </trkpt>
      <trkpt lat="42.7052900" lon="-3.4535230">
        <ele>599.2</ele>
        <time>2018-10-21T06:39:41Z</time>
      </trkpt>
      <trkpt lat="42.7052850" lon="-3.4534150">
        <ele>595.3</ele>
        <time>2018-10-21T06:39:42Z</time>
      </trkpt>
      <trkpt lat="42.7052650" lon="-3.4533070">
        <ele>595.3</ele>
        <time>2018-10-21T06:39:43Z</time>
      </trkpt>
      <trkpt lat="42.7052350" lon="-3.4532000">
        <ele>594.2</ele>
        <time>2018-10-21T06:39:44Z</time>
      </trkpt>
      <trkpt lat="42.7052080" lon="-3.4530880">
        <ele>594.2</ele>
        <time>2018-10-21T06:39:45Z</time>
      </trkpt>
      <trkpt lat="42.7052020" lon="-3.4529700">
        <ele>593.3</ele>
        <time>2018-10-21T06:39:46Z</time>
      </trkpt>
      <trkpt lat="42.7052230" lon="-3.4528580">
        <ele>593.3</ele>
        <time>2018-10-21T06:39:47Z</time>
      </trkpt>
      <trkpt lat="42.7052630" lon="-3.4527600">
        <ele>591.2</ele>
        <time>2018-10-21T06:39:48Z</time>
      </trkpt>
      <trkpt lat="42.7053070" lon="-3.4526680">
        <ele>591.2</ele>
        <time>2018-10-21T06:39:49Z</time>
      </trkpt>
      <trkpt lat="42.7053380" lon="-3.4525750">
        <ele>591.2</ele>
        <time>2018-10-21T06:39:50Z</time>
      </trkpt>
      <trkpt lat="42.7053530" lon="-3.4524800">
        <ele>591.2</ele>
        <time>2018-10-21T06:39:51Z</time>
      </trkpt>
      <trkpt lat="42.7053580" lon="-3.4523900">
        <ele>591.2</ele>
        <time>2018-10-21T06:39:52Z</time>
      </trkpt>
      <trkpt lat="42.7053570" lon="-3.4522980">
        <ele>591.2</ele>
        <time>2018-10-21T06:39:53Z</time>
      </trkpt>
      <trkpt lat="42.7053520" lon="-3.4522100">
        <ele>591.2</ele>
        <time>2018-10-21T06:39:54Z</time>
      </trkpt>
      <trkpt lat="42.7053450" lon="-3.4521220">
        <ele>591.2</ele>
        <time>2018-10-21T06:39:55Z</time>
      </trkpt>
      <trkpt lat="42.7053400" lon="-3.4520330">
        <ele>591.2</ele>
        <time>2018-10-21T06:39:56Z</time>
      </trkpt>
      <trkpt lat="42.7053370" lon="-3.4519470">
        <ele>591.2</ele>
        <time>2018-10-21T06:39:57Z</time>
      </trkpt>
      <trkpt lat="42.7053330" lon="-3.4518600">
        <ele>591.2</ele>
        <time>2018-10-21T06:39:58Z</time>
      </trkpt>
      <trkpt lat="42.7053320" lon="-3.4517750">
        <ele>591.2</ele>
        <time>2018-10-21T06:39:59Z</time>
      </trkpt>
      <trkpt lat="42.7053320" lon="-3.4516900">
        <ele>591.2</ele>
        <time>2018-10-21T06:40:00Z</time>
      </trkpt>
      <trkpt lat="42.7053350" lon="-3.4516100">
        <ele>591.2</ele>
        <time>2018-10-21T06:40:01Z</time>
      </trkpt>
      <trkpt lat="42.7053420" lon="-3.4515280">
        <ele>591.2</ele>
        <time>2018-10-21T06:40:02Z</time>
      </trkpt>
      <trkpt lat="42.7053500" lon="-3.4514480">
        <ele>591.2</ele>
        <time>2018-10-21T06:40:03Z</time>
      </trkpt>
      <trkpt lat="42.7053620" lon="-3.4513720">
        <ele>591.2</ele>
        <time>2018-10-21T06:40:04Z</time>
      </trkpt>
      <trkpt lat="42.7053730" lon="-3.4512970">
        <ele>591.2</ele>
        <time>2018-10-21T06:40:05Z</time>
      </trkpt>
      <trkpt lat="42.7053900" lon="-3.4512220">
        <ele>592.2</ele>
        <time>2018-10-21T06:40:06Z</time>
      </trkpt>
      <trkpt lat="42.7054100" lon="-3.4511500">
        <ele>592.2</ele>
        <time>2018-10-21T06:40:07Z</time>
      </trkpt>
      <trkpt lat="42.7054280" lon="-3.4510800">
        <ele>592.2</ele>
        <time>2018-10-21T06:40:08Z</time>
      </trkpt>
      <trkpt lat="42.7054470" lon="-3.4510100">
        <ele>592.2</ele>
        <time>2018-10-21T06:40:09Z</time>
      </trkpt>
      <trkpt lat="42.7054670" lon="-3.4509450">
        <ele>593.3</ele>
        <time>2018-10-21T06:40:10Z</time>
      </trkpt>
      <trkpt lat="42.7054670" lon="-3.4509450">
        <ele>593.3</ele>
        <time>2018-10-21T06:40:11Z</time>
      </trkpt>
      <trkpt lat="42.7054850" lon="-3.4508780">
        <ele>594.2</ele>
        <time>2018-10-21T06:40:12Z</time>
      </trkpt>
      <trkpt lat="42.7055220" lon="-3.4507520">
        <ele>594.2</ele>
        <time>2018-10-21T06:40:13Z</time>
      </trkpt>
      <trkpt lat="42.7055420" lon="-3.4506880">
        <ele>594.2</ele>
        <time>2018-10-21T06:40:14Z</time>
      </trkpt>
      <trkpt lat="42.7055600" lon="-3.4506300">
        <ele>594.2</ele>
        <time>2018-10-21T06:40:15Z</time>
      </trkpt>
      <trkpt lat="42.7055780" lon="-3.4505720">
        <ele>594.2</ele>
        <time>2018-10-21T06:40:16Z</time>
      </trkpt>
      <trkpt lat="42.7055980" lon="-3.4505150">
        <ele>594.2</ele>
        <time>2018-10-21T06:40:17Z</time>
      </trkpt>
      <trkpt lat="42.7055980" lon="-3.4505150">
        <ele>596.2</ele>
        <time>2018-10-21T06:40:18Z</time>
      </trkpt>
      <trkpt lat="42.7056380" lon="-3.4504030">
        <ele>596.2</ele>
        <time>2018-10-21T06:40:19Z</time>
      </trkpt>
      <trkpt lat="42.7056630" lon="-3.4503500">
        <ele>596.2</ele>
        <time>2018-10-21T06:40:20Z</time>
      </trkpt>
      <trkpt lat="42.7056870" lon="-3.4503000">
        <ele>596.2</ele>
        <time>2018-10-21T06:40:21Z</time>
      </trkpt>
      <trkpt lat="42.7057130" lon="-3.4502520">
        <ele>597.3</ele>
        <time>2018-10-21T06:40:22Z</time>
      </trkpt>
      <trkpt lat="42.7057430" lon="-3.4502050">
        <ele>597.3</ele>
        <time>2018-10-21T06:40:23Z</time>
      </trkpt>
      <trkpt lat="42.7057750" lon="-3.4501630">
        <ele>597.3</ele>
        <time>2018-10-21T06:40:24Z</time>
      </trkpt>
      <trkpt lat="42.7058100" lon="-3.4501250">
        <ele>597.3</ele>
        <time>2018-10-21T06:40:25Z</time>
      </trkpt>
      <trkpt lat="42.7058480" lon="-3.4500920">
        <ele>597.3</ele>
        <time>2018-10-21T06:40:26Z</time>
      </trkpt>
      <trkpt lat="42.7058870" lon="-3.4500600">
        <ele>597.3</ele>
        <time>2018-10-21T06:40:27Z</time>
      </trkpt>
      <trkpt lat="42.7059270" lon="-3.4500330">
        <ele>598.2</ele>
        <time>2018-10-21T06:40:28Z</time>
      </trkpt>
      <trkpt lat="42.7059680" lon="-3.4500100">
        <ele>598.2</ele>
        <time>2018-10-21T06:40:29Z</time>
      </trkpt>
      <trkpt lat="42.7060120" lon="-3.4499950">
        <ele>599.2</ele>
        <time>2018-10-21T06:40:30Z</time>
      </trkpt>
      <trkpt lat="42.7060580" lon="-3.4499870">
        <ele>599.2</ele>
        <time>2018-10-21T06:40:31Z</time>
      </trkpt>
      <trkpt lat="42.7061070" lon="-3.4499850">
        <ele>599.2</ele>
        <time>2018-10-21T06:40:32Z</time>
      </trkpt>
      <trkpt lat="42.7061570" lon="-3.4499880">
        <ele>599.2</ele>
        <time>2018-10-21T06:40:33Z</time>
      </trkpt>
      <trkpt lat="42.7062080" lon="-3.4499930">
        <ele>599.2</ele>
        <time>2018-10-21T06:40:34Z</time>
      </trkpt>
      <trkpt lat="42.7062620" lon="-3.4500030">
        <ele>599.2</ele>
        <time>2018-10-21T06:40:35Z</time>
      </trkpt>
      <trkpt lat="42.7063120" lon="-3.4500150">
        <ele>600.3</ele>
        <time>2018-10-21T06:40:36Z</time>
      </trkpt>
      <trkpt lat="42.7063120" lon="-3.4500150">
        <ele>600.3</ele>
        <time>2018-10-21T06:40:37Z</time>
      </trkpt>
      <trkpt lat="42.7064070" lon="-3.4500430">
        <ele>600.3</ele>
        <time>2018-10-21T06:40:38Z</time>
      </trkpt>
      <trkpt lat="42.7064550" lon="-3.4500620">
        <ele>600.3</ele>
        <time>2018-10-21T06:40:39Z</time>
      </trkpt>
      <trkpt lat="42.7065030" lon="-3.4500770">
        <ele>600.3</ele>
        <time>2018-10-21T06:40:40Z</time>
      </trkpt>
      <trkpt lat="42.7065530" lon="-3.4500880">
        <ele>600.3</ele>
        <time>2018-10-21T06:40:41Z</time>
      </trkpt>
      <trkpt lat="42.7066050" lon="-3.4501020">
        <ele>600.3</ele>
        <time>2018-10-21T06:40:42Z</time>
      </trkpt>
      <trkpt lat="42.7066580" lon="-3.4501200">
        <ele>600.3</ele>
        <time>2018-10-21T06:40:43Z</time>
      </trkpt>
      <trkpt lat="42.7067130" lon="-3.4501380">
        <ele>600.3</ele>
        <time>2018-10-21T06:40:44Z</time>
      </trkpt>
      <trkpt lat="42.7067720" lon="-3.4501580">
        <ele>600.3</ele>
        <time>2018-10-21T06:40:45Z</time>
      </trkpt>
      <trkpt lat="42.7068300" lon="-3.4501780">
        <ele>600.3</ele>
        <time>2018-10-21T06:40:46Z</time>
      </trkpt>
      <trkpt lat="42.7068930" lon="-3.4501950">
        <ele>600.3</ele>
        <time>2018-10-21T06:40:47Z</time>
      </trkpt>
      <trkpt lat="42.7069600" lon="-3.4502120">
        <ele>600.3</ele>
        <time>2018-10-21T06:40:48Z</time>
      </trkpt>
      <trkpt lat="42.7070270" lon="-3.4502320">
        <ele>600.3</ele>
        <time>2018-10-21T06:40:49Z</time>
      </trkpt>
      <trkpt lat="42.7070930" lon="-3.4502520">
        <ele>600.3</ele>
        <time>2018-10-21T06:40:50Z</time>
      </trkpt>
      <trkpt lat="42.7071620" lon="-3.4502720">
        <ele>600.3</ele>
        <time>2018-10-21T06:40:51Z</time>
      </trkpt>
      <trkpt lat="42.7072320" lon="-3.4502930">
        <ele>597.3</ele>
        <time>2018-10-21T06:40:52Z</time>
      </trkpt>
      <trkpt lat="42.7073030" lon="-3.4503150">
        <ele>597.3</ele>
        <time>2018-10-21T06:40:53Z</time>
      </trkpt>
      <trkpt lat="42.7073750" lon="-3.4503400">
        <ele>597.3</ele>
        <time>2018-10-21T06:40:54Z</time>
      </trkpt>
      <trkpt lat="42.7074480" lon="-3.4503630">
        <ele>597.3</ele>
        <time>2018-10-21T06:40:55Z</time>
      </trkpt>
      <trkpt lat="42.7075220" lon="-3.4503880">
        <ele>597.3</ele>
        <time>2018-10-21T06:40:56Z</time>
      </trkpt>
      <trkpt lat="42.7075970" lon="-3.4504130">
        <ele>597.3</ele>
        <time>2018-10-21T06:40:57Z</time>
      </trkpt>
      <trkpt lat="42.7076750" lon="-3.4504370">
        <ele>597.3</ele>
        <time>2018-10-21T06:40:58Z</time>
      </trkpt>
      <trkpt lat="42.7076750" lon="-3.4504370">
        <ele>597.3</ele>
        <time>2018-10-21T06:40:59Z</time>
      </trkpt>
      <trkpt lat="42.7078300" lon="-3.4504870">
        <ele>596.2</ele>
        <time>2018-10-21T06:41:00Z</time>
      </trkpt>
      <trkpt lat="42.7079100" lon="-3.4505130">
        <ele>596.2</ele>
        <time>2018-10-21T06:41:01Z</time>
      </trkpt>
      <trkpt lat="42.7079900" lon="-3.4505380">
        <ele>595.3</ele>
        <time>2018-10-21T06:41:02Z</time>
      </trkpt>
      <trkpt lat="42.7080700" lon="-3.4505620">
        <ele>595.3</ele>
        <time>2018-10-21T06:41:03Z</time>
      </trkpt>
      <trkpt lat="42.7081520" lon="-3.4505870">
        <ele>594.2</ele>
        <time>2018-10-21T06:41:04Z</time>
      </trkpt>
      <trkpt lat="42.7082350" lon="-3.4506100">
        <ele>594.2</ele>
        <time>2018-10-21T06:41:05Z</time>
      </trkpt>
      <trkpt lat="42.7083170" lon="-3.4506350">
        <ele>594.2</ele>
        <time>2018-10-21T06:41:06Z</time>
      </trkpt>
      <trkpt lat="42.7083980" lon="-3.4506600">
        <ele>594.2</ele>
        <time>2018-10-21T06:41:07Z</time>
      </trkpt>
      <trkpt lat="42.7084800" lon="-3.4506830">
        <ele>594.2</ele>
        <time>2018-10-21T06:41:08Z</time>
      </trkpt>
      <trkpt lat="42.7084800" lon="-3.4506830">
        <ele>594.2</ele>
        <time>2018-10-21T06:41:09Z</time>
      </trkpt>
      <trkpt lat="42.7086380" lon="-3.4507300">
        <ele>594.2</ele>
        <time>2018-10-21T06:41:10Z</time>
      </trkpt>
      <trkpt lat="42.7087170" lon="-3.4507550">
        <ele>594.2</ele>
        <time>2018-10-21T06:41:11Z</time>
      </trkpt>
      <trkpt lat="42.7087920" lon="-3.4507770">
        <ele>594.2</ele>
        <time>2018-10-21T06:41:12Z</time>
      </trkpt>
      <trkpt lat="42.7087920" lon="-3.4507770">
        <ele>594.2</ele>
        <time>2018-10-21T06:41:13Z</time>
      </trkpt>
      <trkpt lat="42.7089420" lon="-3.4508220">
        <ele>594.2</ele>
        <time>2018-10-21T06:41:14Z</time>
      </trkpt>
      <trkpt lat="42.7090120" lon="-3.4508450">
        <ele>594.2</ele>
        <time>2018-10-21T06:41:15Z</time>
      </trkpt>
      <trkpt lat="42.7090820" lon="-3.4508670">
        <ele>593.3</ele>
        <time>2018-10-21T06:41:16Z</time>
      </trkpt>
      <trkpt lat="42.7091520" lon="-3.4508850">
        <ele>593.3</ele>
        <time>2018-10-21T06:41:17Z</time>
      </trkpt>
      <trkpt lat="42.7092220" lon="-3.4509070">
        <ele>593.3</ele>
        <time>2018-10-21T06:41:18Z</time>
      </trkpt>
      <trkpt lat="42.7092880" lon="-3.4509320">
        <ele>593.3</ele>
        <time>2018-10-21T06:41:19Z</time>
      </trkpt>
      <trkpt lat="42.7093570" lon="-3.4509530">
        <ele>593.3</ele>
        <time>2018-10-21T06:41:20Z</time>
      </trkpt>
      <trkpt lat="42.7094230" lon="-3.4509720">
        <ele>593.3</ele>
        <time>2018-10-21T06:41:21Z</time>
      </trkpt>
      <trkpt lat="42.7094920" lon="-3.4509880">
        <ele>593.3</ele>
        <time>2018-10-21T06:41:22Z</time>
      </trkpt>
      <trkpt lat="42.7095570" lon="-3.4510100">
        <ele>593.3</ele>
        <time>2018-10-21T06:41:23Z</time>
      </trkpt>
      <trkpt lat="42.7096230" lon="-3.4510330">
        <ele>593.3</ele>
        <time>2018-10-21T06:41:24Z</time>
      </trkpt>
      <trkpt lat="42.7096880" lon="-3.4510570">
        <ele>593.3</ele>
        <time>2018-10-21T06:41:25Z</time>
      </trkpt>
      <trkpt lat="42.7097530" lon="-3.4510770">
        <ele>593.3</ele>
        <time>2018-10-21T06:41:26Z</time>
      </trkpt>
      <trkpt lat="42.7098200" lon="-3.4510950">
        <ele>593.3</ele>
        <time>2018-10-21T06:41:27Z</time>
      </trkpt>
      <trkpt lat="42.7098880" lon="-3.4511120">
        <ele>593.3</ele>
        <time>2018-10-21T06:41:28Z</time>
      </trkpt>
      <trkpt lat="42.7099550" lon="-3.4511300">
        <ele>593.3</ele>
        <time>2018-10-21T06:41:29Z</time>
      </trkpt>
      <trkpt lat="42.7100200" lon="-3.4511480">
        <ele>593.3</ele>
        <time>2018-10-21T06:41:30Z</time>
      </trkpt>
      <trkpt lat="42.7100850" lon="-3.4511680">
        <ele>593.3</ele>
        <time>2018-10-21T06:41:31Z</time>
      </trkpt>
      <trkpt lat="42.7101480" lon="-3.4511880">
        <ele>593.3</ele>
        <time>2018-10-21T06:41:32Z</time>
      </trkpt>
      <trkpt lat="42.7102130" lon="-3.4512070">
        <ele>593.3</ele>
        <time>2018-10-21T06:41:33Z</time>
      </trkpt>
      <trkpt lat="42.7102770" lon="-3.4512250">
        <ele>593.3</ele>
        <time>2018-10-21T06:41:34Z</time>
      </trkpt>
      <trkpt lat="42.7103400" lon="-3.4512430">
        <ele>593.3</ele>
        <time>2018-10-21T06:41:35Z</time>
      </trkpt>
      <trkpt lat="42.7104030" lon="-3.4512600">
        <ele>593.3</ele>
        <time>2018-10-21T06:41:36Z</time>
      </trkpt>
      <trkpt lat="42.7104670" lon="-3.4512780">
        <ele>593.3</ele>
        <time>2018-10-21T06:41:37Z</time>
      </trkpt>
      <trkpt lat="42.7105300" lon="-3.4512970">
        <ele>593.3</ele>
        <time>2018-10-21T06:41:38Z</time>
      </trkpt>
      <trkpt lat="42.7105300" lon="-3.4512970">
        <ele>593.3</ele>
        <time>2018-10-21T06:41:39Z</time>
      </trkpt>
      <trkpt lat="42.7105920" lon="-3.4513150">
        <ele>593.3</ele>
        <time>2018-10-21T06:41:40Z</time>
      </trkpt>
      <trkpt lat="42.7107180" lon="-3.4513530">
        <ele>593.3</ele>
        <time>2018-10-21T06:41:41Z</time>
      </trkpt>
      <trkpt lat="42.7107820" lon="-3.4513720">
        <ele>593.3</ele>
        <time>2018-10-21T06:41:42Z</time>
      </trkpt>
      <trkpt lat="42.7108450" lon="-3.4513900">
        <ele>593.3</ele>
        <time>2018-10-21T06:41:43Z</time>
      </trkpt>
      <trkpt lat="42.7109080" lon="-3.4514100">
        <ele>593.3</ele>
        <time>2018-10-21T06:41:44Z</time>
      </trkpt>
      <trkpt lat="42.7109720" lon="-3.4514300">
        <ele>593.3</ele>
        <time>2018-10-21T06:41:45Z</time>
      </trkpt>
      <trkpt lat="42.7110370" lon="-3.4514500">
        <ele>593.3</ele>
        <time>2018-10-21T06:41:46Z</time>
      </trkpt>
      <trkpt lat="42.7111000" lon="-3.4514670">
        <ele>593.3</ele>
        <time>2018-10-21T06:41:47Z</time>
      </trkpt>
      <trkpt lat="42.7111650" lon="-3.4514850">
        <ele>592.2</ele>
        <time>2018-10-21T06:41:48Z</time>
      </trkpt>
      <trkpt lat="42.7112280" lon="-3.4515030">
        <ele>592.2</ele>
        <time>2018-10-21T06:41:49Z</time>
      </trkpt>
      <trkpt lat="42.7112930" lon="-3.4515220">
        <ele>592.2</ele>
        <time>2018-10-21T06:41:50Z</time>
      </trkpt>
      <trkpt lat="42.7113570" lon="-3.4515400">
        <ele>592.2</ele>
        <time>2018-10-21T06:41:51Z</time>
      </trkpt>
      <trkpt lat="42.7114220" lon="-3.4515580">
        <ele>592.2</ele>
        <time>2018-10-21T06:41:52Z</time>
      </trkpt>
      <trkpt lat="42.7114870" lon="-3.4515770">
        <ele>592.2</ele>
        <time>2018-10-21T06:41:53Z</time>
      </trkpt>
      <trkpt lat="42.7115520" lon="-3.4515920">
        <ele>592.2</ele>
        <time>2018-10-21T06:41:54Z</time>
      </trkpt>
      <trkpt lat="42.7116170" lon="-3.4516080">
        <ele>592.2</ele>
        <time>2018-10-21T06:41:55Z</time>
      </trkpt>
      <trkpt lat="42.7116800" lon="-3.4516230">
        <ele>592.2</ele>
        <time>2018-10-21T06:41:56Z</time>
      </trkpt>
      <trkpt lat="42.7117430" lon="-3.4516370">
        <ele>592.2</ele>
        <time>2018-10-21T06:41:57Z</time>
      </trkpt>
      <trkpt lat="42.7118080" lon="-3.4516470">
        <ele>592.2</ele>
        <time>2018-10-21T06:41:58Z</time>
      </trkpt>
      <trkpt lat="42.7118720" lon="-3.4516550">
        <ele>592.2</ele>
        <time>2018-10-21T06:41:59Z</time>
      </trkpt>
      <trkpt lat="42.7119350" lon="-3.4516650">
        <ele>592.2</ele>
        <time>2018-10-21T06:42:00Z</time>
      </trkpt>
      <trkpt lat="42.7119980" lon="-3.4516700">
        <ele>592.2</ele>
        <time>2018-10-21T06:42:01Z</time>
      </trkpt>
      <trkpt lat="42.7120600" lon="-3.4516750">
        <ele>592.2</ele>
        <time>2018-10-21T06:42:02Z</time>
      </trkpt>
      <trkpt lat="42.7121230" lon="-3.4516780">
        <ele>592.2</ele>
        <time>2018-10-21T06:42:03Z</time>
      </trkpt>
      <trkpt lat="42.7121870" lon="-3.4516800">
        <ele>592.2</ele>
        <time>2018-10-21T06:42:04Z</time>
      </trkpt>
      <trkpt lat="42.7122500" lon="-3.4516800">
        <ele>592.2</ele>
        <time>2018-10-21T06:42:05Z</time>
      </trkpt>
      <trkpt lat="42.7123150" lon="-3.4516780">
        <ele>592.2</ele>
        <time>2018-10-21T06:42:06Z</time>
      </trkpt>
      <trkpt lat="42.7123150" lon="-3.4516780">
        <ele>592.2</ele>
        <time>2018-10-21T06:42:07Z</time>
      </trkpt>
      <trkpt lat="42.7124430" lon="-3.4516770">
        <ele>592.2</ele>
        <time>2018-10-21T06:42:08Z</time>
      </trkpt>
      <trkpt lat="42.7125100" lon="-3.4516770">
        <ele>592.2</ele>
        <time>2018-10-21T06:42:09Z</time>
      </trkpt>
      <trkpt lat="42.7125750" lon="-3.4516780">
        <ele>592.2</ele>
        <time>2018-10-21T06:42:10Z</time>
      </trkpt>
      <trkpt lat="42.7126420" lon="-3.4516800">
        <ele>592.2</ele>
        <time>2018-10-21T06:42:11Z</time>
      </trkpt>
      <trkpt lat="42.7127080" lon="-3.4516870">
        <ele>592.2</ele>
        <time>2018-10-21T06:42:12Z</time>
      </trkpt>
      <trkpt lat="42.7127750" lon="-3.4517000">
        <ele>592.2</ele>
        <time>2018-10-21T06:42:13Z</time>
      </trkpt>
      <trkpt lat="42.7128420" lon="-3.4517220">
        <ele>592.2</ele>
        <time>2018-10-21T06:42:14Z</time>
      </trkpt>
      <trkpt lat="42.7129070" lon="-3.4517520">
        <ele>592.2</ele>
        <time>2018-10-21T06:42:15Z</time>
      </trkpt>
      <trkpt lat="42.7129700" lon="-3.4517900">
        <ele>592.2</ele>
        <time>2018-10-21T06:42:16Z</time>
      </trkpt>
      <trkpt lat="42.7130320" lon="-3.4518350">
        <ele>592.2</ele>
        <time>2018-10-21T06:42:17Z</time>
      </trkpt>
      <trkpt lat="42.7130950" lon="-3.4518830">
        <ele>592.2</ele>
        <time>2018-10-21T06:42:18Z</time>
      </trkpt>
      <trkpt lat="42.7131570" lon="-3.4519330">
        <ele>592.2</ele>
        <time>2018-10-21T06:42:19Z</time>
      </trkpt>
      <trkpt lat="42.7132200" lon="-3.4519800">
        <ele>592.2</ele>
        <time>2018-10-21T06:42:20Z</time>
      </trkpt>
      <trkpt lat="42.7132850" lon="-3.4520230">
        <ele>592.2</ele>
        <time>2018-10-21T06:42:21Z</time>
      </trkpt>
      <trkpt lat="42.7133530" lon="-3.4520550">
        <ele>589.2</ele>
        <time>2018-10-21T06:42:22Z</time>
      </trkpt>
      <trkpt lat="42.7134250" lon="-3.4520700">
        <ele>589.2</ele>
        <time>2018-10-21T06:42:23Z</time>
      </trkpt>
      <trkpt lat="42.7134980" lon="-3.4520680">
        <ele>589.2</ele>
        <time>2018-10-21T06:42:24Z</time>
      </trkpt>
      <trkpt lat="42.7135680" lon="-3.4520470">
        <ele>589.2</ele>
        <time>2018-10-21T06:42:25Z</time>
      </trkpt>
      <trkpt lat="42.7136370" lon="-3.4520080">
        <ele>588.3</ele>
        <time>2018-10-21T06:42:26Z</time>
      </trkpt>
      <trkpt lat="42.7137050" lon="-3.4519650">
        <ele>588.3</ele>
        <time>2018-10-21T06:42:27Z</time>
      </trkpt>
      <trkpt lat="42.7137750" lon="-3.4519270">
        <ele>588.3</ele>
        <time>2018-10-21T06:42:28Z</time>
      </trkpt>
      <trkpt lat="42.7138450" lon="-3.4518880">
        <ele>588.3</ele>
        <time>2018-10-21T06:42:29Z</time>
      </trkpt>
      <trkpt lat="42.7139170" lon="-3.4518580">
        <ele>588.3</ele>
        <time>2018-10-21T06:42:30Z</time>
      </trkpt>
      <trkpt lat="42.7139920" lon="-3.4518400">
        <ele>588.3</ele>
        <time>2018-10-21T06:42:31Z</time>
      </trkpt>
      <trkpt lat="42.7140650" lon="-3.4518300">
        <ele>588.3</ele>
        <time>2018-10-21T06:42:32Z</time>
      </trkpt>
      <trkpt lat="42.7141380" lon="-3.4518220">
        <ele>588.3</ele>
        <time>2018-10-21T06:42:33Z</time>
      </trkpt>
      <trkpt lat="42.7142120" lon="-3.4518150">
        <ele>587.2</ele>
        <time>2018-10-21T06:42:34Z</time>
      </trkpt>
      <trkpt lat="42.7142830" lon="-3.4518100">
        <ele>587.2</ele>
        <time>2018-10-21T06:42:35Z</time>
      </trkpt>
      <trkpt lat="42.7143530" lon="-3.4518100">
        <ele>587.2</ele>
        <time>2018-10-21T06:42:36Z</time>
      </trkpt>
      <trkpt lat="42.7144250" lon="-3.4518120">
        <ele>587.2</ele>
        <time>2018-10-21T06:42:37Z</time>
      </trkpt>
      <trkpt lat="42.7144970" lon="-3.4518080">
        <ele>587.2</ele>
        <time>2018-10-21T06:42:38Z</time>
      </trkpt>
      <trkpt lat="42.7145720" lon="-3.4518050">
        <ele>587.2</ele>
        <time>2018-10-21T06:42:39Z</time>
      </trkpt>
      <trkpt lat="42.7146450" lon="-3.4518050">
        <ele>587.2</ele>
        <time>2018-10-21T06:42:40Z</time>
      </trkpt>
      <trkpt lat="42.7147170" lon="-3.4518020">
        <ele>587.2</ele>
        <time>2018-10-21T06:42:41Z</time>
      </trkpt>
      <trkpt lat="42.7147870" lon="-3.4518000">
        <ele>587.2</ele>
        <time>2018-10-21T06:42:42Z</time>
      </trkpt>
      <trkpt lat="42.7148550" lon="-3.4518000">
        <ele>587.2</ele>
        <time>2018-10-21T06:42:43Z</time>
      </trkpt>
      <trkpt lat="42.7149230" lon="-3.4517980">
        <ele>587.2</ele>
        <time>2018-10-21T06:42:44Z</time>
      </trkpt>
      <trkpt lat="42.7149920" lon="-3.4517970">
        <ele>587.2</ele>
        <time>2018-10-21T06:42:45Z</time>
      </trkpt>
      <trkpt lat="42.7150580" lon="-3.4517950">
        <ele>588.3</ele>
        <time>2018-10-21T06:42:46Z</time>
      </trkpt>
      <trkpt lat="42.7151270" lon="-3.4517900">
        <ele>588.3</ele>
        <time>2018-10-21T06:42:47Z</time>
      </trkpt>
      <trkpt lat="42.7151950" lon="-3.4517850">
        <ele>588.3</ele>
        <time>2018-10-21T06:42:48Z</time>
      </trkpt>
      <trkpt lat="42.7152620" lon="-3.4517780">
        <ele>588.3</ele>
        <time>2018-10-21T06:42:49Z</time>
      </trkpt>
      <trkpt lat="42.7153270" lon="-3.4517700">
        <ele>588.3</ele>
        <time>2018-10-21T06:42:50Z</time>
      </trkpt>
      <trkpt lat="42.7153900" lon="-3.4517620">
        <ele>588.3</ele>
        <time>2018-10-21T06:42:51Z</time>
      </trkpt>
      <trkpt lat="42.7154520" lon="-3.4517520">
        <ele>588.3</ele>
        <time>2018-10-21T06:42:52Z</time>
      </trkpt>
      <trkpt lat="42.7155130" lon="-3.4517420">
        <ele>588.3</ele>
        <time>2018-10-21T06:42:53Z</time>
      </trkpt>
      <trkpt lat="42.7155780" lon="-3.4517280">
        <ele>588.3</ele>
        <time>2018-10-21T06:42:54Z</time>
      </trkpt>
      <trkpt lat="42.7156420" lon="-3.4517150">
        <ele>588.3</ele>
        <time>2018-10-21T06:42:55Z</time>
      </trkpt>
      <trkpt lat="42.7157080" lon="-3.4516980">
        <ele>588.3</ele>
        <time>2018-10-21T06:42:56Z</time>
      </trkpt>
      <trkpt lat="42.7157670" lon="-3.4516780">
        <ele>588.3</ele>
        <time>2018-10-21T06:42:57Z</time>
      </trkpt>
      <trkpt lat="42.7158300" lon="-3.4516580">
        <ele>588.3</ele>
        <time>2018-10-21T06:42:58Z</time>
      </trkpt>
      <trkpt lat="42.7158930" lon="-3.4516380">
        <ele>588.3</ele>
        <time>2018-10-21T06:42:59Z</time>
      </trkpt>
      <trkpt lat="42.7159550" lon="-3.4516170">
        <ele>588.3</ele>
        <time>2018-10-21T06:43:00Z</time>
      </trkpt>
      <trkpt lat="42.7160150" lon="-3.4516000">
        <ele>588.3</ele>
        <time>2018-10-21T06:43:01Z</time>
      </trkpt>
      <trkpt lat="42.7160670" lon="-3.4515750">
        <ele>588.3</ele>
        <time>2018-10-21T06:43:02Z</time>
      </trkpt>
      <trkpt lat="42.7161270" lon="-3.4515520">
        <ele>588.3</ele>
        <time>2018-10-21T06:43:03Z</time>
      </trkpt>
      <trkpt lat="42.7161920" lon="-3.4515300">
        <ele>588.3</ele>
        <time>2018-10-21T06:43:04Z</time>
      </trkpt>
      <trkpt lat="42.7162530" lon="-3.4515070">
        <ele>588.3</ele>
        <time>2018-10-21T06:43:05Z</time>
      </trkpt>
      <trkpt lat="42.7163180" lon="-3.4514830">
        <ele>588.3</ele>
        <time>2018-10-21T06:43:06Z</time>
      </trkpt>
      <trkpt lat="42.7163820" lon="-3.4514600">
        <ele>588.3</ele>
        <time>2018-10-21T06:43:07Z</time>
      </trkpt>
      <trkpt lat="42.7164470" lon="-3.4514380">
        <ele>588.3</ele>
        <time>2018-10-21T06:43:08Z</time>
      </trkpt>
      <trkpt lat="42.7165130" lon="-3.4514130">
        <ele>588.3</ele>
        <time>2018-10-21T06:43:09Z</time>
      </trkpt>
      <trkpt lat="42.7165780" lon="-3.4513880">
        <ele>588.3</ele>
        <time>2018-10-21T06:43:10Z</time>
      </trkpt>
      <trkpt lat="42.7166420" lon="-3.4513600">
        <ele>588.3</ele>
        <time>2018-10-21T06:43:11Z</time>
      </trkpt>
      <trkpt lat="42.7167050" lon="-3.4513350">
        <ele>588.3</ele>
        <time>2018-10-21T06:43:12Z</time>
      </trkpt>
      <trkpt lat="42.7167680" lon="-3.4513100">
        <ele>588.3</ele>
        <time>2018-10-21T06:43:13Z</time>
      </trkpt>
      <trkpt lat="42.7168300" lon="-3.4512830">
        <ele>588.3</ele>
        <time>2018-10-21T06:43:14Z</time>
      </trkpt>
      <trkpt lat="42.7168930" lon="-3.4512570">
        <ele>588.3</ele>
        <time>2018-10-21T06:43:15Z</time>
      </trkpt>
      <trkpt lat="42.7169570" lon="-3.4512280">
        <ele>589.2</ele>
        <time>2018-10-21T06:43:16Z</time>
      </trkpt>
      <trkpt lat="42.7170200" lon="-3.4511980">
        <ele>589.2</ele>
        <time>2018-10-21T06:43:17Z</time>
      </trkpt>
      <trkpt lat="42.7170820" lon="-3.4511680">
        <ele>589.2</ele>
        <time>2018-10-21T06:43:18Z</time>
      </trkpt>
      <trkpt lat="42.7171450" lon="-3.4511380">
        <ele>589.2</ele>
        <time>2018-10-21T06:43:19Z</time>
      </trkpt>
      <trkpt lat="42.7172080" lon="-3.4511070">
        <ele>589.2</ele>
        <time>2018-10-21T06:43:20Z</time>
      </trkpt>
      <trkpt lat="42.7172730" lon="-3.4510770">
        <ele>589.2</ele>
        <time>2018-10-21T06:43:21Z</time>
      </trkpt>
      <trkpt lat="42.7173370" lon="-3.4510450">
        <ele>589.2</ele>
        <time>2018-10-21T06:43:22Z</time>
      </trkpt>
      <trkpt lat="42.7174000" lon="-3.4510120">
        <ele>589.2</ele>
        <time>2018-10-21T06:43:23Z</time>
      </trkpt>
      <trkpt lat="42.7174650" lon="-3.4509770">
        <ele>588.3</ele>
        <time>2018-10-21T06:43:24Z</time>
      </trkpt>
      <trkpt lat="42.7175320" lon="-3.4509400">
        <ele>588.3</ele>
        <time>2018-10-21T06:43:25Z</time>
      </trkpt>
      <trkpt lat="42.7175970" lon="-3.4509000">
        <ele>588.3</ele>
        <time>2018-10-21T06:43:26Z</time>
      </trkpt>
      <trkpt lat="42.7176650" lon="-3.4508580">
        <ele>588.3</ele>
        <time>2018-10-21T06:43:27Z</time>
      </trkpt>
      <trkpt lat="42.7177350" lon="-3.4508170">
        <ele>588.3</ele>
        <time>2018-10-21T06:43:28Z</time>
      </trkpt>
      <trkpt lat="42.7178030" lon="-3.4507750">
        <ele>588.3</ele>
        <time>2018-10-21T06:43:29Z</time>
      </trkpt>
      <trkpt lat="42.7178770" lon="-3.4507300">
        <ele>588.3</ele>
        <time>2018-10-21T06:43:30Z</time>
      </trkpt>
      <trkpt lat="42.7179520" lon="-3.4506800">
        <ele>588.3</ele>
        <time>2018-10-21T06:43:31Z</time>
      </trkpt>
      <trkpt lat="42.7180270" lon="-3.4506300">
        <ele>588.3</ele>
        <time>2018-10-21T06:43:32Z</time>
      </trkpt>
      <trkpt lat="42.7181030" lon="-3.4505780">
        <ele>588.3</ele>
        <time>2018-10-21T06:43:33Z</time>
      </trkpt>
      <trkpt lat="42.7181830" lon="-3.4505280">
        <ele>587.2</ele>
        <time>2018-10-21T06:43:34Z</time>
      </trkpt>
      <trkpt lat="42.7182650" lon="-3.4504780">
        <ele>587.2</ele>
        <time>2018-10-21T06:43:35Z</time>
      </trkpt>
      <trkpt lat="42.7183470" lon="-3.4504250">
        <ele>586.3</ele>
        <time>2018-10-21T06:43:36Z</time>
      </trkpt>
      <trkpt lat="42.7184300" lon="-3.4503700">
        <ele>586.3</ele>
        <time>2018-10-21T06:43:37Z</time>
      </trkpt>
      <trkpt lat="42.7185130" lon="-3.4503170">
        <ele>585.2</ele>
        <time>2018-10-21T06:43:38Z</time>
      </trkpt>
      <trkpt lat="42.7185980" lon="-3.4502600">
        <ele>585.2</ele>
        <time>2018-10-21T06:43:39Z</time>
      </trkpt>
      <trkpt lat="42.7186830" lon="-3.4502030">
        <ele>585.2</ele>
        <time>2018-10-21T06:43:40Z</time>
      </trkpt>
      <trkpt lat="42.7187700" lon="-3.4501470">
        <ele>585.2</ele>
        <time>2018-10-21T06:43:41Z</time>
      </trkpt>
      <trkpt lat="42.7188570" lon="-3.4500920">
        <ele>585.2</ele>
        <time>2018-10-21T06:43:42Z</time>
      </trkpt>
      <trkpt lat="42.7189450" lon="-3.4500370">
        <ele>585.2</ele>
        <time>2018-10-21T06:43:43Z</time>
      </trkpt>
      <trkpt lat="42.7190330" lon="-3.4499780">
        <ele>581.3</ele>
        <time>2018-10-21T06:43:44Z</time>
      </trkpt>
      <trkpt lat="42.7191220" lon="-3.4499230">
        <ele>581.3</ele>
        <time>2018-10-21T06:43:45Z</time>
      </trkpt>
      <trkpt lat="42.7192130" lon="-3.4498770">
        <ele>580.2</ele>
        <time>2018-10-21T06:43:46Z</time>
      </trkpt>
      <trkpt lat="42.7193050" lon="-3.4498370">
        <ele>580.2</ele>
        <time>2018-10-21T06:43:47Z</time>
      </trkpt>
      <trkpt lat="42.7193950" lon="-3.4497980">
        <ele>579.3</ele>
        <time>2018-10-21T06:43:48Z</time>
      </trkpt>
      <trkpt lat="42.7194850" lon="-3.4497620">
        <ele>579.3</ele>
        <time>2018-10-21T06:43:49Z</time>
      </trkpt>
      <trkpt lat="42.7195720" lon="-3.4497250">
        <ele>579.3</ele>
        <time>2018-10-21T06:43:50Z</time>
      </trkpt>
      <trkpt lat="42.7196570" lon="-3.4496920">
        <ele>579.3</ele>
        <time>2018-10-21T06:43:51Z</time>
      </trkpt>
      <trkpt lat="42.7197400" lon="-3.4496580">
        <ele>578.2</ele>
        <time>2018-10-21T06:43:52Z</time>
      </trkpt>
      <trkpt lat="42.7198220" lon="-3.4496270">
        <ele>578.2</ele>
        <time>2018-10-21T06:43:53Z</time>
      </trkpt>
      <trkpt lat="42.7199000" lon="-3.4495930">
        <ele>578.2</ele>
        <time>2018-10-21T06:43:54Z</time>
      </trkpt>
      <trkpt lat="42.7199770" lon="-3.4495600">
        <ele>578.2</ele>
        <time>2018-10-21T06:43:55Z</time>
      </trkpt>
      <trkpt lat="42.7200530" lon="-3.4495280">
        <ele>578.2</ele>
        <time>2018-10-21T06:43:56Z</time>
      </trkpt>
      <trkpt lat="42.7201280" lon="-3.4494970">
        <ele>578.2</ele>
        <time>2018-10-21T06:43:57Z</time>
      </trkpt>
      <trkpt lat="42.7201280" lon="-3.4494970">
        <ele>577.3</ele>
        <time>2018-10-21T06:43:58Z</time>
      </trkpt>
      <trkpt lat="42.7202770" lon="-3.4494370">
        <ele>577.3</ele>
        <time>2018-10-21T06:43:59Z</time>
      </trkpt>
      <trkpt lat="42.7203500" lon="-3.4494070">
        <ele>577.3</ele>
        <time>2018-10-21T06:44:00Z</time>
      </trkpt>
      <trkpt lat="42.7204230" lon="-3.4493770">
        <ele>577.3</ele>
        <time>2018-10-21T06:44:01Z</time>
      </trkpt>
      <trkpt lat="42.7204950" lon="-3.4493500">
        <ele>577.3</ele>
        <time>2018-10-21T06:44:02Z</time>
      </trkpt>
      <trkpt lat="42.7205670" lon="-3.4493220">
        <ele>577.3</ele>
        <time>2018-10-21T06:44:03Z</time>
      </trkpt>
      <trkpt lat="42.7206330" lon="-3.4492900">
        <ele>577.3</ele>
        <time>2018-10-21T06:44:04Z</time>
      </trkpt>
      <trkpt lat="42.7206330" lon="-3.4492900">
        <ele>577.3</ele>
        <time>2018-10-21T06:44:05Z</time>
      </trkpt>
      <trkpt lat="42.7207620" lon="-3.4492180">
        <ele>577.3</ele>
        <time>2018-10-21T06:44:06Z</time>
      </trkpt>
      <trkpt lat="42.7208250" lon="-3.4491800">
        <ele>577.3</ele>
        <time>2018-10-21T06:44:07Z</time>
      </trkpt>
      <trkpt lat="42.7208870" lon="-3.4491400">
        <ele>578.2</ele>
        <time>2018-10-21T06:44:08Z</time>
      </trkpt>
      <trkpt lat="42.7209450" lon="-3.4491000">
        <ele>578.2</ele>
        <time>2018-10-21T06:44:09Z</time>
      </trkpt>
      <trkpt lat="42.7209450" lon="-3.4491000">
        <ele>577.3</ele>
        <time>2018-10-21T06:44:10Z</time>
      </trkpt>
      <trkpt lat="42.7210700" lon="-3.4490150">
        <ele>577.3</ele>
        <time>2018-10-21T06:44:11Z</time>
      </trkpt>
      <trkpt lat="42.7211350" lon="-3.4489700">
        <ele>577.3</ele>
        <time>2018-10-21T06:44:12Z</time>
      </trkpt>
      <trkpt lat="42.7212020" lon="-3.4489250">
        <ele>577.3</ele>
        <time>2018-10-21T06:44:13Z</time>
      </trkpt>
      <trkpt lat="42.7212680" lon="-3.4488800">
        <ele>577.3</ele>
        <time>2018-10-21T06:44:14Z</time>
      </trkpt>
      <trkpt lat="42.7213350" lon="-3.4488330">
        <ele>577.3</ele>
        <time>2018-10-21T06:44:15Z</time>
      </trkpt>
      <trkpt lat="42.7214020" lon="-3.4487850">
        <ele>576.2</ele>
        <time>2018-10-21T06:44:16Z</time>
      </trkpt>
      <trkpt lat="42.7214680" lon="-3.4487370">
        <ele>576.2</ele>
        <time>2018-10-21T06:44:17Z</time>
      </trkpt>
      <trkpt lat="42.7215320" lon="-3.4486920">
        <ele>576.2</ele>
        <time>2018-10-21T06:44:18Z</time>
      </trkpt>
      <trkpt lat="42.7215950" lon="-3.4486470">
        <ele>576.2</ele>
        <time>2018-10-21T06:44:19Z</time>
      </trkpt>
      <trkpt lat="42.7216550" lon="-3.4486030">
        <ele>576.2</ele>
        <time>2018-10-21T06:44:20Z</time>
      </trkpt>
      <trkpt lat="42.7217130" lon="-3.4485580">
        <ele>576.2</ele>
        <time>2018-10-21T06:44:21Z</time>
      </trkpt>
      <trkpt lat="42.7217700" lon="-3.4485080">
        <ele>576.2</ele>
        <time>2018-10-21T06:44:22Z</time>
      </trkpt>
      <trkpt lat="42.7218200" lon="-3.4484530">
        <ele>576.2</ele>
        <time>2018-10-21T06:44:23Z</time>
      </trkpt>
      <trkpt lat="42.7218630" lon="-3.4483950">
        <ele>576.2</ele>
        <time>2018-10-21T06:44:24Z</time>
      </trkpt>
      <trkpt lat="42.7219020" lon="-3.4483300">
        <ele>576.2</ele>
        <time>2018-10-21T06:44:25Z</time>
      </trkpt>
      <trkpt lat="42.7219320" lon="-3.4482600">
        <ele>577.3</ele>
        <time>2018-10-21T06:44:26Z</time>
      </trkpt>
      <trkpt lat="42.7219550" lon="-3.4481850">
        <ele>577.3</ele>
        <time>2018-10-21T06:44:27Z</time>
      </trkpt>
      <trkpt lat="42.7219720" lon="-3.4481130">
        <ele>577.3</ele>
        <time>2018-10-21T06:44:28Z</time>
      </trkpt>
      <trkpt lat="42.7219820" lon="-3.4480400">
        <ele>577.3</ele>
        <time>2018-10-21T06:44:29Z</time>
      </trkpt>
      <trkpt lat="42.7219880" lon="-3.4479680">
        <ele>578.2</ele>
        <time>2018-10-21T06:44:30Z</time>
      </trkpt>
      <trkpt lat="42.7219930" lon="-3.4478980">
        <ele>578.2</ele>
        <time>2018-10-21T06:44:31Z</time>
      </trkpt>
      <trkpt lat="42.7220020" lon="-3.4478280">
        <ele>578.2</ele>
        <time>2018-10-21T06:44:32Z</time>
      </trkpt>
      <trkpt lat="42.7220120" lon="-3.4477580">
        <ele>578.2</ele>
        <time>2018-10-21T06:44:33Z</time>
      </trkpt>
      <trkpt lat="42.7220200" lon="-3.4476900">
        <ele>579.3</ele>
        <time>2018-10-21T06:44:34Z</time>
      </trkpt>
      <trkpt lat="42.7220300" lon="-3.4476200">
        <ele>579.3</ele>
        <time>2018-10-21T06:44:35Z</time>
      </trkpt>
      <trkpt lat="42.7220430" lon="-3.4475520">
        <ele>579.3</ele>
        <time>2018-10-21T06:44:36Z</time>
      </trkpt>
      <trkpt lat="42.7220620" lon="-3.4474830">
        <ele>579.3</ele>
        <time>2018-10-21T06:44:37Z</time>
      </trkpt>
      <trkpt lat="42.7220830" lon="-3.4474150">
        <ele>579.3</ele>
        <time>2018-10-21T06:44:38Z</time>
      </trkpt>
      <trkpt lat="42.7221080" lon="-3.4473480">
        <ele>579.3</ele>
        <time>2018-10-21T06:44:39Z</time>
      </trkpt>
      <trkpt lat="42.7221370" lon="-3.4472830">
        <ele>579.3</ele>
        <time>2018-10-21T06:44:40Z</time>
      </trkpt>
      <trkpt lat="42.7221670" lon="-3.4472220">
        <ele>579.3</ele>
        <time>2018-10-21T06:44:41Z</time>
      </trkpt>
      <trkpt lat="42.7221970" lon="-3.4471600">
        <ele>579.3</ele>
        <time>2018-10-21T06:44:42Z</time>
      </trkpt>
      <trkpt lat="42.7222250" lon="-3.4471000">
        <ele>579.3</ele>
        <time>2018-10-21T06:44:43Z</time>
      </trkpt>
      <trkpt lat="42.7222530" lon="-3.4470400">
        <ele>579.3</ele>
        <time>2018-10-21T06:44:44Z</time>
      </trkpt>
      <trkpt lat="42.7222830" lon="-3.4469820">
        <ele>579.3</ele>
        <time>2018-10-21T06:44:45Z</time>
      </trkpt>
      <trkpt lat="42.7223130" lon="-3.4469220">
        <ele>579.3</ele>
        <time>2018-10-21T06:44:46Z</time>
      </trkpt>
      <trkpt lat="42.7223470" lon="-3.4468620">
        <ele>579.3</ele>
        <time>2018-10-21T06:44:47Z</time>
      </trkpt>
      <trkpt lat="42.7223780" lon="-3.4468000">
        <ele>579.3</ele>
        <time>2018-10-21T06:44:48Z</time>
      </trkpt>
      <trkpt lat="42.7223780" lon="-3.4468000">
        <ele>579.3</ele>
        <time>2018-10-21T06:44:49Z</time>
      </trkpt>
      <trkpt lat="42.7224450" lon="-3.4466750">
        <ele>581.3</ele>
        <time>2018-10-21T06:44:50Z</time>
      </trkpt>
      <trkpt lat="42.7224800" lon="-3.4466120">
        <ele>581.3</ele>
        <time>2018-10-21T06:44:51Z</time>
      </trkpt>
      <trkpt lat="42.7224800" lon="-3.4466120">
        <ele>581.3</ele>
        <time>2018-10-21T06:44:52Z</time>
      </trkpt>
      <trkpt lat="42.7225520" lon="-3.4464830">
        <ele>581.3</ele>
        <time>2018-10-21T06:44:53Z</time>
      </trkpt>
      <trkpt lat="42.7225520" lon="-3.4464830">
        <ele>581.3</ele>
        <time>2018-10-21T06:44:54Z</time>
      </trkpt>
      <trkpt lat="42.7226200" lon="-3.4463470">
        <ele>581.3</ele>
        <time>2018-10-21T06:44:55Z</time>
      </trkpt>
      <trkpt lat="42.7226200" lon="-3.4463470">
        <ele>581.3</ele>
        <time>2018-10-21T06:44:56Z</time>
      </trkpt>
      <trkpt lat="42.7226980" lon="-3.4462020">
        <ele>581.3</ele>
        <time>2018-10-21T06:44:57Z</time>
      </trkpt>
      <trkpt lat="42.7227370" lon="-3.4461250">
        <ele>581.3</ele>
        <time>2018-10-21T06:44:58Z</time>
      </trkpt>
      <trkpt lat="42.7227370" lon="-3.4461250">
        <ele>581.3</ele>
        <time>2018-10-21T06:44:59Z</time>
      </trkpt>
      <trkpt lat="42.7227780" lon="-3.4460470">
        <ele>580.2</ele>
        <time>2018-10-21T06:45:00Z</time>
      </trkpt>
      <trkpt lat="42.7228180" lon="-3.4459670">
        <ele>580.2</ele>
        <time>2018-10-21T06:45:01Z</time>
      </trkpt>
      <trkpt lat="42.7228600" lon="-3.4458850">
        <ele>580.2</ele>
        <time>2018-10-21T06:45:02Z</time>
      </trkpt>
      <trkpt lat="42.7229400" lon="-3.4457170">
        <ele>580.2</ele>
        <time>2018-10-21T06:45:03Z</time>
      </trkpt>
      <trkpt lat="42.7229780" lon="-3.4456330">
        <ele>579.3</ele>
        <time>2018-10-21T06:45:04Z</time>
      </trkpt>
      <trkpt lat="42.7230230" lon="-3.4455520">
        <ele>579.3</ele>
        <time>2018-10-21T06:45:05Z</time>
      </trkpt>
      <trkpt lat="42.7230730" lon="-3.4454750">
        <ele>579.3</ele>
        <time>2018-10-21T06:45:06Z</time>
      </trkpt>
      <trkpt lat="42.7231300" lon="-3.4454050">
        <ele>579.3</ele>
        <time>2018-10-21T06:45:07Z</time>
      </trkpt>
      <trkpt lat="42.7231900" lon="-3.4453380">
        <ele>578.2</ele>
        <time>2018-10-21T06:45:08Z</time>
      </trkpt>
      <trkpt lat="42.7232520" lon="-3.4452730">
        <ele>578.2</ele>
        <time>2018-10-21T06:45:09Z</time>
      </trkpt>
      <trkpt lat="42.7233170" lon="-3.4452120">
        <ele>577.3</ele>
        <time>2018-10-21T06:45:10Z</time>
      </trkpt>
      <trkpt lat="42.7233800" lon="-3.4451520">
        <ele>577.3</ele>
        <time>2018-10-21T06:45:11Z</time>
      </trkpt>
      <trkpt lat="42.7234420" lon="-3.4450850">
        <ele>576.2</ele>
        <time>2018-10-21T06:45:12Z</time>
      </trkpt>
      <trkpt lat="42.7234920" lon="-3.4450100">
        <ele>576.2</ele>
        <time>2018-10-21T06:45:13Z</time>
      </trkpt>
      <trkpt lat="42.7235300" lon="-3.4449250">
        <ele>576.2</ele>
        <time>2018-10-21T06:45:14Z</time>
      </trkpt>
      <trkpt lat="42.7235300" lon="-3.4449250">
        <ele>576.2</ele>
        <time>2018-10-21T06:45:15Z</time>
      </trkpt>
      <trkpt lat="42.7235600" lon="-3.4447420">
        <ele>576.2</ele>
        <time>2018-10-21T06:45:16Z</time>
      </trkpt>
      <trkpt lat="42.7235570" lon="-3.4446500">
        <ele>576.2</ele>
        <time>2018-10-21T06:45:17Z</time>
      </trkpt>
      <trkpt lat="42.7235570" lon="-3.4446500">
        <ele>576.2</ele>
        <time>2018-10-21T06:45:18Z</time>
      </trkpt>
      <trkpt lat="42.7235420" lon="-3.4444670">
        <ele>576.2</ele>
        <time>2018-10-21T06:45:19Z</time>
      </trkpt>
      <trkpt lat="42.7235320" lon="-3.4443730">
        <ele>576.2</ele>
        <time>2018-10-21T06:45:20Z</time>
      </trkpt>
      <trkpt lat="42.7235200" lon="-3.4442780">
        <ele>576.2</ele>
        <time>2018-10-21T06:45:21Z</time>
      </trkpt>
      <trkpt lat="42.7235200" lon="-3.4442780">
        <ele>576.2</ele>
        <time>2018-10-21T06:45:22Z</time>
      </trkpt>
      <trkpt lat="42.7235000" lon="-3.4440920">
        <ele>576.2</ele>
        <time>2018-10-21T06:45:23Z</time>
      </trkpt>
      <trkpt lat="42.7235000" lon="-3.4440920">
        <ele>576.2</ele>
        <time>2018-10-21T06:45:24Z</time>
      </trkpt>
      <trkpt lat="42.7234780" lon="-3.4439030">
        <ele>576.2</ele>
        <time>2018-10-21T06:45:25Z</time>
      </trkpt>
      <trkpt lat="42.7234680" lon="-3.4438100">
        <ele>576.2</ele>
        <time>2018-10-21T06:45:26Z</time>
      </trkpt>
      <trkpt lat="42.7234680" lon="-3.4438100">
        <ele>576.2</ele>
        <time>2018-10-21T06:45:27Z</time>
      </trkpt>
      <trkpt lat="42.7234450" lon="-3.4436230">
        <ele>575.2</ele>
        <time>2018-10-21T06:45:28Z</time>
      </trkpt>
      <trkpt lat="42.7234330" lon="-3.4435280">
        <ele>575.2</ele>
        <time>2018-10-21T06:45:29Z</time>
      </trkpt>
      <trkpt lat="42.7234330" lon="-3.4435280">
        <ele>575.2</ele>
        <time>2018-10-21T06:45:30Z</time>
      </trkpt>
      <trkpt lat="42.7234070" lon="-3.4433370">
        <ele>575.2</ele>
        <time>2018-10-21T06:45:31Z</time>
      </trkpt>
      <trkpt lat="42.7233950" lon="-3.4432420">
        <ele>575.2</ele>
        <time>2018-10-21T06:45:32Z</time>
      </trkpt>
      <trkpt lat="42.7233850" lon="-3.4431470">
        <ele>575.2</ele>
        <time>2018-10-21T06:45:33Z</time>
      </trkpt>
      <trkpt lat="42.7233750" lon="-3.4430530">
        <ele>575.2</ele>
        <time>2018-10-21T06:45:34Z</time>
      </trkpt>
      <trkpt lat="42.7233620" lon="-3.4429620">
        <ele>575.2</ele>
        <time>2018-10-21T06:45:35Z</time>
      </trkpt>
      <trkpt lat="42.7233500" lon="-3.4428720">
        <ele>575.2</ele>
        <time>2018-10-21T06:45:36Z</time>
      </trkpt>
      <trkpt lat="42.7233380" lon="-3.4427830">
        <ele>575.2</ele>
        <time>2018-10-21T06:45:37Z</time>
      </trkpt>
      <trkpt lat="42.7233300" lon="-3.4426930">
        <ele>575.2</ele>
        <time>2018-10-21T06:45:38Z</time>
      </trkpt>
      <trkpt lat="42.7233300" lon="-3.4426930">
        <ele>575.2</ele>
        <time>2018-10-21T06:45:39Z</time>
      </trkpt>
      <trkpt lat="42.7233130" lon="-3.4425200">
        <ele>575.2</ele>
        <time>2018-10-21T06:45:40Z</time>
      </trkpt>
      <trkpt lat="42.7233020" lon="-3.4424370">
        <ele>575.2</ele>
        <time>2018-10-21T06:45:41Z</time>
      </trkpt>
      <trkpt lat="42.7233020" lon="-3.4424370">
        <ele>575.2</ele>
        <time>2018-10-21T06:45:42Z</time>
      </trkpt>
      <trkpt lat="42.7232780" lon="-3.4422800">
        <ele>575.2</ele>
        <time>2018-10-21T06:45:43Z</time>
      </trkpt>
      <trkpt lat="42.7232670" lon="-3.4422050">
        <ele>575.2</ele>
        <time>2018-10-21T06:45:44Z</time>
      </trkpt>
      <trkpt lat="42.7232670" lon="-3.4422050">
        <ele>575.2</ele>
        <time>2018-10-21T06:45:45Z</time>
      </trkpt>
      <trkpt lat="42.7232500" lon="-3.4420830">
        <ele>575.2</ele>
        <time>2018-10-21T06:45:46Z</time>
      </trkpt>
      <trkpt lat="42.7232500" lon="-3.4420830">
        <ele>575.2</ele>
        <time>2018-10-21T06:45:47Z</time>
      </trkpt>
      <trkpt lat="42.7232620" lon="-3.4419730">
        <ele>575.2</ele>
        <time>2018-10-21T06:45:48Z</time>
      </trkpt>
      <trkpt lat="42.7232900" lon="-3.4419220">
        <ele>575.2</ele>
        <time>2018-10-21T06:45:49Z</time>
      </trkpt>
      <trkpt lat="42.7232900" lon="-3.4419220">
        <ele>575.2</ele>
        <time>2018-10-21T06:45:50Z</time>
      </trkpt>
      <trkpt lat="42.7233330" lon="-3.4418820">
        <ele>575.2</ele>
        <time>2018-10-21T06:45:51Z</time>
      </trkpt>
      <trkpt lat="42.7233820" lon="-3.4418450">
        <ele>575.2</ele>
        <time>2018-10-21T06:45:52Z</time>
      </trkpt>
      <trkpt lat="42.7234350" lon="-3.4418120">
        <ele>575.2</ele>
        <time>2018-10-21T06:45:53Z</time>
      </trkpt>
      <trkpt lat="42.7235500" lon="-3.4417380">
        <ele>575.2</ele>
        <time>2018-10-21T06:45:54Z</time>
      </trkpt>
      <trkpt lat="42.7236080" lon="-3.4417050">
        <ele>575.2</ele>
        <time>2018-10-21T06:45:55Z</time>
      </trkpt>
      <trkpt lat="42.7236650" lon="-3.4416750">
        <ele>574.3</ele>
        <time>2018-10-21T06:45:56Z</time>
      </trkpt>
      <trkpt lat="42.7237230" lon="-3.4416380">
        <ele>574.3</ele>
        <time>2018-10-21T06:45:57Z</time>
      </trkpt>
      <trkpt lat="42.7237820" lon="-3.4416030">
        <ele>573.2</ele>
        <time>2018-10-21T06:45:58Z</time>
      </trkpt>
      <trkpt lat="42.7237820" lon="-3.4416030">
        <ele>573.2</ele>
        <time>2018-10-21T06:45:59Z</time>
      </trkpt>
      <trkpt lat="42.7239020" lon="-3.4415370">
        <ele>573.2</ele>
        <time>2018-10-21T06:46:00Z</time>
      </trkpt>
      <trkpt lat="42.7239620" lon="-3.4415020">
        <ele>573.2</ele>
        <time>2018-10-21T06:46:01Z</time>
      </trkpt>
      <trkpt lat="42.7240220" lon="-3.4414670">
        <ele>573.2</ele>
        <time>2018-10-21T06:46:02Z</time>
      </trkpt>
      <trkpt lat="42.7240820" lon="-3.4414330">
        <ele>573.2</ele>
        <time>2018-10-21T06:46:03Z</time>
      </trkpt>
      <trkpt lat="42.7240820" lon="-3.4414330">
        <ele>572.3</ele>
        <time>2018-10-21T06:46:04Z</time>
      </trkpt>
      <trkpt lat="42.7241420" lon="-3.4413970">
        <ele>572.3</ele>
        <time>2018-10-21T06:46:05Z</time>
      </trkpt>
      <trkpt lat="42.7242030" lon="-3.4413620">
        <ele>572.3</ele>
        <time>2018-10-21T06:46:06Z</time>
      </trkpt>
      <trkpt lat="42.7242650" lon="-3.4413230">
        <ele>572.3</ele>
        <time>2018-10-21T06:46:07Z</time>
      </trkpt>
      <trkpt lat="42.7243870" lon="-3.4412530">
        <ele>572.3</ele>
        <time>2018-10-21T06:46:08Z</time>
      </trkpt>
      <trkpt lat="42.7243870" lon="-3.4412530">
        <ele>572.3</ele>
        <time>2018-10-21T06:46:09Z</time>
      </trkpt>
      <trkpt lat="42.7245080" lon="-3.4411820">
        <ele>572.3</ele>
        <time>2018-10-21T06:46:10Z</time>
      </trkpt>
      <trkpt lat="42.7245700" lon="-3.4411480">
        <ele>572.3</ele>
        <time>2018-10-21T06:46:11Z</time>
      </trkpt>
      <trkpt lat="42.7245700" lon="-3.4411480">
        <ele>572.3</ele>
        <time>2018-10-21T06:46:12Z</time>
      </trkpt>
      <trkpt lat="42.7246930" lon="-3.4410820">
        <ele>572.3</ele>
        <time>2018-10-21T06:46:13Z</time>
      </trkpt>
      <trkpt lat="42.7246930" lon="-3.4410820">
        <ele>572.3</ele>
        <time>2018-10-21T06:46:14Z</time>
      </trkpt>
      <trkpt lat="42.7248130" lon="-3.4410120">
        <ele>572.3</ele>
        <time>2018-10-21T06:46:15Z</time>
      </trkpt>
      <trkpt lat="42.7248730" lon="-3.4409770">
        <ele>572.3</ele>
        <time>2018-10-21T06:46:16Z</time>
      </trkpt>
      <trkpt lat="42.7248730" lon="-3.4409770">
        <ele>572.3</ele>
        <time>2018-10-21T06:46:17Z</time>
      </trkpt>
      <trkpt lat="42.7249930" lon="-3.4409080">
        <ele>572.3</ele>
        <time>2018-10-21T06:46:18Z</time>
      </trkpt>
      <trkpt lat="42.7250520" lon="-3.4408750">
        <ele>572.3</ele>
        <time>2018-10-21T06:46:19Z</time>
      </trkpt>
      <trkpt lat="42.7250520" lon="-3.4408750">
        <ele>572.3</ele>
        <time>2018-10-21T06:46:20Z</time>
      </trkpt>
      <trkpt lat="42.7251680" lon="-3.4408050">
        <ele>572.3</ele>
        <time>2018-10-21T06:46:21Z</time>
      </trkpt>
      <trkpt lat="42.7252270" lon="-3.4407720">
        <ele>572.3</ele>
        <time>2018-10-21T06:46:22Z</time>
      </trkpt>
      <trkpt lat="42.7252270" lon="-3.4407720">
        <ele>572.3</ele>
        <time>2018-10-21T06:46:23Z</time>
      </trkpt>
      <trkpt lat="42.7253470" lon="-3.4407020">
        <ele>572.3</ele>
        <time>2018-10-21T06:46:24Z</time>
      </trkpt>
      <trkpt lat="42.7254070" lon="-3.4406650">
        <ele>572.3</ele>
        <time>2018-10-21T06:46:25Z</time>
      </trkpt>
      <trkpt lat="42.7254670" lon="-3.4406300">
        <ele>572.3</ele>
        <time>2018-10-21T06:46:26Z</time>
      </trkpt>
      <trkpt lat="42.7255300" lon="-3.4405970">
        <ele>572.3</ele>
        <time>2018-10-21T06:46:27Z</time>
      </trkpt>
      <trkpt lat="42.7255930" lon="-3.4405630">
        <ele>572.3</ele>
        <time>2018-10-21T06:46:28Z</time>
      </trkpt>
      <trkpt lat="42.7255930" lon="-3.4405630">
        <ele>572.3</ele>
        <time>2018-10-21T06:46:29Z</time>
      </trkpt>
      <trkpt lat="42.7257180" lon="-3.4404900">
        <ele>572.3</ele>
        <time>2018-10-21T06:46:30Z</time>
      </trkpt>
      <trkpt lat="42.7257800" lon="-3.4404550">
        <ele>572.3</ele>
        <time>2018-10-21T06:46:31Z</time>
      </trkpt>
      <trkpt lat="42.7258420" lon="-3.4404220">
        <ele>572.3</ele>
        <time>2018-10-21T06:46:32Z</time>
      </trkpt>
      <trkpt lat="42.7258420" lon="-3.4404220">
        <ele>572.3</ele>
        <time>2018-10-21T06:46:33Z</time>
      </trkpt>
      <trkpt lat="42.7259620" lon="-3.4403500">
        <ele>572.3</ele>
        <time>2018-10-21T06:46:34Z</time>
      </trkpt>
      <trkpt lat="42.7259620" lon="-3.4403500">
        <ele>572.3</ele>
        <time>2018-10-21T06:46:35Z</time>
      </trkpt>
      <trkpt lat="42.7260850" lon="-3.4402800">
        <ele>572.3</ele>
        <time>2018-10-21T06:46:36Z</time>
      </trkpt>
      <trkpt lat="42.7261470" lon="-3.4402450">
        <ele>572.3</ele>
        <time>2018-10-21T06:46:37Z</time>
      </trkpt>
      <trkpt lat="42.7262070" lon="-3.4402100">
        <ele>572.3</ele>
        <time>2018-10-21T06:46:38Z</time>
      </trkpt>
      <trkpt lat="42.7262070" lon="-3.4402100">
        <ele>572.3</ele>
        <time>2018-10-21T06:46:39Z</time>
      </trkpt>
      <trkpt lat="42.7262680" lon="-3.4401780">
        <ele>572.3</ele>
        <time>2018-10-21T06:46:40Z</time>
      </trkpt>
      <trkpt lat="42.7263300" lon="-3.4401450">
        <ele>572.3</ele>
        <time>2018-10-21T06:46:41Z</time>
      </trkpt>
      <trkpt lat="42.7263900" lon="-3.4401150">
        <ele>572.3</ele>
        <time>2018-10-21T06:46:42Z</time>
      </trkpt>
      <trkpt lat="42.7264520" lon="-3.4400850">
        <ele>572.3</ele>
        <time>2018-10-21T06:46:43Z</time>
      </trkpt>
      <trkpt lat="42.7265720" lon="-3.4400250">
        <ele>572.3</ele>
        <time>2018-10-21T06:46:44Z</time>
      </trkpt>
      <trkpt lat="42.7266330" lon="-3.4399970">
        <ele>572.3</ele>
        <time>2018-10-21T06:46:45Z</time>
      </trkpt>
      <trkpt lat="42.7266950" lon="-3.4399700">
        <ele>572.3</ele>
        <time>2018-10-21T06:46:46Z</time>
      </trkpt>
      <trkpt lat="42.7267550" lon="-3.4399430">
        <ele>572.3</ele>
        <time>2018-10-21T06:46:47Z</time>
      </trkpt>
      <trkpt lat="42.7268170" lon="-3.4399180">
        <ele>572.3</ele>
        <time>2018-10-21T06:46:48Z</time>
      </trkpt>
      <trkpt lat="42.7268170" lon="-3.4399180">
        <ele>572.3</ele>
        <time>2018-10-21T06:46:49Z</time>
      </trkpt>
      <trkpt lat="42.7269400" lon="-3.4398720">
        <ele>572.3</ele>
        <time>2018-10-21T06:46:50Z</time>
      </trkpt>
      <trkpt lat="42.7270020" lon="-3.4398480">
        <ele>572.3</ele>
        <time>2018-10-21T06:46:51Z</time>
      </trkpt>
      <trkpt lat="42.7270620" lon="-3.4398230">
        <ele>572.3</ele>
        <time>2018-10-21T06:46:52Z</time>
      </trkpt>
      <trkpt lat="42.7271230" lon="-3.4398020">
        <ele>572.3</ele>
        <time>2018-10-21T06:46:53Z</time>
      </trkpt>
      <trkpt lat="42.7271230" lon="-3.4398020">
        <ele>572.3</ele>
        <time>2018-10-21T06:46:54Z</time>
      </trkpt>
      <trkpt lat="42.7272470" lon="-3.4397580">
        <ele>572.3</ele>
        <time>2018-10-21T06:46:55Z</time>
      </trkpt>
      <trkpt lat="42.7272470" lon="-3.4397580">
        <ele>571.2</ele>
        <time>2018-10-21T06:46:56Z</time>
      </trkpt>
      <trkpt lat="42.7273070" lon="-3.4397400">
        <ele>571.2</ele>
        <time>2018-10-21T06:46:57Z</time>
      </trkpt>
      <trkpt lat="42.7273650" lon="-3.4397220">
        <ele>571.2</ele>
        <time>2018-10-21T06:46:58Z</time>
      </trkpt>
      <trkpt lat="42.7274870" lon="-3.4396800">
        <ele>571.2</ele>
        <time>2018-10-21T06:46:59Z</time>
      </trkpt>
      <trkpt lat="42.7274870" lon="-3.4396800">
        <ele>571.2</ele>
        <time>2018-10-21T06:47:00Z</time>
      </trkpt>
      <trkpt lat="42.7276050" lon="-3.4396430">
        <ele>571.2</ele>
        <time>2018-10-21T06:47:01Z</time>
      </trkpt>
      <trkpt lat="42.7276650" lon="-3.4396230">
        <ele>571.2</ele>
        <time>2018-10-21T06:47:02Z</time>
      </trkpt>
      <trkpt lat="42.7276650" lon="-3.4396230">
        <ele>571.2</ele>
        <time>2018-10-21T06:47:03Z</time>
      </trkpt>
      <trkpt lat="42.7277820" lon="-3.4395850">
        <ele>571.2</ele>
        <time>2018-10-21T06:47:04Z</time>
      </trkpt>
      <trkpt lat="42.7277820" lon="-3.4395850">
        <ele>571.2</ele>
        <time>2018-10-21T06:47:05Z</time>
      </trkpt>
      <trkpt lat="42.7278950" lon="-3.4395500">
        <ele>571.2</ele>
        <time>2018-10-21T06:47:06Z</time>
      </trkpt>
      <trkpt lat="42.7279500" lon="-3.4395330">
        <ele>571.2</ele>
        <time>2018-10-21T06:47:07Z</time>
      </trkpt>
      <trkpt lat="42.7279500" lon="-3.4395330">
        <ele>574.3</ele>
        <time>2018-10-21T06:47:08Z</time>
      </trkpt>
      <trkpt lat="42.7280600" lon="-3.4394970">
        <ele>574.3</ele>
        <time>2018-10-21T06:47:09Z</time>
      </trkpt>
      <trkpt lat="42.7281130" lon="-3.4394780">
        <ele>574.3</ele>
        <time>2018-10-21T06:47:10Z</time>
      </trkpt>
      <trkpt lat="42.7281130" lon="-3.4394780">
        <ele>574.3</ele>
        <time>2018-10-21T06:47:11Z</time>
      </trkpt>
      <trkpt lat="42.7282200" lon="-3.4394470">
        <ele>574.3</ele>
        <time>2018-10-21T06:47:12Z</time>
      </trkpt>
      <trkpt lat="42.7282700" lon="-3.4394320">
        <ele>574.3</ele>
        <time>2018-10-21T06:47:13Z</time>
      </trkpt>
      <trkpt lat="42.7282700" lon="-3.4394320">
        <ele>574.3</ele>
        <time>2018-10-21T06:47:14Z</time>
      </trkpt>
      <trkpt lat="42.7283750" lon="-3.4393980">
        <ele>574.3</ele>
        <time>2018-10-21T06:47:15Z</time>
      </trkpt>
      <trkpt lat="42.7284270" lon="-3.4393830">
        <ele>574.3</ele>
        <time>2018-10-21T06:47:16Z</time>
      </trkpt>
      <trkpt lat="42.7284780" lon="-3.4393670">
        <ele>574.3</ele>
        <time>2018-10-21T06:47:17Z</time>
      </trkpt>
      <trkpt lat="42.7285300" lon="-3.4393470">
        <ele>574.3</ele>
        <time>2018-10-21T06:47:18Z</time>
      </trkpt>
      <trkpt lat="42.7285800" lon="-3.4393280">
        <ele>574.3</ele>
        <time>2018-10-21T06:47:19Z</time>
      </trkpt>
      <trkpt lat="42.7285800" lon="-3.4393280">
        <ele>574.3</ele>
        <time>2018-10-21T06:47:20Z</time>
      </trkpt>
      <trkpt lat="42.7286800" lon="-3.4392980">
        <ele>574.3</ele>
        <time>2018-10-21T06:47:21Z</time>
      </trkpt>
      <trkpt lat="42.7287280" lon="-3.4392800">
        <ele>575.2</ele>
        <time>2018-10-21T06:47:22Z</time>
      </trkpt>
      <trkpt lat="42.7287780" lon="-3.4392630">
        <ele>575.2</ele>
        <time>2018-10-21T06:47:23Z</time>
      </trkpt>
      <trkpt lat="42.7287780" lon="-3.4392630">
        <ele>575.2</ele>
        <time>2018-10-21T06:47:24Z</time>
      </trkpt>
      <trkpt lat="42.7288820" lon="-3.4392280">
        <ele>575.2</ele>
        <time>2018-10-21T06:47:25Z</time>
      </trkpt>
      <trkpt lat="42.7288820" lon="-3.4392280">
        <ele>575.2</ele>
        <time>2018-10-21T06:47:26Z</time>
      </trkpt>
      <trkpt lat="42.7289850" lon="-3.4391920">
        <ele>575.2</ele>
        <time>2018-10-21T06:47:27Z</time>
      </trkpt>
      <trkpt lat="42.7290370" lon="-3.4391750">
        <ele>575.2</ele>
        <time>2018-10-21T06:47:28Z</time>
      </trkpt>
      <trkpt lat="42.7290900" lon="-3.4391550">
        <ele>575.2</ele>
        <time>2018-10-21T06:47:29Z</time>
      </trkpt>
      <trkpt lat="42.7291430" lon="-3.4391330">
        <ele>575.2</ele>
        <time>2018-10-21T06:47:30Z</time>
      </trkpt>
      <trkpt lat="42.7291430" lon="-3.4391330">
        <ele>575.2</ele>
        <time>2018-10-21T06:47:31Z</time>
      </trkpt>
      <trkpt lat="42.7291970" lon="-3.4391100">
        <ele>576.2</ele>
        <time>2018-10-21T06:47:32Z</time>
      </trkpt>
      <trkpt lat="42.7292520" lon="-3.4390900">
        <ele>576.2</ele>
        <time>2018-10-21T06:47:33Z</time>
      </trkpt>
      <trkpt lat="42.7293070" lon="-3.4390700">
        <ele>576.2</ele>
        <time>2018-10-21T06:47:34Z</time>
      </trkpt>
      <trkpt lat="42.7294150" lon="-3.4390250">
        <ele>576.2</ele>
        <time>2018-10-21T06:47:35Z</time>
      </trkpt>
      <trkpt lat="42.7294150" lon="-3.4390250">
        <ele>576.2</ele>
        <time>2018-10-21T06:47:36Z</time>
      </trkpt>
      <trkpt lat="42.7295230" lon="-3.4389780">
        <ele>576.2</ele>
        <time>2018-10-21T06:47:37Z</time>
      </trkpt>
      <trkpt lat="42.7295800" lon="-3.4389570">
        <ele>576.2</ele>
        <time>2018-10-21T06:47:38Z</time>
      </trkpt>
      <trkpt lat="42.7295800" lon="-3.4389570">
        <ele>576.2</ele>
        <time>2018-10-21T06:47:39Z</time>
      </trkpt>
      <trkpt lat="42.7296930" lon="-3.4389030">
        <ele>576.2</ele>
        <time>2018-10-21T06:47:40Z</time>
      </trkpt>
      <trkpt lat="42.7297520" lon="-3.4388750">
        <ele>576.2</ele>
        <time>2018-10-21T06:47:41Z</time>
      </trkpt>
      <trkpt lat="42.7298100" lon="-3.4388480">
        <ele>576.2</ele>
        <time>2018-10-21T06:47:42Z</time>
      </trkpt>
      <trkpt lat="42.7298680" lon="-3.4388220">
        <ele>576.2</ele>
        <time>2018-10-21T06:47:43Z</time>
      </trkpt>
      <trkpt lat="42.7298680" lon="-3.4388220">
        <ele>576.2</ele>
        <time>2018-10-21T06:47:44Z</time>
      </trkpt>
      <trkpt lat="42.7299830" lon="-3.4387630">
        <ele>576.2</ele>
        <time>2018-10-21T06:47:45Z</time>
      </trkpt>
      <trkpt lat="42.7299830" lon="-3.4387630">
        <ele>576.2</ele>
        <time>2018-10-21T06:47:46Z</time>
      </trkpt>
      <trkpt lat="42.7300420" lon="-3.4387350">
        <ele>576.2</ele>
        <time>2018-10-21T06:47:47Z</time>
      </trkpt>
      <trkpt lat="42.7300980" lon="-3.4387070">
        <ele>576.2</ele>
        <time>2018-10-21T06:47:48Z</time>
      </trkpt>
      <trkpt lat="42.7302120" lon="-3.4386430">
        <ele>576.2</ele>
        <time>2018-10-21T06:47:49Z</time>
      </trkpt>
      <trkpt lat="42.7302120" lon="-3.4386430">
        <ele>576.2</ele>
        <time>2018-10-21T06:47:50Z</time>
      </trkpt>
      <trkpt lat="42.7303200" lon="-3.4385780">
        <ele>576.2</ele>
        <time>2018-10-21T06:47:51Z</time>
      </trkpt>
      <trkpt lat="42.7303730" lon="-3.4385430">
        <ele>577.3</ele>
        <time>2018-10-21T06:47:52Z</time>
      </trkpt>
      <trkpt lat="42.7303730" lon="-3.4385430">
        <ele>577.3</ele>
        <time>2018-10-21T06:47:53Z</time>
      </trkpt>
      <trkpt lat="42.7304780" lon="-3.4384770">
        <ele>577.3</ele>
        <time>2018-10-21T06:47:54Z</time>
      </trkpt>
      <trkpt lat="42.7304780" lon="-3.4384770">
        <ele>577.3</ele>
        <time>2018-10-21T06:47:55Z</time>
      </trkpt>
      <trkpt lat="42.7305800" lon="-3.4384080">
        <ele>577.3</ele>
        <time>2018-10-21T06:47:56Z</time>
      </trkpt>
      <trkpt lat="42.7306320" lon="-3.4383750">
        <ele>577.3</ele>
        <time>2018-10-21T06:47:57Z</time>
      </trkpt>
      <trkpt lat="42.7306830" lon="-3.4383400">
        <ele>578.2</ele>
        <time>2018-10-21T06:47:58Z</time>
      </trkpt>
      <trkpt lat="42.7306830" lon="-3.4383400">
        <ele>578.2</ele>
        <time>2018-10-21T06:47:59Z</time>
      </trkpt>
      <trkpt lat="42.7307830" lon="-3.4382700">
        <ele>578.2</ele>
        <time>2018-10-21T06:48:00Z</time>
      </trkpt>
      <trkpt lat="42.7308350" lon="-3.4382350">
        <ele>578.2</ele>
        <time>2018-10-21T06:48:01Z</time>
      </trkpt>
      <trkpt lat="42.7308350" lon="-3.4382350">
        <ele>579.3</ele>
        <time>2018-10-21T06:48:02Z</time>
      </trkpt>
      <trkpt lat="42.7309350" lon="-3.4381580">
        <ele>579.3</ele>
        <time>2018-10-21T06:48:03Z</time>
      </trkpt>
      <trkpt lat="42.7309350" lon="-3.4381580">
        <ele>579.3</ele>
        <time>2018-10-21T06:48:04Z</time>
      </trkpt>
      <trkpt lat="42.7310330" lon="-3.4380830">
        <ele>579.3</ele>
        <time>2018-10-21T06:48:05Z</time>
      </trkpt>
      <trkpt lat="42.7310820" lon="-3.4380450">
        <ele>579.3</ele>
        <time>2018-10-21T06:48:06Z</time>
      </trkpt>
      <trkpt lat="42.7311300" lon="-3.4380070">
        <ele>579.3</ele>
        <time>2018-10-21T06:48:07Z</time>
      </trkpt>
      <trkpt lat="42.7311800" lon="-3.4379650">
        <ele>580.2</ele>
        <time>2018-10-21T06:48:08Z</time>
      </trkpt>
      <trkpt lat="42.7312300" lon="-3.4379230">
        <ele>580.2</ele>
        <time>2018-10-21T06:48:09Z</time>
      </trkpt>
      <trkpt lat="42.7312800" lon="-3.4378830">
        <ele>580.2</ele>
        <time>2018-10-21T06:48:10Z</time>
      </trkpt>
      <trkpt lat="42.7312800" lon="-3.4378830">
        <ele>580.2</ele>
        <time>2018-10-21T06:48:11Z</time>
      </trkpt>
      <trkpt lat="42.7313800" lon="-3.4378000">
        <ele>580.2</ele>
        <time>2018-10-21T06:48:12Z</time>
      </trkpt>
      <trkpt lat="42.7314300" lon="-3.4377550">
        <ele>580.2</ele>
        <time>2018-10-21T06:48:13Z</time>
      </trkpt>
      <trkpt lat="42.7314800" lon="-3.4377100">
        <ele>580.2</ele>
        <time>2018-10-21T06:48:14Z</time>
      </trkpt>
      <trkpt lat="42.7314800" lon="-3.4377100">
        <ele>580.2</ele>
        <time>2018-10-21T06:48:15Z</time>
      </trkpt>
      <trkpt lat="42.7315800" lon="-3.4376170">
        <ele>580.2</ele>
        <time>2018-10-21T06:48:16Z</time>
      </trkpt>
      <trkpt lat="42.7315800" lon="-3.4376170">
        <ele>580.2</ele>
        <time>2018-10-21T06:48:17Z</time>
      </trkpt>
      <trkpt lat="42.7316800" lon="-3.4375250">
        <ele>580.2</ele>
        <time>2018-10-21T06:48:18Z</time>
      </trkpt>
      <trkpt lat="42.7317300" lon="-3.4374730">
        <ele>580.2</ele>
        <time>2018-10-21T06:48:19Z</time>
      </trkpt>
      <trkpt lat="42.7317800" lon="-3.4374250">
        <ele>579.3</ele>
        <time>2018-10-21T06:48:20Z</time>
      </trkpt>
      <trkpt lat="42.7318320" lon="-3.4373750">
        <ele>579.3</ele>
        <time>2018-10-21T06:48:21Z</time>
      </trkpt>
      <trkpt lat="42.7318320" lon="-3.4373750">
        <ele>579.3</ele>
        <time>2018-10-21T06:48:22Z</time>
      </trkpt>
      <trkpt lat="42.7318830" lon="-3.4373270">
        <ele>579.3</ele>
        <time>2018-10-21T06:48:23Z</time>
      </trkpt>
      <trkpt lat="42.7319330" lon="-3.4372730">
        <ele>579.3</ele>
        <time>2018-10-21T06:48:24Z</time>
      </trkpt>
      <trkpt lat="42.7319830" lon="-3.4372200">
        <ele>579.3</ele>
        <time>2018-10-21T06:48:25Z</time>
      </trkpt>
      <trkpt lat="42.7320870" lon="-3.4371100">
        <ele>579.3</ele>
        <time>2018-10-21T06:48:26Z</time>
      </trkpt>
      <trkpt lat="42.7320870" lon="-3.4371100">
        <ele>579.3</ele>
        <time>2018-10-21T06:48:27Z</time>
      </trkpt>
      <trkpt lat="42.7321900" lon="-3.4369950">
        <ele>579.3</ele>
        <time>2018-10-21T06:48:28Z</time>
      </trkpt>
      <trkpt lat="42.7322420" lon="-3.4369380">
        <ele>579.3</ele>
        <time>2018-10-21T06:48:29Z</time>
      </trkpt>
      <trkpt lat="42.7322420" lon="-3.4369380">
        <ele>579.3</ele>
        <time>2018-10-21T06:48:30Z</time>
      </trkpt>
      <trkpt lat="42.7323450" lon="-3.4368220">
        <ele>579.3</ele>
        <time>2018-10-21T06:48:31Z</time>
      </trkpt>
      <trkpt lat="42.7323970" lon="-3.4367620">
        <ele>579.3</ele>
        <time>2018-10-21T06:48:32Z</time>
      </trkpt>
      <trkpt lat="42.7324480" lon="-3.4367020">
        <ele>579.3</ele>
        <time>2018-10-21T06:48:33Z</time>
      </trkpt>
      <trkpt lat="42.7324980" lon="-3.4366400">
        <ele>578.2</ele>
        <time>2018-10-21T06:48:34Z</time>
      </trkpt>
      <trkpt lat="42.7324980" lon="-3.4366400">
        <ele>578.2</ele>
        <time>2018-10-21T06:48:35Z</time>
      </trkpt>
      <trkpt lat="42.7326020" lon="-3.4365200">
        <ele>578.2</ele>
        <time>2018-10-21T06:48:36Z</time>
      </trkpt>
      <trkpt lat="42.7326020" lon="-3.4365200">
        <ele>578.2</ele>
        <time>2018-10-21T06:48:37Z</time>
      </trkpt>
      <trkpt lat="42.7326530" lon="-3.4364580">
        <ele>578.2</ele>
        <time>2018-10-21T06:48:38Z</time>
      </trkpt>
      <trkpt lat="42.7327050" lon="-3.4363980">
        <ele>578.2</ele>
        <time>2018-10-21T06:48:39Z</time>
      </trkpt>
      <trkpt lat="42.7327550" lon="-3.4363380">
        <ele>578.2</ele>
        <time>2018-10-21T06:48:40Z</time>
      </trkpt>
      <trkpt lat="42.7328570" lon="-3.4362180">
        <ele>578.2</ele>
        <time>2018-10-21T06:48:41Z</time>
      </trkpt>
      <trkpt lat="42.7329050" lon="-3.4361580">
        <ele>578.2</ele>
        <time>2018-10-21T06:48:42Z</time>
      </trkpt>
      <trkpt lat="42.7329550" lon="-3.4361020">
        <ele>578.2</ele>
        <time>2018-10-21T06:48:43Z</time>
      </trkpt>
      <trkpt lat="42.7329550" lon="-3.4361020">
        <ele>578.2</ele>
        <time>2018-10-21T06:48:44Z</time>
      </trkpt>
      <trkpt lat="42.7330550" lon="-3.4359820">
        <ele>578.2</ele>
        <time>2018-10-21T06:48:45Z</time>
      </trkpt>
      <trkpt lat="42.7330550" lon="-3.4359820">
        <ele>578.2</ele>
        <time>2018-10-21T06:48:46Z</time>
      </trkpt>
      <trkpt lat="42.7331570" lon="-3.4358630">
        <ele>578.2</ele>
        <time>2018-10-21T06:48:47Z</time>
      </trkpt>
      <trkpt lat="42.7332070" lon="-3.4358030">
        <ele>577.3</ele>
        <time>2018-10-21T06:48:48Z</time>
      </trkpt>
      <trkpt lat="42.7332550" lon="-3.4357430">
        <ele>577.3</ele>
        <time>2018-10-21T06:48:49Z</time>
      </trkpt>
      <trkpt lat="42.7332550" lon="-3.4357430">
        <ele>577.3</ele>
        <time>2018-10-21T06:48:50Z</time>
      </trkpt>
      <trkpt lat="42.7333580" lon="-3.4356250">
        <ele>577.3</ele>
        <time>2018-10-21T06:48:51Z</time>
      </trkpt>
      <trkpt lat="42.7333580" lon="-3.4356250">
        <ele>577.3</ele>
        <time>2018-10-21T06:48:52Z</time>
      </trkpt>
      <trkpt lat="42.7334600" lon="-3.4355030">
        <ele>577.3</ele>
        <time>2018-10-21T06:48:53Z</time>
      </trkpt>
      <trkpt lat="42.7335120" lon="-3.4354430">
        <ele>577.3</ele>
        <time>2018-10-21T06:48:54Z</time>
      </trkpt>
      <trkpt lat="42.7335120" lon="-3.4354430">
        <ele>577.3</ele>
        <time>2018-10-21T06:48:55Z</time>
      </trkpt>
      <trkpt lat="42.7336170" lon="-3.4353230">
        <ele>577.3</ele>
        <time>2018-10-21T06:48:56Z</time>
      </trkpt>
      <trkpt lat="42.7336700" lon="-3.4352620">
        <ele>577.3</ele>
        <time>2018-10-21T06:48:57Z</time>
      </trkpt>
      <trkpt lat="42.7337230" lon="-3.4351970">
        <ele>576.2</ele>
        <time>2018-10-21T06:48:58Z</time>
      </trkpt>
      <trkpt lat="42.7337770" lon="-3.4351330">
        <ele>576.2</ele>
        <time>2018-10-21T06:48:59Z</time>
      </trkpt>
      <trkpt lat="42.7338330" lon="-3.4350680">
        <ele>576.2</ele>
        <time>2018-10-21T06:49:00Z</time>
      </trkpt>
      <trkpt lat="42.7338880" lon="-3.4350030">
        <ele>576.2</ele>
        <time>2018-10-21T06:49:01Z</time>
      </trkpt>
      <trkpt lat="42.7338880" lon="-3.4350030">
        <ele>575.2</ele>
        <time>2018-10-21T06:49:02Z</time>
      </trkpt>
      <trkpt lat="42.7340050" lon="-3.4348680">
        <ele>575.2</ele>
        <time>2018-10-21T06:49:03Z</time>
      </trkpt>
      <trkpt lat="42.7340630" lon="-3.4348000">
        <ele>575.2</ele>
        <time>2018-10-21T06:49:04Z</time>
      </trkpt>
      <trkpt lat="42.7341230" lon="-3.4347330">
        <ele>575.2</ele>
        <time>2018-10-21T06:49:05Z</time>
      </trkpt>
      <trkpt lat="42.7341230" lon="-3.4347330">
        <ele>575.2</ele>
        <time>2018-10-21T06:49:06Z</time>
      </trkpt>
      <trkpt lat="42.7342400" lon="-3.4345970">
        <ele>575.2</ele>
        <time>2018-10-21T06:49:07Z</time>
      </trkpt>
      <trkpt lat="42.7342400" lon="-3.4345970">
        <ele>574.3</ele>
        <time>2018-10-21T06:49:08Z</time>
      </trkpt>
      <trkpt lat="42.7343570" lon="-3.4344580">
        <ele>574.3</ele>
        <time>2018-10-21T06:49:09Z</time>
      </trkpt>
      <trkpt lat="42.7344150" lon="-3.4343900">
        <ele>574.3</ele>
        <time>2018-10-21T06:49:10Z</time>
      </trkpt>
      <trkpt lat="42.7344720" lon="-3.4343200">
        <ele>574.3</ele>
        <time>2018-10-21T06:49:11Z</time>
      </trkpt>
      <trkpt lat="42.7344720" lon="-3.4343200">
        <ele>574.3</ele>
        <time>2018-10-21T06:49:12Z</time>
      </trkpt>
      <trkpt lat="42.7345830" lon="-3.4341830">
        <ele>574.3</ele>
        <time>2018-10-21T06:49:13Z</time>
      </trkpt>
      <trkpt lat="42.7345830" lon="-3.4341830">
        <ele>573.2</ele>
        <time>2018-10-21T06:49:14Z</time>
      </trkpt>
      <trkpt lat="42.7346380" lon="-3.4341130">
        <ele>573.2</ele>
        <time>2018-10-21T06:49:15Z</time>
      </trkpt>
      <trkpt lat="42.7346930" lon="-3.4340450">
        <ele>573.2</ele>
        <time>2018-10-21T06:49:16Z</time>
      </trkpt>
      <trkpt lat="42.7347970" lon="-3.4339020">
        <ele>573.2</ele>
        <time>2018-10-21T06:49:17Z</time>
      </trkpt>
      <trkpt lat="42.7347970" lon="-3.4339020">
        <ele>573.2</ele>
        <time>2018-10-21T06:49:18Z</time>
      </trkpt>
      <trkpt lat="42.7348920" lon="-3.4337500">
        <ele>573.2</ele>
        <time>2018-10-21T06:49:19Z</time>
      </trkpt>
      <trkpt lat="42.7349370" lon="-3.4336730">
        <ele>573.2</ele>
        <time>2018-10-21T06:49:20Z</time>
      </trkpt>
      <trkpt lat="42.7349370" lon="-3.4336730">
        <ele>573.2</ele>
        <time>2018-10-21T06:49:21Z</time>
      </trkpt>
      <trkpt lat="42.7350220" lon="-3.4335180">
        <ele>572.3</ele>
        <time>2018-10-21T06:49:22Z</time>
      </trkpt>
      <trkpt lat="42.7350600" lon="-3.4334370">
        <ele>572.3</ele>
        <time>2018-10-21T06:49:23Z</time>
      </trkpt>
      <trkpt lat="42.7350950" lon="-3.4333550">
        <ele>572.3</ele>
        <time>2018-10-21T06:49:24Z</time>
      </trkpt>
      <trkpt lat="42.7351300" lon="-3.4332730">
        <ele>572.3</ele>
        <time>2018-10-21T06:49:25Z</time>
      </trkpt>
      <trkpt lat="42.7351300" lon="-3.4332730">
        <ele>572.3</ele>
        <time>2018-10-21T06:49:26Z</time>
      </trkpt>
      <trkpt lat="42.7351930" lon="-3.4331120">
        <ele>572.3</ele>
        <time>2018-10-21T06:49:27Z</time>
      </trkpt>
      <trkpt lat="42.7351930" lon="-3.4331120">
        <ele>572.3</ele>
        <time>2018-10-21T06:49:28Z</time>
      </trkpt>
      <trkpt lat="42.7352220" lon="-3.4330280">
        <ele>572.3</ele>
        <time>2018-10-21T06:49:29Z</time>
      </trkpt>
      <trkpt lat="42.7352470" lon="-3.4329450">
        <ele>572.3</ele>
        <time>2018-10-21T06:49:30Z</time>
      </trkpt>
      <trkpt lat="42.7352730" lon="-3.4328630">
        <ele>572.3</ele>
        <time>2018-10-21T06:49:31Z</time>
      </trkpt>
      <trkpt lat="42.7353170" lon="-3.4326980">
        <ele>572.3</ele>
        <time>2018-10-21T06:49:32Z</time>
      </trkpt>
      <trkpt lat="42.7353370" lon="-3.4326170">
        <ele>572.3</ele>
        <time>2018-10-21T06:49:33Z</time>
      </trkpt>
      <trkpt lat="42.7353530" lon="-3.4325330">
        <ele>572.3</ele>
        <time>2018-10-21T06:49:34Z</time>
      </trkpt>
      <trkpt lat="42.7353530" lon="-3.4325330">
        <ele>572.3</ele>
        <time>2018-10-21T06:49:35Z</time>
      </trkpt>
      <trkpt lat="42.7353680" lon="-3.4324520">
        <ele>572.3</ele>
        <time>2018-10-21T06:49:36Z</time>
      </trkpt>
      <trkpt lat="42.7353920" lon="-3.4322900">
        <ele>572.3</ele>
        <time>2018-10-21T06:49:37Z</time>
      </trkpt>
      <trkpt lat="42.7354020" lon="-3.4322100">
        <ele>572.3</ele>
        <time>2018-10-21T06:49:38Z</time>
      </trkpt>
      <trkpt lat="42.7354120" lon="-3.4321300">
        <ele>572.3</ele>
        <time>2018-10-21T06:49:39Z</time>
      </trkpt>
      <trkpt lat="42.7354120" lon="-3.4321300">
        <ele>572.3</ele>
        <time>2018-10-21T06:49:40Z</time>
      </trkpt>
      <trkpt lat="42.7354200" lon="-3.4319700">
        <ele>572.3</ele>
        <time>2018-10-21T06:49:41Z</time>
      </trkpt>
      <trkpt lat="42.7354200" lon="-3.4319700">
        <ele>572.3</ele>
        <time>2018-10-21T06:49:42Z</time>
      </trkpt>
      <trkpt lat="42.7354230" lon="-3.4318120">
        <ele>572.3</ele>
        <time>2018-10-21T06:49:43Z</time>
      </trkpt>
      <trkpt lat="42.7354230" lon="-3.4317350">
        <ele>572.3</ele>
        <time>2018-10-21T06:49:44Z</time>
      </trkpt>
      <trkpt lat="42.7354230" lon="-3.4317350">
        <ele>572.3</ele>
        <time>2018-10-21T06:49:45Z</time>
      </trkpt>
      <trkpt lat="42.7354200" lon="-3.4315820">
        <ele>573.2</ele>
        <time>2018-10-21T06:49:46Z</time>
      </trkpt>
      <trkpt lat="42.7354180" lon="-3.4315070">
        <ele>573.2</ele>
        <time>2018-10-21T06:49:47Z</time>
      </trkpt>
      <trkpt lat="42.7354130" lon="-3.4314320">
        <ele>574.3</ele>
        <time>2018-10-21T06:49:48Z</time>
      </trkpt>
      <trkpt lat="42.7354070" lon="-3.4313580">
        <ele>574.3</ele>
        <time>2018-10-21T06:49:49Z</time>
      </trkpt>
      <trkpt lat="42.7354000" lon="-3.4312830">
        <ele>574.3</ele>
        <time>2018-10-21T06:49:50Z</time>
      </trkpt>
      <trkpt lat="42.7353930" lon="-3.4312080">
        <ele>574.3</ele>
        <time>2018-10-21T06:49:51Z</time>
      </trkpt>
      <trkpt lat="42.7353830" lon="-3.4311330">
        <ele>574.3</ele>
        <time>2018-10-21T06:49:52Z</time>
      </trkpt>
      <trkpt lat="42.7353830" lon="-3.4311330">
        <ele>574.3</ele>
        <time>2018-10-21T06:49:53Z</time>
      </trkpt>
      <trkpt lat="42.7353580" lon="-3.4309870">
        <ele>575.2</ele>
        <time>2018-10-21T06:49:54Z</time>
      </trkpt>
      <trkpt lat="42.7353430" lon="-3.4309130">
        <ele>575.2</ele>
        <time>2018-10-21T06:49:55Z</time>
      </trkpt>
      <trkpt lat="42.7353300" lon="-3.4308400">
        <ele>575.2</ele>
        <time>2018-10-21T06:49:56Z</time>
      </trkpt>
      <trkpt lat="42.7353300" lon="-3.4308400">
        <ele>575.2</ele>
        <time>2018-10-21T06:49:57Z</time>
      </trkpt>
      <trkpt lat="42.7353150" lon="-3.4307680">
        <ele>576.2</ele>
        <time>2018-10-21T06:49:58Z</time>
      </trkpt>
      <trkpt lat="42.7352830" lon="-3.4306220">
        <ele>576.2</ele>
        <time>2018-10-21T06:49:59Z</time>
      </trkpt>
      <trkpt lat="42.7352630" lon="-3.4305480">
        <ele>576.2</ele>
        <time>2018-10-21T06:50:00Z</time>
      </trkpt>
      <trkpt lat="42.7352430" lon="-3.4304750">
        <ele>576.2</ele>
        <time>2018-10-21T06:50:01Z</time>
      </trkpt>
      <trkpt lat="42.7352250" lon="-3.4304020">
        <ele>576.2</ele>
        <time>2018-10-21T06:50:02Z</time>
      </trkpt>
      <trkpt lat="42.7352250" lon="-3.4304020">
        <ele>576.2</ele>
        <time>2018-10-21T06:50:03Z</time>
      </trkpt>
      <trkpt lat="42.7351870" lon="-3.4302530">
        <ele>576.2</ele>
        <time>2018-10-21T06:50:04Z</time>
      </trkpt>
      <trkpt lat="42.7351870" lon="-3.4302530">
        <ele>576.2</ele>
        <time>2018-10-21T06:50:05Z</time>
      </trkpt>
      <trkpt lat="42.7351670" lon="-3.4301820">
        <ele>576.2</ele>
        <time>2018-10-21T06:50:06Z</time>
      </trkpt>
      <trkpt lat="42.7351470" lon="-3.4301100">
        <ele>576.2</ele>
        <time>2018-10-21T06:50:07Z</time>
      </trkpt>
      <trkpt lat="42.7351100" lon="-3.4299650">
        <ele>576.2</ele>
        <time>2018-10-21T06:50:08Z</time>
      </trkpt>
      <trkpt lat="42.7351100" lon="-3.4299650">
        <ele>576.2</ele>
        <time>2018-10-21T06:50:09Z</time>
      </trkpt>
      <trkpt lat="42.7350700" lon="-3.4298170">
        <ele>576.2</ele>
        <time>2018-10-21T06:50:10Z</time>
      </trkpt>
      <trkpt lat="42.7350520" lon="-3.4297420">
        <ele>576.2</ele>
        <time>2018-10-21T06:50:11Z</time>
      </trkpt>
      <trkpt lat="42.7350520" lon="-3.4297420">
        <ele>576.2</ele>
        <time>2018-10-21T06:50:12Z</time>
      </trkpt>
      <trkpt lat="42.7350130" lon="-3.4295900">
        <ele>576.2</ele>
        <time>2018-10-21T06:50:13Z</time>
      </trkpt>
      <trkpt lat="42.7349950" lon="-3.4295150">
        <ele>577.3</ele>
        <time>2018-10-21T06:50:14Z</time>
      </trkpt>
      <trkpt lat="42.7349770" lon="-3.4294370">
        <ele>577.3</ele>
        <time>2018-10-21T06:50:15Z</time>
      </trkpt>
      <trkpt lat="42.7349600" lon="-3.4293550">
        <ele>577.3</ele>
        <time>2018-10-21T06:50:16Z</time>
      </trkpt>
      <trkpt lat="42.7349600" lon="-3.4293550">
        <ele>577.3</ele>
        <time>2018-10-21T06:50:17Z</time>
      </trkpt>
      <trkpt lat="42.7349270" lon="-3.4291920">
        <ele>577.3</ele>
        <time>2018-10-21T06:50:18Z</time>
      </trkpt>
      <trkpt lat="42.7349270" lon="-3.4291920">
        <ele>577.3</ele>
        <time>2018-10-21T06:50:19Z</time>
      </trkpt>
      <trkpt lat="42.7349120" lon="-3.4291070">
        <ele>577.3</ele>
        <time>2018-10-21T06:50:20Z</time>
      </trkpt>
      <trkpt lat="42.7348980" lon="-3.4290220">
        <ele>577.3</ele>
        <time>2018-10-21T06:50:21Z</time>
      </trkpt>
      <trkpt lat="42.7348850" lon="-3.4289350">
        <ele>576.2</ele>
        <time>2018-10-21T06:50:22Z</time>
      </trkpt>
      <trkpt lat="42.7348620" lon="-3.4287570">
        <ele>576.2</ele>
        <time>2018-10-21T06:50:23Z</time>
      </trkpt>
      <trkpt lat="42.7348520" lon="-3.4286670">
        <ele>576.2</ele>
        <time>2018-10-21T06:50:24Z</time>
      </trkpt>
      <trkpt lat="42.7348520" lon="-3.4286670">
        <ele>576.2</ele>
        <time>2018-10-21T06:50:25Z</time>
      </trkpt>
      <trkpt lat="42.7348350" lon="-3.4284820">
        <ele>576.2</ele>
        <time>2018-10-21T06:50:26Z</time>
      </trkpt>
      <trkpt lat="42.7348350" lon="-3.4284820">
        <ele>576.2</ele>
        <time>2018-10-21T06:50:27Z</time>
      </trkpt>
      <trkpt lat="42.7348230" lon="-3.4282970">
        <ele>575.2</ele>
        <time>2018-10-21T06:50:28Z</time>
      </trkpt>
      <trkpt lat="42.7348220" lon="-3.4282030">
        <ele>575.2</ele>
        <time>2018-10-21T06:50:29Z</time>
      </trkpt>
      <trkpt lat="42.7348230" lon="-3.4281130">
        <ele>575.2</ele>
        <time>2018-10-21T06:50:30Z</time>
      </trkpt>
      <trkpt lat="42.7348230" lon="-3.4281130">
        <ele>575.2</ele>
        <time>2018-10-21T06:50:31Z</time>
      </trkpt>
      <trkpt lat="42.7348280" lon="-3.4280250">
        <ele>576.2</ele>
        <time>2018-10-21T06:50:32Z</time>
      </trkpt>
      <trkpt lat="42.7348320" lon="-3.4278600">
        <ele>576.2</ele>
        <time>2018-10-21T06:50:33Z</time>
      </trkpt>
      <trkpt lat="42.7348330" lon="-3.4277750">
        <ele>576.2</ele>
        <time>2018-10-21T06:50:34Z</time>
      </trkpt>
      <trkpt lat="42.7348330" lon="-3.4277750">
        <ele>576.2</ele>
        <time>2018-10-21T06:50:35Z</time>
      </trkpt>
      <trkpt lat="42.7348370" lon="-3.4276120">
        <ele>576.2</ele>
        <time>2018-10-21T06:50:36Z</time>
      </trkpt>
      <trkpt lat="42.7348380" lon="-3.4275320">
        <ele>576.2</ele>
        <time>2018-10-21T06:50:37Z</time>
      </trkpt>
      <trkpt lat="42.7348450" lon="-3.4274500">
        <ele>576.2</ele>
        <time>2018-10-21T06:50:38Z</time>
      </trkpt>
      <trkpt lat="42.7348530" lon="-3.4273700">
        <ele>576.2</ele>
        <time>2018-10-21T06:50:39Z</time>
      </trkpt>
      <trkpt lat="42.7348620" lon="-3.4272900">
        <ele>576.2</ele>
        <time>2018-10-21T06:50:40Z</time>
      </trkpt>
      <trkpt lat="42.7348680" lon="-3.4272120">
        <ele>576.2</ele>
        <time>2018-10-21T06:50:41Z</time>
      </trkpt>
      <trkpt lat="42.7348750" lon="-3.4271320">
        <ele>576.2</ele>
        <time>2018-10-21T06:50:42Z</time>
      </trkpt>
      <trkpt lat="42.7348750" lon="-3.4271320">
        <ele>576.2</ele>
        <time>2018-10-21T06:50:43Z</time>
      </trkpt>
      <trkpt lat="42.7348920" lon="-3.4269700">
        <ele>576.2</ele>
        <time>2018-10-21T06:50:44Z</time>
      </trkpt>
      <trkpt lat="42.7349020" lon="-3.4268920">
        <ele>576.2</ele>
        <time>2018-10-21T06:50:45Z</time>
      </trkpt>
      <trkpt lat="42.7349120" lon="-3.4268120">
        <ele>576.2</ele>
        <time>2018-10-21T06:50:46Z</time>
      </trkpt>
      <trkpt lat="42.7349120" lon="-3.4268120">
        <ele>576.2</ele>
        <time>2018-10-21T06:50:47Z</time>
      </trkpt>
      <trkpt lat="42.7349220" lon="-3.4267330">
        <ele>576.2</ele>
        <time>2018-10-21T06:50:48Z</time>
      </trkpt>
      <trkpt lat="42.7349380" lon="-3.4265720">
        <ele>576.2</ele>
        <time>2018-10-21T06:50:49Z</time>
      </trkpt>
      <trkpt lat="42.7349480" lon="-3.4264900">
        <ele>576.2</ele>
        <time>2018-10-21T06:50:50Z</time>
      </trkpt>
      <trkpt lat="42.7349550" lon="-3.4264100">
        <ele>576.2</ele>
        <time>2018-10-21T06:50:51Z</time>
      </trkpt>
      <trkpt lat="42.7349630" lon="-3.4263280">
        <ele>577.3</ele>
        <time>2018-10-21T06:50:52Z</time>
      </trkpt>
      <trkpt lat="42.7349730" lon="-3.4262480">
        <ele>577.3</ele>
        <time>2018-10-21T06:50:53Z</time>
      </trkpt>
      <trkpt lat="42.7349730" lon="-3.4262480">
        <ele>577.3</ele>
        <time>2018-10-21T06:50:54Z</time>
      </trkpt>
      <trkpt lat="42.7349950" lon="-3.4260880">
        <ele>577.3</ele>
        <time>2018-10-21T06:50:55Z</time>
      </trkpt>
      <trkpt lat="42.7349950" lon="-3.4260880">
        <ele>577.3</ele>
        <time>2018-10-21T06:50:56Z</time>
      </trkpt>
      <trkpt lat="42.7350050" lon="-3.4260080">
        <ele>577.3</ele>
        <time>2018-10-21T06:50:57Z</time>
      </trkpt>
      <trkpt lat="42.7350130" lon="-3.4259270">
        <ele>577.3</ele>
        <time>2018-10-21T06:50:58Z</time>
      </trkpt>
      <trkpt lat="42.7350300" lon="-3.4257600">
        <ele>577.3</ele>
        <time>2018-10-21T06:50:59Z</time>
      </trkpt>
      <trkpt lat="42.7350300" lon="-3.4257600">
        <ele>577.3</ele>
        <time>2018-10-21T06:51:00Z</time>
      </trkpt>
      <trkpt lat="42.7350500" lon="-3.4255930">
        <ele>577.3</ele>
        <time>2018-10-21T06:51:01Z</time>
      </trkpt>
      <trkpt lat="42.7350600" lon="-3.4255100">
        <ele>577.3</ele>
        <time>2018-10-21T06:51:02Z</time>
      </trkpt>
      <trkpt lat="42.7350600" lon="-3.4255100">
        <ele>577.3</ele>
        <time>2018-10-21T06:51:03Z</time>
      </trkpt>
      <trkpt lat="42.7350820" lon="-3.4253450">
        <ele>578.2</ele>
        <time>2018-10-21T06:51:04Z</time>
      </trkpt>
      <trkpt lat="42.7350900" lon="-3.4252630">
        <ele>578.2</ele>
        <time>2018-10-21T06:51:05Z</time>
      </trkpt>
      <trkpt lat="42.7351000" lon="-3.4251820">
        <ele>578.2</ele>
        <time>2018-10-21T06:51:06Z</time>
      </trkpt>
      <trkpt lat="42.7351100" lon="-3.4250980">
        <ele>578.2</ele>
        <time>2018-10-21T06:51:07Z</time>
      </trkpt>
      <trkpt lat="42.7351100" lon="-3.4250980">
        <ele>578.2</ele>
        <time>2018-10-21T06:51:08Z</time>
      </trkpt>
      <trkpt lat="42.7351270" lon="-3.4249300">
        <ele>578.2</ele>
        <time>2018-10-21T06:51:09Z</time>
      </trkpt>
      <trkpt lat="42.7351270" lon="-3.4249300">
        <ele>578.2</ele>
        <time>2018-10-21T06:51:10Z</time>
      </trkpt>
      <trkpt lat="42.7351350" lon="-3.4248470">
        <ele>578.2</ele>
        <time>2018-10-21T06:51:11Z</time>
      </trkpt>
      <trkpt lat="42.7351430" lon="-3.4247620">
        <ele>578.2</ele>
        <time>2018-10-21T06:51:12Z</time>
      </trkpt>
      <trkpt lat="42.7351480" lon="-3.4246750">
        <ele>578.2</ele>
        <time>2018-10-21T06:51:13Z</time>
      </trkpt>
      <trkpt lat="42.7351580" lon="-3.4245030">
        <ele>578.2</ele>
        <time>2018-10-21T06:51:14Z</time>
      </trkpt>
      <trkpt lat="42.7351620" lon="-3.4244150">
        <ele>578.2</ele>
        <time>2018-10-21T06:51:15Z</time>
      </trkpt>
      <trkpt lat="42.7351620" lon="-3.4244150">
        <ele>577.3</ele>
        <time>2018-10-21T06:51:16Z</time>
      </trkpt>
      <trkpt lat="42.7351650" lon="-3.4242370">
        <ele>577.3</ele>
        <time>2018-10-21T06:51:17Z</time>
      </trkpt>
      <trkpt lat="42.7351650" lon="-3.4242370">
        <ele>577.3</ele>
        <time>2018-10-21T06:51:18Z</time>
      </trkpt>
      <trkpt lat="42.7351580" lon="-3.4240520">
        <ele>577.3</ele>
        <time>2018-10-21T06:51:19Z</time>
      </trkpt>
      <trkpt lat="42.7351520" lon="-3.4239570">
        <ele>577.3</ele>
        <time>2018-10-21T06:51:20Z</time>
      </trkpt>
      <trkpt lat="42.7351520" lon="-3.4239570">
        <ele>577.3</ele>
        <time>2018-10-21T06:51:21Z</time>
      </trkpt>
      <trkpt lat="42.7351330" lon="-3.4237650">
        <ele>576.2</ele>
        <time>2018-10-21T06:51:22Z</time>
      </trkpt>
      <trkpt lat="42.7351330" lon="-3.4237650">
        <ele>576.2</ele>
        <time>2018-10-21T06:51:23Z</time>
      </trkpt>
      <trkpt lat="42.7351030" lon="-3.4235680">
        <ele>576.2</ele>
        <time>2018-10-21T06:51:24Z</time>
      </trkpt>
      <trkpt lat="42.7350850" lon="-3.4234720">
        <ele>576.2</ele>
        <time>2018-10-21T06:51:25Z</time>
      </trkpt>
      <trkpt lat="42.7350850" lon="-3.4234720">
        <ele>575.2</ele>
        <time>2018-10-21T06:51:26Z</time>
      </trkpt>
      <trkpt lat="42.7350400" lon="-3.4232770">
        <ele>575.2</ele>
        <time>2018-10-21T06:51:27Z</time>
      </trkpt>
      <trkpt lat="42.7350120" lon="-3.4231800">
        <ele>574.3</ele>
        <time>2018-10-21T06:51:28Z</time>
      </trkpt>
      <trkpt lat="42.7349830" lon="-3.4230830">
        <ele>574.3</ele>
        <time>2018-10-21T06:51:29Z</time>
      </trkpt>
      <trkpt lat="42.7349550" lon="-3.4229850">
        <ele>574.3</ele>
        <time>2018-10-21T06:51:30Z</time>
      </trkpt>
      <trkpt lat="42.7349230" lon="-3.4228880">
        <ele>574.3</ele>
        <time>2018-10-21T06:51:31Z</time>
      </trkpt>
      <trkpt lat="42.7348850" lon="-3.4227930">
        <ele>574.3</ele>
        <time>2018-10-21T06:51:32Z</time>
      </trkpt>
      <trkpt lat="42.7348430" lon="-3.4226970">
        <ele>574.3</ele>
        <time>2018-10-21T06:51:33Z</time>
      </trkpt>
      <trkpt lat="42.7348430" lon="-3.4226970">
        <ele>573.2</ele>
        <time>2018-10-21T06:51:34Z</time>
      </trkpt>
      <trkpt lat="42.7347550" lon="-3.4225030">
        <ele>573.2</ele>
        <time>2018-10-21T06:51:35Z</time>
      </trkpt>
      <trkpt lat="42.7347050" lon="-3.4224080">
        <ele>573.2</ele>
        <time>2018-10-21T06:51:36Z</time>
      </trkpt>
      <trkpt lat="42.7347050" lon="-3.4224080">
        <ele>573.2</ele>
        <time>2018-10-21T06:51:37Z</time>
      </trkpt>
      <trkpt lat="42.7346050" lon="-3.4222130">
        <ele>573.2</ele>
        <time>2018-10-21T06:51:38Z</time>
      </trkpt>
      <trkpt lat="42.7346050" lon="-3.4222130">
        <ele>573.2</ele>
        <time>2018-10-21T06:51:39Z</time>
      </trkpt>
      <trkpt lat="42.7345100" lon="-3.4220070">
        <ele>570.3</ele>
        <time>2018-10-21T06:51:40Z</time>
      </trkpt>
      <trkpt lat="42.7344720" lon="-3.4218950">
        <ele>570.3</ele>
        <time>2018-10-21T06:51:41Z</time>
      </trkpt>
      <trkpt lat="42.7344400" lon="-3.4217820">
        <ele>569.2</ele>
        <time>2018-10-21T06:51:42Z</time>
      </trkpt>
      <trkpt lat="42.7344200" lon="-3.4216650">
        <ele>569.2</ele>
        <time>2018-10-21T06:51:43Z</time>
      </trkpt>
      <trkpt lat="42.7344200" lon="-3.4216650">
        <ele>569.2</ele>
        <time>2018-10-21T06:51:44Z</time>
      </trkpt>
      <trkpt lat="42.7343920" lon="-3.4214330">
        <ele>569.2</ele>
        <time>2018-10-21T06:51:45Z</time>
      </trkpt>
      <trkpt lat="42.7343920" lon="-3.4214330">
        <ele>568.3</ele>
        <time>2018-10-21T06:51:46Z</time>
      </trkpt>
      <trkpt lat="42.7343800" lon="-3.4213200">
        <ele>568.3</ele>
        <time>2018-10-21T06:51:47Z</time>
      </trkpt>
      <trkpt lat="42.7343530" lon="-3.4211000">
        <ele>567.2</ele>
        <time>2018-10-21T06:51:48Z</time>
      </trkpt>
      <trkpt lat="42.7343420" lon="-3.4209930">
        <ele>567.2</ele>
        <time>2018-10-21T06:51:49Z</time>
      </trkpt>
      <trkpt lat="42.7343280" lon="-3.4208870">
        <ele>567.2</ele>
        <time>2018-10-21T06:51:50Z</time>
      </trkpt>
      <trkpt lat="42.7343150" lon="-3.4207820">
        <ele>567.2</ele>
        <time>2018-10-21T06:51:51Z</time>
      </trkpt>
      <trkpt lat="42.7343150" lon="-3.4207820">
        <ele>567.2</ele>
        <time>2018-10-21T06:51:52Z</time>
      </trkpt>
      <trkpt lat="42.7343000" lon="-3.4206780">
        <ele>567.2</ele>
        <time>2018-10-21T06:51:53Z</time>
      </trkpt>
      <trkpt lat="42.7342830" lon="-3.4205770">
        <ele>567.2</ele>
        <time>2018-10-21T06:51:54Z</time>
      </trkpt>
      <trkpt lat="42.7342470" lon="-3.4203780">
        <ele>567.2</ele>
        <time>2018-10-21T06:51:55Z</time>
      </trkpt>
      <trkpt lat="42.7342270" lon="-3.4202820">
        <ele>567.2</ele>
        <time>2018-10-21T06:51:56Z</time>
      </trkpt>
      <trkpt lat="42.7342050" lon="-3.4201870">
        <ele>567.2</ele>
        <time>2018-10-21T06:51:57Z</time>
      </trkpt>
      <trkpt lat="42.7341830" lon="-3.4200920">
        <ele>566.2</ele>
        <time>2018-10-21T06:51:58Z</time>
      </trkpt>
      <trkpt lat="42.7341830" lon="-3.4200920">
        <ele>566.2</ele>
        <time>2018-10-21T06:51:59Z</time>
      </trkpt>
      <trkpt lat="42.7341370" lon="-3.4199030">
        <ele>566.2</ele>
        <time>2018-10-21T06:52:00Z</time>
      </trkpt>
      <trkpt lat="42.7341100" lon="-3.4198150">
        <ele>566.2</ele>
        <time>2018-10-21T06:52:01Z</time>
      </trkpt>
      <trkpt lat="42.7341100" lon="-3.4198150">
        <ele>567.2</ele>
        <time>2018-10-21T06:52:02Z</time>
      </trkpt>
      <trkpt lat="42.7340870" lon="-3.4197280">
        <ele>567.2</ele>
        <time>2018-10-21T06:52:03Z</time>
      </trkpt>
      <trkpt lat="42.7340450" lon="-3.4195500">
        <ele>567.2</ele>
        <time>2018-10-21T06:52:04Z</time>
      </trkpt>
      <trkpt lat="42.7340180" lon="-3.4194670">
        <ele>567.2</ele>
        <time>2018-10-21T06:52:05Z</time>
      </trkpt>
      <trkpt lat="42.7339900" lon="-3.4193830">
        <ele>567.2</ele>
        <time>2018-10-21T06:52:06Z</time>
      </trkpt>
      <trkpt lat="42.7339900" lon="-3.4193830">
        <ele>567.2</ele>
        <time>2018-10-21T06:52:07Z</time>
      </trkpt>
      <trkpt lat="42.7339350" lon="-3.4192150">
        <ele>567.2</ele>
        <time>2018-10-21T06:52:08Z</time>
      </trkpt>
      <trkpt lat="42.7339350" lon="-3.4192150">
        <ele>567.2</ele>
        <time>2018-10-21T06:52:09Z</time>
      </trkpt>
      <trkpt lat="42.7338800" lon="-3.4190480">
        <ele>565.3</ele>
        <time>2018-10-21T06:52:10Z</time>
      </trkpt>
      <trkpt lat="42.7338570" lon="-3.4189650">
        <ele>565.3</ele>
        <time>2018-10-21T06:52:11Z</time>
      </trkpt>
      <trkpt lat="42.7338570" lon="-3.4189650">
        <ele>565.3</ele>
        <time>2018-10-21T06:52:12Z</time>
      </trkpt>
      <trkpt lat="42.7338350" lon="-3.4188800">
        <ele>565.3</ele>
        <time>2018-10-21T06:52:13Z</time>
      </trkpt>
      <trkpt lat="42.7338000" lon="-3.4187130">
        <ele>565.3</ele>
        <time>2018-10-21T06:52:14Z</time>
      </trkpt>
      <trkpt lat="42.7337880" lon="-3.4186330">
        <ele>565.3</ele>
        <time>2018-10-21T06:52:15Z</time>
      </trkpt>
      <trkpt lat="42.7337800" lon="-3.4185530">
        <ele>565.3</ele>
        <time>2018-10-21T06:52:16Z</time>
      </trkpt>
      <trkpt lat="42.7337800" lon="-3.4185530">
        <ele>565.3</ele>
        <time>2018-10-21T06:52:17Z</time>
      </trkpt>
      <trkpt lat="42.7337700" lon="-3.4184020">
        <ele>565.3</ele>
        <time>2018-10-21T06:52:18Z</time>
      </trkpt>
      <trkpt lat="42.7337650" lon="-3.4183300">
        <ele>565.3</ele>
        <time>2018-10-21T06:52:19Z</time>
      </trkpt>
      <trkpt lat="42.7337600" lon="-3.4182600">
        <ele>565.3</ele>
        <time>2018-10-21T06:52:20Z</time>
      </trkpt>
      <trkpt lat="42.7337570" lon="-3.4181920">
        <ele>565.3</ele>
        <time>2018-10-21T06:52:21Z</time>
      </trkpt>
      <trkpt lat="42.7337500" lon="-3.4181220">
        <ele>565.3</ele>
        <time>2018-10-21T06:52:22Z</time>
      </trkpt>
      <trkpt lat="42.7337430" lon="-3.4180530">
        <ele>565.3</ele>
        <time>2018-10-21T06:52:23Z</time>
      </trkpt>
      <trkpt lat="42.7337370" lon="-3.4179850">
        <ele>565.3</ele>
        <time>2018-10-21T06:52:24Z</time>
      </trkpt>
      <trkpt lat="42.7337370" lon="-3.4179850">
        <ele>565.3</ele>
        <time>2018-10-21T06:52:25Z</time>
      </trkpt>
      <trkpt lat="42.7337280" lon="-3.4178430">
        <ele>565.3</ele>
        <time>2018-10-21T06:52:26Z</time>
      </trkpt>
      <trkpt lat="42.7337270" lon="-3.4177730">
        <ele>565.3</ele>
        <time>2018-10-21T06:52:27Z</time>
      </trkpt>
      <trkpt lat="42.7337270" lon="-3.4177730">
        <ele>565.3</ele>
        <time>2018-10-21T06:52:28Z</time>
      </trkpt>
      <trkpt lat="42.7337280" lon="-3.4177070">
        <ele>565.3</ele>
        <time>2018-10-21T06:52:29Z</time>
      </trkpt>
      <trkpt lat="42.7337380" lon="-3.4175770">
        <ele>567.2</ele>
        <time>2018-10-21T06:52:30Z</time>
      </trkpt>
      <trkpt lat="42.7337500" lon="-3.4175120">
        <ele>567.2</ele>
        <time>2018-10-21T06:52:31Z</time>
      </trkpt>
      <trkpt lat="42.7337630" lon="-3.4174450">
        <ele>567.2</ele>
        <time>2018-10-21T06:52:32Z</time>
      </trkpt>
      <trkpt lat="42.7337800" lon="-3.4173770">
        <ele>567.2</ele>
        <time>2018-10-21T06:52:33Z</time>
      </trkpt>
      <trkpt lat="42.7337930" lon="-3.4173070">
        <ele>567.2</ele>
        <time>2018-10-21T06:52:34Z</time>
      </trkpt>
      <trkpt lat="42.7337930" lon="-3.4173070">
        <ele>567.2</ele>
        <time>2018-10-21T06:52:35Z</time>
      </trkpt>
      <trkpt lat="42.7338350" lon="-3.4171670">
        <ele>566.2</ele>
        <time>2018-10-21T06:52:36Z</time>
      </trkpt>
      <trkpt lat="42.7338350" lon="-3.4171670">
        <ele>566.2</ele>
        <time>2018-10-21T06:52:37Z</time>
      </trkpt>
      <trkpt lat="42.7338620" lon="-3.4170980">
        <ele>566.2</ele>
        <time>2018-10-21T06:52:38Z</time>
      </trkpt>
      <trkpt lat="42.7339180" lon="-3.4169650">
        <ele>566.2</ele>
        <time>2018-10-21T06:52:39Z</time>
      </trkpt>
      <trkpt lat="42.7339470" lon="-3.4168980">
        <ele>565.3</ele>
        <time>2018-10-21T06:52:40Z</time>
      </trkpt>
      <trkpt lat="42.7339730" lon="-3.4168270">
        <ele>565.3</ele>
        <time>2018-10-21T06:52:41Z</time>
      </trkpt>
      <trkpt lat="42.7340000" lon="-3.4167550">
        <ele>565.3</ele>
        <time>2018-10-21T06:52:42Z</time>
      </trkpt>
      <trkpt lat="42.7340000" lon="-3.4167550">
        <ele>565.3</ele>
        <time>2018-10-21T06:52:43Z</time>
      </trkpt>
      <trkpt lat="42.7340280" lon="-3.4166870">
        <ele>564.2</ele>
        <time>2018-10-21T06:52:44Z</time>
      </trkpt>
      <trkpt lat="42.7340900" lon="-3.4165530">
        <ele>564.2</ele>
        <time>2018-10-21T06:52:45Z</time>
      </trkpt>
      <trkpt lat="42.7340900" lon="-3.4165530">
        <ele>564.2</ele>
        <time>2018-10-21T06:52:46Z</time>
      </trkpt>
      <trkpt lat="42.7341480" lon="-3.4164200">
        <ele>564.2</ele>
        <time>2018-10-21T06:52:47Z</time>
      </trkpt>
      <trkpt lat="42.7341770" lon="-3.4163470">
        <ele>564.2</ele>
        <time>2018-10-21T06:52:48Z</time>
      </trkpt>
      <trkpt lat="42.7341770" lon="-3.4163470">
        <ele>564.2</ele>
        <time>2018-10-21T06:52:49Z</time>
      </trkpt>
      <trkpt lat="42.7342370" lon="-3.4162050">
        <ele>564.2</ele>
        <time>2018-10-21T06:52:50Z</time>
      </trkpt>
      <trkpt lat="42.7342650" lon="-3.4161370">
        <ele>564.2</ele>
        <time>2018-10-21T06:52:51Z</time>
      </trkpt>
      <trkpt lat="42.7342650" lon="-3.4161370">
        <ele>564.2</ele>
        <time>2018-10-21T06:52:52Z</time>
      </trkpt>
      <trkpt lat="42.7342930" lon="-3.4160680">
        <ele>564.2</ele>
        <time>2018-10-21T06:52:53Z</time>
      </trkpt>
      <trkpt lat="42.7343220" lon="-3.4159980">
        <ele>564.2</ele>
        <time>2018-10-21T06:52:54Z</time>
      </trkpt>
      <trkpt lat="42.7343500" lon="-3.4159320">
        <ele>564.2</ele>
        <time>2018-10-21T06:52:55Z</time>
      </trkpt>
      <trkpt lat="42.7344000" lon="-3.4157970">
        <ele>564.2</ele>
        <time>2018-10-21T06:52:56Z</time>
      </trkpt>
      <trkpt lat="42.7344250" lon="-3.4157320">
        <ele>564.2</ele>
        <time>2018-10-21T06:52:57Z</time>
      </trkpt>
      <trkpt lat="42.7344250" lon="-3.4157320">
        <ele>564.2</ele>
        <time>2018-10-21T06:52:58Z</time>
      </trkpt>
      <trkpt lat="42.7344630" lon="-3.4156020">
        <ele>564.2</ele>
        <time>2018-10-21T06:52:59Z</time>
      </trkpt>
      <trkpt lat="42.7344630" lon="-3.4156020">
        <ele>564.2</ele>
        <time>2018-10-21T06:53:00Z</time>
      </trkpt>
      <trkpt lat="42.7344880" lon="-3.4154700">
        <ele>564.2</ele>
        <time>2018-10-21T06:53:01Z</time>
      </trkpt>
      <trkpt lat="42.7345020" lon="-3.4154080">
        <ele>564.2</ele>
        <time>2018-10-21T06:53:02Z</time>
      </trkpt>
      <trkpt lat="42.7345020" lon="-3.4154080">
        <ele>564.2</ele>
        <time>2018-10-21T06:53:03Z</time>
      </trkpt>
      <trkpt lat="42.7345120" lon="-3.4153450">
        <ele>564.2</ele>
        <time>2018-10-21T06:53:04Z</time>
      </trkpt>
      <trkpt lat="42.7345380" lon="-3.4152250">
        <ele>564.2</ele>
        <time>2018-10-21T06:53:05Z</time>
      </trkpt>
      <trkpt lat="42.7345520" lon="-3.4151680">
        <ele>564.2</ele>
        <time>2018-10-21T06:53:06Z</time>
      </trkpt>
      <trkpt lat="42.7345520" lon="-3.4151680">
        <ele>564.2</ele>
        <time>2018-10-21T06:53:07Z</time>
      </trkpt>
      <trkpt lat="42.7345700" lon="-3.4150820">
        <ele>564.2</ele>
        <time>2018-10-21T06:53:08Z</time>
      </trkpt>
      <trkpt lat="42.7345720" lon="-3.4150550">
        <ele>564.2</ele>
        <time>2018-10-21T06:53:09Z</time>
      </trkpt>
      <trkpt lat="42.7345730" lon="-3.4150380">
        <ele>564.2</ele>
        <time>2018-10-21T06:53:10Z</time>
      </trkpt>
      <trkpt lat="42.7345750" lon="-3.4150320">
        <ele>564.2</ele>
        <time>2018-10-21T06:53:11Z</time>
      </trkpt>
      <trkpt lat="42.7345770" lon="-3.4150300">
        <ele>563.3</ele>
        <time>2018-10-21T06:53:12Z</time>
      </trkpt>
      <trkpt lat="42.7346520" lon="-3.4150150">
        <ele>563.3</ele>
        <time>2018-10-21T07:33:29Z</time>
      </trkpt>
      <trkpt lat="42.7346550" lon="-3.4150070">
        <ele>563.3</ele>
        <time>2018-10-21T07:33:30Z</time>
      </trkpt>
      <trkpt lat="42.7346630" lon="-3.4149900">
        <ele>563.3</ele>
        <time>2018-10-21T07:33:31Z</time>
      </trkpt>
      <trkpt lat="42.7346720" lon="-3.4149730">
        <ele>563.3</ele>
        <time>2018-10-21T07:33:32Z</time>
      </trkpt>
      <trkpt lat="42.7346820" lon="-3.4149550">
        <ele>563.3</ele>
        <time>2018-10-21T07:33:33Z</time>
      </trkpt>
      <trkpt lat="42.7346950" lon="-3.4149320">
        <ele>563.3</ele>
        <time>2018-10-21T07:33:34Z</time>
      </trkpt>
      <trkpt lat="42.7347100" lon="-3.4149000">
        <ele>563.3</ele>
        <time>2018-10-21T07:33:35Z</time>
      </trkpt>
      <trkpt lat="42.7347270" lon="-3.4148600">
        <ele>563.3</ele>
        <time>2018-10-21T07:33:36Z</time>
      </trkpt>
      <trkpt lat="42.7347450" lon="-3.4148150">
        <ele>563.3</ele>
        <time>2018-10-21T07:33:37Z</time>
      </trkpt>
      <trkpt lat="42.7347670" lon="-3.4147680">
        <ele>563.3</ele>
        <time>2018-10-21T07:33:38Z</time>
      </trkpt>
      <trkpt lat="42.7347870" lon="-3.4147230">
        <ele>563.3</ele>
        <time>2018-10-21T07:33:39Z</time>
      </trkpt>
      <trkpt lat="42.7348070" lon="-3.4146780">
        <ele>563.3</ele>
        <time>2018-10-21T07:33:40Z</time>
      </trkpt>
      <trkpt lat="42.7348280" lon="-3.4146330">
        <ele>563.3</ele>
        <time>2018-10-21T07:33:41Z</time>
      </trkpt>
      <trkpt lat="42.7348520" lon="-3.4145900">
        <ele>563.3</ele>
        <time>2018-10-21T07:33:42Z</time>
      </trkpt>
      <trkpt lat="42.7348800" lon="-3.4145400">
        <ele>563.3</ele>
        <time>2018-10-21T07:33:43Z</time>
      </trkpt>
      <trkpt lat="42.7349070" lon="-3.4144930">
        <ele>563.3</ele>
        <time>2018-10-21T07:33:44Z</time>
      </trkpt>
      <trkpt lat="42.7349280" lon="-3.4144430">
        <ele>563.3</ele>
        <time>2018-10-21T07:33:45Z</time>
      </trkpt>
      <trkpt lat="42.7349500" lon="-3.4143920">
        <ele>563.3</ele>
        <time>2018-10-21T07:33:46Z</time>
      </trkpt>
      <trkpt lat="42.7349730" lon="-3.4143380">
        <ele>563.3</ele>
        <time>2018-10-21T07:33:47Z</time>
      </trkpt>
      <trkpt lat="42.7349980" lon="-3.4142820">
        <ele>563.3</ele>
        <time>2018-10-21T07:33:48Z</time>
      </trkpt>
      <trkpt lat="42.7350250" lon="-3.4142250">
        <ele>563.3</ele>
        <time>2018-10-21T07:33:49Z</time>
      </trkpt>
      <trkpt lat="42.7350520" lon="-3.4141650">
        <ele>563.3</ele>
        <time>2018-10-21T07:33:50Z</time>
      </trkpt>
      <trkpt lat="42.7350750" lon="-3.4141020">
        <ele>563.3</ele>
        <time>2018-10-21T07:33:51Z</time>
      </trkpt>
      <trkpt lat="42.7350950" lon="-3.4140350">
        <ele>563.3</ele>
        <time>2018-10-21T07:33:52Z</time>
      </trkpt>
      <trkpt lat="42.7351150" lon="-3.4139680">
        <ele>563.3</ele>
        <time>2018-10-21T07:33:53Z</time>
      </trkpt>
      <trkpt lat="42.7351320" lon="-3.4139020">
        <ele>563.3</ele>
        <time>2018-10-21T07:33:54Z</time>
      </trkpt>
      <trkpt lat="42.7351480" lon="-3.4138350">
        <ele>563.3</ele>
        <time>2018-10-21T07:33:55Z</time>
      </trkpt>
      <trkpt lat="42.7351630" lon="-3.4137670">
        <ele>563.3</ele>
        <time>2018-10-21T07:33:56Z</time>
      </trkpt>
      <trkpt lat="42.7351800" lon="-3.4136980">
        <ele>563.3</ele>
        <time>2018-10-21T07:33:57Z</time>
      </trkpt>
      <trkpt lat="42.7351970" lon="-3.4136300">
        <ele>562.2</ele>
        <time>2018-10-21T07:33:58Z</time>
      </trkpt>
      <trkpt lat="42.7352130" lon="-3.4135620">
        <ele>562.2</ele>
        <time>2018-10-21T07:33:59Z</time>
      </trkpt>
      <trkpt lat="42.7352270" lon="-3.4134920">
        <ele>562.2</ele>
        <time>2018-10-21T07:34:00Z</time>
      </trkpt>
      <trkpt lat="42.7352430" lon="-3.4134230">
        <ele>562.2</ele>
        <time>2018-10-21T07:34:01Z</time>
      </trkpt>
      <trkpt lat="42.7352600" lon="-3.4133550">
        <ele>562.2</ele>
        <time>2018-10-21T07:34:02Z</time>
      </trkpt>
      <trkpt lat="42.7352800" lon="-3.4132880">
        <ele>562.2</ele>
        <time>2018-10-21T07:34:03Z</time>
      </trkpt>
      <trkpt lat="42.7353030" lon="-3.4132230">
        <ele>562.2</ele>
        <time>2018-10-21T07:34:04Z</time>
      </trkpt>
      <trkpt lat="42.7353270" lon="-3.4131580">
        <ele>562.2</ele>
        <time>2018-10-21T07:34:05Z</time>
      </trkpt>
      <trkpt lat="42.7353530" lon="-3.4130950">
        <ele>562.2</ele>
        <time>2018-10-21T07:34:06Z</time>
      </trkpt>
      <trkpt lat="42.7353820" lon="-3.4130330">
        <ele>562.2</ele>
        <time>2018-10-21T07:34:07Z</time>
      </trkpt>
      <trkpt lat="42.7354100" lon="-3.4129720">
        <ele>562.2</ele>
        <time>2018-10-21T07:34:08Z</time>
      </trkpt>
      <trkpt lat="42.7354400" lon="-3.4129120">
        <ele>562.2</ele>
        <time>2018-10-21T07:34:09Z</time>
      </trkpt>
      <trkpt lat="42.7354700" lon="-3.4128500">
        <ele>562.2</ele>
        <time>2018-10-21T07:34:10Z</time>
      </trkpt>
      <trkpt lat="42.7355020" lon="-3.4127900">
        <ele>562.2</ele>
        <time>2018-10-21T07:34:11Z</time>
      </trkpt>
      <trkpt lat="42.7355300" lon="-3.4127300">
        <ele>562.2</ele>
        <time>2018-10-21T07:34:12Z</time>
      </trkpt>
      <trkpt lat="42.7355580" lon="-3.4126680">
        <ele>562.2</ele>
        <time>2018-10-21T07:34:13Z</time>
      </trkpt>
      <trkpt lat="42.7355880" lon="-3.4126080">
        <ele>562.2</ele>
        <time>2018-10-21T07:34:14Z</time>
      </trkpt>
      <trkpt lat="42.7356180" lon="-3.4125480">
        <ele>562.2</ele>
        <time>2018-10-21T07:34:15Z</time>
      </trkpt>
      <trkpt lat="42.7356480" lon="-3.4124900">
        <ele>562.2</ele>
        <time>2018-10-21T07:34:16Z</time>
      </trkpt>
      <trkpt lat="42.7356780" lon="-3.4124320">
        <ele>562.2</ele>
        <time>2018-10-21T07:34:17Z</time>
      </trkpt>
      <trkpt lat="42.7357050" lon="-3.4123770">
        <ele>562.2</ele>
        <time>2018-10-21T07:34:18Z</time>
      </trkpt>
      <trkpt lat="42.7357330" lon="-3.4123200">
        <ele>562.2</ele>
        <time>2018-10-21T07:34:19Z</time>
      </trkpt>
      <trkpt lat="42.7357620" lon="-3.4122680">
        <ele>562.2</ele>
        <time>2018-10-21T07:34:20Z</time>
      </trkpt>
      <trkpt lat="42.7357900" lon="-3.4122180">
        <ele>562.2</ele>
        <time>2018-10-21T07:34:21Z</time>
      </trkpt>
      <trkpt lat="42.7358250" lon="-3.4121720">
        <ele>563.3</ele>
        <time>2018-10-21T07:34:22Z</time>
      </trkpt>
      <trkpt lat="42.7358620" lon="-3.4121270">
        <ele>563.3</ele>
        <time>2018-10-21T07:34:23Z</time>
      </trkpt>
      <trkpt lat="42.7358980" lon="-3.4120820">
        <ele>563.3</ele>
        <time>2018-10-21T07:34:24Z</time>
      </trkpt>
      <trkpt lat="42.7359350" lon="-3.4120380">
        <ele>563.3</ele>
        <time>2018-10-21T07:34:25Z</time>
      </trkpt>
      <trkpt lat="42.7359730" lon="-3.4120020">
        <ele>563.3</ele>
        <time>2018-10-21T07:34:26Z</time>
      </trkpt>
      <trkpt lat="42.7360170" lon="-3.4119630">
        <ele>563.3</ele>
        <time>2018-10-21T07:34:27Z</time>
      </trkpt>
      <trkpt lat="42.7360570" lon="-3.4119270">
        <ele>563.3</ele>
        <time>2018-10-21T07:34:28Z</time>
      </trkpt>
      <trkpt lat="42.7360970" lon="-3.4118920">
        <ele>563.3</ele>
        <time>2018-10-21T07:34:29Z</time>
      </trkpt>
      <trkpt lat="42.7361400" lon="-3.4118580">
        <ele>563.3</ele>
        <time>2018-10-21T07:34:30Z</time>
      </trkpt>
      <trkpt lat="42.7361830" lon="-3.4118250">
        <ele>563.3</ele>
        <time>2018-10-21T07:34:31Z</time>
      </trkpt>
      <trkpt lat="42.7362280" lon="-3.4117900">
        <ele>563.3</ele>
        <time>2018-10-21T07:34:32Z</time>
      </trkpt>
      <trkpt lat="42.7362770" lon="-3.4117550">
        <ele>563.3</ele>
        <time>2018-10-21T07:34:33Z</time>
      </trkpt>
      <trkpt lat="42.7363230" lon="-3.4117220">
        <ele>563.3</ele>
        <time>2018-10-21T07:34:34Z</time>
      </trkpt>
      <trkpt lat="42.7363680" lon="-3.4116870">
        <ele>563.3</ele>
        <time>2018-10-21T07:34:35Z</time>
      </trkpt>
      <trkpt lat="42.7364120" lon="-3.4116570">
        <ele>563.3</ele>
        <time>2018-10-21T07:34:36Z</time>
      </trkpt>
      <trkpt lat="42.7364530" lon="-3.4116280">
        <ele>563.3</ele>
        <time>2018-10-21T07:34:37Z</time>
      </trkpt>
      <trkpt lat="42.7365000" lon="-3.4115980">
        <ele>563.3</ele>
        <time>2018-10-21T07:34:38Z</time>
      </trkpt>
      <trkpt lat="42.7365500" lon="-3.4115680">
        <ele>563.3</ele>
        <time>2018-10-21T07:34:39Z</time>
      </trkpt>
      <trkpt lat="42.7366030" lon="-3.4115380">
        <ele>563.3</ele>
        <time>2018-10-21T07:34:40Z</time>
      </trkpt>
      <trkpt lat="42.7366570" lon="-3.4115070">
        <ele>563.3</ele>
        <time>2018-10-21T07:34:41Z</time>
      </trkpt>
      <trkpt lat="42.7367120" lon="-3.4114770">
        <ele>563.3</ele>
        <time>2018-10-21T07:34:42Z</time>
      </trkpt>
      <trkpt lat="42.7367670" lon="-3.4114450">
        <ele>563.3</ele>
        <time>2018-10-21T07:34:43Z</time>
      </trkpt>
      <trkpt lat="42.7368220" lon="-3.4114150">
        <ele>563.3</ele>
        <time>2018-10-21T07:34:44Z</time>
      </trkpt>
      <trkpt lat="42.7368770" lon="-3.4113870">
        <ele>563.3</ele>
        <time>2018-10-21T07:34:45Z</time>
      </trkpt>
      <trkpt lat="42.7369320" lon="-3.4113550">
        <ele>562.2</ele>
        <time>2018-10-21T07:34:46Z</time>
      </trkpt>
      <trkpt lat="42.7369870" lon="-3.4113200">
        <ele>562.2</ele>
        <time>2018-10-21T07:34:47Z</time>
      </trkpt>
      <trkpt lat="42.7370430" lon="-3.4112830">
        <ele>562.2</ele>
        <time>2018-10-21T07:34:48Z</time>
      </trkpt>
      <trkpt lat="42.7370980" lon="-3.4112400">
        <ele>562.2</ele>
        <time>2018-10-21T07:34:49Z</time>
      </trkpt>
      <trkpt lat="42.7371530" lon="-3.4111950">
        <ele>561.3</ele>
        <time>2018-10-21T07:34:50Z</time>
      </trkpt>
      <trkpt lat="42.7372070" lon="-3.4111450">
        <ele>561.3</ele>
        <time>2018-10-21T07:34:51Z</time>
      </trkpt>
      <trkpt lat="42.7372580" lon="-3.4110900">
        <ele>561.3</ele>
        <time>2018-10-21T07:34:52Z</time>
      </trkpt>
      <trkpt lat="42.7373070" lon="-3.4110320">
        <ele>561.3</ele>
        <time>2018-10-21T07:34:53Z</time>
      </trkpt>
      <trkpt lat="42.7373550" lon="-3.4109750">
        <ele>561.3</ele>
        <time>2018-10-21T07:34:54Z</time>
      </trkpt>
      <trkpt lat="42.7374000" lon="-3.4109130">
        <ele>561.3</ele>
        <time>2018-10-21T07:34:55Z</time>
      </trkpt>
      <trkpt lat="42.7374430" lon="-3.4108520">
        <ele>561.3</ele>
        <time>2018-10-21T07:34:56Z</time>
      </trkpt>
      <trkpt lat="42.7374880" lon="-3.4107900">
        <ele>561.3</ele>
        <time>2018-10-21T07:34:57Z</time>
      </trkpt>
      <trkpt lat="42.7375320" lon="-3.4107270">
        <ele>560.2</ele>
        <time>2018-10-21T07:34:58Z</time>
      </trkpt>
      <trkpt lat="42.7375750" lon="-3.4106650">
        <ele>560.2</ele>
        <time>2018-10-21T07:34:59Z</time>
      </trkpt>
      <trkpt lat="42.7376170" lon="-3.4106070">
        <ele>560.2</ele>
        <time>2018-10-21T07:35:00Z</time>
      </trkpt>
      <trkpt lat="42.7376580" lon="-3.4105470">
        <ele>560.2</ele>
        <time>2018-10-21T07:35:01Z</time>
      </trkpt>
      <trkpt lat="42.7377000" lon="-3.4104900">
        <ele>560.2</ele>
        <time>2018-10-21T07:35:02Z</time>
      </trkpt>
      <trkpt lat="42.7377400" lon="-3.4104330">
        <ele>560.2</ele>
        <time>2018-10-21T07:35:03Z</time>
      </trkpt>
      <trkpt lat="42.7377780" lon="-3.4103780">
        <ele>560.2</ele>
        <time>2018-10-21T07:35:04Z</time>
      </trkpt>
      <trkpt lat="42.7378180" lon="-3.4103270">
        <ele>560.2</ele>
        <time>2018-10-21T07:35:05Z</time>
      </trkpt>
      <trkpt lat="42.7378570" lon="-3.4102780">
        <ele>560.2</ele>
        <time>2018-10-21T07:35:06Z</time>
      </trkpt>
      <trkpt lat="42.7378970" lon="-3.4102280">
        <ele>560.2</ele>
        <time>2018-10-21T07:35:07Z</time>
      </trkpt>
      <trkpt lat="42.7379380" lon="-3.4101780">
        <ele>560.2</ele>
        <time>2018-10-21T07:35:08Z</time>
      </trkpt>
      <trkpt lat="42.7379800" lon="-3.4101330">
        <ele>560.2</ele>
        <time>2018-10-21T07:35:09Z</time>
      </trkpt>
      <trkpt lat="42.7380200" lon="-3.4100920">
        <ele>560.2</ele>
        <time>2018-10-21T07:35:10Z</time>
      </trkpt>
      <trkpt lat="42.7380630" lon="-3.4100480">
        <ele>560.2</ele>
        <time>2018-10-21T07:35:11Z</time>
      </trkpt>
      <trkpt lat="42.7381100" lon="-3.4100080">
        <ele>560.2</ele>
        <time>2018-10-21T07:35:12Z</time>
      </trkpt>
      <trkpt lat="42.7381580" lon="-3.4099700">
        <ele>560.2</ele>
        <time>2018-10-21T07:35:13Z</time>
      </trkpt>
      <trkpt lat="42.7382070" lon="-3.4099320">
        <ele>560.2</ele>
        <time>2018-10-21T07:35:14Z</time>
      </trkpt>
      <trkpt lat="42.7382550" lon="-3.4098980">
        <ele>560.2</ele>
        <time>2018-10-21T07:35:15Z</time>
      </trkpt>
      <trkpt lat="42.7383070" lon="-3.4098650">
        <ele>560.2</ele>
        <time>2018-10-21T07:35:16Z</time>
      </trkpt>
      <trkpt lat="42.7383550" lon="-3.4098350">
        <ele>560.2</ele>
        <time>2018-10-21T07:35:17Z</time>
      </trkpt>
      <trkpt lat="42.7384080" lon="-3.4098070">
        <ele>560.2</ele>
        <time>2018-10-21T07:35:18Z</time>
      </trkpt>
      <trkpt lat="42.7384620" lon="-3.4097800">
        <ele>560.2</ele>
        <time>2018-10-21T07:35:19Z</time>
      </trkpt>
      <trkpt lat="42.7385180" lon="-3.4097550">
        <ele>560.2</ele>
        <time>2018-10-21T07:35:20Z</time>
      </trkpt>
      <trkpt lat="42.7385750" lon="-3.4097330">
        <ele>560.2</ele>
        <time>2018-10-21T07:35:21Z</time>
      </trkpt>
      <trkpt lat="42.7386330" lon="-3.4097080">
        <ele>560.2</ele>
        <time>2018-10-21T07:35:22Z</time>
      </trkpt>
      <trkpt lat="42.7386900" lon="-3.4096800">
        <ele>560.2</ele>
        <time>2018-10-21T07:35:23Z</time>
      </trkpt>
      <trkpt lat="42.7387470" lon="-3.4096470">
        <ele>559.3</ele>
        <time>2018-10-21T07:35:24Z</time>
      </trkpt>
      <trkpt lat="42.7388050" lon="-3.4096150">
        <ele>559.3</ele>
        <time>2018-10-21T07:35:25Z</time>
      </trkpt>
      <trkpt lat="42.7388620" lon="-3.4095830">
        <ele>559.3</ele>
        <time>2018-10-21T07:35:26Z</time>
      </trkpt>
      <trkpt lat="42.7389170" lon="-3.4095530">
        <ele>559.3</ele>
        <time>2018-10-21T07:35:27Z</time>
      </trkpt>
      <trkpt lat="42.7389670" lon="-3.4095270">
        <ele>559.3</ele>
        <time>2018-10-21T07:35:28Z</time>
      </trkpt>
      <trkpt lat="42.7390230" lon="-3.4095020">
        <ele>559.3</ele>
        <time>2018-10-21T07:35:29Z</time>
      </trkpt>
      <trkpt lat="42.7390820" lon="-3.4094950">
        <ele>559.3</ele>
        <time>2018-10-21T07:35:30Z</time>
      </trkpt>
      <trkpt lat="42.7391420" lon="-3.4094830">
        <ele>559.3</ele>
        <time>2018-10-21T07:35:31Z</time>
      </trkpt>
      <trkpt lat="42.7392070" lon="-3.4094720">
        <ele>559.3</ele>
        <time>2018-10-21T07:35:32Z</time>
      </trkpt>
      <trkpt lat="42.7392830" lon="-3.4094570">
        <ele>559.3</ele>
        <time>2018-10-21T07:35:33Z</time>
      </trkpt>
      <trkpt lat="42.7393550" lon="-3.4094430">
        <ele>559.3</ele>
        <time>2018-10-21T07:35:34Z</time>
      </trkpt>
      <trkpt lat="42.7394250" lon="-3.4094280">
        <ele>559.3</ele>
        <time>2018-10-21T07:35:35Z</time>
      </trkpt>
      <trkpt lat="42.7394950" lon="-3.4094180">
        <ele>559.3</ele>
        <time>2018-10-21T07:35:36Z</time>
      </trkpt>
      <trkpt lat="42.7395650" lon="-3.4094070">
        <ele>559.3</ele>
        <time>2018-10-21T07:35:37Z</time>
      </trkpt>
      <trkpt lat="42.7396350" lon="-3.4093930">
        <ele>559.3</ele>
        <time>2018-10-21T07:35:38Z</time>
      </trkpt>
      <trkpt lat="42.7397050" lon="-3.4093780">
        <ele>559.3</ele>
        <time>2018-10-21T07:35:39Z</time>
      </trkpt>
      <trkpt lat="42.7397720" lon="-3.4093600">
        <ele>559.3</ele>
        <time>2018-10-21T07:35:40Z</time>
      </trkpt>
      <trkpt lat="42.7398380" lon="-3.4093430">
        <ele>559.3</ele>
        <time>2018-10-21T07:35:41Z</time>
      </trkpt>
      <trkpt lat="42.7399030" lon="-3.4093250">
        <ele>559.3</ele>
        <time>2018-10-21T07:35:42Z</time>
      </trkpt>
      <trkpt lat="42.7399700" lon="-3.4093070">
        <ele>559.3</ele>
        <time>2018-10-21T07:35:43Z</time>
      </trkpt>
      <trkpt lat="42.7400350" lon="-3.4092900">
        <ele>558.2</ele>
        <time>2018-10-21T07:35:44Z</time>
      </trkpt>
      <trkpt lat="42.7401000" lon="-3.4092820">
        <ele>558.2</ele>
        <time>2018-10-21T07:35:45Z</time>
      </trkpt>
      <trkpt lat="42.7401630" lon="-3.4092730">
        <ele>558.2</ele>
        <time>2018-10-21T07:35:46Z</time>
      </trkpt>
      <trkpt lat="42.7402230" lon="-3.4092580">
        <ele>558.2</ele>
        <time>2018-10-21T07:35:47Z</time>
      </trkpt>
      <trkpt lat="42.7402800" lon="-3.4092470">
        <ele>558.2</ele>
        <time>2018-10-21T07:35:48Z</time>
      </trkpt>
      <trkpt lat="42.7403330" lon="-3.4092400">
        <ele>558.2</ele>
        <time>2018-10-21T07:35:49Z</time>
      </trkpt>
      <trkpt lat="42.7403830" lon="-3.4092350">
        <ele>558.2</ele>
        <time>2018-10-21T07:35:50Z</time>
      </trkpt>
      <trkpt lat="42.7404370" lon="-3.4092350">
        <ele>558.2</ele>
        <time>2018-10-21T07:35:51Z</time>
      </trkpt>
      <trkpt lat="42.7404900" lon="-3.4092320">
        <ele>558.2</ele>
        <time>2018-10-21T07:35:52Z</time>
      </trkpt>
      <trkpt lat="42.7405450" lon="-3.4092280">
        <ele>558.2</ele>
        <time>2018-10-21T07:35:53Z</time>
      </trkpt>
      <trkpt lat="42.7405970" lon="-3.4092330">
        <ele>558.2</ele>
        <time>2018-10-21T07:35:54Z</time>
      </trkpt>
      <trkpt lat="42.7406520" lon="-3.4092430">
        <ele>558.2</ele>
        <time>2018-10-21T07:35:55Z</time>
      </trkpt>
      <trkpt lat="42.7407070" lon="-3.4092530">
        <ele>558.2</ele>
        <time>2018-10-21T07:35:56Z</time>
      </trkpt>
      <trkpt lat="42.7407620" lon="-3.4092650">
        <ele>558.2</ele>
        <time>2018-10-21T07:35:57Z</time>
      </trkpt>
      <trkpt lat="42.7408150" lon="-3.4092750">
        <ele>558.2</ele>
        <time>2018-10-21T07:35:58Z</time>
      </trkpt>
      <trkpt lat="42.7408680" lon="-3.4092870">
        <ele>558.2</ele>
        <time>2018-10-21T07:35:59Z</time>
      </trkpt>
      <trkpt lat="42.7409220" lon="-3.4093030">
        <ele>558.2</ele>
        <time>2018-10-21T07:36:00Z</time>
      </trkpt>
      <trkpt lat="42.7409750" lon="-3.4093180">
        <ele>558.2</ele>
        <time>2018-10-21T07:36:01Z</time>
      </trkpt>
      <trkpt lat="42.7410300" lon="-3.4093320">
        <ele>558.2</ele>
        <time>2018-10-21T07:36:02Z</time>
      </trkpt>
      <trkpt lat="42.7410770" lon="-3.4093500">
        <ele>558.2</ele>
        <time>2018-10-21T07:36:03Z</time>
      </trkpt>
      <trkpt lat="42.7411320" lon="-3.4093680">
        <ele>558.2</ele>
        <time>2018-10-21T07:36:04Z</time>
      </trkpt>
      <trkpt lat="42.7411880" lon="-3.4093870">
        <ele>558.2</ele>
        <time>2018-10-21T07:36:05Z</time>
      </trkpt>
      <trkpt lat="42.7412470" lon="-3.4094030">
        <ele>558.2</ele>
        <time>2018-10-21T07:36:06Z</time>
      </trkpt>
      <trkpt lat="42.7413030" lon="-3.4094200">
        <ele>558.2</ele>
        <time>2018-10-21T07:36:07Z</time>
      </trkpt>
      <trkpt lat="42.7413570" lon="-3.4094380">
        <ele>558.2</ele>
        <time>2018-10-21T07:36:08Z</time>
      </trkpt>
      <trkpt lat="42.7414120" lon="-3.4094530">
        <ele>558.2</ele>
        <time>2018-10-21T07:36:09Z</time>
      </trkpt>
      <trkpt lat="42.7414680" lon="-3.4094670">
        <ele>558.2</ele>
        <time>2018-10-21T07:36:10Z</time>
      </trkpt>
      <trkpt lat="42.7415270" lon="-3.4094820">
        <ele>558.2</ele>
        <time>2018-10-21T07:36:11Z</time>
      </trkpt>
      <trkpt lat="42.7415830" lon="-3.4094950">
        <ele>558.2</ele>
        <time>2018-10-21T07:36:12Z</time>
      </trkpt>
      <trkpt lat="42.7416420" lon="-3.4095070">
        <ele>558.2</ele>
        <time>2018-10-21T07:36:13Z</time>
      </trkpt>
      <trkpt lat="42.7417000" lon="-3.4095120">
        <ele>558.2</ele>
        <time>2018-10-21T07:36:14Z</time>
      </trkpt>
      <trkpt lat="42.7417600" lon="-3.4095170">
        <ele>558.2</ele>
        <time>2018-10-21T07:36:15Z</time>
      </trkpt>
      <trkpt lat="42.7418200" lon="-3.4095200">
        <ele>558.2</ele>
        <time>2018-10-21T07:36:16Z</time>
      </trkpt>
      <trkpt lat="42.7418820" lon="-3.4095200">
        <ele>558.2</ele>
        <time>2018-10-21T07:36:17Z</time>
      </trkpt>
      <trkpt lat="42.7419430" lon="-3.4095200">
        <ele>556.3</ele>
        <time>2018-10-21T07:36:18Z</time>
      </trkpt>
      <trkpt lat="42.7420050" lon="-3.4095150">
        <ele>556.3</ele>
        <time>2018-10-21T07:36:19Z</time>
      </trkpt>
      <trkpt lat="42.7420650" lon="-3.4095050">
        <ele>556.3</ele>
        <time>2018-10-21T07:36:20Z</time>
      </trkpt>
      <trkpt lat="42.7421270" lon="-3.4094930">
        <ele>556.3</ele>
        <time>2018-10-21T07:36:21Z</time>
      </trkpt>
      <trkpt lat="42.7421870" lon="-3.4094800">
        <ele>556.3</ele>
        <time>2018-10-21T07:36:22Z</time>
      </trkpt>
      <trkpt lat="42.7422470" lon="-3.4094670">
        <ele>556.3</ele>
        <time>2018-10-21T07:36:23Z</time>
      </trkpt>
      <trkpt lat="42.7423070" lon="-3.4094480">
        <ele>556.3</ele>
        <time>2018-10-21T07:36:24Z</time>
      </trkpt>
      <trkpt lat="42.7423650" lon="-3.4094280">
        <ele>556.3</ele>
        <time>2018-10-21T07:36:25Z</time>
      </trkpt>
      <trkpt lat="42.7424250" lon="-3.4094050">
        <ele>556.3</ele>
        <time>2018-10-21T07:36:26Z</time>
      </trkpt>
      <trkpt lat="42.7424830" lon="-3.4093830">
        <ele>556.3</ele>
        <time>2018-10-21T07:36:27Z</time>
      </trkpt>
      <trkpt lat="42.7425400" lon="-3.4093630">
        <ele>556.3</ele>
        <time>2018-10-21T07:36:28Z</time>
      </trkpt>
      <trkpt lat="42.7425950" lon="-3.4093420">
        <ele>556.3</ele>
        <time>2018-10-21T07:36:29Z</time>
      </trkpt>
      <trkpt lat="42.7426500" lon="-3.4093180">
        <ele>556.3</ele>
        <time>2018-10-21T07:36:30Z</time>
      </trkpt>
      <trkpt lat="42.7427050" lon="-3.4092950">
        <ele>556.3</ele>
        <time>2018-10-21T07:36:31Z</time>
      </trkpt>
      <trkpt lat="42.7427600" lon="-3.4092720">
        <ele>556.3</ele>
        <time>2018-10-21T07:36:32Z</time>
      </trkpt>
      <trkpt lat="42.7428150" lon="-3.4092480">
        <ele>556.3</ele>
        <time>2018-10-21T07:36:33Z</time>
      </trkpt>
      <trkpt lat="42.7428700" lon="-3.4092230">
        <ele>556.3</ele>
        <time>2018-10-21T07:36:34Z</time>
      </trkpt>
      <trkpt lat="42.7429280" lon="-3.4092000">
        <ele>556.3</ele>
        <time>2018-10-21T07:36:35Z</time>
      </trkpt>
      <trkpt lat="42.7429830" lon="-3.4091780">
        <ele>556.3</ele>
        <time>2018-10-21T07:36:36Z</time>
      </trkpt>
      <trkpt lat="42.7430320" lon="-3.4091570">
        <ele>556.3</ele>
        <time>2018-10-21T07:36:37Z</time>
      </trkpt>
      <trkpt lat="42.7430830" lon="-3.4091330">
        <ele>556.3</ele>
        <time>2018-10-21T07:36:38Z</time>
      </trkpt>
      <trkpt lat="42.7431400" lon="-3.4091100">
        <ele>556.3</ele>
        <time>2018-10-21T07:36:39Z</time>
      </trkpt>
      <trkpt lat="42.7431970" lon="-3.4090870">
        <ele>556.3</ele>
        <time>2018-10-21T07:36:40Z</time>
      </trkpt>
      <trkpt lat="42.7432520" lon="-3.4090620">
        <ele>556.3</ele>
        <time>2018-10-21T07:36:41Z</time>
      </trkpt>
      <trkpt lat="42.7433020" lon="-3.4090400">
        <ele>556.3</ele>
        <time>2018-10-21T07:36:42Z</time>
      </trkpt>
      <trkpt lat="42.7433450" lon="-3.4090150">
        <ele>556.3</ele>
        <time>2018-10-21T07:36:43Z</time>
      </trkpt>
      <trkpt lat="42.7433920" lon="-3.4089920">
        <ele>556.3</ele>
        <time>2018-10-21T07:36:44Z</time>
      </trkpt>
      <trkpt lat="42.7434400" lon="-3.4089680">
        <ele>556.3</ele>
        <time>2018-10-21T07:36:45Z</time>
      </trkpt>
      <trkpt lat="42.7434850" lon="-3.4089450">
        <ele>556.3</ele>
        <time>2018-10-21T07:36:46Z</time>
      </trkpt>
      <trkpt lat="42.7435330" lon="-3.4089180">
        <ele>556.3</ele>
        <time>2018-10-21T07:36:47Z</time>
      </trkpt>
      <trkpt lat="42.7435850" lon="-3.4088850">
        <ele>556.3</ele>
        <time>2018-10-21T07:36:48Z</time>
      </trkpt>
      <trkpt lat="42.7436380" lon="-3.4088470">
        <ele>556.3</ele>
        <time>2018-10-21T07:36:49Z</time>
      </trkpt>
      <trkpt lat="42.7436900" lon="-3.4088050">
        <ele>556.3</ele>
        <time>2018-10-21T07:36:50Z</time>
      </trkpt>
      <trkpt lat="42.7437400" lon="-3.4087600">
        <ele>556.3</ele>
        <time>2018-10-21T07:36:51Z</time>
      </trkpt>
      <trkpt lat="42.7437920" lon="-3.4087150">
        <ele>556.3</ele>
        <time>2018-10-21T07:36:52Z</time>
      </trkpt>
      <trkpt lat="42.7438420" lon="-3.4086680">
        <ele>556.3</ele>
        <time>2018-10-21T07:36:53Z</time>
      </trkpt>
      <trkpt lat="42.7438900" lon="-3.4086200">
        <ele>556.3</ele>
        <time>2018-10-21T07:36:54Z</time>
      </trkpt>
      <trkpt lat="42.7439380" lon="-3.4085730">
        <ele>556.3</ele>
        <time>2018-10-21T07:36:55Z</time>
      </trkpt>
      <trkpt lat="42.7439830" lon="-3.4085270">
        <ele>556.3</ele>
        <time>2018-10-21T07:36:56Z</time>
      </trkpt>
      <trkpt lat="42.7440280" lon="-3.4084780">
        <ele>556.3</ele>
        <time>2018-10-21T07:36:57Z</time>
      </trkpt>
      <trkpt lat="42.7440720" lon="-3.4084300">
        <ele>556.3</ele>
        <time>2018-10-21T07:36:58Z</time>
      </trkpt>
      <trkpt lat="42.7441180" lon="-3.4083830">
        <ele>556.3</ele>
        <time>2018-10-21T07:36:59Z</time>
      </trkpt>
      <trkpt lat="42.7441620" lon="-3.4083350">
        <ele>556.3</ele>
        <time>2018-10-21T07:37:00Z</time>
      </trkpt>
      <trkpt lat="42.7442120" lon="-3.4082900">
        <ele>556.3</ele>
        <time>2018-10-21T07:37:01Z</time>
      </trkpt>
      <trkpt lat="42.7442630" lon="-3.4082420">
        <ele>556.3</ele>
        <time>2018-10-21T07:37:02Z</time>
      </trkpt>
      <trkpt lat="42.7443150" lon="-3.4081880">
        <ele>556.3</ele>
        <time>2018-10-21T07:37:03Z</time>
      </trkpt>
      <trkpt lat="42.7443730" lon="-3.4081370">
        <ele>556.3</ele>
        <time>2018-10-21T07:37:04Z</time>
      </trkpt>
      <trkpt lat="42.7444280" lon="-3.4080830">
        <ele>556.3</ele>
        <time>2018-10-21T07:37:05Z</time>
      </trkpt>
      <trkpt lat="42.7444850" lon="-3.4080350">
        <ele>556.3</ele>
        <time>2018-10-21T07:37:06Z</time>
      </trkpt>
      <trkpt lat="42.7445420" lon="-3.4079920">
        <ele>556.3</ele>
        <time>2018-10-21T07:37:07Z</time>
      </trkpt>
      <trkpt lat="42.7445920" lon="-3.4079550">
        <ele>556.3</ele>
        <time>2018-10-21T07:37:08Z</time>
      </trkpt>
      <trkpt lat="42.7446420" lon="-3.4079230">
        <ele>556.3</ele>
        <time>2018-10-21T07:37:09Z</time>
      </trkpt>
      <trkpt lat="42.7446850" lon="-3.4078920">
        <ele>556.3</ele>
        <time>2018-10-21T07:37:10Z</time>
      </trkpt>
      <trkpt lat="42.7447180" lon="-3.4078580">
        <ele>556.3</ele>
        <time>2018-10-21T07:37:11Z</time>
      </trkpt>
      <trkpt lat="42.7447380" lon="-3.4078370">
        <ele>556.3</ele>
        <time>2018-10-21T07:37:12Z</time>
      </trkpt>
      <trkpt lat="42.7447380" lon="-3.4078370">
        <ele>556.3</ele>
        <time>2018-10-21T07:37:13Z</time>
      </trkpt>
      <trkpt lat="42.7447690" lon="-3.4078150">
        <ele>556.3</ele>
        <time>2018-10-21T07:37:14Z</time>
      </trkpt>
      <trkpt lat="42.7447890" lon="-3.4078110">
        <ele>556.3</ele>
        <time>2018-10-21T07:37:15Z</time>
      </trkpt>
      <trkpt lat="42.7448080" lon="-3.4078080">
        <ele>556.3</ele>
        <time>2018-10-21T07:37:16Z</time>
      </trkpt>
      <trkpt lat="42.7448280" lon="-3.4078040">
        <ele>556.3</ele>
        <time>2018-10-21T07:37:17Z</time>
      </trkpt>
      <trkpt lat="42.7448470" lon="-3.4078010">
        <ele>556.3</ele>
        <time>2018-10-21T07:37:18Z</time>
      </trkpt>
      <trkpt lat="42.7448660" lon="-3.4077980">
        <ele>556.3</ele>
        <time>2018-10-21T07:37:19Z</time>
      </trkpt>
      <trkpt lat="42.7448860" lon="-3.4077940">
        <ele>556.3</ele>
        <time>2018-10-21T07:37:20Z</time>
      </trkpt>
      <trkpt lat="42.7449050" lon="-3.4077910">
        <ele>556.3</ele>
        <time>2018-10-21T07:37:21Z</time>
      </trkpt>
      <trkpt lat="42.7449250" lon="-3.4077870">
        <ele>556.3</ele>
        <time>2018-10-21T07:37:22Z</time>
      </trkpt>
      <trkpt lat="42.7449440" lon="-3.4077840">
        <ele>556.3</ele>
        <time>2018-10-21T07:37:23Z</time>
      </trkpt>
      <trkpt lat="42.7449640" lon="-3.4077800">
        <ele>556.3</ele>
        <time>2018-10-21T07:37:24Z</time>
      </trkpt>
      <trkpt lat="42.7449830" lon="-3.4077770">
        <ele>556.3</ele>
        <time>2018-10-21T07:37:25Z</time>
      </trkpt>
      <trkpt lat="42.7450020" lon="-3.4077740">
        <ele>559.3</ele>
        <time>2018-10-21T07:37:26Z</time>
      </trkpt>
      <trkpt lat="42.7450220" lon="-3.4077700">
        <ele>559.3</ele>
        <time>2018-10-21T07:37:27Z</time>
      </trkpt>
      <trkpt lat="42.7450410" lon="-3.4077670">
        <ele>559.3</ele>
        <time>2018-10-21T07:37:28Z</time>
      </trkpt>
      <trkpt lat="42.7450610" lon="-3.4077630">
        <ele>559.3</ele>
        <time>2018-10-21T07:37:29Z</time>
      </trkpt>
      <trkpt lat="42.7450800" lon="-3.4077600">
        <ele>559.3</ele>
        <time>2018-10-21T07:37:30Z</time>
      </trkpt>
      <trkpt lat="42.7451720" lon="-3.4077770">
        <ele>559.3</ele>
        <time>2018-10-21T07:37:31Z</time>
      </trkpt>
      <trkpt lat="42.7452600" lon="-3.4077920">
        <ele>559.3</ele>
        <time>2018-10-21T07:37:32Z</time>
      </trkpt>
      <trkpt lat="42.7453430" lon="-3.4078100">
        <ele>559.3</ele>
        <time>2018-10-21T07:37:33Z</time>
      </trkpt>
      <trkpt lat="42.7454230" lon="-3.4078250">
        <ele>559.3</ele>
        <time>2018-10-21T07:37:34Z</time>
      </trkpt>
      <trkpt lat="42.7455020" lon="-3.4078400">
        <ele>559.3</ele>
        <time>2018-10-21T07:37:35Z</time>
      </trkpt>
      <trkpt lat="42.7455770" lon="-3.4078570">
        <ele>559.3</ele>
        <time>2018-10-21T07:37:36Z</time>
      </trkpt>
      <trkpt lat="42.7456480" lon="-3.4078730">
        <ele>559.3</ele>
        <time>2018-10-21T07:37:37Z</time>
      </trkpt>
      <trkpt lat="42.7457180" lon="-3.4078920">
        <ele>560.2</ele>
        <time>2018-10-21T07:37:38Z</time>
      </trkpt>
      <trkpt lat="42.7457850" lon="-3.4079100">
        <ele>560.2</ele>
        <time>2018-10-21T07:37:39Z</time>
      </trkpt>
      <trkpt lat="42.7458520" lon="-3.4079270">
        <ele>560.2</ele>
        <time>2018-10-21T07:37:40Z</time>
      </trkpt>
      <trkpt lat="42.7459150" lon="-3.4079480">
        <ele>560.2</ele>
        <time>2018-10-21T07:37:41Z</time>
      </trkpt>
      <trkpt lat="42.7459770" lon="-3.4079680">
        <ele>560.2</ele>
        <time>2018-10-21T07:37:42Z</time>
      </trkpt>
      <trkpt lat="42.7460350" lon="-3.4079900">
        <ele>560.2</ele>
        <time>2018-10-21T07:37:43Z</time>
      </trkpt>
      <trkpt lat="42.7460930" lon="-3.4080100">
        <ele>560.2</ele>
        <time>2018-10-21T07:37:44Z</time>
      </trkpt>
      <trkpt lat="42.7461520" lon="-3.4080330">
        <ele>560.2</ele>
        <time>2018-10-21T07:37:45Z</time>
      </trkpt>
      <trkpt lat="42.7462080" lon="-3.4080570">
        <ele>561.3</ele>
        <time>2018-10-21T07:37:46Z</time>
      </trkpt>
      <trkpt lat="42.7462620" lon="-3.4080800">
        <ele>561.3</ele>
        <time>2018-10-21T07:37:47Z</time>
      </trkpt>
      <trkpt lat="42.7463150" lon="-3.4081070">
        <ele>561.3</ele>
        <time>2018-10-21T07:37:48Z</time>
      </trkpt>
      <trkpt lat="42.7463670" lon="-3.4081370">
        <ele>561.3</ele>
        <time>2018-10-21T07:37:49Z</time>
      </trkpt>
      <trkpt lat="42.7464150" lon="-3.4081650">
        <ele>562.2</ele>
        <time>2018-10-21T07:37:50Z</time>
      </trkpt>
      <trkpt lat="42.7464650" lon="-3.4081970">
        <ele>562.2</ele>
        <time>2018-10-21T07:37:51Z</time>
      </trkpt>
      <trkpt lat="42.7465130" lon="-3.4082320">
        <ele>562.2</ele>
        <time>2018-10-21T07:37:52Z</time>
      </trkpt>
      <trkpt lat="42.7465620" lon="-3.4082670">
        <ele>562.2</ele>
        <time>2018-10-21T07:37:53Z</time>
      </trkpt>
      <trkpt lat="42.7466080" lon="-3.4083050">
        <ele>562.2</ele>
        <time>2018-10-21T07:37:54Z</time>
      </trkpt>
      <trkpt lat="42.7466550" lon="-3.4083450">
        <ele>562.2</ele>
        <time>2018-10-21T07:37:55Z</time>
      </trkpt>
      <trkpt lat="42.7467020" lon="-3.4083870">
        <ele>562.2</ele>
        <time>2018-10-21T07:37:56Z</time>
      </trkpt>
      <trkpt lat="42.7467450" lon="-3.4084320">
        <ele>562.2</ele>
        <time>2018-10-21T07:37:57Z</time>
      </trkpt>
      <trkpt lat="42.7467880" lon="-3.4084780">
        <ele>562.2</ele>
        <time>2018-10-21T07:37:58Z</time>
      </trkpt>
      <trkpt lat="42.7468300" lon="-3.4085270">
        <ele>562.2</ele>
        <time>2018-10-21T07:37:59Z</time>
      </trkpt>
      <trkpt lat="42.7468720" lon="-3.4085750">
        <ele>562.2</ele>
        <time>2018-10-21T07:38:00Z</time>
      </trkpt>
      <trkpt lat="42.7469100" lon="-3.4086270">
        <ele>562.2</ele>
        <time>2018-10-21T07:38:01Z</time>
      </trkpt>
      <trkpt lat="42.7469500" lon="-3.4086820">
        <ele>562.2</ele>
        <time>2018-10-21T07:38:02Z</time>
      </trkpt>
      <trkpt lat="42.7469880" lon="-3.4087370">
        <ele>562.2</ele>
        <time>2018-10-21T07:38:03Z</time>
      </trkpt>
      <trkpt lat="42.7470280" lon="-3.4087920">
        <ele>562.2</ele>
        <time>2018-10-21T07:38:04Z</time>
      </trkpt>
      <trkpt lat="42.7470670" lon="-3.4088500">
        <ele>562.2</ele>
        <time>2018-10-21T07:38:05Z</time>
      </trkpt>
      <trkpt lat="42.7471030" lon="-3.4089080">
        <ele>562.2</ele>
        <time>2018-10-21T07:38:06Z</time>
      </trkpt>
      <trkpt lat="42.7471030" lon="-3.4089080">
        <ele>562.2</ele>
        <time>2018-10-21T07:38:07Z</time>
      </trkpt>
      <trkpt lat="42.7471030" lon="-3.4089080">
        <ele>562.2</ele>
        <time>2018-10-21T07:38:08Z</time>
      </trkpt>
      <trkpt lat="42.7471030" lon="-3.4089080">
        <ele>562.2</ele>
        <time>2018-10-21T07:38:09Z</time>
      </trkpt>
      <trkpt lat="42.7471030" lon="-3.4089080">
        <ele>562.2</ele>
        <time>2018-10-21T07:38:10Z</time>
      </trkpt>
      <trkpt lat="42.7471030" lon="-3.4089080">
        <ele>562.2</ele>
        <time>2018-10-21T07:38:11Z</time>
      </trkpt>
      <trkpt lat="42.7471420" lon="-3.4089680">
        <ele>562.2</ele>
        <time>2018-10-21T07:38:12Z</time>
      </trkpt>
      <trkpt lat="42.7471800" lon="-3.4090270">
        <ele>562.2</ele>
        <time>2018-10-21T07:38:13Z</time>
      </trkpt>
      <trkpt lat="42.7472200" lon="-3.4090870">
        <ele>562.2</ele>
        <time>2018-10-21T07:38:14Z</time>
      </trkpt>
      <trkpt lat="42.7472600" lon="-3.4091470">
        <ele>562.2</ele>
        <time>2018-10-21T07:38:15Z</time>
      </trkpt>
      <trkpt lat="42.7473000" lon="-3.4092070">
        <ele>562.2</ele>
        <time>2018-10-21T07:38:16Z</time>
      </trkpt>
      <trkpt lat="42.7473420" lon="-3.4092680">
        <ele>562.2</ele>
        <time>2018-10-21T07:38:17Z</time>
      </trkpt>
      <trkpt lat="42.7473850" lon="-3.4093280">
        <ele>562.2</ele>
        <time>2018-10-21T07:38:18Z</time>
      </trkpt>
      <trkpt lat="42.7474760" lon="-3.4094670">
        <ele>562.2</ele>
        <time>2018-10-21T07:38:19Z</time>
      </trkpt>
      <trkpt lat="42.7475250" lon="-3.4095450">
        <ele>560.2</ele>
        <time>2018-10-21T07:38:20Z</time>
      </trkpt>
      <trkpt lat="42.7475730" lon="-3.4096220">
        <ele>560.2</ele>
        <time>2018-10-21T07:38:21Z</time>
      </trkpt>
      <trkpt lat="42.7476210" lon="-3.4097000">
        <ele>560.2</ele>
        <time>2018-10-21T07:38:22Z</time>
      </trkpt>
      <trkpt lat="42.7476700" lon="-3.4097770">
        <ele>560.2</ele>
        <time>2018-10-21T07:38:23Z</time>
      </trkpt>
      <trkpt lat="42.7477180" lon="-3.4098550">
        <ele>559.3</ele>
        <time>2018-10-21T07:38:24Z</time>
      </trkpt>
      <trkpt lat="42.7477660" lon="-3.4099320">
        <ele>559.3</ele>
        <time>2018-10-21T07:38:25Z</time>
      </trkpt>
      <trkpt lat="42.7478150" lon="-3.4100100">
        <ele>559.3</ele>
        <time>2018-10-21T07:38:26Z</time>
      </trkpt>
      <trkpt lat="42.7478630" lon="-3.4100870">
        <ele>559.3</ele>
        <time>2018-10-21T07:38:27Z</time>
      </trkpt>
      <trkpt lat="42.7481080" lon="-3.4105450">
        <ele>558.2</ele>
        <time>2018-10-21T07:38:28Z</time>
      </trkpt>
      <trkpt lat="42.7481950" lon="-3.4105470">
        <ele>558.2</ele>
        <time>2018-10-21T07:38:29Z</time>
      </trkpt>
      <trkpt lat="42.7482830" lon="-3.4105500">
        <ele>557.2</ele>
        <time>2018-10-21T07:38:30Z</time>
      </trkpt>
      <trkpt lat="42.7483720" lon="-3.4105530">
        <ele>557.2</ele>
        <time>2018-10-21T07:38:31Z</time>
      </trkpt>
      <trkpt lat="42.7484630" lon="-3.4105570">
        <ele>556.3</ele>
        <time>2018-10-21T07:38:32Z</time>
      </trkpt>
      <trkpt lat="42.7485530" lon="-3.4105550">
        <ele>556.3</ele>
        <time>2018-10-21T07:38:33Z</time>
      </trkpt>
      <trkpt lat="42.7485530" lon="-3.4105550">
        <ele>556.3</ele>
        <time>2018-10-21T07:38:34Z</time>
      </trkpt>
      <trkpt lat="42.7485530" lon="-3.4105550">
        <ele>556.3</ele>
        <time>2018-10-21T07:38:35Z</time>
      </trkpt>
      <trkpt lat="42.7486450" lon="-3.4105550">
        <ele>555.2</ele>
        <time>2018-10-21T07:38:36Z</time>
      </trkpt>
      <trkpt lat="42.7487350" lon="-3.4105520">
        <ele>555.2</ele>
        <time>2018-10-21T07:38:37Z</time>
      </trkpt>
      <trkpt lat="42.7488230" lon="-3.4105520">
        <ele>554.3</ele>
        <time>2018-10-21T07:38:38Z</time>
      </trkpt>
      <trkpt lat="42.7489120" lon="-3.4105530">
        <ele>554.3</ele>
        <time>2018-10-21T07:38:39Z</time>
      </trkpt>
      <trkpt lat="42.7489980" lon="-3.4105550">
        <ele>553.2</ele>
        <time>2018-10-21T07:38:40Z</time>
      </trkpt>
      <trkpt lat="42.7490880" lon="-3.4105600">
        <ele>553.2</ele>
        <time>2018-10-21T07:38:41Z</time>
      </trkpt>
      <trkpt lat="42.7491730" lon="-3.4105670">
        <ele>553.2</ele>
        <time>2018-10-21T07:38:42Z</time>
      </trkpt>
      <trkpt lat="42.7492550" lon="-3.4105800">
        <ele>553.2</ele>
        <time>2018-10-21T07:38:43Z</time>
      </trkpt>
      <trkpt lat="42.7493350" lon="-3.4105980">
        <ele>553.2</ele>
        <time>2018-10-21T07:38:44Z</time>
      </trkpt>
      <trkpt lat="42.7494150" lon="-3.4106220">
        <ele>553.2</ele>
        <time>2018-10-21T07:38:45Z</time>
      </trkpt>
      <trkpt lat="42.7494930" lon="-3.4106530">
        <ele>553.2</ele>
        <time>2018-10-21T07:38:46Z</time>
      </trkpt>
      <trkpt lat="42.7495730" lon="-3.4106920">
        <ele>553.2</ele>
        <time>2018-10-21T07:38:47Z</time>
      </trkpt>
      <trkpt lat="42.7496550" lon="-3.4107370">
        <ele>552.3</ele>
        <time>2018-10-21T07:38:48Z</time>
      </trkpt>
      <trkpt lat="42.7497420" lon="-3.4107870">
        <ele>552.3</ele>
        <time>2018-10-21T07:38:49Z</time>
      </trkpt>
      <trkpt lat="42.7498250" lon="-3.4108350">
        <ele>552.3</ele>
        <time>2018-10-21T07:38:50Z</time>
      </trkpt>
      <trkpt lat="42.7499890" lon="-3.4109560">
        <ele>552.3</ele>
        <time>2018-10-21T07:38:51Z</time>
      </trkpt>
      <trkpt lat="42.7500730" lon="-3.4110260">
        <ele>552.3</ele>
        <time>2018-10-21T07:38:52Z</time>
      </trkpt>
      <trkpt lat="42.7501570" lon="-3.4110970">
        <ele>552.3</ele>
        <time>2018-10-21T07:38:53Z</time>
      </trkpt>
      <trkpt lat="42.7502410" lon="-3.4111670">
        <ele>552.3</ele>
        <time>2018-10-21T07:38:54Z</time>
      </trkpt>
      <trkpt lat="42.7503250" lon="-3.4112380">
        <ele>552.3</ele>
        <time>2018-10-21T07:38:55Z</time>
      </trkpt>
      <trkpt lat="42.7503800" lon="-3.4113000">
        <ele>550.2</ele>
        <time>2018-10-21T07:38:56Z</time>
      </trkpt>
      <trkpt lat="42.7504380" lon="-3.4113670">
        <ele>550.2</ele>
        <time>2018-10-21T07:38:57Z</time>
      </trkpt>
      <trkpt lat="42.7504950" lon="-3.4114370">
        <ele>550.2</ele>
        <time>2018-10-21T07:38:58Z</time>
      </trkpt>
      <trkpt lat="42.7505480" lon="-3.4115100">
        <ele>550.2</ele>
        <time>2018-10-21T07:38:59Z</time>
      </trkpt>
      <trkpt lat="42.7506000" lon="-3.4115850">
        <ele>549.3</ele>
        <time>2018-10-21T07:39:00Z</time>
      </trkpt>
      <trkpt lat="42.7506470" lon="-3.4116630">
        <ele>549.3</ele>
        <time>2018-10-21T07:39:01Z</time>
      </trkpt>
      <trkpt lat="42.7506920" lon="-3.4117430">
        <ele>549.3</ele>
        <time>2018-10-21T07:39:02Z</time>
      </trkpt>
      <trkpt lat="42.7507380" lon="-3.4118250">
        <ele>549.3</ele>
        <time>2018-10-21T07:39:03Z</time>
      </trkpt>
      <trkpt lat="42.7507820" lon="-3.4119070">
        <ele>549.3</ele>
        <time>2018-10-21T07:39:04Z</time>
      </trkpt>
      <trkpt lat="42.7508270" lon="-3.4119880">
        <ele>549.3</ele>
        <time>2018-10-21T07:39:05Z</time>
      </trkpt>
      <trkpt lat="42.7508720" lon="-3.4120700">
        <ele>549.3</ele>
        <time>2018-10-21T07:39:06Z</time>
      </trkpt>
      <trkpt lat="42.7509170" lon="-3.4121520">
        <ele>549.3</ele>
        <time>2018-10-21T07:39:07Z</time>
      </trkpt>
      <trkpt lat="42.7509650" lon="-3.4122300">
        <ele>549.3</ele>
        <time>2018-10-21T07:39:08Z</time>
      </trkpt>
      <trkpt lat="42.7510130" lon="-3.4123070">
        <ele>549.3</ele>
        <time>2018-10-21T07:39:09Z</time>
      </trkpt>
      <trkpt lat="42.7510650" lon="-3.4123780">
        <ele>549.3</ele>
        <time>2018-10-21T07:39:10Z</time>
      </trkpt>
      <trkpt lat="42.7511180" lon="-3.4124470">
        <ele>549.3</ele>
        <time>2018-10-21T07:39:11Z</time>
      </trkpt>
      <trkpt lat="42.7511730" lon="-3.4125130">
        <ele>549.3</ele>
        <time>2018-10-21T07:39:12Z</time>
      </trkpt>
      <trkpt lat="42.7512300" lon="-3.4125780">
        <ele>549.3</ele>
        <time>2018-10-21T07:39:13Z</time>
      </trkpt>
      <trkpt lat="42.7512870" lon="-3.4126400">
        <ele>549.3</ele>
        <time>2018-10-21T07:39:14Z</time>
      </trkpt>
      <trkpt lat="42.7513450" lon="-3.4126980">
        <ele>549.3</ele>
        <time>2018-10-21T07:39:15Z</time>
      </trkpt>
      <trkpt lat="42.7514030" lon="-3.4127530">
        <ele>549.3</ele>
        <time>2018-10-21T07:39:16Z</time>
      </trkpt>
      <trkpt lat="42.7514630" lon="-3.4128080">
        <ele>549.3</ele>
        <time>2018-10-21T07:39:17Z</time>
      </trkpt>
      <trkpt lat="42.7515220" lon="-3.4128600">
        <ele>549.3</ele>
        <time>2018-10-21T07:39:18Z</time>
      </trkpt>
      <trkpt lat="42.7515820" lon="-3.4129130">
        <ele>549.3</ele>
        <time>2018-10-21T07:39:19Z</time>
      </trkpt>
      <trkpt lat="42.7516420" lon="-3.4129670">
        <ele>548.2</ele>
        <time>2018-10-21T07:39:20Z</time>
      </trkpt>
      <trkpt lat="42.7517000" lon="-3.4130230">
        <ele>548.2</ele>
        <time>2018-10-21T07:39:21Z</time>
      </trkpt>
      <trkpt lat="42.7517580" lon="-3.4130770">
        <ele>548.2</ele>
        <time>2018-10-21T07:39:22Z</time>
      </trkpt>
      <trkpt lat="42.7518170" lon="-3.4131300">
        <ele>548.2</ele>
        <time>2018-10-21T07:39:23Z</time>
      </trkpt>
      <trkpt lat="42.7518750" lon="-3.4131830">
        <ele>548.2</ele>
        <time>2018-10-21T07:39:24Z</time>
      </trkpt>
      <trkpt lat="42.7519350" lon="-3.4132370">
        <ele>548.2</ele>
        <time>2018-10-21T07:39:25Z</time>
      </trkpt>
      <trkpt lat="42.7519930" lon="-3.4132900">
        <ele>548.2</ele>
        <time>2018-10-21T07:39:26Z</time>
      </trkpt>
      <trkpt lat="42.7520520" lon="-3.4133430">
        <ele>548.2</ele>
        <time>2018-10-21T07:39:27Z</time>
      </trkpt>
      <trkpt lat="42.7521100" lon="-3.4133950">
        <ele>548.2</ele>
        <time>2018-10-21T07:39:28Z</time>
      </trkpt>
      <trkpt lat="42.7521670" lon="-3.4134480">
        <ele>548.2</ele>
        <time>2018-10-21T07:39:29Z</time>
      </trkpt>
      <trkpt lat="42.7522220" lon="-3.4135020">
        <ele>548.2</ele>
        <time>2018-10-21T07:39:30Z</time>
      </trkpt>
      <trkpt lat="42.7522770" lon="-3.4135530">
        <ele>548.2</ele>
        <time>2018-10-21T07:39:31Z</time>
      </trkpt>
      <trkpt lat="42.7523300" lon="-3.4136030">
        <ele>548.2</ele>
        <time>2018-10-21T07:39:32Z</time>
      </trkpt>
      <trkpt lat="42.7523820" lon="-3.4136530">
        <ele>548.2</ele>
        <time>2018-10-21T07:39:33Z</time>
      </trkpt>
      <trkpt lat="42.7524330" lon="-3.4137020">
        <ele>548.2</ele>
        <time>2018-10-21T07:39:34Z</time>
      </trkpt>
      <trkpt lat="42.7524830" lon="-3.4137500">
        <ele>548.2</ele>
        <time>2018-10-21T07:39:35Z</time>
      </trkpt>
      <trkpt lat="42.7525330" lon="-3.4137980">
        <ele>548.2</ele>
        <time>2018-10-21T07:39:36Z</time>
      </trkpt>
      <trkpt lat="42.7525820" lon="-3.4138430">
        <ele>548.2</ele>
        <time>2018-10-21T07:39:37Z</time>
      </trkpt>
      <trkpt lat="42.7526280" lon="-3.4138870">
        <ele>548.2</ele>
        <time>2018-10-21T07:39:38Z</time>
      </trkpt>
      <trkpt lat="42.7526730" lon="-3.4139320">
        <ele>548.2</ele>
        <time>2018-10-21T07:39:39Z</time>
      </trkpt>
      <trkpt lat="42.7527180" lon="-3.4139780">
        <ele>549.3</ele>
        <time>2018-10-21T07:39:40Z</time>
      </trkpt>
      <trkpt lat="42.7527630" lon="-3.4140220">
        <ele>549.3</ele>
        <time>2018-10-21T07:39:41Z</time>
      </trkpt>
      <trkpt lat="42.7528070" lon="-3.4140650">
        <ele>549.3</ele>
        <time>2018-10-21T07:39:42Z</time>
      </trkpt>
      <trkpt lat="42.7528500" lon="-3.4141030">
        <ele>549.3</ele>
        <time>2018-10-21T07:39:43Z</time>
      </trkpt>
      <trkpt lat="42.7528900" lon="-3.4141450">
        <ele>549.3</ele>
        <time>2018-10-21T07:39:44Z</time>
      </trkpt>
      <trkpt lat="42.7529320" lon="-3.4141880">
        <ele>549.3</ele>
        <time>2018-10-21T07:39:45Z</time>
      </trkpt>
      <trkpt lat="42.7529720" lon="-3.4142330">
        <ele>549.3</ele>
        <time>2018-10-21T07:39:46Z</time>
      </trkpt>
      <trkpt lat="42.7530100" lon="-3.4142770">
        <ele>549.3</ele>
        <time>2018-10-21T07:39:47Z</time>
      </trkpt>
      <trkpt lat="42.7530470" lon="-3.4143220">
        <ele>552.3</ele>
        <time>2018-10-21T07:39:48Z</time>
      </trkpt>
      <trkpt lat="42.7530820" lon="-3.4143670">
        <ele>552.3</ele>
        <time>2018-10-21T07:39:49Z</time>
      </trkpt>
      <trkpt lat="42.7531120" lon="-3.4144120">
        <ele>552.3</ele>
        <time>2018-10-21T07:39:50Z</time>
      </trkpt>
      <trkpt lat="42.7531470" lon="-3.4144580">
        <ele>552.3</ele>
        <time>2018-10-21T07:39:51Z</time>
      </trkpt>
      <trkpt lat="42.7531800" lon="-3.4145020">
        <ele>552.3</ele>
        <time>2018-10-21T07:39:52Z</time>
      </trkpt>
      <trkpt lat="42.7532170" lon="-3.4145400">
        <ele>552.3</ele>
        <time>2018-10-21T07:39:53Z</time>
      </trkpt>
      <trkpt lat="42.7532520" lon="-3.4145800">
        <ele>552.3</ele>
        <time>2018-10-21T07:39:54Z</time>
      </trkpt>
      <trkpt lat="42.7532870" lon="-3.4146220">
        <ele>552.3</ele>
        <time>2018-10-21T07:39:55Z</time>
      </trkpt>
      <trkpt lat="42.7533130" lon="-3.4146650">
        <ele>552.3</ele>
        <time>2018-10-21T07:39:56Z</time>
      </trkpt>
      <trkpt lat="42.7533400" lon="-3.4147100">
        <ele>552.3</ele>
        <time>2018-10-21T07:39:57Z</time>
      </trkpt>
      <trkpt lat="42.7533720" lon="-3.4147500">
        <ele>552.3</ele>
        <time>2018-10-21T07:39:58Z</time>
      </trkpt>
      <trkpt lat="42.7534070" lon="-3.4147900">
        <ele>552.3</ele>
        <time>2018-10-21T07:39:59Z</time>
      </trkpt>
      <trkpt lat="42.7534380" lon="-3.4148330">
        <ele>554.3</ele>
        <time>2018-10-21T07:40:00Z</time>
      </trkpt>
      <trkpt lat="42.7534720" lon="-3.4148750">
        <ele>554.3</ele>
        <time>2018-10-21T07:40:01Z</time>
      </trkpt>
      <trkpt lat="42.7535070" lon="-3.4149120">
        <ele>554.3</ele>
        <time>2018-10-21T07:40:02Z</time>
      </trkpt>
      <trkpt lat="42.7535400" lon="-3.4149520">
        <ele>554.3</ele>
        <time>2018-10-21T07:40:03Z</time>
      </trkpt>
      <trkpt lat="42.7535750" lon="-3.4149920">
        <ele>555.2</ele>
        <time>2018-10-21T07:40:04Z</time>
      </trkpt>
      <trkpt lat="42.7536070" lon="-3.4150300">
        <ele>555.2</ele>
        <time>2018-10-21T07:40:05Z</time>
      </trkpt>
      <trkpt lat="42.7536400" lon="-3.4150700">
        <ele>556.3</ele>
        <time>2018-10-21T07:40:06Z</time>
      </trkpt>
      <trkpt lat="42.7536730" lon="-3.4151080">
        <ele>556.3</ele>
        <time>2018-10-21T07:40:07Z</time>
      </trkpt>
      <trkpt lat="42.7537050" lon="-3.4151480">
        <ele>556.3</ele>
        <time>2018-10-21T07:40:08Z</time>
      </trkpt>
      <trkpt lat="42.7537370" lon="-3.4151870">
        <ele>556.3</ele>
        <time>2018-10-21T07:40:09Z</time>
      </trkpt>
      <trkpt lat="42.7537630" lon="-3.4152230">
        <ele>556.3</ele>
        <time>2018-10-21T07:40:10Z</time>
      </trkpt>
      <trkpt lat="42.7537930" lon="-3.4152580">
        <ele>556.3</ele>
        <time>2018-10-21T07:40:11Z</time>
      </trkpt>
      <trkpt lat="42.7538230" lon="-3.4152970">
        <ele>557.2</ele>
        <time>2018-10-21T07:40:12Z</time>
      </trkpt>
      <trkpt lat="42.7538530" lon="-3.4153350">
        <ele>557.2</ele>
        <time>2018-10-21T07:40:13Z</time>
      </trkpt>
      <trkpt lat="42.7538850" lon="-3.4153720">
        <ele>557.2</ele>
        <time>2018-10-21T07:40:14Z</time>
      </trkpt>
      <trkpt lat="42.7539130" lon="-3.4154030">
        <ele>557.2</ele>
        <time>2018-10-21T07:40:15Z</time>
      </trkpt>
      <trkpt lat="42.7539420" lon="-3.4154430">
        <ele>557.2</ele>
        <time>2018-10-21T07:40:16Z</time>
      </trkpt>
      <trkpt lat="42.7539680" lon="-3.4154800">
        <ele>557.2</ele>
        <time>2018-10-21T07:40:17Z</time>
      </trkpt>
      <trkpt lat="42.7539970" lon="-3.4155120">
        <ele>558.2</ele>
        <time>2018-10-21T07:40:18Z</time>
      </trkpt>
      <trkpt lat="42.7540280" lon="-3.4155450">
        <ele>558.2</ele>
        <time>2018-10-21T07:40:19Z</time>
      </trkpt>
      <trkpt lat="42.7540620" lon="-3.4155850">
        <ele>558.2</ele>
        <time>2018-10-21T07:40:20Z</time>
      </trkpt>
      <trkpt lat="42.7540930" lon="-3.4156270">
        <ele>558.2</ele>
        <time>2018-10-21T07:40:21Z</time>
      </trkpt>
      <trkpt lat="42.7541250" lon="-3.4156700">
        <ele>558.2</ele>
        <time>2018-10-21T07:40:22Z</time>
      </trkpt>
      <trkpt lat="42.7541580" lon="-3.4157120">
        <ele>558.2</ele>
        <time>2018-10-21T07:40:23Z</time>
      </trkpt>
      <trkpt lat="42.7541930" lon="-3.4157550">
        <ele>559.3</ele>
        <time>2018-10-21T07:40:24Z</time>
      </trkpt>
      <trkpt lat="42.7542280" lon="-3.4157970">
        <ele>559.3</ele>
        <time>2018-10-21T07:40:25Z</time>
      </trkpt>
      <trkpt lat="42.7542650" lon="-3.4158400">
        <ele>559.3</ele>
        <time>2018-10-21T07:40:26Z</time>
      </trkpt>
      <trkpt lat="42.7543000" lon="-3.4158900">
        <ele>559.3</ele>
        <time>2018-10-21T07:40:27Z</time>
      </trkpt>
      <trkpt lat="42.7543370" lon="-3.4159380">
        <ele>559.3</ele>
        <time>2018-10-21T07:40:28Z</time>
      </trkpt>
      <trkpt lat="42.7543720" lon="-3.4159870">
        <ele>559.3</ele>
        <time>2018-10-21T07:40:29Z</time>
      </trkpt>
      <trkpt lat="42.7544100" lon="-3.4160330">
        <ele>559.3</ele>
        <time>2018-10-21T07:40:30Z</time>
      </trkpt>
      <trkpt lat="42.7544500" lon="-3.4160800">
        <ele>559.3</ele>
        <time>2018-10-21T07:40:31Z</time>
      </trkpt>
      <trkpt lat="42.7544880" lon="-3.4161320">
        <ele>559.3</ele>
        <time>2018-10-21T07:40:32Z</time>
      </trkpt>
      <trkpt lat="42.7545250" lon="-3.4161830">
        <ele>559.3</ele>
        <time>2018-10-21T07:40:33Z</time>
      </trkpt>
      <trkpt lat="42.7545620" lon="-3.4162370">
        <ele>560.2</ele>
        <time>2018-10-21T07:40:34Z</time>
      </trkpt>
      <trkpt lat="42.7545980" lon="-3.4162900">
        <ele>560.2</ele>
        <time>2018-10-21T07:40:35Z</time>
      </trkpt>
      <trkpt lat="42.7546350" lon="-3.4163480">
        <ele>560.2</ele>
        <time>2018-10-21T07:40:36Z</time>
      </trkpt>
      <trkpt lat="42.7546720" lon="-3.4164070">
        <ele>560.2</ele>
        <time>2018-10-21T07:40:37Z</time>
      </trkpt>
      <trkpt lat="42.7547070" lon="-3.4164650">
        <ele>560.2</ele>
        <time>2018-10-21T07:40:38Z</time>
      </trkpt>
      <trkpt lat="42.7547430" lon="-3.4165220">
        <ele>560.2</ele>
        <time>2018-10-21T07:40:39Z</time>
      </trkpt>
      <trkpt lat="42.7547780" lon="-3.4165780">
        <ele>560.2</ele>
        <time>2018-10-21T07:40:40Z</time>
      </trkpt>
      <trkpt lat="42.7548100" lon="-3.4166380">
        <ele>560.2</ele>
        <time>2018-10-21T07:40:41Z</time>
      </trkpt>
      <trkpt lat="42.7548400" lon="-3.4167000">
        <ele>560.2</ele>
        <time>2018-10-21T07:40:42Z</time>
      </trkpt>
      <trkpt lat="42.7548700" lon="-3.4167600">
        <ele>560.2</ele>
        <time>2018-10-21T07:40:43Z</time>
      </trkpt>
      <trkpt lat="42.7549000" lon="-3.4168220">
        <ele>560.2</ele>
        <time>2018-10-21T07:40:44Z</time>
      </trkpt>
      <trkpt lat="42.7549280" lon="-3.4168820">
        <ele>560.2</ele>
        <time>2018-10-21T07:40:45Z</time>
      </trkpt>
      <trkpt lat="42.7549570" lon="-3.4169430">
        <ele>560.2</ele>
        <time>2018-10-21T07:40:46Z</time>
      </trkpt>
      <trkpt lat="42.7549830" lon="-3.4170050">
        <ele>560.2</ele>
        <time>2018-10-21T07:40:47Z</time>
      </trkpt>
      <trkpt lat="42.7550080" lon="-3.4170700">
        <ele>560.2</ele>
        <time>2018-10-21T07:40:48Z</time>
      </trkpt>
      <trkpt lat="42.7550320" lon="-3.4171350">
        <ele>560.2</ele>
        <time>2018-10-21T07:40:49Z</time>
      </trkpt>
      <trkpt lat="42.7550550" lon="-3.4172000">
        <ele>560.2</ele>
        <time>2018-10-21T07:40:50Z</time>
      </trkpt>
      <trkpt lat="42.7550780" lon="-3.4172680">
        <ele>560.2</ele>
        <time>2018-10-21T07:40:51Z</time>
      </trkpt>
      <trkpt lat="42.7551000" lon="-3.4173350">
        <ele>560.2</ele>
        <time>2018-10-21T07:40:52Z</time>
      </trkpt>
      <trkpt lat="42.7551200" lon="-3.4174020">
        <ele>560.2</ele>
        <time>2018-10-21T07:40:53Z</time>
      </trkpt>
      <trkpt lat="42.7551380" lon="-3.4174700">
        <ele>560.2</ele>
        <time>2018-10-21T07:40:54Z</time>
      </trkpt>
      <trkpt lat="42.7551550" lon="-3.4175370">
        <ele>560.2</ele>
        <time>2018-10-21T07:40:55Z</time>
      </trkpt>
      <trkpt lat="42.7551720" lon="-3.4176070">
        <ele>560.2</ele>
        <time>2018-10-21T07:40:56Z</time>
      </trkpt>
      <trkpt lat="42.7551870" lon="-3.4176770">
        <ele>560.2</ele>
        <time>2018-10-21T07:40:57Z</time>
      </trkpt>
      <trkpt lat="42.7552050" lon="-3.4177470">
        <ele>561.3</ele>
        <time>2018-10-21T07:40:58Z</time>
      </trkpt>
      <trkpt lat="42.7552180" lon="-3.4178170">
        <ele>561.3</ele>
        <time>2018-10-21T07:40:59Z</time>
      </trkpt>
      <trkpt lat="42.7552320" lon="-3.4178870">
        <ele>561.3</ele>
        <time>2018-10-21T07:41:00Z</time>
      </trkpt>
      <trkpt lat="42.7552450" lon="-3.4179570">
        <ele>561.3</ele>
        <time>2018-10-21T07:41:01Z</time>
      </trkpt>
      <trkpt lat="42.7552570" lon="-3.4180250">
        <ele>561.3</ele>
        <time>2018-10-21T07:41:02Z</time>
      </trkpt>
      <trkpt lat="42.7552650" lon="-3.4180930">
        <ele>561.3</ele>
        <time>2018-10-21T07:41:03Z</time>
      </trkpt>
      <trkpt lat="42.7552730" lon="-3.4181600">
        <ele>561.3</ele>
        <time>2018-10-21T07:41:04Z</time>
      </trkpt>
      <trkpt lat="42.7552800" lon="-3.4182280">
        <ele>561.3</ele>
        <time>2018-10-21T07:41:05Z</time>
      </trkpt>
      <trkpt lat="42.7552880" lon="-3.4182970">
        <ele>561.3</ele>
        <time>2018-10-21T07:41:06Z</time>
      </trkpt>
      <trkpt lat="42.7552950" lon="-3.4183650">
        <ele>561.3</ele>
        <time>2018-10-21T07:41:07Z</time>
      </trkpt>
      <trkpt lat="42.7553000" lon="-3.4184350">
        <ele>562.2</ele>
        <time>2018-10-21T07:41:08Z</time>
      </trkpt>
      <trkpt lat="42.7553050" lon="-3.4185050">
        <ele>562.2</ele>
        <time>2018-10-21T07:41:09Z</time>
      </trkpt>
      <trkpt lat="42.7553100" lon="-3.4185770">
        <ele>562.2</ele>
        <time>2018-10-21T07:41:10Z</time>
      </trkpt>
      <trkpt lat="42.7553150" lon="-3.4186480">
        <ele>562.2</ele>
        <time>2018-10-21T07:41:11Z</time>
      </trkpt>
      <trkpt lat="42.7553180" lon="-3.4187200">
        <ele>562.2</ele>
        <time>2018-10-21T07:41:12Z</time>
      </trkpt>
      <trkpt lat="42.7553250" lon="-3.4187920">
        <ele>562.2</ele>
        <time>2018-10-21T07:41:13Z</time>
      </trkpt>
      <trkpt lat="42.7553300" lon="-3.4188620">
        <ele>562.2</ele>
        <time>2018-10-21T07:41:14Z</time>
      </trkpt>
      <trkpt lat="42.7553320" lon="-3.4189330">
        <ele>562.2</ele>
        <time>2018-10-21T07:41:15Z</time>
      </trkpt>
      <trkpt lat="42.7553350" lon="-3.4190050">
        <ele>562.2</ele>
        <time>2018-10-21T07:41:16Z</time>
      </trkpt>
      <trkpt lat="42.7553370" lon="-3.4190770">
        <ele>562.2</ele>
        <time>2018-10-21T07:41:17Z</time>
      </trkpt>
      <trkpt lat="42.7553430" lon="-3.4191480">
        <ele>562.2</ele>
        <time>2018-10-21T07:41:18Z</time>
      </trkpt>
      <trkpt lat="42.7553470" lon="-3.4192170">
        <ele>562.2</ele>
        <time>2018-10-21T07:41:19Z</time>
      </trkpt>
      <trkpt lat="42.7553520" lon="-3.4192870">
        <ele>562.2</ele>
        <time>2018-10-21T07:41:20Z</time>
      </trkpt>
      <trkpt lat="42.7553550" lon="-3.4193550">
        <ele>562.2</ele>
        <time>2018-10-21T07:41:21Z</time>
      </trkpt>
      <trkpt lat="42.7553570" lon="-3.4194250">
        <ele>562.2</ele>
        <time>2018-10-21T07:41:22Z</time>
      </trkpt>
      <trkpt lat="42.7553580" lon="-3.4194930">
        <ele>562.2</ele>
        <time>2018-10-21T07:41:23Z</time>
      </trkpt>
      <trkpt lat="42.7553620" lon="-3.4195620">
        <ele>563.3</ele>
        <time>2018-10-21T07:41:24Z</time>
      </trkpt>
      <trkpt lat="42.7553670" lon="-3.4196300">
        <ele>563.3</ele>
        <time>2018-10-21T07:41:25Z</time>
      </trkpt>
      <trkpt lat="42.7553730" lon="-3.4197000">
        <ele>563.3</ele>
        <time>2018-10-21T07:41:26Z</time>
      </trkpt>
      <trkpt lat="42.7553780" lon="-3.4197680">
        <ele>563.3</ele>
        <time>2018-10-21T07:41:27Z</time>
      </trkpt>
      <trkpt lat="42.7553820" lon="-3.4198370">
        <ele>563.3</ele>
        <time>2018-10-21T07:41:28Z</time>
      </trkpt>
      <trkpt lat="42.7553850" lon="-3.4199050">
        <ele>563.3</ele>
        <time>2018-10-21T07:41:29Z</time>
      </trkpt>
      <trkpt lat="42.7553900" lon="-3.4199730">
        <ele>564.2</ele>
        <time>2018-10-21T07:41:30Z</time>
      </trkpt>
      <trkpt lat="42.7553930" lon="-3.4200420">
        <ele>564.2</ele>
        <time>2018-10-21T07:41:31Z</time>
      </trkpt>
      <trkpt lat="42.7553980" lon="-3.4201070">
        <ele>564.2</ele>
        <time>2018-10-21T07:41:32Z</time>
      </trkpt>
      <trkpt lat="42.7554080" lon="-3.4201670">
        <ele>564.2</ele>
        <time>2018-10-21T07:41:33Z</time>
      </trkpt>
      <trkpt lat="42.7554180" lon="-3.4202280">
        <ele>564.2</ele>
        <time>2018-10-21T07:41:34Z</time>
      </trkpt>
      <trkpt lat="42.7554280" lon="-3.4202930">
        <ele>564.2</ele>
        <time>2018-10-21T07:41:35Z</time>
      </trkpt>
      <trkpt lat="42.7554370" lon="-3.4203600">
        <ele>564.2</ele>
        <time>2018-10-21T07:41:36Z</time>
      </trkpt>
      <trkpt lat="42.7554430" lon="-3.4204270">
        <ele>564.2</ele>
        <time>2018-10-21T07:41:37Z</time>
      </trkpt>
      <trkpt lat="42.7554530" lon="-3.4204920">
        <ele>564.2</ele>
        <time>2018-10-21T07:41:38Z</time>
      </trkpt>
      <trkpt lat="42.7554620" lon="-3.4205580">
        <ele>564.2</ele>
        <time>2018-10-21T07:41:39Z</time>
      </trkpt>
      <trkpt lat="42.7554700" lon="-3.4206250">
        <ele>564.2</ele>
        <time>2018-10-21T07:41:40Z</time>
      </trkpt>
      <trkpt lat="42.7554770" lon="-3.4206950">
        <ele>564.2</ele>
        <time>2018-10-21T07:41:41Z</time>
      </trkpt>
      <trkpt lat="42.7554870" lon="-3.4207680">
        <ele>565.3</ele>
        <time>2018-10-21T07:41:42Z</time>
      </trkpt>
      <trkpt lat="42.7554970" lon="-3.4208420">
        <ele>565.3</ele>
        <time>2018-10-21T07:41:43Z</time>
      </trkpt>
      <trkpt lat="42.7555070" lon="-3.4209150">
        <ele>565.3</ele>
        <time>2018-10-21T07:41:44Z</time>
      </trkpt>
      <trkpt lat="42.7555180" lon="-3.4209850">
        <ele>565.3</ele>
        <time>2018-10-21T07:41:45Z</time>
      </trkpt>
      <trkpt lat="42.7555300" lon="-3.4210550">
        <ele>565.3</ele>
        <time>2018-10-21T07:41:46Z</time>
      </trkpt>
      <trkpt lat="42.7555420" lon="-3.4211230">
        <ele>565.3</ele>
        <time>2018-10-21T07:41:47Z</time>
      </trkpt>
      <trkpt lat="42.7555570" lon="-3.4211920">
        <ele>566.2</ele>
        <time>2018-10-21T07:41:48Z</time>
      </trkpt>
      <trkpt lat="42.7555700" lon="-3.4212600">
        <ele>566.2</ele>
        <time>2018-10-21T07:41:49Z</time>
      </trkpt>
      <trkpt lat="42.7555820" lon="-3.4213270">
        <ele>566.2</ele>
        <time>2018-10-21T07:41:50Z</time>
      </trkpt>
      <trkpt lat="42.7555930" lon="-3.4213920">
        <ele>566.2</ele>
        <time>2018-10-21T07:41:51Z</time>
      </trkpt>
      <trkpt lat="42.7556070" lon="-3.4214580">
        <ele>566.2</ele>
        <time>2018-10-21T07:41:52Z</time>
      </trkpt>
      <trkpt lat="42.7556220" lon="-3.4215250">
        <ele>566.2</ele>
        <time>2018-10-21T07:41:53Z</time>
      </trkpt>
      <trkpt lat="42.7556370" lon="-3.4215920">
        <ele>567.2</ele>
        <time>2018-10-21T07:41:54Z</time>
      </trkpt>
      <trkpt lat="42.7556520" lon="-3.4216600">
        <ele>567.2</ele>
        <time>2018-10-21T07:41:55Z</time>
      </trkpt>
      <trkpt lat="42.7556700" lon="-3.4217270">
        <ele>567.2</ele>
        <time>2018-10-21T07:41:56Z</time>
      </trkpt>
      <trkpt lat="42.7556900" lon="-3.4217950">
        <ele>567.2</ele>
        <time>2018-10-21T07:41:57Z</time>
      </trkpt>
      <trkpt lat="42.7557080" lon="-3.4218650">
        <ele>567.2</ele>
        <time>2018-10-21T07:41:58Z</time>
      </trkpt>
      <trkpt lat="42.7557270" lon="-3.4219350">
        <ele>567.2</ele>
        <time>2018-10-21T07:41:59Z</time>
      </trkpt>
      <trkpt lat="42.7557470" lon="-3.4220050">
        <ele>567.2</ele>
        <time>2018-10-21T07:42:00Z</time>
      </trkpt>
      <trkpt lat="42.7557650" lon="-3.4220750">
        <ele>567.2</ele>
        <time>2018-10-21T07:42:01Z</time>
      </trkpt>
      <trkpt lat="42.7557850" lon="-3.4221430">
        <ele>567.2</ele>
        <time>2018-10-21T07:42:02Z</time>
      </trkpt>
      <trkpt lat="42.7558070" lon="-3.4222130">
        <ele>567.2</ele>
        <time>2018-10-21T07:42:03Z</time>
      </trkpt>
      <trkpt lat="42.7558280" lon="-3.4222820">
        <ele>567.2</ele>
        <time>2018-10-21T07:42:04Z</time>
      </trkpt>
      <trkpt lat="42.7558500" lon="-3.4223500">
        <ele>567.2</ele>
        <time>2018-10-21T07:42:05Z</time>
      </trkpt>
      <trkpt lat="42.7558720" lon="-3.4224180">
        <ele>567.2</ele>
        <time>2018-10-21T07:42:06Z</time>
      </trkpt>
      <trkpt lat="42.7558930" lon="-3.4224850">
        <ele>567.2</ele>
        <time>2018-10-21T07:42:07Z</time>
      </trkpt>
      <trkpt lat="42.7559150" lon="-3.4225520">
        <ele>567.2</ele>
        <time>2018-10-21T07:42:08Z</time>
      </trkpt>
      <trkpt lat="42.7559380" lon="-3.4226170">
        <ele>567.2</ele>
        <time>2018-10-21T07:42:09Z</time>
      </trkpt>
      <trkpt lat="42.7559600" lon="-3.4226800">
        <ele>567.2</ele>
        <time>2018-10-21T07:42:10Z</time>
      </trkpt>
      <trkpt lat="42.7559820" lon="-3.4227430">
        <ele>567.2</ele>
        <time>2018-10-21T07:42:11Z</time>
      </trkpt>
      <trkpt lat="42.7560050" lon="-3.4228050">
        <ele>567.2</ele>
        <time>2018-10-21T07:42:12Z</time>
      </trkpt>
      <trkpt lat="42.7560300" lon="-3.4228650">
        <ele>567.2</ele>
        <time>2018-10-21T07:42:13Z</time>
      </trkpt>
      <trkpt lat="42.7560530" lon="-3.4229250">
        <ele>568.3</ele>
        <time>2018-10-21T07:42:14Z</time>
      </trkpt>
      <trkpt lat="42.7560770" lon="-3.4229850">
        <ele>568.3</ele>
        <time>2018-10-21T07:42:15Z</time>
      </trkpt>
      <trkpt lat="42.7560970" lon="-3.4230420">
        <ele>568.3</ele>
        <time>2018-10-21T07:42:16Z</time>
      </trkpt>
      <trkpt lat="42.7561230" lon="-3.4230980">
        <ele>568.3</ele>
        <time>2018-10-21T07:42:17Z</time>
      </trkpt>
      <trkpt lat="42.7561470" lon="-3.4231550">
        <ele>568.3</ele>
        <time>2018-10-21T07:42:18Z</time>
      </trkpt>
      <trkpt lat="42.7561720" lon="-3.4232120">
        <ele>568.3</ele>
        <time>2018-10-21T07:42:19Z</time>
      </trkpt>
      <trkpt lat="42.7561970" lon="-3.4232680">
        <ele>568.3</ele>
        <time>2018-10-21T07:42:20Z</time>
      </trkpt>
      <trkpt lat="42.7562200" lon="-3.4233230">
        <ele>568.3</ele>
        <time>2018-10-21T07:42:21Z</time>
      </trkpt>
      <trkpt lat="42.7562430" lon="-3.4233770">
        <ele>569.2</ele>
        <time>2018-10-21T07:42:22Z</time>
      </trkpt>
      <trkpt lat="42.7562680" lon="-3.4234320">
        <ele>569.2</ele>
        <time>2018-10-21T07:42:23Z</time>
      </trkpt>
      <trkpt lat="42.7562920" lon="-3.4234850">
        <ele>569.2</ele>
        <time>2018-10-21T07:42:24Z</time>
      </trkpt>
      <trkpt lat="42.7563170" lon="-3.4235350">
        <ele>569.2</ele>
        <time>2018-10-21T07:42:25Z</time>
      </trkpt>
      <trkpt lat="42.7563420" lon="-3.4235850">
        <ele>569.2</ele>
        <time>2018-10-21T07:42:26Z</time>
      </trkpt>
      <trkpt lat="42.7563670" lon="-3.4236330">
        <ele>569.2</ele>
        <time>2018-10-21T07:42:27Z</time>
      </trkpt>
      <trkpt lat="42.7563920" lon="-3.4236820">
        <ele>569.2</ele>
        <time>2018-10-21T07:42:28Z</time>
      </trkpt>
      <trkpt lat="42.7564170" lon="-3.4237300">
        <ele>569.2</ele>
        <time>2018-10-21T07:42:29Z</time>
      </trkpt>
      <trkpt lat="42.7564420" lon="-3.4237780">
        <ele>570.3</ele>
        <time>2018-10-21T07:42:30Z</time>
      </trkpt>
      <trkpt lat="42.7564700" lon="-3.4238250">
        <ele>570.3</ele>
        <time>2018-10-21T07:42:31Z</time>
      </trkpt>
      <trkpt lat="42.7564970" lon="-3.4238720">
        <ele>570.3</ele>
        <time>2018-10-21T07:42:32Z</time>
      </trkpt>
      <trkpt lat="42.7565230" lon="-3.4239150">
        <ele>570.3</ele>
        <time>2018-10-21T07:42:33Z</time>
      </trkpt>
      <trkpt lat="42.7565480" lon="-3.4239630">
        <ele>571.2</ele>
        <time>2018-10-21T07:42:34Z</time>
      </trkpt>
      <trkpt lat="42.7565700" lon="-3.4240100">
        <ele>571.2</ele>
        <time>2018-10-21T07:42:35Z</time>
      </trkpt>
      <trkpt lat="42.7565920" lon="-3.4240550">
        <ele>571.2</ele>
        <time>2018-10-21T07:42:36Z</time>
      </trkpt>
      <trkpt lat="42.7566170" lon="-3.4241020">
        <ele>571.2</ele>
        <time>2018-10-21T07:42:37Z</time>
      </trkpt>
      <trkpt lat="42.7566420" lon="-3.4241450">
        <ele>572.3</ele>
        <time>2018-10-21T07:42:38Z</time>
      </trkpt>
      <trkpt lat="42.7566680" lon="-3.4241870">
        <ele>572.3</ele>
        <time>2018-10-21T07:42:39Z</time>
      </trkpt>
      <trkpt lat="42.7566950" lon="-3.4242300">
        <ele>572.3</ele>
        <time>2018-10-21T07:42:40Z</time>
      </trkpt>
      <trkpt lat="42.7567230" lon="-3.4242700">
        <ele>572.3</ele>
        <time>2018-10-21T07:42:41Z</time>
      </trkpt>
      <trkpt lat="42.7567520" lon="-3.4243130">
        <ele>572.3</ele>
        <time>2018-10-21T07:42:42Z</time>
      </trkpt>
      <trkpt lat="42.7567780" lon="-3.4243550">
        <ele>572.3</ele>
        <time>2018-10-21T07:42:43Z</time>
      </trkpt>
      <trkpt lat="42.7568050" lon="-3.4244000">
        <ele>573.2</ele>
        <time>2018-10-21T07:42:44Z</time>
      </trkpt>
      <trkpt lat="42.7568300" lon="-3.4244470">
        <ele>573.2</ele>
        <time>2018-10-21T07:42:45Z</time>
      </trkpt>
      <trkpt lat="42.7568570" lon="-3.4244920">
        <ele>573.2</ele>
        <time>2018-10-21T07:42:46Z</time>
      </trkpt>
      <trkpt lat="42.7568820" lon="-3.4245330">
        <ele>573.2</ele>
        <time>2018-10-21T07:42:47Z</time>
      </trkpt>
      <trkpt lat="42.7569080" lon="-3.4245770">
        <ele>574.3</ele>
        <time>2018-10-21T07:42:48Z</time>
      </trkpt>
      <trkpt lat="42.7569350" lon="-3.4246200">
        <ele>574.3</ele>
        <time>2018-10-21T07:42:49Z</time>
      </trkpt>
      <trkpt lat="42.7569620" lon="-3.4246650">
        <ele>574.3</ele>
        <time>2018-10-21T07:42:50Z</time>
      </trkpt>
      <trkpt lat="42.7569900" lon="-3.4247080">
        <ele>574.3</ele>
        <time>2018-10-21T07:42:51Z</time>
      </trkpt>
      <trkpt lat="42.7570200" lon="-3.4247500">
        <ele>574.3</ele>
        <time>2018-10-21T07:42:52Z</time>
      </trkpt>
      <trkpt lat="42.7570480" lon="-3.4247930">
        <ele>574.3</ele>
        <time>2018-10-21T07:42:53Z</time>
      </trkpt>
      <trkpt lat="42.7570750" lon="-3.4248350">
        <ele>575.2</ele>
        <time>2018-10-21T07:42:54Z</time>
      </trkpt>
      <trkpt lat="42.7571020" lon="-3.4248730">
        <ele>575.2</ele>
        <time>2018-10-21T07:42:55Z</time>
      </trkpt>
      <trkpt lat="42.7571270" lon="-3.4249150">
        <ele>575.2</ele>
        <time>2018-10-21T07:42:56Z</time>
      </trkpt>
      <trkpt lat="42.7571520" lon="-3.4249580">
        <ele>575.2</ele>
        <time>2018-10-21T07:42:57Z</time>
      </trkpt>
      <trkpt lat="42.7571750" lon="-3.4250050">
        <ele>575.2</ele>
        <time>2018-10-21T07:42:58Z</time>
      </trkpt>
      <trkpt lat="42.7571980" lon="-3.4250470">
        <ele>575.2</ele>
        <time>2018-10-21T07:42:59Z</time>
      </trkpt>
      <trkpt lat="42.7572250" lon="-3.4250850">
        <ele>576.2</ele>
        <time>2018-10-21T07:43:00Z</time>
      </trkpt>
      <trkpt lat="42.7572480" lon="-3.4251230">
        <ele>576.2</ele>
        <time>2018-10-21T07:43:01Z</time>
      </trkpt>
      <trkpt lat="42.7572730" lon="-3.4251620">
        <ele>576.2</ele>
        <time>2018-10-21T07:43:02Z</time>
      </trkpt>
      <trkpt lat="42.7573000" lon="-3.4252030">
        <ele>576.2</ele>
        <time>2018-10-21T07:43:03Z</time>
      </trkpt>
      <trkpt lat="42.7573230" lon="-3.4252430">
        <ele>577.3</ele>
        <time>2018-10-21T07:43:04Z</time>
      </trkpt>
      <trkpt lat="42.7573470" lon="-3.4252850">
        <ele>577.3</ele>
        <time>2018-10-21T07:43:05Z</time>
      </trkpt>
      <trkpt lat="42.7573680" lon="-3.4253250">
        <ele>577.3</ele>
        <time>2018-10-21T07:43:06Z</time>
      </trkpt>
      <trkpt lat="42.7573920" lon="-3.4253600">
        <ele>577.3</ele>
        <time>2018-10-21T07:43:07Z</time>
      </trkpt>
      <trkpt lat="42.7574170" lon="-3.4253980">
        <ele>577.3</ele>
        <time>2018-10-21T07:43:08Z</time>
      </trkpt>
      <trkpt lat="42.7574430" lon="-3.4254420">
        <ele>577.3</ele>
        <time>2018-10-21T07:43:09Z</time>
      </trkpt>
      <trkpt lat="42.7574670" lon="-3.4254820">
        <ele>578.2</ele>
        <time>2018-10-21T07:43:10Z</time>
      </trkpt>
      <trkpt lat="42.7574920" lon="-3.4255180">
        <ele>578.2</ele>
        <time>2018-10-21T07:43:11Z</time>
      </trkpt>
      <trkpt lat="42.7575170" lon="-3.4255570">
        <ele>578.2</ele>
        <time>2018-10-21T07:43:12Z</time>
      </trkpt>
      <trkpt lat="42.7575420" lon="-3.4255980">
        <ele>578.2</ele>
        <time>2018-10-21T07:43:13Z</time>
      </trkpt>
      <trkpt lat="42.7575630" lon="-3.4256370">
        <ele>579.3</ele>
        <time>2018-10-21T07:43:14Z</time>
      </trkpt>
      <trkpt lat="42.7575880" lon="-3.4256770">
        <ele>579.3</ele>
        <time>2018-10-21T07:43:15Z</time>
      </trkpt>
      <trkpt lat="42.7576130" lon="-3.4257150">
        <ele>579.3</ele>
        <time>2018-10-21T07:43:16Z</time>
      </trkpt>
      <trkpt lat="42.7576370" lon="-3.4257530">
        <ele>579.3</ele>
        <time>2018-10-21T07:43:17Z</time>
      </trkpt>
      <trkpt lat="42.7576620" lon="-3.4257880">
        <ele>580.2</ele>
        <time>2018-10-21T07:43:18Z</time>
      </trkpt>
      <trkpt lat="42.7576870" lon="-3.4258250">
        <ele>580.2</ele>
        <time>2018-10-21T07:43:19Z</time>
      </trkpt>
      <trkpt lat="42.7577100" lon="-3.4258620">
        <ele>580.2</ele>
        <time>2018-10-21T07:43:20Z</time>
      </trkpt>
      <trkpt lat="42.7577350" lon="-3.4258980">
        <ele>580.2</ele>
        <time>2018-10-21T07:43:21Z</time>
      </trkpt>
      <trkpt lat="42.7577570" lon="-3.4259330">
        <ele>581.3</ele>
        <time>2018-10-21T07:43:22Z</time>
      </trkpt>
      <trkpt lat="42.7577800" lon="-3.4259700">
        <ele>581.3</ele>
        <time>2018-10-21T07:43:23Z</time>
      </trkpt>
      <trkpt lat="42.7578020" lon="-3.4260050">
        <ele>581.3</ele>
        <time>2018-10-21T07:43:24Z</time>
      </trkpt>
      <trkpt lat="42.7578230" lon="-3.4260370">
        <ele>581.3</ele>
        <time>2018-10-21T07:43:25Z</time>
      </trkpt>
      <trkpt lat="42.7578450" lon="-3.4260680">
        <ele>582.2</ele>
        <time>2018-10-21T07:43:26Z</time>
      </trkpt>
      <trkpt lat="42.7578670" lon="-3.4260980">
        <ele>582.2</ele>
        <time>2018-10-21T07:43:27Z</time>
      </trkpt>
      <trkpt lat="42.7578880" lon="-3.4261300">
        <ele>582.2</ele>
        <time>2018-10-21T07:43:28Z</time>
      </trkpt>
      <trkpt lat="42.7579120" lon="-3.4261600">
        <ele>582.2</ele>
        <time>2018-10-21T07:43:29Z</time>
      </trkpt>
      <trkpt lat="42.7579300" lon="-3.4261900">
        <ele>583.2</ele>
        <time>2018-10-21T07:43:30Z</time>
      </trkpt>
      <trkpt lat="42.7579500" lon="-3.4262200">
        <ele>583.2</ele>
        <time>2018-10-21T07:43:31Z</time>
      </trkpt>
      <trkpt lat="42.7579730" lon="-3.4262520">
        <ele>583.2</ele>
        <time>2018-10-21T07:43:32Z</time>
      </trkpt>
      <trkpt lat="42.7579950" lon="-3.4262850">
        <ele>583.2</ele>
        <time>2018-10-21T07:43:33Z</time>
      </trkpt>
      <trkpt lat="42.7580150" lon="-3.4263200">
        <ele>584.3</ele>
        <time>2018-10-21T07:43:34Z</time>
      </trkpt>
      <trkpt lat="42.7580330" lon="-3.4263530">
        <ele>584.3</ele>
        <time>2018-10-21T07:43:35Z</time>
      </trkpt>
      <trkpt lat="42.7580550" lon="-3.4263900">
        <ele>584.3</ele>
        <time>2018-10-21T07:43:36Z</time>
      </trkpt>
      <trkpt lat="42.7580750" lon="-3.4264300">
        <ele>584.3</ele>
        <time>2018-10-21T07:43:37Z</time>
      </trkpt>
      <trkpt lat="42.7580930" lon="-3.4264700">
        <ele>584.3</ele>
        <time>2018-10-21T07:43:38Z</time>
      </trkpt>
      <trkpt lat="42.7581130" lon="-3.4265100">
        <ele>584.3</ele>
        <time>2018-10-21T07:43:39Z</time>
      </trkpt>
      <trkpt lat="42.7581300" lon="-3.4265520">
        <ele>584.3</ele>
        <time>2018-10-21T07:43:40Z</time>
      </trkpt>
      <trkpt lat="42.7581500" lon="-3.4265920">
        <ele>584.3</ele>
        <time>2018-10-21T07:43:41Z</time>
      </trkpt>
      <trkpt lat="42.7581730" lon="-3.4266280">
        <ele>585.2</ele>
        <time>2018-10-21T07:43:42Z</time>
      </trkpt>
      <trkpt lat="42.7581970" lon="-3.4266650">
        <ele>585.2</ele>
        <time>2018-10-21T07:43:43Z</time>
      </trkpt>
      <trkpt lat="42.7582180" lon="-3.4267050">
        <ele>585.2</ele>
        <time>2018-10-21T07:43:44Z</time>
      </trkpt>
      <trkpt lat="42.7582420" lon="-3.4267470">
        <ele>585.2</ele>
        <time>2018-10-21T07:43:45Z</time>
      </trkpt>
      <trkpt lat="42.7582630" lon="-3.4267880">
        <ele>586.3</ele>
        <time>2018-10-21T07:43:46Z</time>
      </trkpt>
      <trkpt lat="42.7582830" lon="-3.4268300">
        <ele>586.3</ele>
        <time>2018-10-21T07:43:47Z</time>
      </trkpt>
      <trkpt lat="42.7583030" lon="-3.4268700">
        <ele>586.3</ele>
        <time>2018-10-21T07:43:48Z</time>
      </trkpt>
      <trkpt lat="42.7583250" lon="-3.4269080">
        <ele>586.3</ele>
        <time>2018-10-21T07:43:49Z</time>
      </trkpt>
      <trkpt lat="42.7583470" lon="-3.4269450">
        <ele>586.3</ele>
        <time>2018-10-21T07:43:50Z</time>
      </trkpt>
      <trkpt lat="42.7583700" lon="-3.4269820">
        <ele>586.3</ele>
        <time>2018-10-21T07:43:51Z</time>
      </trkpt>
      <trkpt lat="42.7583930" lon="-3.4270150">
        <ele>587.2</ele>
        <time>2018-10-21T07:43:52Z</time>
      </trkpt>
      <trkpt lat="42.7584130" lon="-3.4270450">
        <ele>587.2</ele>
        <time>2018-10-21T07:43:53Z</time>
      </trkpt>
      <trkpt lat="42.7584350" lon="-3.4270770">
        <ele>587.2</ele>
        <time>2018-10-21T07:43:54Z</time>
      </trkpt>
      <trkpt lat="42.7584580" lon="-3.4271070">
        <ele>587.2</ele>
        <time>2018-10-21T07:43:55Z</time>
      </trkpt>
      <trkpt lat="42.7584820" lon="-3.4271380">
        <ele>588.3</ele>
        <time>2018-10-21T07:43:56Z</time>
      </trkpt>
      <trkpt lat="42.7585070" lon="-3.4271730">
        <ele>588.3</ele>
        <time>2018-10-21T07:43:57Z</time>
      </trkpt>
      <trkpt lat="42.7585330" lon="-3.4272070">
        <ele>588.3</ele>
        <time>2018-10-21T07:43:58Z</time>
      </trkpt>
      <trkpt lat="42.7585600" lon="-3.4272400">
        <ele>588.3</ele>
        <time>2018-10-21T07:43:59Z</time>
      </trkpt>
      <trkpt lat="42.7585870" lon="-3.4272750">
        <ele>589.2</ele>
        <time>2018-10-21T07:44:00Z</time>
      </trkpt>
      <trkpt lat="42.7586150" lon="-3.4273130">
        <ele>589.2</ele>
        <time>2018-10-21T07:44:01Z</time>
      </trkpt>
      <trkpt lat="42.7586450" lon="-3.4273480">
        <ele>589.2</ele>
        <time>2018-10-21T07:44:02Z</time>
      </trkpt>
      <trkpt lat="42.7586770" lon="-3.4273830">
        <ele>589.2</ele>
        <time>2018-10-21T07:44:03Z</time>
      </trkpt>
      <trkpt lat="42.7587070" lon="-3.4274130">
        <ele>589.2</ele>
        <time>2018-10-21T07:44:04Z</time>
      </trkpt>
      <trkpt lat="42.7587380" lon="-3.4274430">
        <ele>589.2</ele>
        <time>2018-10-21T07:44:05Z</time>
      </trkpt>
      <trkpt lat="42.7587720" lon="-3.4274680">
        <ele>589.2</ele>
        <time>2018-10-21T07:44:06Z</time>
      </trkpt>
      <trkpt lat="42.7588070" lon="-3.4274880">
        <ele>589.2</ele>
        <time>2018-10-21T07:44:07Z</time>
      </trkpt>
      <trkpt lat="42.7588450" lon="-3.4275050">
        <ele>590.3</ele>
        <time>2018-10-21T07:44:08Z</time>
      </trkpt>
      <trkpt lat="42.7588830" lon="-3.4275200">
        <ele>590.3</ele>
        <time>2018-10-21T07:44:09Z</time>
      </trkpt>
      <trkpt lat="42.7589230" lon="-3.4275320">
        <ele>590.3</ele>
        <time>2018-10-21T07:44:10Z</time>
      </trkpt>
      <trkpt lat="42.7589630" lon="-3.4275420">
        <ele>590.3</ele>
        <time>2018-10-21T07:44:11Z</time>
      </trkpt>
      <trkpt lat="42.7590020" lon="-3.4275480">
        <ele>590.3</ele>
        <time>2018-10-21T07:44:12Z</time>
      </trkpt>
      <trkpt lat="42.7590400" lon="-3.4275550">
        <ele>590.3</ele>
        <time>2018-10-21T07:44:13Z</time>
      </trkpt>
      <trkpt lat="42.7590780" lon="-3.4275620">
        <ele>591.2</ele>
        <time>2018-10-21T07:44:14Z</time>
      </trkpt>
      <trkpt lat="42.7591150" lon="-3.4275700">
        <ele>591.2</ele>
        <time>2018-10-21T07:44:15Z</time>
      </trkpt>
      <trkpt lat="42.7591500" lon="-3.4275800">
        <ele>591.2</ele>
        <time>2018-10-21T07:44:16Z</time>
      </trkpt>
      <trkpt lat="42.7591870" lon="-3.4275920">
        <ele>591.2</ele>
        <time>2018-10-21T07:44:17Z</time>
      </trkpt>
      <trkpt lat="42.7592220" lon="-3.4276050">
        <ele>591.2</ele>
        <time>2018-10-21T07:44:18Z</time>
      </trkpt>
      <trkpt lat="42.7592550" lon="-3.4276220">
        <ele>591.2</ele>
        <time>2018-10-21T07:44:19Z</time>
      </trkpt>
      <trkpt lat="42.7592900" lon="-3.4276400">
        <ele>592.2</ele>
        <time>2018-10-21T07:44:20Z</time>
      </trkpt>
      <trkpt lat="42.7593220" lon="-3.4276630">
        <ele>592.2</ele>
        <time>2018-10-21T07:44:21Z</time>
      </trkpt>
      <trkpt lat="42.7593530" lon="-3.4276880">
        <ele>592.2</ele>
        <time>2018-10-21T07:44:22Z</time>
      </trkpt>
      <trkpt lat="42.7593870" lon="-3.4277180">
        <ele>592.2</ele>
        <time>2018-10-21T07:44:23Z</time>
      </trkpt>
      <trkpt lat="42.7594170" lon="-3.4277550">
        <ele>592.2</ele>
        <time>2018-10-21T07:44:24Z</time>
      </trkpt>
      <trkpt lat="42.7594470" lon="-3.4277930">
        <ele>592.2</ele>
        <time>2018-10-21T07:44:25Z</time>
      </trkpt>
      <trkpt lat="42.7594750" lon="-3.4278330">
        <ele>592.2</ele>
        <time>2018-10-21T07:44:26Z</time>
      </trkpt>
      <trkpt lat="42.7595030" lon="-3.4278770">
        <ele>592.2</ele>
        <time>2018-10-21T07:44:27Z</time>
      </trkpt>
      <trkpt lat="42.7595300" lon="-3.4279220">
        <ele>592.2</ele>
        <time>2018-10-21T07:44:28Z</time>
      </trkpt>
      <trkpt lat="42.7595580" lon="-3.4279680">
        <ele>592.2</ele>
        <time>2018-10-21T07:44:29Z</time>
      </trkpt>
      <trkpt lat="42.7595830" lon="-3.4280170">
        <ele>592.2</ele>
        <time>2018-10-21T07:44:30Z</time>
      </trkpt>
      <trkpt lat="42.7596100" lon="-3.4280680">
        <ele>592.2</ele>
        <time>2018-10-21T07:44:31Z</time>
      </trkpt>
      <trkpt lat="42.7596370" lon="-3.4281200">
        <ele>592.2</ele>
        <time>2018-10-21T07:44:32Z</time>
      </trkpt>
      <trkpt lat="42.7596650" lon="-3.4281720">
        <ele>592.2</ele>
        <time>2018-10-21T07:44:33Z</time>
      </trkpt>
      <trkpt lat="42.7596930" lon="-3.4282220">
        <ele>592.2</ele>
        <time>2018-10-21T07:44:34Z</time>
      </trkpt>
      <trkpt lat="42.7597250" lon="-3.4282680">
        <ele>592.2</ele>
        <time>2018-10-21T07:44:35Z</time>
      </trkpt>
      <trkpt lat="42.7597570" lon="-3.4283120">
        <ele>592.2</ele>
        <time>2018-10-21T07:44:36Z</time>
      </trkpt>
      <trkpt lat="42.7597880" lon="-3.4283530">
        <ele>592.2</ele>
        <time>2018-10-21T07:44:37Z</time>
      </trkpt>
      <trkpt lat="42.7598220" lon="-3.4283920">
        <ele>593.3</ele>
        <time>2018-10-21T07:44:38Z</time>
      </trkpt>
      <trkpt lat="42.7598550" lon="-3.4284270">
        <ele>593.3</ele>
        <time>2018-10-21T07:44:39Z</time>
      </trkpt>
      <trkpt lat="42.7598880" lon="-3.4284600">
        <ele>593.3</ele>
        <time>2018-10-21T07:44:40Z</time>
      </trkpt>
      <trkpt lat="42.7599220" lon="-3.4284920">
        <ele>593.3</ele>
        <time>2018-10-21T07:44:41Z</time>
      </trkpt>
      <trkpt lat="42.7599550" lon="-3.4285230">
        <ele>594.2</ele>
        <time>2018-10-21T07:44:42Z</time>
      </trkpt>
      <trkpt lat="42.7599880" lon="-3.4285530">
        <ele>594.2</ele>
        <time>2018-10-21T07:44:43Z</time>
      </trkpt>
      <trkpt lat="42.7600200" lon="-3.4285850">
        <ele>594.2</ele>
        <time>2018-10-21T07:44:44Z</time>
      </trkpt>
      <trkpt lat="42.7600520" lon="-3.4286150">
        <ele>594.2</ele>
        <time>2018-10-21T07:44:45Z</time>
      </trkpt>
      <trkpt lat="42.7600830" lon="-3.4286450">
        <ele>594.2</ele>
        <time>2018-10-21T07:44:46Z</time>
      </trkpt>
      <trkpt lat="42.7601130" lon="-3.4286730">
        <ele>594.2</ele>
        <time>2018-10-21T07:44:47Z</time>
      </trkpt>
      <trkpt lat="42.7601420" lon="-3.4287030">
        <ele>595.3</ele>
        <time>2018-10-21T07:44:48Z</time>
      </trkpt>
      <trkpt lat="42.7601730" lon="-3.4287320">
        <ele>595.3</ele>
        <time>2018-10-21T07:44:49Z</time>
      </trkpt>
      <trkpt lat="42.7602050" lon="-3.4287620">
        <ele>595.3</ele>
        <time>2018-10-21T07:44:50Z</time>
      </trkpt>
      <trkpt lat="42.7602350" lon="-3.4287950">
        <ele>595.3</ele>
        <time>2018-10-21T07:44:51Z</time>
      </trkpt>
      <trkpt lat="42.7602650" lon="-3.4288250">
        <ele>595.3</ele>
        <time>2018-10-21T07:44:52Z</time>
      </trkpt>
      <trkpt lat="42.7602970" lon="-3.4288550">
        <ele>595.3</ele>
        <time>2018-10-21T07:44:53Z</time>
      </trkpt>
      <trkpt lat="42.7603270" lon="-3.4288850">
        <ele>596.2</ele>
        <time>2018-10-21T07:44:54Z</time>
      </trkpt>
      <trkpt lat="42.7603570" lon="-3.4289150">
        <ele>596.2</ele>
        <time>2018-10-21T07:44:55Z</time>
      </trkpt>
      <trkpt lat="42.7603870" lon="-3.4289450">
        <ele>596.2</ele>
        <time>2018-10-21T07:44:56Z</time>
      </trkpt>
      <trkpt lat="42.7604170" lon="-3.4289730">
        <ele>596.2</ele>
        <time>2018-10-21T07:44:57Z</time>
      </trkpt>
      <trkpt lat="42.7604470" lon="-3.4290050">
        <ele>596.2</ele>
        <time>2018-10-21T07:44:58Z</time>
      </trkpt>
      <trkpt lat="42.7604770" lon="-3.4290350">
        <ele>596.2</ele>
        <time>2018-10-21T07:44:59Z</time>
      </trkpt>
      <trkpt lat="42.7605070" lon="-3.4290650">
        <ele>597.3</ele>
        <time>2018-10-21T07:45:00Z</time>
      </trkpt>
      <trkpt lat="42.7605370" lon="-3.4290930">
        <ele>597.3</ele>
        <time>2018-10-21T07:45:01Z</time>
      </trkpt>
      <trkpt lat="42.7605670" lon="-3.4291230">
        <ele>597.3</ele>
        <time>2018-10-21T07:45:02Z</time>
      </trkpt>
      <trkpt lat="42.7605950" lon="-3.4291530">
        <ele>597.3</ele>
        <time>2018-10-21T07:45:03Z</time>
      </trkpt>
      <trkpt lat="42.7606230" lon="-3.4291850">
        <ele>598.2</ele>
        <time>2018-10-21T07:45:04Z</time>
      </trkpt>
      <trkpt lat="42.7606500" lon="-3.4292180">
        <ele>598.2</ele>
        <time>2018-10-21T07:45:05Z</time>
      </trkpt>
      <trkpt lat="42.7606800" lon="-3.4292480">
        <ele>599.2</ele>
        <time>2018-10-21T07:45:06Z</time>
      </trkpt>
      <trkpt lat="42.7607100" lon="-3.4292770">
        <ele>599.2</ele>
        <time>2018-10-21T07:45:07Z</time>
      </trkpt>
      <trkpt lat="42.7607400" lon="-3.4293080">
        <ele>599.2</ele>
        <time>2018-10-21T07:45:08Z</time>
      </trkpt>
      <trkpt lat="42.7607670" lon="-3.4293370">
        <ele>599.2</ele>
        <time>2018-10-21T07:45:09Z</time>
      </trkpt>
      <trkpt lat="42.7607920" lon="-3.4293700">
        <ele>600.3</ele>
        <time>2018-10-21T07:45:10Z</time>
      </trkpt>
      <trkpt lat="42.7608200" lon="-3.4294030">
        <ele>600.3</ele>
        <time>2018-10-21T07:45:11Z</time>
      </trkpt>
      <trkpt lat="42.7608470" lon="-3.4294380">
        <ele>600.3</ele>
        <time>2018-10-21T07:45:12Z</time>
      </trkpt>
      <trkpt lat="42.7608720" lon="-3.4294780">
        <ele>600.3</ele>
        <time>2018-10-21T07:45:13Z</time>
      </trkpt>
      <trkpt lat="42.7608970" lon="-3.4295180">
        <ele>600.3</ele>
        <time>2018-10-21T07:45:14Z</time>
      </trkpt>
      <trkpt lat="42.7609220" lon="-3.4295580">
        <ele>600.3</ele>
        <time>2018-10-21T07:45:15Z</time>
      </trkpt>
      <trkpt lat="42.7609450" lon="-3.4296020">
        <ele>601.2</ele>
        <time>2018-10-21T07:45:16Z</time>
      </trkpt>
      <trkpt lat="42.7609680" lon="-3.4296470">
        <ele>601.2</ele>
        <time>2018-10-21T07:45:17Z</time>
      </trkpt>
      <trkpt lat="42.7609920" lon="-3.4296930">
        <ele>601.2</ele>
        <time>2018-10-21T07:45:18Z</time>
      </trkpt>
      <trkpt lat="42.7610130" lon="-3.4297470">
        <ele>601.2</ele>
        <time>2018-10-21T07:45:19Z</time>
      </trkpt>
      <trkpt lat="42.7610350" lon="-3.4298030">
        <ele>601.2</ele>
        <time>2018-10-21T07:45:20Z</time>
      </trkpt>
      <trkpt lat="42.7610550" lon="-3.4298630">
        <ele>601.2</ele>
        <time>2018-10-21T07:45:21Z</time>
      </trkpt>
      <trkpt lat="42.7610730" lon="-3.4299280">
        <ele>600.3</ele>
        <time>2018-10-21T07:45:22Z</time>
      </trkpt>
      <trkpt lat="42.7610920" lon="-3.4299980">
        <ele>600.3</ele>
        <time>2018-10-21T07:45:23Z</time>
      </trkpt>
      <trkpt lat="42.7611120" lon="-3.4300720">
        <ele>600.3</ele>
        <time>2018-10-21T07:45:24Z</time>
      </trkpt>
      <trkpt lat="42.7611320" lon="-3.4301450">
        <ele>600.3</ele>
        <time>2018-10-21T07:45:25Z</time>
      </trkpt>
      <trkpt lat="42.7611550" lon="-3.4302200">
        <ele>600.3</ele>
        <time>2018-10-21T07:45:26Z</time>
      </trkpt>
      <trkpt lat="42.7611780" lon="-3.4303000">
        <ele>600.3</ele>
        <time>2018-10-21T07:45:27Z</time>
      </trkpt>
      <trkpt lat="42.7612020" lon="-3.4303820">
        <ele>600.3</ele>
        <time>2018-10-21T07:45:28Z</time>
      </trkpt>
      <trkpt lat="42.7612230" lon="-3.4304630">
        <ele>600.3</ele>
        <time>2018-10-21T07:45:29Z</time>
      </trkpt>
      <trkpt lat="42.7612470" lon="-3.4305480">
        <ele>600.3</ele>
        <time>2018-10-21T07:45:30Z</time>
      </trkpt>
      <trkpt lat="42.7612720" lon="-3.4306350">
        <ele>600.3</ele>
        <time>2018-10-21T07:45:31Z</time>
      </trkpt>
      <trkpt lat="42.7612970" lon="-3.4307230">
        <ele>599.2</ele>
        <time>2018-10-21T07:45:32Z</time>
      </trkpt>
      <trkpt lat="42.7613220" lon="-3.4308170">
        <ele>599.2</ele>
        <time>2018-10-21T07:45:33Z</time>
      </trkpt>
      <trkpt lat="42.7613450" lon="-3.4309100">
        <ele>598.2</ele>
        <time>2018-10-21T07:45:34Z</time>
      </trkpt>
      <trkpt lat="42.7613720" lon="-3.4310030">
        <ele>598.2</ele>
        <time>2018-10-21T07:45:35Z</time>
      </trkpt>
      <trkpt lat="42.7614000" lon="-3.4310980">
        <ele>598.2</ele>
        <time>2018-10-21T07:45:36Z</time>
      </trkpt>
      <trkpt lat="42.7614300" lon="-3.4311970">
        <ele>598.2</ele>
        <time>2018-10-21T07:45:37Z</time>
      </trkpt>
      <trkpt lat="42.7614550" lon="-3.4312970">
        <ele>597.3</ele>
        <time>2018-10-21T07:45:38Z</time>
      </trkpt>
      <trkpt lat="42.7614820" lon="-3.4313970">
        <ele>597.3</ele>
        <time>2018-10-21T07:45:39Z</time>
      </trkpt>
      <trkpt lat="42.7615100" lon="-3.4314970">
        <ele>597.3</ele>
        <time>2018-10-21T07:45:40Z</time>
      </trkpt>
      <trkpt lat="42.7615370" lon="-3.4315980">
        <ele>597.3</ele>
        <time>2018-10-21T07:45:41Z</time>
      </trkpt>
      <trkpt lat="42.7615630" lon="-3.4316930">
        <ele>596.2</ele>
        <time>2018-10-21T07:45:42Z</time>
      </trkpt>
      <trkpt lat="42.7615880" lon="-3.4317970">
        <ele>596.2</ele>
        <time>2018-10-21T07:45:43Z</time>
      </trkpt>
      <trkpt lat="42.7616150" lon="-3.4319030">
        <ele>597.3</ele>
        <time>2018-10-21T07:45:44Z</time>
      </trkpt>
      <trkpt lat="42.7616400" lon="-3.4320070">
        <ele>597.3</ele>
        <time>2018-10-21T07:45:45Z</time>
      </trkpt>
      <trkpt lat="42.7616630" lon="-3.4321170">
        <ele>596.2</ele>
        <time>2018-10-21T07:45:46Z</time>
      </trkpt>
      <trkpt lat="42.7616900" lon="-3.4322250">
        <ele>596.2</ele>
        <time>2018-10-21T07:45:47Z</time>
      </trkpt>
      <trkpt lat="42.7617150" lon="-3.4323350">
        <ele>595.3</ele>
        <time>2018-10-21T07:45:48Z</time>
      </trkpt>
      <trkpt lat="42.7617420" lon="-3.4324450">
        <ele>595.3</ele>
        <time>2018-10-21T07:45:49Z</time>
      </trkpt>
      <trkpt lat="42.7617670" lon="-3.4325580">
        <ele>594.2</ele>
        <time>2018-10-21T07:45:50Z</time>
      </trkpt>
      <trkpt lat="42.7617900" lon="-3.4326720">
        <ele>594.2</ele>
        <time>2018-10-21T07:45:51Z</time>
      </trkpt>
      <trkpt lat="42.7618120" lon="-3.4327870">
        <ele>593.3</ele>
        <time>2018-10-21T07:45:52Z</time>
      </trkpt>
      <trkpt lat="42.7618320" lon="-3.4329030">
        <ele>593.3</ele>
        <time>2018-10-21T07:45:53Z</time>
      </trkpt>
      <trkpt lat="42.7618500" lon="-3.4330220">
        <ele>592.2</ele>
        <time>2018-10-21T07:45:54Z</time>
      </trkpt>
      <trkpt lat="42.7618680" lon="-3.4331420">
        <ele>592.2</ele>
        <time>2018-10-21T07:45:55Z</time>
      </trkpt>
      <trkpt lat="42.7618830" lon="-3.4332620">
        <ele>591.2</ele>
        <time>2018-10-21T07:45:56Z</time>
      </trkpt>
      <trkpt lat="42.7618980" lon="-3.4333820">
        <ele>591.2</ele>
        <time>2018-10-21T07:45:57Z</time>
      </trkpt>
      <trkpt lat="42.7619170" lon="-3.4335030">
        <ele>590.3</ele>
        <time>2018-10-21T07:45:58Z</time>
      </trkpt>
      <trkpt lat="42.7619380" lon="-3.4336230">
        <ele>590.3</ele>
        <time>2018-10-21T07:45:59Z</time>
      </trkpt>
      <trkpt lat="42.7619650" lon="-3.4337420">
        <ele>589.2</ele>
        <time>2018-10-21T07:46:00Z</time>
      </trkpt>
      <trkpt lat="42.7619880" lon="-3.4338580">
        <ele>589.2</ele>
        <time>2018-10-21T07:46:01Z</time>
      </trkpt>
      <trkpt lat="42.7620100" lon="-3.4339770">
        <ele>589.2</ele>
        <time>2018-10-21T07:46:02Z</time>
      </trkpt>
      <trkpt lat="42.7620350" lon="-3.4341000">
        <ele>589.2</ele>
        <time>2018-10-21T07:46:03Z</time>
      </trkpt>
      <trkpt lat="42.7620630" lon="-3.4342180">
        <ele>589.2</ele>
        <time>2018-10-21T07:46:04Z</time>
      </trkpt>
      <trkpt lat="42.7620950" lon="-3.4343330">
        <ele>589.2</ele>
        <time>2018-10-21T07:46:05Z</time>
      </trkpt>
      <trkpt lat="42.7621300" lon="-3.4344470">
        <ele>589.2</ele>
        <time>2018-10-21T07:46:06Z</time>
      </trkpt>
      <trkpt lat="42.7621720" lon="-3.4345550">
        <ele>589.2</ele>
        <time>2018-10-21T07:46:07Z</time>
      </trkpt>
      <trkpt lat="42.7622180" lon="-3.4346600">
        <ele>586.3</ele>
        <time>2018-10-21T07:46:08Z</time>
      </trkpt>
      <trkpt lat="42.7622670" lon="-3.4347630">
        <ele>586.3</ele>
        <time>2018-10-21T07:46:09Z</time>
      </trkpt>
      <trkpt lat="42.7623170" lon="-3.4348630">
        <ele>586.3</ele>
        <time>2018-10-21T07:46:10Z</time>
      </trkpt>
      <trkpt lat="42.7623670" lon="-3.4349620">
        <ele>586.3</ele>
        <time>2018-10-21T07:46:11Z</time>
      </trkpt>
      <trkpt lat="42.7624130" lon="-3.4350630">
        <ele>585.2</ele>
        <time>2018-10-21T07:46:12Z</time>
      </trkpt>
      <trkpt lat="42.7624600" lon="-3.4351630">
        <ele>585.2</ele>
        <time>2018-10-21T07:46:13Z</time>
      </trkpt>
      <trkpt lat="42.7625100" lon="-3.4352620">
        <ele>585.2</ele>
        <time>2018-10-21T07:46:14Z</time>
      </trkpt>
      <trkpt lat="42.7625600" lon="-3.4353600">
        <ele>585.2</ele>
        <time>2018-10-21T07:46:15Z</time>
      </trkpt>
      <trkpt lat="42.7626100" lon="-3.4354570">
        <ele>584.3</ele>
        <time>2018-10-21T07:46:16Z</time>
      </trkpt>
      <trkpt lat="42.7626600" lon="-3.4355550">
        <ele>584.3</ele>
        <time>2018-10-21T07:46:17Z</time>
      </trkpt>
      <trkpt lat="42.7627120" lon="-3.4356550">
        <ele>583.2</ele>
        <time>2018-10-21T07:46:18Z</time>
      </trkpt>
      <trkpt lat="42.7627630" lon="-3.4357550">
        <ele>583.2</ele>
        <time>2018-10-21T07:46:19Z</time>
      </trkpt>
      <trkpt lat="42.7628130" lon="-3.4358520">
        <ele>583.2</ele>
        <time>2018-10-21T07:46:20Z</time>
      </trkpt>
      <trkpt lat="42.7628650" lon="-3.4359480">
        <ele>583.2</ele>
        <time>2018-10-21T07:46:21Z</time>
      </trkpt>
      <trkpt lat="42.7629150" lon="-3.4360430">
        <ele>582.2</ele>
        <time>2018-10-21T07:46:22Z</time>
      </trkpt>
      <trkpt lat="42.7629650" lon="-3.4361400">
        <ele>582.2</ele>
        <time>2018-10-21T07:46:23Z</time>
      </trkpt>
      <trkpt lat="42.7630120" lon="-3.4362370">
        <ele>582.2</ele>
        <time>2018-10-21T07:46:24Z</time>
      </trkpt>
      <trkpt lat="42.7630580" lon="-3.4363350">
        <ele>582.2</ele>
        <time>2018-10-21T07:46:25Z</time>
      </trkpt>
      <trkpt lat="42.7631080" lon="-3.4364320">
        <ele>581.3</ele>
        <time>2018-10-21T07:46:26Z</time>
      </trkpt>
      <trkpt lat="42.7631600" lon="-3.4365280">
        <ele>581.3</ele>
        <time>2018-10-21T07:46:27Z</time>
      </trkpt>
      <trkpt lat="42.7632080" lon="-3.4366270">
        <ele>580.2</ele>
        <time>2018-10-21T07:46:28Z</time>
      </trkpt>
      <trkpt lat="42.7632580" lon="-3.4367220">
        <ele>580.2</ele>
        <time>2018-10-21T07:46:29Z</time>
      </trkpt>
      <trkpt lat="42.7633070" lon="-3.4368170">
        <ele>580.2</ele>
        <time>2018-10-21T07:46:30Z</time>
      </trkpt>
      <trkpt lat="42.7633550" lon="-3.4369120">
        <ele>580.2</ele>
        <time>2018-10-21T07:46:31Z</time>
      </trkpt>
      <trkpt lat="42.7634020" lon="-3.4370030">
        <ele>580.2</ele>
        <time>2018-10-21T07:46:32Z</time>
      </trkpt>
      <trkpt lat="42.7634480" lon="-3.4370970">
        <ele>580.2</ele>
        <time>2018-10-21T07:46:33Z</time>
      </trkpt>
      <trkpt lat="42.7634920" lon="-3.4371900">
        <ele>580.2</ele>
        <time>2018-10-21T07:46:34Z</time>
      </trkpt>
      <trkpt lat="42.7635370" lon="-3.4372770">
        <ele>580.2</ele>
        <time>2018-10-21T07:46:35Z</time>
      </trkpt>
      <trkpt lat="42.7635800" lon="-3.4373630">
        <ele>580.2</ele>
        <time>2018-10-21T07:46:36Z</time>
      </trkpt>
      <trkpt lat="42.7636250" lon="-3.4374500">
        <ele>580.2</ele>
        <time>2018-10-21T07:46:37Z</time>
      </trkpt>
      <trkpt lat="42.7636700" lon="-3.4375380">
        <ele>578.2</ele>
        <time>2018-10-21T07:46:38Z</time>
      </trkpt>
      <trkpt lat="42.7637150" lon="-3.4376280">
        <ele>578.2</ele>
        <time>2018-10-21T07:46:39Z</time>
      </trkpt>
      <trkpt lat="42.7637580" lon="-3.4377170">
        <ele>577.3</ele>
        <time>2018-10-21T07:46:40Z</time>
      </trkpt>
      <trkpt lat="42.7638030" lon="-3.4378030">
        <ele>577.3</ele>
        <time>2018-10-21T07:46:41Z</time>
      </trkpt>
      <trkpt lat="42.7638480" lon="-3.4378880">
        <ele>577.3</ele>
        <time>2018-10-21T07:46:42Z</time>
      </trkpt>
      <trkpt lat="42.7638930" lon="-3.4379770">
        <ele>577.3</ele>
        <time>2018-10-21T07:46:43Z</time>
      </trkpt>
      <trkpt lat="42.7639370" lon="-3.4380630">
        <ele>577.3</ele>
        <time>2018-10-21T07:46:44Z</time>
      </trkpt>
      <trkpt lat="42.7639770" lon="-3.4381520">
        <ele>577.3</ele>
        <time>2018-10-21T07:46:45Z</time>
      </trkpt>
      <trkpt lat="42.7640150" lon="-3.4382400">
        <ele>575.2</ele>
        <time>2018-10-21T07:46:46Z</time>
      </trkpt>
      <trkpt lat="42.7640530" lon="-3.4383300">
        <ele>575.2</ele>
        <time>2018-10-21T07:46:47Z</time>
      </trkpt>
      <trkpt lat="42.7640880" lon="-3.4384200">
        <ele>575.2</ele>
        <time>2018-10-21T07:46:48Z</time>
      </trkpt>
      <trkpt lat="42.7641250" lon="-3.4385100">
        <ele>575.2</ele>
        <time>2018-10-21T07:46:49Z</time>
      </trkpt>
      <trkpt lat="42.7641600" lon="-3.4386020">
        <ele>575.2</ele>
        <time>2018-10-21T07:46:50Z</time>
      </trkpt>
      <trkpt lat="42.7641920" lon="-3.4386930">
        <ele>575.2</ele>
        <time>2018-10-21T07:46:51Z</time>
      </trkpt>
      <trkpt lat="42.7642230" lon="-3.4387850">
        <ele>574.3</ele>
        <time>2018-10-21T07:46:52Z</time>
      </trkpt>
      <trkpt lat="42.7642570" lon="-3.4388750">
        <ele>574.3</ele>
        <time>2018-10-21T07:46:53Z</time>
      </trkpt>
      <trkpt lat="42.7642900" lon="-3.4389650">
        <ele>574.3</ele>
        <time>2018-10-21T07:46:54Z</time>
      </trkpt>
      <trkpt lat="42.7643220" lon="-3.4390550">
        <ele>574.3</ele>
        <time>2018-10-21T07:46:55Z</time>
      </trkpt>
      <trkpt lat="42.7643570" lon="-3.4391420">
        <ele>574.3</ele>
        <time>2018-10-21T07:46:56Z</time>
      </trkpt>
      <trkpt lat="42.7643920" lon="-3.4392320">
        <ele>574.3</ele>
        <time>2018-10-21T07:46:57Z</time>
      </trkpt>
      <trkpt lat="42.7644220" lon="-3.4393150">
        <ele>573.2</ele>
        <time>2018-10-21T07:46:58Z</time>
      </trkpt>
      <trkpt lat="42.7644520" lon="-3.4393920">
        <ele>573.2</ele>
        <time>2018-10-21T07:46:59Z</time>
      </trkpt>
      <trkpt lat="42.7644920" lon="-3.4394550">
        <ele>573.2</ele>
        <time>2018-10-21T07:47:00Z</time>
      </trkpt>
      <trkpt lat="42.7645430" lon="-3.4394980">
        <ele>573.2</ele>
        <time>2018-10-21T07:47:01Z</time>
      </trkpt>
      <trkpt lat="42.7645980" lon="-3.4395180">
        <ele>572.3</ele>
        <time>2018-10-21T07:47:02Z</time>
      </trkpt>
      <trkpt lat="42.7646550" lon="-3.4395130">
        <ele>572.3</ele>
        <time>2018-10-21T07:47:03Z</time>
      </trkpt>
      <trkpt lat="42.7646980" lon="-3.4394770">
        <ele>572.3</ele>
        <time>2018-10-21T07:47:04Z</time>
      </trkpt>
      <trkpt lat="42.7647270" lon="-3.4394200">
        <ele>572.3</ele>
        <time>2018-10-21T07:47:05Z</time>
      </trkpt>
      <trkpt lat="42.7647350" lon="-3.4393520">
        <ele>572.3</ele>
        <time>2018-10-21T07:47:06Z</time>
      </trkpt>
      <trkpt lat="42.7647280" lon="-3.4392820">
        <ele>572.3</ele>
        <time>2018-10-21T07:47:07Z</time>
      </trkpt>
      <trkpt lat="42.7647150" lon="-3.4392150">
        <ele>571.2</ele>
        <time>2018-10-21T07:47:08Z</time>
      </trkpt>
      <trkpt lat="42.7646900" lon="-3.4391500">
        <ele>571.2</ele>
        <time>2018-10-21T07:47:09Z</time>
      </trkpt>
      <trkpt lat="42.7646580" lon="-3.4390870">
        <ele>571.2</ele>
        <time>2018-10-21T07:47:10Z</time>
      </trkpt>
      <trkpt lat="42.7646250" lon="-3.4390220">
        <ele>571.2</ele>
        <time>2018-10-21T07:47:11Z</time>
      </trkpt>
      <trkpt lat="42.7645900" lon="-3.4389550">
        <ele>570.3</ele>
        <time>2018-10-21T07:47:12Z</time>
      </trkpt>
      <trkpt lat="42.7645570" lon="-3.4388830">
        <ele>570.3</ele>
        <time>2018-10-21T07:47:13Z</time>
      </trkpt>
      <trkpt lat="42.7645230" lon="-3.4388050">
        <ele>570.3</ele>
        <time>2018-10-21T07:47:14Z</time>
      </trkpt>
      <trkpt lat="42.7644900" lon="-3.4387230">
        <ele>570.3</ele>
        <time>2018-10-21T07:47:15Z</time>
      </trkpt>
      <trkpt lat="42.7644580" lon="-3.4386400">
        <ele>569.2</ele>
        <time>2018-10-21T07:47:16Z</time>
      </trkpt>
      <trkpt lat="42.7644280" lon="-3.4385550">
        <ele>569.2</ele>
        <time>2018-10-21T07:47:17Z</time>
      </trkpt>
      <trkpt lat="42.7644020" lon="-3.4384670">
        <ele>569.2</ele>
        <time>2018-10-21T07:47:18Z</time>
      </trkpt>
      <trkpt lat="42.7643730" lon="-3.4383730">
        <ele>569.2</ele>
        <time>2018-10-21T07:47:19Z</time>
      </trkpt>
      <trkpt lat="42.7643450" lon="-3.4382730">
        <ele>568.3</ele>
        <time>2018-10-21T07:47:20Z</time>
      </trkpt>
      <trkpt lat="42.7643180" lon="-3.4381680">
        <ele>568.3</ele>
        <time>2018-10-21T07:47:21Z</time>
      </trkpt>
      <trkpt lat="42.7642930" lon="-3.4380580">
        <ele>567.2</ele>
        <time>2018-10-21T07:47:22Z</time>
      </trkpt>
      <trkpt lat="42.7642670" lon="-3.4379450">
        <ele>567.2</ele>
        <time>2018-10-21T07:47:23Z</time>
      </trkpt>
      <trkpt lat="42.7642380" lon="-3.4378270">
        <ele>566.2</ele>
        <time>2018-10-21T07:47:24Z</time>
      </trkpt>
      <trkpt lat="42.7642080" lon="-3.4377080">
        <ele>566.2</ele>
        <time>2018-10-21T07:47:25Z</time>
      </trkpt>
      <trkpt lat="42.7641800" lon="-3.4375850">
        <ele>565.3</ele>
        <time>2018-10-21T07:47:26Z</time>
      </trkpt>
      <trkpt lat="42.7641520" lon="-3.4374580">
        <ele>565.3</ele>
        <time>2018-10-21T07:47:27Z</time>
      </trkpt>
      <trkpt lat="42.7641250" lon="-3.4373300">
        <ele>564.2</ele>
        <time>2018-10-21T07:47:28Z</time>
      </trkpt>
      <trkpt lat="42.7640970" lon="-3.4372020">
        <ele>564.2</ele>
        <time>2018-10-21T07:47:29Z</time>
      </trkpt>
      <trkpt lat="42.7640670" lon="-3.4370720">
        <ele>563.3</ele>
        <time>2018-10-21T07:47:30Z</time>
      </trkpt>
      <trkpt lat="42.7640370" lon="-3.4369400">
        <ele>563.3</ele>
        <time>2018-10-21T07:47:31Z</time>
      </trkpt>
      <trkpt lat="42.7640070" lon="-3.4368050">
        <ele>562.2</ele>
        <time>2018-10-21T07:47:32Z</time>
      </trkpt>
      <trkpt lat="42.7639770" lon="-3.4366680">
        <ele>562.2</ele>
        <time>2018-10-21T07:47:33Z</time>
      </trkpt>
      <trkpt lat="42.7639470" lon="-3.4365280">
        <ele>562.2</ele>
        <time>2018-10-21T07:47:34Z</time>
      </trkpt>
      <trkpt lat="42.7639170" lon="-3.4363850">
        <ele>562.2</ele>
        <time>2018-10-21T07:47:35Z</time>
      </trkpt>
      <trkpt lat="42.7638870" lon="-3.4362400">
        <ele>562.2</ele>
        <time>2018-10-21T07:47:36Z</time>
      </trkpt>
      <trkpt lat="42.7638520" lon="-3.4360950">
        <ele>562.2</ele>
        <time>2018-10-21T07:47:37Z</time>
      </trkpt>
      <trkpt lat="42.7638200" lon="-3.4359530">
        <ele>558.2</ele>
        <time>2018-10-21T07:47:38Z</time>
      </trkpt>
      <trkpt lat="42.7637900" lon="-3.4358130">
        <ele>558.2</ele>
        <time>2018-10-21T07:47:39Z</time>
      </trkpt>
      <trkpt lat="42.7637650" lon="-3.4356730">
        <ele>557.2</ele>
        <time>2018-10-21T07:47:40Z</time>
      </trkpt>
      <trkpt lat="42.7637450" lon="-3.4355300">
        <ele>557.2</ele>
        <time>2018-10-21T07:47:41Z</time>
      </trkpt>
      <trkpt lat="42.7637330" lon="-3.4353850">
        <ele>556.3</ele>
        <time>2018-10-21T07:47:42Z</time>
      </trkpt>
      <trkpt lat="42.7637270" lon="-3.4352380">
        <ele>556.3</ele>
        <time>2018-10-21T07:47:43Z</time>
      </trkpt>
      <trkpt lat="42.7637300" lon="-3.4350920">
        <ele>555.2</ele>
        <time>2018-10-21T07:47:44Z</time>
      </trkpt>
      <trkpt lat="42.7637420" lon="-3.4349450">
        <ele>555.2</ele>
        <time>2018-10-21T07:47:45Z</time>
      </trkpt>
      <trkpt lat="42.7637600" lon="-3.4347980">
        <ele>555.2</ele>
        <time>2018-10-21T07:47:46Z</time>
      </trkpt>
      <trkpt lat="42.7637870" lon="-3.4346550">
        <ele>555.2</ele>
        <time>2018-10-21T07:47:47Z</time>
      </trkpt>
      <trkpt lat="42.7638230" lon="-3.4345170">
        <ele>555.2</ele>
        <time>2018-10-21T07:47:48Z</time>
      </trkpt>
      <trkpt lat="42.7638670" lon="-3.4343800">
        <ele>555.2</ele>
        <time>2018-10-21T07:47:49Z</time>
      </trkpt>
      <trkpt lat="42.7639170" lon="-3.4342500">
        <ele>551.2</ele>
        <time>2018-10-21T07:47:50Z</time>
      </trkpt>
      <trkpt lat="42.7639750" lon="-3.4341270">
        <ele>551.2</ele>
        <time>2018-10-21T07:47:51Z</time>
      </trkpt>
      <trkpt lat="42.7640420" lon="-3.4340150">
        <ele>551.2</ele>
        <time>2018-10-21T07:47:52Z</time>
      </trkpt>
      <trkpt lat="42.7641150" lon="-3.4339100">
        <ele>551.2</ele>
        <time>2018-10-21T07:47:53Z</time>
      </trkpt>
      <trkpt lat="42.7641920" lon="-3.4338120">
        <ele>550.2</ele>
        <time>2018-10-21T07:47:54Z</time>
      </trkpt>
      <trkpt lat="42.7642720" lon="-3.4337220">
        <ele>550.2</ele>
        <time>2018-10-21T07:47:55Z</time>
      </trkpt>
      <trkpt lat="42.7643550" lon="-3.4336400">
        <ele>549.3</ele>
        <time>2018-10-21T07:47:56Z</time>
      </trkpt>
      <trkpt lat="42.7644430" lon="-3.4335720">
        <ele>549.3</ele>
        <time>2018-10-21T07:47:57Z</time>
      </trkpt>
      <trkpt lat="42.7645330" lon="-3.4335100">
        <ele>548.2</ele>
        <time>2018-10-21T07:47:58Z</time>
      </trkpt>
      <trkpt lat="42.7646270" lon="-3.4334570">
        <ele>548.2</ele>
        <time>2018-10-21T07:47:59Z</time>
      </trkpt>
      <trkpt lat="42.7647250" lon="-3.4334130">
        <ele>547.3</ele>
        <time>2018-10-21T07:48:00Z</time>
      </trkpt>
      <trkpt lat="42.7648250" lon="-3.4333820">
        <ele>547.3</ele>
        <time>2018-10-21T07:48:01Z</time>
      </trkpt>
      <trkpt lat="42.7649270" lon="-3.4333500">
        <ele>545.3</ele>
        <time>2018-10-21T07:48:02Z</time>
      </trkpt>
      <trkpt lat="42.7650280" lon="-3.4333200">
        <ele>545.3</ele>
        <time>2018-10-21T07:48:03Z</time>
      </trkpt>
      <trkpt lat="42.7651320" lon="-3.4332920">
        <ele>544.2</ele>
        <time>2018-10-21T07:48:04Z</time>
      </trkpt>
      <trkpt lat="42.7652350" lon="-3.4332700">
        <ele>544.2</ele>
        <time>2018-10-21T07:48:05Z</time>
      </trkpt>
      <trkpt lat="42.7653400" lon="-3.4332570">
        <ele>543.3</ele>
        <time>2018-10-21T07:48:06Z</time>
      </trkpt>
      <trkpt lat="42.7654470" lon="-3.4332530">
        <ele>543.3</ele>
        <time>2018-10-21T07:48:07Z</time>
      </trkpt>
      <trkpt lat="42.7655520" lon="-3.4332600">
        <ele>542.2</ele>
        <time>2018-10-21T07:48:08Z</time>
      </trkpt>
      <trkpt lat="42.7656550" lon="-3.4332830">
        <ele>542.2</ele>
        <time>2018-10-21T07:48:09Z</time>
      </trkpt>
      <trkpt lat="42.7657550" lon="-3.4333130">
        <ele>542.2</ele>
        <time>2018-10-21T07:48:10Z</time>
      </trkpt>
      <trkpt lat="42.7658520" lon="-3.4333500">
        <ele>542.2</ele>
        <time>2018-10-21T07:48:11Z</time>
      </trkpt>
      <trkpt lat="42.7659420" lon="-3.4333920">
        <ele>542.2</ele>
        <time>2018-10-21T07:48:12Z</time>
      </trkpt>
      <trkpt lat="42.7660280" lon="-3.4334400">
        <ele>542.2</ele>
        <time>2018-10-21T07:48:13Z</time>
      </trkpt>
      <trkpt lat="42.7661100" lon="-3.4334930">
        <ele>542.2</ele>
        <time>2018-10-21T07:48:14Z</time>
      </trkpt>
      <trkpt lat="42.7661900" lon="-3.4335470">
        <ele>542.2</ele>
        <time>2018-10-21T07:48:15Z</time>
      </trkpt>
      <trkpt lat="42.7662700" lon="-3.4335950">
        <ele>542.2</ele>
        <time>2018-10-21T07:48:16Z</time>
      </trkpt>
      <trkpt lat="42.7663520" lon="-3.4336350">
        <ele>542.2</ele>
        <time>2018-10-21T07:48:17Z</time>
      </trkpt>
      <trkpt lat="42.7664330" lon="-3.4336670">
        <ele>542.2</ele>
        <time>2018-10-21T07:48:18Z</time>
      </trkpt>
      <trkpt lat="42.7665150" lon="-3.4336920">
        <ele>542.2</ele>
        <time>2018-10-21T07:48:19Z</time>
      </trkpt>
      <trkpt lat="42.7665950" lon="-3.4337120">
        <ele>542.2</ele>
        <time>2018-10-21T07:48:20Z</time>
      </trkpt>
      <trkpt lat="42.7666730" lon="-3.4337270">
        <ele>542.2</ele>
        <time>2018-10-21T07:48:21Z</time>
      </trkpt>
      <trkpt lat="42.7667500" lon="-3.4337320">
        <ele>542.2</ele>
        <time>2018-10-21T07:48:22Z</time>
      </trkpt>
      <trkpt lat="42.7668270" lon="-3.4337350">
        <ele>542.2</ele>
        <time>2018-10-21T07:48:23Z</time>
      </trkpt>
      <trkpt lat="42.7669030" lon="-3.4337320">
        <ele>542.2</ele>
        <time>2018-10-21T07:48:24Z</time>
      </trkpt>
      <trkpt lat="42.7669770" lon="-3.4337220">
        <ele>542.2</ele>
        <time>2018-10-21T07:48:25Z</time>
      </trkpt>
      <trkpt lat="42.7670480" lon="-3.4337070">
        <ele>542.2</ele>
        <time>2018-10-21T07:48:26Z</time>
      </trkpt>
      <trkpt lat="42.7671220" lon="-3.4336870">
        <ele>542.2</ele>
        <time>2018-10-21T07:48:27Z</time>
      </trkpt>
      <trkpt lat="42.7671930" lon="-3.4336600">
        <ele>542.2</ele>
        <time>2018-10-21T07:48:28Z</time>
      </trkpt>
      <trkpt lat="42.7672650" lon="-3.4336320">
        <ele>542.2</ele>
        <time>2018-10-21T07:48:29Z</time>
      </trkpt>
      <trkpt lat="42.7673370" lon="-3.4335950">
        <ele>542.2</ele>
        <time>2018-10-21T07:48:30Z</time>
      </trkpt>
      <trkpt lat="42.7674050" lon="-3.4335520">
        <ele>542.2</ele>
        <time>2018-10-21T07:48:31Z</time>
      </trkpt>
      <trkpt lat="42.7674730" lon="-3.4334980">
        <ele>542.2</ele>
        <time>2018-10-21T07:48:32Z</time>
      </trkpt>
      <trkpt lat="42.7675420" lon="-3.4334430">
        <ele>542.2</ele>
        <time>2018-10-21T07:48:33Z</time>
      </trkpt>
      <trkpt lat="42.7676080" lon="-3.4333850">
        <ele>542.2</ele>
        <time>2018-10-21T07:48:34Z</time>
      </trkpt>
      <trkpt lat="42.7676730" lon="-3.4333180">
        <ele>542.2</ele>
        <time>2018-10-21T07:48:35Z</time>
      </trkpt>
      <trkpt lat="42.7677350" lon="-3.4332430">
        <ele>542.2</ele>
        <time>2018-10-21T07:48:36Z</time>
      </trkpt>
      <trkpt lat="42.7677970" lon="-3.4331650">
        <ele>542.2</ele>
        <time>2018-10-21T07:48:37Z</time>
      </trkpt>
      <trkpt lat="42.7678550" lon="-3.4330830">
        <ele>541.2</ele>
        <time>2018-10-21T07:48:38Z</time>
      </trkpt>
      <trkpt lat="42.7679030" lon="-3.4329980">
        <ele>541.2</ele>
        <time>2018-10-21T07:48:39Z</time>
      </trkpt>
      <trkpt lat="42.7679570" lon="-3.4329080">
        <ele>541.2</ele>
        <time>2018-10-21T07:48:40Z</time>
      </trkpt>
      <trkpt lat="42.7680050" lon="-3.4328130">
        <ele>541.2</ele>
        <time>2018-10-21T07:48:41Z</time>
      </trkpt>
      <trkpt lat="42.7680470" lon="-3.4327220">
        <ele>541.2</ele>
        <time>2018-10-21T07:48:42Z</time>
      </trkpt>
      <trkpt lat="42.7680820" lon="-3.4326200">
        <ele>541.2</ele>
        <time>2018-10-21T07:48:43Z</time>
      </trkpt>
      <trkpt lat="42.7681130" lon="-3.4325170">
        <ele>541.2</ele>
        <time>2018-10-21T07:48:44Z</time>
      </trkpt>
      <trkpt lat="42.7681450" lon="-3.4324100">
        <ele>541.2</ele>
        <time>2018-10-21T07:48:45Z</time>
      </trkpt>
      <trkpt lat="42.7681720" lon="-3.4323030">
        <ele>540.3</ele>
        <time>2018-10-21T07:48:46Z</time>
      </trkpt>
      <trkpt lat="42.7681970" lon="-3.4321930">
        <ele>540.3</ele>
        <time>2018-10-21T07:48:47Z</time>
      </trkpt>
      <trkpt lat="42.7682200" lon="-3.4320820">
        <ele>540.3</ele>
        <time>2018-10-21T07:48:48Z</time>
      </trkpt>
      <trkpt lat="42.7682420" lon="-3.4319730">
        <ele>540.3</ele>
        <time>2018-10-21T07:48:49Z</time>
      </trkpt>
      <trkpt lat="42.7682630" lon="-3.4318580">
        <ele>540.3</ele>
        <time>2018-10-21T07:48:50Z</time>
      </trkpt>
      <trkpt lat="42.7682820" lon="-3.4317450">
        <ele>540.3</ele>
        <time>2018-10-21T07:48:51Z</time>
      </trkpt>
      <trkpt lat="42.7683020" lon="-3.4316300">
        <ele>540.3</ele>
        <time>2018-10-21T07:48:52Z</time>
      </trkpt>
      <trkpt lat="42.7683200" lon="-3.4315170">
        <ele>540.3</ele>
        <time>2018-10-21T07:48:53Z</time>
      </trkpt>
      <trkpt lat="42.7683400" lon="-3.4314020">
        <ele>540.3</ele>
        <time>2018-10-21T07:48:54Z</time>
      </trkpt>
      <trkpt lat="42.7683580" lon="-3.4312870">
        <ele>540.3</ele>
        <time>2018-10-21T07:48:55Z</time>
      </trkpt>
      <trkpt lat="42.7683800" lon="-3.4311720">
        <ele>536.3</ele>
        <time>2018-10-21T07:48:56Z</time>
      </trkpt>
      <trkpt lat="42.7684070" lon="-3.4310600">
        <ele>536.3</ele>
        <time>2018-10-21T07:48:57Z</time>
      </trkpt>
      <trkpt lat="42.7684370" lon="-3.4309500">
        <ele>536.3</ele>
        <time>2018-10-21T07:48:58Z</time>
      </trkpt>
      <trkpt lat="42.7684720" lon="-3.4308470">
        <ele>536.3</ele>
        <time>2018-10-21T07:48:59Z</time>
      </trkpt>
      <trkpt lat="42.7685120" lon="-3.4307480">
        <ele>535.2</ele>
        <time>2018-10-21T07:49:00Z</time>
      </trkpt>
      <trkpt lat="42.7685550" lon="-3.4306530">
        <ele>535.2</ele>
        <time>2018-10-21T07:49:01Z</time>
      </trkpt>
      <trkpt lat="42.7685980" lon="-3.4305630">
        <ele>535.2</ele>
        <time>2018-10-21T07:49:02Z</time>
      </trkpt>
      <trkpt lat="42.7686450" lon="-3.4304780">
        <ele>535.2</ele>
        <time>2018-10-21T07:49:03Z</time>
      </trkpt>
      <trkpt lat="42.7686980" lon="-3.4304020">
        <ele>535.2</ele>
        <time>2018-10-21T07:49:04Z</time>
      </trkpt>
      <trkpt lat="42.7687520" lon="-3.4303320">
        <ele>535.2</ele>
        <time>2018-10-21T07:49:05Z</time>
      </trkpt>
      <trkpt lat="42.7688080" lon="-3.4302680">
        <ele>535.2</ele>
        <time>2018-10-21T07:49:06Z</time>
      </trkpt>
      <trkpt lat="42.7688670" lon="-3.4302070">
        <ele>535.2</ele>
        <time>2018-10-21T07:49:07Z</time>
      </trkpt>
      <trkpt lat="42.7689270" lon="-3.4301500">
        <ele>535.2</ele>
        <time>2018-10-21T07:49:08Z</time>
      </trkpt>
      <trkpt lat="42.7689900" lon="-3.4300970">
        <ele>535.2</ele>
        <time>2018-10-21T07:49:09Z</time>
      </trkpt>
      <trkpt lat="42.7690570" lon="-3.4300500">
        <ele>535.2</ele>
        <time>2018-10-21T07:49:10Z</time>
      </trkpt>
      <trkpt lat="42.7691250" lon="-3.4300130">
        <ele>535.2</ele>
        <time>2018-10-21T07:49:11Z</time>
      </trkpt>
      <trkpt lat="42.7691950" lon="-3.4299820">
        <ele>535.2</ele>
        <time>2018-10-21T07:49:12Z</time>
      </trkpt>
      <trkpt lat="42.7692680" lon="-3.4299550">
        <ele>535.2</ele>
        <time>2018-10-21T07:49:13Z</time>
      </trkpt>
      <trkpt lat="42.7693380" lon="-3.4299330">
        <ele>535.2</ele>
        <time>2018-10-21T07:49:14Z</time>
      </trkpt>
      <trkpt lat="42.7694120" lon="-3.4299180">
        <ele>535.2</ele>
        <time>2018-10-21T07:49:15Z</time>
      </trkpt>
      <trkpt lat="42.7694830" lon="-3.4299100">
        <ele>535.2</ele>
        <time>2018-10-21T07:49:16Z</time>
      </trkpt>
      <trkpt lat="42.7695580" lon="-3.4299020">
        <ele>535.2</ele>
        <time>2018-10-21T07:49:17Z</time>
      </trkpt>
      <trkpt lat="42.7696320" lon="-3.4298930">
        <ele>535.2</ele>
        <time>2018-10-21T07:49:18Z</time>
      </trkpt>
      <trkpt lat="42.7697050" lon="-3.4298870">
        <ele>535.2</ele>
        <time>2018-10-21T07:49:19Z</time>
      </trkpt>
      <trkpt lat="42.7697800" lon="-3.4298820">
        <ele>535.2</ele>
        <time>2018-10-21T07:49:20Z</time>
      </trkpt>
      <trkpt lat="42.7698530" lon="-3.4298780">
        <ele>535.2</ele>
        <time>2018-10-21T07:49:21Z</time>
      </trkpt>
      <trkpt lat="42.7699270" lon="-3.4298730">
        <ele>535.2</ele>
        <time>2018-10-21T07:49:22Z</time>
      </trkpt>
      <trkpt lat="42.7700020" lon="-3.4298700">
        <ele>535.2</ele>
        <time>2018-10-21T07:49:23Z</time>
      </trkpt>
      <trkpt lat="42.7700780" lon="-3.4298680">
        <ele>535.2</ele>
        <time>2018-10-21T07:49:24Z</time>
      </trkpt>
      <trkpt lat="42.7701550" lon="-3.4298670">
        <ele>535.2</ele>
        <time>2018-10-21T07:49:25Z</time>
      </trkpt>
      <trkpt lat="42.7702320" lon="-3.4298630">
        <ele>535.2</ele>
        <time>2018-10-21T07:49:26Z</time>
      </trkpt>
      <trkpt lat="42.7703080" lon="-3.4298580">
        <ele>535.2</ele>
        <time>2018-10-21T07:49:27Z</time>
      </trkpt>
      <trkpt lat="42.7703850" lon="-3.4298550">
        <ele>535.2</ele>
        <time>2018-10-21T07:49:28Z</time>
      </trkpt>
      <trkpt lat="42.7704630" lon="-3.4298530">
        <ele>535.2</ele>
        <time>2018-10-21T07:49:29Z</time>
      </trkpt>
      <trkpt lat="42.7705400" lon="-3.4298500">
        <ele>535.2</ele>
        <time>2018-10-21T07:49:30Z</time>
      </trkpt>
      <trkpt lat="42.7706170" lon="-3.4298480">
        <ele>535.2</ele>
        <time>2018-10-21T07:49:31Z</time>
      </trkpt>
      <trkpt lat="42.7706920" lon="-3.4298430">
        <ele>535.2</ele>
        <time>2018-10-21T07:49:32Z</time>
      </trkpt>
      <trkpt lat="42.7707670" lon="-3.4298420">
        <ele>535.2</ele>
        <time>2018-10-21T07:49:33Z</time>
      </trkpt>
      <trkpt lat="42.7708420" lon="-3.4298400">
        <ele>535.2</ele>
        <time>2018-10-21T07:49:34Z</time>
      </trkpt>
      <trkpt lat="42.7709170" lon="-3.4298350">
        <ele>535.2</ele>
        <time>2018-10-21T07:49:35Z</time>
      </trkpt>
      <trkpt lat="42.7709920" lon="-3.4298280">
        <ele>535.2</ele>
        <time>2018-10-21T07:49:36Z</time>
      </trkpt>
      <trkpt lat="42.7710650" lon="-3.4298220">
        <ele>535.2</ele>
        <time>2018-10-21T07:49:37Z</time>
      </trkpt>
      <trkpt lat="42.7711380" lon="-3.4298130">
        <ele>535.2</ele>
        <time>2018-10-21T07:49:38Z</time>
      </trkpt>
      <trkpt lat="42.7712120" lon="-3.4298050">
        <ele>535.2</ele>
        <time>2018-10-21T07:49:39Z</time>
      </trkpt>
      <trkpt lat="42.7712830" lon="-3.4297950">
        <ele>535.2</ele>
        <time>2018-10-21T07:49:40Z</time>
      </trkpt>
      <trkpt lat="42.7713550" lon="-3.4297830">
        <ele>535.2</ele>
        <time>2018-10-21T07:49:41Z</time>
      </trkpt>
      <trkpt lat="42.7714250" lon="-3.4297700">
        <ele>535.2</ele>
        <time>2018-10-21T07:49:42Z</time>
      </trkpt>
      <trkpt lat="42.7714970" lon="-3.4297570">
        <ele>535.2</ele>
        <time>2018-10-21T07:49:43Z</time>
      </trkpt>
      <trkpt lat="42.7715680" lon="-3.4297380">
        <ele>535.2</ele>
        <time>2018-10-21T07:49:44Z</time>
      </trkpt>
      <trkpt lat="42.7716380" lon="-3.4297230">
        <ele>535.2</ele>
        <time>2018-10-21T07:49:45Z</time>
      </trkpt>
      <trkpt lat="42.7717100" lon="-3.4297050">
        <ele>535.2</ele>
        <time>2018-10-21T07:49:46Z</time>
      </trkpt>
      <trkpt lat="42.7717800" lon="-3.4296850">
        <ele>535.2</ele>
        <time>2018-10-21T07:49:47Z</time>
      </trkpt>
      <trkpt lat="42.7718500" lon="-3.4296650">
        <ele>535.2</ele>
        <time>2018-10-21T07:49:48Z</time>
      </trkpt>
      <trkpt lat="42.7719200" lon="-3.4296430">
        <ele>535.2</ele>
        <time>2018-10-21T07:49:49Z</time>
      </trkpt>
      <trkpt lat="42.7719870" lon="-3.4296220">
        <ele>535.2</ele>
        <time>2018-10-21T07:49:50Z</time>
      </trkpt>
      <trkpt lat="42.7720550" lon="-3.4295980">
        <ele>535.2</ele>
        <time>2018-10-21T07:49:51Z</time>
      </trkpt>
      <trkpt lat="42.7721200" lon="-3.4295750">
        <ele>535.2</ele>
        <time>2018-10-21T07:49:52Z</time>
      </trkpt>
      <trkpt lat="42.7721870" lon="-3.4295530">
        <ele>535.2</ele>
        <time>2018-10-21T07:49:53Z</time>
      </trkpt>
      <trkpt lat="42.7722520" lon="-3.4295280">
        <ele>535.2</ele>
        <time>2018-10-21T07:49:54Z</time>
      </trkpt>
      <trkpt lat="42.7723150" lon="-3.4295000">
        <ele>535.2</ele>
        <time>2018-10-21T07:49:55Z</time>
      </trkpt>
      <trkpt lat="42.7723770" lon="-3.4294680">
        <ele>535.2</ele>
        <time>2018-10-21T07:49:56Z</time>
      </trkpt>
      <trkpt lat="42.7724400" lon="-3.4294370">
        <ele>535.2</ele>
        <time>2018-10-21T07:49:57Z</time>
      </trkpt>
      <trkpt lat="42.7725020" lon="-3.4294070">
        <ele>535.2</ele>
        <time>2018-10-21T07:49:58Z</time>
      </trkpt>
      <trkpt lat="42.7725630" lon="-3.4293720">
        <ele>535.2</ele>
        <time>2018-10-21T07:49:59Z</time>
      </trkpt>
      <trkpt lat="42.7726230" lon="-3.4293330">
        <ele>535.2</ele>
        <time>2018-10-21T07:50:00Z</time>
      </trkpt>
      <trkpt lat="42.7726820" lon="-3.4292930">
        <ele>535.2</ele>
        <time>2018-10-21T07:50:01Z</time>
      </trkpt>
      <trkpt lat="42.7727400" lon="-3.4292480">
        <ele>536.3</ele>
        <time>2018-10-21T07:50:02Z</time>
      </trkpt>
      <trkpt lat="42.7727950" lon="-3.4292020">
        <ele>536.3</ele>
        <time>2018-10-21T07:50:03Z</time>
      </trkpt>
      <trkpt lat="42.7728500" lon="-3.4291520">
        <ele>536.3</ele>
        <time>2018-10-21T07:50:04Z</time>
      </trkpt>
      <trkpt lat="42.7729050" lon="-3.4291020">
        <ele>536.3</ele>
        <time>2018-10-21T07:50:05Z</time>
      </trkpt>
      <trkpt lat="42.7729580" lon="-3.4290500">
        <ele>536.3</ele>
        <time>2018-10-21T07:50:06Z</time>
      </trkpt>
      <trkpt lat="42.7730100" lon="-3.4289950">
        <ele>536.3</ele>
        <time>2018-10-21T07:50:07Z</time>
      </trkpt>
      <trkpt lat="42.7730570" lon="-3.4289370">
        <ele>536.3</ele>
        <time>2018-10-21T07:50:08Z</time>
      </trkpt>
      <trkpt lat="42.7731070" lon="-3.4288770">
        <ele>536.3</ele>
        <time>2018-10-21T07:50:09Z</time>
      </trkpt>
      <trkpt lat="42.7731550" lon="-3.4288170">
        <ele>536.3</ele>
        <time>2018-10-21T07:50:10Z</time>
      </trkpt>
      <trkpt lat="42.7732020" lon="-3.4287580">
        <ele>536.3</ele>
        <time>2018-10-21T07:50:11Z</time>
      </trkpt>
      <trkpt lat="42.7732480" lon="-3.4286980">
        <ele>536.3</ele>
        <time>2018-10-21T07:50:12Z</time>
      </trkpt>
      <trkpt lat="42.7732930" lon="-3.4286400">
        <ele>536.3</ele>
        <time>2018-10-21T07:50:13Z</time>
      </trkpt>
      <trkpt lat="42.7733400" lon="-3.4285800">
        <ele>537.2</ele>
        <time>2018-10-21T07:50:14Z</time>
      </trkpt>
      <trkpt lat="42.7733850" lon="-3.4285220">
        <ele>537.2</ele>
        <time>2018-10-21T07:50:15Z</time>
      </trkpt>
      <trkpt lat="42.7734300" lon="-3.4284620">
        <ele>537.2</ele>
        <time>2018-10-21T07:50:16Z</time>
      </trkpt>
      <trkpt lat="42.7734770" lon="-3.4284020">
        <ele>537.2</ele>
        <time>2018-10-21T07:50:17Z</time>
      </trkpt>
      <trkpt lat="42.7735220" lon="-3.4283450">
        <ele>537.2</ele>
        <time>2018-10-21T07:50:18Z</time>
      </trkpt>
      <trkpt lat="42.7735670" lon="-3.4282900">
        <ele>537.2</ele>
        <time>2018-10-21T07:50:19Z</time>
      </trkpt>
      <trkpt lat="42.7736170" lon="-3.4282380">
        <ele>537.2</ele>
        <time>2018-10-21T07:50:20Z</time>
      </trkpt>
      <trkpt lat="42.7736650" lon="-3.4281870">
        <ele>537.2</ele>
        <time>2018-10-21T07:50:21Z</time>
      </trkpt>
      <trkpt lat="42.7737170" lon="-3.4281370">
        <ele>537.2</ele>
        <time>2018-10-21T07:50:22Z</time>
      </trkpt>
      <trkpt lat="42.7737680" lon="-3.4280900">
        <ele>537.2</ele>
        <time>2018-10-21T07:50:23Z</time>
      </trkpt>
      <trkpt lat="42.7738230" lon="-3.4280450">
        <ele>537.2</ele>
        <time>2018-10-21T07:50:24Z</time>
      </trkpt>
      <trkpt lat="42.7738750" lon="-3.4279980">
        <ele>537.2</ele>
        <time>2018-10-21T07:50:25Z</time>
      </trkpt>
      <trkpt lat="42.7739300" lon="-3.4279530">
        <ele>537.2</ele>
        <time>2018-10-21T07:50:26Z</time>
      </trkpt>
      <trkpt lat="42.7739870" lon="-3.4279100">
        <ele>537.2</ele>
        <time>2018-10-21T07:50:27Z</time>
      </trkpt>
      <trkpt lat="42.7740450" lon="-3.4278700">
        <ele>537.2</ele>
        <time>2018-10-21T07:50:28Z</time>
      </trkpt>
      <trkpt lat="42.7741050" lon="-3.4278320">
        <ele>537.2</ele>
        <time>2018-10-21T07:50:29Z</time>
      </trkpt>
      <trkpt lat="42.7741670" lon="-3.4277950">
        <ele>538.3</ele>
        <time>2018-10-21T07:50:30Z</time>
      </trkpt>
      <trkpt lat="42.7742300" lon="-3.4277580">
        <ele>538.3</ele>
        <time>2018-10-21T07:50:31Z</time>
      </trkpt>
      <trkpt lat="42.7742930" lon="-3.4277250">
        <ele>538.3</ele>
        <time>2018-10-21T07:50:32Z</time>
      </trkpt>
      <trkpt lat="42.7743600" lon="-3.4276970">
        <ele>538.3</ele>
        <time>2018-10-21T07:50:33Z</time>
      </trkpt>
      <trkpt lat="42.7744270" lon="-3.4276650">
        <ele>538.3</ele>
        <time>2018-10-21T07:50:34Z</time>
      </trkpt>
      <trkpt lat="42.7744930" lon="-3.4276320">
        <ele>538.3</ele>
        <time>2018-10-21T07:50:35Z</time>
      </trkpt>
      <trkpt lat="42.7745600" lon="-3.4276000">
        <ele>538.3</ele>
        <time>2018-10-21T07:50:36Z</time>
      </trkpt>
      <trkpt lat="42.7746300" lon="-3.4275700">
        <ele>538.3</ele>
        <time>2018-10-21T07:50:37Z</time>
      </trkpt>
      <trkpt lat="42.7747020" lon="-3.4275430">
        <ele>537.2</ele>
        <time>2018-10-21T07:50:38Z</time>
      </trkpt>
      <trkpt lat="42.7747730" lon="-3.4275200">
        <ele>537.2</ele>
        <time>2018-10-21T07:50:39Z</time>
      </trkpt>
      <trkpt lat="42.7748480" lon="-3.4275000">
        <ele>537.2</ele>
        <time>2018-10-21T07:50:40Z</time>
      </trkpt>
      <trkpt lat="42.7749220" lon="-3.4274800">
        <ele>537.2</ele>
        <time>2018-10-21T07:50:41Z</time>
      </trkpt>
      <trkpt lat="42.7749980" lon="-3.4274620">
        <ele>537.2</ele>
        <time>2018-10-21T07:50:42Z</time>
      </trkpt>
      <trkpt lat="42.7750750" lon="-3.4274430">
        <ele>537.2</ele>
        <time>2018-10-21T07:50:43Z</time>
      </trkpt>
      <trkpt lat="42.7751530" lon="-3.4274280">
        <ele>536.3</ele>
        <time>2018-10-21T07:50:44Z</time>
      </trkpt>
      <trkpt lat="42.7752300" lon="-3.4274120">
        <ele>536.3</ele>
        <time>2018-10-21T07:50:45Z</time>
      </trkpt>
      <trkpt lat="42.7753080" lon="-3.4274020">
        <ele>536.3</ele>
        <time>2018-10-21T07:50:46Z</time>
      </trkpt>
      <trkpt lat="42.7753870" lon="-3.4273950">
        <ele>536.3</ele>
        <time>2018-10-21T07:50:47Z</time>
      </trkpt>
      <trkpt lat="42.7754630" lon="-3.4273900">
        <ele>535.2</ele>
        <time>2018-10-21T07:50:48Z</time>
      </trkpt>
      <trkpt lat="42.7755400" lon="-3.4273850">
        <ele>535.2</ele>
        <time>2018-10-21T07:50:49Z</time>
      </trkpt>
      <trkpt lat="42.7756170" lon="-3.4273850">
        <ele>535.2</ele>
        <time>2018-10-21T07:50:50Z</time>
      </trkpt>
      <trkpt lat="42.7756920" lon="-3.4273870">
        <ele>535.2</ele>
        <time>2018-10-21T07:50:51Z</time>
      </trkpt>
      <trkpt lat="42.7757680" lon="-3.4273920">
        <ele>535.2</ele>
        <time>2018-10-21T07:50:52Z</time>
      </trkpt>
      <trkpt lat="42.7758450" lon="-3.4273970">
        <ele>535.2</ele>
        <time>2018-10-21T07:50:53Z</time>
      </trkpt>
      <trkpt lat="42.7759200" lon="-3.4274030">
        <ele>535.2</ele>
        <time>2018-10-21T07:50:54Z</time>
      </trkpt>
      <trkpt lat="42.7759950" lon="-3.4274120">
        <ele>535.2</ele>
        <time>2018-10-21T07:50:55Z</time>
      </trkpt>
      <trkpt lat="42.7760700" lon="-3.4274220">
        <ele>534.2</ele>
        <time>2018-10-21T07:50:56Z</time>
      </trkpt>
      <trkpt lat="42.7761450" lon="-3.4274320">
        <ele>534.2</ele>
        <time>2018-10-21T07:50:57Z</time>
      </trkpt>
      <trkpt lat="42.7762180" lon="-3.4274420">
        <ele>534.2</ele>
        <time>2018-10-21T07:50:58Z</time>
      </trkpt>
      <trkpt lat="42.7762930" lon="-3.4274500">
        <ele>534.2</ele>
        <time>2018-10-21T07:50:59Z</time>
      </trkpt>
      <trkpt lat="42.7763700" lon="-3.4274580">
        <ele>534.2</ele>
        <time>2018-10-21T07:51:00Z</time>
      </trkpt>
      <trkpt lat="42.7764450" lon="-3.4274680">
        <ele>534.2</ele>
        <time>2018-10-21T07:51:01Z</time>
      </trkpt>
      <trkpt lat="42.7765200" lon="-3.4274770">
        <ele>534.2</ele>
        <time>2018-10-21T07:51:02Z</time>
      </trkpt>
      <trkpt lat="42.7765950" lon="-3.4274870">
        <ele>534.2</ele>
        <time>2018-10-21T07:51:03Z</time>
      </trkpt>
      <trkpt lat="42.7766720" lon="-3.4274970">
        <ele>534.2</ele>
        <time>2018-10-21T07:51:04Z</time>
      </trkpt>
      <trkpt lat="42.7767450" lon="-3.4275050">
        <ele>534.2</ele>
        <time>2018-10-21T07:51:05Z</time>
      </trkpt>
      <trkpt lat="42.7768200" lon="-3.4275150">
        <ele>534.2</ele>
        <time>2018-10-21T07:51:06Z</time>
      </trkpt>
      <trkpt lat="42.7768950" lon="-3.4275250">
        <ele>534.2</ele>
        <time>2018-10-21T07:51:07Z</time>
      </trkpt>
      <trkpt lat="42.7769680" lon="-3.4275350">
        <ele>534.2</ele>
        <time>2018-10-21T07:51:08Z</time>
      </trkpt>
      <trkpt lat="42.7770430" lon="-3.4275430">
        <ele>534.2</ele>
        <time>2018-10-21T07:51:09Z</time>
      </trkpt>
      <trkpt lat="42.7771180" lon="-3.4275520">
        <ele>534.2</ele>
        <time>2018-10-21T07:51:10Z</time>
      </trkpt>
      <trkpt lat="42.7771950" lon="-3.4275620">
        <ele>534.2</ele>
        <time>2018-10-21T07:51:11Z</time>
      </trkpt>
      <trkpt lat="42.7772730" lon="-3.4275730">
        <ele>534.2</ele>
        <time>2018-10-21T07:51:12Z</time>
      </trkpt>
      <trkpt lat="42.7773500" lon="-3.4275850">
        <ele>534.2</ele>
        <time>2018-10-21T07:51:13Z</time>
      </trkpt>
      <trkpt lat="42.7774270" lon="-3.4276030">
        <ele>534.2</ele>
        <time>2018-10-21T07:51:14Z</time>
      </trkpt>
      <trkpt lat="42.7775030" lon="-3.4276220">
        <ele>534.2</ele>
        <time>2018-10-21T07:51:15Z</time>
      </trkpt>
      <trkpt lat="42.7775820" lon="-3.4276420">
        <ele>533.3</ele>
        <time>2018-10-21T07:51:16Z</time>
      </trkpt>
      <trkpt lat="42.7776600" lon="-3.4276620">
        <ele>533.3</ele>
        <time>2018-10-21T07:51:17Z</time>
      </trkpt>
      <trkpt lat="42.7777380" lon="-3.4276850">
        <ele>533.3</ele>
        <time>2018-10-21T07:51:18Z</time>
      </trkpt>
      <trkpt lat="42.7778170" lon="-3.4277100">
        <ele>533.3</ele>
        <time>2018-10-21T07:51:19Z</time>
      </trkpt>
      <trkpt lat="42.7778930" lon="-3.4277400">
        <ele>533.3</ele>
        <time>2018-10-21T07:51:20Z</time>
      </trkpt>
      <trkpt lat="42.7779700" lon="-3.4277720">
        <ele>533.3</ele>
        <time>2018-10-21T07:51:21Z</time>
      </trkpt>
      <trkpt lat="42.7780480" lon="-3.4278020">
        <ele>533.3</ele>
        <time>2018-10-21T07:51:22Z</time>
      </trkpt>
      <trkpt lat="42.7781230" lon="-3.4278350">
        <ele>533.3</ele>
        <time>2018-10-21T07:51:23Z</time>
      </trkpt>
      <trkpt lat="42.7782000" lon="-3.4278720">
        <ele>533.3</ele>
        <time>2018-10-21T07:51:24Z</time>
      </trkpt>
      <trkpt lat="42.7782750" lon="-3.4279100">
        <ele>533.3</ele>
        <time>2018-10-21T07:51:25Z</time>
      </trkpt>
      <trkpt lat="42.7783480" lon="-3.4279500">
        <ele>533.3</ele>
        <time>2018-10-21T07:51:26Z</time>
      </trkpt>
      <trkpt lat="42.7784180" lon="-3.4279920">
        <ele>533.3</ele>
        <time>2018-10-21T07:51:27Z</time>
      </trkpt>
      <trkpt lat="42.7784870" lon="-3.4280320">
        <ele>533.3</ele>
        <time>2018-10-21T07:51:28Z</time>
      </trkpt>
      <trkpt lat="42.7785530" lon="-3.4280730">
        <ele>533.3</ele>
        <time>2018-10-21T07:51:29Z</time>
      </trkpt>
      <trkpt lat="42.7786170" lon="-3.4281150">
        <ele>533.3</ele>
        <time>2018-10-21T07:51:30Z</time>
      </trkpt>
      <trkpt lat="42.7786780" lon="-3.4281570">
        <ele>533.3</ele>
        <time>2018-10-21T07:51:31Z</time>
      </trkpt>
      <trkpt lat="42.7787380" lon="-3.4281950">
        <ele>533.3</ele>
        <time>2018-10-21T07:51:32Z</time>
      </trkpt>
      <trkpt lat="42.7787970" lon="-3.4282350">
        <ele>533.3</ele>
        <time>2018-10-21T07:51:33Z</time>
      </trkpt>
      <trkpt lat="42.7788550" lon="-3.4282750">
        <ele>534.2</ele>
        <time>2018-10-21T07:51:34Z</time>
      </trkpt>
      <trkpt lat="42.7789130" lon="-3.4283120">
        <ele>534.2</ele>
        <time>2018-10-21T07:51:35Z</time>
      </trkpt>
      <trkpt lat="42.7789750" lon="-3.4283420">
        <ele>534.2</ele>
        <time>2018-10-21T07:51:36Z</time>
      </trkpt>
      <trkpt lat="42.7790370" lon="-3.4283700">
        <ele>534.2</ele>
        <time>2018-10-21T07:51:37Z</time>
      </trkpt>
      <trkpt lat="42.7790970" lon="-3.4283980">
        <ele>534.2</ele>
        <time>2018-10-21T07:51:38Z</time>
      </trkpt>
      <trkpt lat="42.7791570" lon="-3.4284230">
        <ele>534.2</ele>
        <time>2018-10-21T07:51:39Z</time>
      </trkpt>
      <trkpt lat="42.7792150" lon="-3.4284430">
        <ele>534.2</ele>
        <time>2018-10-21T07:51:40Z</time>
      </trkpt>
      <trkpt lat="42.7792750" lon="-3.4284580">
        <ele>534.2</ele>
        <time>2018-10-21T07:51:41Z</time>
      </trkpt>
      <trkpt lat="42.7793330" lon="-3.4284720">
        <ele>534.2</ele>
        <time>2018-10-21T07:51:42Z</time>
      </trkpt>
      <trkpt lat="42.7793930" lon="-3.4284820">
        <ele>534.2</ele>
        <time>2018-10-21T07:51:43Z</time>
      </trkpt>
      <trkpt lat="42.7794530" lon="-3.4284880">
        <ele>535.2</ele>
        <time>2018-10-21T07:51:44Z</time>
      </trkpt>
      <trkpt lat="42.7795150" lon="-3.4284900">
        <ele>535.2</ele>
        <time>2018-10-21T07:51:45Z</time>
      </trkpt>
      <trkpt lat="42.7795780" lon="-3.4284870">
        <ele>535.2</ele>
        <time>2018-10-21T07:51:46Z</time>
      </trkpt>
      <trkpt lat="42.7796430" lon="-3.4284830">
        <ele>535.2</ele>
        <time>2018-10-21T07:51:47Z</time>
      </trkpt>
      <trkpt lat="42.7797080" lon="-3.4284770">
        <ele>535.2</ele>
        <time>2018-10-21T07:51:48Z</time>
      </trkpt>
      <trkpt lat="42.7797730" lon="-3.4284620">
        <ele>535.2</ele>
        <time>2018-10-21T07:51:49Z</time>
      </trkpt>
      <trkpt lat="42.7798400" lon="-3.4284370">
        <ele>534.2</ele>
        <time>2018-10-21T07:51:50Z</time>
      </trkpt>
      <trkpt lat="42.7799100" lon="-3.4284100">
        <ele>534.2</ele>
        <time>2018-10-21T07:51:51Z</time>
      </trkpt>
      <trkpt lat="42.7799800" lon="-3.4283820">
        <ele>534.2</ele>
        <time>2018-10-21T07:51:52Z</time>
      </trkpt>
      <trkpt lat="42.7800500" lon="-3.4283530">
        <ele>534.2</ele>
        <time>2018-10-21T07:51:53Z</time>
      </trkpt>
      <trkpt lat="42.7801230" lon="-3.4283250">
        <ele>534.2</ele>
        <time>2018-10-21T07:51:54Z</time>
      </trkpt>
      <trkpt lat="42.7801970" lon="-3.4282950">
        <ele>534.2</ele>
        <time>2018-10-21T07:51:55Z</time>
      </trkpt>
      <trkpt lat="42.7802680" lon="-3.4282700">
        <ele>534.2</ele>
        <time>2018-10-21T07:51:56Z</time>
      </trkpt>
      <trkpt lat="42.7803430" lon="-3.4282470">
        <ele>534.2</ele>
        <time>2018-10-21T07:51:57Z</time>
      </trkpt>
      <trkpt lat="42.7804200" lon="-3.4282230">
        <ele>534.2</ele>
        <time>2018-10-21T07:51:58Z</time>
      </trkpt>
      <trkpt lat="42.7804970" lon="-3.4282020">
        <ele>534.2</ele>
        <time>2018-10-21T07:51:59Z</time>
      </trkpt>
      <trkpt lat="42.7805770" lon="-3.4281820">
        <ele>534.2</ele>
        <time>2018-10-21T07:52:00Z</time>
      </trkpt>
      <trkpt lat="42.7806600" lon="-3.4281650">
        <ele>534.2</ele>
        <time>2018-10-21T07:52:01Z</time>
      </trkpt>
      <trkpt lat="42.7807420" lon="-3.4281480">
        <ele>531.3</ele>
        <time>2018-10-21T07:52:02Z</time>
      </trkpt>
      <trkpt lat="42.7808230" lon="-3.4281320">
        <ele>531.3</ele>
        <time>2018-10-21T07:52:03Z</time>
      </trkpt>
      <trkpt lat="42.7809070" lon="-3.4281180">
        <ele>531.3</ele>
        <time>2018-10-21T07:52:04Z</time>
      </trkpt>
      <trkpt lat="42.7809900" lon="-3.4281070">
        <ele>531.3</ele>
        <time>2018-10-21T07:52:05Z</time>
      </trkpt>
      <trkpt lat="42.7810730" lon="-3.4280880">
        <ele>530.2</ele>
        <time>2018-10-21T07:52:06Z</time>
      </trkpt>
      <trkpt lat="42.7811570" lon="-3.4280720">
        <ele>530.2</ele>
        <time>2018-10-21T07:52:07Z</time>
      </trkpt>
      <trkpt lat="42.7812400" lon="-3.4280530">
        <ele>530.2</ele>
        <time>2018-10-21T07:52:08Z</time>
      </trkpt>
      <trkpt lat="42.7813200" lon="-3.4280300">
        <ele>530.2</ele>
        <time>2018-10-21T07:52:09Z</time>
      </trkpt>
      <trkpt lat="42.7814000" lon="-3.4280070">
        <ele>530.2</ele>
        <time>2018-10-21T07:52:10Z</time>
      </trkpt>
      <trkpt lat="42.7814750" lon="-3.4279820">
        <ele>530.2</ele>
        <time>2018-10-21T07:52:11Z</time>
      </trkpt>
      <trkpt lat="42.7815500" lon="-3.4279570">
        <ele>530.2</ele>
        <time>2018-10-21T07:52:12Z</time>
      </trkpt>
      <trkpt lat="42.7816230" lon="-3.4279320">
        <ele>530.2</ele>
        <time>2018-10-21T07:52:13Z</time>
      </trkpt>
      <trkpt lat="42.7816970" lon="-3.4279070">
        <ele>530.2</ele>
        <time>2018-10-21T07:52:14Z</time>
      </trkpt>
      <trkpt lat="42.7817680" lon="-3.4278820">
        <ele>530.2</ele>
        <time>2018-10-21T07:52:15Z</time>
      </trkpt>
      <trkpt lat="42.7818380" lon="-3.4278570">
        <ele>530.2</ele>
        <time>2018-10-21T07:52:16Z</time>
      </trkpt>
      <trkpt lat="42.7819080" lon="-3.4278300">
        <ele>530.2</ele>
        <time>2018-10-21T07:52:17Z</time>
      </trkpt>
      <trkpt lat="42.7819800" lon="-3.4278030">
        <ele>530.2</ele>
        <time>2018-10-21T07:52:18Z</time>
      </trkpt>
      <trkpt lat="42.7819800" lon="-3.4278030">
        <ele>530.2</ele>
        <time>2018-10-21T07:52:19Z</time>
      </trkpt>
      <trkpt lat="42.7820500" lon="-3.4277770">
        <ele>530.2</ele>
        <time>2018-10-21T07:52:20Z</time>
      </trkpt>
      <trkpt lat="42.7821900" lon="-3.4277270">
        <ele>530.2</ele>
        <time>2018-10-21T07:52:21Z</time>
      </trkpt>
      <trkpt lat="42.7822600" lon="-3.4277020">
        <ele>530.2</ele>
        <time>2018-10-21T07:52:22Z</time>
      </trkpt>
      <trkpt lat="42.7823270" lon="-3.4276770">
        <ele>530.2</ele>
        <time>2018-10-21T07:52:23Z</time>
      </trkpt>
      <trkpt lat="42.7823950" lon="-3.4276520">
        <ele>530.2</ele>
        <time>2018-10-21T07:52:24Z</time>
      </trkpt>
      <trkpt lat="42.7824630" lon="-3.4276270">
        <ele>530.2</ele>
        <time>2018-10-21T07:52:25Z</time>
      </trkpt>
      <trkpt lat="42.7825320" lon="-3.4276000">
        <ele>530.2</ele>
        <time>2018-10-21T07:52:26Z</time>
      </trkpt>
      <trkpt lat="42.7826000" lon="-3.4275730">
        <ele>530.2</ele>
        <time>2018-10-21T07:52:27Z</time>
      </trkpt>
      <trkpt lat="42.7826680" lon="-3.4275500">
        <ele>530.2</ele>
        <time>2018-10-21T07:52:28Z</time>
      </trkpt>
      <trkpt lat="42.7827350" lon="-3.4275280">
        <ele>530.2</ele>
        <time>2018-10-21T07:52:29Z</time>
      </trkpt>
      <trkpt lat="42.7828000" lon="-3.4275020">
        <ele>530.2</ele>
        <time>2018-10-21T07:52:30Z</time>
      </trkpt>
      <trkpt lat="42.7828680" lon="-3.4274730">
        <ele>530.2</ele>
        <time>2018-10-21T07:52:31Z</time>
      </trkpt>
      <trkpt lat="42.7829370" lon="-3.4274480">
        <ele>530.2</ele>
        <time>2018-10-21T07:52:32Z</time>
      </trkpt>
      <trkpt lat="42.7830050" lon="-3.4274230">
        <ele>530.2</ele>
        <time>2018-10-21T07:52:33Z</time>
      </trkpt>
      <trkpt lat="42.7830720" lon="-3.4274020">
        <ele>530.2</ele>
        <time>2018-10-21T07:52:34Z</time>
      </trkpt>
      <trkpt lat="42.7831400" lon="-3.4273750">
        <ele>530.2</ele>
        <time>2018-10-21T07:52:35Z</time>
      </trkpt>
      <trkpt lat="42.7832080" lon="-3.4273480">
        <ele>530.2</ele>
        <time>2018-10-21T07:52:36Z</time>
      </trkpt>
      <trkpt lat="42.7832750" lon="-3.4273220">
        <ele>530.2</ele>
        <time>2018-10-21T07:52:37Z</time>
      </trkpt>
      <trkpt lat="42.7833430" lon="-3.4272930">
        <ele>530.2</ele>
        <time>2018-10-21T07:52:38Z</time>
      </trkpt>
      <trkpt lat="42.7834130" lon="-3.4272650">
        <ele>530.2</ele>
        <time>2018-10-21T07:52:39Z</time>
      </trkpt>
      <trkpt lat="42.7834800" lon="-3.4272330">
        <ele>530.2</ele>
        <time>2018-10-21T07:52:40Z</time>
      </trkpt>
      <trkpt lat="42.7835450" lon="-3.4271970">
        <ele>530.2</ele>
        <time>2018-10-21T07:52:41Z</time>
      </trkpt>
      <trkpt lat="42.7836100" lon="-3.4271580">
        <ele>530.2</ele>
        <time>2018-10-21T07:52:42Z</time>
      </trkpt>
      <trkpt lat="42.7836730" lon="-3.4271180">
        <ele>530.2</ele>
        <time>2018-10-21T07:52:43Z</time>
      </trkpt>
      <trkpt lat="42.7837370" lon="-3.4270750">
        <ele>530.2</ele>
        <time>2018-10-21T07:52:44Z</time>
      </trkpt>
      <trkpt lat="42.7838000" lon="-3.4270280">
        <ele>530.2</ele>
        <time>2018-10-21T07:52:45Z</time>
      </trkpt>
      <trkpt lat="42.7838580" lon="-3.4269770">
        <ele>530.2</ele>
        <time>2018-10-21T07:52:46Z</time>
      </trkpt>
      <trkpt lat="42.7839180" lon="-3.4269200">
        <ele>530.2</ele>
        <time>2018-10-21T07:52:47Z</time>
      </trkpt>
      <trkpt lat="42.7839780" lon="-3.4268630">
        <ele>530.2</ele>
        <time>2018-10-21T07:52:48Z</time>
      </trkpt>
      <trkpt lat="42.7840350" lon="-3.4268020">
        <ele>530.2</ele>
        <time>2018-10-21T07:52:49Z</time>
      </trkpt>
      <trkpt lat="42.7840920" lon="-3.4267330">
        <ele>530.2</ele>
        <time>2018-10-21T07:52:50Z</time>
      </trkpt>
      <trkpt lat="42.7841430" lon="-3.4266630">
        <ele>530.2</ele>
        <time>2018-10-21T07:52:51Z</time>
      </trkpt>
      <trkpt lat="42.7841930" lon="-3.4265880">
        <ele>530.2</ele>
        <time>2018-10-21T07:52:52Z</time>
      </trkpt>
      <trkpt lat="42.7842420" lon="-3.4265120">
        <ele>530.2</ele>
        <time>2018-10-21T07:52:53Z</time>
      </trkpt>
      <trkpt lat="42.7842900" lon="-3.4264320">
        <ele>530.2</ele>
        <time>2018-10-21T07:52:54Z</time>
      </trkpt>
      <trkpt lat="42.7843350" lon="-3.4263480">
        <ele>530.2</ele>
        <time>2018-10-21T07:52:55Z</time>
      </trkpt>
      <trkpt lat="42.7843770" lon="-3.4262620">
        <ele>530.2</ele>
        <time>2018-10-21T07:52:56Z</time>
      </trkpt>
      <trkpt lat="42.7844170" lon="-3.4261720">
        <ele>530.2</ele>
        <time>2018-10-21T07:52:57Z</time>
      </trkpt>
      <trkpt lat="42.7844520" lon="-3.4260800">
        <ele>529.3</ele>
        <time>2018-10-21T07:52:58Z</time>
      </trkpt>
      <trkpt lat="42.7844850" lon="-3.4259850">
        <ele>529.3</ele>
        <time>2018-10-21T07:52:59Z</time>
      </trkpt>
      <trkpt lat="42.7845150" lon="-3.4258880">
        <ele>529.3</ele>
        <time>2018-10-21T07:53:00Z</time>
      </trkpt>
      <trkpt lat="42.7845420" lon="-3.4257900">
        <ele>529.3</ele>
        <time>2018-10-21T07:53:01Z</time>
      </trkpt>
      <trkpt lat="42.7845670" lon="-3.4256900">
        <ele>529.3</ele>
        <time>2018-10-21T07:53:02Z</time>
      </trkpt>
      <trkpt lat="42.7845880" lon="-3.4255880">
        <ele>529.3</ele>
        <time>2018-10-21T07:53:03Z</time>
      </trkpt>
      <trkpt lat="42.7846100" lon="-3.4254870">
        <ele>529.3</ele>
        <time>2018-10-21T07:53:04Z</time>
      </trkpt>
      <trkpt lat="42.7846280" lon="-3.4253850">
        <ele>529.3</ele>
        <time>2018-10-21T07:53:05Z</time>
      </trkpt>
      <trkpt lat="42.7846420" lon="-3.4252830">
        <ele>528.2</ele>
        <time>2018-10-21T07:53:06Z</time>
      </trkpt>
      <trkpt lat="42.7846570" lon="-3.4251820">
        <ele>528.2</ele>
        <time>2018-10-21T07:53:07Z</time>
      </trkpt>
      <trkpt lat="42.7846700" lon="-3.4250800">
        <ele>528.2</ele>
        <time>2018-10-21T07:53:08Z</time>
      </trkpt>
      <trkpt lat="42.7846830" lon="-3.4249780">
        <ele>528.2</ele>
        <time>2018-10-21T07:53:09Z</time>
      </trkpt>
      <trkpt lat="42.7846970" lon="-3.4248780">
        <ele>528.2</ele>
        <time>2018-10-21T07:53:10Z</time>
      </trkpt>
      <trkpt lat="42.7847080" lon="-3.4247780">
        <ele>528.2</ele>
        <time>2018-10-21T07:53:11Z</time>
      </trkpt>
      <trkpt lat="42.7847170" lon="-3.4246770">
        <ele>528.2</ele>
        <time>2018-10-21T07:53:12Z</time>
      </trkpt>
      <trkpt lat="42.7847280" lon="-3.4245780">
        <ele>528.2</ele>
        <time>2018-10-21T07:53:13Z</time>
      </trkpt>
      <trkpt lat="42.7847400" lon="-3.4244780">
        <ele>528.2</ele>
        <time>2018-10-21T07:53:14Z</time>
      </trkpt>
      <trkpt lat="42.7847520" lon="-3.4243800">
        <ele>528.2</ele>
        <time>2018-10-21T07:53:15Z</time>
      </trkpt>
      <trkpt lat="42.7847620" lon="-3.4242830">
        <ele>528.2</ele>
        <time>2018-10-21T07:53:16Z</time>
      </trkpt>
      <trkpt lat="42.7847730" lon="-3.4241870">
        <ele>528.2</ele>
        <time>2018-10-21T07:53:17Z</time>
      </trkpt>
      <trkpt lat="42.7847830" lon="-3.4240920">
        <ele>528.2</ele>
        <time>2018-10-21T07:53:18Z</time>
      </trkpt>
      <trkpt lat="42.7847920" lon="-3.4239970">
        <ele>528.2</ele>
        <time>2018-10-21T07:53:19Z</time>
      </trkpt>
      <trkpt lat="42.7848020" lon="-3.4239030">
        <ele>528.2</ele>
        <time>2018-10-21T07:53:20Z</time>
      </trkpt>
      <trkpt lat="42.7848120" lon="-3.4238100">
        <ele>528.2</ele>
        <time>2018-10-21T07:53:21Z</time>
      </trkpt>
      <trkpt lat="42.7848220" lon="-3.4237180">
        <ele>528.2</ele>
        <time>2018-10-21T07:53:22Z</time>
      </trkpt>
      <trkpt lat="42.7848320" lon="-3.4236250">
        <ele>528.2</ele>
        <time>2018-10-21T07:53:23Z</time>
      </trkpt>
      <trkpt lat="42.7848430" lon="-3.4235320">
        <ele>528.2</ele>
        <time>2018-10-21T07:53:24Z</time>
      </trkpt>
      <trkpt lat="42.7848520" lon="-3.4234380">
        <ele>528.2</ele>
        <time>2018-10-21T07:53:25Z</time>
      </trkpt>
      <trkpt lat="42.7848600" lon="-3.4233420">
        <ele>529.3</ele>
        <time>2018-10-21T07:53:26Z</time>
      </trkpt>
      <trkpt lat="42.7848670" lon="-3.4232450">
        <ele>529.3</ele>
        <time>2018-10-21T07:53:27Z</time>
      </trkpt>
      <trkpt lat="42.7848730" lon="-3.4231500">
        <ele>529.3</ele>
        <time>2018-10-21T07:53:28Z</time>
      </trkpt>
      <trkpt lat="42.7848800" lon="-3.4230550">
        <ele>529.3</ele>
        <time>2018-10-21T07:53:29Z</time>
      </trkpt>
      <trkpt lat="42.7848870" lon="-3.4229580">
        <ele>529.3</ele>
        <time>2018-10-21T07:53:30Z</time>
      </trkpt>
      <trkpt lat="42.7848930" lon="-3.4228600">
        <ele>529.3</ele>
        <time>2018-10-21T07:53:31Z</time>
      </trkpt>
      <trkpt lat="42.7849000" lon="-3.4227630">
        <ele>529.3</ele>
        <time>2018-10-21T07:53:32Z</time>
      </trkpt>
      <trkpt lat="42.7849070" lon="-3.4226630">
        <ele>529.3</ele>
        <time>2018-10-21T07:53:33Z</time>
      </trkpt>
      <trkpt lat="42.7849170" lon="-3.4225650">
        <ele>529.3</ele>
        <time>2018-10-21T07:53:34Z</time>
      </trkpt>
      <trkpt lat="42.7849230" lon="-3.4224670">
        <ele>529.3</ele>
        <time>2018-10-21T07:53:35Z</time>
      </trkpt>
      <trkpt lat="42.7849300" lon="-3.4223650">
        <ele>529.3</ele>
        <time>2018-10-21T07:53:36Z</time>
      </trkpt>
      <trkpt lat="42.7849350" lon="-3.4222630">
        <ele>529.3</ele>
        <time>2018-10-21T07:53:37Z</time>
      </trkpt>
      <trkpt lat="42.7849420" lon="-3.4221600">
        <ele>529.3</ele>
        <time>2018-10-21T07:53:38Z</time>
      </trkpt>
      <trkpt lat="42.7849480" lon="-3.4220570">
        <ele>529.3</ele>
        <time>2018-10-21T07:53:39Z</time>
      </trkpt>
      <trkpt lat="42.7849570" lon="-3.4219520">
        <ele>528.2</ele>
        <time>2018-10-21T07:53:40Z</time>
      </trkpt>
      <trkpt lat="42.7849620" lon="-3.4218450">
        <ele>528.2</ele>
        <time>2018-10-21T07:53:41Z</time>
      </trkpt>
      <trkpt lat="42.7849680" lon="-3.4217350">
        <ele>528.2</ele>
        <time>2018-10-21T07:53:42Z</time>
      </trkpt>
      <trkpt lat="42.7849730" lon="-3.4216250">
        <ele>528.2</ele>
        <time>2018-10-21T07:53:43Z</time>
      </trkpt>
      <trkpt lat="42.7849800" lon="-3.4215130">
        <ele>528.2</ele>
        <time>2018-10-21T07:53:44Z</time>
      </trkpt>
      <trkpt lat="42.7849870" lon="-3.4214030">
        <ele>528.2</ele>
        <time>2018-10-21T07:53:45Z</time>
      </trkpt>
      <trkpt lat="42.7849920" lon="-3.4212920">
        <ele>527.3</ele>
        <time>2018-10-21T07:53:46Z</time>
      </trkpt>
      <trkpt lat="42.7850020" lon="-3.4211800">
        <ele>527.3</ele>
        <time>2018-10-21T07:53:47Z</time>
      </trkpt>
      <trkpt lat="42.7850080" lon="-3.4210680">
        <ele>527.3</ele>
        <time>2018-10-21T07:53:48Z</time>
      </trkpt>
      <trkpt lat="42.7850150" lon="-3.4209580">
        <ele>527.3</ele>
        <time>2018-10-21T07:53:49Z</time>
      </trkpt>
      <trkpt lat="42.7850230" lon="-3.4208500">
        <ele>526.2</ele>
        <time>2018-10-21T07:53:50Z</time>
      </trkpt>
      <trkpt lat="42.7850370" lon="-3.4207430">
        <ele>526.2</ele>
        <time>2018-10-21T07:53:51Z</time>
      </trkpt>
      <trkpt lat="42.7850530" lon="-3.4206380">
        <ele>526.2</ele>
        <time>2018-10-21T07:53:52Z</time>
      </trkpt>
      <trkpt lat="42.7850720" lon="-3.4205370">
        <ele>526.2</ele>
        <time>2018-10-21T07:53:53Z</time>
      </trkpt>
      <trkpt lat="42.7850970" lon="-3.4204380">
        <ele>526.2</ele>
        <time>2018-10-21T07:53:54Z</time>
      </trkpt>
      <trkpt lat="42.7851220" lon="-3.4203430">
        <ele>526.2</ele>
        <time>2018-10-21T07:53:55Z</time>
      </trkpt>
      <trkpt lat="42.7851480" lon="-3.4202500">
        <ele>526.2</ele>
        <time>2018-10-21T07:53:56Z</time>
      </trkpt>
      <trkpt lat="42.7851770" lon="-3.4201570">
        <ele>526.2</ele>
        <time>2018-10-21T07:53:57Z</time>
      </trkpt>
      <trkpt lat="42.7852080" lon="-3.4200670">
        <ele>526.2</ele>
        <time>2018-10-21T07:53:58Z</time>
      </trkpt>
      <trkpt lat="42.7852420" lon="-3.4199780">
        <ele>526.2</ele>
        <time>2018-10-21T07:53:59Z</time>
      </trkpt>
      <trkpt lat="42.7852750" lon="-3.4198920">
        <ele>526.2</ele>
        <time>2018-10-21T07:54:00Z</time>
      </trkpt>
      <trkpt lat="42.7853080" lon="-3.4198030">
        <ele>526.2</ele>
        <time>2018-10-21T07:54:01Z</time>
      </trkpt>
      <trkpt lat="42.7853400" lon="-3.4197170">
        <ele>526.2</ele>
        <time>2018-10-21T07:54:02Z</time>
      </trkpt>
      <trkpt lat="42.7853730" lon="-3.4196280">
        <ele>526.2</ele>
        <time>2018-10-21T07:54:03Z</time>
      </trkpt>
      <trkpt lat="42.7854070" lon="-3.4195450">
        <ele>526.2</ele>
        <time>2018-10-21T07:54:04Z</time>
      </trkpt>
      <trkpt lat="42.7854420" lon="-3.4194620">
        <ele>526.2</ele>
        <time>2018-10-21T07:54:05Z</time>
      </trkpt>
      <trkpt lat="42.7854780" lon="-3.4193770">
        <ele>526.2</ele>
        <time>2018-10-21T07:54:06Z</time>
      </trkpt>
      <trkpt lat="42.7855130" lon="-3.4192870">
        <ele>526.2</ele>
        <time>2018-10-21T07:54:07Z</time>
      </trkpt>
      <trkpt lat="42.7855520" lon="-3.4191970">
        <ele>526.2</ele>
        <time>2018-10-21T07:54:08Z</time>
      </trkpt>
      <trkpt lat="42.7855900" lon="-3.4191080">
        <ele>526.2</ele>
        <time>2018-10-21T07:54:09Z</time>
      </trkpt>
      <trkpt lat="42.7856320" lon="-3.4190250">
        <ele>528.2</ele>
        <time>2018-10-21T07:54:10Z</time>
      </trkpt>
      <trkpt lat="42.7856770" lon="-3.4189430">
        <ele>528.2</ele>
        <time>2018-10-21T07:54:11Z</time>
      </trkpt>
      <trkpt lat="42.7857230" lon="-3.4188630">
        <ele>528.2</ele>
        <time>2018-10-21T07:54:12Z</time>
      </trkpt>
      <trkpt lat="42.7857730" lon="-3.4187870">
        <ele>528.2</ele>
        <time>2018-10-21T07:54:13Z</time>
      </trkpt>
      <trkpt lat="42.7858250" lon="-3.4187120">
        <ele>528.2</ele>
        <time>2018-10-21T07:54:14Z</time>
      </trkpt>
      <trkpt lat="42.7858770" lon="-3.4186350">
        <ele>528.2</ele>
        <time>2018-10-21T07:54:15Z</time>
      </trkpt>
      <trkpt lat="42.7859280" lon="-3.4185580">
        <ele>528.2</ele>
        <time>2018-10-21T07:54:16Z</time>
      </trkpt>
      <trkpt lat="42.7859820" lon="-3.4184850">
        <ele>528.2</ele>
        <time>2018-10-21T07:54:17Z</time>
      </trkpt>
      <trkpt lat="42.7860350" lon="-3.4184150">
        <ele>527.3</ele>
        <time>2018-10-21T07:54:18Z</time>
      </trkpt>
      <trkpt lat="42.7860870" lon="-3.4183430">
        <ele>527.3</ele>
        <time>2018-10-21T07:54:19Z</time>
      </trkpt>
      <trkpt lat="42.7861350" lon="-3.4182700">
        <ele>527.3</ele>
        <time>2018-10-21T07:54:20Z</time>
      </trkpt>
      <trkpt lat="42.7861850" lon="-3.4181980">
        <ele>527.3</ele>
        <time>2018-10-21T07:54:21Z</time>
      </trkpt>
      <trkpt lat="42.7862350" lon="-3.4181270">
        <ele>527.3</ele>
        <time>2018-10-21T07:54:22Z</time>
      </trkpt>
      <trkpt lat="42.7862850" lon="-3.4180530">
        <ele>527.3</ele>
        <time>2018-10-21T07:54:23Z</time>
      </trkpt>
      <trkpt lat="42.7863330" lon="-3.4179800">
        <ele>527.3</ele>
        <time>2018-10-21T07:54:24Z</time>
      </trkpt>
      <trkpt lat="42.7863820" lon="-3.4179080">
        <ele>527.3</ele>
        <time>2018-10-21T07:54:25Z</time>
      </trkpt>
      <trkpt lat="42.7864280" lon="-3.4178380">
        <ele>527.3</ele>
        <time>2018-10-21T07:54:26Z</time>
      </trkpt>
      <trkpt lat="42.7864750" lon="-3.4177680">
        <ele>527.3</ele>
        <time>2018-10-21T07:54:27Z</time>
      </trkpt>
      <trkpt lat="42.7865230" lon="-3.4177000">
        <ele>527.3</ele>
        <time>2018-10-21T07:54:28Z</time>
      </trkpt>
      <trkpt lat="42.7865670" lon="-3.4176320">
        <ele>527.3</ele>
        <time>2018-10-21T07:54:29Z</time>
      </trkpt>
      <trkpt lat="42.7866120" lon="-3.4175650">
        <ele>527.3</ele>
        <time>2018-10-21T07:54:30Z</time>
      </trkpt>
      <trkpt lat="42.7866580" lon="-3.4175020">
        <ele>527.3</ele>
        <time>2018-10-21T07:54:31Z</time>
      </trkpt>
      <trkpt lat="42.7867070" lon="-3.4174420">
        <ele>528.2</ele>
        <time>2018-10-21T07:54:32Z</time>
      </trkpt>
      <trkpt lat="42.7867580" lon="-3.4173850">
        <ele>528.2</ele>
        <time>2018-10-21T07:54:33Z</time>
      </trkpt>
      <trkpt lat="42.7868130" lon="-3.4173320">
        <ele>528.2</ele>
        <time>2018-10-21T07:54:34Z</time>
      </trkpt>
      <trkpt lat="42.7868700" lon="-3.4172800">
        <ele>528.2</ele>
        <time>2018-10-21T07:54:35Z</time>
      </trkpt>
      <trkpt lat="42.7869280" lon="-3.4172270">
        <ele>528.2</ele>
        <time>2018-10-21T07:54:36Z</time>
      </trkpt>
      <trkpt lat="42.7869870" lon="-3.4171720">
        <ele>528.2</ele>
        <time>2018-10-21T07:54:37Z</time>
      </trkpt>
      <trkpt lat="42.7870470" lon="-3.4171130">
        <ele>528.2</ele>
        <time>2018-10-21T07:54:38Z</time>
      </trkpt>
      <trkpt lat="42.7871050" lon="-3.4170550">
        <ele>528.2</ele>
        <time>2018-10-21T07:54:39Z</time>
      </trkpt>
      <trkpt lat="42.7871600" lon="-3.4169950">
        <ele>528.2</ele>
        <time>2018-10-21T07:54:40Z</time>
      </trkpt>
      <trkpt lat="42.7872100" lon="-3.4169280">
        <ele>528.2</ele>
        <time>2018-10-21T07:54:41Z</time>
      </trkpt>
      <trkpt lat="42.7872580" lon="-3.4168620">
        <ele>528.2</ele>
        <time>2018-10-21T07:54:42Z</time>
      </trkpt>
      <trkpt lat="42.7873030" lon="-3.4167900">
        <ele>528.2</ele>
        <time>2018-10-21T07:54:43Z</time>
      </trkpt>
      <trkpt lat="42.7873470" lon="-3.4167180">
        <ele>528.2</ele>
        <time>2018-10-21T07:54:44Z</time>
      </trkpt>
      <trkpt lat="42.7873920" lon="-3.4166470">
        <ele>528.2</ele>
        <time>2018-10-21T07:54:45Z</time>
      </trkpt>
      <trkpt lat="42.7874380" lon="-3.4165750">
        <ele>528.2</ele>
        <time>2018-10-21T07:54:46Z</time>
      </trkpt>
      <trkpt lat="42.7874820" lon="-3.4165020">
        <ele>528.2</ele>
        <time>2018-10-21T07:54:47Z</time>
      </trkpt>
      <trkpt lat="42.7875250" lon="-3.4164280">
        <ele>528.2</ele>
        <time>2018-10-21T07:54:48Z</time>
      </trkpt>
      <trkpt lat="42.7875720" lon="-3.4163550">
        <ele>528.2</ele>
        <time>2018-10-21T07:54:49Z</time>
      </trkpt>
      <trkpt lat="42.7876170" lon="-3.4162820">
        <ele>528.2</ele>
        <time>2018-10-21T07:54:50Z</time>
      </trkpt>
      <trkpt lat="42.7876620" lon="-3.4162050">
        <ele>528.2</ele>
        <time>2018-10-21T07:54:51Z</time>
      </trkpt>
      <trkpt lat="42.7877070" lon="-3.4161270">
        <ele>528.2</ele>
        <time>2018-10-21T07:54:52Z</time>
      </trkpt>
      <trkpt lat="42.7877480" lon="-3.4160450">
        <ele>528.2</ele>
        <time>2018-10-21T07:54:53Z</time>
      </trkpt>
      <trkpt lat="42.7877880" lon="-3.4159620">
        <ele>528.2</ele>
        <time>2018-10-21T07:54:54Z</time>
      </trkpt>
      <trkpt lat="42.7878250" lon="-3.4158750">
        <ele>528.2</ele>
        <time>2018-10-21T07:54:55Z</time>
      </trkpt>
      <trkpt lat="42.7878600" lon="-3.4157870">
        <ele>528.2</ele>
        <time>2018-10-21T07:54:56Z</time>
      </trkpt>
      <trkpt lat="42.7878920" lon="-3.4156950">
        <ele>528.2</ele>
        <time>2018-10-21T07:54:57Z</time>
      </trkpt>
      <trkpt lat="42.7879220" lon="-3.4156030">
        <ele>528.2</ele>
        <time>2018-10-21T07:54:58Z</time>
      </trkpt>
      <trkpt lat="42.7879500" lon="-3.4155080">
        <ele>528.2</ele>
        <time>2018-10-21T07:54:59Z</time>
      </trkpt>
      <trkpt lat="42.7879780" lon="-3.4154150">
        <ele>527.3</ele>
        <time>2018-10-21T07:55:00Z</time>
      </trkpt>
      <trkpt lat="42.7880080" lon="-3.4153220">
        <ele>527.3</ele>
        <time>2018-10-21T07:55:01Z</time>
      </trkpt>
      <trkpt lat="42.7880370" lon="-3.4152270">
        <ele>527.3</ele>
        <time>2018-10-21T07:55:02Z</time>
      </trkpt>
      <trkpt lat="42.7880630" lon="-3.4151330">
        <ele>527.3</ele>
        <time>2018-10-21T07:55:03Z</time>
      </trkpt>
      <trkpt lat="42.7880900" lon="-3.4150370">
        <ele>527.3</ele>
        <time>2018-10-21T07:55:04Z</time>
      </trkpt>
      <trkpt lat="42.7881120" lon="-3.4149380">
        <ele>527.3</ele>
        <time>2018-10-21T07:55:05Z</time>
      </trkpt>
      <trkpt lat="42.7881320" lon="-3.4148380">
        <ele>527.3</ele>
        <time>2018-10-21T07:55:06Z</time>
      </trkpt>
      <trkpt lat="42.7881480" lon="-3.4147370">
        <ele>527.3</ele>
        <time>2018-10-21T07:55:07Z</time>
      </trkpt>
      <trkpt lat="42.7881620" lon="-3.4146350">
        <ele>527.3</ele>
        <time>2018-10-21T07:55:08Z</time>
      </trkpt>
      <trkpt lat="42.7881720" lon="-3.4145330">
        <ele>527.3</ele>
        <time>2018-10-21T07:55:09Z</time>
      </trkpt>
      <trkpt lat="42.7881770" lon="-3.4144300">
        <ele>527.3</ele>
        <time>2018-10-21T07:55:10Z</time>
      </trkpt>
      <trkpt lat="42.7881800" lon="-3.4143270">
        <ele>527.3</ele>
        <time>2018-10-21T07:55:11Z</time>
      </trkpt>
      <trkpt lat="42.7881780" lon="-3.4142230">
        <ele>527.3</ele>
        <time>2018-10-21T07:55:12Z</time>
      </trkpt>
      <trkpt lat="42.7881750" lon="-3.4141200">
        <ele>527.3</ele>
        <time>2018-10-21T07:55:13Z</time>
      </trkpt>
      <trkpt lat="42.7881680" lon="-3.4140180">
        <ele>526.2</ele>
        <time>2018-10-21T07:55:14Z</time>
      </trkpt>
      <trkpt lat="42.7881580" lon="-3.4139180">
        <ele>526.2</ele>
        <time>2018-10-21T07:55:15Z</time>
      </trkpt>
      <trkpt lat="42.7881450" lon="-3.4138200">
        <ele>526.2</ele>
        <time>2018-10-21T07:55:16Z</time>
      </trkpt>
      <trkpt lat="42.7881320" lon="-3.4137250">
        <ele>526.2</ele>
        <time>2018-10-21T07:55:17Z</time>
      </trkpt>
      <trkpt lat="42.7881150" lon="-3.4136320">
        <ele>525.2</ele>
        <time>2018-10-21T07:55:18Z</time>
      </trkpt>
      <trkpt lat="42.7881020" lon="-3.4135400">
        <ele>525.2</ele>
        <time>2018-10-21T07:55:19Z</time>
      </trkpt>
      <trkpt lat="42.7880880" lon="-3.4134500">
        <ele>525.2</ele>
        <time>2018-10-21T07:55:20Z</time>
      </trkpt>
      <trkpt lat="42.7880780" lon="-3.4133630">
        <ele>525.2</ele>
        <time>2018-10-21T07:55:21Z</time>
      </trkpt>
      <trkpt lat="42.7880720" lon="-3.4132780">
        <ele>525.2</ele>
        <time>2018-10-21T07:55:22Z</time>
      </trkpt>
      <trkpt lat="42.7880680" lon="-3.4131970">
        <ele>525.2</ele>
        <time>2018-10-21T07:55:23Z</time>
      </trkpt>
      <trkpt lat="42.7880680" lon="-3.4131170">
        <ele>525.2</ele>
        <time>2018-10-21T07:55:24Z</time>
      </trkpt>
      <trkpt lat="42.7880700" lon="-3.4130400">
        <ele>525.2</ele>
        <time>2018-10-21T07:55:25Z</time>
      </trkpt>
      <trkpt lat="42.7880770" lon="-3.4129620">
        <ele>525.2</ele>
        <time>2018-10-21T07:55:26Z</time>
      </trkpt>
      <trkpt lat="42.7880830" lon="-3.4128850">
        <ele>525.2</ele>
        <time>2018-10-21T07:55:27Z</time>
      </trkpt>
      <trkpt lat="42.7880950" lon="-3.4128030">
        <ele>527.3</ele>
        <time>2018-10-21T07:55:28Z</time>
      </trkpt>
      <trkpt lat="42.7881120" lon="-3.4127220">
        <ele>527.3</ele>
        <time>2018-10-21T07:55:29Z</time>
      </trkpt>
      <trkpt lat="42.7881280" lon="-3.4126380">
        <ele>527.3</ele>
        <time>2018-10-21T07:55:30Z</time>
      </trkpt>
      <trkpt lat="42.7881480" lon="-3.4125600">
        <ele>527.3</ele>
        <time>2018-10-21T07:55:31Z</time>
      </trkpt>
      <trkpt lat="42.7881730" lon="-3.4124870">
        <ele>527.3</ele>
        <time>2018-10-21T07:55:32Z</time>
      </trkpt>
      <trkpt lat="42.7881980" lon="-3.4124130">
        <ele>527.3</ele>
        <time>2018-10-21T07:55:33Z</time>
      </trkpt>
      <trkpt lat="42.7882250" lon="-3.4123400">
        <ele>527.3</ele>
        <time>2018-10-21T07:55:34Z</time>
      </trkpt>
      <trkpt lat="42.7882570" lon="-3.4122680">
        <ele>527.3</ele>
        <time>2018-10-21T07:55:35Z</time>
      </trkpt>
      <trkpt lat="42.7882880" lon="-3.4121970">
        <ele>528.2</ele>
        <time>2018-10-21T07:55:36Z</time>
      </trkpt>
      <trkpt lat="42.7883200" lon="-3.4121250">
        <ele>528.2</ele>
        <time>2018-10-21T07:55:37Z</time>
      </trkpt>
      <trkpt lat="42.7883500" lon="-3.4120530">
        <ele>528.2</ele>
        <time>2018-10-21T07:55:38Z</time>
      </trkpt>
      <trkpt lat="42.7883770" lon="-3.4119830">
        <ele>528.2</ele>
        <time>2018-10-21T07:55:39Z</time>
      </trkpt>
      <trkpt lat="42.7884030" lon="-3.4119130">
        <ele>528.2</ele>
        <time>2018-10-21T07:55:40Z</time>
      </trkpt>
      <trkpt lat="42.7884350" lon="-3.4118430">
        <ele>528.2</ele>
        <time>2018-10-21T07:55:41Z</time>
      </trkpt>
      <trkpt lat="42.7884650" lon="-3.4117730">
        <ele>528.2</ele>
        <time>2018-10-21T07:55:42Z</time>
      </trkpt>
      <trkpt lat="42.7884980" lon="-3.4117020">
        <ele>528.2</ele>
        <time>2018-10-21T07:55:43Z</time>
      </trkpt>
      <trkpt lat="42.7885320" lon="-3.4116270">
        <ele>528.2</ele>
        <time>2018-10-21T07:55:44Z</time>
      </trkpt>
      <trkpt lat="42.7885650" lon="-3.4115530">
        <ele>528.2</ele>
        <time>2018-10-21T07:55:45Z</time>
      </trkpt>
      <trkpt lat="42.7885980" lon="-3.4114780">
        <ele>529.3</ele>
        <time>2018-10-21T07:55:46Z</time>
      </trkpt>
      <trkpt lat="42.7886330" lon="-3.4114070">
        <ele>529.3</ele>
        <time>2018-10-21T07:55:47Z</time>
      </trkpt>
      <trkpt lat="42.7886720" lon="-3.4113350">
        <ele>529.3</ele>
        <time>2018-10-21T07:55:48Z</time>
      </trkpt>
      <trkpt lat="42.7887100" lon="-3.4112600">
        <ele>529.3</ele>
        <time>2018-10-21T07:55:49Z</time>
      </trkpt>
      <trkpt lat="42.7887520" lon="-3.4111820">
        <ele>529.3</ele>
        <time>2018-10-21T07:55:50Z</time>
      </trkpt>
      <trkpt lat="42.7887950" lon="-3.4111080">
        <ele>529.3</ele>
        <time>2018-10-21T07:55:51Z</time>
      </trkpt>
      <trkpt lat="42.7888420" lon="-3.4110350">
        <ele>529.3</ele>
        <time>2018-10-21T07:55:52Z</time>
      </trkpt>
      <trkpt lat="42.7888820" lon="-3.4109580">
        <ele>529.3</ele>
        <time>2018-10-21T07:55:53Z</time>
      </trkpt>
      <trkpt lat="42.7889250" lon="-3.4108870">
        <ele>529.3</ele>
        <time>2018-10-21T07:55:54Z</time>
      </trkpt>
      <trkpt lat="42.7889700" lon="-3.4108150">
        <ele>529.3</ele>
        <time>2018-10-21T07:55:55Z</time>
      </trkpt>
      <trkpt lat="42.7890150" lon="-3.4107470">
        <ele>529.3</ele>
        <time>2018-10-21T07:55:56Z</time>
      </trkpt>
      <trkpt lat="42.7890630" lon="-3.4106780">
        <ele>529.3</ele>
        <time>2018-10-21T07:55:57Z</time>
      </trkpt>
      <trkpt lat="42.7891130" lon="-3.4106150">
        <ele>529.3</ele>
        <time>2018-10-21T07:55:58Z</time>
      </trkpt>
      <trkpt lat="42.7891630" lon="-3.4105500">
        <ele>529.3</ele>
        <time>2018-10-21T07:55:59Z</time>
      </trkpt>
      <trkpt lat="42.7892130" lon="-3.4104830">
        <ele>529.3</ele>
        <time>2018-10-21T07:56:00Z</time>
      </trkpt>
      <trkpt lat="42.7892620" lon="-3.4104180">
        <ele>529.3</ele>
        <time>2018-10-21T07:56:01Z</time>
      </trkpt>
      <trkpt lat="42.7893130" lon="-3.4103550">
        <ele>528.2</ele>
        <time>2018-10-21T07:56:02Z</time>
      </trkpt>
      <trkpt lat="42.7893650" lon="-3.4102930">
        <ele>528.2</ele>
        <time>2018-10-21T07:56:03Z</time>
      </trkpt>
      <trkpt lat="42.7894170" lon="-3.4102270">
        <ele>528.2</ele>
        <time>2018-10-21T07:56:04Z</time>
      </trkpt>
      <trkpt lat="42.7894700" lon="-3.4101620">
        <ele>528.2</ele>
        <time>2018-10-21T07:56:05Z</time>
      </trkpt>
      <trkpt lat="42.7895230" lon="-3.4100970">
        <ele>528.2</ele>
        <time>2018-10-21T07:56:06Z</time>
      </trkpt>
      <trkpt lat="42.7895770" lon="-3.4100300">
        <ele>528.2</ele>
        <time>2018-10-21T07:56:07Z</time>
      </trkpt>
      <trkpt lat="42.7896320" lon="-3.4099630">
        <ele>528.2</ele>
        <time>2018-10-21T07:56:08Z</time>
      </trkpt>
      <trkpt lat="42.7896880" lon="-3.4098950">
        <ele>528.2</ele>
        <time>2018-10-21T07:56:09Z</time>
      </trkpt>
      <trkpt lat="42.7897500" lon="-3.4098350">
        <ele>528.2</ele>
        <time>2018-10-21T07:56:10Z</time>
      </trkpt>
      <trkpt lat="42.7898150" lon="-3.4097780">
        <ele>528.2</ele>
        <time>2018-10-21T07:56:11Z</time>
      </trkpt>
      <trkpt lat="42.7898830" lon="-3.4097270">
        <ele>527.3</ele>
        <time>2018-10-21T07:56:12Z</time>
      </trkpt>
      <trkpt lat="42.7899570" lon="-3.4096800">
        <ele>527.3</ele>
        <time>2018-10-21T07:56:13Z</time>
      </trkpt>
      <trkpt lat="42.7900320" lon="-3.4096370">
        <ele>527.3</ele>
        <time>2018-10-21T07:56:14Z</time>
      </trkpt>
      <trkpt lat="42.7901080" lon="-3.4095950">
        <ele>527.3</ele>
        <time>2018-10-21T07:56:15Z</time>
      </trkpt>
      <trkpt lat="42.7901880" lon="-3.4095530">
        <ele>526.2</ele>
        <time>2018-10-21T07:56:16Z</time>
      </trkpt>
      <trkpt lat="42.7902680" lon="-3.4095050">
        <ele>526.2</ele>
        <time>2018-10-21T07:56:17Z</time>
      </trkpt>
      <trkpt lat="42.7903470" lon="-3.4094480">
        <ele>526.2</ele>
        <time>2018-10-21T07:56:18Z</time>
      </trkpt>
      <trkpt lat="42.7904230" lon="-3.4093870">
        <ele>526.2</ele>
        <time>2018-10-21T07:56:19Z</time>
      </trkpt>
      <trkpt lat="42.7904980" lon="-3.4093220">
        <ele>525.2</ele>
        <time>2018-10-21T07:56:20Z</time>
      </trkpt>
      <trkpt lat="42.7905720" lon="-3.4092570">
        <ele>525.2</ele>
        <time>2018-10-21T07:56:21Z</time>
      </trkpt>
      <trkpt lat="42.7906430" lon="-3.4091950">
        <ele>525.2</ele>
        <time>2018-10-21T07:56:22Z</time>
      </trkpt>
      <trkpt lat="42.7907150" lon="-3.4091330">
        <ele>525.2</ele>
        <time>2018-10-21T07:56:23Z</time>
      </trkpt>
      <trkpt lat="42.7907880" lon="-3.4090780">
        <ele>524.3</ele>
        <time>2018-10-21T07:56:24Z</time>
      </trkpt>
      <trkpt lat="42.7908600" lon="-3.4090280">
        <ele>524.3</ele>
        <time>2018-10-21T07:56:25Z</time>
      </trkpt>
      <trkpt lat="42.7909350" lon="-3.4089830">
        <ele>524.3</ele>
        <time>2018-10-21T07:56:26Z</time>
      </trkpt>
      <trkpt lat="42.7910080" lon="-3.4089420">
        <ele>524.3</ele>
        <time>2018-10-21T07:56:27Z</time>
      </trkpt>
      <trkpt lat="42.7910830" lon="-3.4089120">
        <ele>524.3</ele>
        <time>2018-10-21T07:56:28Z</time>
      </trkpt>
      <trkpt lat="42.7911580" lon="-3.4088830">
        <ele>524.3</ele>
        <time>2018-10-21T07:56:29Z</time>
      </trkpt>
      <trkpt lat="42.7912320" lon="-3.4088570">
        <ele>524.3</ele>
        <time>2018-10-21T07:56:30Z</time>
      </trkpt>
      <trkpt lat="42.7913020" lon="-3.4088300">
        <ele>524.3</ele>
        <time>2018-10-21T07:56:31Z</time>
      </trkpt>
      <trkpt lat="42.7913720" lon="-3.4088100">
        <ele>524.3</ele>
        <time>2018-10-21T07:56:32Z</time>
      </trkpt>
      <trkpt lat="42.7914370" lon="-3.4087930">
        <ele>524.3</ele>
        <time>2018-10-21T07:56:33Z</time>
      </trkpt>
      <trkpt lat="42.7915020" lon="-3.4087730">
        <ele>524.3</ele>
        <time>2018-10-21T07:56:34Z</time>
      </trkpt>
      <trkpt lat="42.7915630" lon="-3.4087580">
        <ele>524.3</ele>
        <time>2018-10-21T07:56:35Z</time>
      </trkpt>
      <trkpt lat="42.7916230" lon="-3.4087400">
        <ele>524.3</ele>
        <time>2018-10-21T07:56:36Z</time>
      </trkpt>
      <trkpt lat="42.7916830" lon="-3.4087220">
        <ele>524.3</ele>
        <time>2018-10-21T07:56:37Z</time>
      </trkpt>
      <trkpt lat="42.7917480" lon="-3.4087030">
        <ele>525.2</ele>
        <time>2018-10-21T07:56:38Z</time>
      </trkpt>
      <trkpt lat="42.7918100" lon="-3.4086870">
        <ele>525.2</ele>
        <time>2018-10-21T07:56:39Z</time>
      </trkpt>
      <trkpt lat="42.7918700" lon="-3.4086700">
        <ele>525.2</ele>
        <time>2018-10-21T07:56:40Z</time>
      </trkpt>
      <trkpt lat="42.7919300" lon="-3.4086500">
        <ele>525.2</ele>
        <time>2018-10-21T07:56:41Z</time>
      </trkpt>
      <trkpt lat="42.7919900" lon="-3.4086300">
        <ele>525.2</ele>
        <time>2018-10-21T07:56:42Z</time>
      </trkpt>
      <trkpt lat="42.7920450" lon="-3.4086070">
        <ele>525.2</ele>
        <time>2018-10-21T07:56:43Z</time>
      </trkpt>
      <trkpt lat="42.7921050" lon="-3.4085820">
        <ele>526.2</ele>
        <time>2018-10-21T07:56:44Z</time>
      </trkpt>
      <trkpt lat="42.7921650" lon="-3.4085580">
        <ele>526.2</ele>
        <time>2018-10-21T07:56:45Z</time>
      </trkpt>
      <trkpt lat="42.7922220" lon="-3.4085370">
        <ele>526.2</ele>
        <time>2018-10-21T07:56:46Z</time>
      </trkpt>
      <trkpt lat="42.7922780" lon="-3.4085120">
        <ele>526.2</ele>
        <time>2018-10-21T07:56:47Z</time>
      </trkpt>
      <trkpt lat="42.7923350" lon="-3.4084850">
        <ele>526.2</ele>
        <time>2018-10-21T07:56:48Z</time>
      </trkpt>
      <trkpt lat="42.7923920" lon="-3.4084550">
        <ele>526.2</ele>
        <time>2018-10-21T07:56:49Z</time>
      </trkpt>
      <trkpt lat="42.7924470" lon="-3.4084250">
        <ele>527.3</ele>
        <time>2018-10-21T07:56:50Z</time>
      </trkpt>
      <trkpt lat="42.7925020" lon="-3.4083920">
        <ele>527.3</ele>
        <time>2018-10-21T07:56:51Z</time>
      </trkpt>
      <trkpt lat="42.7925580" lon="-3.4083570">
        <ele>527.3</ele>
        <time>2018-10-21T07:56:52Z</time>
      </trkpt>
      <trkpt lat="42.7926130" lon="-3.4083180">
        <ele>527.3</ele>
        <time>2018-10-21T07:56:53Z</time>
      </trkpt>
      <trkpt lat="42.7926680" lon="-3.4082780">
        <ele>527.3</ele>
        <time>2018-10-21T07:56:54Z</time>
      </trkpt>
      <trkpt lat="42.7927250" lon="-3.4082350">
        <ele>527.3</ele>
        <time>2018-10-21T07:56:55Z</time>
      </trkpt>
      <trkpt lat="42.7927800" lon="-3.4081880">
        <ele>526.2</ele>
        <time>2018-10-21T07:56:56Z</time>
      </trkpt>
      <trkpt lat="42.7928330" lon="-3.4081370">
        <ele>526.2</ele>
        <time>2018-10-21T07:56:57Z</time>
      </trkpt>
      <trkpt lat="42.7928830" lon="-3.4080820">
        <ele>526.2</ele>
        <time>2018-10-21T07:56:58Z</time>
      </trkpt>
      <trkpt lat="42.7929300" lon="-3.4080270">
        <ele>526.2</ele>
        <time>2018-10-21T07:56:59Z</time>
      </trkpt>
      <trkpt lat="42.7929770" lon="-3.4079650">
        <ele>526.2</ele>
        <time>2018-10-21T07:57:00Z</time>
      </trkpt>
      <trkpt lat="42.7930200" lon="-3.4078980">
        <ele>526.2</ele>
        <time>2018-10-21T07:57:01Z</time>
      </trkpt>
      <trkpt lat="42.7930600" lon="-3.4078270">
        <ele>526.2</ele>
        <time>2018-10-21T07:57:02Z</time>
      </trkpt>
      <trkpt lat="42.7930970" lon="-3.4077500">
        <ele>526.2</ele>
        <time>2018-10-21T07:57:03Z</time>
      </trkpt>
      <trkpt lat="42.7931320" lon="-3.4076720">
        <ele>526.2</ele>
        <time>2018-10-21T07:57:04Z</time>
      </trkpt>
      <trkpt lat="42.7931630" lon="-3.4075920">
        <ele>526.2</ele>
        <time>2018-10-21T07:57:05Z</time>
      </trkpt>
      <trkpt lat="42.7931930" lon="-3.4075080">
        <ele>526.2</ele>
        <time>2018-10-21T07:57:06Z</time>
      </trkpt>
      <trkpt lat="42.7932220" lon="-3.4074250">
        <ele>526.2</ele>
        <time>2018-10-21T07:57:07Z</time>
      </trkpt>
      <trkpt lat="42.7932450" lon="-3.4073400">
        <ele>526.2</ele>
        <time>2018-10-21T07:57:08Z</time>
      </trkpt>
      <trkpt lat="42.7932670" lon="-3.4072520">
        <ele>526.2</ele>
        <time>2018-10-21T07:57:09Z</time>
      </trkpt>
      <trkpt lat="42.7932900" lon="-3.4071620">
        <ele>525.2</ele>
        <time>2018-10-21T07:57:10Z</time>
      </trkpt>
      <trkpt lat="42.7933120" lon="-3.4070700">
        <ele>525.2</ele>
        <time>2018-10-21T07:57:11Z</time>
      </trkpt>
      <trkpt lat="42.7933350" lon="-3.4069750">
        <ele>525.2</ele>
        <time>2018-10-21T07:57:12Z</time>
      </trkpt>
      <trkpt lat="42.7933550" lon="-3.4068800">
        <ele>525.2</ele>
        <time>2018-10-21T07:57:13Z</time>
      </trkpt>
      <trkpt lat="42.7933750" lon="-3.4067800">
        <ele>525.2</ele>
        <time>2018-10-21T07:57:14Z</time>
      </trkpt>
      <trkpt lat="42.7933930" lon="-3.4066800">
        <ele>525.2</ele>
        <time>2018-10-21T07:57:15Z</time>
      </trkpt>
      <trkpt lat="42.7934100" lon="-3.4065770">
        <ele>525.2</ele>
        <time>2018-10-21T07:57:16Z</time>
      </trkpt>
      <trkpt lat="42.7934220" lon="-3.4064720">
        <ele>525.2</ele>
        <time>2018-10-21T07:57:17Z</time>
      </trkpt>
      <trkpt lat="42.7934270" lon="-3.4063650">
        <ele>524.3</ele>
        <time>2018-10-21T07:57:18Z</time>
      </trkpt>
      <trkpt lat="42.7934300" lon="-3.4062580">
        <ele>524.3</ele>
        <time>2018-10-21T07:57:19Z</time>
      </trkpt>
      <trkpt lat="42.7934270" lon="-3.4061520">
        <ele>524.3</ele>
        <time>2018-10-21T07:57:20Z</time>
      </trkpt>
      <trkpt lat="42.7934200" lon="-3.4060470">
        <ele>524.3</ele>
        <time>2018-10-21T07:57:21Z</time>
      </trkpt>
      <trkpt lat="42.7934120" lon="-3.4059450">
        <ele>524.3</ele>
        <time>2018-10-21T07:57:22Z</time>
      </trkpt>
      <trkpt lat="42.7934050" lon="-3.4058470">
        <ele>524.3</ele>
        <time>2018-10-21T07:57:23Z</time>
      </trkpt>
      <trkpt lat="42.7933980" lon="-3.4057500">
        <ele>525.2</ele>
        <time>2018-10-21T07:57:24Z</time>
      </trkpt>
      <trkpt lat="42.7933920" lon="-3.4056580">
        <ele>525.2</ele>
        <time>2018-10-21T07:57:25Z</time>
      </trkpt>
      <trkpt lat="42.7933850" lon="-3.4055680">
        <ele>525.2</ele>
        <time>2018-10-21T07:57:26Z</time>
      </trkpt>
      <trkpt lat="42.7933800" lon="-3.4054800">
        <ele>525.2</ele>
        <time>2018-10-21T07:57:27Z</time>
      </trkpt>
      <trkpt lat="42.7933750" lon="-3.4053920">
        <ele>526.2</ele>
        <time>2018-10-21T07:57:28Z</time>
      </trkpt>
      <trkpt lat="42.7933670" lon="-3.4053030">
        <ele>526.2</ele>
        <time>2018-10-21T07:57:29Z</time>
      </trkpt>
      <trkpt lat="42.7933580" lon="-3.4052130">
        <ele>526.2</ele>
        <time>2018-10-21T07:57:30Z</time>
      </trkpt>
      <trkpt lat="42.7933500" lon="-3.4051220">
        <ele>526.2</ele>
        <time>2018-10-21T07:57:31Z</time>
      </trkpt>
      <trkpt lat="42.7933430" lon="-3.4050300">
        <ele>526.2</ele>
        <time>2018-10-21T07:57:32Z</time>
      </trkpt>
      <trkpt lat="42.7933350" lon="-3.4049370">
        <ele>526.2</ele>
        <time>2018-10-21T07:57:33Z</time>
      </trkpt>
      <trkpt lat="42.7933270" lon="-3.4048420">
        <ele>526.2</ele>
        <time>2018-10-21T07:57:34Z</time>
      </trkpt>
      <trkpt lat="42.7933180" lon="-3.4047530">
        <ele>526.2</ele>
        <time>2018-10-21T07:57:35Z</time>
      </trkpt>
      <trkpt lat="42.7933020" lon="-3.4046680">
        <ele>526.2</ele>
        <time>2018-10-21T07:57:36Z</time>
      </trkpt>
      <trkpt lat="42.7932880" lon="-3.4045700">
        <ele>526.2</ele>
        <time>2018-10-21T07:57:37Z</time>
      </trkpt>
      <trkpt lat="42.7932800" lon="-3.4044720">
        <ele>526.2</ele>
        <time>2018-10-21T07:57:38Z</time>
      </trkpt>
      <trkpt lat="42.7932720" lon="-3.4043720">
        <ele>526.2</ele>
        <time>2018-10-21T07:57:39Z</time>
      </trkpt>
      <trkpt lat="42.7932650" lon="-3.4042720">
        <ele>526.2</ele>
        <time>2018-10-21T07:57:40Z</time>
      </trkpt>
      <trkpt lat="42.7932580" lon="-3.4041720">
        <ele>526.2</ele>
        <time>2018-10-21T07:57:41Z</time>
      </trkpt>
      <trkpt lat="42.7932500" lon="-3.4040700">
        <ele>526.2</ele>
        <time>2018-10-21T07:57:42Z</time>
      </trkpt>
      <trkpt lat="42.7932420" lon="-3.4039680">
        <ele>526.2</ele>
        <time>2018-10-21T07:57:43Z</time>
      </trkpt>
      <trkpt lat="42.7932320" lon="-3.4038720">
        <ele>524.3</ele>
        <time>2018-10-21T07:57:44Z</time>
      </trkpt>
      <trkpt lat="42.7932230" lon="-3.4037700">
        <ele>524.3</ele>
        <time>2018-10-21T07:57:45Z</time>
      </trkpt>
      <trkpt lat="42.7932150" lon="-3.4036680">
        <ele>524.3</ele>
        <time>2018-10-21T07:57:46Z</time>
      </trkpt>
      <trkpt lat="42.7932120" lon="-3.4035650">
        <ele>524.3</ele>
        <time>2018-10-21T07:57:47Z</time>
      </trkpt>
      <trkpt lat="42.7932070" lon="-3.4034600">
        <ele>524.3</ele>
        <time>2018-10-21T07:57:48Z</time>
      </trkpt>
      <trkpt lat="42.7932050" lon="-3.4033500">
        <ele>524.3</ele>
        <time>2018-10-21T07:57:49Z</time>
      </trkpt>
      <trkpt lat="42.7932030" lon="-3.4032380">
        <ele>523.2</ele>
        <time>2018-10-21T07:57:50Z</time>
      </trkpt>
      <trkpt lat="42.7932020" lon="-3.4031250">
        <ele>523.2</ele>
        <time>2018-10-21T07:57:51Z</time>
      </trkpt>
      <trkpt lat="42.7932020" lon="-3.4030100">
        <ele>522.3</ele>
        <time>2018-10-21T07:57:52Z</time>
      </trkpt>
      <trkpt lat="42.7932030" lon="-3.4028930">
        <ele>522.3</ele>
        <time>2018-10-21T07:57:53Z</time>
      </trkpt>
      <trkpt lat="42.7932080" lon="-3.4027750">
        <ele>522.3</ele>
        <time>2018-10-21T07:57:54Z</time>
      </trkpt>
      <trkpt lat="42.7932180" lon="-3.4026570">
        <ele>522.3</ele>
        <time>2018-10-21T07:57:55Z</time>
      </trkpt>
      <trkpt lat="42.7932320" lon="-3.4025380">
        <ele>521.2</ele>
        <time>2018-10-21T07:57:56Z</time>
      </trkpt>
      <trkpt lat="42.7932470" lon="-3.4024220">
        <ele>521.2</ele>
        <time>2018-10-21T07:57:57Z</time>
      </trkpt>
      <trkpt lat="42.7932650" lon="-3.4023080">
        <ele>521.2</ele>
        <time>2018-10-21T07:57:58Z</time>
      </trkpt>
      <trkpt lat="42.7932830" lon="-3.4021950">
        <ele>521.2</ele>
        <time>2018-10-21T07:57:59Z</time>
      </trkpt>
      <trkpt lat="42.7933030" lon="-3.4020830">
        <ele>521.2</ele>
        <time>2018-10-21T07:58:00Z</time>
      </trkpt>
      <trkpt lat="42.7933250" lon="-3.4019730">
        <ele>521.2</ele>
        <time>2018-10-21T07:58:01Z</time>
      </trkpt>
      <trkpt lat="42.7933480" lon="-3.4018630">
        <ele>521.2</ele>
        <time>2018-10-21T07:58:02Z</time>
      </trkpt>
      <trkpt lat="42.7933730" lon="-3.4017530">
        <ele>521.2</ele>
        <time>2018-10-21T07:58:03Z</time>
      </trkpt>
      <trkpt lat="42.7934000" lon="-3.4016470">
        <ele>520.3</ele>
        <time>2018-10-21T07:58:04Z</time>
      </trkpt>
      <trkpt lat="42.7934250" lon="-3.4015400">
        <ele>520.3</ele>
        <time>2018-10-21T07:58:05Z</time>
      </trkpt>
      <trkpt lat="42.7934520" lon="-3.4014350">
        <ele>520.3</ele>
        <time>2018-10-21T07:58:06Z</time>
      </trkpt>
      <trkpt lat="42.7934780" lon="-3.4013320">
        <ele>520.3</ele>
        <time>2018-10-21T07:58:07Z</time>
      </trkpt>
      <trkpt lat="42.7935020" lon="-3.4012280">
        <ele>521.2</ele>
        <time>2018-10-21T07:58:08Z</time>
      </trkpt>
      <trkpt lat="42.7935230" lon="-3.4011250">
        <ele>521.2</ele>
        <time>2018-10-21T07:58:09Z</time>
      </trkpt>
      <trkpt lat="42.7935480" lon="-3.4010220">
        <ele>521.2</ele>
        <time>2018-10-21T07:58:10Z</time>
      </trkpt>
      <trkpt lat="42.7935730" lon="-3.4009220">
        <ele>521.2</ele>
        <time>2018-10-21T07:58:11Z</time>
      </trkpt>
      <trkpt lat="42.7936000" lon="-3.4008200">
        <ele>521.2</ele>
        <time>2018-10-21T07:58:12Z</time>
      </trkpt>
      <trkpt lat="42.7936230" lon="-3.4007220">
        <ele>521.2</ele>
        <time>2018-10-21T07:58:13Z</time>
      </trkpt>
      <trkpt lat="42.7936470" lon="-3.4006230">
        <ele>521.2</ele>
        <time>2018-10-21T07:58:14Z</time>
      </trkpt>
      <trkpt lat="42.7936720" lon="-3.4005270">
        <ele>521.2</ele>
        <time>2018-10-21T07:58:15Z</time>
      </trkpt>
      <trkpt lat="42.7936950" lon="-3.4004280">
        <ele>521.2</ele>
        <time>2018-10-21T07:58:16Z</time>
      </trkpt>
      <trkpt lat="42.7937180" lon="-3.4003320">
        <ele>521.2</ele>
        <time>2018-10-21T07:58:17Z</time>
      </trkpt>
      <trkpt lat="42.7937430" lon="-3.4002370">
        <ele>521.2</ele>
        <time>2018-10-21T07:58:18Z</time>
      </trkpt>
      <trkpt lat="42.7937650" lon="-3.4001430">
        <ele>521.2</ele>
        <time>2018-10-21T07:58:19Z</time>
      </trkpt>
      <trkpt lat="42.7937850" lon="-3.4000480">
        <ele>521.2</ele>
        <time>2018-10-21T07:58:20Z</time>
      </trkpt>
      <trkpt lat="42.7938070" lon="-3.3999550">
        <ele>521.2</ele>
        <time>2018-10-21T07:58:21Z</time>
      </trkpt>
      <trkpt lat="42.7938270" lon="-3.3998600">
        <ele>520.3</ele>
        <time>2018-10-21T07:58:22Z</time>
      </trkpt>
      <trkpt lat="42.7938480" lon="-3.3997650">
        <ele>520.3</ele>
        <time>2018-10-21T07:58:23Z</time>
      </trkpt>
      <trkpt lat="42.7938720" lon="-3.3996720">
        <ele>520.3</ele>
        <time>2018-10-21T07:58:24Z</time>
      </trkpt>
      <trkpt lat="42.7938950" lon="-3.3995800">
        <ele>520.3</ele>
        <time>2018-10-21T07:58:25Z</time>
      </trkpt>
      <trkpt lat="42.7939180" lon="-3.3994900">
        <ele>520.3</ele>
        <time>2018-10-21T07:58:26Z</time>
      </trkpt>
      <trkpt lat="42.7939430" lon="-3.3994020">
        <ele>520.3</ele>
        <time>2018-10-21T07:58:27Z</time>
      </trkpt>
      <trkpt lat="42.7939670" lon="-3.3993120">
        <ele>520.3</ele>
        <time>2018-10-21T07:58:28Z</time>
      </trkpt>
      <trkpt lat="42.7939930" lon="-3.3992230">
        <ele>520.3</ele>
        <time>2018-10-21T07:58:29Z</time>
      </trkpt>
      <trkpt lat="42.7940200" lon="-3.3991350">
        <ele>520.3</ele>
        <time>2018-10-21T07:58:30Z</time>
      </trkpt>
      <trkpt lat="42.7940470" lon="-3.3990450">
        <ele>520.3</ele>
        <time>2018-10-21T07:58:31Z</time>
      </trkpt>
      <trkpt lat="42.7940770" lon="-3.3989580">
        <ele>520.3</ele>
        <time>2018-10-21T07:58:32Z</time>
      </trkpt>
      <trkpt lat="42.7941030" lon="-3.3988720">
        <ele>520.3</ele>
        <time>2018-10-21T07:58:33Z</time>
      </trkpt>
      <trkpt lat="42.7941320" lon="-3.3987870">
        <ele>520.3</ele>
        <time>2018-10-21T07:58:34Z</time>
      </trkpt>
      <trkpt lat="42.7941630" lon="-3.3987030">
        <ele>520.3</ele>
        <time>2018-10-21T07:58:35Z</time>
      </trkpt>
      <trkpt lat="42.7941970" lon="-3.3986200">
        <ele>520.3</ele>
        <time>2018-10-21T07:58:36Z</time>
      </trkpt>
      <trkpt lat="42.7942330" lon="-3.3985380">
        <ele>520.3</ele>
        <time>2018-10-21T07:58:37Z</time>
      </trkpt>
      <trkpt lat="42.7942680" lon="-3.3984550">
        <ele>520.3</ele>
        <time>2018-10-21T07:58:38Z</time>
      </trkpt>
      <trkpt lat="42.7943050" lon="-3.3983720">
        <ele>520.3</ele>
        <time>2018-10-21T07:58:39Z</time>
      </trkpt>
      <trkpt lat="42.7943430" lon="-3.3982880">
        <ele>520.3</ele>
        <time>2018-10-21T07:58:40Z</time>
      </trkpt>
      <trkpt lat="42.7943780" lon="-3.3982070">
        <ele>520.3</ele>
        <time>2018-10-21T07:58:41Z</time>
      </trkpt>
      <trkpt lat="42.7944150" lon="-3.3981280">
        <ele>521.2</ele>
        <time>2018-10-21T07:58:42Z</time>
      </trkpt>
      <trkpt lat="42.7944570" lon="-3.3980450">
        <ele>521.2</ele>
        <time>2018-10-21T07:58:43Z</time>
      </trkpt>
      <trkpt lat="42.7944930" lon="-3.3979650">
        <ele>521.2</ele>
        <time>2018-10-21T07:58:44Z</time>
      </trkpt>
      <trkpt lat="42.7945320" lon="-3.3978880">
        <ele>521.2</ele>
        <time>2018-10-21T07:58:45Z</time>
      </trkpt>
      <trkpt lat="42.7945770" lon="-3.3978170">
        <ele>521.2</ele>
        <time>2018-10-21T07:58:46Z</time>
      </trkpt>
      <trkpt lat="42.7946180" lon="-3.3977430">
        <ele>521.2</ele>
        <time>2018-10-21T07:58:47Z</time>
      </trkpt>
      <trkpt lat="42.7946650" lon="-3.3976680">
        <ele>521.2</ele>
        <time>2018-10-21T07:58:48Z</time>
      </trkpt>
      <trkpt lat="42.7947100" lon="-3.3975980">
        <ele>521.2</ele>
        <time>2018-10-21T07:58:49Z</time>
      </trkpt>
      <trkpt lat="42.7947600" lon="-3.3975330">
        <ele>521.2</ele>
        <time>2018-10-21T07:58:50Z</time>
      </trkpt>
      <trkpt lat="42.7948080" lon="-3.3974680">
        <ele>521.2</ele>
        <time>2018-10-21T07:58:51Z</time>
      </trkpt>
      <trkpt lat="42.7948620" lon="-3.3974050">
        <ele>520.3</ele>
        <time>2018-10-21T07:58:52Z</time>
      </trkpt>
      <trkpt lat="42.7949170" lon="-3.3973430">
        <ele>520.3</ele>
        <time>2018-10-21T07:58:53Z</time>
      </trkpt>
      <trkpt lat="42.7949720" lon="-3.3972800">
        <ele>520.3</ele>
        <time>2018-10-21T07:58:54Z</time>
      </trkpt>
      <trkpt lat="42.7950280" lon="-3.3972170">
        <ele>520.3</ele>
        <time>2018-10-21T07:58:55Z</time>
      </trkpt>
      <trkpt lat="42.7950870" lon="-3.3971520">
        <ele>519.2</ele>
        <time>2018-10-21T07:58:56Z</time>
      </trkpt>
      <trkpt lat="42.7951450" lon="-3.3970880">
        <ele>519.2</ele>
        <time>2018-10-21T07:58:57Z</time>
      </trkpt>
      <trkpt lat="42.7952050" lon="-3.3970230">
        <ele>519.2</ele>
        <time>2018-10-21T07:58:58Z</time>
      </trkpt>
      <trkpt lat="42.7952630" lon="-3.3969620">
        <ele>519.2</ele>
        <time>2018-10-21T07:58:59Z</time>
      </trkpt>
      <trkpt lat="42.7953220" lon="-3.3968980">
        <ele>519.2</ele>
        <time>2018-10-21T07:59:00Z</time>
      </trkpt>
      <trkpt lat="42.7953780" lon="-3.3968350">
        <ele>519.2</ele>
        <time>2018-10-21T07:59:01Z</time>
      </trkpt>
      <trkpt lat="42.7954370" lon="-3.3967730">
        <ele>519.2</ele>
        <time>2018-10-21T07:59:02Z</time>
      </trkpt>
      <trkpt lat="42.7954920" lon="-3.3967130">
        <ele>519.2</ele>
        <time>2018-10-21T07:59:03Z</time>
      </trkpt>
      <trkpt lat="42.7955480" lon="-3.3966520">
        <ele>519.2</ele>
        <time>2018-10-21T07:59:04Z</time>
      </trkpt>
      <trkpt lat="42.7956070" lon="-3.3965900">
        <ele>519.2</ele>
        <time>2018-10-21T07:59:05Z</time>
      </trkpt>
      <trkpt lat="42.7956650" lon="-3.3965280">
        <ele>519.2</ele>
        <time>2018-10-21T07:59:06Z</time>
      </trkpt>
      <trkpt lat="42.7957230" lon="-3.3964720">
        <ele>519.2</ele>
        <time>2018-10-21T07:59:07Z</time>
      </trkpt>
      <trkpt lat="42.7957780" lon="-3.3964130">
        <ele>519.2</ele>
        <time>2018-10-21T07:59:08Z</time>
      </trkpt>
      <trkpt lat="42.7958320" lon="-3.3963530">
        <ele>519.2</ele>
        <time>2018-10-21T07:59:09Z</time>
      </trkpt>
      <trkpt lat="42.7958830" lon="-3.3962980">
        <ele>519.2</ele>
        <time>2018-10-21T07:59:10Z</time>
      </trkpt>
      <trkpt lat="42.7959370" lon="-3.3962430">
        <ele>519.2</ele>
        <time>2018-10-21T07:59:11Z</time>
      </trkpt>
      <trkpt lat="42.7959870" lon="-3.3961920">
        <ele>519.2</ele>
        <time>2018-10-21T07:59:12Z</time>
      </trkpt>
      <trkpt lat="42.7960370" lon="-3.3961370">
        <ele>519.2</ele>
        <time>2018-10-21T07:59:13Z</time>
      </trkpt>
      <trkpt lat="42.7960850" lon="-3.3960820">
        <ele>520.3</ele>
        <time>2018-10-21T07:59:14Z</time>
      </trkpt>
      <trkpt lat="42.7961350" lon="-3.3960280">
        <ele>520.3</ele>
        <time>2018-10-21T07:59:15Z</time>
      </trkpt>
      <trkpt lat="42.7961850" lon="-3.3959780">
        <ele>520.3</ele>
        <time>2018-10-21T07:59:16Z</time>
      </trkpt>
      <trkpt lat="42.7962350" lon="-3.3959280">
        <ele>520.3</ele>
        <time>2018-10-21T07:59:17Z</time>
      </trkpt>
      <trkpt lat="42.7962830" lon="-3.3958800">
        <ele>520.3</ele>
        <time>2018-10-21T07:59:18Z</time>
      </trkpt>
      <trkpt lat="42.7963300" lon="-3.3958320">
        <ele>520.3</ele>
        <time>2018-10-21T07:59:19Z</time>
      </trkpt>
      <trkpt lat="42.7963800" lon="-3.3957830">
        <ele>520.3</ele>
        <time>2018-10-21T07:59:20Z</time>
      </trkpt>
      <trkpt lat="42.7964320" lon="-3.3957350">
        <ele>520.3</ele>
        <time>2018-10-21T07:59:21Z</time>
      </trkpt>
      <trkpt lat="42.7964820" lon="-3.3956870">
        <ele>520.3</ele>
        <time>2018-10-21T07:59:22Z</time>
      </trkpt>
      <trkpt lat="42.7965300" lon="-3.3956350">
        <ele>520.3</ele>
        <time>2018-10-21T07:59:23Z</time>
      </trkpt>
      <trkpt lat="42.7965780" lon="-3.3955780">
        <ele>521.2</ele>
        <time>2018-10-21T07:59:24Z</time>
      </trkpt>
      <trkpt lat="42.7966300" lon="-3.3955270">
        <ele>521.2</ele>
        <time>2018-10-21T07:59:25Z</time>
      </trkpt>
      <trkpt lat="42.7966780" lon="-3.3954770">
        <ele>521.2</ele>
        <time>2018-10-21T07:59:26Z</time>
      </trkpt>
      <trkpt lat="42.7967280" lon="-3.3954320">
        <ele>521.2</ele>
        <time>2018-10-21T07:59:27Z</time>
      </trkpt>
      <trkpt lat="42.7967730" lon="-3.3953820">
        <ele>521.2</ele>
        <time>2018-10-21T07:59:28Z</time>
      </trkpt>
      <trkpt lat="42.7968180" lon="-3.3953330">
        <ele>521.2</ele>
        <time>2018-10-21T07:59:29Z</time>
      </trkpt>
      <trkpt lat="42.7968670" lon="-3.3952830">
        <ele>521.2</ele>
        <time>2018-10-21T07:59:30Z</time>
      </trkpt>
      <trkpt lat="42.7969180" lon="-3.3952330">
        <ele>521.2</ele>
        <time>2018-10-21T07:59:31Z</time>
      </trkpt>
      <trkpt lat="42.7969700" lon="-3.3951780">
        <ele>521.2</ele>
        <time>2018-10-21T07:59:32Z</time>
      </trkpt>
      <trkpt lat="42.7970250" lon="-3.3951200">
        <ele>521.2</ele>
        <time>2018-10-21T07:59:33Z</time>
      </trkpt>
      <trkpt lat="42.7970800" lon="-3.3950580">
        <ele>521.2</ele>
        <time>2018-10-21T07:59:34Z</time>
      </trkpt>
      <trkpt lat="42.7971380" lon="-3.3950030">
        <ele>521.2</ele>
        <time>2018-10-21T07:59:35Z</time>
      </trkpt>
      <trkpt lat="42.7971970" lon="-3.3949470">
        <ele>521.2</ele>
        <time>2018-10-21T07:59:36Z</time>
      </trkpt>
      <trkpt lat="42.7972520" lon="-3.3948900">
        <ele>521.2</ele>
        <time>2018-10-21T07:59:37Z</time>
      </trkpt>
      <trkpt lat="42.7973070" lon="-3.3948330">
        <ele>520.3</ele>
        <time>2018-10-21T07:59:38Z</time>
      </trkpt>
      <trkpt lat="42.7973630" lon="-3.3947820">
        <ele>520.3</ele>
        <time>2018-10-21T07:59:39Z</time>
      </trkpt>
      <trkpt lat="42.7974180" lon="-3.3947280">
        <ele>520.3</ele>
        <time>2018-10-21T07:59:40Z</time>
      </trkpt>
      <trkpt lat="42.7974700" lon="-3.3946700">
        <ele>520.3</ele>
        <time>2018-10-21T07:59:41Z</time>
      </trkpt>
      <trkpt lat="42.7975220" lon="-3.3946100">
        <ele>520.3</ele>
        <time>2018-10-21T07:59:42Z</time>
      </trkpt>
      <trkpt lat="42.7975770" lon="-3.3945480">
        <ele>520.3</ele>
        <time>2018-10-21T07:59:43Z</time>
      </trkpt>
      <trkpt lat="42.7976370" lon="-3.3944900">
        <ele>520.3</ele>
        <time>2018-10-21T07:59:44Z</time>
      </trkpt>
      <trkpt lat="42.7976930" lon="-3.3944350">
        <ele>520.3</ele>
        <time>2018-10-21T07:59:45Z</time>
      </trkpt>
      <trkpt lat="42.7977500" lon="-3.3943800">
        <ele>520.3</ele>
        <time>2018-10-21T07:59:46Z</time>
      </trkpt>
      <trkpt lat="42.7978000" lon="-3.3943200">
        <ele>520.3</ele>
        <time>2018-10-21T07:59:47Z</time>
      </trkpt>
      <trkpt lat="42.7978500" lon="-3.3942570">
        <ele>520.3</ele>
        <time>2018-10-21T07:59:48Z</time>
      </trkpt>
      <trkpt lat="42.7979000" lon="-3.3941920">
        <ele>520.3</ele>
        <time>2018-10-21T07:59:49Z</time>
      </trkpt>
      <trkpt lat="42.7979500" lon="-3.3941280">
        <ele>520.3</ele>
        <time>2018-10-21T07:59:50Z</time>
      </trkpt>
      <trkpt lat="42.7980020" lon="-3.3940630">
        <ele>520.3</ele>
        <time>2018-10-21T07:59:51Z</time>
      </trkpt>
      <trkpt lat="42.7980500" lon="-3.3939970">
        <ele>520.3</ele>
        <time>2018-10-21T07:59:52Z</time>
      </trkpt>
      <trkpt lat="42.7980980" lon="-3.3939270">
        <ele>520.3</ele>
        <time>2018-10-21T07:59:53Z</time>
      </trkpt>
      <trkpt lat="42.7981450" lon="-3.3938580">
        <ele>519.2</ele>
        <time>2018-10-21T07:59:54Z</time>
      </trkpt>
      <trkpt lat="42.7981930" lon="-3.3937880">
        <ele>519.2</ele>
        <time>2018-10-21T07:59:55Z</time>
      </trkpt>
      <trkpt lat="42.7982380" lon="-3.3937150">
        <ele>519.2</ele>
        <time>2018-10-21T07:59:56Z</time>
      </trkpt>
      <trkpt lat="42.7982830" lon="-3.3936420">
        <ele>519.2</ele>
        <time>2018-10-21T07:59:57Z</time>
      </trkpt>
      <trkpt lat="42.7983270" lon="-3.3935670">
        <ele>519.2</ele>
        <time>2018-10-21T07:59:58Z</time>
      </trkpt>
      <trkpt lat="42.7983700" lon="-3.3934920">
        <ele>519.2</ele>
        <time>2018-10-21T07:59:59Z</time>
      </trkpt>
      <trkpt lat="42.7984100" lon="-3.3934180">
        <ele>519.2</ele>
        <time>2018-10-21T08:00:00Z</time>
      </trkpt>
      <trkpt lat="42.7984480" lon="-3.3933420">
        <ele>519.2</ele>
        <time>2018-10-21T08:00:01Z</time>
      </trkpt>
      <trkpt lat="42.7984850" lon="-3.3932650">
        <ele>519.2</ele>
        <time>2018-10-21T08:00:02Z</time>
      </trkpt>
      <trkpt lat="42.7985230" lon="-3.3931920">
        <ele>519.2</ele>
        <time>2018-10-21T08:00:03Z</time>
      </trkpt>
      <trkpt lat="42.7985600" lon="-3.3931130">
        <ele>519.2</ele>
        <time>2018-10-21T08:00:04Z</time>
      </trkpt>
      <trkpt lat="42.7985930" lon="-3.3930320">
        <ele>519.2</ele>
        <time>2018-10-21T08:00:05Z</time>
      </trkpt>
      <trkpt lat="42.7986280" lon="-3.3929520">
        <ele>519.2</ele>
        <time>2018-10-21T08:00:06Z</time>
      </trkpt>
      <trkpt lat="42.7986620" lon="-3.3928700">
        <ele>519.2</ele>
        <time>2018-10-21T08:00:07Z</time>
      </trkpt>
      <trkpt lat="42.7986950" lon="-3.3927900">
        <ele>519.2</ele>
        <time>2018-10-21T08:00:08Z</time>
      </trkpt>
      <trkpt lat="42.7987270" lon="-3.3927100">
        <ele>519.2</ele>
        <time>2018-10-21T08:00:09Z</time>
      </trkpt>
      <trkpt lat="42.7987570" lon="-3.3926300">
        <ele>519.2</ele>
        <time>2018-10-21T08:00:10Z</time>
      </trkpt>
      <trkpt lat="42.7987870" lon="-3.3925500">
        <ele>519.2</ele>
        <time>2018-10-21T08:00:11Z</time>
      </trkpt>
      <trkpt lat="42.7988180" lon="-3.3924700">
        <ele>519.2</ele>
        <time>2018-10-21T08:00:12Z</time>
      </trkpt>
      <trkpt lat="42.7988480" lon="-3.3923920">
        <ele>519.2</ele>
        <time>2018-10-21T08:00:13Z</time>
      </trkpt>
      <trkpt lat="42.7988780" lon="-3.3923130">
        <ele>519.2</ele>
        <time>2018-10-21T08:00:14Z</time>
      </trkpt>
      <trkpt lat="42.7989080" lon="-3.3922370">
        <ele>519.2</ele>
        <time>2018-10-21T08:00:15Z</time>
      </trkpt>
      <trkpt lat="42.7989370" lon="-3.3921600">
        <ele>519.2</ele>
        <time>2018-10-21T08:00:16Z</time>
      </trkpt>
      <trkpt lat="42.7989670" lon="-3.3920850">
        <ele>519.2</ele>
        <time>2018-10-21T08:00:17Z</time>
      </trkpt>
      <trkpt lat="42.7989950" lon="-3.3920080">
        <ele>520.3</ele>
        <time>2018-10-21T08:00:18Z</time>
      </trkpt>
      <trkpt lat="42.7990250" lon="-3.3919330">
        <ele>520.3</ele>
        <time>2018-10-21T08:00:19Z</time>
      </trkpt>
      <trkpt lat="42.7990550" lon="-3.3918600">
        <ele>520.3</ele>
        <time>2018-10-21T08:00:20Z</time>
      </trkpt>
      <trkpt lat="42.7990870" lon="-3.3917900">
        <ele>520.3</ele>
        <time>2018-10-21T08:00:21Z</time>
      </trkpt>
      <trkpt lat="42.7991180" lon="-3.3917170">
        <ele>520.3</ele>
        <time>2018-10-21T08:00:22Z</time>
      </trkpt>
      <trkpt lat="42.7991470" lon="-3.3916420">
        <ele>520.3</ele>
        <time>2018-10-21T08:00:23Z</time>
      </trkpt>
      <trkpt lat="42.7991730" lon="-3.3915670">
        <ele>520.3</ele>
        <time>2018-10-21T08:00:24Z</time>
      </trkpt>
      <trkpt lat="42.7992030" lon="-3.3914920">
        <ele>520.3</ele>
        <time>2018-10-21T08:00:25Z</time>
      </trkpt>
      <trkpt lat="42.7992350" lon="-3.3914170">
        <ele>520.3</ele>
        <time>2018-10-21T08:00:26Z</time>
      </trkpt>
      <trkpt lat="42.7992670" lon="-3.3913420">
        <ele>520.3</ele>
        <time>2018-10-21T08:00:27Z</time>
      </trkpt>
      <trkpt lat="42.7992930" lon="-3.3912630">
        <ele>520.3</ele>
        <time>2018-10-21T08:00:28Z</time>
      </trkpt>
      <trkpt lat="42.7993220" lon="-3.3911830">
        <ele>520.3</ele>
        <time>2018-10-21T08:00:29Z</time>
      </trkpt>
      <trkpt lat="42.7993530" lon="-3.3911030">
        <ele>520.3</ele>
        <time>2018-10-21T08:00:30Z</time>
      </trkpt>
      <trkpt lat="42.7993870" lon="-3.3910230">
        <ele>520.3</ele>
        <time>2018-10-21T08:00:31Z</time>
      </trkpt>
      <trkpt lat="42.7994180" lon="-3.3909430">
        <ele>520.3</ele>
        <time>2018-10-21T08:00:32Z</time>
      </trkpt>
      <trkpt lat="42.7994520" lon="-3.3908630">
        <ele>520.3</ele>
        <time>2018-10-21T08:00:33Z</time>
      </trkpt>
      <trkpt lat="42.7994850" lon="-3.3907830">
        <ele>520.3</ele>
        <time>2018-10-21T08:00:34Z</time>
      </trkpt>
      <trkpt lat="42.7995170" lon="-3.3907050">
        <ele>520.3</ele>
        <time>2018-10-21T08:00:35Z</time>
      </trkpt>
      <trkpt lat="42.7995500" lon="-3.3906250">
        <ele>520.3</ele>
        <time>2018-10-21T08:00:36Z</time>
      </trkpt>
      <trkpt lat="42.7995830" lon="-3.3905470">
        <ele>520.3</ele>
        <time>2018-10-21T08:00:37Z</time>
      </trkpt>
      <trkpt lat="42.7996180" lon="-3.3904700">
        <ele>520.3</ele>
        <time>2018-10-21T08:00:38Z</time>
      </trkpt>
      <trkpt lat="42.7996570" lon="-3.3903970">
        <ele>520.3</ele>
        <time>2018-10-21T08:00:39Z</time>
      </trkpt>
      <trkpt lat="42.7996970" lon="-3.3903280">
        <ele>520.3</ele>
        <time>2018-10-21T08:00:40Z</time>
      </trkpt>
      <trkpt lat="42.7997400" lon="-3.3902650">
        <ele>520.3</ele>
        <time>2018-10-21T08:00:41Z</time>
      </trkpt>
      <trkpt lat="42.7997850" lon="-3.3902080">
        <ele>521.2</ele>
        <time>2018-10-21T08:00:42Z</time>
      </trkpt>
      <trkpt lat="42.7998350" lon="-3.3901600">
        <ele>521.2</ele>
        <time>2018-10-21T08:00:43Z</time>
      </trkpt>
      <trkpt lat="42.7998880" lon="-3.3901280">
        <ele>521.2</ele>
        <time>2018-10-21T08:00:44Z</time>
      </trkpt>
      <trkpt lat="42.7999450" lon="-3.3901200">
        <ele>521.2</ele>
        <time>2018-10-21T08:00:45Z</time>
      </trkpt>
      <trkpt lat="42.7999980" lon="-3.3901380">
        <ele>522.3</ele>
        <time>2018-10-21T08:00:46Z</time>
      </trkpt>
      <trkpt lat="42.8000430" lon="-3.3901770">
        <ele>522.3</ele>
        <time>2018-10-21T08:00:47Z</time>
      </trkpt>
      <trkpt lat="42.8000800" lon="-3.3902280">
        <ele>523.2</ele>
        <time>2018-10-21T08:00:48Z</time>
      </trkpt>
      <trkpt lat="42.8001030" lon="-3.3902920">
        <ele>523.2</ele>
        <time>2018-10-21T08:00:49Z</time>
      </trkpt>
      <trkpt lat="42.8001130" lon="-3.3903600">
        <ele>523.2</ele>
        <time>2018-10-21T08:00:50Z</time>
      </trkpt>
      <trkpt lat="42.8001220" lon="-3.3904300">
        <ele>523.2</ele>
        <time>2018-10-21T08:00:51Z</time>
      </trkpt>
      <trkpt lat="42.8001300" lon="-3.3905020">
        <ele>524.3</ele>
        <time>2018-10-21T08:00:52Z</time>
      </trkpt>
      <trkpt lat="42.8001350" lon="-3.3905720">
        <ele>524.3</ele>
        <time>2018-10-21T08:00:53Z</time>
      </trkpt>
      <trkpt lat="42.8001420" lon="-3.3906380">
        <ele>524.3</ele>
        <time>2018-10-21T08:00:54Z</time>
      </trkpt>
      <trkpt lat="42.8001480" lon="-3.3907030">
        <ele>524.3</ele>
        <time>2018-10-21T08:00:55Z</time>
      </trkpt>
      <trkpt lat="42.8001530" lon="-3.3907670">
        <ele>525.2</ele>
        <time>2018-10-21T08:00:56Z</time>
      </trkpt>
      <trkpt lat="42.8001580" lon="-3.3908320">
        <ele>525.2</ele>
        <time>2018-10-21T08:00:57Z</time>
      </trkpt>
      <trkpt lat="42.8001630" lon="-3.3908950">
        <ele>525.2</ele>
        <time>2018-10-21T08:00:58Z</time>
      </trkpt>
      <trkpt lat="42.8001700" lon="-3.3909570">
        <ele>525.2</ele>
        <time>2018-10-21T08:00:59Z</time>
      </trkpt>
      <trkpt lat="42.8001780" lon="-3.3910170">
        <ele>526.2</ele>
        <time>2018-10-21T08:01:00Z</time>
      </trkpt>
      <trkpt lat="42.8001900" lon="-3.3910730">
        <ele>526.2</ele>
        <time>2018-10-21T08:01:01Z</time>
      </trkpt>
      <trkpt lat="42.8002050" lon="-3.3911320">
        <ele>526.2</ele>
        <time>2018-10-21T08:01:02Z</time>
      </trkpt>
      <trkpt lat="42.8002270" lon="-3.3911820">
        <ele>526.2</ele>
        <time>2018-10-21T08:01:03Z</time>
      </trkpt>
      <trkpt lat="42.8002530" lon="-3.3912280">
        <ele>527.3</ele>
        <time>2018-10-21T08:01:04Z</time>
      </trkpt>
      <trkpt lat="42.8002830" lon="-3.3912680">
        <ele>527.3</ele>
        <time>2018-10-21T08:01:05Z</time>
      </trkpt>
      <trkpt lat="42.8003180" lon="-3.3912950">
        <ele>527.3</ele>
        <time>2018-10-21T08:01:06Z</time>
      </trkpt>
      <trkpt lat="42.8003570" lon="-3.3913080">
        <ele>527.3</ele>
        <time>2018-10-21T08:01:07Z</time>
      </trkpt>
      <trkpt lat="42.8003970" lon="-3.3913180">
        <ele>528.2</ele>
        <time>2018-10-21T08:01:08Z</time>
      </trkpt>
      <trkpt lat="42.8004370" lon="-3.3913180">
        <ele>528.2</ele>
        <time>2018-10-21T08:01:09Z</time>
      </trkpt>
      <trkpt lat="42.8004750" lon="-3.3913120">
        <ele>528.2</ele>
        <time>2018-10-21T08:01:10Z</time>
      </trkpt>
      <trkpt lat="42.8005130" lon="-3.3913020">
        <ele>528.2</ele>
        <time>2018-10-21T08:01:11Z</time>
      </trkpt>
      <trkpt lat="42.8005500" lon="-3.3912900">
        <ele>529.3</ele>
        <time>2018-10-21T08:01:12Z</time>
      </trkpt>
      <trkpt lat="42.8005870" lon="-3.3912780">
        <ele>529.3</ele>
        <time>2018-10-21T08:01:13Z</time>
      </trkpt>
      <trkpt lat="42.8006180" lon="-3.3912730">
        <ele>529.3</ele>
        <time>2018-10-21T08:01:14Z</time>
      </trkpt>
      <trkpt lat="42.8006520" lon="-3.3912650">
        <ele>529.3</ele>
        <time>2018-10-21T08:01:15Z</time>
      </trkpt>
      <trkpt lat="42.8006870" lon="-3.3912620">
        <ele>529.3</ele>
        <time>2018-10-21T08:01:16Z</time>
      </trkpt>
      <trkpt lat="42.8007220" lon="-3.3912580">
        <ele>529.3</ele>
        <time>2018-10-21T08:01:17Z</time>
      </trkpt>
      <trkpt lat="42.8007580" lon="-3.3912550">
        <ele>529.3</ele>
        <time>2018-10-21T08:01:18Z</time>
      </trkpt>
      <trkpt lat="42.8007950" lon="-3.3912520">
        <ele>529.3</ele>
        <time>2018-10-21T08:01:19Z</time>
      </trkpt>
      <trkpt lat="42.8008300" lon="-3.3912450">
        <ele>529.3</ele>
        <time>2018-10-21T08:01:20Z</time>
      </trkpt>
      <trkpt lat="42.8008670" lon="-3.3912400">
        <ele>529.3</ele>
        <time>2018-10-21T08:01:21Z</time>
      </trkpt>
      <trkpt lat="42.8009050" lon="-3.3912380">
        <ele>529.3</ele>
        <time>2018-10-21T08:01:22Z</time>
      </trkpt>
      <trkpt lat="42.8009420" lon="-3.3912350">
        <ele>529.3</ele>
        <time>2018-10-21T08:01:23Z</time>
      </trkpt>
      <trkpt lat="42.8009780" lon="-3.3912300">
        <ele>529.3</ele>
        <time>2018-10-21T08:01:24Z</time>
      </trkpt>
      <trkpt lat="42.8010120" lon="-3.3912220">
        <ele>529.3</ele>
        <time>2018-10-21T08:01:25Z</time>
      </trkpt>
      <trkpt lat="42.8010420" lon="-3.3912130">
        <ele>529.3</ele>
        <time>2018-10-21T08:01:26Z</time>
      </trkpt>
      <trkpt lat="42.8010730" lon="-3.3912070">
        <ele>529.3</ele>
        <time>2018-10-21T08:01:27Z</time>
      </trkpt>
      <trkpt lat="42.8011070" lon="-3.3911970">
        <ele>531.3</ele>
        <time>2018-10-21T08:01:28Z</time>
      </trkpt>
      <trkpt lat="42.8011370" lon="-3.3911830">
        <ele>531.3</ele>
        <time>2018-10-21T08:01:29Z</time>
      </trkpt>
      <trkpt lat="42.8011650" lon="-3.3911720">
        <ele>532.2</ele>
        <time>2018-10-21T08:01:30Z</time>
      </trkpt>
      <trkpt lat="42.8011900" lon="-3.3911550">
        <ele>532.2</ele>
        <time>2018-10-21T08:01:31Z</time>
      </trkpt>
      <trkpt lat="42.8012170" lon="-3.3911370">
        <ele>532.2</ele>
        <time>2018-10-21T08:01:32Z</time>
      </trkpt>
      <trkpt lat="42.8012500" lon="-3.3911180">
        <ele>532.2</ele>
        <time>2018-10-21T08:01:33Z</time>
      </trkpt>
      <trkpt lat="42.8012800" lon="-3.3911030">
        <ele>533.3</ele>
        <time>2018-10-21T08:01:34Z</time>
      </trkpt>
      <trkpt lat="42.8013080" lon="-3.3910830">
        <ele>533.3</ele>
        <time>2018-10-21T08:01:35Z</time>
      </trkpt>
      <trkpt lat="42.8013380" lon="-3.3910600">
        <ele>533.3</ele>
        <time>2018-10-21T08:01:36Z</time>
      </trkpt>
      <trkpt lat="42.8013700" lon="-3.3910350">
        <ele>533.3</ele>
        <time>2018-10-21T08:01:37Z</time>
      </trkpt>
      <trkpt lat="42.8014070" lon="-3.3910120">
        <ele>534.2</ele>
        <time>2018-10-21T08:01:38Z</time>
      </trkpt>
      <trkpt lat="42.8014420" lon="-3.3909870">
        <ele>534.2</ele>
        <time>2018-10-21T08:01:39Z</time>
      </trkpt>
      <trkpt lat="42.8014770" lon="-3.3909650">
        <ele>534.2</ele>
        <time>2018-10-21T08:01:40Z</time>
      </trkpt>
      <trkpt lat="42.8015130" lon="-3.3909430">
        <ele>534.2</ele>
        <time>2018-10-21T08:01:41Z</time>
      </trkpt>
      <trkpt lat="42.8015400" lon="-3.3909220">
        <ele>534.2</ele>
        <time>2018-10-21T08:01:42Z</time>
      </trkpt>
      <trkpt lat="42.8015730" lon="-3.3908970">
        <ele>534.2</ele>
        <time>2018-10-21T08:01:43Z</time>
      </trkpt>
      <trkpt lat="42.8016080" lon="-3.3908720">
        <ele>534.2</ele>
        <time>2018-10-21T08:01:44Z</time>
      </trkpt>
      <trkpt lat="42.8016430" lon="-3.3908450">
        <ele>534.2</ele>
        <time>2018-10-21T08:01:45Z</time>
      </trkpt>
      <trkpt lat="42.8016780" lon="-3.3908130">
        <ele>535.2</ele>
        <time>2018-10-21T08:01:46Z</time>
      </trkpt>
      <trkpt lat="42.8017150" lon="-3.3907850">
        <ele>535.2</ele>
        <time>2018-10-21T08:01:47Z</time>
      </trkpt>
      <trkpt lat="42.8017530" lon="-3.3907550">
        <ele>535.2</ele>
        <time>2018-10-21T08:01:48Z</time>
      </trkpt>
      <trkpt lat="42.8017830" lon="-3.3907250">
        <ele>535.2</ele>
        <time>2018-10-21T08:01:49Z</time>
      </trkpt>
      <trkpt lat="42.8018170" lon="-3.3906920">
        <ele>536.3</ele>
        <time>2018-10-21T08:01:50Z</time>
      </trkpt>
      <trkpt lat="42.8018500" lon="-3.3906620">
        <ele>536.3</ele>
        <time>2018-10-21T08:01:51Z</time>
      </trkpt>
      <trkpt lat="42.8018830" lon="-3.3906320">
        <ele>536.3</ele>
        <time>2018-10-21T08:01:52Z</time>
      </trkpt>
      <trkpt lat="42.8019180" lon="-3.3906020">
        <ele>536.3</ele>
        <time>2018-10-21T08:01:53Z</time>
      </trkpt>
      <trkpt lat="42.8019570" lon="-3.3905700">
        <ele>536.3</ele>
        <time>2018-10-21T08:01:54Z</time>
      </trkpt>
      <trkpt lat="42.8019950" lon="-3.3905370">
        <ele>536.3</ele>
        <time>2018-10-21T08:01:55Z</time>
      </trkpt>
      <trkpt lat="42.8020320" lon="-3.3905000">
        <ele>536.3</ele>
        <time>2018-10-21T08:01:56Z</time>
      </trkpt>
      <trkpt lat="42.8020670" lon="-3.3904620">
        <ele>536.3</ele>
        <time>2018-10-21T08:01:57Z</time>
      </trkpt>
      <trkpt lat="42.8021030" lon="-3.3904250">
        <ele>537.2</ele>
        <time>2018-10-21T08:01:58Z</time>
      </trkpt>
      <trkpt lat="42.8021350" lon="-3.3903820">
        <ele>537.2</ele>
        <time>2018-10-21T08:01:59Z</time>
      </trkpt>
      <trkpt lat="42.8021570" lon="-3.3903370">
        <ele>537.2</ele>
        <time>2018-10-21T08:02:00Z</time>
      </trkpt>
      <trkpt lat="42.8021730" lon="-3.3902920">
        <ele>537.2</ele>
        <time>2018-10-21T08:02:01Z</time>
      </trkpt>
      <trkpt lat="42.8021750" lon="-3.3902450">
        <ele>537.2</ele>
        <time>2018-10-21T08:02:02Z</time>
      </trkpt>
      <trkpt lat="42.8021700" lon="-3.3902000">
        <ele>537.2</ele>
        <time>2018-10-21T08:02:03Z</time>
      </trkpt>
      <trkpt lat="42.8021630" lon="-3.3901530">
        <ele>537.2</ele>
        <time>2018-10-21T08:02:04Z</time>
      </trkpt>
      <trkpt lat="42.8021530" lon="-3.3901070">
        <ele>537.2</ele>
        <time>2018-10-21T08:02:05Z</time>
      </trkpt>
      <trkpt lat="42.8021430" lon="-3.3900550">
        <ele>537.2</ele>
        <time>2018-10-21T08:02:06Z</time>
      </trkpt>
      <trkpt lat="42.8021350" lon="-3.3900020">
        <ele>537.2</ele>
        <time>2018-10-21T08:02:07Z</time>
      </trkpt>
      <trkpt lat="42.8021250" lon="-3.3899470">
        <ele>537.2</ele>
        <time>2018-10-21T08:02:08Z</time>
      </trkpt>
      <trkpt lat="42.8021170" lon="-3.3898880">
        <ele>537.2</ele>
        <time>2018-10-21T08:02:09Z</time>
      </trkpt>
      <trkpt lat="42.8021080" lon="-3.3898280">
        <ele>537.2</ele>
        <time>2018-10-21T08:02:10Z</time>
      </trkpt>
      <trkpt lat="42.8021000" lon="-3.3897670">
        <ele>537.2</ele>
        <time>2018-10-21T08:02:11Z</time>
      </trkpt>
      <trkpt lat="42.8020900" lon="-3.3897050">
        <ele>537.2</ele>
        <time>2018-10-21T08:02:12Z</time>
      </trkpt>
      <trkpt lat="42.8020800" lon="-3.3896450">
        <ele>537.2</ele>
        <time>2018-10-21T08:02:13Z</time>
      </trkpt>
      <trkpt lat="42.8020720" lon="-3.3895830">
        <ele>537.2</ele>
        <time>2018-10-21T08:02:14Z</time>
      </trkpt>
      <trkpt lat="42.8020630" lon="-3.3895200">
        <ele>537.2</ele>
        <time>2018-10-21T08:02:15Z</time>
      </trkpt>
      <trkpt lat="42.8020550" lon="-3.3894580">
        <ele>537.2</ele>
        <time>2018-10-21T08:02:16Z</time>
      </trkpt>
      <trkpt lat="42.8020430" lon="-3.3893950">
        <ele>537.2</ele>
        <time>2018-10-21T08:02:17Z</time>
      </trkpt>
      <trkpt lat="42.8020320" lon="-3.3893300">
        <ele>537.2</ele>
        <time>2018-10-21T08:02:18Z</time>
      </trkpt>
      <trkpt lat="42.8020180" lon="-3.3892650">
        <ele>537.2</ele>
        <time>2018-10-21T08:02:19Z</time>
      </trkpt>
      <trkpt lat="42.8020070" lon="-3.3891980">
        <ele>537.2</ele>
        <time>2018-10-21T08:02:20Z</time>
      </trkpt>
      <trkpt lat="42.8019970" lon="-3.3891280">
        <ele>537.2</ele>
        <time>2018-10-21T08:02:21Z</time>
      </trkpt>
      <trkpt lat="42.8019970" lon="-3.3891280">
        <ele>537.2</ele>
        <time>2018-10-21T08:02:22Z</time>
      </trkpt>
      <trkpt lat="42.8019700" lon="-3.3889900">
        <ele>537.2</ele>
        <time>2018-10-21T08:02:23Z</time>
      </trkpt>
      <trkpt lat="42.8019550" lon="-3.3889180">
        <ele>537.2</ele>
        <time>2018-10-21T08:02:24Z</time>
      </trkpt>
      <trkpt lat="42.8019400" lon="-3.3888450">
        <ele>537.2</ele>
        <time>2018-10-21T08:02:25Z</time>
      </trkpt>
      <trkpt lat="42.8019270" lon="-3.3887720">
        <ele>537.2</ele>
        <time>2018-10-21T08:02:26Z</time>
      </trkpt>
      <trkpt lat="42.8019130" lon="-3.3886970">
        <ele>537.2</ele>
        <time>2018-10-21T08:02:27Z</time>
      </trkpt>
      <trkpt lat="42.8018980" lon="-3.3886200">
        <ele>536.3</ele>
        <time>2018-10-21T08:02:28Z</time>
      </trkpt>
      <trkpt lat="42.8018850" lon="-3.3885430">
        <ele>536.3</ele>
        <time>2018-10-21T08:02:29Z</time>
      </trkpt>
      <trkpt lat="42.8018720" lon="-3.3884650">
        <ele>536.3</ele>
        <time>2018-10-21T08:02:30Z</time>
      </trkpt>
      <trkpt lat="42.8018580" lon="-3.3883830">
        <ele>536.3</ele>
        <time>2018-10-21T08:02:31Z</time>
      </trkpt>
      <trkpt lat="42.8018430" lon="-3.3883020">
        <ele>536.3</ele>
        <time>2018-10-21T08:02:32Z</time>
      </trkpt>
      <trkpt lat="42.8018320" lon="-3.3882230">
        <ele>536.3</ele>
        <time>2018-10-21T08:02:33Z</time>
      </trkpt>
      <trkpt lat="42.8018180" lon="-3.3881400">
        <ele>537.2</ele>
        <time>2018-10-21T08:02:34Z</time>
      </trkpt>
      <trkpt lat="42.8018070" lon="-3.3880550">
        <ele>537.2</ele>
        <time>2018-10-21T08:02:35Z</time>
      </trkpt>
      <trkpt lat="42.8017920" lon="-3.3879700">
        <ele>537.2</ele>
        <time>2018-10-21T08:02:36Z</time>
      </trkpt>
      <trkpt lat="42.8017750" lon="-3.3878880">
        <ele>537.2</ele>
        <time>2018-10-21T08:02:37Z</time>
      </trkpt>
      <trkpt lat="42.8017580" lon="-3.3878050">
        <ele>537.2</ele>
        <time>2018-10-21T08:02:38Z</time>
      </trkpt>
      <trkpt lat="42.8017420" lon="-3.3877200">
        <ele>537.2</ele>
        <time>2018-10-21T08:02:39Z</time>
      </trkpt>
      <trkpt lat="42.8017270" lon="-3.3876350">
        <ele>537.2</ele>
        <time>2018-10-21T08:02:40Z</time>
      </trkpt>
      <trkpt lat="42.8017080" lon="-3.3875520">
        <ele>537.2</ele>
        <time>2018-10-21T08:02:41Z</time>
      </trkpt>
      <trkpt lat="42.8016930" lon="-3.3874630">
        <ele>537.2</ele>
        <time>2018-10-21T08:02:42Z</time>
      </trkpt>
      <trkpt lat="42.8016770" lon="-3.3873720">
        <ele>537.2</ele>
        <time>2018-10-21T08:02:43Z</time>
      </trkpt>
      <trkpt lat="42.8016600" lon="-3.3872800">
        <ele>536.3</ele>
        <time>2018-10-21T08:02:44Z</time>
      </trkpt>
      <trkpt lat="42.8016420" lon="-3.3871850">
        <ele>536.3</ele>
        <time>2018-10-21T08:02:45Z</time>
      </trkpt>
      <trkpt lat="42.8016250" lon="-3.3870830">
        <ele>535.2</ele>
        <time>2018-10-21T08:02:46Z</time>
      </trkpt>
      <trkpt lat="42.8016020" lon="-3.3869900">
        <ele>535.2</ele>
        <time>2018-10-21T08:02:47Z</time>
      </trkpt>
      <trkpt lat="42.8015750" lon="-3.3869050">
        <ele>534.2</ele>
        <time>2018-10-21T08:02:48Z</time>
      </trkpt>
      <trkpt lat="42.8015450" lon="-3.3868300">
        <ele>534.2</ele>
        <time>2018-10-21T08:02:49Z</time>
      </trkpt>
      <trkpt lat="42.8015170" lon="-3.3867620">
        <ele>534.2</ele>
        <time>2018-10-21T08:02:50Z</time>
      </trkpt>
      <trkpt lat="42.8014950" lon="-3.3867020">
        <ele>534.2</ele>
        <time>2018-10-21T08:02:51Z</time>
      </trkpt>
      <trkpt lat="42.8014820" lon="-3.3866480">
        <ele>533.3</ele>
        <time>2018-10-21T08:02:52Z</time>
      </trkpt>
      <trkpt lat="42.8014750" lon="-3.3866020">
        <ele>533.3</ele>
        <time>2018-10-21T08:02:53Z</time>
      </trkpt>
      <trkpt lat="42.8014850" lon="-3.3865630">
        <ele>533.3</ele>
        <time>2018-10-21T08:02:54Z</time>
      </trkpt>
      <trkpt lat="42.8014980" lon="-3.3865520">
        <ele>533.3</ele>
        <time>2018-10-21T08:02:55Z</time>
      </trkpt>
      <trkpt lat="42.8015440" lon="-3.3866990">
        <ele>533.3</ele>
        <time>2018-10-21T08:02:56Z</time>
      </trkpt>
      <trkpt lat="42.8015860" lon="-3.3868480">
        <ele>533.3</ele>
        <time>2018-10-21T08:04:42Z</time>
      </trkpt>
      <trkpt lat="42.8016270" lon="-3.3869970">
        <ele>533.3</ele>
        <time>2018-10-21T08:04:43Z</time>
      </trkpt>
      <trkpt lat="42.8016370" lon="-3.3870550">
        <ele>533.3</ele>
        <time>2018-10-21T08:04:44Z</time>
      </trkpt>
      <trkpt lat="42.8016480" lon="-3.3871130">
        <ele>533.3</ele>
        <time>2018-10-21T08:04:45Z</time>
      </trkpt>
      <trkpt lat="42.8016620" lon="-3.3871730">
        <ele>534.2</ele>
        <time>2018-10-21T08:04:46Z</time>
      </trkpt>
      <trkpt lat="42.8016720" lon="-3.3872370">
        <ele>534.2</ele>
        <time>2018-10-21T08:04:47Z</time>
      </trkpt>
      <trkpt lat="42.8016830" lon="-3.3873020">
        <ele>534.2</ele>
        <time>2018-10-21T08:04:48Z</time>
      </trkpt>
      <trkpt lat="42.8016950" lon="-3.3873700">
        <ele>534.2</ele>
        <time>2018-10-21T08:04:49Z</time>
      </trkpt>
      <trkpt lat="42.8017050" lon="-3.3874400">
        <ele>535.2</ele>
        <time>2018-10-21T08:04:50Z</time>
      </trkpt>
      <trkpt lat="42.8017180" lon="-3.3875120">
        <ele>535.2</ele>
        <time>2018-10-21T08:04:51Z</time>
      </trkpt>
      <trkpt lat="42.8017330" lon="-3.3875820">
        <ele>535.2</ele>
        <time>2018-10-21T08:04:52Z</time>
      </trkpt>
      <trkpt lat="42.8017450" lon="-3.3876550">
        <ele>535.2</ele>
        <time>2018-10-21T08:04:53Z</time>
      </trkpt>
      <trkpt lat="42.8017530" lon="-3.3877230">
        <ele>535.2</ele>
        <time>2018-10-21T08:04:54Z</time>
      </trkpt>
      <trkpt lat="42.8017650" lon="-3.3877900">
        <ele>535.2</ele>
        <time>2018-10-21T08:04:55Z</time>
      </trkpt>
      <trkpt lat="42.8017770" lon="-3.3878550">
        <ele>536.3</ele>
        <time>2018-10-21T08:04:56Z</time>
      </trkpt>
      <trkpt lat="42.8017900" lon="-3.3879220">
        <ele>536.3</ele>
        <time>2018-10-21T08:04:57Z</time>
      </trkpt>
      <trkpt lat="42.8018000" lon="-3.3879870">
        <ele>536.3</ele>
        <time>2018-10-21T08:04:58Z</time>
      </trkpt>
      <trkpt lat="42.8018100" lon="-3.3880530">
        <ele>536.3</ele>
        <time>2018-10-21T08:04:59Z</time>
      </trkpt>
      <trkpt lat="42.8018200" lon="-3.3881180">
        <ele>537.2</ele>
        <time>2018-10-21T08:05:00Z</time>
      </trkpt>
      <trkpt lat="42.8018300" lon="-3.3881850">
        <ele>537.2</ele>
        <time>2018-10-21T08:05:01Z</time>
      </trkpt>
      <trkpt lat="42.8018400" lon="-3.3882520">
        <ele>537.2</ele>
        <time>2018-10-21T08:05:02Z</time>
      </trkpt>
      <trkpt lat="42.8018500" lon="-3.3883180">
        <ele>537.2</ele>
        <time>2018-10-21T08:05:03Z</time>
      </trkpt>
      <trkpt lat="42.8018600" lon="-3.3883850">
        <ele>537.2</ele>
        <time>2018-10-21T08:05:04Z</time>
      </trkpt>
      <trkpt lat="42.8018680" lon="-3.3884530">
        <ele>537.2</ele>
        <time>2018-10-21T08:05:05Z</time>
      </trkpt>
      <trkpt lat="42.8018800" lon="-3.3885200">
        <ele>537.2</ele>
        <time>2018-10-21T08:05:06Z</time>
      </trkpt>
      <trkpt lat="42.8018920" lon="-3.3885850">
        <ele>537.2</ele>
        <time>2018-10-21T08:05:07Z</time>
      </trkpt>
      <trkpt lat="42.8019020" lon="-3.3886500">
        <ele>537.2</ele>
        <time>2018-10-21T08:05:08Z</time>
      </trkpt>
      <trkpt lat="42.8019080" lon="-3.3887180">
        <ele>537.2</ele>
        <time>2018-10-21T08:05:09Z</time>
      </trkpt>
      <trkpt lat="42.8019180" lon="-3.3887850">
        <ele>538.3</ele>
        <time>2018-10-21T08:05:10Z</time>
      </trkpt>
      <trkpt lat="42.8019300" lon="-3.3888520">
        <ele>538.3</ele>
        <time>2018-10-21T08:05:11Z</time>
      </trkpt>
      <trkpt lat="42.8019380" lon="-3.3889200">
        <ele>538.3</ele>
        <time>2018-10-21T08:05:12Z</time>
      </trkpt>
      <trkpt lat="42.8019480" lon="-3.3889870">
        <ele>538.3</ele>
        <time>2018-10-21T08:05:13Z</time>
      </trkpt>
      <trkpt lat="42.8019550" lon="-3.3890530">
        <ele>538.3</ele>
        <time>2018-10-21T08:05:14Z</time>
      </trkpt>
      <trkpt lat="42.8019650" lon="-3.3891200">
        <ele>538.3</ele>
        <time>2018-10-21T08:05:15Z</time>
      </trkpt>
      <trkpt lat="42.8019730" lon="-3.3891870">
        <ele>538.3</ele>
        <time>2018-10-21T08:05:16Z</time>
      </trkpt>
      <trkpt lat="42.8019850" lon="-3.3892500">
        <ele>538.3</ele>
        <time>2018-10-21T08:05:17Z</time>
      </trkpt>
      <trkpt lat="42.8019950" lon="-3.3893150">
        <ele>538.3</ele>
        <time>2018-10-21T08:05:18Z</time>
      </trkpt>
      <trkpt lat="42.8020050" lon="-3.3893780">
        <ele>538.3</ele>
        <time>2018-10-21T08:05:19Z</time>
      </trkpt>
      <trkpt lat="42.8020150" lon="-3.3894420">
        <ele>538.3</ele>
        <time>2018-10-21T08:05:20Z</time>
      </trkpt>
      <trkpt lat="42.8020230" lon="-3.3895050">
        <ele>538.3</ele>
        <time>2018-10-21T08:05:21Z</time>
      </trkpt>
      <trkpt lat="42.8020270" lon="-3.3895720">
        <ele>538.3</ele>
        <time>2018-10-21T08:05:22Z</time>
      </trkpt>
      <trkpt lat="42.8020350" lon="-3.3896380">
        <ele>538.3</ele>
        <time>2018-10-21T08:05:23Z</time>
      </trkpt>
      <trkpt lat="42.8020470" lon="-3.3897030">
        <ele>538.3</ele>
        <time>2018-10-21T08:05:24Z</time>
      </trkpt>
      <trkpt lat="42.8020600" lon="-3.3897650">
        <ele>538.3</ele>
        <time>2018-10-21T08:05:25Z</time>
      </trkpt>
      <trkpt lat="42.8020780" lon="-3.3898270">
        <ele>538.3</ele>
        <time>2018-10-21T08:05:26Z</time>
      </trkpt>
      <trkpt lat="42.8020950" lon="-3.3898880">
        <ele>538.3</ele>
        <time>2018-10-21T08:05:27Z</time>
      </trkpt>
      <trkpt lat="42.8021080" lon="-3.3899480">
        <ele>538.3</ele>
        <time>2018-10-21T08:05:28Z</time>
      </trkpt>
      <trkpt lat="42.8021220" lon="-3.3900080">
        <ele>538.3</ele>
        <time>2018-10-21T08:05:29Z</time>
      </trkpt>
      <trkpt lat="42.8021370" lon="-3.3900650">
        <ele>538.3</ele>
        <time>2018-10-21T08:05:30Z</time>
      </trkpt>
      <trkpt lat="42.8021500" lon="-3.3901170">
        <ele>538.3</ele>
        <time>2018-10-21T08:05:31Z</time>
      </trkpt>
      <trkpt lat="42.8021650" lon="-3.3901570">
        <ele>538.3</ele>
        <time>2018-10-21T08:05:32Z</time>
      </trkpt>
      <trkpt lat="42.8021820" lon="-3.3901780">
        <ele>538.3</ele>
        <time>2018-10-21T08:05:33Z</time>
      </trkpt>
      <trkpt lat="42.8022020" lon="-3.3901850">
        <ele>538.3</ele>
        <time>2018-10-21T08:05:34Z</time>
      </trkpt>
      <trkpt lat="42.8022250" lon="-3.3901800">
        <ele>538.3</ele>
        <time>2018-10-21T08:05:35Z</time>
      </trkpt>
      <trkpt lat="42.8022500" lon="-3.3901570">
        <ele>538.3</ele>
        <time>2018-10-21T08:05:36Z</time>
      </trkpt>
      <trkpt lat="42.8022770" lon="-3.3901200">
        <ele>538.3</ele>
        <time>2018-10-21T08:05:37Z</time>
      </trkpt>
      <trkpt lat="42.8023070" lon="-3.3900800">
        <ele>538.3</ele>
        <time>2018-10-21T08:05:38Z</time>
      </trkpt>
      <trkpt lat="42.8023430" lon="-3.3900370">
        <ele>538.3</ele>
        <time>2018-10-21T08:05:39Z</time>
      </trkpt>
      <trkpt lat="42.8023820" lon="-3.3899920">
        <ele>538.3</ele>
        <time>2018-10-21T08:05:40Z</time>
      </trkpt>
      <trkpt lat="42.8024220" lon="-3.3899400">
        <ele>538.3</ele>
        <time>2018-10-21T08:05:41Z</time>
      </trkpt>
      <trkpt lat="42.8024620" lon="-3.3898820">
        <ele>538.3</ele>
        <time>2018-10-21T08:05:42Z</time>
      </trkpt>
      <trkpt lat="42.8025020" lon="-3.3898150">
        <ele>538.3</ele>
        <time>2018-10-21T08:05:43Z</time>
      </trkpt>
      <trkpt lat="42.8025430" lon="-3.3897480">
        <ele>538.3</ele>
        <time>2018-10-21T08:05:44Z</time>
      </trkpt>
      <trkpt lat="42.8025850" lon="-3.3896850">
        <ele>538.3</ele>
        <time>2018-10-21T08:05:45Z</time>
      </trkpt>
      <trkpt lat="42.8026270" lon="-3.3896200">
        <ele>538.3</ele>
        <time>2018-10-21T08:05:46Z</time>
      </trkpt>
      <trkpt lat="42.8026700" lon="-3.3895580">
        <ele>538.3</ele>
        <time>2018-10-21T08:05:47Z</time>
      </trkpt>
      <trkpt lat="42.8027120" lon="-3.3894980">
        <ele>538.3</ele>
        <time>2018-10-21T08:05:48Z</time>
      </trkpt>
      <trkpt lat="42.8027550" lon="-3.3894350">
        <ele>538.3</ele>
        <time>2018-10-21T08:05:49Z</time>
      </trkpt>
      <trkpt lat="42.8027980" lon="-3.3893750">
        <ele>538.3</ele>
        <time>2018-10-21T08:05:50Z</time>
      </trkpt>
      <trkpt lat="42.8028400" lon="-3.3893150">
        <ele>538.3</ele>
        <time>2018-10-21T08:05:51Z</time>
      </trkpt>
      <trkpt lat="42.8028820" lon="-3.3892550">
        <ele>538.3</ele>
        <time>2018-10-21T08:05:52Z</time>
      </trkpt>
      <trkpt lat="42.8029250" lon="-3.3891970">
        <ele>538.3</ele>
        <time>2018-10-21T08:05:53Z</time>
      </trkpt>
      <trkpt lat="42.8029670" lon="-3.3891370">
        <ele>538.3</ele>
        <time>2018-10-21T08:05:54Z</time>
      </trkpt>
      <trkpt lat="42.8030100" lon="-3.3890800">
        <ele>538.3</ele>
        <time>2018-10-21T08:05:55Z</time>
      </trkpt>
      <trkpt lat="42.8030500" lon="-3.3890220">
        <ele>538.3</ele>
        <time>2018-10-21T08:05:56Z</time>
      </trkpt>
      <trkpt lat="42.8030920" lon="-3.3889630">
        <ele>538.3</ele>
        <time>2018-10-21T08:05:57Z</time>
      </trkpt>
      <trkpt lat="42.8031350" lon="-3.3889050">
        <ele>538.3</ele>
        <time>2018-10-21T08:05:58Z</time>
      </trkpt>
      <trkpt lat="42.8031780" lon="-3.3888470">
        <ele>538.3</ele>
        <time>2018-10-21T08:05:59Z</time>
      </trkpt>
      <trkpt lat="42.8032220" lon="-3.3887900">
        <ele>538.3</ele>
        <time>2018-10-21T08:06:00Z</time>
      </trkpt>
      <trkpt lat="42.8032650" lon="-3.3887320">
        <ele>538.3</ele>
        <time>2018-10-21T08:06:01Z</time>
      </trkpt>
      <trkpt lat="42.8033070" lon="-3.3886720">
        <ele>538.3</ele>
        <time>2018-10-21T08:06:02Z</time>
      </trkpt>
      <trkpt lat="42.8033480" lon="-3.3886080">
        <ele>538.3</ele>
        <time>2018-10-21T08:06:03Z</time>
      </trkpt>
      <trkpt lat="42.8033920" lon="-3.3885450">
        <ele>538.3</ele>
        <time>2018-10-21T08:06:04Z</time>
      </trkpt>
      <trkpt lat="42.8034350" lon="-3.3884830">
        <ele>538.3</ele>
        <time>2018-10-21T08:06:05Z</time>
      </trkpt>
      <trkpt lat="42.8034800" lon="-3.3884220">
        <ele>538.3</ele>
        <time>2018-10-21T08:06:06Z</time>
      </trkpt>
      <trkpt lat="42.8035220" lon="-3.3883580">
        <ele>538.3</ele>
        <time>2018-10-21T08:06:07Z</time>
      </trkpt>
      <trkpt lat="42.8035650" lon="-3.3882950">
        <ele>538.3</ele>
        <time>2018-10-21T08:06:08Z</time>
      </trkpt>
      <trkpt lat="42.8036070" lon="-3.3882350">
        <ele>538.3</ele>
        <time>2018-10-21T08:06:09Z</time>
      </trkpt>
      <trkpt lat="42.8036480" lon="-3.3881720">
        <ele>538.3</ele>
        <time>2018-10-21T08:06:10Z</time>
      </trkpt>
      <trkpt lat="42.8036880" lon="-3.3881080">
        <ele>538.3</ele>
        <time>2018-10-21T08:06:11Z</time>
      </trkpt>
      <trkpt lat="42.8037300" lon="-3.3880450">
        <ele>538.3</ele>
        <time>2018-10-21T08:06:12Z</time>
      </trkpt>
      <trkpt lat="42.8037730" lon="-3.3879850">
        <ele>538.3</ele>
        <time>2018-10-21T08:06:13Z</time>
      </trkpt>
      <trkpt lat="42.8038150" lon="-3.3879230">
        <ele>538.3</ele>
        <time>2018-10-21T08:06:14Z</time>
      </trkpt>
      <trkpt lat="42.8038570" lon="-3.3878620">
        <ele>538.3</ele>
        <time>2018-10-21T08:06:15Z</time>
      </trkpt>
      <trkpt lat="42.8038980" lon="-3.3877980">
        <ele>538.3</ele>
        <time>2018-10-21T08:06:16Z</time>
      </trkpt>
      <trkpt lat="42.8039400" lon="-3.3877330">
        <ele>538.3</ele>
        <time>2018-10-21T08:06:17Z</time>
      </trkpt>
      <trkpt lat="42.8039820" lon="-3.3876700">
        <ele>538.3</ele>
        <time>2018-10-21T08:06:18Z</time>
      </trkpt>
      <trkpt lat="42.8040230" lon="-3.3876050">
        <ele>538.3</ele>
        <time>2018-10-21T08:06:19Z</time>
      </trkpt>
      <trkpt lat="42.8040650" lon="-3.3875430">
        <ele>538.3</ele>
        <time>2018-10-21T08:06:20Z</time>
      </trkpt>
      <trkpt lat="42.8041050" lon="-3.3874780">
        <ele>538.3</ele>
        <time>2018-10-21T08:06:21Z</time>
      </trkpt>
      <trkpt lat="42.8041450" lon="-3.3874130">
        <ele>538.3</ele>
        <time>2018-10-21T08:06:22Z</time>
      </trkpt>
      <trkpt lat="42.8041830" lon="-3.3873520">
        <ele>538.3</ele>
        <time>2018-10-21T08:06:23Z</time>
      </trkpt>
      <trkpt lat="42.8042250" lon="-3.3872900">
        <ele>538.3</ele>
        <time>2018-10-21T08:06:24Z</time>
      </trkpt>
      <trkpt lat="42.8042630" lon="-3.3872270">
        <ele>538.3</ele>
        <time>2018-10-21T08:06:25Z</time>
      </trkpt>
      <trkpt lat="42.8043030" lon="-3.3871650">
        <ele>538.3</ele>
        <time>2018-10-21T08:06:26Z</time>
      </trkpt>
      <trkpt lat="42.8043450" lon="-3.3871030">
        <ele>538.3</ele>
        <time>2018-10-21T08:06:27Z</time>
      </trkpt>
      <trkpt lat="42.8043850" lon="-3.3870420">
        <ele>538.3</ele>
        <time>2018-10-21T08:06:28Z</time>
      </trkpt>
      <trkpt lat="42.8044250" lon="-3.3869780">
        <ele>538.3</ele>
        <time>2018-10-21T08:06:29Z</time>
      </trkpt>
      <trkpt lat="42.8044650" lon="-3.3869170">
        <ele>538.3</ele>
        <time>2018-10-21T08:06:30Z</time>
      </trkpt>
      <trkpt lat="42.8045070" lon="-3.3868530">
        <ele>538.3</ele>
        <time>2018-10-21T08:06:31Z</time>
      </trkpt>
      <trkpt lat="42.8045480" lon="-3.3867920">
        <ele>538.3</ele>
        <time>2018-10-21T08:06:32Z</time>
      </trkpt>
      <trkpt lat="42.8045920" lon="-3.3867300">
        <ele>538.3</ele>
        <time>2018-10-21T08:06:33Z</time>
      </trkpt>
      <trkpt lat="42.8046350" lon="-3.3866680">
        <ele>538.3</ele>
        <time>2018-10-21T08:06:34Z</time>
      </trkpt>
      <trkpt lat="42.8046770" lon="-3.3866050">
        <ele>538.3</ele>
        <time>2018-10-21T08:06:35Z</time>
      </trkpt>
      <trkpt lat="42.8047180" lon="-3.3865420">
        <ele>538.3</ele>
        <time>2018-10-21T08:06:36Z</time>
      </trkpt>
      <trkpt lat="42.8047600" lon="-3.3864770">
        <ele>538.3</ele>
        <time>2018-10-21T08:06:37Z</time>
      </trkpt>
      <trkpt lat="42.8048030" lon="-3.3864130">
        <ele>538.3</ele>
        <time>2018-10-21T08:06:38Z</time>
      </trkpt>
      <trkpt lat="42.8048470" lon="-3.3863500">
        <ele>538.3</ele>
        <time>2018-10-21T08:06:39Z</time>
      </trkpt>
      <trkpt lat="42.8048900" lon="-3.3862850">
        <ele>538.3</ele>
        <time>2018-10-21T08:06:40Z</time>
      </trkpt>
      <trkpt lat="42.8049330" lon="-3.3862220">
        <ele>538.3</ele>
        <time>2018-10-21T08:06:41Z</time>
      </trkpt>
      <trkpt lat="42.8049780" lon="-3.3861570">
        <ele>538.3</ele>
        <time>2018-10-21T08:06:42Z</time>
      </trkpt>
      <trkpt lat="42.8050220" lon="-3.3860900">
        <ele>538.3</ele>
        <time>2018-10-21T08:06:43Z</time>
      </trkpt>
      <trkpt lat="42.8050650" lon="-3.3860230">
        <ele>538.3</ele>
        <time>2018-10-21T08:06:44Z</time>
      </trkpt>
      <trkpt lat="42.8051100" lon="-3.3859570">
        <ele>538.3</ele>
        <time>2018-10-21T08:06:45Z</time>
      </trkpt>
      <trkpt lat="42.8051550" lon="-3.3858930">
        <ele>538.3</ele>
        <time>2018-10-21T08:06:46Z</time>
      </trkpt>
      <trkpt lat="42.8052000" lon="-3.3858280">
        <ele>538.3</ele>
        <time>2018-10-21T08:06:47Z</time>
      </trkpt>
      <trkpt lat="42.8052430" lon="-3.3857630">
        <ele>538.3</ele>
        <time>2018-10-21T08:06:48Z</time>
      </trkpt>
      <trkpt lat="42.8052900" lon="-3.3856970">
        <ele>538.3</ele>
        <time>2018-10-21T08:06:49Z</time>
      </trkpt>
      <trkpt lat="42.8053330" lon="-3.3856300">
        <ele>538.3</ele>
        <time>2018-10-21T08:06:50Z</time>
      </trkpt>
      <trkpt lat="42.8053780" lon="-3.3855630">
        <ele>538.3</ele>
        <time>2018-10-21T08:06:51Z</time>
      </trkpt>
      <trkpt lat="42.8054230" lon="-3.3854970">
        <ele>538.3</ele>
        <time>2018-10-21T08:06:52Z</time>
      </trkpt>
      <trkpt lat="42.8054680" lon="-3.3854300">
        <ele>538.3</ele>
        <time>2018-10-21T08:06:53Z</time>
      </trkpt>
      <trkpt lat="42.8055130" lon="-3.3853630">
        <ele>538.3</ele>
        <time>2018-10-21T08:06:54Z</time>
      </trkpt>
      <trkpt lat="42.8055580" lon="-3.3852970">
        <ele>538.3</ele>
        <time>2018-10-21T08:06:55Z</time>
      </trkpt>
      <trkpt lat="42.8056020" lon="-3.3852280">
        <ele>538.3</ele>
        <time>2018-10-21T08:06:56Z</time>
      </trkpt>
      <trkpt lat="42.8056470" lon="-3.3851620">
        <ele>538.3</ele>
        <time>2018-10-21T08:06:57Z</time>
      </trkpt>
      <trkpt lat="42.8056900" lon="-3.3850950">
        <ele>538.3</ele>
        <time>2018-10-21T08:06:58Z</time>
      </trkpt>
      <trkpt lat="42.8057330" lon="-3.3850350">
        <ele>538.3</ele>
        <time>2018-10-21T08:06:59Z</time>
      </trkpt>
      <trkpt lat="42.8057800" lon="-3.3849720">
        <ele>539.2</ele>
        <time>2018-10-21T08:07:00Z</time>
      </trkpt>
      <trkpt lat="42.8058250" lon="-3.3849080">
        <ele>539.2</ele>
        <time>2018-10-21T08:07:01Z</time>
      </trkpt>
      <trkpt lat="42.8058680" lon="-3.3848430">
        <ele>539.2</ele>
        <time>2018-10-21T08:07:02Z</time>
      </trkpt>
      <trkpt lat="42.8059170" lon="-3.3847770">
        <ele>539.2</ele>
        <time>2018-10-21T08:07:03Z</time>
      </trkpt>
      <trkpt lat="42.8059620" lon="-3.3847100">
        <ele>539.2</ele>
        <time>2018-10-21T08:07:04Z</time>
      </trkpt>
      <trkpt lat="42.8060080" lon="-3.3846430">
        <ele>539.2</ele>
        <time>2018-10-21T08:07:05Z</time>
      </trkpt>
      <trkpt lat="42.8060530" lon="-3.3845750">
        <ele>539.2</ele>
        <time>2018-10-21T08:07:06Z</time>
      </trkpt>
      <trkpt lat="42.8060980" lon="-3.3845080">
        <ele>539.2</ele>
        <time>2018-10-21T08:07:07Z</time>
      </trkpt>
      <trkpt lat="42.8061450" lon="-3.3844430">
        <ele>539.2</ele>
        <time>2018-10-21T08:07:08Z</time>
      </trkpt>
      <trkpt lat="42.8061900" lon="-3.3843770">
        <ele>539.2</ele>
        <time>2018-10-21T08:07:09Z</time>
      </trkpt>
      <trkpt lat="42.8062350" lon="-3.3843080">
        <ele>539.2</ele>
        <time>2018-10-21T08:07:10Z</time>
      </trkpt>
      <trkpt lat="42.8062800" lon="-3.3842420">
        <ele>539.2</ele>
        <time>2018-10-21T08:07:11Z</time>
      </trkpt>
      <trkpt lat="42.8063250" lon="-3.3841730">
        <ele>539.2</ele>
        <time>2018-10-21T08:07:12Z</time>
      </trkpt>
      <trkpt lat="42.8063720" lon="-3.3841080">
        <ele>539.2</ele>
        <time>2018-10-21T08:07:13Z</time>
      </trkpt>
      <trkpt lat="42.8064150" lon="-3.3840400">
        <ele>539.2</ele>
        <time>2018-10-21T08:07:14Z</time>
      </trkpt>
      <trkpt lat="42.8064600" lon="-3.3839750">
        <ele>539.2</ele>
        <time>2018-10-21T08:07:15Z</time>
      </trkpt>
      <trkpt lat="42.8065050" lon="-3.3839100">
        <ele>539.2</ele>
        <time>2018-10-21T08:07:16Z</time>
      </trkpt>
      <trkpt lat="42.8065520" lon="-3.3838430">
        <ele>539.2</ele>
        <time>2018-10-21T08:07:17Z</time>
      </trkpt>
      <trkpt lat="42.8065970" lon="-3.3837770">
        <ele>539.2</ele>
        <time>2018-10-21T08:07:18Z</time>
      </trkpt>
      <trkpt lat="42.8066430" lon="-3.3837080">
        <ele>539.2</ele>
        <time>2018-10-21T08:07:19Z</time>
      </trkpt>
      <trkpt lat="42.8066880" lon="-3.3836420">
        <ele>539.2</ele>
        <time>2018-10-21T08:07:20Z</time>
      </trkpt>
      <trkpt lat="42.8067350" lon="-3.3835730">
        <ele>539.2</ele>
        <time>2018-10-21T08:07:21Z</time>
      </trkpt>
      <trkpt lat="42.8067800" lon="-3.3835050">
        <ele>538.3</ele>
        <time>2018-10-21T08:07:22Z</time>
      </trkpt>
      <trkpt lat="42.8068270" lon="-3.3834370">
        <ele>538.3</ele>
        <time>2018-10-21T08:07:23Z</time>
      </trkpt>
      <trkpt lat="42.8068750" lon="-3.3833680">
        <ele>538.3</ele>
        <time>2018-10-21T08:07:24Z</time>
      </trkpt>
      <trkpt lat="42.8069200" lon="-3.3833000">
        <ele>538.3</ele>
        <time>2018-10-21T08:07:25Z</time>
      </trkpt>
      <trkpt lat="42.8069670" lon="-3.3832320">
        <ele>538.3</ele>
        <time>2018-10-21T08:07:26Z</time>
      </trkpt>
      <trkpt lat="42.8070080" lon="-3.3831630">
        <ele>538.3</ele>
        <time>2018-10-21T08:07:27Z</time>
      </trkpt>
      <trkpt lat="42.8070530" lon="-3.3830980">
        <ele>538.3</ele>
        <time>2018-10-21T08:07:28Z</time>
      </trkpt>
      <trkpt lat="42.8071000" lon="-3.3830320">
        <ele>538.3</ele>
        <time>2018-10-21T08:07:29Z</time>
      </trkpt>
      <trkpt lat="42.8071470" lon="-3.3829650">
        <ele>538.3</ele>
        <time>2018-10-21T08:07:30Z</time>
      </trkpt>
      <trkpt lat="42.8071930" lon="-3.3828980">
        <ele>538.3</ele>
        <time>2018-10-21T08:07:31Z</time>
      </trkpt>
      <trkpt lat="42.8072400" lon="-3.3828320">
        <ele>538.3</ele>
        <time>2018-10-21T08:07:32Z</time>
      </trkpt>
      <trkpt lat="42.8072880" lon="-3.3827650">
        <ele>538.3</ele>
        <time>2018-10-21T08:07:33Z</time>
      </trkpt>
      <trkpt lat="42.8073330" lon="-3.3826970">
        <ele>538.3</ele>
        <time>2018-10-21T08:07:34Z</time>
      </trkpt>
      <trkpt lat="42.8073800" lon="-3.3826280">
        <ele>538.3</ele>
        <time>2018-10-21T08:07:35Z</time>
      </trkpt>
      <trkpt lat="42.8074270" lon="-3.3825620">
        <ele>538.3</ele>
        <time>2018-10-21T08:07:36Z</time>
      </trkpt>
      <trkpt lat="42.8074720" lon="-3.3824930">
        <ele>538.3</ele>
        <time>2018-10-21T08:07:37Z</time>
      </trkpt>
      <trkpt lat="42.8075180" lon="-3.3824270">
        <ele>538.3</ele>
        <time>2018-10-21T08:07:38Z</time>
      </trkpt>
      <trkpt lat="42.8075630" lon="-3.3823600">
        <ele>538.3</ele>
        <time>2018-10-21T08:07:39Z</time>
      </trkpt>
      <trkpt lat="42.8076100" lon="-3.3822920">
        <ele>538.3</ele>
        <time>2018-10-21T08:07:40Z</time>
      </trkpt>
      <trkpt lat="42.8076570" lon="-3.3822230">
        <ele>538.3</ele>
        <time>2018-10-21T08:07:41Z</time>
      </trkpt>
      <trkpt lat="42.8077030" lon="-3.3821550">
        <ele>538.3</ele>
        <time>2018-10-21T08:07:42Z</time>
      </trkpt>
      <trkpt lat="42.8077520" lon="-3.3820870">
        <ele>538.3</ele>
        <time>2018-10-21T08:07:43Z</time>
      </trkpt>
      <trkpt lat="42.8077980" lon="-3.3820180">
        <ele>538.3</ele>
        <time>2018-10-21T08:07:44Z</time>
      </trkpt>
      <trkpt lat="42.8078450" lon="-3.3819500">
        <ele>538.3</ele>
        <time>2018-10-21T08:07:45Z</time>
      </trkpt>
      <trkpt lat="42.8078930" lon="-3.3818830">
        <ele>538.3</ele>
        <time>2018-10-21T08:07:46Z</time>
      </trkpt>
      <trkpt lat="42.8079400" lon="-3.3818130">
        <ele>538.3</ele>
        <time>2018-10-21T08:07:47Z</time>
      </trkpt>
      <trkpt lat="42.8079870" lon="-3.3817430">
        <ele>538.3</ele>
        <time>2018-10-21T08:07:48Z</time>
      </trkpt>
      <trkpt lat="42.8080350" lon="-3.3816750">
        <ele>538.3</ele>
        <time>2018-10-21T08:07:49Z</time>
      </trkpt>
      <trkpt lat="42.8080820" lon="-3.3816050">
        <ele>538.3</ele>
        <time>2018-10-21T08:07:50Z</time>
      </trkpt>
      <trkpt lat="42.8081300" lon="-3.3815370">
        <ele>538.3</ele>
        <time>2018-10-21T08:07:51Z</time>
      </trkpt>
      <trkpt lat="42.8081770" lon="-3.3814680">
        <ele>538.3</ele>
        <time>2018-10-21T08:07:52Z</time>
      </trkpt>
      <trkpt lat="42.8082230" lon="-3.3814000">
        <ele>538.3</ele>
        <time>2018-10-21T08:07:53Z</time>
      </trkpt>
      <trkpt lat="42.8082700" lon="-3.3813320">
        <ele>538.3</ele>
        <time>2018-10-21T08:07:54Z</time>
      </trkpt>
      <trkpt lat="42.8083170" lon="-3.3812650">
        <ele>538.3</ele>
        <time>2018-10-21T08:07:55Z</time>
      </trkpt>
      <trkpt lat="42.8083630" lon="-3.3811980">
        <ele>538.3</ele>
        <time>2018-10-21T08:07:56Z</time>
      </trkpt>
      <trkpt lat="42.8084100" lon="-3.3811300">
        <ele>538.3</ele>
        <time>2018-10-21T08:07:57Z</time>
      </trkpt>
      <trkpt lat="42.8084580" lon="-3.3810620">
        <ele>538.3</ele>
        <time>2018-10-21T08:07:58Z</time>
      </trkpt>
      <trkpt lat="42.8085050" lon="-3.3809930">
        <ele>538.3</ele>
        <time>2018-10-21T08:07:59Z</time>
      </trkpt>
      <trkpt lat="42.8085520" lon="-3.3809230">
        <ele>538.3</ele>
        <time>2018-10-21T08:08:00Z</time>
      </trkpt>
      <trkpt lat="42.8085980" lon="-3.3808550">
        <ele>538.3</ele>
        <time>2018-10-21T08:08:01Z</time>
      </trkpt>
      <trkpt lat="42.8086450" lon="-3.3807870">
        <ele>538.3</ele>
        <time>2018-10-21T08:08:02Z</time>
      </trkpt>
      <trkpt lat="42.8086920" lon="-3.3807180">
        <ele>538.3</ele>
        <time>2018-10-21T08:08:03Z</time>
      </trkpt>
      <trkpt lat="42.8087380" lon="-3.3806520">
        <ele>538.3</ele>
        <time>2018-10-21T08:08:04Z</time>
      </trkpt>
      <trkpt lat="42.8087830" lon="-3.3805830">
        <ele>538.3</ele>
        <time>2018-10-21T08:08:05Z</time>
      </trkpt>
      <trkpt lat="42.8088280" lon="-3.3805150">
        <ele>538.3</ele>
        <time>2018-10-21T08:08:06Z</time>
      </trkpt>
      <trkpt lat="42.8088730" lon="-3.3804480">
        <ele>538.3</ele>
        <time>2018-10-21T08:08:07Z</time>
      </trkpt>
      <trkpt lat="42.8089180" lon="-3.3803820">
        <ele>538.3</ele>
        <time>2018-10-21T08:08:08Z</time>
      </trkpt>
      <trkpt lat="42.8089650" lon="-3.3803150">
        <ele>538.3</ele>
        <time>2018-10-21T08:08:09Z</time>
      </trkpt>
      <trkpt lat="42.8090120" lon="-3.3802480">
        <ele>538.3</ele>
        <time>2018-10-21T08:08:10Z</time>
      </trkpt>
      <trkpt lat="42.8090570" lon="-3.3801800">
        <ele>538.3</ele>
        <time>2018-10-21T08:08:11Z</time>
      </trkpt>
      <trkpt lat="42.8091020" lon="-3.3801130">
        <ele>539.2</ele>
        <time>2018-10-21T08:08:12Z</time>
      </trkpt>
      <trkpt lat="42.8091480" lon="-3.3800450">
        <ele>539.2</ele>
        <time>2018-10-21T08:08:13Z</time>
      </trkpt>
      <trkpt lat="42.8091930" lon="-3.3799770">
        <ele>539.2</ele>
        <time>2018-10-21T08:08:14Z</time>
      </trkpt>
      <trkpt lat="42.8092400" lon="-3.3799080">
        <ele>539.2</ele>
        <time>2018-10-21T08:08:15Z</time>
      </trkpt>
      <trkpt lat="42.8092880" lon="-3.3798420">
        <ele>539.2</ele>
        <time>2018-10-21T08:08:16Z</time>
      </trkpt>
      <trkpt lat="42.8093330" lon="-3.3797730">
        <ele>539.2</ele>
        <time>2018-10-21T08:08:17Z</time>
      </trkpt>
      <trkpt lat="42.8093800" lon="-3.3797050">
        <ele>539.2</ele>
        <time>2018-10-21T08:08:18Z</time>
      </trkpt>
      <trkpt lat="42.8094270" lon="-3.3796370">
        <ele>539.2</ele>
        <time>2018-10-21T08:08:19Z</time>
      </trkpt>
      <trkpt lat="42.8094720" lon="-3.3795680">
        <ele>539.2</ele>
        <time>2018-10-21T08:08:20Z</time>
      </trkpt>
      <trkpt lat="42.8095180" lon="-3.3795000">
        <ele>539.2</ele>
        <time>2018-10-21T08:08:21Z</time>
      </trkpt>
      <trkpt lat="42.8095650" lon="-3.3794320">
        <ele>539.2</ele>
        <time>2018-10-21T08:08:22Z</time>
      </trkpt>
      <trkpt lat="42.8096100" lon="-3.3793620">
        <ele>539.2</ele>
        <time>2018-10-21T08:08:23Z</time>
      </trkpt>
      <trkpt lat="42.8096570" lon="-3.3792950">
        <ele>539.2</ele>
        <time>2018-10-21T08:08:24Z</time>
      </trkpt>
      <trkpt lat="42.8097030" lon="-3.3792270">
        <ele>539.2</ele>
        <time>2018-10-21T08:08:25Z</time>
      </trkpt>
      <trkpt lat="42.8097500" lon="-3.3791580">
        <ele>539.2</ele>
        <time>2018-10-21T08:08:26Z</time>
      </trkpt>
      <trkpt lat="42.8097950" lon="-3.3790920">
        <ele>539.2</ele>
        <time>2018-10-21T08:08:27Z</time>
      </trkpt>
      <trkpt lat="42.8098420" lon="-3.3790230">
        <ele>539.2</ele>
        <time>2018-10-21T08:08:28Z</time>
      </trkpt>
      <trkpt lat="42.8098880" lon="-3.3789550">
        <ele>539.2</ele>
        <time>2018-10-21T08:08:29Z</time>
      </trkpt>
      <trkpt lat="42.8099350" lon="-3.3788870">
        <ele>539.2</ele>
        <time>2018-10-21T08:08:30Z</time>
      </trkpt>
      <trkpt lat="42.8099800" lon="-3.3788180">
        <ele>539.2</ele>
        <time>2018-10-21T08:08:31Z</time>
      </trkpt>
      <trkpt lat="42.8100270" lon="-3.3787500">
        <ele>539.2</ele>
        <time>2018-10-21T08:08:32Z</time>
      </trkpt>
      <trkpt lat="42.8100730" lon="-3.3786830">
        <ele>539.2</ele>
        <time>2018-10-21T08:08:33Z</time>
      </trkpt>
      <trkpt lat="42.8101200" lon="-3.3786170">
        <ele>539.2</ele>
        <time>2018-10-21T08:08:34Z</time>
      </trkpt>
      <trkpt lat="42.8101650" lon="-3.3785480">
        <ele>539.2</ele>
        <time>2018-10-21T08:08:35Z</time>
      </trkpt>
      <trkpt lat="42.8102120" lon="-3.3784800">
        <ele>539.2</ele>
        <time>2018-10-21T08:08:36Z</time>
      </trkpt>
      <trkpt lat="42.8102580" lon="-3.3784130">
        <ele>539.2</ele>
        <time>2018-10-21T08:08:37Z</time>
      </trkpt>
      <trkpt lat="42.8103050" lon="-3.3783430">
        <ele>539.2</ele>
        <time>2018-10-21T08:08:38Z</time>
      </trkpt>
      <trkpt lat="42.8103520" lon="-3.3782750">
        <ele>539.2</ele>
        <time>2018-10-21T08:08:39Z</time>
      </trkpt>
      <trkpt lat="42.8103980" lon="-3.3782070">
        <ele>539.2</ele>
        <time>2018-10-21T08:08:40Z</time>
      </trkpt>
      <trkpt lat="42.8104450" lon="-3.3781370">
        <ele>539.2</ele>
        <time>2018-10-21T08:08:41Z</time>
      </trkpt>
      <trkpt lat="42.8104920" lon="-3.3780680">
        <ele>539.2</ele>
        <time>2018-10-21T08:08:42Z</time>
      </trkpt>
      <trkpt lat="42.8105370" lon="-3.3780000">
        <ele>539.2</ele>
        <time>2018-10-21T08:08:43Z</time>
      </trkpt>
      <trkpt lat="42.8105850" lon="-3.3779330">
        <ele>539.2</ele>
        <time>2018-10-21T08:08:44Z</time>
      </trkpt>
      <trkpt lat="42.8106330" lon="-3.3778680">
        <ele>539.2</ele>
        <time>2018-10-21T08:08:45Z</time>
      </trkpt>
      <trkpt lat="42.8106820" lon="-3.3778020">
        <ele>539.2</ele>
        <time>2018-10-21T08:08:46Z</time>
      </trkpt>
      <trkpt lat="42.8107280" lon="-3.3777370">
        <ele>539.2</ele>
        <time>2018-10-21T08:08:47Z</time>
      </trkpt>
      <trkpt lat="42.8107750" lon="-3.3776720">
        <ele>539.2</ele>
        <time>2018-10-21T08:08:48Z</time>
      </trkpt>
      <trkpt lat="42.8108200" lon="-3.3776050">
        <ele>539.2</ele>
        <time>2018-10-21T08:08:49Z</time>
      </trkpt>
      <trkpt lat="42.8108670" lon="-3.3775370">
        <ele>539.2</ele>
        <time>2018-10-21T08:08:50Z</time>
      </trkpt>
      <trkpt lat="42.8109130" lon="-3.3774700">
        <ele>539.2</ele>
        <time>2018-10-21T08:08:51Z</time>
      </trkpt>
      <trkpt lat="42.8109600" lon="-3.3774020">
        <ele>539.2</ele>
        <time>2018-10-21T08:08:52Z</time>
      </trkpt>
      <trkpt lat="42.8110070" lon="-3.3773330">
        <ele>539.2</ele>
        <time>2018-10-21T08:08:53Z</time>
      </trkpt>
      <trkpt lat="42.8110520" lon="-3.3772670">
        <ele>539.2</ele>
        <time>2018-10-21T08:08:54Z</time>
      </trkpt>
      <trkpt lat="42.8110980" lon="-3.3772000">
        <ele>539.2</ele>
        <time>2018-10-21T08:08:55Z</time>
      </trkpt>
      <trkpt lat="42.8111450" lon="-3.3771350">
        <ele>539.2</ele>
        <time>2018-10-21T08:08:56Z</time>
      </trkpt>
      <trkpt lat="42.8111880" lon="-3.3770680">
        <ele>539.2</ele>
        <time>2018-10-21T08:08:57Z</time>
      </trkpt>
      <trkpt lat="42.8112320" lon="-3.3769980">
        <ele>539.2</ele>
        <time>2018-10-21T08:08:58Z</time>
      </trkpt>
      <trkpt lat="42.8112750" lon="-3.3769300">
        <ele>539.2</ele>
        <time>2018-10-21T08:08:59Z</time>
      </trkpt>
      <trkpt lat="42.8113200" lon="-3.3768630">
        <ele>539.2</ele>
        <time>2018-10-21T08:09:00Z</time>
      </trkpt>
      <trkpt lat="42.8113670" lon="-3.3767970">
        <ele>539.2</ele>
        <time>2018-10-21T08:09:01Z</time>
      </trkpt>
      <trkpt lat="42.8114130" lon="-3.3767280">
        <ele>539.2</ele>
        <time>2018-10-21T08:09:02Z</time>
      </trkpt>
      <trkpt lat="42.8114600" lon="-3.3766620">
        <ele>539.2</ele>
        <time>2018-10-21T08:09:03Z</time>
      </trkpt>
      <trkpt lat="42.8115050" lon="-3.3765970">
        <ele>539.2</ele>
        <time>2018-10-21T08:09:04Z</time>
      </trkpt>
      <trkpt lat="42.8115500" lon="-3.3765280">
        <ele>539.2</ele>
        <time>2018-10-21T08:09:05Z</time>
      </trkpt>
      <trkpt lat="42.8115970" lon="-3.3764630">
        <ele>539.2</ele>
        <time>2018-10-21T08:09:06Z</time>
      </trkpt>
      <trkpt lat="42.8116420" lon="-3.3763970">
        <ele>539.2</ele>
        <time>2018-10-21T08:09:07Z</time>
      </trkpt>
      <trkpt lat="42.8116870" lon="-3.3763320">
        <ele>539.2</ele>
        <time>2018-10-21T08:09:08Z</time>
      </trkpt>
      <trkpt lat="42.8117320" lon="-3.3762650">
        <ele>539.2</ele>
        <time>2018-10-21T08:09:09Z</time>
      </trkpt>
      <trkpt lat="42.8117770" lon="-3.3761980">
        <ele>539.2</ele>
        <time>2018-10-21T08:09:10Z</time>
      </trkpt>
      <trkpt lat="42.8118220" lon="-3.3761320">
        <ele>539.2</ele>
        <time>2018-10-21T08:09:11Z</time>
      </trkpt>
      <trkpt lat="42.8118670" lon="-3.3760650">
        <ele>539.2</ele>
        <time>2018-10-21T08:09:12Z</time>
      </trkpt>
      <trkpt lat="42.8119120" lon="-3.3760000">
        <ele>539.2</ele>
        <time>2018-10-21T08:09:13Z</time>
      </trkpt>
      <trkpt lat="42.8119580" lon="-3.3759330">
        <ele>539.2</ele>
        <time>2018-10-21T08:09:14Z</time>
      </trkpt>
      <trkpt lat="42.8120030" lon="-3.3758680">
        <ele>539.2</ele>
        <time>2018-10-21T08:09:15Z</time>
      </trkpt>
      <trkpt lat="42.8120480" lon="-3.3758030">
        <ele>540.3</ele>
        <time>2018-10-21T08:09:16Z</time>
      </trkpt>
      <trkpt lat="42.8120930" lon="-3.3757380">
        <ele>540.3</ele>
        <time>2018-10-21T08:09:17Z</time>
      </trkpt>
      <trkpt lat="42.8121380" lon="-3.3756730">
        <ele>540.3</ele>
        <time>2018-10-21T08:09:18Z</time>
      </trkpt>
      <trkpt lat="42.8121820" lon="-3.3756080">
        <ele>540.3</ele>
        <time>2018-10-21T08:09:19Z</time>
      </trkpt>
      <trkpt lat="42.8122250" lon="-3.3755430">
        <ele>540.3</ele>
        <time>2018-10-21T08:09:20Z</time>
      </trkpt>
      <trkpt lat="42.8122670" lon="-3.3754780">
        <ele>540.3</ele>
        <time>2018-10-21T08:09:21Z</time>
      </trkpt>
      <trkpt lat="42.8123100" lon="-3.3754170">
        <ele>540.3</ele>
        <time>2018-10-21T08:09:22Z</time>
      </trkpt>
      <trkpt lat="42.8123530" lon="-3.3753530">
        <ele>540.3</ele>
        <time>2018-10-21T08:09:23Z</time>
      </trkpt>
      <trkpt lat="42.8123950" lon="-3.3752920">
        <ele>540.3</ele>
        <time>2018-10-21T08:09:24Z</time>
      </trkpt>
      <trkpt lat="42.8124380" lon="-3.3752300">
        <ele>540.3</ele>
        <time>2018-10-21T08:09:25Z</time>
      </trkpt>
      <trkpt lat="42.8124800" lon="-3.3751700">
        <ele>540.3</ele>
        <time>2018-10-21T08:09:26Z</time>
      </trkpt>
      <trkpt lat="42.8125220" lon="-3.3751100">
        <ele>540.3</ele>
        <time>2018-10-21T08:09:27Z</time>
      </trkpt>
      <trkpt lat="42.8125630" lon="-3.3750480">
        <ele>541.2</ele>
        <time>2018-10-21T08:09:28Z</time>
      </trkpt>
      <trkpt lat="42.8126050" lon="-3.3749870">
        <ele>541.2</ele>
        <time>2018-10-21T08:09:29Z</time>
      </trkpt>
      <trkpt lat="42.8126480" lon="-3.3749250">
        <ele>541.2</ele>
        <time>2018-10-21T08:09:30Z</time>
      </trkpt>
      <trkpt lat="42.8126900" lon="-3.3748630">
        <ele>541.2</ele>
        <time>2018-10-21T08:09:31Z</time>
      </trkpt>
      <trkpt lat="42.8127320" lon="-3.3748020">
        <ele>542.2</ele>
        <time>2018-10-21T08:09:32Z</time>
      </trkpt>
      <trkpt lat="42.8127730" lon="-3.3747420">
        <ele>542.2</ele>
        <time>2018-10-21T08:09:33Z</time>
      </trkpt>
      <trkpt lat="42.8128150" lon="-3.3746800">
        <ele>542.2</ele>
        <time>2018-10-21T08:09:34Z</time>
      </trkpt>
      <trkpt lat="42.8128570" lon="-3.3746200">
        <ele>542.2</ele>
        <time>2018-10-21T08:09:35Z</time>
      </trkpt>
      <trkpt lat="42.8128980" lon="-3.3745580">
        <ele>542.2</ele>
        <time>2018-10-21T08:09:36Z</time>
      </trkpt>
      <trkpt lat="42.8129420" lon="-3.3745000">
        <ele>542.2</ele>
        <time>2018-10-21T08:09:37Z</time>
      </trkpt>
      <trkpt lat="42.8129830" lon="-3.3744370">
        <ele>542.2</ele>
        <time>2018-10-21T08:09:38Z</time>
      </trkpt>
      <trkpt lat="42.8130270" lon="-3.3743730">
        <ele>542.2</ele>
        <time>2018-10-21T08:09:39Z</time>
      </trkpt>
      <trkpt lat="42.8130680" lon="-3.3743120">
        <ele>543.3</ele>
        <time>2018-10-21T08:09:40Z</time>
      </trkpt>
      <trkpt lat="42.8131120" lon="-3.3742480">
        <ele>543.3</ele>
        <time>2018-10-21T08:09:41Z</time>
      </trkpt>
      <trkpt lat="42.8131520" lon="-3.3741870">
        <ele>543.3</ele>
        <time>2018-10-21T08:09:42Z</time>
      </trkpt>
      <trkpt lat="42.8131930" lon="-3.3741280">
        <ele>543.3</ele>
        <time>2018-10-21T08:09:43Z</time>
      </trkpt>
      <trkpt lat="42.8132350" lon="-3.3740680">
        <ele>543.3</ele>
        <time>2018-10-21T08:09:44Z</time>
      </trkpt>
      <trkpt lat="42.8132770" lon="-3.3740100">
        <ele>543.3</ele>
        <time>2018-10-21T08:09:45Z</time>
      </trkpt>
      <trkpt lat="42.8133170" lon="-3.3739520">
        <ele>544.2</ele>
        <time>2018-10-21T08:09:46Z</time>
      </trkpt>
      <trkpt lat="42.8133570" lon="-3.3738930">
        <ele>544.2</ele>
        <time>2018-10-21T08:09:47Z</time>
      </trkpt>
      <trkpt lat="42.8133950" lon="-3.3738370">
        <ele>544.2</ele>
        <time>2018-10-21T08:09:48Z</time>
      </trkpt>
      <trkpt lat="42.8134350" lon="-3.3737800">
        <ele>544.2</ele>
        <time>2018-10-21T08:09:49Z</time>
      </trkpt>
      <trkpt lat="42.8134730" lon="-3.3737250">
        <ele>544.2</ele>
        <time>2018-10-21T08:09:50Z</time>
      </trkpt>
      <trkpt lat="42.8135120" lon="-3.3736700">
        <ele>544.2</ele>
        <time>2018-10-21T08:09:51Z</time>
      </trkpt>
      <trkpt lat="42.8135500" lon="-3.3736150">
        <ele>544.2</ele>
        <time>2018-10-21T08:09:52Z</time>
      </trkpt>
      <trkpt lat="42.8135880" lon="-3.3735600">
        <ele>544.2</ele>
        <time>2018-10-21T08:09:53Z</time>
      </trkpt>
      <trkpt lat="42.8136250" lon="-3.3735030">
        <ele>544.2</ele>
        <time>2018-10-21T08:09:54Z</time>
      </trkpt>
      <trkpt lat="42.8136630" lon="-3.3734500">
        <ele>544.2</ele>
        <time>2018-10-21T08:09:55Z</time>
      </trkpt>
      <trkpt lat="42.8137000" lon="-3.3733950">
        <ele>544.2</ele>
        <time>2018-10-21T08:09:56Z</time>
      </trkpt>
      <trkpt lat="42.8137370" lon="-3.3733420">
        <ele>544.2</ele>
        <time>2018-10-21T08:09:57Z</time>
      </trkpt>
      <trkpt lat="42.8137750" lon="-3.3732880">
        <ele>544.2</ele>
        <time>2018-10-21T08:09:58Z</time>
      </trkpt>
      <trkpt lat="42.8138130" lon="-3.3732370">
        <ele>544.2</ele>
        <time>2018-10-21T08:09:59Z</time>
      </trkpt>
      <trkpt lat="42.8138500" lon="-3.3731820">
        <ele>546.2</ele>
        <time>2018-10-21T08:10:00Z</time>
      </trkpt>
      <trkpt lat="42.8138880" lon="-3.3731270">
        <ele>546.2</ele>
        <time>2018-10-21T08:10:01Z</time>
      </trkpt>
      <trkpt lat="42.8139250" lon="-3.3730730">
        <ele>547.3</ele>
        <time>2018-10-21T08:10:02Z</time>
      </trkpt>
      <trkpt lat="42.8139630" lon="-3.3730180">
        <ele>547.3</ele>
        <time>2018-10-21T08:10:03Z</time>
      </trkpt>
      <trkpt lat="42.8140000" lon="-3.3729650">
        <ele>547.3</ele>
        <time>2018-10-21T08:10:04Z</time>
      </trkpt>
      <trkpt lat="42.8140370" lon="-3.3729120">
        <ele>547.3</ele>
        <time>2018-10-21T08:10:05Z</time>
      </trkpt>
      <trkpt lat="42.8140750" lon="-3.3728580">
        <ele>547.3</ele>
        <time>2018-10-21T08:10:06Z</time>
      </trkpt>
      <trkpt lat="42.8141120" lon="-3.3728070">
        <ele>547.3</ele>
        <time>2018-10-21T08:10:07Z</time>
      </trkpt>
      <trkpt lat="42.8141480" lon="-3.3727520">
        <ele>548.2</ele>
        <time>2018-10-21T08:10:08Z</time>
      </trkpt>
      <trkpt lat="42.8141850" lon="-3.3726970">
        <ele>548.2</ele>
        <time>2018-10-21T08:10:09Z</time>
      </trkpt>
      <trkpt lat="42.8142230" lon="-3.3726420">
        <ele>548.2</ele>
        <time>2018-10-21T08:10:10Z</time>
      </trkpt>
      <trkpt lat="42.8142620" lon="-3.3725870">
        <ele>548.2</ele>
        <time>2018-10-21T08:10:11Z</time>
      </trkpt>
      <trkpt lat="42.8143000" lon="-3.3725300">
        <ele>548.2</ele>
        <time>2018-10-21T08:10:12Z</time>
      </trkpt>
      <trkpt lat="42.8143400" lon="-3.3724730">
        <ele>548.2</ele>
        <time>2018-10-21T08:10:13Z</time>
      </trkpt>
      <trkpt lat="42.8143800" lon="-3.3724150">
        <ele>548.2</ele>
        <time>2018-10-21T08:10:14Z</time>
      </trkpt>
      <trkpt lat="42.8144200" lon="-3.3723550">
        <ele>548.2</ele>
        <time>2018-10-21T08:10:15Z</time>
      </trkpt>
      <trkpt lat="42.8144620" lon="-3.3722950">
        <ele>548.2</ele>
        <time>2018-10-21T08:10:16Z</time>
      </trkpt>
      <trkpt lat="42.8145020" lon="-3.3722370">
        <ele>548.2</ele>
        <time>2018-10-21T08:10:17Z</time>
      </trkpt>
      <trkpt lat="42.8145430" lon="-3.3721770">
        <ele>549.3</ele>
        <time>2018-10-21T08:10:18Z</time>
      </trkpt>
      <trkpt lat="42.8145850" lon="-3.3721170">
        <ele>549.3</ele>
        <time>2018-10-21T08:10:19Z</time>
      </trkpt>
      <trkpt lat="42.8146270" lon="-3.3720570">
        <ele>549.3</ele>
        <time>2018-10-21T08:10:20Z</time>
      </trkpt>
      <trkpt lat="42.8146680" lon="-3.3719970">
        <ele>549.3</ele>
        <time>2018-10-21T08:10:21Z</time>
      </trkpt>
      <trkpt lat="42.8147120" lon="-3.3719350">
        <ele>549.3</ele>
        <time>2018-10-21T08:10:22Z</time>
      </trkpt>
      <trkpt lat="42.8147530" lon="-3.3718720">
        <ele>549.3</ele>
        <time>2018-10-21T08:10:23Z</time>
      </trkpt>
      <trkpt lat="42.8147970" lon="-3.3718100">
        <ele>549.3</ele>
        <time>2018-10-21T08:10:24Z</time>
      </trkpt>
      <trkpt lat="42.8148400" lon="-3.3717450">
        <ele>549.3</ele>
        <time>2018-10-21T08:10:25Z</time>
      </trkpt>
      <trkpt lat="42.8148830" lon="-3.3716820">
        <ele>549.3</ele>
        <time>2018-10-21T08:10:26Z</time>
      </trkpt>
      <trkpt lat="42.8149270" lon="-3.3716180">
        <ele>549.3</ele>
        <time>2018-10-21T08:10:27Z</time>
      </trkpt>
      <trkpt lat="42.8149700" lon="-3.3715550">
        <ele>549.3</ele>
        <time>2018-10-21T08:10:28Z</time>
      </trkpt>
      <trkpt lat="42.8150130" lon="-3.3714920">
        <ele>549.3</ele>
        <time>2018-10-21T08:10:29Z</time>
      </trkpt>
      <trkpt lat="42.8150580" lon="-3.3714280">
        <ele>549.3</ele>
        <time>2018-10-21T08:10:30Z</time>
      </trkpt>
      <trkpt lat="42.8151030" lon="-3.3713630">
        <ele>549.3</ele>
        <time>2018-10-21T08:10:31Z</time>
      </trkpt>
      <trkpt lat="42.8151480" lon="-3.3712980">
        <ele>549.3</ele>
        <time>2018-10-21T08:10:32Z</time>
      </trkpt>
      <trkpt lat="42.8151950" lon="-3.3712320">
        <ele>549.3</ele>
        <time>2018-10-21T08:10:33Z</time>
      </trkpt>
      <trkpt lat="42.8152420" lon="-3.3711630">
        <ele>549.3</ele>
        <time>2018-10-21T08:10:34Z</time>
      </trkpt>
      <trkpt lat="42.8152880" lon="-3.3710970">
        <ele>549.3</ele>
        <time>2018-10-21T08:10:35Z</time>
      </trkpt>
      <trkpt lat="42.8153370" lon="-3.3710270">
        <ele>549.3</ele>
        <time>2018-10-21T08:10:36Z</time>
      </trkpt>
      <trkpt lat="42.8153850" lon="-3.3709580">
        <ele>549.3</ele>
        <time>2018-10-21T08:10:37Z</time>
      </trkpt>
      <trkpt lat="42.8154330" lon="-3.3708870">
        <ele>549.3</ele>
        <time>2018-10-21T08:10:38Z</time>
      </trkpt>
      <trkpt lat="42.8154830" lon="-3.3708150">
        <ele>549.3</ele>
        <time>2018-10-21T08:10:39Z</time>
      </trkpt>
      <trkpt lat="42.8155330" lon="-3.3707430">
        <ele>549.3</ele>
        <time>2018-10-21T08:10:40Z</time>
      </trkpt>
      <trkpt lat="42.8155830" lon="-3.3706700">
        <ele>549.3</ele>
        <time>2018-10-21T08:10:41Z</time>
      </trkpt>
      <trkpt lat="42.8156350" lon="-3.3705970">
        <ele>549.3</ele>
        <time>2018-10-21T08:10:42Z</time>
      </trkpt>
      <trkpt lat="42.8156870" lon="-3.3705220">
        <ele>549.3</ele>
        <time>2018-10-21T08:10:43Z</time>
      </trkpt>
      <trkpt lat="42.8157380" lon="-3.3704470">
        <ele>549.3</ele>
        <time>2018-10-21T08:10:44Z</time>
      </trkpt>
      <trkpt lat="42.8157920" lon="-3.3703720">
        <ele>549.3</ele>
        <time>2018-10-21T08:10:45Z</time>
      </trkpt>
      <trkpt lat="42.8158430" lon="-3.3702950">
        <ele>548.2</ele>
        <time>2018-10-21T08:10:46Z</time>
      </trkpt>
      <trkpt lat="42.8158970" lon="-3.3702180">
        <ele>548.2</ele>
        <time>2018-10-21T08:10:47Z</time>
      </trkpt>
      <trkpt lat="42.8159500" lon="-3.3701420">
        <ele>548.2</ele>
        <time>2018-10-21T08:10:48Z</time>
      </trkpt>
      <trkpt lat="42.8160030" lon="-3.3700630">
        <ele>548.2</ele>
        <time>2018-10-21T08:10:49Z</time>
      </trkpt>
      <trkpt lat="42.8160580" lon="-3.3699850">
        <ele>548.2</ele>
        <time>2018-10-21T08:10:50Z</time>
      </trkpt>
      <trkpt lat="42.8161130" lon="-3.3699050">
        <ele>548.2</ele>
        <time>2018-10-21T08:10:51Z</time>
      </trkpt>
      <trkpt lat="42.8161680" lon="-3.3698270">
        <ele>548.2</ele>
        <time>2018-10-21T08:10:52Z</time>
      </trkpt>
      <trkpt lat="42.8162230" lon="-3.3697470">
        <ele>548.2</ele>
        <time>2018-10-21T08:10:53Z</time>
      </trkpt>
      <trkpt lat="42.8162780" lon="-3.3696680">
        <ele>546.2</ele>
        <time>2018-10-21T08:10:54Z</time>
      </trkpt>
      <trkpt lat="42.8163330" lon="-3.3695900">
        <ele>546.2</ele>
        <time>2018-10-21T08:10:55Z</time>
      </trkpt>
      <trkpt lat="42.8163870" lon="-3.3695120">
        <ele>546.2</ele>
        <time>2018-10-21T08:10:56Z</time>
      </trkpt>
      <trkpt lat="42.8164420" lon="-3.3694350">
        <ele>546.2</ele>
        <time>2018-10-21T08:10:57Z</time>
      </trkpt>
      <trkpt lat="42.8164950" lon="-3.3693570">
        <ele>546.2</ele>
        <time>2018-10-21T08:10:58Z</time>
      </trkpt>
      <trkpt lat="42.8165470" lon="-3.3692820">
        <ele>546.2</ele>
        <time>2018-10-21T08:10:59Z</time>
      </trkpt>
      <trkpt lat="42.8166000" lon="-3.3692070">
        <ele>545.3</ele>
        <time>2018-10-21T08:11:00Z</time>
      </trkpt>
      <trkpt lat="42.8166520" lon="-3.3691320">
        <ele>545.3</ele>
        <time>2018-10-21T08:11:01Z</time>
      </trkpt>
      <trkpt lat="42.8167030" lon="-3.3690570">
        <ele>545.3</ele>
        <time>2018-10-21T08:11:02Z</time>
      </trkpt>
      <trkpt lat="42.8167550" lon="-3.3689820">
        <ele>545.3</ele>
        <time>2018-10-21T08:11:03Z</time>
      </trkpt>
      <trkpt lat="42.8168070" lon="-3.3689070">
        <ele>545.3</ele>
        <time>2018-10-21T08:11:04Z</time>
      </trkpt>
      <trkpt lat="42.8168600" lon="-3.3688280">
        <ele>545.3</ele>
        <time>2018-10-21T08:11:05Z</time>
      </trkpt>
      <trkpt lat="42.8169150" lon="-3.3687520">
        <ele>545.3</ele>
        <time>2018-10-21T08:11:06Z</time>
      </trkpt>
      <trkpt lat="42.8169680" lon="-3.3686750">
        <ele>545.3</ele>
        <time>2018-10-21T08:11:07Z</time>
      </trkpt>
      <trkpt lat="42.8170220" lon="-3.3685970">
        <ele>545.3</ele>
        <time>2018-10-21T08:11:08Z</time>
      </trkpt>
      <trkpt lat="42.8170750" lon="-3.3685200">
        <ele>545.3</ele>
        <time>2018-10-21T08:11:09Z</time>
      </trkpt>
      <trkpt lat="42.8171270" lon="-3.3684400">
        <ele>545.3</ele>
        <time>2018-10-21T08:11:10Z</time>
      </trkpt>
      <trkpt lat="42.8171800" lon="-3.3683630">
        <ele>545.3</ele>
        <time>2018-10-21T08:11:11Z</time>
      </trkpt>
      <trkpt lat="42.8172350" lon="-3.3682870">
        <ele>545.3</ele>
        <time>2018-10-21T08:11:12Z</time>
      </trkpt>
      <trkpt lat="42.8172870" lon="-3.3682100">
        <ele>545.3</ele>
        <time>2018-10-21T08:11:13Z</time>
      </trkpt>
      <trkpt lat="42.8173380" lon="-3.3681330">
        <ele>545.3</ele>
        <time>2018-10-21T08:11:14Z</time>
      </trkpt>
      <trkpt lat="42.8173900" lon="-3.3680580">
        <ele>545.3</ele>
        <time>2018-10-21T08:11:15Z</time>
      </trkpt>
      <trkpt lat="42.8174420" lon="-3.3679850">
        <ele>545.3</ele>
        <time>2018-10-21T08:11:16Z</time>
      </trkpt>
      <trkpt lat="42.8174930" lon="-3.3679120">
        <ele>545.3</ele>
        <time>2018-10-21T08:11:17Z</time>
      </trkpt>
      <trkpt lat="42.8175420" lon="-3.3678380">
        <ele>544.2</ele>
        <time>2018-10-21T08:11:18Z</time>
      </trkpt>
      <trkpt lat="42.8175930" lon="-3.3677650">
        <ele>544.2</ele>
        <time>2018-10-21T08:11:19Z</time>
      </trkpt>
      <trkpt lat="42.8176430" lon="-3.3676920">
        <ele>544.2</ele>
        <time>2018-10-21T08:11:20Z</time>
      </trkpt>
      <trkpt lat="42.8176920" lon="-3.3676200">
        <ele>544.2</ele>
        <time>2018-10-21T08:11:21Z</time>
      </trkpt>
      <trkpt lat="42.8177400" lon="-3.3675480">
        <ele>544.2</ele>
        <time>2018-10-21T08:11:22Z</time>
      </trkpt>
      <trkpt lat="42.8177880" lon="-3.3674780">
        <ele>544.2</ele>
        <time>2018-10-21T08:11:23Z</time>
      </trkpt>
      <trkpt lat="42.8178350" lon="-3.3674070">
        <ele>544.2</ele>
        <time>2018-10-21T08:11:24Z</time>
      </trkpt>
      <trkpt lat="42.8178830" lon="-3.3673370">
        <ele>544.2</ele>
        <time>2018-10-21T08:11:25Z</time>
      </trkpt>
      <trkpt lat="42.8179320" lon="-3.3672670">
        <ele>544.2</ele>
        <time>2018-10-21T08:11:26Z</time>
      </trkpt>
      <trkpt lat="42.8179780" lon="-3.3671980">
        <ele>544.2</ele>
        <time>2018-10-21T08:11:27Z</time>
      </trkpt>
      <trkpt lat="42.8180250" lon="-3.3671320">
        <ele>544.2</ele>
        <time>2018-10-21T08:11:28Z</time>
      </trkpt>
      <trkpt lat="42.8180720" lon="-3.3670630">
        <ele>544.2</ele>
        <time>2018-10-21T08:11:29Z</time>
      </trkpt>
      <trkpt lat="42.8181180" lon="-3.3669970">
        <ele>545.3</ele>
        <time>2018-10-21T08:11:30Z</time>
      </trkpt>
      <trkpt lat="42.8181650" lon="-3.3669300">
        <ele>545.3</ele>
        <time>2018-10-21T08:11:31Z</time>
      </trkpt>
      <trkpt lat="42.8182100" lon="-3.3668650">
        <ele>545.3</ele>
        <time>2018-10-21T08:11:32Z</time>
      </trkpt>
      <trkpt lat="42.8182570" lon="-3.3668030">
        <ele>545.3</ele>
        <time>2018-10-21T08:11:33Z</time>
      </trkpt>
      <trkpt lat="42.8183050" lon="-3.3667420">
        <ele>546.2</ele>
        <time>2018-10-21T08:11:34Z</time>
      </trkpt>
      <trkpt lat="42.8183530" lon="-3.3666800">
        <ele>546.2</ele>
        <time>2018-10-21T08:11:35Z</time>
      </trkpt>
      <trkpt lat="42.8184020" lon="-3.3666250">
        <ele>546.2</ele>
        <time>2018-10-21T08:11:36Z</time>
      </trkpt>
      <trkpt lat="42.8184530" lon="-3.3665700">
        <ele>546.2</ele>
        <time>2018-10-21T08:11:37Z</time>
      </trkpt>
      <trkpt lat="42.8185050" lon="-3.3665150">
        <ele>546.2</ele>
        <time>2018-10-21T08:11:38Z</time>
      </trkpt>
      <trkpt lat="42.8185570" lon="-3.3664620">
        <ele>546.2</ele>
        <time>2018-10-21T08:11:39Z</time>
      </trkpt>
      <trkpt lat="42.8186100" lon="-3.3664120">
        <ele>547.3</ele>
        <time>2018-10-21T08:11:40Z</time>
      </trkpt>
      <trkpt lat="42.8186630" lon="-3.3663630">
        <ele>547.3</ele>
        <time>2018-10-21T08:11:41Z</time>
      </trkpt>
      <trkpt lat="42.8187200" lon="-3.3663170">
        <ele>547.3</ele>
        <time>2018-10-21T08:11:42Z</time>
      </trkpt>
      <trkpt lat="42.8187770" lon="-3.3662730">
        <ele>547.3</ele>
        <time>2018-10-21T08:11:43Z</time>
      </trkpt>
      <trkpt lat="42.8188350" lon="-3.3662320">
        <ele>547.3</ele>
        <time>2018-10-21T08:11:44Z</time>
      </trkpt>
      <trkpt lat="42.8188930" lon="-3.3661920">
        <ele>547.3</ele>
        <time>2018-10-21T08:11:45Z</time>
      </trkpt>
      <trkpt lat="42.8189520" lon="-3.3661520">
        <ele>547.3</ele>
        <time>2018-10-21T08:11:46Z</time>
      </trkpt>
      <trkpt lat="42.8190120" lon="-3.3661120">
        <ele>547.3</ele>
        <time>2018-10-21T08:11:47Z</time>
      </trkpt>
      <trkpt lat="42.8190720" lon="-3.3660720">
        <ele>547.3</ele>
        <time>2018-10-21T08:11:48Z</time>
      </trkpt>
      <trkpt lat="42.8191320" lon="-3.3660320">
        <ele>547.3</ele>
        <time>2018-10-21T08:11:49Z</time>
      </trkpt>
      <trkpt lat="42.8191920" lon="-3.3659920">
        <ele>547.3</ele>
        <time>2018-10-21T08:11:50Z</time>
      </trkpt>
      <trkpt lat="42.8192520" lon="-3.3659520">
        <ele>547.3</ele>
        <time>2018-10-21T08:11:51Z</time>
      </trkpt>
      <trkpt lat="42.8193120" lon="-3.3659120">
        <ele>547.3</ele>
        <time>2018-10-21T08:11:52Z</time>
      </trkpt>
      <trkpt lat="42.8193700" lon="-3.3658720">
        <ele>547.3</ele>
        <time>2018-10-21T08:11:53Z</time>
      </trkpt>
      <trkpt lat="42.8194280" lon="-3.3658320">
        <ele>547.3</ele>
        <time>2018-10-21T08:11:54Z</time>
      </trkpt>
      <trkpt lat="42.8194870" lon="-3.3657900">
        <ele>547.3</ele>
        <time>2018-10-21T08:11:55Z</time>
      </trkpt>
      <trkpt lat="42.8195450" lon="-3.3657500">
        <ele>547.3</ele>
        <time>2018-10-21T08:11:56Z</time>
      </trkpt>
      <trkpt lat="42.8196050" lon="-3.3657100">
        <ele>547.3</ele>
        <time>2018-10-21T08:11:57Z</time>
      </trkpt>
      <trkpt lat="42.8196630" lon="-3.3656720">
        <ele>547.3</ele>
        <time>2018-10-21T08:11:58Z</time>
      </trkpt>
      <trkpt lat="42.8197220" lon="-3.3656320">
        <ele>547.3</ele>
        <time>2018-10-21T08:11:59Z</time>
      </trkpt>
      <trkpt lat="42.8197800" lon="-3.3655920">
        <ele>547.3</ele>
        <time>2018-10-21T08:12:00Z</time>
      </trkpt>
      <trkpt lat="42.8198380" lon="-3.3655520">
        <ele>547.3</ele>
        <time>2018-10-21T08:12:01Z</time>
      </trkpt>
      <trkpt lat="42.8198950" lon="-3.3655130">
        <ele>547.3</ele>
        <time>2018-10-21T08:12:02Z</time>
      </trkpt>
      <trkpt lat="42.8199530" lon="-3.3654770">
        <ele>547.3</ele>
        <time>2018-10-21T08:12:03Z</time>
      </trkpt>
      <trkpt lat="42.8200100" lon="-3.3654380">
        <ele>548.2</ele>
        <time>2018-10-21T08:12:04Z</time>
      </trkpt>
      <trkpt lat="42.8200670" lon="-3.3654020">
        <ele>548.2</ele>
        <time>2018-10-21T08:12:05Z</time>
      </trkpt>
      <trkpt lat="42.8201230" lon="-3.3653630">
        <ele>548.2</ele>
        <time>2018-10-21T08:12:06Z</time>
      </trkpt>
      <trkpt lat="42.8201800" lon="-3.3653270">
        <ele>548.2</ele>
        <time>2018-10-21T08:12:07Z</time>
      </trkpt>
      <trkpt lat="42.8202370" lon="-3.3652880">
        <ele>548.2</ele>
        <time>2018-10-21T08:12:08Z</time>
      </trkpt>
      <trkpt lat="42.8202920" lon="-3.3652500">
        <ele>548.2</ele>
        <time>2018-10-21T08:12:09Z</time>
      </trkpt>
      <trkpt lat="42.8203470" lon="-3.3652120">
        <ele>549.3</ele>
        <time>2018-10-21T08:12:10Z</time>
      </trkpt>
      <trkpt lat="42.8204030" lon="-3.3651750">
        <ele>549.3</ele>
        <time>2018-10-21T08:12:11Z</time>
      </trkpt>
      <trkpt lat="42.8204580" lon="-3.3651380">
        <ele>549.3</ele>
        <time>2018-10-21T08:12:12Z</time>
      </trkpt>
      <trkpt lat="42.8205120" lon="-3.3651020">
        <ele>549.3</ele>
        <time>2018-10-21T08:12:13Z</time>
      </trkpt>
      <trkpt lat="42.8205670" lon="-3.3650630">
        <ele>550.2</ele>
        <time>2018-10-21T08:12:14Z</time>
      </trkpt>
      <trkpt lat="42.8206200" lon="-3.3650280">
        <ele>550.2</ele>
        <time>2018-10-21T08:12:15Z</time>
      </trkpt>
      <trkpt lat="42.8206720" lon="-3.3649930">
        <ele>550.2</ele>
        <time>2018-10-21T08:12:16Z</time>
      </trkpt>
      <trkpt lat="42.8207220" lon="-3.3649580">
        <ele>550.2</ele>
        <time>2018-10-21T08:12:17Z</time>
      </trkpt>
      <trkpt lat="42.8207720" lon="-3.3649250">
        <ele>550.2</ele>
        <time>2018-10-21T08:12:18Z</time>
      </trkpt>
      <trkpt lat="42.8208200" lon="-3.3648900">
        <ele>550.2</ele>
        <time>2018-10-21T08:12:19Z</time>
      </trkpt>
      <trkpt lat="42.8208700" lon="-3.3648570">
        <ele>550.2</ele>
        <time>2018-10-21T08:12:20Z</time>
      </trkpt>
      <trkpt lat="42.8209170" lon="-3.3648230">
        <ele>550.2</ele>
        <time>2018-10-21T08:12:21Z</time>
      </trkpt>
      <trkpt lat="42.8209670" lon="-3.3647900">
        <ele>551.2</ele>
        <time>2018-10-21T08:12:22Z</time>
      </trkpt>
      <trkpt lat="42.8210150" lon="-3.3647600">
        <ele>551.2</ele>
        <time>2018-10-21T08:12:23Z</time>
      </trkpt>
      <trkpt lat="42.8210630" lon="-3.3647270">
        <ele>551.2</ele>
        <time>2018-10-21T08:12:24Z</time>
      </trkpt>
      <trkpt lat="42.8211100" lon="-3.3646930">
        <ele>551.2</ele>
        <time>2018-10-21T08:12:25Z</time>
      </trkpt>
      <trkpt lat="42.8211580" lon="-3.3646600">
        <ele>552.3</ele>
        <time>2018-10-21T08:12:26Z</time>
      </trkpt>
      <trkpt lat="42.8212050" lon="-3.3646300">
        <ele>552.3</ele>
        <time>2018-10-21T08:12:27Z</time>
      </trkpt>
      <trkpt lat="42.8212520" lon="-3.3646000">
        <ele>552.3</ele>
        <time>2018-10-21T08:12:28Z</time>
      </trkpt>
      <trkpt lat="42.8212970" lon="-3.3645700">
        <ele>552.3</ele>
        <time>2018-10-21T08:12:29Z</time>
      </trkpt>
      <trkpt lat="42.8213430" lon="-3.3645380">
        <ele>552.3</ele>
        <time>2018-10-21T08:12:30Z</time>
      </trkpt>
      <trkpt lat="42.8213880" lon="-3.3645080">
        <ele>552.3</ele>
        <time>2018-10-21T08:12:31Z</time>
      </trkpt>
      <trkpt lat="42.8214320" lon="-3.3644800">
        <ele>553.2</ele>
        <time>2018-10-21T08:12:32Z</time>
      </trkpt>
      <trkpt lat="42.8214770" lon="-3.3644500">
        <ele>553.2</ele>
        <time>2018-10-21T08:12:33Z</time>
      </trkpt>
      <trkpt lat="42.8215220" lon="-3.3644180">
        <ele>553.2</ele>
        <time>2018-10-21T08:12:34Z</time>
      </trkpt>
      <trkpt lat="42.8215650" lon="-3.3643900">
        <ele>553.2</ele>
        <time>2018-10-21T08:12:35Z</time>
      </trkpt>
      <trkpt lat="42.8216080" lon="-3.3643630">
        <ele>554.3</ele>
        <time>2018-10-21T08:12:36Z</time>
      </trkpt>
      <trkpt lat="42.8216520" lon="-3.3643320">
        <ele>554.3</ele>
        <time>2018-10-21T08:12:37Z</time>
      </trkpt>
      <trkpt lat="42.8216950" lon="-3.3643020">
        <ele>554.3</ele>
        <time>2018-10-21T08:12:38Z</time>
      </trkpt>
      <trkpt lat="42.8217380" lon="-3.3642720">
        <ele>554.3</ele>
        <time>2018-10-21T08:12:39Z</time>
      </trkpt>
      <trkpt lat="42.8217800" lon="-3.3642420">
        <ele>555.2</ele>
        <time>2018-10-21T08:12:40Z</time>
      </trkpt>
      <trkpt lat="42.8218230" lon="-3.3642120">
        <ele>555.2</ele>
        <time>2018-10-21T08:12:41Z</time>
      </trkpt>
      <trkpt lat="42.8218670" lon="-3.3641850">
        <ele>555.2</ele>
        <time>2018-10-21T08:12:42Z</time>
      </trkpt>
      <trkpt lat="42.8219080" lon="-3.3641550">
        <ele>555.2</ele>
        <time>2018-10-21T08:12:43Z</time>
      </trkpt>
      <trkpt lat="42.8219500" lon="-3.3641300">
        <ele>555.2</ele>
        <time>2018-10-21T08:12:44Z</time>
      </trkpt>
      <trkpt lat="42.8219920" lon="-3.3641020">
        <ele>555.2</ele>
        <time>2018-10-21T08:12:45Z</time>
      </trkpt>
      <trkpt lat="42.8220330" lon="-3.3640750">
        <ele>556.3</ele>
        <time>2018-10-21T08:12:46Z</time>
      </trkpt>
      <trkpt lat="42.8220730" lon="-3.3640470">
        <ele>556.3</ele>
        <time>2018-10-21T08:12:47Z</time>
      </trkpt>
      <trkpt lat="42.8221130" lon="-3.3640170">
        <ele>556.3</ele>
        <time>2018-10-21T08:12:48Z</time>
      </trkpt>
      <trkpt lat="42.8221550" lon="-3.3639900">
        <ele>556.3</ele>
        <time>2018-10-21T08:12:49Z</time>
      </trkpt>
      <trkpt lat="42.8221970" lon="-3.3639630">
        <ele>557.2</ele>
        <time>2018-10-21T08:12:50Z</time>
      </trkpt>
      <trkpt lat="42.8222370" lon="-3.3639350">
        <ele>557.2</ele>
        <time>2018-10-21T08:12:51Z</time>
      </trkpt>
      <trkpt lat="42.8222780" lon="-3.3639070">
        <ele>557.2</ele>
        <time>2018-10-21T08:12:52Z</time>
      </trkpt>
      <trkpt lat="42.8223200" lon="-3.3638770">
        <ele>557.2</ele>
        <time>2018-10-21T08:12:53Z</time>
      </trkpt>
      <trkpt lat="42.8223620" lon="-3.3638470">
        <ele>557.2</ele>
        <time>2018-10-21T08:12:54Z</time>
      </trkpt>
      <trkpt lat="42.8224030" lon="-3.3638200">
        <ele>557.2</ele>
        <time>2018-10-21T08:12:55Z</time>
      </trkpt>
      <trkpt lat="42.8224450" lon="-3.3637930">
        <ele>558.2</ele>
        <time>2018-10-21T08:12:56Z</time>
      </trkpt>
      <trkpt lat="42.8224870" lon="-3.3637650">
        <ele>558.2</ele>
        <time>2018-10-21T08:12:57Z</time>
      </trkpt>
      <trkpt lat="42.8225300" lon="-3.3637350">
        <ele>558.2</ele>
        <time>2018-10-21T08:12:58Z</time>
      </trkpt>
      <trkpt lat="42.8225730" lon="-3.3637050">
        <ele>558.2</ele>
        <time>2018-10-21T08:12:59Z</time>
      </trkpt>
      <trkpt lat="42.8226170" lon="-3.3636730">
        <ele>559.3</ele>
        <time>2018-10-21T08:13:00Z</time>
      </trkpt>
      <trkpt lat="42.8226650" lon="-3.3636420">
        <ele>559.3</ele>
        <time>2018-10-21T08:13:01Z</time>
      </trkpt>
      <trkpt lat="42.8227120" lon="-3.3636100">
        <ele>559.3</ele>
        <time>2018-10-21T08:13:02Z</time>
      </trkpt>
      <trkpt lat="42.8227600" lon="-3.3635750">
        <ele>559.3</ele>
        <time>2018-10-21T08:13:03Z</time>
      </trkpt>
      <trkpt lat="42.8228080" lon="-3.3635400">
        <ele>559.3</ele>
        <time>2018-10-21T08:13:04Z</time>
      </trkpt>
      <trkpt lat="42.8228600" lon="-3.3635050">
        <ele>559.3</ele>
        <time>2018-10-21T08:13:05Z</time>
      </trkpt>
      <trkpt lat="42.8229120" lon="-3.3634680">
        <ele>559.3</ele>
        <time>2018-10-21T08:13:06Z</time>
      </trkpt>
      <trkpt lat="42.8229650" lon="-3.3634300">
        <ele>559.3</ele>
        <time>2018-10-21T08:13:07Z</time>
      </trkpt>
      <trkpt lat="42.8230200" lon="-3.3633920">
        <ele>559.3</ele>
        <time>2018-10-21T08:13:08Z</time>
      </trkpt>
      <trkpt lat="42.8230770" lon="-3.3633530">
        <ele>559.3</ele>
        <time>2018-10-21T08:13:09Z</time>
      </trkpt>
      <trkpt lat="42.8231330" lon="-3.3633130">
        <ele>558.2</ele>
        <time>2018-10-21T08:13:10Z</time>
      </trkpt>
      <trkpt lat="42.8231920" lon="-3.3632720">
        <ele>558.2</ele>
        <time>2018-10-21T08:13:11Z</time>
      </trkpt>
      <trkpt lat="42.8232500" lon="-3.3632300">
        <ele>558.2</ele>
        <time>2018-10-21T08:13:12Z</time>
      </trkpt>
      <trkpt lat="42.8233080" lon="-3.3631880">
        <ele>558.2</ele>
        <time>2018-10-21T08:13:13Z</time>
      </trkpt>
      <trkpt lat="42.8233680" lon="-3.3631450">
        <ele>558.2</ele>
        <time>2018-10-21T08:13:14Z</time>
      </trkpt>
      <trkpt lat="42.8234300" lon="-3.3631020">
        <ele>558.2</ele>
        <time>2018-10-21T08:13:15Z</time>
      </trkpt>
      <trkpt lat="42.8234920" lon="-3.3630570">
        <ele>557.2</ele>
        <time>2018-10-21T08:13:16Z</time>
      </trkpt>
      <trkpt lat="42.8235550" lon="-3.3630120">
        <ele>557.2</ele>
        <time>2018-10-21T08:13:17Z</time>
      </trkpt>
      <trkpt lat="42.8236180" lon="-3.3629670">
        <ele>557.2</ele>
        <time>2018-10-21T08:13:18Z</time>
      </trkpt>
      <trkpt lat="42.8236830" lon="-3.3629200">
        <ele>557.2</ele>
        <time>2018-10-21T08:13:19Z</time>
      </trkpt>
      <trkpt lat="42.8237480" lon="-3.3628750">
        <ele>556.3</ele>
        <time>2018-10-21T08:13:20Z</time>
      </trkpt>
      <trkpt lat="42.8238150" lon="-3.3628270">
        <ele>556.3</ele>
        <time>2018-10-21T08:13:21Z</time>
      </trkpt>
      <trkpt lat="42.8238820" lon="-3.3627800">
        <ele>556.3</ele>
        <time>2018-10-21T08:13:22Z</time>
      </trkpt>
      <trkpt lat="42.8239470" lon="-3.3627320">
        <ele>556.3</ele>
        <time>2018-10-21T08:13:23Z</time>
      </trkpt>
      <trkpt lat="42.8240150" lon="-3.3626830">
        <ele>556.3</ele>
        <time>2018-10-21T08:13:24Z</time>
      </trkpt>
      <trkpt lat="42.8240820" lon="-3.3626370">
        <ele>556.3</ele>
        <time>2018-10-21T08:13:25Z</time>
      </trkpt>
      <trkpt lat="42.8241480" lon="-3.3625900">
        <ele>556.3</ele>
        <time>2018-10-21T08:13:26Z</time>
      </trkpt>
      <trkpt lat="42.8242130" lon="-3.3625450">
        <ele>556.3</ele>
        <time>2018-10-21T08:13:27Z</time>
      </trkpt>
      <trkpt lat="42.8242780" lon="-3.3624980">
        <ele>556.3</ele>
        <time>2018-10-21T08:13:28Z</time>
      </trkpt>
      <trkpt lat="42.8243450" lon="-3.3624520">
        <ele>556.3</ele>
        <time>2018-10-21T08:13:29Z</time>
      </trkpt>
      <trkpt lat="42.8244100" lon="-3.3624050">
        <ele>556.3</ele>
        <time>2018-10-21T08:13:30Z</time>
      </trkpt>
      <trkpt lat="42.8244770" lon="-3.3623580">
        <ele>556.3</ele>
        <time>2018-10-21T08:13:31Z</time>
      </trkpt>
      <trkpt lat="42.8245450" lon="-3.3623120">
        <ele>556.3</ele>
        <time>2018-10-21T08:13:32Z</time>
      </trkpt>
      <trkpt lat="42.8246100" lon="-3.3622620">
        <ele>556.3</ele>
        <time>2018-10-21T08:13:33Z</time>
      </trkpt>
      <trkpt lat="42.8246770" lon="-3.3622150">
        <ele>555.2</ele>
        <time>2018-10-21T08:13:34Z</time>
      </trkpt>
      <trkpt lat="42.8247420" lon="-3.3621670">
        <ele>555.2</ele>
        <time>2018-10-21T08:13:35Z</time>
      </trkpt>
      <trkpt lat="42.8248070" lon="-3.3621200">
        <ele>555.2</ele>
        <time>2018-10-21T08:13:36Z</time>
      </trkpt>
      <trkpt lat="42.8248730" lon="-3.3620750">
        <ele>555.2</ele>
        <time>2018-10-21T08:13:37Z</time>
      </trkpt>
      <trkpt lat="42.8249380" lon="-3.3620280">
        <ele>555.2</ele>
        <time>2018-10-21T08:13:38Z</time>
      </trkpt>
      <trkpt lat="42.8250020" lon="-3.3619830">
        <ele>555.2</ele>
        <time>2018-10-21T08:13:39Z</time>
      </trkpt>
      <trkpt lat="42.8250650" lon="-3.3619380">
        <ele>555.2</ele>
        <time>2018-10-21T08:13:40Z</time>
      </trkpt>
      <trkpt lat="42.8251280" lon="-3.3618930">
        <ele>555.2</ele>
        <time>2018-10-21T08:13:41Z</time>
      </trkpt>
      <trkpt lat="42.8251920" lon="-3.3618480">
        <ele>555.2</ele>
        <time>2018-10-21T08:13:42Z</time>
      </trkpt>
      <trkpt lat="42.8252550" lon="-3.3618020">
        <ele>555.2</ele>
        <time>2018-10-21T08:13:43Z</time>
      </trkpt>
      <trkpt lat="42.8253180" lon="-3.3617580">
        <ele>555.2</ele>
        <time>2018-10-21T08:13:44Z</time>
      </trkpt>
      <trkpt lat="42.8253820" lon="-3.3617130">
        <ele>555.2</ele>
        <time>2018-10-21T08:13:45Z</time>
      </trkpt>
      <trkpt lat="42.8254430" lon="-3.3616680">
        <ele>555.2</ele>
        <time>2018-10-21T08:13:46Z</time>
      </trkpt>
      <trkpt lat="42.8255030" lon="-3.3616250">
        <ele>555.2</ele>
        <time>2018-10-21T08:13:47Z</time>
      </trkpt>
      <trkpt lat="42.8255650" lon="-3.3615820">
        <ele>555.2</ele>
        <time>2018-10-21T08:13:48Z</time>
      </trkpt>
      <trkpt lat="42.8256250" lon="-3.3615380">
        <ele>555.2</ele>
        <time>2018-10-21T08:13:49Z</time>
      </trkpt>
      <trkpt lat="42.8256850" lon="-3.3614970">
        <ele>554.3</ele>
        <time>2018-10-21T08:13:50Z</time>
      </trkpt>
      <trkpt lat="42.8257470" lon="-3.3614550">
        <ele>554.3</ele>
        <time>2018-10-21T08:13:51Z</time>
      </trkpt>
      <trkpt lat="42.8258050" lon="-3.3614120">
        <ele>554.3</ele>
        <time>2018-10-21T08:13:52Z</time>
      </trkpt>
      <trkpt lat="42.8258650" lon="-3.3613680">
        <ele>554.3</ele>
        <time>2018-10-21T08:13:53Z</time>
      </trkpt>
      <trkpt lat="42.8259250" lon="-3.3613250">
        <ele>554.3</ele>
        <time>2018-10-21T08:13:54Z</time>
      </trkpt>
      <trkpt lat="42.8259850" lon="-3.3612830">
        <ele>554.3</ele>
        <time>2018-10-21T08:13:55Z</time>
      </trkpt>
      <trkpt lat="42.8260430" lon="-3.3612420">
        <ele>555.2</ele>
        <time>2018-10-21T08:13:56Z</time>
      </trkpt>
      <trkpt lat="42.8261020" lon="-3.3612000">
        <ele>555.2</ele>
        <time>2018-10-21T08:13:57Z</time>
      </trkpt>
      <trkpt lat="42.8261570" lon="-3.3611580">
        <ele>555.2</ele>
        <time>2018-10-21T08:13:58Z</time>
      </trkpt>
      <trkpt lat="42.8262120" lon="-3.3611200">
        <ele>555.2</ele>
        <time>2018-10-21T08:13:59Z</time>
      </trkpt>
      <trkpt lat="42.8262670" lon="-3.3610830">
        <ele>556.3</ele>
        <time>2018-10-21T08:14:00Z</time>
      </trkpt>
      <trkpt lat="42.8263200" lon="-3.3610470">
        <ele>556.3</ele>
        <time>2018-10-21T08:14:01Z</time>
      </trkpt>
      <trkpt lat="42.8263700" lon="-3.3610080">
        <ele>556.3</ele>
        <time>2018-10-21T08:14:02Z</time>
      </trkpt>
      <trkpt lat="42.8264200" lon="-3.3609730">
        <ele>556.3</ele>
        <time>2018-10-21T08:14:03Z</time>
      </trkpt>
      <trkpt lat="42.8264680" lon="-3.3609400">
        <ele>556.3</ele>
        <time>2018-10-21T08:14:04Z</time>
      </trkpt>
      <trkpt lat="42.8265170" lon="-3.3609050">
        <ele>556.3</ele>
        <time>2018-10-21T08:14:05Z</time>
      </trkpt>
      <trkpt lat="42.8265650" lon="-3.3608730">
        <ele>557.2</ele>
        <time>2018-10-21T08:14:06Z</time>
      </trkpt>
      <trkpt lat="42.8266120" lon="-3.3608420">
        <ele>557.2</ele>
        <time>2018-10-21T08:14:07Z</time>
      </trkpt>
      <trkpt lat="42.8266550" lon="-3.3608070">
        <ele>557.2</ele>
        <time>2018-10-21T08:14:08Z</time>
      </trkpt>
      <trkpt lat="42.8267000" lon="-3.3607770">
        <ele>557.2</ele>
        <time>2018-10-21T08:14:09Z</time>
      </trkpt>
      <trkpt lat="42.8267430" lon="-3.3607480">
        <ele>558.2</ele>
        <time>2018-10-21T08:14:10Z</time>
      </trkpt>
      <trkpt lat="42.8267850" lon="-3.3607180">
        <ele>558.2</ele>
        <time>2018-10-21T08:14:11Z</time>
      </trkpt>
      <trkpt lat="42.8268270" lon="-3.3606880">
        <ele>558.2</ele>
        <time>2018-10-21T08:14:12Z</time>
      </trkpt>
      <trkpt lat="42.8268700" lon="-3.3606580">
        <ele>558.2</ele>
        <time>2018-10-21T08:14:13Z</time>
      </trkpt>
      <trkpt lat="42.8269120" lon="-3.3606270">
        <ele>558.2</ele>
        <time>2018-10-21T08:14:14Z</time>
      </trkpt>
      <trkpt lat="42.8269530" lon="-3.3605950">
        <ele>558.2</ele>
        <time>2018-10-21T08:14:15Z</time>
      </trkpt>
      <trkpt lat="42.8269970" lon="-3.3605670">
        <ele>559.3</ele>
        <time>2018-10-21T08:14:16Z</time>
      </trkpt>
      <trkpt lat="42.8270400" lon="-3.3605350">
        <ele>559.3</ele>
        <time>2018-10-21T08:14:17Z</time>
      </trkpt>
      <trkpt lat="42.8270830" lon="-3.3605050">
        <ele>559.3</ele>
        <time>2018-10-21T08:14:18Z</time>
      </trkpt>
      <trkpt lat="42.8271270" lon="-3.3604750">
        <ele>559.3</ele>
        <time>2018-10-21T08:14:19Z</time>
      </trkpt>
      <trkpt lat="42.8271700" lon="-3.3604450">
        <ele>559.3</ele>
        <time>2018-10-21T08:14:20Z</time>
      </trkpt>
      <trkpt lat="42.8272120" lon="-3.3604130">
        <ele>559.3</ele>
        <time>2018-10-21T08:14:21Z</time>
      </trkpt>
      <trkpt lat="42.8272520" lon="-3.3603830">
        <ele>559.3</ele>
        <time>2018-10-21T08:14:22Z</time>
      </trkpt>
      <trkpt lat="42.8272920" lon="-3.3603530">
        <ele>559.3</ele>
        <time>2018-10-21T08:14:23Z</time>
      </trkpt>
      <trkpt lat="42.8273320" lon="-3.3603250">
        <ele>559.3</ele>
        <time>2018-10-21T08:14:24Z</time>
      </trkpt>
      <trkpt lat="42.8273700" lon="-3.3602980">
        <ele>559.3</ele>
        <time>2018-10-21T08:14:25Z</time>
      </trkpt>
      <trkpt lat="42.8274080" lon="-3.3602720">
        <ele>561.3</ele>
        <time>2018-10-21T08:14:26Z</time>
      </trkpt>
      <trkpt lat="42.8274470" lon="-3.3602450">
        <ele>561.3</ele>
        <time>2018-10-21T08:14:27Z</time>
      </trkpt>
      <trkpt lat="42.8274850" lon="-3.3602200">
        <ele>562.2</ele>
        <time>2018-10-21T08:14:28Z</time>
      </trkpt>
      <trkpt lat="42.8275230" lon="-3.3601920">
        <ele>562.2</ele>
        <time>2018-10-21T08:14:29Z</time>
      </trkpt>
      <trkpt lat="42.8275620" lon="-3.3601670">
        <ele>562.2</ele>
        <time>2018-10-21T08:14:30Z</time>
      </trkpt>
      <trkpt lat="42.8276020" lon="-3.3601380">
        <ele>562.2</ele>
        <time>2018-10-21T08:14:31Z</time>
      </trkpt>
      <trkpt lat="42.8276400" lon="-3.3601100">
        <ele>563.3</ele>
        <time>2018-10-21T08:14:32Z</time>
      </trkpt>
      <trkpt lat="42.8276780" lon="-3.3600820">
        <ele>563.3</ele>
        <time>2018-10-21T08:14:33Z</time>
      </trkpt>
      <trkpt lat="42.8277170" lon="-3.3600580">
        <ele>563.3</ele>
        <time>2018-10-21T08:14:34Z</time>
      </trkpt>
      <trkpt lat="42.8277530" lon="-3.3600300">
        <ele>563.3</ele>
        <time>2018-10-21T08:14:35Z</time>
      </trkpt>
      <trkpt lat="42.8277900" lon="-3.3600020">
        <ele>564.2</ele>
        <time>2018-10-21T08:14:36Z</time>
      </trkpt>
      <trkpt lat="42.8278280" lon="-3.3599770">
        <ele>564.2</ele>
        <time>2018-10-21T08:14:37Z</time>
      </trkpt>
      <trkpt lat="42.8278650" lon="-3.3599520">
        <ele>564.2</ele>
        <time>2018-10-21T08:14:38Z</time>
      </trkpt>
      <trkpt lat="42.8279030" lon="-3.3599250">
        <ele>564.2</ele>
        <time>2018-10-21T08:14:39Z</time>
      </trkpt>
      <trkpt lat="42.8279400" lon="-3.3598970">
        <ele>564.2</ele>
        <time>2018-10-21T08:14:40Z</time>
      </trkpt>
      <trkpt lat="42.8279770" lon="-3.3598680">
        <ele>564.2</ele>
        <time>2018-10-21T08:14:41Z</time>
      </trkpt>
      <trkpt lat="42.8280170" lon="-3.3598430">
        <ele>565.3</ele>
        <time>2018-10-21T08:14:42Z</time>
      </trkpt>
      <trkpt lat="42.8280550" lon="-3.3598170">
        <ele>565.3</ele>
        <time>2018-10-21T08:14:43Z</time>
      </trkpt>
      <trkpt lat="42.8280950" lon="-3.3597880">
        <ele>565.3</ele>
        <time>2018-10-21T08:14:44Z</time>
      </trkpt>
      <trkpt lat="42.8281350" lon="-3.3597580">
        <ele>565.3</ele>
        <time>2018-10-21T08:14:45Z</time>
      </trkpt>
      <trkpt lat="42.8281750" lon="-3.3597300">
        <ele>565.3</ele>
        <time>2018-10-21T08:14:46Z</time>
      </trkpt>
      <trkpt lat="42.8282170" lon="-3.3597020">
        <ele>565.3</ele>
        <time>2018-10-21T08:14:47Z</time>
      </trkpt>
      <trkpt lat="42.8282600" lon="-3.3596720">
        <ele>566.2</ele>
        <time>2018-10-21T08:14:48Z</time>
      </trkpt>
      <trkpt lat="42.8283020" lon="-3.3596420">
        <ele>566.2</ele>
        <time>2018-10-21T08:14:49Z</time>
      </trkpt>
      <trkpt lat="42.8283430" lon="-3.3596100">
        <ele>566.2</ele>
        <time>2018-10-21T08:14:50Z</time>
      </trkpt>
      <trkpt lat="42.8283830" lon="-3.3595800">
        <ele>566.2</ele>
        <time>2018-10-21T08:14:51Z</time>
      </trkpt>
      <trkpt lat="42.8284230" lon="-3.3595500">
        <ele>566.2</ele>
        <time>2018-10-21T08:14:52Z</time>
      </trkpt>
      <trkpt lat="42.8284650" lon="-3.3595200">
        <ele>566.2</ele>
        <time>2018-10-21T08:14:53Z</time>
      </trkpt>
      <trkpt lat="42.8285080" lon="-3.3594920">
        <ele>567.2</ele>
        <time>2018-10-21T08:14:54Z</time>
      </trkpt>
      <trkpt lat="42.8285500" lon="-3.3594600">
        <ele>567.2</ele>
        <time>2018-10-21T08:14:55Z</time>
      </trkpt>
      <trkpt lat="42.8285930" lon="-3.3594300">
        <ele>567.2</ele>
        <time>2018-10-21T08:14:56Z</time>
      </trkpt>
      <trkpt lat="42.8286350" lon="-3.3594000">
        <ele>567.2</ele>
        <time>2018-10-21T08:14:57Z</time>
      </trkpt>
      <trkpt lat="42.8286780" lon="-3.3593700">
        <ele>567.2</ele>
        <time>2018-10-21T08:14:58Z</time>
      </trkpt>
      <trkpt lat="42.8287200" lon="-3.3593420">
        <ele>567.2</ele>
        <time>2018-10-21T08:14:59Z</time>
      </trkpt>
      <trkpt lat="42.8287600" lon="-3.3593100">
        <ele>568.3</ele>
        <time>2018-10-21T08:15:00Z</time>
      </trkpt>
      <trkpt lat="42.8288020" lon="-3.3592800">
        <ele>568.3</ele>
        <time>2018-10-21T08:15:01Z</time>
      </trkpt>
      <trkpt lat="42.8288450" lon="-3.3592500">
        <ele>568.3</ele>
        <time>2018-10-21T08:15:02Z</time>
      </trkpt>
      <trkpt lat="42.8288870" lon="-3.3592180">
        <ele>568.3</ele>
        <time>2018-10-21T08:15:03Z</time>
      </trkpt>
      <trkpt lat="42.8289300" lon="-3.3591880">
        <ele>569.2</ele>
        <time>2018-10-21T08:15:04Z</time>
      </trkpt>
      <trkpt lat="42.8289720" lon="-3.3591580">
        <ele>569.2</ele>
        <time>2018-10-21T08:15:05Z</time>
      </trkpt>
      <trkpt lat="42.8290130" lon="-3.3591280">
        <ele>569.2</ele>
        <time>2018-10-21T08:15:06Z</time>
      </trkpt>
      <trkpt lat="42.8290550" lon="-3.3590980">
        <ele>569.2</ele>
        <time>2018-10-21T08:15:07Z</time>
      </trkpt>
      <trkpt lat="42.8290970" lon="-3.3590670">
        <ele>569.2</ele>
        <time>2018-10-21T08:15:08Z</time>
      </trkpt>
      <trkpt lat="42.8291400" lon="-3.3590370">
        <ele>569.2</ele>
        <time>2018-10-21T08:15:09Z</time>
      </trkpt>
      <trkpt lat="42.8291820" lon="-3.3590070">
        <ele>569.2</ele>
        <time>2018-10-21T08:15:10Z</time>
      </trkpt>
      <trkpt lat="42.8292250" lon="-3.3589750">
        <ele>569.2</ele>
        <time>2018-10-21T08:15:11Z</time>
      </trkpt>
      <trkpt lat="42.8292680" lon="-3.3589450">
        <ele>569.2</ele>
        <time>2018-10-21T08:15:12Z</time>
      </trkpt>
      <trkpt lat="42.8293130" lon="-3.3589130">
        <ele>569.2</ele>
        <time>2018-10-21T08:15:13Z</time>
      </trkpt>
      <trkpt lat="42.8293570" lon="-3.3588830">
        <ele>570.3</ele>
        <time>2018-10-21T08:15:14Z</time>
      </trkpt>
      <trkpt lat="42.8294000" lon="-3.3588530">
        <ele>570.3</ele>
        <time>2018-10-21T08:15:15Z</time>
      </trkpt>
      <trkpt lat="42.8294450" lon="-3.3588230">
        <ele>570.3</ele>
        <time>2018-10-21T08:15:16Z</time>
      </trkpt>
      <trkpt lat="42.8294870" lon="-3.3587930">
        <ele>570.3</ele>
        <time>2018-10-21T08:15:17Z</time>
      </trkpt>
      <trkpt lat="42.8295300" lon="-3.3587630">
        <ele>570.3</ele>
        <time>2018-10-21T08:15:18Z</time>
      </trkpt>
      <trkpt lat="42.8295720" lon="-3.3587330">
        <ele>570.3</ele>
        <time>2018-10-21T08:15:19Z</time>
      </trkpt>
      <trkpt lat="42.8296130" lon="-3.3587030">
        <ele>571.2</ele>
        <time>2018-10-21T08:15:20Z</time>
      </trkpt>
      <trkpt lat="42.8296550" lon="-3.3586730">
        <ele>571.2</ele>
        <time>2018-10-21T08:15:21Z</time>
      </trkpt>
      <trkpt lat="42.8296970" lon="-3.3586450">
        <ele>571.2</ele>
        <time>2018-10-21T08:15:22Z</time>
      </trkpt>
      <trkpt lat="42.8297400" lon="-3.3586170">
        <ele>571.2</ele>
        <time>2018-10-21T08:15:23Z</time>
      </trkpt>
      <trkpt lat="42.8297830" lon="-3.3585870">
        <ele>571.2</ele>
        <time>2018-10-21T08:15:24Z</time>
      </trkpt>
      <trkpt lat="42.8298250" lon="-3.3585570">
        <ele>571.2</ele>
        <time>2018-10-21T08:15:25Z</time>
      </trkpt>
      <trkpt lat="42.8298680" lon="-3.3585270">
        <ele>572.3</ele>
        <time>2018-10-21T08:15:26Z</time>
      </trkpt>
      <trkpt lat="42.8299100" lon="-3.3584950">
        <ele>572.3</ele>
        <time>2018-10-21T08:15:27Z</time>
      </trkpt>
      <trkpt lat="42.8299530" lon="-3.3584620">
        <ele>572.3</ele>
        <time>2018-10-21T08:15:28Z</time>
      </trkpt>
      <trkpt lat="42.8299950" lon="-3.3584270">
        <ele>572.3</ele>
        <time>2018-10-21T08:15:29Z</time>
      </trkpt>
      <trkpt lat="42.8300350" lon="-3.3583920">
        <ele>572.3</ele>
        <time>2018-10-21T08:15:30Z</time>
      </trkpt>
      <trkpt lat="42.8300770" lon="-3.3583550">
        <ele>572.3</ele>
        <time>2018-10-21T08:15:31Z</time>
      </trkpt>
      <trkpt lat="42.8301180" lon="-3.3583170">
        <ele>572.3</ele>
        <time>2018-10-21T08:15:32Z</time>
      </trkpt>
      <trkpt lat="42.8301580" lon="-3.3582770">
        <ele>572.3</ele>
        <time>2018-10-21T08:15:33Z</time>
      </trkpt>
      <trkpt lat="42.8302000" lon="-3.3582330">
        <ele>572.3</ele>
        <time>2018-10-21T08:15:34Z</time>
      </trkpt>
      <trkpt lat="42.8302420" lon="-3.3581880">
        <ele>572.3</ele>
        <time>2018-10-21T08:15:35Z</time>
      </trkpt>
      <trkpt lat="42.8302850" lon="-3.3581420">
        <ele>572.3</ele>
        <time>2018-10-21T08:15:36Z</time>
      </trkpt>
      <trkpt lat="42.8303280" lon="-3.3580930">
        <ele>572.3</ele>
        <time>2018-10-21T08:15:37Z</time>
      </trkpt>
      <trkpt lat="42.8303720" lon="-3.3580420">
        <ele>572.3</ele>
        <time>2018-10-21T08:15:38Z</time>
      </trkpt>
      <trkpt lat="42.8304150" lon="-3.3579900">
        <ele>572.3</ele>
        <time>2018-10-21T08:15:39Z</time>
      </trkpt>
      <trkpt lat="42.8304600" lon="-3.3579350">
        <ele>572.3</ele>
        <time>2018-10-21T08:15:40Z</time>
      </trkpt>
      <trkpt lat="42.8305030" lon="-3.3578750">
        <ele>572.3</ele>
        <time>2018-10-21T08:15:41Z</time>
      </trkpt>
      <trkpt lat="42.8305480" lon="-3.3578170">
        <ele>572.3</ele>
        <time>2018-10-21T08:15:42Z</time>
      </trkpt>
      <trkpt lat="42.8305930" lon="-3.3577570">
        <ele>572.3</ele>
        <time>2018-10-21T08:15:43Z</time>
      </trkpt>
      <trkpt lat="42.8306400" lon="-3.3576930">
        <ele>572.3</ele>
        <time>2018-10-21T08:15:44Z</time>
      </trkpt>
      <trkpt lat="42.8306870" lon="-3.3576280">
        <ele>572.3</ele>
        <time>2018-10-21T08:15:45Z</time>
      </trkpt>
      <trkpt lat="42.8307350" lon="-3.3575630">
        <ele>572.3</ele>
        <time>2018-10-21T08:15:46Z</time>
      </trkpt>
      <trkpt lat="42.8307870" lon="-3.3574970">
        <ele>572.3</ele>
        <time>2018-10-21T08:15:47Z</time>
      </trkpt>
      <trkpt lat="42.8308370" lon="-3.3574270">
        <ele>572.3</ele>
        <time>2018-10-21T08:15:48Z</time>
      </trkpt>
      <trkpt lat="42.8308900" lon="-3.3573570">
        <ele>572.3</ele>
        <time>2018-10-21T08:15:49Z</time>
      </trkpt>
      <trkpt lat="42.8309430" lon="-3.3572830">
        <ele>572.3</ele>
        <time>2018-10-21T08:15:50Z</time>
      </trkpt>
      <trkpt lat="42.8309970" lon="-3.3572100">
        <ele>572.3</ele>
        <time>2018-10-21T08:15:51Z</time>
      </trkpt>
      <trkpt lat="42.8310500" lon="-3.3571350">
        <ele>570.3</ele>
        <time>2018-10-21T08:15:52Z</time>
      </trkpt>
      <trkpt lat="42.8311030" lon="-3.3570600">
        <ele>570.3</ele>
        <time>2018-10-21T08:15:53Z</time>
      </trkpt>
      <trkpt lat="42.8311570" lon="-3.3569880">
        <ele>570.3</ele>
        <time>2018-10-21T08:15:54Z</time>
      </trkpt>
      <trkpt lat="42.8312080" lon="-3.3569150">
        <ele>570.3</ele>
        <time>2018-10-21T08:15:55Z</time>
      </trkpt>
      <trkpt lat="42.8312600" lon="-3.3568430">
        <ele>570.3</ele>
        <time>2018-10-21T08:15:56Z</time>
      </trkpt>
      <trkpt lat="42.8313100" lon="-3.3567730">
        <ele>570.3</ele>
        <time>2018-10-21T08:15:57Z</time>
      </trkpt>
      <trkpt lat="42.8313580" lon="-3.3567050">
        <ele>570.3</ele>
        <time>2018-10-21T08:15:58Z</time>
      </trkpt>
      <trkpt lat="42.8314070" lon="-3.3566400">
        <ele>570.3</ele>
        <time>2018-10-21T08:15:59Z</time>
      </trkpt>
      <trkpt lat="42.8314550" lon="-3.3565750">
        <ele>570.3</ele>
        <time>2018-10-21T08:16:00Z</time>
      </trkpt>
      <trkpt lat="42.8315000" lon="-3.3565120">
        <ele>570.3</ele>
        <time>2018-10-21T08:16:01Z</time>
      </trkpt>
      <trkpt lat="42.8315450" lon="-3.3564500">
        <ele>570.3</ele>
        <time>2018-10-21T08:16:02Z</time>
      </trkpt>
      <trkpt lat="42.8315880" lon="-3.3563900">
        <ele>570.3</ele>
        <time>2018-10-21T08:16:03Z</time>
      </trkpt>
      <trkpt lat="42.8316320" lon="-3.3563320">
        <ele>571.2</ele>
        <time>2018-10-21T08:16:04Z</time>
      </trkpt>
      <trkpt lat="42.8316730" lon="-3.3562730">
        <ele>571.2</ele>
        <time>2018-10-21T08:16:05Z</time>
      </trkpt>
      <trkpt lat="42.8317170" lon="-3.3562130">
        <ele>571.2</ele>
        <time>2018-10-21T08:16:06Z</time>
      </trkpt>
      <trkpt lat="42.8317580" lon="-3.3561550">
        <ele>571.2</ele>
        <time>2018-10-21T08:16:07Z</time>
      </trkpt>
      <trkpt lat="42.8318020" lon="-3.3560970">
        <ele>572.3</ele>
        <time>2018-10-21T08:16:08Z</time>
      </trkpt>
      <trkpt lat="42.8318430" lon="-3.3560400">
        <ele>572.3</ele>
        <time>2018-10-21T08:16:09Z</time>
      </trkpt>
      <trkpt lat="42.8318850" lon="-3.3559830">
        <ele>572.3</ele>
        <time>2018-10-21T08:16:10Z</time>
      </trkpt>
      <trkpt lat="42.8319250" lon="-3.3559250">
        <ele>572.3</ele>
        <time>2018-10-21T08:16:11Z</time>
      </trkpt>
      <trkpt lat="42.8319670" lon="-3.3558680">
        <ele>572.3</ele>
        <time>2018-10-21T08:16:12Z</time>
      </trkpt>
      <trkpt lat="42.8320080" lon="-3.3558130">
        <ele>572.3</ele>
        <time>2018-10-21T08:16:13Z</time>
      </trkpt>
      <trkpt lat="42.8320520" lon="-3.3557580">
        <ele>572.3</ele>
        <time>2018-10-21T08:16:14Z</time>
      </trkpt>
      <trkpt lat="42.8320920" lon="-3.3557020">
        <ele>572.3</ele>
        <time>2018-10-21T08:16:15Z</time>
      </trkpt>
      <trkpt lat="42.8321330" lon="-3.3556430">
        <ele>573.2</ele>
        <time>2018-10-21T08:16:16Z</time>
      </trkpt>
      <trkpt lat="42.8321770" lon="-3.3555850">
        <ele>573.2</ele>
        <time>2018-10-21T08:16:17Z</time>
      </trkpt>
      <trkpt lat="42.8322180" lon="-3.3555280">
        <ele>573.2</ele>
        <time>2018-10-21T08:16:18Z</time>
      </trkpt>
      <trkpt lat="42.8322620" lon="-3.3554680">
        <ele>573.2</ele>
        <time>2018-10-21T08:16:19Z</time>
      </trkpt>
      <trkpt lat="42.8323050" lon="-3.3554080">
        <ele>574.3</ele>
        <time>2018-10-21T08:16:20Z</time>
      </trkpt>
      <trkpt lat="42.8323480" lon="-3.3553500">
        <ele>574.3</ele>
        <time>2018-10-21T08:16:21Z</time>
      </trkpt>
      <trkpt lat="42.8323920" lon="-3.3552900">
        <ele>574.3</ele>
        <time>2018-10-21T08:16:22Z</time>
      </trkpt>
      <trkpt lat="42.8324370" lon="-3.3552300">
        <ele>574.3</ele>
        <time>2018-10-21T08:16:23Z</time>
      </trkpt>
      <trkpt lat="42.8324820" lon="-3.3551700">
        <ele>574.3</ele>
        <time>2018-10-21T08:16:24Z</time>
      </trkpt>
      <trkpt lat="42.8325250" lon="-3.3551100">
        <ele>574.3</ele>
        <time>2018-10-21T08:16:25Z</time>
      </trkpt>
      <trkpt lat="42.8325680" lon="-3.3550480">
        <ele>574.3</ele>
        <time>2018-10-21T08:16:26Z</time>
      </trkpt>
      <trkpt lat="42.8326120" lon="-3.3549880">
        <ele>574.3</ele>
        <time>2018-10-21T08:16:27Z</time>
      </trkpt>
      <trkpt lat="42.8326550" lon="-3.3549300">
        <ele>574.3</ele>
        <time>2018-10-21T08:16:28Z</time>
      </trkpt>
      <trkpt lat="42.8326980" lon="-3.3548700">
        <ele>574.3</ele>
        <time>2018-10-21T08:16:29Z</time>
      </trkpt>
      <trkpt lat="42.8327430" lon="-3.3548120">
        <ele>574.3</ele>
        <time>2018-10-21T08:16:30Z</time>
      </trkpt>
      <trkpt lat="42.8327870" lon="-3.3547530">
        <ele>574.3</ele>
        <time>2018-10-21T08:16:31Z</time>
      </trkpt>
      <trkpt lat="42.8328300" lon="-3.3546930">
        <ele>575.2</ele>
        <time>2018-10-21T08:16:32Z</time>
      </trkpt>
      <trkpt lat="42.8328730" lon="-3.3546330">
        <ele>575.2</ele>
        <time>2018-10-21T08:16:33Z</time>
      </trkpt>
      <trkpt lat="42.8329170" lon="-3.3545750">
        <ele>575.2</ele>
        <time>2018-10-21T08:16:34Z</time>
      </trkpt>
      <trkpt lat="42.8329620" lon="-3.3545130">
        <ele>575.2</ele>
        <time>2018-10-21T08:16:35Z</time>
      </trkpt>
      <trkpt lat="42.8330050" lon="-3.3544530">
        <ele>575.2</ele>
        <time>2018-10-21T08:16:36Z</time>
      </trkpt>
      <trkpt lat="42.8330500" lon="-3.3543900">
        <ele>575.2</ele>
        <time>2018-10-21T08:16:37Z</time>
      </trkpt>
      <trkpt lat="42.8330950" lon="-3.3543280">
        <ele>575.2</ele>
        <time>2018-10-21T08:16:38Z</time>
      </trkpt>
      <trkpt lat="42.8331420" lon="-3.3542650">
        <ele>575.2</ele>
        <time>2018-10-21T08:16:39Z</time>
      </trkpt>
      <trkpt lat="42.8331880" lon="-3.3542030">
        <ele>575.2</ele>
        <time>2018-10-21T08:16:40Z</time>
      </trkpt>
      <trkpt lat="42.8332370" lon="-3.3541380">
        <ele>575.2</ele>
        <time>2018-10-21T08:16:41Z</time>
      </trkpt>
      <trkpt lat="42.8332830" lon="-3.3540750">
        <ele>575.2</ele>
        <time>2018-10-21T08:16:42Z</time>
      </trkpt>
      <trkpt lat="42.8333320" lon="-3.3540080">
        <ele>575.2</ele>
        <time>2018-10-21T08:16:43Z</time>
      </trkpt>
      <trkpt lat="42.8333800" lon="-3.3539420">
        <ele>574.3</ele>
        <time>2018-10-21T08:16:44Z</time>
      </trkpt>
      <trkpt lat="42.8334280" lon="-3.3538730">
        <ele>574.3</ele>
        <time>2018-10-21T08:16:45Z</time>
      </trkpt>
      <trkpt lat="42.8334770" lon="-3.3538020">
        <ele>574.3</ele>
        <time>2018-10-21T08:16:46Z</time>
      </trkpt>
      <trkpt lat="42.8335250" lon="-3.3537320">
        <ele>574.3</ele>
        <time>2018-10-21T08:16:47Z</time>
      </trkpt>
      <trkpt lat="42.8335720" lon="-3.3536580">
        <ele>574.3</ele>
        <time>2018-10-21T08:16:48Z</time>
      </trkpt>
      <trkpt lat="42.8336170" lon="-3.3535820">
        <ele>574.3</ele>
        <time>2018-10-21T08:16:49Z</time>
      </trkpt>
      <trkpt lat="42.8336600" lon="-3.3535000">
        <ele>574.3</ele>
        <time>2018-10-21T08:16:50Z</time>
      </trkpt>
      <trkpt lat="42.8337000" lon="-3.3534120">
        <ele>574.3</ele>
        <time>2018-10-21T08:16:51Z</time>
      </trkpt>
      <trkpt lat="42.8337350" lon="-3.3533200">
        <ele>574.3</ele>
        <time>2018-10-21T08:16:52Z</time>
      </trkpt>
      <trkpt lat="42.8337670" lon="-3.3532250">
        <ele>574.3</ele>
        <time>2018-10-21T08:16:53Z</time>
      </trkpt>
      <trkpt lat="42.8337930" lon="-3.3531250">
        <ele>571.2</ele>
        <time>2018-10-21T08:16:54Z</time>
      </trkpt>
      <trkpt lat="42.8338150" lon="-3.3530230">
        <ele>571.2</ele>
        <time>2018-10-21T08:16:55Z</time>
      </trkpt>
      <trkpt lat="42.8338330" lon="-3.3529180">
        <ele>571.2</ele>
        <time>2018-10-21T08:16:56Z</time>
      </trkpt>
      <trkpt lat="42.8338480" lon="-3.3528120">
        <ele>571.2</ele>
        <time>2018-10-21T08:16:57Z</time>
      </trkpt>
      <trkpt lat="42.8338600" lon="-3.3527020">
        <ele>571.2</ele>
        <time>2018-10-21T08:16:58Z</time>
      </trkpt>
      <trkpt lat="42.8338720" lon="-3.3525900">
        <ele>571.2</ele>
        <time>2018-10-21T08:16:59Z</time>
      </trkpt>
      <trkpt lat="42.8338820" lon="-3.3524770">
        <ele>571.2</ele>
        <time>2018-10-21T08:17:00Z</time>
      </trkpt>
      <trkpt lat="42.8338920" lon="-3.3523630">
        <ele>571.2</ele>
        <time>2018-10-21T08:17:01Z</time>
      </trkpt>
      <trkpt lat="42.8339050" lon="-3.3522520">
        <ele>570.3</ele>
        <time>2018-10-21T08:17:02Z</time>
      </trkpt>
      <trkpt lat="42.8339170" lon="-3.3521370">
        <ele>570.3</ele>
        <time>2018-10-21T08:17:03Z</time>
      </trkpt>
      <trkpt lat="42.8339270" lon="-3.3520220">
        <ele>570.3</ele>
        <time>2018-10-21T08:17:04Z</time>
      </trkpt>
      <trkpt lat="42.8339370" lon="-3.3519030">
        <ele>570.3</ele>
        <time>2018-10-21T08:17:05Z</time>
      </trkpt>
      <trkpt lat="42.8339480" lon="-3.3517850">
        <ele>570.3</ele>
        <time>2018-10-21T08:17:06Z</time>
      </trkpt>
      <trkpt lat="42.8339580" lon="-3.3516650">
        <ele>570.3</ele>
        <time>2018-10-21T08:17:07Z</time>
      </trkpt>
      <trkpt lat="42.8339680" lon="-3.3515430">
        <ele>568.3</ele>
        <time>2018-10-21T08:17:08Z</time>
      </trkpt>
      <trkpt lat="42.8339800" lon="-3.3514220">
        <ele>568.3</ele>
        <time>2018-10-21T08:17:09Z</time>
      </trkpt>
      <trkpt lat="42.8339900" lon="-3.3512980">
        <ele>567.2</ele>
        <time>2018-10-21T08:17:10Z</time>
      </trkpt>
      <trkpt lat="42.8340020" lon="-3.3511750">
        <ele>567.2</ele>
        <time>2018-10-21T08:17:11Z</time>
      </trkpt>
      <trkpt lat="42.8340130" lon="-3.3510470">
        <ele>566.2</ele>
        <time>2018-10-21T08:17:12Z</time>
      </trkpt>
      <trkpt lat="42.8340250" lon="-3.3509200">
        <ele>566.2</ele>
        <time>2018-10-21T08:17:13Z</time>
      </trkpt>
      <trkpt lat="42.8340370" lon="-3.3507920">
        <ele>565.3</ele>
        <time>2018-10-21T08:17:14Z</time>
      </trkpt>
      <trkpt lat="42.8340470" lon="-3.3506620">
        <ele>565.3</ele>
        <time>2018-10-21T08:17:15Z</time>
      </trkpt>
      <trkpt lat="42.8340580" lon="-3.3505320">
        <ele>565.3</ele>
        <time>2018-10-21T08:17:16Z</time>
      </trkpt>
      <trkpt lat="42.8340720" lon="-3.3504030">
        <ele>565.3</ele>
        <time>2018-10-21T08:17:17Z</time>
      </trkpt>
      <trkpt lat="42.8340820" lon="-3.3502730">
        <ele>564.2</ele>
        <time>2018-10-21T08:17:18Z</time>
      </trkpt>
      <trkpt lat="42.8340930" lon="-3.3501430">
        <ele>564.2</ele>
        <time>2018-10-21T08:17:19Z</time>
      </trkpt>
      <trkpt lat="42.8341050" lon="-3.3500130">
        <ele>564.2</ele>
        <time>2018-10-21T08:17:20Z</time>
      </trkpt>
      <trkpt lat="42.8341170" lon="-3.3498830">
        <ele>564.2</ele>
        <time>2018-10-21T08:17:21Z</time>
      </trkpt>
      <trkpt lat="42.8341280" lon="-3.3497530">
        <ele>563.3</ele>
        <time>2018-10-21T08:17:22Z</time>
      </trkpt>
      <trkpt lat="42.8341400" lon="-3.3496230">
        <ele>563.3</ele>
        <time>2018-10-21T08:17:23Z</time>
      </trkpt>
      <trkpt lat="42.8341520" lon="-3.3494930">
        <ele>562.2</ele>
        <time>2018-10-21T08:17:24Z</time>
      </trkpt>
      <trkpt lat="42.8341630" lon="-3.3493650">
        <ele>562.2</ele>
        <time>2018-10-21T08:17:25Z</time>
      </trkpt>
      <trkpt lat="42.8341750" lon="-3.3492370">
        <ele>562.2</ele>
        <time>2018-10-21T08:17:26Z</time>
      </trkpt>
      <trkpt lat="42.8341870" lon="-3.3491080">
        <ele>562.2</ele>
        <time>2018-10-21T08:17:27Z</time>
      </trkpt>
      <trkpt lat="42.8341980" lon="-3.3489800">
        <ele>562.2</ele>
        <time>2018-10-21T08:17:28Z</time>
      </trkpt>
      <trkpt lat="42.8342100" lon="-3.3488520">
        <ele>562.2</ele>
        <time>2018-10-21T08:17:29Z</time>
      </trkpt>
      <trkpt lat="42.8342200" lon="-3.3487250">
        <ele>560.2</ele>
        <time>2018-10-21T08:17:30Z</time>
      </trkpt>
      <trkpt lat="42.8342320" lon="-3.3486000">
        <ele>560.2</ele>
        <time>2018-10-21T08:17:31Z</time>
      </trkpt>
      <trkpt lat="42.8342430" lon="-3.3484730">
        <ele>560.2</ele>
        <time>2018-10-21T08:17:32Z</time>
      </trkpt>
      <trkpt lat="42.8342530" lon="-3.3483480">
        <ele>560.2</ele>
        <time>2018-10-21T08:17:33Z</time>
      </trkpt>
      <trkpt lat="42.8342650" lon="-3.3482230">
        <ele>560.2</ele>
        <time>2018-10-21T08:17:34Z</time>
      </trkpt>
      <trkpt lat="42.8342770" lon="-3.3480980">
        <ele>560.2</ele>
        <time>2018-10-21T08:17:35Z</time>
      </trkpt>
      <trkpt lat="42.8342880" lon="-3.3479730">
        <ele>559.3</ele>
        <time>2018-10-21T08:17:36Z</time>
      </trkpt>
      <trkpt lat="42.8343000" lon="-3.3478500">
        <ele>559.3</ele>
        <time>2018-10-21T08:17:37Z</time>
      </trkpt>
      <trkpt lat="42.8343120" lon="-3.3477250">
        <ele>559.3</ele>
        <time>2018-10-21T08:17:38Z</time>
      </trkpt>
      <trkpt lat="42.8343280" lon="-3.3476020">
        <ele>559.3</ele>
        <time>2018-10-21T08:17:39Z</time>
      </trkpt>
      <trkpt lat="42.8343500" lon="-3.3474780">
        <ele>559.3</ele>
        <time>2018-10-21T08:17:40Z</time>
      </trkpt>
      <trkpt lat="42.8343770" lon="-3.3473570">
        <ele>559.3</ele>
        <time>2018-10-21T08:17:41Z</time>
      </trkpt>
      <trkpt lat="42.8344080" lon="-3.3472380">
        <ele>558.2</ele>
        <time>2018-10-21T08:17:42Z</time>
      </trkpt>
      <trkpt lat="42.8344480" lon="-3.3471230">
        <ele>558.2</ele>
        <time>2018-10-21T08:17:43Z</time>
      </trkpt>
      <trkpt lat="42.8344950" lon="-3.3470120">
        <ele>558.2</ele>
        <time>2018-10-21T08:17:44Z</time>
      </trkpt>
      <trkpt lat="42.8345470" lon="-3.3469050">
        <ele>558.2</ele>
        <time>2018-10-21T08:17:45Z</time>
      </trkpt>
      <trkpt lat="42.8346050" lon="-3.3468030">
        <ele>557.2</ele>
        <time>2018-10-21T08:17:46Z</time>
      </trkpt>
      <trkpt lat="42.8346700" lon="-3.3467070">
        <ele>557.2</ele>
        <time>2018-10-21T08:17:47Z</time>
      </trkpt>
      <trkpt lat="42.8347370" lon="-3.3466120">
        <ele>557.2</ele>
        <time>2018-10-21T08:17:48Z</time>
      </trkpt>
      <trkpt lat="42.8348050" lon="-3.3465180">
        <ele>557.2</ele>
        <time>2018-10-21T08:17:49Z</time>
      </trkpt>
      <trkpt lat="42.8348770" lon="-3.3464270">
        <ele>556.3</ele>
        <time>2018-10-21T08:17:50Z</time>
      </trkpt>
      <trkpt lat="42.8349470" lon="-3.3463370">
        <ele>556.3</ele>
        <time>2018-10-21T08:17:51Z</time>
      </trkpt>
      <trkpt lat="42.8350180" lon="-3.3462450">
        <ele>555.2</ele>
        <time>2018-10-21T08:17:52Z</time>
      </trkpt>
      <trkpt lat="42.8350880" lon="-3.3461520">
        <ele>555.2</ele>
        <time>2018-10-21T08:17:53Z</time>
      </trkpt>
      <trkpt lat="42.8351600" lon="-3.3460600">
        <ele>554.3</ele>
        <time>2018-10-21T08:17:54Z</time>
      </trkpt>
      <trkpt lat="42.8352330" lon="-3.3459680">
        <ele>554.3</ele>
        <time>2018-10-21T08:17:55Z</time>
      </trkpt>
      <trkpt lat="42.8353070" lon="-3.3458770">
        <ele>553.2</ele>
        <time>2018-10-21T08:17:56Z</time>
      </trkpt>
      <trkpt lat="42.8353800" lon="-3.3457870">
        <ele>553.2</ele>
        <time>2018-10-21T08:17:57Z</time>
      </trkpt>
      <trkpt lat="42.8354570" lon="-3.3456980">
        <ele>552.3</ele>
        <time>2018-10-21T08:17:58Z</time>
      </trkpt>
      <trkpt lat="42.8355320" lon="-3.3456130">
        <ele>552.3</ele>
        <time>2018-10-21T08:17:59Z</time>
      </trkpt>
      <trkpt lat="42.8356100" lon="-3.3455300">
        <ele>552.3</ele>
        <time>2018-10-21T08:18:00Z</time>
      </trkpt>
      <trkpt lat="42.8356900" lon="-3.3454500">
        <ele>552.3</ele>
        <time>2018-10-21T08:18:01Z</time>
      </trkpt>
      <trkpt lat="42.8357720" lon="-3.3453700">
        <ele>551.2</ele>
        <time>2018-10-21T08:18:02Z</time>
      </trkpt>
      <trkpt lat="42.8358530" lon="-3.3452900">
        <ele>551.2</ele>
        <time>2018-10-21T08:18:03Z</time>
      </trkpt>
      <trkpt lat="42.8359350" lon="-3.3452100">
        <ele>551.2</ele>
        <time>2018-10-21T08:18:04Z</time>
      </trkpt>
      <trkpt lat="42.8360180" lon="-3.3451320">
        <ele>551.2</ele>
        <time>2018-10-21T08:18:05Z</time>
      </trkpt>
      <trkpt lat="42.8361000" lon="-3.3450520">
        <ele>550.2</ele>
        <time>2018-10-21T08:18:06Z</time>
      </trkpt>
      <trkpt lat="42.8361820" lon="-3.3449720">
        <ele>550.2</ele>
        <time>2018-10-21T08:18:07Z</time>
      </trkpt>
      <trkpt lat="42.8362630" lon="-3.3448930">
        <ele>550.2</ele>
        <time>2018-10-21T08:18:08Z</time>
      </trkpt>
      <trkpt lat="42.8363470" lon="-3.3448130">
        <ele>550.2</ele>
        <time>2018-10-21T08:18:09Z</time>
      </trkpt>
      <trkpt lat="42.8364280" lon="-3.3447330">
        <ele>550.2</ele>
        <time>2018-10-21T08:18:10Z</time>
      </trkpt>
      <trkpt lat="42.8365120" lon="-3.3446530">
        <ele>550.2</ele>
        <time>2018-10-21T08:18:11Z</time>
      </trkpt>
      <trkpt lat="42.8365950" lon="-3.3445730">
        <ele>550.2</ele>
        <time>2018-10-21T08:18:12Z</time>
      </trkpt>
      <trkpt lat="42.8366780" lon="-3.3444930">
        <ele>550.2</ele>
        <time>2018-10-21T08:18:13Z</time>
      </trkpt>
      <trkpt lat="42.8367620" lon="-3.3444130">
        <ele>546.2</ele>
        <time>2018-10-21T08:18:14Z</time>
      </trkpt>
      <trkpt lat="42.8368430" lon="-3.3443330">
        <ele>546.2</ele>
        <time>2018-10-21T08:18:15Z</time>
      </trkpt>
      <trkpt lat="42.8369270" lon="-3.3442530">
        <ele>546.2</ele>
        <time>2018-10-21T08:18:16Z</time>
      </trkpt>
      <trkpt lat="42.8370080" lon="-3.3441730">
        <ele>546.2</ele>
        <time>2018-10-21T08:18:17Z</time>
      </trkpt>
      <trkpt lat="42.8370880" lon="-3.3440950">
        <ele>546.2</ele>
        <time>2018-10-21T08:18:18Z</time>
      </trkpt>
      <trkpt lat="42.8371700" lon="-3.3440200">
        <ele>546.2</ele>
        <time>2018-10-21T08:18:19Z</time>
      </trkpt>
      <trkpt lat="42.8372480" lon="-3.3439450">
        <ele>545.3</ele>
        <time>2018-10-21T08:18:20Z</time>
      </trkpt>
      <trkpt lat="42.8373270" lon="-3.3438700">
        <ele>545.3</ele>
        <time>2018-10-21T08:18:21Z</time>
      </trkpt>
      <trkpt lat="42.8374030" lon="-3.3437950">
        <ele>545.3</ele>
        <time>2018-10-21T08:18:22Z</time>
      </trkpt>
      <trkpt lat="42.8374780" lon="-3.3437230">
        <ele>545.3</ele>
        <time>2018-10-21T08:18:23Z</time>
      </trkpt>
      <trkpt lat="42.8375530" lon="-3.3436520">
        <ele>545.3</ele>
        <time>2018-10-21T08:18:24Z</time>
      </trkpt>
      <trkpt lat="42.8376270" lon="-3.3435780">
        <ele>545.3</ele>
        <time>2018-10-21T08:18:25Z</time>
      </trkpt>
      <trkpt lat="42.8376980" lon="-3.3435050">
        <ele>545.3</ele>
        <time>2018-10-21T08:18:26Z</time>
      </trkpt>
      <trkpt lat="42.8377720" lon="-3.3434350">
        <ele>545.3</ele>
        <time>2018-10-21T08:18:27Z</time>
      </trkpt>
      <trkpt lat="42.8378430" lon="-3.3433650">
        <ele>543.3</ele>
        <time>2018-10-21T08:18:28Z</time>
      </trkpt>
      <trkpt lat="42.8379170" lon="-3.3432950">
        <ele>543.3</ele>
        <time>2018-10-21T08:18:29Z</time>
      </trkpt>
      <trkpt lat="42.8379880" lon="-3.3432270">
        <ele>543.3</ele>
        <time>2018-10-21T08:18:30Z</time>
      </trkpt>
      <trkpt lat="42.8380600" lon="-3.3431580">
        <ele>543.3</ele>
        <time>2018-10-21T08:18:31Z</time>
      </trkpt>
      <trkpt lat="42.8381320" lon="-3.3430900">
        <ele>543.3</ele>
        <time>2018-10-21T08:18:32Z</time>
      </trkpt>
      <trkpt lat="42.8382030" lon="-3.3430220">
        <ele>543.3</ele>
        <time>2018-10-21T08:18:33Z</time>
      </trkpt>
      <trkpt lat="42.8382730" lon="-3.3429550">
        <ele>543.3</ele>
        <time>2018-10-21T08:18:34Z</time>
      </trkpt>
      <trkpt lat="42.8383430" lon="-3.3428880">
        <ele>543.3</ele>
        <time>2018-10-21T08:18:35Z</time>
      </trkpt>
      <trkpt lat="42.8384130" lon="-3.3428220">
        <ele>543.3</ele>
        <time>2018-10-21T08:18:36Z</time>
      </trkpt>
      <trkpt lat="42.8384820" lon="-3.3427530">
        <ele>543.3</ele>
        <time>2018-10-21T08:18:37Z</time>
      </trkpt>
      <trkpt lat="42.8385500" lon="-3.3426880">
        <ele>543.3</ele>
        <time>2018-10-21T08:18:38Z</time>
      </trkpt>
      <trkpt lat="42.8386200" lon="-3.3426220">
        <ele>543.3</ele>
        <time>2018-10-21T08:18:39Z</time>
      </trkpt>
      <trkpt lat="42.8386880" lon="-3.3425550">
        <ele>543.3</ele>
        <time>2018-10-21T08:18:40Z</time>
      </trkpt>
      <trkpt lat="42.8387580" lon="-3.3424900">
        <ele>543.3</ele>
        <time>2018-10-21T08:18:41Z</time>
      </trkpt>
      <trkpt lat="42.8388280" lon="-3.3424250">
        <ele>543.3</ele>
        <time>2018-10-21T08:18:42Z</time>
      </trkpt>
      <trkpt lat="42.8388970" lon="-3.3423600">
        <ele>543.3</ele>
        <time>2018-10-21T08:18:43Z</time>
      </trkpt>
      <trkpt lat="42.8389670" lon="-3.3422930">
        <ele>543.3</ele>
        <time>2018-10-21T08:18:44Z</time>
      </trkpt>
      <trkpt lat="42.8390350" lon="-3.3422270">
        <ele>543.3</ele>
        <time>2018-10-21T08:18:45Z</time>
      </trkpt>
      <trkpt lat="42.8391050" lon="-3.3421600">
        <ele>543.3</ele>
        <time>2018-10-21T08:18:46Z</time>
      </trkpt>
      <trkpt lat="42.8391730" lon="-3.3420930">
        <ele>543.3</ele>
        <time>2018-10-21T08:18:47Z</time>
      </trkpt>
      <trkpt lat="42.8392420" lon="-3.3420270">
        <ele>543.3</ele>
        <time>2018-10-21T08:18:48Z</time>
      </trkpt>
      <trkpt lat="42.8393100" lon="-3.3419600">
        <ele>543.3</ele>
        <time>2018-10-21T08:18:49Z</time>
      </trkpt>
      <trkpt lat="42.8393780" lon="-3.3418950">
        <ele>543.3</ele>
        <time>2018-10-21T08:18:50Z</time>
      </trkpt>
      <trkpt lat="42.8394470" lon="-3.3418300">
        <ele>543.3</ele>
        <time>2018-10-21T08:18:51Z</time>
      </trkpt>
      <trkpt lat="42.8395150" lon="-3.3417630">
        <ele>543.3</ele>
        <time>2018-10-21T08:18:52Z</time>
      </trkpt>
      <trkpt lat="42.8395830" lon="-3.3416980">
        <ele>543.3</ele>
        <time>2018-10-21T08:18:53Z</time>
      </trkpt>
      <trkpt lat="42.8396500" lon="-3.3416330">
        <ele>543.3</ele>
        <time>2018-10-21T08:18:54Z</time>
      </trkpt>
      <trkpt lat="42.8397170" lon="-3.3415700">
        <ele>543.3</ele>
        <time>2018-10-21T08:18:55Z</time>
      </trkpt>
      <trkpt lat="42.8397830" lon="-3.3415070">
        <ele>543.3</ele>
        <time>2018-10-21T08:18:56Z</time>
      </trkpt>
      <trkpt lat="42.8398500" lon="-3.3414430">
        <ele>543.3</ele>
        <time>2018-10-21T08:18:57Z</time>
      </trkpt>
      <trkpt lat="42.8399150" lon="-3.3413780">
        <ele>544.2</ele>
        <time>2018-10-21T08:18:58Z</time>
      </trkpt>
      <trkpt lat="42.8399800" lon="-3.3413130">
        <ele>544.2</ele>
        <time>2018-10-21T08:18:59Z</time>
      </trkpt>
      <trkpt lat="42.8400470" lon="-3.3412480">
        <ele>544.2</ele>
        <time>2018-10-21T08:19:00Z</time>
      </trkpt>
      <trkpt lat="42.8401130" lon="-3.3411870">
        <ele>544.2</ele>
        <time>2018-10-21T08:19:01Z</time>
      </trkpt>
      <trkpt lat="42.8401800" lon="-3.3411270">
        <ele>544.2</ele>
        <time>2018-10-21T08:19:02Z</time>
      </trkpt>
      <trkpt lat="42.8402480" lon="-3.3410680">
        <ele>544.2</ele>
        <time>2018-10-21T08:19:03Z</time>
      </trkpt>
      <trkpt lat="42.8403170" lon="-3.3410120">
        <ele>544.2</ele>
        <time>2018-10-21T08:19:04Z</time>
      </trkpt>
      <trkpt lat="42.8403850" lon="-3.3409570">
        <ele>544.2</ele>
        <time>2018-10-21T08:19:05Z</time>
      </trkpt>
      <trkpt lat="42.8404550" lon="-3.3409030">
        <ele>544.2</ele>
        <time>2018-10-21T08:19:06Z</time>
      </trkpt>
      <trkpt lat="42.8405270" lon="-3.3408520">
        <ele>544.2</ele>
        <time>2018-10-21T08:19:07Z</time>
      </trkpt>
      <trkpt lat="42.8405980" lon="-3.3408000">
        <ele>544.2</ele>
        <time>2018-10-21T08:19:08Z</time>
      </trkpt>
      <trkpt lat="42.8406700" lon="-3.3407480">
        <ele>544.2</ele>
        <time>2018-10-21T08:19:09Z</time>
      </trkpt>
      <trkpt lat="42.8407420" lon="-3.3406950">
        <ele>544.2</ele>
        <time>2018-10-21T08:19:10Z</time>
      </trkpt>
      <trkpt lat="42.8408130" lon="-3.3406430">
        <ele>544.2</ele>
        <time>2018-10-21T08:19:11Z</time>
      </trkpt>
      <trkpt lat="42.8408850" lon="-3.3405920">
        <ele>544.2</ele>
        <time>2018-10-21T08:19:12Z</time>
      </trkpt>
      <trkpt lat="42.8409570" lon="-3.3405420">
        <ele>544.2</ele>
        <time>2018-10-21T08:19:13Z</time>
      </trkpt>
      <trkpt lat="42.8410270" lon="-3.3404900">
        <ele>544.2</ele>
        <time>2018-10-21T08:19:14Z</time>
      </trkpt>
      <trkpt lat="42.8410980" lon="-3.3404400">
        <ele>544.2</ele>
        <time>2018-10-21T08:19:15Z</time>
      </trkpt>
      <trkpt lat="42.8411680" lon="-3.3403880">
        <ele>544.2</ele>
        <time>2018-10-21T08:19:16Z</time>
      </trkpt>
      <trkpt lat="42.8412370" lon="-3.3403380">
        <ele>544.2</ele>
        <time>2018-10-21T08:19:17Z</time>
      </trkpt>
      <trkpt lat="42.8413070" lon="-3.3402870">
        <ele>544.2</ele>
        <time>2018-10-21T08:19:18Z</time>
      </trkpt>
      <trkpt lat="42.8413750" lon="-3.3402370">
        <ele>544.2</ele>
        <time>2018-10-21T08:19:19Z</time>
      </trkpt>
      <trkpt lat="42.8414450" lon="-3.3401870">
        <ele>544.2</ele>
        <time>2018-10-21T08:19:20Z</time>
      </trkpt>
      <trkpt lat="42.8415130" lon="-3.3401380">
        <ele>544.2</ele>
        <time>2018-10-21T08:19:21Z</time>
      </trkpt>
      <trkpt lat="42.8415830" lon="-3.3400900">
        <ele>544.2</ele>
        <time>2018-10-21T08:19:22Z</time>
      </trkpt>
      <trkpt lat="42.8416520" lon="-3.3400420">
        <ele>544.2</ele>
        <time>2018-10-21T08:19:23Z</time>
      </trkpt>
      <trkpt lat="42.8417200" lon="-3.3399950">
        <ele>544.2</ele>
        <time>2018-10-21T08:19:24Z</time>
      </trkpt>
      <trkpt lat="42.8417880" lon="-3.3399450">
        <ele>544.2</ele>
        <time>2018-10-21T08:19:25Z</time>
      </trkpt>
      <trkpt lat="42.8418570" lon="-3.3398970">
        <ele>544.2</ele>
        <time>2018-10-21T08:19:26Z</time>
      </trkpt>
      <trkpt lat="42.8419270" lon="-3.3398480">
        <ele>544.2</ele>
        <time>2018-10-21T08:19:27Z</time>
      </trkpt>
      <trkpt lat="42.8419930" lon="-3.3397980">
        <ele>544.2</ele>
        <time>2018-10-21T08:19:28Z</time>
      </trkpt>
      <trkpt lat="42.8420620" lon="-3.3397480">
        <ele>544.2</ele>
        <time>2018-10-21T08:19:29Z</time>
      </trkpt>
      <trkpt lat="42.8421280" lon="-3.3396980">
        <ele>544.2</ele>
        <time>2018-10-21T08:19:30Z</time>
      </trkpt>
      <trkpt lat="42.8421950" lon="-3.3396480">
        <ele>544.2</ele>
        <time>2018-10-21T08:19:31Z</time>
      </trkpt>
      <trkpt lat="42.8422620" lon="-3.3395980">
        <ele>544.2</ele>
        <time>2018-10-21T08:19:32Z</time>
      </trkpt>
      <trkpt lat="42.8423300" lon="-3.3395500">
        <ele>544.2</ele>
        <time>2018-10-21T08:19:33Z</time>
      </trkpt>
      <trkpt lat="42.8423980" lon="-3.3395000">
        <ele>545.3</ele>
        <time>2018-10-21T08:19:34Z</time>
      </trkpt>
      <trkpt lat="42.8424670" lon="-3.3394500">
        <ele>545.3</ele>
        <time>2018-10-21T08:19:35Z</time>
      </trkpt>
      <trkpt lat="42.8425350" lon="-3.3394000">
        <ele>545.3</ele>
        <time>2018-10-21T08:19:36Z</time>
      </trkpt>
      <trkpt lat="42.8426030" lon="-3.3393520">
        <ele>545.3</ele>
        <time>2018-10-21T08:19:37Z</time>
      </trkpt>
      <trkpt lat="42.8426720" lon="-3.3393020">
        <ele>545.3</ele>
        <time>2018-10-21T08:19:38Z</time>
      </trkpt>
      <trkpt lat="42.8427400" lon="-3.3392500">
        <ele>545.3</ele>
        <time>2018-10-21T08:19:39Z</time>
      </trkpt>
      <trkpt lat="42.8428080" lon="-3.3392000">
        <ele>545.3</ele>
        <time>2018-10-21T08:19:40Z</time>
      </trkpt>
      <trkpt lat="42.8428770" lon="-3.3391520">
        <ele>545.3</ele>
        <time>2018-10-21T08:19:41Z</time>
      </trkpt>
      <trkpt lat="42.8429450" lon="-3.3391030">
        <ele>545.3</ele>
        <time>2018-10-21T08:19:42Z</time>
      </trkpt>
      <trkpt lat="42.8430120" lon="-3.3390570">
        <ele>545.3</ele>
        <time>2018-10-21T08:19:43Z</time>
      </trkpt>
      <trkpt lat="42.8430800" lon="-3.3390080">
        <ele>545.3</ele>
        <time>2018-10-21T08:19:44Z</time>
      </trkpt>
      <trkpt lat="42.8431470" lon="-3.3389580">
        <ele>545.3</ele>
        <time>2018-10-21T08:19:45Z</time>
      </trkpt>
      <trkpt lat="42.8432130" lon="-3.3389100">
        <ele>545.3</ele>
        <time>2018-10-21T08:19:46Z</time>
      </trkpt>
      <trkpt lat="42.8432820" lon="-3.3388620">
        <ele>545.3</ele>
        <time>2018-10-21T08:19:47Z</time>
      </trkpt>
      <trkpt lat="42.8433480" lon="-3.3388120">
        <ele>545.3</ele>
        <time>2018-10-21T08:19:48Z</time>
      </trkpt>
      <trkpt lat="42.8434150" lon="-3.3387630">
        <ele>545.3</ele>
        <time>2018-10-21T08:19:49Z</time>
      </trkpt>
      <trkpt lat="42.8434820" lon="-3.3387150">
        <ele>545.3</ele>
        <time>2018-10-21T08:19:50Z</time>
      </trkpt>
      <trkpt lat="42.8435480" lon="-3.3386670">
        <ele>545.3</ele>
        <time>2018-10-21T08:19:51Z</time>
      </trkpt>
      <trkpt lat="42.8436150" lon="-3.3386180">
        <ele>545.3</ele>
        <time>2018-10-21T08:19:52Z</time>
      </trkpt>
      <trkpt lat="42.8436820" lon="-3.3385680">
        <ele>545.3</ele>
        <time>2018-10-21T08:19:53Z</time>
      </trkpt>
      <trkpt lat="42.8437500" lon="-3.3385200">
        <ele>545.3</ele>
        <time>2018-10-21T08:19:54Z</time>
      </trkpt>
      <trkpt lat="42.8438170" lon="-3.3384730">
        <ele>545.3</ele>
        <time>2018-10-21T08:19:55Z</time>
      </trkpt>
      <trkpt lat="42.8438850" lon="-3.3384250">
        <ele>545.3</ele>
        <time>2018-10-21T08:19:56Z</time>
      </trkpt>
      <trkpt lat="42.8439520" lon="-3.3383770">
        <ele>545.3</ele>
        <time>2018-10-21T08:19:57Z</time>
      </trkpt>
      <trkpt lat="42.8440180" lon="-3.3383280">
        <ele>545.3</ele>
        <time>2018-10-21T08:19:58Z</time>
      </trkpt>
      <trkpt lat="42.8440850" lon="-3.3382820">
        <ele>545.3</ele>
        <time>2018-10-21T08:19:59Z</time>
      </trkpt>
      <trkpt lat="42.8441530" lon="-3.3382330">
        <ele>545.3</ele>
        <time>2018-10-21T08:20:00Z</time>
      </trkpt>
      <trkpt lat="42.8442200" lon="-3.3381870">
        <ele>545.3</ele>
        <time>2018-10-21T08:20:01Z</time>
      </trkpt>
      <trkpt lat="42.8442870" lon="-3.3381380">
        <ele>545.3</ele>
        <time>2018-10-21T08:20:02Z</time>
      </trkpt>
      <trkpt lat="42.8443530" lon="-3.3380900">
        <ele>545.3</ele>
        <time>2018-10-21T08:20:03Z</time>
      </trkpt>
      <trkpt lat="42.8444200" lon="-3.3380430">
        <ele>546.2</ele>
        <time>2018-10-21T08:20:04Z</time>
      </trkpt>
      <trkpt lat="42.8444870" lon="-3.3379970">
        <ele>546.2</ele>
        <time>2018-10-21T08:20:05Z</time>
      </trkpt>
      <trkpt lat="42.8445530" lon="-3.3379480">
        <ele>546.2</ele>
        <time>2018-10-21T08:20:06Z</time>
      </trkpt>
      <trkpt lat="42.8446200" lon="-3.3378980">
        <ele>546.2</ele>
        <time>2018-10-21T08:20:07Z</time>
      </trkpt>
      <trkpt lat="42.8446870" lon="-3.3378520">
        <ele>546.2</ele>
        <time>2018-10-21T08:20:08Z</time>
      </trkpt>
      <trkpt lat="42.8447530" lon="-3.3378030">
        <ele>546.2</ele>
        <time>2018-10-21T08:20:09Z</time>
      </trkpt>
      <trkpt lat="42.8448180" lon="-3.3377570">
        <ele>546.2</ele>
        <time>2018-10-21T08:20:10Z</time>
      </trkpt>
      <trkpt lat="42.8448850" lon="-3.3377100">
        <ele>546.2</ele>
        <time>2018-10-21T08:20:11Z</time>
      </trkpt>
      <trkpt lat="42.8449500" lon="-3.3376630">
        <ele>546.2</ele>
        <time>2018-10-21T08:20:12Z</time>
      </trkpt>
      <trkpt lat="42.8450170" lon="-3.3376150">
        <ele>546.2</ele>
        <time>2018-10-21T08:20:13Z</time>
      </trkpt>
      <trkpt lat="42.8450820" lon="-3.3375680">
        <ele>546.2</ele>
        <time>2018-10-21T08:20:14Z</time>
      </trkpt>
      <trkpt lat="42.8451470" lon="-3.3375220">
        <ele>546.2</ele>
        <time>2018-10-21T08:20:15Z</time>
      </trkpt>
      <trkpt lat="42.8452100" lon="-3.3374750">
        <ele>546.2</ele>
        <time>2018-10-21T08:20:16Z</time>
      </trkpt>
      <trkpt lat="42.8452750" lon="-3.3374280">
        <ele>546.2</ele>
        <time>2018-10-21T08:20:17Z</time>
      </trkpt>
      <trkpt lat="42.8453420" lon="-3.3373820">
        <ele>546.2</ele>
        <time>2018-10-21T08:20:18Z</time>
      </trkpt>
      <trkpt lat="42.8454070" lon="-3.3373350">
        <ele>546.2</ele>
        <time>2018-10-21T08:20:19Z</time>
      </trkpt>
      <trkpt lat="42.8454700" lon="-3.3372880">
        <ele>546.2</ele>
        <time>2018-10-21T08:20:20Z</time>
      </trkpt>
      <trkpt lat="42.8455350" lon="-3.3372430">
        <ele>546.2</ele>
        <time>2018-10-21T08:20:21Z</time>
      </trkpt>
      <trkpt lat="42.8455980" lon="-3.3371980">
        <ele>546.2</ele>
        <time>2018-10-21T08:20:22Z</time>
      </trkpt>
      <trkpt lat="42.8456620" lon="-3.3371530">
        <ele>546.2</ele>
        <time>2018-10-21T08:20:23Z</time>
      </trkpt>
      <trkpt lat="42.8457250" lon="-3.3371080">
        <ele>547.3</ele>
        <time>2018-10-21T08:20:24Z</time>
      </trkpt>
      <trkpt lat="42.8457880" lon="-3.3370620">
        <ele>547.3</ele>
        <time>2018-10-21T08:20:25Z</time>
      </trkpt>
      <trkpt lat="42.8458520" lon="-3.3370170">
        <ele>547.3</ele>
        <time>2018-10-21T08:20:26Z</time>
      </trkpt>
      <trkpt lat="42.8459150" lon="-3.3369720">
        <ele>547.3</ele>
        <time>2018-10-21T08:20:27Z</time>
      </trkpt>
      <trkpt lat="42.8459770" lon="-3.3369250">
        <ele>547.3</ele>
        <time>2018-10-21T08:20:28Z</time>
      </trkpt>
      <trkpt lat="42.8460400" lon="-3.3368800">
        <ele>547.3</ele>
        <time>2018-10-21T08:20:29Z</time>
      </trkpt>
      <trkpt lat="42.8461020" lon="-3.3368330">
        <ele>547.3</ele>
        <time>2018-10-21T08:20:30Z</time>
      </trkpt>
      <trkpt lat="42.8461650" lon="-3.3367870">
        <ele>547.3</ele>
        <time>2018-10-21T08:20:31Z</time>
      </trkpt>
      <trkpt lat="42.8462270" lon="-3.3367420">
        <ele>547.3</ele>
        <time>2018-10-21T08:20:32Z</time>
      </trkpt>
      <trkpt lat="42.8462900" lon="-3.3366970">
        <ele>547.3</ele>
        <time>2018-10-21T08:20:33Z</time>
      </trkpt>
      <trkpt lat="42.8463530" lon="-3.3366500">
        <ele>547.3</ele>
        <time>2018-10-21T08:20:34Z</time>
      </trkpt>
      <trkpt lat="42.8464170" lon="-3.3366050">
        <ele>547.3</ele>
        <time>2018-10-21T08:20:35Z</time>
      </trkpt>
      <trkpt lat="42.8464820" lon="-3.3365600">
        <ele>548.2</ele>
        <time>2018-10-21T08:20:36Z</time>
      </trkpt>
      <trkpt lat="42.8465450" lon="-3.3365150">
        <ele>548.2</ele>
        <time>2018-10-21T08:20:37Z</time>
      </trkpt>
      <trkpt lat="42.8466100" lon="-3.3364680">
        <ele>548.2</ele>
        <time>2018-10-21T08:20:38Z</time>
      </trkpt>
      <trkpt lat="42.8466730" lon="-3.3364220">
        <ele>548.2</ele>
        <time>2018-10-21T08:20:39Z</time>
      </trkpt>
      <trkpt lat="42.8467380" lon="-3.3363770">
        <ele>548.2</ele>
        <time>2018-10-21T08:20:40Z</time>
      </trkpt>
      <trkpt lat="42.8468030" lon="-3.3363300">
        <ele>548.2</ele>
        <time>2018-10-21T08:20:41Z</time>
      </trkpt>
      <trkpt lat="42.8468680" lon="-3.3362830">
        <ele>548.2</ele>
        <time>2018-10-21T08:20:42Z</time>
      </trkpt>
      <trkpt lat="42.8469320" lon="-3.3362350">
        <ele>548.2</ele>
        <time>2018-10-21T08:20:43Z</time>
      </trkpt>
      <trkpt lat="42.8469980" lon="-3.3361880">
        <ele>548.2</ele>
        <time>2018-10-21T08:20:44Z</time>
      </trkpt>
      <trkpt lat="42.8470630" lon="-3.3361430">
        <ele>548.2</ele>
        <time>2018-10-21T08:20:45Z</time>
      </trkpt>
      <trkpt lat="42.8471280" lon="-3.3360970">
        <ele>548.2</ele>
        <time>2018-10-21T08:20:46Z</time>
      </trkpt>
      <trkpt lat="42.8471930" lon="-3.3360500">
        <ele>548.2</ele>
        <time>2018-10-21T08:20:47Z</time>
      </trkpt>
      <trkpt lat="42.8472580" lon="-3.3360050">
        <ele>548.2</ele>
        <time>2018-10-21T08:20:48Z</time>
      </trkpt>
      <trkpt lat="42.8473230" lon="-3.3359580">
        <ele>548.2</ele>
        <time>2018-10-21T08:20:49Z</time>
      </trkpt>
      <trkpt lat="42.8473880" lon="-3.3359130">
        <ele>548.2</ele>
        <time>2018-10-21T08:20:50Z</time>
      </trkpt>
      <trkpt lat="42.8474530" lon="-3.3358680">
        <ele>548.2</ele>
        <time>2018-10-21T08:20:51Z</time>
      </trkpt>
      <trkpt lat="42.8475170" lon="-3.3358230">
        <ele>548.2</ele>
        <time>2018-10-21T08:20:52Z</time>
      </trkpt>
      <trkpt lat="42.8475800" lon="-3.3357750">
        <ele>548.2</ele>
        <time>2018-10-21T08:20:53Z</time>
      </trkpt>
      <trkpt lat="42.8476430" lon="-3.3357280">
        <ele>548.2</ele>
        <time>2018-10-21T08:20:54Z</time>
      </trkpt>
      <trkpt lat="42.8477070" lon="-3.3356820">
        <ele>548.2</ele>
        <time>2018-10-21T08:20:55Z</time>
      </trkpt>
      <trkpt lat="42.8477720" lon="-3.3356350">
        <ele>548.2</ele>
        <time>2018-10-21T08:20:56Z</time>
      </trkpt>
      <trkpt lat="42.8478370" lon="-3.3355880">
        <ele>548.2</ele>
        <time>2018-10-21T08:20:57Z</time>
      </trkpt>
      <trkpt lat="42.8479020" lon="-3.3355430">
        <ele>548.2</ele>
        <time>2018-10-21T08:20:58Z</time>
      </trkpt>
      <trkpt lat="42.8479670" lon="-3.3354980">
        <ele>548.2</ele>
        <time>2018-10-21T08:20:59Z</time>
      </trkpt>
      <trkpt lat="42.8480330" lon="-3.3354570">
        <ele>548.2</ele>
        <time>2018-10-21T08:21:00Z</time>
      </trkpt>
      <trkpt lat="42.8480980" lon="-3.3354130">
        <ele>548.2</ele>
        <time>2018-10-21T08:21:01Z</time>
      </trkpt>
      <trkpt lat="42.8481630" lon="-3.3353720">
        <ele>548.2</ele>
        <time>2018-10-21T08:21:02Z</time>
      </trkpt>
      <trkpt lat="42.8482300" lon="-3.3353300">
        <ele>548.2</ele>
        <time>2018-10-21T08:21:03Z</time>
      </trkpt>
      <trkpt lat="42.8482970" lon="-3.3352870">
        <ele>548.2</ele>
        <time>2018-10-21T08:21:04Z</time>
      </trkpt>
      <trkpt lat="42.8483630" lon="-3.3352500">
        <ele>548.2</ele>
        <time>2018-10-21T08:21:05Z</time>
      </trkpt>
      <trkpt lat="42.8484320" lon="-3.3352150">
        <ele>548.2</ele>
        <time>2018-10-21T08:21:06Z</time>
      </trkpt>
      <trkpt lat="42.8484980" lon="-3.3351820">
        <ele>548.2</ele>
        <time>2018-10-21T08:21:07Z</time>
      </trkpt>
      <trkpt lat="42.8485650" lon="-3.3351500">
        <ele>548.2</ele>
        <time>2018-10-21T08:21:08Z</time>
      </trkpt>
      <trkpt lat="42.8486320" lon="-3.3351170">
        <ele>548.2</ele>
        <time>2018-10-21T08:21:09Z</time>
      </trkpt>
      <trkpt lat="42.8486970" lon="-3.3350870">
        <ele>548.2</ele>
        <time>2018-10-21T08:21:10Z</time>
      </trkpt>
      <trkpt lat="42.8487630" lon="-3.3350580">
        <ele>548.2</ele>
        <time>2018-10-21T08:21:11Z</time>
      </trkpt>
      <trkpt lat="42.8488270" lon="-3.3350280">
        <ele>549.3</ele>
        <time>2018-10-21T08:21:12Z</time>
      </trkpt>
      <trkpt lat="42.8488880" lon="-3.3349980">
        <ele>549.3</ele>
        <time>2018-10-21T08:21:13Z</time>
      </trkpt>
      <trkpt lat="42.8489500" lon="-3.3349650">
        <ele>549.3</ele>
        <time>2018-10-21T08:21:14Z</time>
      </trkpt>
      <trkpt lat="42.8490130" lon="-3.3349350">
        <ele>549.3</ele>
        <time>2018-10-21T08:21:15Z</time>
      </trkpt>
      <trkpt lat="42.8490780" lon="-3.3349070">
        <ele>550.2</ele>
        <time>2018-10-21T08:21:16Z</time>
      </trkpt>
      <trkpt lat="42.8491400" lon="-3.3348750">
        <ele>550.2</ele>
        <time>2018-10-21T08:21:17Z</time>
      </trkpt>
      <trkpt lat="42.8492030" lon="-3.3348430">
        <ele>550.2</ele>
        <time>2018-10-21T08:21:18Z</time>
      </trkpt>
      <trkpt lat="42.8492670" lon="-3.3348120">
        <ele>550.2</ele>
        <time>2018-10-21T08:21:19Z</time>
      </trkpt>
      <trkpt lat="42.8493280" lon="-3.3347820">
        <ele>550.2</ele>
        <time>2018-10-21T08:21:20Z</time>
      </trkpt>
      <trkpt lat="42.8493930" lon="-3.3347520">
        <ele>550.2</ele>
        <time>2018-10-21T08:21:21Z</time>
      </trkpt>
      <trkpt lat="42.8494600" lon="-3.3347200">
        <ele>551.2</ele>
        <time>2018-10-21T08:21:22Z</time>
      </trkpt>
      <trkpt lat="42.8495270" lon="-3.3346920">
        <ele>551.2</ele>
        <time>2018-10-21T08:21:23Z</time>
      </trkpt>
      <trkpt lat="42.8495930" lon="-3.3346600">
        <ele>551.2</ele>
        <time>2018-10-21T08:21:24Z</time>
      </trkpt>
      <trkpt lat="42.8496600" lon="-3.3346270">
        <ele>551.2</ele>
        <time>2018-10-21T08:21:25Z</time>
      </trkpt>
      <trkpt lat="42.8497270" lon="-3.3345950">
        <ele>551.2</ele>
        <time>2018-10-21T08:21:26Z</time>
      </trkpt>
      <trkpt lat="42.8497950" lon="-3.3345630">
        <ele>551.2</ele>
        <time>2018-10-21T08:21:27Z</time>
      </trkpt>
      <trkpt lat="42.8498620" lon="-3.3345300">
        <ele>551.2</ele>
        <time>2018-10-21T08:21:28Z</time>
      </trkpt>
      <trkpt lat="42.8499300" lon="-3.3345000">
        <ele>551.2</ele>
        <time>2018-10-21T08:21:29Z</time>
      </trkpt>
      <trkpt lat="42.8499980" lon="-3.3344680">
        <ele>551.2</ele>
        <time>2018-10-21T08:21:30Z</time>
      </trkpt>
      <trkpt lat="42.8500670" lon="-3.3344370">
        <ele>551.2</ele>
        <time>2018-10-21T08:21:31Z</time>
      </trkpt>
      <trkpt lat="42.8501330" lon="-3.3344050">
        <ele>550.2</ele>
        <time>2018-10-21T08:21:32Z</time>
      </trkpt>
      <trkpt lat="42.8502020" lon="-3.3343730">
        <ele>550.2</ele>
        <time>2018-10-21T08:21:33Z</time>
      </trkpt>
      <trkpt lat="42.8502700" lon="-3.3343430">
        <ele>550.2</ele>
        <time>2018-10-21T08:21:34Z</time>
      </trkpt>
      <trkpt lat="42.8503380" lon="-3.3343100">
        <ele>550.2</ele>
        <time>2018-10-21T08:21:35Z</time>
      </trkpt>
      <trkpt lat="42.8504070" lon="-3.3342770">
        <ele>550.2</ele>
        <time>2018-10-21T08:21:36Z</time>
      </trkpt>
      <trkpt lat="42.8504730" lon="-3.3342450">
        <ele>550.2</ele>
        <time>2018-10-21T08:21:37Z</time>
      </trkpt>
      <trkpt lat="42.8505420" lon="-3.3342120">
        <ele>550.2</ele>
        <time>2018-10-21T08:21:38Z</time>
      </trkpt>
      <trkpt lat="42.8506080" lon="-3.3341780">
        <ele>550.2</ele>
        <time>2018-10-21T08:21:39Z</time>
      </trkpt>
      <trkpt lat="42.8506770" lon="-3.3341470">
        <ele>550.2</ele>
        <time>2018-10-21T08:21:40Z</time>
      </trkpt>
      <trkpt lat="42.8507450" lon="-3.3341150">
        <ele>550.2</ele>
        <time>2018-10-21T08:21:41Z</time>
      </trkpt>
      <trkpt lat="42.8508130" lon="-3.3340830">
        <ele>550.2</ele>
        <time>2018-10-21T08:21:42Z</time>
      </trkpt>
      <trkpt lat="42.8508830" lon="-3.3340530">
        <ele>550.2</ele>
        <time>2018-10-21T08:21:43Z</time>
      </trkpt>
      <trkpt lat="42.8509520" lon="-3.3340220">
        <ele>550.2</ele>
        <time>2018-10-21T08:21:44Z</time>
      </trkpt>
      <trkpt lat="42.8510200" lon="-3.3339880">
        <ele>550.2</ele>
        <time>2018-10-21T08:21:45Z</time>
      </trkpt>
      <trkpt lat="42.8510880" lon="-3.3339530">
        <ele>550.2</ele>
        <time>2018-10-21T08:21:46Z</time>
      </trkpt>
      <trkpt lat="42.8511580" lon="-3.3339200">
        <ele>550.2</ele>
        <time>2018-10-21T08:21:47Z</time>
      </trkpt>
      <trkpt lat="42.8512270" lon="-3.3338870">
        <ele>550.2</ele>
        <time>2018-10-21T08:21:48Z</time>
      </trkpt>
      <trkpt lat="42.8512970" lon="-3.3338550">
        <ele>550.2</ele>
        <time>2018-10-21T08:21:49Z</time>
      </trkpt>
      <trkpt lat="42.8513650" lon="-3.3338250">
        <ele>550.2</ele>
        <time>2018-10-21T08:21:50Z</time>
      </trkpt>
      <trkpt lat="42.8514330" lon="-3.3337920">
        <ele>550.2</ele>
        <time>2018-10-21T08:21:51Z</time>
      </trkpt>
      <trkpt lat="42.8515030" lon="-3.3337620">
        <ele>550.2</ele>
        <time>2018-10-21T08:21:52Z</time>
      </trkpt>
      <trkpt lat="42.8515730" lon="-3.3337320">
        <ele>550.2</ele>
        <time>2018-10-21T08:21:53Z</time>
      </trkpt>
      <trkpt lat="42.8516430" lon="-3.3336980">
        <ele>550.2</ele>
        <time>2018-10-21T08:21:54Z</time>
      </trkpt>
      <trkpt lat="42.8517130" lon="-3.3336650">
        <ele>550.2</ele>
        <time>2018-10-21T08:21:55Z</time>
      </trkpt>
      <trkpt lat="42.8517830" lon="-3.3336320">
        <ele>550.2</ele>
        <time>2018-10-21T08:21:56Z</time>
      </trkpt>
      <trkpt lat="42.8518520" lon="-3.3336000">
        <ele>550.2</ele>
        <time>2018-10-21T08:21:57Z</time>
      </trkpt>
      <trkpt lat="42.8519220" lon="-3.3335670">
        <ele>550.2</ele>
        <time>2018-10-21T08:21:58Z</time>
      </trkpt>
      <trkpt lat="42.8519900" lon="-3.3335350">
        <ele>550.2</ele>
        <time>2018-10-21T08:21:59Z</time>
      </trkpt>
      <trkpt lat="42.8520600" lon="-3.3335030">
        <ele>550.2</ele>
        <time>2018-10-21T08:22:00Z</time>
      </trkpt>
      <trkpt lat="42.8521300" lon="-3.3334720">
        <ele>550.2</ele>
        <time>2018-10-21T08:22:01Z</time>
      </trkpt>
      <trkpt lat="42.8522000" lon="-3.3334380">
        <ele>550.2</ele>
        <time>2018-10-21T08:22:02Z</time>
      </trkpt>
      <trkpt lat="42.8522700" lon="-3.3334070">
        <ele>550.2</ele>
        <time>2018-10-21T08:22:03Z</time>
      </trkpt>
      <trkpt lat="42.8523400" lon="-3.3333750">
        <ele>549.3</ele>
        <time>2018-10-21T08:22:04Z</time>
      </trkpt>
      <trkpt lat="42.8524100" lon="-3.3333430">
        <ele>549.3</ele>
        <time>2018-10-21T08:22:05Z</time>
      </trkpt>
      <trkpt lat="42.8524800" lon="-3.3333100">
        <ele>549.3</ele>
        <time>2018-10-21T08:22:06Z</time>
      </trkpt>
      <trkpt lat="42.8525500" lon="-3.3332770">
        <ele>549.3</ele>
        <time>2018-10-21T08:22:07Z</time>
      </trkpt>
      <trkpt lat="42.8526180" lon="-3.3332450">
        <ele>549.3</ele>
        <time>2018-10-21T08:22:08Z</time>
      </trkpt>
      <trkpt lat="42.8526870" lon="-3.3332150">
        <ele>549.3</ele>
        <time>2018-10-21T08:22:09Z</time>
      </trkpt>
      <trkpt lat="42.8527550" lon="-3.3331820">
        <ele>549.3</ele>
        <time>2018-10-21T08:22:10Z</time>
      </trkpt>
      <trkpt lat="42.8528220" lon="-3.3331500">
        <ele>549.3</ele>
        <time>2018-10-21T08:22:11Z</time>
      </trkpt>
      <trkpt lat="42.8528880" lon="-3.3331200">
        <ele>549.3</ele>
        <time>2018-10-21T08:22:12Z</time>
      </trkpt>
      <trkpt lat="42.8529530" lon="-3.3330870">
        <ele>549.3</ele>
        <time>2018-10-21T08:22:13Z</time>
      </trkpt>
      <trkpt lat="42.8530200" lon="-3.3330550">
        <ele>549.3</ele>
        <time>2018-10-21T08:22:14Z</time>
      </trkpt>
      <trkpt lat="42.8530820" lon="-3.3330230">
        <ele>549.3</ele>
        <time>2018-10-21T08:22:15Z</time>
      </trkpt>
      <trkpt lat="42.8531470" lon="-3.3329900">
        <ele>550.2</ele>
        <time>2018-10-21T08:22:16Z</time>
      </trkpt>
      <trkpt lat="42.8532100" lon="-3.3329600">
        <ele>550.2</ele>
        <time>2018-10-21T08:22:17Z</time>
      </trkpt>
      <trkpt lat="42.8532750" lon="-3.3329280">
        <ele>550.2</ele>
        <time>2018-10-21T08:22:18Z</time>
      </trkpt>
      <trkpt lat="42.8533400" lon="-3.3329000">
        <ele>550.2</ele>
        <time>2018-10-21T08:22:19Z</time>
      </trkpt>
      <trkpt lat="42.8534050" lon="-3.3328700">
        <ele>550.2</ele>
        <time>2018-10-21T08:22:20Z</time>
      </trkpt>
      <trkpt lat="42.8534680" lon="-3.3328400">
        <ele>550.2</ele>
        <time>2018-10-21T08:22:21Z</time>
      </trkpt>
      <trkpt lat="42.8535320" lon="-3.3328080">
        <ele>550.2</ele>
        <time>2018-10-21T08:22:22Z</time>
      </trkpt>
      <trkpt lat="42.8535950" lon="-3.3327780">
        <ele>550.2</ele>
        <time>2018-10-21T08:22:23Z</time>
      </trkpt>
      <trkpt lat="42.8536600" lon="-3.3327480">
        <ele>551.2</ele>
        <time>2018-10-21T08:22:24Z</time>
      </trkpt>
      <trkpt lat="42.8537220" lon="-3.3327180">
        <ele>551.2</ele>
        <time>2018-10-21T08:22:25Z</time>
      </trkpt>
      <trkpt lat="42.8537870" lon="-3.3326880">
        <ele>551.2</ele>
        <time>2018-10-21T08:22:26Z</time>
      </trkpt>
      <trkpt lat="42.8538500" lon="-3.3326580">
        <ele>551.2</ele>
        <time>2018-10-21T08:22:27Z</time>
      </trkpt>
      <trkpt lat="42.8539150" lon="-3.3326280">
        <ele>551.2</ele>
        <time>2018-10-21T08:22:28Z</time>
      </trkpt>
      <trkpt lat="42.8539780" lon="-3.3325970">
        <ele>551.2</ele>
        <time>2018-10-21T08:22:29Z</time>
      </trkpt>
      <trkpt lat="42.8540430" lon="-3.3325670">
        <ele>551.2</ele>
        <time>2018-10-21T08:22:30Z</time>
      </trkpt>
      <trkpt lat="42.8541070" lon="-3.3325350">
        <ele>551.2</ele>
        <time>2018-10-21T08:22:31Z</time>
      </trkpt>
      <trkpt lat="42.8541720" lon="-3.3325050">
        <ele>551.2</ele>
        <time>2018-10-21T08:22:32Z</time>
      </trkpt>
      <trkpt lat="42.8542370" lon="-3.3324750">
        <ele>551.2</ele>
        <time>2018-10-21T08:22:33Z</time>
      </trkpt>
      <trkpt lat="42.8543020" lon="-3.3324430">
        <ele>551.2</ele>
        <time>2018-10-21T08:22:34Z</time>
      </trkpt>
      <trkpt lat="42.8543670" lon="-3.3324130">
        <ele>551.2</ele>
        <time>2018-10-21T08:22:35Z</time>
      </trkpt>
      <trkpt lat="42.8544280" lon="-3.3323800">
        <ele>551.2</ele>
        <time>2018-10-21T08:22:36Z</time>
      </trkpt>
      <trkpt lat="42.8544930" lon="-3.3323500">
        <ele>551.2</ele>
        <time>2018-10-21T08:22:37Z</time>
      </trkpt>
      <trkpt lat="42.8545570" lon="-3.3323220">
        <ele>551.2</ele>
        <time>2018-10-21T08:22:38Z</time>
      </trkpt>
      <trkpt lat="42.8546180" lon="-3.3322900">
        <ele>551.2</ele>
        <time>2018-10-21T08:22:39Z</time>
      </trkpt>
      <trkpt lat="42.8546830" lon="-3.3322620">
        <ele>551.2</ele>
        <time>2018-10-21T08:22:40Z</time>
      </trkpt>
      <trkpt lat="42.8547450" lon="-3.3322330">
        <ele>551.2</ele>
        <time>2018-10-21T08:22:41Z</time>
      </trkpt>
      <trkpt lat="42.8548100" lon="-3.3322050">
        <ele>551.2</ele>
        <time>2018-10-21T08:22:42Z</time>
      </trkpt>
      <trkpt lat="42.8548730" lon="-3.3321780">
        <ele>551.2</ele>
        <time>2018-10-21T08:22:43Z</time>
      </trkpt>
      <trkpt lat="42.8549370" lon="-3.3321530">
        <ele>551.2</ele>
        <time>2018-10-21T08:22:44Z</time>
      </trkpt>
      <trkpt lat="42.8550000" lon="-3.3321300">
        <ele>551.2</ele>
        <time>2018-10-21T08:22:45Z</time>
      </trkpt>
      <trkpt lat="42.8550650" lon="-3.3321100">
        <ele>551.2</ele>
        <time>2018-10-21T08:22:46Z</time>
      </trkpt>
      <trkpt lat="42.8551300" lon="-3.3320930">
        <ele>551.2</ele>
        <time>2018-10-21T08:22:47Z</time>
      </trkpt>
      <trkpt lat="42.8551950" lon="-3.3320850">
        <ele>551.2</ele>
        <time>2018-10-21T08:22:48Z</time>
      </trkpt>
      <trkpt lat="42.8552600" lon="-3.3320830">
        <ele>551.2</ele>
        <time>2018-10-21T08:22:49Z</time>
      </trkpt>
      <trkpt lat="42.8553270" lon="-3.3320900">
        <ele>551.2</ele>
        <time>2018-10-21T08:22:50Z</time>
      </trkpt>
      <trkpt lat="42.8553900" lon="-3.3321030">
        <ele>551.2</ele>
        <time>2018-10-21T08:22:51Z</time>
      </trkpt>
      <trkpt lat="42.8554550" lon="-3.3321230">
        <ele>551.2</ele>
        <time>2018-10-21T08:22:52Z</time>
      </trkpt>
      <trkpt lat="42.8555200" lon="-3.3321520">
        <ele>551.2</ele>
        <time>2018-10-21T08:22:53Z</time>
      </trkpt>
      <trkpt lat="42.8555820" lon="-3.3321870">
        <ele>551.2</ele>
        <time>2018-10-21T08:22:54Z</time>
      </trkpt>
      <trkpt lat="42.8556420" lon="-3.3322270">
        <ele>551.2</ele>
        <time>2018-10-21T08:22:55Z</time>
      </trkpt>
      <trkpt lat="42.8557020" lon="-3.3322680">
        <ele>552.3</ele>
        <time>2018-10-21T08:22:56Z</time>
      </trkpt>
      <trkpt lat="42.8557580" lon="-3.3323130">
        <ele>552.3</ele>
        <time>2018-10-21T08:22:57Z</time>
      </trkpt>
      <trkpt lat="42.8558150" lon="-3.3323620">
        <ele>552.3</ele>
        <time>2018-10-21T08:22:58Z</time>
      </trkpt>
      <trkpt lat="42.8558720" lon="-3.3324080">
        <ele>552.3</ele>
        <time>2018-10-21T08:22:59Z</time>
      </trkpt>
      <trkpt lat="42.8559270" lon="-3.3324550">
        <ele>552.3</ele>
        <time>2018-10-21T08:23:00Z</time>
      </trkpt>
      <trkpt lat="42.8559830" lon="-3.3325030">
        <ele>552.3</ele>
        <time>2018-10-21T08:23:01Z</time>
      </trkpt>
      <trkpt lat="42.8560380" lon="-3.3325500">
        <ele>552.3</ele>
        <time>2018-10-21T08:23:02Z</time>
      </trkpt>
      <trkpt lat="42.8560930" lon="-3.3325970">
        <ele>552.3</ele>
        <time>2018-10-21T08:23:03Z</time>
      </trkpt>
      <trkpt lat="42.8561480" lon="-3.3326430">
        <ele>552.3</ele>
        <time>2018-10-21T08:23:04Z</time>
      </trkpt>
      <trkpt lat="42.8562030" lon="-3.3326900">
        <ele>552.3</ele>
        <time>2018-10-21T08:23:05Z</time>
      </trkpt>
      <trkpt lat="42.8562570" lon="-3.3327380">
        <ele>552.3</ele>
        <time>2018-10-21T08:23:06Z</time>
      </trkpt>
      <trkpt lat="42.8563120" lon="-3.3327850">
        <ele>552.3</ele>
        <time>2018-10-21T08:23:07Z</time>
      </trkpt>
      <trkpt lat="42.8563650" lon="-3.3328330">
        <ele>552.3</ele>
        <time>2018-10-21T08:23:08Z</time>
      </trkpt>
      <trkpt lat="42.8564200" lon="-3.3328800">
        <ele>552.3</ele>
        <time>2018-10-21T08:23:09Z</time>
      </trkpt>
      <trkpt lat="42.8564730" lon="-3.3329270">
        <ele>552.3</ele>
        <time>2018-10-21T08:23:10Z</time>
      </trkpt>
      <trkpt lat="42.8565270" lon="-3.3329730">
        <ele>552.3</ele>
        <time>2018-10-21T08:23:11Z</time>
      </trkpt>
      <trkpt lat="42.8565800" lon="-3.3330220">
        <ele>552.3</ele>
        <time>2018-10-21T08:23:12Z</time>
      </trkpt>
      <trkpt lat="42.8566350" lon="-3.3330680">
        <ele>552.3</ele>
        <time>2018-10-21T08:23:13Z</time>
      </trkpt>
      <trkpt lat="42.8566880" lon="-3.3331130">
        <ele>553.2</ele>
        <time>2018-10-21T08:23:14Z</time>
      </trkpt>
      <trkpt lat="42.8567420" lon="-3.3331600">
        <ele>553.2</ele>
        <time>2018-10-21T08:23:15Z</time>
      </trkpt>
      <trkpt lat="42.8567950" lon="-3.3332070">
        <ele>553.2</ele>
        <time>2018-10-21T08:23:16Z</time>
      </trkpt>
      <trkpt lat="42.8568480" lon="-3.3332550">
        <ele>553.2</ele>
        <time>2018-10-21T08:23:17Z</time>
      </trkpt>
      <trkpt lat="42.8569020" lon="-3.3333020">
        <ele>553.2</ele>
        <time>2018-10-21T08:23:18Z</time>
      </trkpt>
      <trkpt lat="42.8569530" lon="-3.3333500">
        <ele>553.2</ele>
        <time>2018-10-21T08:23:19Z</time>
      </trkpt>
      <trkpt lat="42.8570050" lon="-3.3333980">
        <ele>553.2</ele>
        <time>2018-10-21T08:23:20Z</time>
      </trkpt>
      <trkpt lat="42.8570570" lon="-3.3334480">
        <ele>553.2</ele>
        <time>2018-10-21T08:23:21Z</time>
      </trkpt>
      <trkpt lat="42.8571080" lon="-3.3335000">
        <ele>553.2</ele>
        <time>2018-10-21T08:23:22Z</time>
      </trkpt>
      <trkpt lat="42.8571600" lon="-3.3335530">
        <ele>553.2</ele>
        <time>2018-10-21T08:23:23Z</time>
      </trkpt>
      <trkpt lat="42.8572100" lon="-3.3336070">
        <ele>554.3</ele>
        <time>2018-10-21T08:23:24Z</time>
      </trkpt>
      <trkpt lat="42.8572580" lon="-3.3336620">
        <ele>554.3</ele>
        <time>2018-10-21T08:23:25Z</time>
      </trkpt>
      <trkpt lat="42.8573080" lon="-3.3337200">
        <ele>554.3</ele>
        <time>2018-10-21T08:23:26Z</time>
      </trkpt>
      <trkpt lat="42.8573550" lon="-3.3337780">
        <ele>554.3</ele>
        <time>2018-10-21T08:23:27Z</time>
      </trkpt>
      <trkpt lat="42.8574020" lon="-3.3338420">
        <ele>554.3</ele>
        <time>2018-10-21T08:23:28Z</time>
      </trkpt>
      <trkpt lat="42.8574480" lon="-3.3339050">
        <ele>554.3</ele>
        <time>2018-10-21T08:23:29Z</time>
      </trkpt>
      <trkpt lat="42.8574930" lon="-3.3339680">
        <ele>554.3</ele>
        <time>2018-10-21T08:23:30Z</time>
      </trkpt>
      <trkpt lat="42.8575400" lon="-3.3340330">
        <ele>554.3</ele>
        <time>2018-10-21T08:23:31Z</time>
      </trkpt>
      <trkpt lat="42.8575850" lon="-3.3340980">
        <ele>554.3</ele>
        <time>2018-10-21T08:23:32Z</time>
      </trkpt>
      <trkpt lat="42.8576320" lon="-3.3341620">
        <ele>554.3</ele>
        <time>2018-10-21T08:23:33Z</time>
      </trkpt>
      <trkpt lat="42.8576770" lon="-3.3342270">
        <ele>554.3</ele>
        <time>2018-10-21T08:23:34Z</time>
      </trkpt>
      <trkpt lat="42.8577230" lon="-3.3342920">
        <ele>554.3</ele>
        <time>2018-10-21T08:23:35Z</time>
      </trkpt>
      <trkpt lat="42.8577700" lon="-3.3343570">
        <ele>554.3</ele>
        <time>2018-10-21T08:23:36Z</time>
      </trkpt>
      <trkpt lat="42.8578200" lon="-3.3344180">
        <ele>554.3</ele>
        <time>2018-10-21T08:23:37Z</time>
      </trkpt>
      <trkpt lat="42.8578680" lon="-3.3344780">
        <ele>555.2</ele>
        <time>2018-10-21T08:23:38Z</time>
      </trkpt>
      <trkpt lat="42.8579200" lon="-3.3345350">
        <ele>555.2</ele>
        <time>2018-10-21T08:23:39Z</time>
      </trkpt>
      <trkpt lat="42.8579730" lon="-3.3345920">
        <ele>555.2</ele>
        <time>2018-10-21T08:23:40Z</time>
      </trkpt>
      <trkpt lat="42.8580270" lon="-3.3346430">
        <ele>555.2</ele>
        <time>2018-10-21T08:23:41Z</time>
      </trkpt>
      <trkpt lat="42.8580830" lon="-3.3346900">
        <ele>555.2</ele>
        <time>2018-10-21T08:23:42Z</time>
      </trkpt>
      <trkpt lat="42.8581400" lon="-3.3347320">
        <ele>555.2</ele>
        <time>2018-10-21T08:23:43Z</time>
      </trkpt>
      <trkpt lat="42.8582020" lon="-3.3347680">
        <ele>555.2</ele>
        <time>2018-10-21T08:23:44Z</time>
      </trkpt>
      <trkpt lat="42.8582630" lon="-3.3348020">
        <ele>555.2</ele>
        <time>2018-10-21T08:23:45Z</time>
      </trkpt>
      <trkpt lat="42.8583270" lon="-3.3348320">
        <ele>555.2</ele>
        <time>2018-10-21T08:23:46Z</time>
      </trkpt>
      <trkpt lat="42.8583920" lon="-3.3348570">
        <ele>555.2</ele>
        <time>2018-10-21T08:23:47Z</time>
      </trkpt>
      <trkpt lat="42.8584570" lon="-3.3348770">
        <ele>555.2</ele>
        <time>2018-10-21T08:23:48Z</time>
      </trkpt>
      <trkpt lat="42.8585230" lon="-3.3348920">
        <ele>555.2</ele>
        <time>2018-10-21T08:23:49Z</time>
      </trkpt>
      <trkpt lat="42.8585900" lon="-3.3349030">
        <ele>555.2</ele>
        <time>2018-10-21T08:23:50Z</time>
      </trkpt>
      <trkpt lat="42.8586570" lon="-3.3349150">
        <ele>555.2</ele>
        <time>2018-10-21T08:23:51Z</time>
      </trkpt>
      <trkpt lat="42.8587250" lon="-3.3349250">
        <ele>555.2</ele>
        <time>2018-10-21T08:23:52Z</time>
      </trkpt>
      <trkpt lat="42.8587920" lon="-3.3349320">
        <ele>555.2</ele>
        <time>2018-10-21T08:23:53Z</time>
      </trkpt>
      <trkpt lat="42.8588600" lon="-3.3349380">
        <ele>555.2</ele>
        <time>2018-10-21T08:23:54Z</time>
      </trkpt>
      <trkpt lat="42.8589300" lon="-3.3349470">
        <ele>555.2</ele>
        <time>2018-10-21T08:23:55Z</time>
      </trkpt>
      <trkpt lat="42.8589980" lon="-3.3349520">
        <ele>555.2</ele>
        <time>2018-10-21T08:23:56Z</time>
      </trkpt>
      <trkpt lat="42.8590680" lon="-3.3349620">
        <ele>555.2</ele>
        <time>2018-10-21T08:23:57Z</time>
      </trkpt>
      <trkpt lat="42.8591370" lon="-3.3349680">
        <ele>556.3</ele>
        <time>2018-10-21T08:23:58Z</time>
      </trkpt>
      <trkpt lat="42.8592050" lon="-3.3349770">
        <ele>556.3</ele>
        <time>2018-10-21T08:23:59Z</time>
      </trkpt>
      <trkpt lat="42.8592770" lon="-3.3349830">
        <ele>556.3</ele>
        <time>2018-10-21T08:24:00Z</time>
      </trkpt>
      <trkpt lat="42.8593470" lon="-3.3349920">
        <ele>556.3</ele>
        <time>2018-10-21T08:24:01Z</time>
      </trkpt>
      <trkpt lat="42.8594180" lon="-3.3349980">
        <ele>556.3</ele>
        <time>2018-10-21T08:24:02Z</time>
      </trkpt>
      <trkpt lat="42.8594900" lon="-3.3350050">
        <ele>556.3</ele>
        <time>2018-10-21T08:24:03Z</time>
      </trkpt>
      <trkpt lat="42.8595620" lon="-3.3350130">
        <ele>555.2</ele>
        <time>2018-10-21T08:24:04Z</time>
      </trkpt>
      <trkpt lat="42.8596320" lon="-3.3350200">
        <ele>555.2</ele>
        <time>2018-10-21T08:24:05Z</time>
      </trkpt>
      <trkpt lat="42.8597030" lon="-3.3350270">
        <ele>555.2</ele>
        <time>2018-10-21T08:24:06Z</time>
      </trkpt>
      <trkpt lat="42.8597730" lon="-3.3350330">
        <ele>555.2</ele>
        <time>2018-10-21T08:24:07Z</time>
      </trkpt>
      <trkpt lat="42.8598450" lon="-3.3350420">
        <ele>555.2</ele>
        <time>2018-10-21T08:24:08Z</time>
      </trkpt>
      <trkpt lat="42.8599170" lon="-3.3350520">
        <ele>555.2</ele>
        <time>2018-10-21T08:24:09Z</time>
      </trkpt>
      <trkpt lat="42.8599880" lon="-3.3350600">
        <ele>555.2</ele>
        <time>2018-10-21T08:24:10Z</time>
      </trkpt>
      <trkpt lat="42.8600600" lon="-3.3350670">
        <ele>555.2</ele>
        <time>2018-10-21T08:24:11Z</time>
      </trkpt>
      <trkpt lat="42.8601320" lon="-3.3350730">
        <ele>555.2</ele>
        <time>2018-10-21T08:24:12Z</time>
      </trkpt>
      <trkpt lat="42.8602030" lon="-3.3350800">
        <ele>555.2</ele>
        <time>2018-10-21T08:24:13Z</time>
      </trkpt>
      <trkpt lat="42.8602750" lon="-3.3350880">
        <ele>555.2</ele>
        <time>2018-10-21T08:24:14Z</time>
      </trkpt>
      <trkpt lat="42.8603470" lon="-3.3350970">
        <ele>555.2</ele>
        <time>2018-10-21T08:24:15Z</time>
      </trkpt>
      <trkpt lat="42.8604170" lon="-3.3351050">
        <ele>555.2</ele>
        <time>2018-10-21T08:24:16Z</time>
      </trkpt>
      <trkpt lat="42.8604880" lon="-3.3351130">
        <ele>555.2</ele>
        <time>2018-10-21T08:24:17Z</time>
      </trkpt>
      <trkpt lat="42.8605600" lon="-3.3351220">
        <ele>555.2</ele>
        <time>2018-10-21T08:24:18Z</time>
      </trkpt>
      <trkpt lat="42.8606320" lon="-3.3351270">
        <ele>555.2</ele>
        <time>2018-10-21T08:24:19Z</time>
      </trkpt>
      <trkpt lat="42.8607050" lon="-3.3351350">
        <ele>555.2</ele>
        <time>2018-10-21T08:24:20Z</time>
      </trkpt>
      <trkpt lat="42.8607770" lon="-3.3351420">
        <ele>555.2</ele>
        <time>2018-10-21T08:24:21Z</time>
      </trkpt>
      <trkpt lat="42.8608480" lon="-3.3351500">
        <ele>555.2</ele>
        <time>2018-10-21T08:24:22Z</time>
      </trkpt>
      <trkpt lat="42.8609180" lon="-3.3351580">
        <ele>555.2</ele>
        <time>2018-10-21T08:24:23Z</time>
      </trkpt>
      <trkpt lat="42.8609900" lon="-3.3351670">
        <ele>555.2</ele>
        <time>2018-10-21T08:24:24Z</time>
      </trkpt>
      <trkpt lat="42.8610620" lon="-3.3351730">
        <ele>555.2</ele>
        <time>2018-10-21T08:24:25Z</time>
      </trkpt>
      <trkpt lat="42.8611320" lon="-3.3351820">
        <ele>555.2</ele>
        <time>2018-10-21T08:24:26Z</time>
      </trkpt>
      <trkpt lat="42.8612030" lon="-3.3351900">
        <ele>555.2</ele>
        <time>2018-10-21T08:24:27Z</time>
      </trkpt>
      <trkpt lat="42.8612750" lon="-3.3351980">
        <ele>555.2</ele>
        <time>2018-10-21T08:24:28Z</time>
      </trkpt>
      <trkpt lat="42.8613450" lon="-3.3352050">
        <ele>555.2</ele>
        <time>2018-10-21T08:24:29Z</time>
      </trkpt>
      <trkpt lat="42.8614170" lon="-3.3352120">
        <ele>554.3</ele>
        <time>2018-10-21T08:24:30Z</time>
      </trkpt>
      <trkpt lat="42.8614870" lon="-3.3352150">
        <ele>554.3</ele>
        <time>2018-10-21T08:24:31Z</time>
      </trkpt>
      <trkpt lat="42.8615570" lon="-3.3352200">
        <ele>554.3</ele>
        <time>2018-10-21T08:24:32Z</time>
      </trkpt>
      <trkpt lat="42.8616270" lon="-3.3352220">
        <ele>554.3</ele>
        <time>2018-10-21T08:24:33Z</time>
      </trkpt>
      <trkpt lat="42.8616970" lon="-3.3352200">
        <ele>554.3</ele>
        <time>2018-10-21T08:24:34Z</time>
      </trkpt>
      <trkpt lat="42.8617650" lon="-3.3352150">
        <ele>554.3</ele>
        <time>2018-10-21T08:24:35Z</time>
      </trkpt>
      <trkpt lat="42.8618320" lon="-3.3352050">
        <ele>554.3</ele>
        <time>2018-10-21T08:24:36Z</time>
      </trkpt>
      <trkpt lat="42.8618980" lon="-3.3351870">
        <ele>554.3</ele>
        <time>2018-10-21T08:24:37Z</time>
      </trkpt>
      <trkpt lat="42.8619650" lon="-3.3351670">
        <ele>554.3</ele>
        <time>2018-10-21T08:24:38Z</time>
      </trkpt>
      <trkpt lat="42.8620280" lon="-3.3351450">
        <ele>554.3</ele>
        <time>2018-10-21T08:24:39Z</time>
      </trkpt>
      <trkpt lat="42.8620930" lon="-3.3351230">
        <ele>554.3</ele>
        <time>2018-10-21T08:24:40Z</time>
      </trkpt>
      <trkpt lat="42.8621550" lon="-3.3350980">
        <ele>554.3</ele>
        <time>2018-10-21T08:24:41Z</time>
      </trkpt>
      <trkpt lat="42.8622180" lon="-3.3350700">
        <ele>555.2</ele>
        <time>2018-10-21T08:24:42Z</time>
      </trkpt>
      <trkpt lat="42.8622820" lon="-3.3350420">
        <ele>555.2</ele>
        <time>2018-10-21T08:24:43Z</time>
      </trkpt>
      <trkpt lat="42.8623450" lon="-3.3350130">
        <ele>555.2</ele>
        <time>2018-10-21T08:24:44Z</time>
      </trkpt>
      <trkpt lat="42.8624070" lon="-3.3349830">
        <ele>555.2</ele>
        <time>2018-10-21T08:24:45Z</time>
      </trkpt>
      <trkpt lat="42.8624680" lon="-3.3349530">
        <ele>555.2</ele>
        <time>2018-10-21T08:24:46Z</time>
      </trkpt>
      <trkpt lat="42.8625320" lon="-3.3349220">
        <ele>555.2</ele>
        <time>2018-10-21T08:24:47Z</time>
      </trkpt>
      <trkpt lat="42.8625930" lon="-3.3348920">
        <ele>555.2</ele>
        <time>2018-10-21T08:24:48Z</time>
      </trkpt>
      <trkpt lat="42.8626570" lon="-3.3348620">
        <ele>555.2</ele>
        <time>2018-10-21T08:24:49Z</time>
      </trkpt>
      <trkpt lat="42.8627200" lon="-3.3348330">
        <ele>555.2</ele>
        <time>2018-10-21T08:24:50Z</time>
      </trkpt>
      <trkpt lat="42.8627820" lon="-3.3348070">
        <ele>555.2</ele>
        <time>2018-10-21T08:24:51Z</time>
      </trkpt>
      <trkpt lat="42.8628430" lon="-3.3347770">
        <ele>555.2</ele>
        <time>2018-10-21T08:24:52Z</time>
      </trkpt>
      <trkpt lat="42.8629070" lon="-3.3347470">
        <ele>555.2</ele>
        <time>2018-10-21T08:24:53Z</time>
      </trkpt>
      <trkpt lat="42.8629680" lon="-3.3347170">
        <ele>556.3</ele>
        <time>2018-10-21T08:24:54Z</time>
      </trkpt>
      <trkpt lat="42.8630320" lon="-3.3346900">
        <ele>556.3</ele>
        <time>2018-10-21T08:24:55Z</time>
      </trkpt>
      <trkpt lat="42.8630950" lon="-3.3346600">
        <ele>556.3</ele>
        <time>2018-10-21T08:24:56Z</time>
      </trkpt>
      <trkpt lat="42.8631550" lon="-3.3346300">
        <ele>556.3</ele>
        <time>2018-10-21T08:24:57Z</time>
      </trkpt>
      <trkpt lat="42.8632170" lon="-3.3345980">
        <ele>556.3</ele>
        <time>2018-10-21T08:24:58Z</time>
      </trkpt>
      <trkpt lat="42.8632780" lon="-3.3345680">
        <ele>556.3</ele>
        <time>2018-10-21T08:24:59Z</time>
      </trkpt>
      <trkpt lat="42.8633400" lon="-3.3345380">
        <ele>556.3</ele>
        <time>2018-10-21T08:25:00Z</time>
      </trkpt>
      <trkpt lat="42.8634000" lon="-3.3345100">
        <ele>556.3</ele>
        <time>2018-10-21T08:25:01Z</time>
      </trkpt>
      <trkpt lat="42.8634620" lon="-3.3344800">
        <ele>557.2</ele>
        <time>2018-10-21T08:25:02Z</time>
      </trkpt>
      <trkpt lat="42.8635220" lon="-3.3344520">
        <ele>557.2</ele>
        <time>2018-10-21T08:25:03Z</time>
      </trkpt>
      <trkpt lat="42.8635820" lon="-3.3344220">
        <ele>557.2</ele>
        <time>2018-10-21T08:25:04Z</time>
      </trkpt>
      <trkpt lat="42.8636420" lon="-3.3343950">
        <ele>557.2</ele>
        <time>2018-10-21T08:25:05Z</time>
      </trkpt>
      <trkpt lat="42.8637020" lon="-3.3343670">
        <ele>557.2</ele>
        <time>2018-10-21T08:25:06Z</time>
      </trkpt>
      <trkpt lat="42.8637600" lon="-3.3343380">
        <ele>557.2</ele>
        <time>2018-10-21T08:25:07Z</time>
      </trkpt>
      <trkpt lat="42.8638180" lon="-3.3343100">
        <ele>558.2</ele>
        <time>2018-10-21T08:25:08Z</time>
      </trkpt>
      <trkpt lat="42.8638780" lon="-3.3342820">
        <ele>558.2</ele>
        <time>2018-10-21T08:25:09Z</time>
      </trkpt>
      <trkpt lat="42.8639380" lon="-3.3342520">
        <ele>558.2</ele>
        <time>2018-10-21T08:25:10Z</time>
      </trkpt>
      <trkpt lat="42.8639970" lon="-3.3342250">
        <ele>558.2</ele>
        <time>2018-10-21T08:25:11Z</time>
      </trkpt>
      <trkpt lat="42.8640570" lon="-3.3341980">
        <ele>558.2</ele>
        <time>2018-10-21T08:25:12Z</time>
      </trkpt>
      <trkpt lat="42.8641170" lon="-3.3341730">
        <ele>558.2</ele>
        <time>2018-10-21T08:25:13Z</time>
      </trkpt>
      <trkpt lat="42.8641780" lon="-3.3341520">
        <ele>558.2</ele>
        <time>2018-10-21T08:25:14Z</time>
      </trkpt>
      <trkpt lat="42.8642420" lon="-3.3341300">
        <ele>558.2</ele>
        <time>2018-10-21T08:25:15Z</time>
      </trkpt>
      <trkpt lat="42.8643070" lon="-3.3341100">
        <ele>558.2</ele>
        <time>2018-10-21T08:25:16Z</time>
      </trkpt>
      <trkpt lat="42.8643720" lon="-3.3340920">
        <ele>558.2</ele>
        <time>2018-10-21T08:25:17Z</time>
      </trkpt>
      <trkpt lat="42.8644380" lon="-3.3340800">
        <ele>559.3</ele>
        <time>2018-10-21T08:25:18Z</time>
      </trkpt>
      <trkpt lat="42.8645030" lon="-3.3340720">
        <ele>559.3</ele>
        <time>2018-10-21T08:25:19Z</time>
      </trkpt>
      <trkpt lat="42.8645720" lon="-3.3340680">
        <ele>559.3</ele>
        <time>2018-10-21T08:25:20Z</time>
      </trkpt>
      <trkpt lat="42.8646400" lon="-3.3340670">
        <ele>559.3</ele>
        <time>2018-10-21T08:25:21Z</time>
      </trkpt>
      <trkpt lat="42.8647070" lon="-3.3340680">
        <ele>559.3</ele>
        <time>2018-10-21T08:25:22Z</time>
      </trkpt>
      <trkpt lat="42.8647750" lon="-3.3340750">
        <ele>559.3</ele>
        <time>2018-10-21T08:25:23Z</time>
      </trkpt>
      <trkpt lat="42.8648430" lon="-3.3340820">
        <ele>559.3</ele>
        <time>2018-10-21T08:25:24Z</time>
      </trkpt>
      <trkpt lat="42.8649130" lon="-3.3340880">
        <ele>559.3</ele>
        <time>2018-10-21T08:25:25Z</time>
      </trkpt>
      <trkpt lat="42.8649820" lon="-3.3340930">
        <ele>559.3</ele>
        <time>2018-10-21T08:25:26Z</time>
      </trkpt>
      <trkpt lat="42.8650500" lon="-3.3340980">
        <ele>559.3</ele>
        <time>2018-10-21T08:25:27Z</time>
      </trkpt>
      <trkpt lat="42.8651200" lon="-3.3341050">
        <ele>559.3</ele>
        <time>2018-10-21T08:25:28Z</time>
      </trkpt>
      <trkpt lat="42.8651880" lon="-3.3341150">
        <ele>559.3</ele>
        <time>2018-10-21T08:25:29Z</time>
      </trkpt>
      <trkpt lat="42.8652570" lon="-3.3341250">
        <ele>559.3</ele>
        <time>2018-10-21T08:25:30Z</time>
      </trkpt>
      <trkpt lat="42.8653250" lon="-3.3341330">
        <ele>559.3</ele>
        <time>2018-10-21T08:25:31Z</time>
      </trkpt>
      <trkpt lat="42.8653920" lon="-3.3341400">
        <ele>558.2</ele>
        <time>2018-10-21T08:25:32Z</time>
      </trkpt>
      <trkpt lat="42.8654600" lon="-3.3341480">
        <ele>558.2</ele>
        <time>2018-10-21T08:25:33Z</time>
      </trkpt>
      <trkpt lat="42.8655280" lon="-3.3341550">
        <ele>558.2</ele>
        <time>2018-10-21T08:25:34Z</time>
      </trkpt>
      <trkpt lat="42.8655970" lon="-3.3341630">
        <ele>558.2</ele>
        <time>2018-10-21T08:25:35Z</time>
      </trkpt>
      <trkpt lat="42.8656650" lon="-3.3341720">
        <ele>558.2</ele>
        <time>2018-10-21T08:25:36Z</time>
      </trkpt>
      <trkpt lat="42.8657330" lon="-3.3341820">
        <ele>558.2</ele>
        <time>2018-10-21T08:25:37Z</time>
      </trkpt>
      <trkpt lat="42.8658030" lon="-3.3341900">
        <ele>558.2</ele>
        <time>2018-10-21T08:25:38Z</time>
      </trkpt>
      <trkpt lat="42.8658730" lon="-3.3342030">
        <ele>558.2</ele>
        <time>2018-10-21T08:25:39Z</time>
      </trkpt>
      <trkpt lat="42.8659420" lon="-3.3342170">
        <ele>559.3</ele>
        <time>2018-10-21T08:25:40Z</time>
      </trkpt>
      <trkpt lat="42.8660120" lon="-3.3342330">
        <ele>559.3</ele>
        <time>2018-10-21T08:25:41Z</time>
      </trkpt>
      <trkpt lat="42.8660820" lon="-3.3342530">
        <ele>559.3</ele>
        <time>2018-10-21T08:25:42Z</time>
      </trkpt>
      <trkpt lat="42.8661500" lon="-3.3342750">
        <ele>559.3</ele>
        <time>2018-10-21T08:25:43Z</time>
      </trkpt>
      <trkpt lat="42.8662200" lon="-3.3342970">
        <ele>559.3</ele>
        <time>2018-10-21T08:25:44Z</time>
      </trkpt>
      <trkpt lat="42.8662900" lon="-3.3343200">
        <ele>559.3</ele>
        <time>2018-10-21T08:25:45Z</time>
      </trkpt>
      <trkpt lat="42.8663600" lon="-3.3343430">
        <ele>560.2</ele>
        <time>2018-10-21T08:25:46Z</time>
      </trkpt>
      <trkpt lat="42.8664300" lon="-3.3343700">
        <ele>560.2</ele>
        <time>2018-10-21T08:25:47Z</time>
      </trkpt>
      <trkpt lat="42.8664980" lon="-3.3343980">
        <ele>560.2</ele>
        <time>2018-10-21T08:25:48Z</time>
      </trkpt>
      <trkpt lat="42.8665670" lon="-3.3344250">
        <ele>560.2</ele>
        <time>2018-10-21T08:25:49Z</time>
      </trkpt>
      <trkpt lat="42.8666370" lon="-3.3344530">
        <ele>560.2</ele>
        <time>2018-10-21T08:25:50Z</time>
      </trkpt>
      <trkpt lat="42.8667050" lon="-3.3344820">
        <ele>560.2</ele>
        <time>2018-10-21T08:25:51Z</time>
      </trkpt>
      <trkpt lat="42.8667730" lon="-3.3345080">
        <ele>560.2</ele>
        <time>2018-10-21T08:25:52Z</time>
      </trkpt>
      <trkpt lat="42.8668420" lon="-3.3345350">
        <ele>560.2</ele>
        <time>2018-10-21T08:25:53Z</time>
      </trkpt>
      <trkpt lat="42.8669100" lon="-3.3345620">
        <ele>560.2</ele>
        <time>2018-10-21T08:25:54Z</time>
      </trkpt>
      <trkpt lat="42.8669800" lon="-3.3345880">
        <ele>560.2</ele>
        <time>2018-10-21T08:25:55Z</time>
      </trkpt>
      <trkpt lat="42.8670480" lon="-3.3346150">
        <ele>560.2</ele>
        <time>2018-10-21T08:25:56Z</time>
      </trkpt>
      <trkpt lat="42.8671170" lon="-3.3346420">
        <ele>560.2</ele>
        <time>2018-10-21T08:25:57Z</time>
      </trkpt>
      <trkpt lat="42.8671850" lon="-3.3346700">
        <ele>560.2</ele>
        <time>2018-10-21T08:25:58Z</time>
      </trkpt>
      <trkpt lat="42.8672530" lon="-3.3346970">
        <ele>560.2</ele>
        <time>2018-10-21T08:25:59Z</time>
      </trkpt>
      <trkpt lat="42.8673200" lon="-3.3347230">
        <ele>560.2</ele>
        <time>2018-10-21T08:26:00Z</time>
      </trkpt>
      <trkpt lat="42.8673880" lon="-3.3347480">
        <ele>560.2</ele>
        <time>2018-10-21T08:26:01Z</time>
      </trkpt>
      <trkpt lat="42.8674570" lon="-3.3347720">
        <ele>560.2</ele>
        <time>2018-10-21T08:26:02Z</time>
      </trkpt>
      <trkpt lat="42.8675270" lon="-3.3347930">
        <ele>560.2</ele>
        <time>2018-10-21T08:26:03Z</time>
      </trkpt>
      <trkpt lat="42.8675950" lon="-3.3348150">
        <ele>560.2</ele>
        <time>2018-10-21T08:26:04Z</time>
      </trkpt>
      <trkpt lat="42.8676650" lon="-3.3348350">
        <ele>560.2</ele>
        <time>2018-10-21T08:26:05Z</time>
      </trkpt>
      <trkpt lat="42.8677330" lon="-3.3348550">
        <ele>560.2</ele>
        <time>2018-10-21T08:26:06Z</time>
      </trkpt>
      <trkpt lat="42.8678020" lon="-3.3348730">
        <ele>560.2</ele>
        <time>2018-10-21T08:26:07Z</time>
      </trkpt>
      <trkpt lat="42.8678700" lon="-3.3348930">
        <ele>560.2</ele>
        <time>2018-10-21T08:26:08Z</time>
      </trkpt>
      <trkpt lat="42.8679380" lon="-3.3349100">
        <ele>560.2</ele>
        <time>2018-10-21T08:26:09Z</time>
      </trkpt>
      <trkpt lat="42.8680080" lon="-3.3349270">
        <ele>560.2</ele>
        <time>2018-10-21T08:26:10Z</time>
      </trkpt>
      <trkpt lat="42.8680780" lon="-3.3349450">
        <ele>560.2</ele>
        <time>2018-10-21T08:26:11Z</time>
      </trkpt>
      <trkpt lat="42.8681470" lon="-3.3349630">
        <ele>560.2</ele>
        <time>2018-10-21T08:26:12Z</time>
      </trkpt>
      <trkpt lat="42.8682170" lon="-3.3349830">
        <ele>560.2</ele>
        <time>2018-10-21T08:26:13Z</time>
      </trkpt>
      <trkpt lat="42.8682830" lon="-3.3350030">
        <ele>560.2</ele>
        <time>2018-10-21T08:26:14Z</time>
      </trkpt>
      <trkpt lat="42.8683520" lon="-3.3350270">
        <ele>560.2</ele>
        <time>2018-10-21T08:26:15Z</time>
      </trkpt>
      <trkpt lat="42.8684150" lon="-3.3350570">
        <ele>560.2</ele>
        <time>2018-10-21T08:26:16Z</time>
      </trkpt>
      <trkpt lat="42.8684780" lon="-3.3350930">
        <ele>560.2</ele>
        <time>2018-10-21T08:26:17Z</time>
      </trkpt>
      <trkpt lat="42.8685380" lon="-3.3351370">
        <ele>560.2</ele>
        <time>2018-10-21T08:26:18Z</time>
      </trkpt>
      <trkpt lat="42.8685970" lon="-3.3351830">
        <ele>560.2</ele>
        <time>2018-10-21T08:26:19Z</time>
      </trkpt>
      <trkpt lat="42.8686570" lon="-3.3352330">
        <ele>560.2</ele>
        <time>2018-10-21T08:26:20Z</time>
      </trkpt>
      <trkpt lat="42.8687170" lon="-3.3352800">
        <ele>560.2</ele>
        <time>2018-10-21T08:26:21Z</time>
      </trkpt>
      <trkpt lat="42.8687770" lon="-3.3353270">
        <ele>560.2</ele>
        <time>2018-10-21T08:26:22Z</time>
      </trkpt>
      <trkpt lat="42.8688420" lon="-3.3353680">
        <ele>560.2</ele>
        <time>2018-10-21T08:26:23Z</time>
      </trkpt>
      <trkpt lat="42.8689070" lon="-3.3354030">
        <ele>560.2</ele>
        <time>2018-10-21T08:26:24Z</time>
      </trkpt>
      <trkpt lat="42.8689770" lon="-3.3354280">
        <ele>560.2</ele>
        <time>2018-10-21T08:26:25Z</time>
      </trkpt>
      <trkpt lat="42.8690470" lon="-3.3354480">
        <ele>560.2</ele>
        <time>2018-10-21T08:26:26Z</time>
      </trkpt>
      <trkpt lat="42.8691180" lon="-3.3354630">
        <ele>560.2</ele>
        <time>2018-10-21T08:26:27Z</time>
      </trkpt>
      <trkpt lat="42.8691900" lon="-3.3354770">
        <ele>560.2</ele>
        <time>2018-10-21T08:26:28Z</time>
      </trkpt>
      <trkpt lat="42.8692620" lon="-3.3354850">
        <ele>560.2</ele>
        <time>2018-10-21T08:26:29Z</time>
      </trkpt>
      <trkpt lat="42.8693320" lon="-3.3354920">
        <ele>560.2</ele>
        <time>2018-10-21T08:26:30Z</time>
      </trkpt>
      <trkpt lat="42.8694030" lon="-3.3354950">
        <ele>560.2</ele>
        <time>2018-10-21T08:26:31Z</time>
      </trkpt>
      <trkpt lat="42.8694750" lon="-3.3354970">
        <ele>560.2</ele>
        <time>2018-10-21T08:26:32Z</time>
      </trkpt>
      <trkpt lat="42.8695450" lon="-3.3354980">
        <ele>560.2</ele>
        <time>2018-10-21T08:26:33Z</time>
      </trkpt>
      <trkpt lat="42.8696150" lon="-3.3354980">
        <ele>560.2</ele>
        <time>2018-10-21T08:26:34Z</time>
      </trkpt>
      <trkpt lat="42.8696830" lon="-3.3354970">
        <ele>560.2</ele>
        <time>2018-10-21T08:26:35Z</time>
      </trkpt>
      <trkpt lat="42.8697530" lon="-3.3354950">
        <ele>560.2</ele>
        <time>2018-10-21T08:26:36Z</time>
      </trkpt>
      <trkpt lat="42.8698230" lon="-3.3354900">
        <ele>560.2</ele>
        <time>2018-10-21T08:26:37Z</time>
      </trkpt>
      <trkpt lat="42.8698920" lon="-3.3354780">
        <ele>560.2</ele>
        <time>2018-10-21T08:26:38Z</time>
      </trkpt>
      <trkpt lat="42.8699620" lon="-3.3354620">
        <ele>560.2</ele>
        <time>2018-10-21T08:26:39Z</time>
      </trkpt>
      <trkpt lat="42.8700300" lon="-3.3354420">
        <ele>560.2</ele>
        <time>2018-10-21T08:26:40Z</time>
      </trkpt>
      <trkpt lat="42.8700980" lon="-3.3354150">
        <ele>560.2</ele>
        <time>2018-10-21T08:26:41Z</time>
      </trkpt>
      <trkpt lat="42.8701650" lon="-3.3353830">
        <ele>560.2</ele>
        <time>2018-10-21T08:26:42Z</time>
      </trkpt>
      <trkpt lat="42.8702280" lon="-3.3353450">
        <ele>560.2</ele>
        <time>2018-10-21T08:26:43Z</time>
      </trkpt>
      <trkpt lat="42.8702920" lon="-3.3353070">
        <ele>560.2</ele>
        <time>2018-10-21T08:26:44Z</time>
      </trkpt>
      <trkpt lat="42.8703530" lon="-3.3352650">
        <ele>560.2</ele>
        <time>2018-10-21T08:26:45Z</time>
      </trkpt>
      <trkpt lat="42.8704150" lon="-3.3352220">
        <ele>560.2</ele>
        <time>2018-10-21T08:26:46Z</time>
      </trkpt>
      <trkpt lat="42.8704770" lon="-3.3351780">
        <ele>560.2</ele>
        <time>2018-10-21T08:26:47Z</time>
      </trkpt>
      <trkpt lat="42.8705400" lon="-3.3351350">
        <ele>560.2</ele>
        <time>2018-10-21T08:26:48Z</time>
      </trkpt>
      <trkpt lat="42.8706030" lon="-3.3350900">
        <ele>560.2</ele>
        <time>2018-10-21T08:26:49Z</time>
      </trkpt>
      <trkpt lat="42.8706670" lon="-3.3350450">
        <ele>560.2</ele>
        <time>2018-10-21T08:26:50Z</time>
      </trkpt>
      <trkpt lat="42.8707300" lon="-3.3350020">
        <ele>560.2</ele>
        <time>2018-10-21T08:26:51Z</time>
      </trkpt>
      <trkpt lat="42.8707920" lon="-3.3349570">
        <ele>560.2</ele>
        <time>2018-10-21T08:26:52Z</time>
      </trkpt>
      <trkpt lat="42.8708550" lon="-3.3349120">
        <ele>560.2</ele>
        <time>2018-10-21T08:26:53Z</time>
      </trkpt>
      <trkpt lat="42.8709180" lon="-3.3348680">
        <ele>560.2</ele>
        <time>2018-10-21T08:26:54Z</time>
      </trkpt>
      <trkpt lat="42.8709820" lon="-3.3348230">
        <ele>560.2</ele>
        <time>2018-10-21T08:26:55Z</time>
      </trkpt>
      <trkpt lat="42.8710430" lon="-3.3347800">
        <ele>560.2</ele>
        <time>2018-10-21T08:26:56Z</time>
      </trkpt>
      <trkpt lat="42.8711070" lon="-3.3347380">
        <ele>560.2</ele>
        <time>2018-10-21T08:26:57Z</time>
      </trkpt>
      <trkpt lat="42.8711700" lon="-3.3346970">
        <ele>560.2</ele>
        <time>2018-10-21T08:26:58Z</time>
      </trkpt>
      <trkpt lat="42.8712320" lon="-3.3346520">
        <ele>560.2</ele>
        <time>2018-10-21T08:26:59Z</time>
      </trkpt>
      <trkpt lat="42.8712930" lon="-3.3346070">
        <ele>560.2</ele>
        <time>2018-10-21T08:27:00Z</time>
      </trkpt>
      <trkpt lat="42.8713550" lon="-3.3345620">
        <ele>560.2</ele>
        <time>2018-10-21T08:27:01Z</time>
      </trkpt>
      <trkpt lat="42.8714180" lon="-3.3345150">
        <ele>560.2</ele>
        <time>2018-10-21T08:27:02Z</time>
      </trkpt>
      <trkpt lat="42.8714820" lon="-3.3344700">
        <ele>560.2</ele>
        <time>2018-10-21T08:27:03Z</time>
      </trkpt>
      <trkpt lat="42.8715450" lon="-3.3344250">
        <ele>560.2</ele>
        <time>2018-10-21T08:27:04Z</time>
      </trkpt>
      <trkpt lat="42.8716080" lon="-3.3343800">
        <ele>560.2</ele>
        <time>2018-10-21T08:27:05Z</time>
      </trkpt>
      <trkpt lat="42.8716700" lon="-3.3343350">
        <ele>560.2</ele>
        <time>2018-10-21T08:27:06Z</time>
      </trkpt>
      <trkpt lat="42.8717320" lon="-3.3342900">
        <ele>560.2</ele>
        <time>2018-10-21T08:27:07Z</time>
      </trkpt>
      <trkpt lat="42.8717950" lon="-3.3342450">
        <ele>560.2</ele>
        <time>2018-10-21T08:27:08Z</time>
      </trkpt>
      <trkpt lat="42.8718570" lon="-3.3341980">
        <ele>560.2</ele>
        <time>2018-10-21T08:27:09Z</time>
      </trkpt>
      <trkpt lat="42.8719180" lon="-3.3341480">
        <ele>560.2</ele>
        <time>2018-10-21T08:27:10Z</time>
      </trkpt>
      <trkpt lat="42.8719780" lon="-3.3340970">
        <ele>560.2</ele>
        <time>2018-10-21T08:27:11Z</time>
      </trkpt>
      <trkpt lat="42.8720400" lon="-3.3340450">
        <ele>560.2</ele>
        <time>2018-10-21T08:27:12Z</time>
      </trkpt>
      <trkpt lat="42.8721000" lon="-3.3339920">
        <ele>560.2</ele>
        <time>2018-10-21T08:27:13Z</time>
      </trkpt>
      <trkpt lat="42.8721600" lon="-3.3339350">
        <ele>560.2</ele>
        <time>2018-10-21T08:27:14Z</time>
      </trkpt>
      <trkpt lat="42.8722200" lon="-3.3338780">
        <ele>560.2</ele>
        <time>2018-10-21T08:27:15Z</time>
      </trkpt>
      <trkpt lat="42.8722780" lon="-3.3338200">
        <ele>560.2</ele>
        <time>2018-10-21T08:27:16Z</time>
      </trkpt>
      <trkpt lat="42.8723380" lon="-3.3337620">
        <ele>560.2</ele>
        <time>2018-10-21T08:27:17Z</time>
      </trkpt>
      <trkpt lat="42.8723980" lon="-3.3337050">
        <ele>560.2</ele>
        <time>2018-10-21T08:27:18Z</time>
      </trkpt>
      <trkpt lat="42.8724570" lon="-3.3336450">
        <ele>560.2</ele>
        <time>2018-10-21T08:27:19Z</time>
      </trkpt>
      <trkpt lat="42.8725170" lon="-3.3335870">
        <ele>560.2</ele>
        <time>2018-10-21T08:27:20Z</time>
      </trkpt>
      <trkpt lat="42.8725750" lon="-3.3335280">
        <ele>560.2</ele>
        <time>2018-10-21T08:27:21Z</time>
      </trkpt>
      <trkpt lat="42.8726350" lon="-3.3334700">
        <ele>560.2</ele>
        <time>2018-10-21T08:27:22Z</time>
      </trkpt>
      <trkpt lat="42.8726930" lon="-3.3334120">
        <ele>560.2</ele>
        <time>2018-10-21T08:27:23Z</time>
      </trkpt>
      <trkpt lat="42.8727520" lon="-3.3333520">
        <ele>560.2</ele>
        <time>2018-10-21T08:27:24Z</time>
      </trkpt>
      <trkpt lat="42.8728120" lon="-3.3332920">
        <ele>560.2</ele>
        <time>2018-10-21T08:27:25Z</time>
      </trkpt>
      <trkpt lat="42.8728720" lon="-3.3332320">
        <ele>560.2</ele>
        <time>2018-10-21T08:27:26Z</time>
      </trkpt>
      <trkpt lat="42.8729320" lon="-3.3331730">
        <ele>560.2</ele>
        <time>2018-10-21T08:27:27Z</time>
      </trkpt>
      <trkpt lat="42.8729900" lon="-3.3331150">
        <ele>560.2</ele>
        <time>2018-10-21T08:27:28Z</time>
      </trkpt>
      <trkpt lat="42.8730470" lon="-3.3330570">
        <ele>560.2</ele>
        <time>2018-10-21T08:27:29Z</time>
      </trkpt>
      <trkpt lat="42.8731030" lon="-3.3329970">
        <ele>560.2</ele>
        <time>2018-10-21T08:27:30Z</time>
      </trkpt>
      <trkpt lat="42.8731600" lon="-3.3329350">
        <ele>560.2</ele>
        <time>2018-10-21T08:27:31Z</time>
      </trkpt>
      <trkpt lat="42.8732130" lon="-3.3328720">
        <ele>560.2</ele>
        <time>2018-10-21T08:27:32Z</time>
      </trkpt>
      <trkpt lat="42.8732680" lon="-3.3328080">
        <ele>560.2</ele>
        <time>2018-10-21T08:27:33Z</time>
      </trkpt>
      <trkpt lat="42.8733220" lon="-3.3327430">
        <ele>560.2</ele>
        <time>2018-10-21T08:27:34Z</time>
      </trkpt>
      <trkpt lat="42.8733730" lon="-3.3326770">
        <ele>560.2</ele>
        <time>2018-10-21T08:27:35Z</time>
      </trkpt>
      <trkpt lat="42.8734250" lon="-3.3326100">
        <ele>560.2</ele>
        <time>2018-10-21T08:27:36Z</time>
      </trkpt>
      <trkpt lat="42.8734770" lon="-3.3325420">
        <ele>560.2</ele>
        <time>2018-10-21T08:27:37Z</time>
      </trkpt>
      <trkpt lat="42.8735270" lon="-3.3324730">
        <ele>560.2</ele>
        <time>2018-10-21T08:27:38Z</time>
      </trkpt>
      <trkpt lat="42.8735770" lon="-3.3324050">
        <ele>560.2</ele>
        <time>2018-10-21T08:27:39Z</time>
      </trkpt>
      <trkpt lat="42.8736270" lon="-3.3323350">
        <ele>560.2</ele>
        <time>2018-10-21T08:27:40Z</time>
      </trkpt>
      <trkpt lat="42.8736750" lon="-3.3322670">
        <ele>560.2</ele>
        <time>2018-10-21T08:27:41Z</time>
      </trkpt>
      <trkpt lat="42.8737230" lon="-3.3321970">
        <ele>560.2</ele>
        <time>2018-10-21T08:27:42Z</time>
      </trkpt>
      <trkpt lat="42.8737730" lon="-3.3321280">
        <ele>560.2</ele>
        <time>2018-10-21T08:27:43Z</time>
      </trkpt>
      <trkpt lat="42.8738230" lon="-3.3320600">
        <ele>560.2</ele>
        <time>2018-10-21T08:27:44Z</time>
      </trkpt>
      <trkpt lat="42.8738720" lon="-3.3319920">
        <ele>560.2</ele>
        <time>2018-10-21T08:27:45Z</time>
      </trkpt>
      <trkpt lat="42.8739220" lon="-3.3319230">
        <ele>560.2</ele>
        <time>2018-10-21T08:27:46Z</time>
      </trkpt>
      <trkpt lat="42.8739700" lon="-3.3318550">
        <ele>560.2</ele>
        <time>2018-10-21T08:27:47Z</time>
      </trkpt>
      <trkpt lat="42.8740180" lon="-3.3317870">
        <ele>560.2</ele>
        <time>2018-10-21T08:27:48Z</time>
      </trkpt>
      <trkpt lat="42.8740670" lon="-3.3317170">
        <ele>560.2</ele>
        <time>2018-10-21T08:27:49Z</time>
      </trkpt>
      <trkpt lat="42.8741170" lon="-3.3316480">
        <ele>560.2</ele>
        <time>2018-10-21T08:27:50Z</time>
      </trkpt>
      <trkpt lat="42.8741650" lon="-3.3315800">
        <ele>560.2</ele>
        <time>2018-10-21T08:27:51Z</time>
      </trkpt>
      <trkpt lat="42.8742150" lon="-3.3315130">
        <ele>560.2</ele>
        <time>2018-10-21T08:27:52Z</time>
      </trkpt>
      <trkpt lat="42.8742650" lon="-3.3314430">
        <ele>560.2</ele>
        <time>2018-10-21T08:27:53Z</time>
      </trkpt>
      <trkpt lat="42.8743130" lon="-3.3313770">
        <ele>560.2</ele>
        <time>2018-10-21T08:27:54Z</time>
      </trkpt>
      <trkpt lat="42.8743620" lon="-3.3313100">
        <ele>560.2</ele>
        <time>2018-10-21T08:27:55Z</time>
      </trkpt>
      <trkpt lat="42.8744130" lon="-3.3312470">
        <ele>561.3</ele>
        <time>2018-10-21T08:27:56Z</time>
      </trkpt>
      <trkpt lat="42.8744650" lon="-3.3311850">
        <ele>561.3</ele>
        <time>2018-10-21T08:27:57Z</time>
      </trkpt>
      <trkpt lat="42.8745200" lon="-3.3311250">
        <ele>561.3</ele>
        <time>2018-10-21T08:27:58Z</time>
      </trkpt>
      <trkpt lat="42.8745730" lon="-3.3310680">
        <ele>561.3</ele>
        <time>2018-10-21T08:27:59Z</time>
      </trkpt>
      <trkpt lat="42.8746280" lon="-3.3310130">
        <ele>562.2</ele>
        <time>2018-10-21T08:28:00Z</time>
      </trkpt>
      <trkpt lat="42.8746850" lon="-3.3309600">
        <ele>562.2</ele>
        <time>2018-10-21T08:28:01Z</time>
      </trkpt>
      <trkpt lat="42.8747430" lon="-3.3309130">
        <ele>562.2</ele>
        <time>2018-10-21T08:28:02Z</time>
      </trkpt>
      <trkpt lat="42.8748030" lon="-3.3308700">
        <ele>562.2</ele>
        <time>2018-10-21T08:28:03Z</time>
      </trkpt>
      <trkpt lat="42.8748630" lon="-3.3308300">
        <ele>562.2</ele>
        <time>2018-10-21T08:28:04Z</time>
      </trkpt>
      <trkpt lat="42.8749250" lon="-3.3307900">
        <ele>562.2</ele>
        <time>2018-10-21T08:28:05Z</time>
      </trkpt>
      <trkpt lat="42.8749870" lon="-3.3307520">
        <ele>562.2</ele>
        <time>2018-10-21T08:28:06Z</time>
      </trkpt>
      <trkpt lat="42.8750480" lon="-3.3307120">
        <ele>562.2</ele>
        <time>2018-10-21T08:28:07Z</time>
      </trkpt>
      <trkpt lat="42.8751080" lon="-3.3306770">
        <ele>562.2</ele>
        <time>2018-10-21T08:28:08Z</time>
      </trkpt>
      <trkpt lat="42.8751700" lon="-3.3306400">
        <ele>562.2</ele>
        <time>2018-10-21T08:28:09Z</time>
      </trkpt>
      <trkpt lat="42.8752320" lon="-3.3306050">
        <ele>562.2</ele>
        <time>2018-10-21T08:28:10Z</time>
      </trkpt>
      <trkpt lat="42.8752920" lon="-3.3305700">
        <ele>562.2</ele>
        <time>2018-10-21T08:28:11Z</time>
      </trkpt>
      <trkpt lat="42.8753530" lon="-3.3305350">
        <ele>562.2</ele>
        <time>2018-10-21T08:28:12Z</time>
      </trkpt>
      <trkpt lat="42.8754120" lon="-3.3304980">
        <ele>562.2</ele>
        <time>2018-10-21T08:28:13Z</time>
      </trkpt>
      <trkpt lat="42.8754720" lon="-3.3304620">
        <ele>563.3</ele>
        <time>2018-10-21T08:28:14Z</time>
      </trkpt>
      <trkpt lat="42.8755330" lon="-3.3304270">
        <ele>563.3</ele>
        <time>2018-10-21T08:28:15Z</time>
      </trkpt>
      <trkpt lat="42.8755950" lon="-3.3303900">
        <ele>563.3</ele>
        <time>2018-10-21T08:28:16Z</time>
      </trkpt>
      <trkpt lat="42.8756570" lon="-3.3303530">
        <ele>563.3</ele>
        <time>2018-10-21T08:28:17Z</time>
      </trkpt>
      <trkpt lat="42.8757170" lon="-3.3303150">
        <ele>563.3</ele>
        <time>2018-10-21T08:28:18Z</time>
      </trkpt>
      <trkpt lat="42.8757770" lon="-3.3302720">
        <ele>563.3</ele>
        <time>2018-10-21T08:28:19Z</time>
      </trkpt>
      <trkpt lat="42.8758330" lon="-3.3302230">
        <ele>563.3</ele>
        <time>2018-10-21T08:28:20Z</time>
      </trkpt>
      <trkpt lat="42.8758880" lon="-3.3301670">
        <ele>563.3</ele>
        <time>2018-10-21T08:28:21Z</time>
      </trkpt>
      <trkpt lat="42.8759350" lon="-3.3301050">
        <ele>563.3</ele>
        <time>2018-10-21T08:28:22Z</time>
      </trkpt>
      <trkpt lat="42.8759820" lon="-3.3300420">
        <ele>563.3</ele>
        <time>2018-10-21T08:28:23Z</time>
      </trkpt>
      <trkpt lat="42.8760270" lon="-3.3299750">
        <ele>564.2</ele>
        <time>2018-10-21T08:28:24Z</time>
      </trkpt>
      <trkpt lat="42.8760650" lon="-3.3299070">
        <ele>564.2</ele>
        <time>2018-10-21T08:28:25Z</time>
      </trkpt>
      <trkpt lat="42.8761000" lon="-3.3298330">
        <ele>564.2</ele>
        <time>2018-10-21T08:28:26Z</time>
      </trkpt>
      <trkpt lat="42.8761370" lon="-3.3297600">
        <ele>564.2</ele>
        <time>2018-10-21T08:28:27Z</time>
      </trkpt>
      <trkpt lat="42.8761750" lon="-3.3296880">
        <ele>564.2</ele>
        <time>2018-10-21T08:28:28Z</time>
      </trkpt>
      <trkpt lat="42.8762150" lon="-3.3296200">
        <ele>564.2</ele>
        <time>2018-10-21T08:28:29Z</time>
      </trkpt>
      <trkpt lat="42.8762580" lon="-3.3295530">
        <ele>564.2</ele>
        <time>2018-10-21T08:28:30Z</time>
      </trkpt>
      <trkpt lat="42.8763030" lon="-3.3294880">
        <ele>564.2</ele>
        <time>2018-10-21T08:28:31Z</time>
      </trkpt>
      <trkpt lat="42.8763480" lon="-3.3294250">
        <ele>564.2</ele>
        <time>2018-10-21T08:28:32Z</time>
      </trkpt>
      <trkpt lat="42.8763950" lon="-3.3293630">
        <ele>564.2</ele>
        <time>2018-10-21T08:28:33Z</time>
      </trkpt>
      <trkpt lat="42.8764420" lon="-3.3293020">
        <ele>564.2</ele>
        <time>2018-10-21T08:28:34Z</time>
      </trkpt>
      <trkpt lat="42.8764920" lon="-3.3292420">
        <ele>564.2</ele>
        <time>2018-10-21T08:28:35Z</time>
      </trkpt>
      <trkpt lat="42.8765420" lon="-3.3291830">
        <ele>564.2</ele>
        <time>2018-10-21T08:28:36Z</time>
      </trkpt>
      <trkpt lat="42.8765950" lon="-3.3291320">
        <ele>564.2</ele>
        <time>2018-10-21T08:28:37Z</time>
      </trkpt>
      <trkpt lat="42.8766530" lon="-3.3290850">
        <ele>564.2</ele>
        <time>2018-10-21T08:28:38Z</time>
      </trkpt>
      <trkpt lat="42.8767120" lon="-3.3290450">
        <ele>564.2</ele>
        <time>2018-10-21T08:28:39Z</time>
      </trkpt>
      <trkpt lat="42.8767720" lon="-3.3290050">
        <ele>564.2</ele>
        <time>2018-10-21T08:28:40Z</time>
      </trkpt>
      <trkpt lat="42.8768330" lon="-3.3289630">
        <ele>564.2</ele>
        <time>2018-10-21T08:28:41Z</time>
      </trkpt>
      <trkpt lat="42.8768950" lon="-3.3289230">
        <ele>564.2</ele>
        <time>2018-10-21T08:28:42Z</time>
      </trkpt>
      <trkpt lat="42.8769550" lon="-3.3288770">
        <ele>564.2</ele>
        <time>2018-10-21T08:28:43Z</time>
      </trkpt>
      <trkpt lat="42.8770100" lon="-3.3288220">
        <ele>564.2</ele>
        <time>2018-10-21T08:28:44Z</time>
      </trkpt>
      <trkpt lat="42.8770630" lon="-3.3287620">
        <ele>564.2</ele>
        <time>2018-10-21T08:28:45Z</time>
      </trkpt>
      <trkpt lat="42.8771150" lon="-3.3286980">
        <ele>564.2</ele>
        <time>2018-10-21T08:28:46Z</time>
      </trkpt>
      <trkpt lat="42.8771630" lon="-3.3286350">
        <ele>564.2</ele>
        <time>2018-10-21T08:28:47Z</time>
      </trkpt>
      <trkpt lat="42.8772150" lon="-3.3285720">
        <ele>564.2</ele>
        <time>2018-10-21T08:28:48Z</time>
      </trkpt>
      <trkpt lat="42.8772650" lon="-3.3285100">
        <ele>564.2</ele>
        <time>2018-10-21T08:28:49Z</time>
      </trkpt>
      <trkpt lat="42.8773150" lon="-3.3284470">
        <ele>564.2</ele>
        <time>2018-10-21T08:28:50Z</time>
      </trkpt>
      <trkpt lat="42.8773670" lon="-3.3283850">
        <ele>564.2</ele>
        <time>2018-10-21T08:28:51Z</time>
      </trkpt>
      <trkpt lat="42.8774180" lon="-3.3283220">
        <ele>564.2</ele>
        <time>2018-10-21T08:28:52Z</time>
      </trkpt>
      <trkpt lat="42.8774700" lon="-3.3282600">
        <ele>564.2</ele>
        <time>2018-10-21T08:28:53Z</time>
      </trkpt>
      <trkpt lat="42.8775220" lon="-3.3281980">
        <ele>564.2</ele>
        <time>2018-10-21T08:28:54Z</time>
      </trkpt>
      <trkpt lat="42.8775700" lon="-3.3281320">
        <ele>564.2</ele>
        <time>2018-10-21T08:28:55Z</time>
      </trkpt>
      <trkpt lat="42.8776200" lon="-3.3280650">
        <ele>564.2</ele>
        <time>2018-10-21T08:28:56Z</time>
      </trkpt>
      <trkpt lat="42.8776720" lon="-3.3280000">
        <ele>564.2</ele>
        <time>2018-10-21T08:28:57Z</time>
      </trkpt>
      <trkpt lat="42.8777250" lon="-3.3279350">
        <ele>564.2</ele>
        <time>2018-10-21T08:28:58Z</time>
      </trkpt>
      <trkpt lat="42.8777780" lon="-3.3278700">
        <ele>564.2</ele>
        <time>2018-10-21T08:28:59Z</time>
      </trkpt>
      <trkpt lat="42.8778300" lon="-3.3278030">
        <ele>564.2</ele>
        <time>2018-10-21T08:29:00Z</time>
      </trkpt>
      <trkpt lat="42.8778830" lon="-3.3277380">
        <ele>564.2</ele>
        <time>2018-10-21T08:29:01Z</time>
      </trkpt>
      <trkpt lat="42.8779370" lon="-3.3276730">
        <ele>564.2</ele>
        <time>2018-10-21T08:29:02Z</time>
      </trkpt>
      <trkpt lat="42.8779880" lon="-3.3276100">
        <ele>564.2</ele>
        <time>2018-10-21T08:29:03Z</time>
      </trkpt>
      <trkpt lat="42.8780380" lon="-3.3275450">
        <ele>564.2</ele>
        <time>2018-10-21T08:29:04Z</time>
      </trkpt>
      <trkpt lat="42.8780880" lon="-3.3274800">
        <ele>564.2</ele>
        <time>2018-10-21T08:29:05Z</time>
      </trkpt>
      <trkpt lat="42.8781370" lon="-3.3274170">
        <ele>564.2</ele>
        <time>2018-10-21T08:29:06Z</time>
      </trkpt>
      <trkpt lat="42.8781870" lon="-3.3273550">
        <ele>564.2</ele>
        <time>2018-10-21T08:29:07Z</time>
      </trkpt>
      <trkpt lat="42.8782350" lon="-3.3272930">
        <ele>564.2</ele>
        <time>2018-10-21T08:29:08Z</time>
      </trkpt>
      <trkpt lat="42.8782830" lon="-3.3272320">
        <ele>564.2</ele>
        <time>2018-10-21T08:29:09Z</time>
      </trkpt>
      <trkpt lat="42.8783330" lon="-3.3271720">
        <ele>564.2</ele>
        <time>2018-10-21T08:29:10Z</time>
      </trkpt>
      <trkpt lat="42.8783850" lon="-3.3271120">
        <ele>564.2</ele>
        <time>2018-10-21T08:29:11Z</time>
      </trkpt>
      <trkpt lat="42.8784330" lon="-3.3270500">
        <ele>564.2</ele>
        <time>2018-10-21T08:29:12Z</time>
      </trkpt>
      <trkpt lat="42.8784850" lon="-3.3269880">
        <ele>564.2</ele>
        <time>2018-10-21T08:29:13Z</time>
      </trkpt>
      <trkpt lat="42.8785350" lon="-3.3269270">
        <ele>564.2</ele>
        <time>2018-10-21T08:29:14Z</time>
      </trkpt>
      <trkpt lat="42.8785820" lon="-3.3268650">
        <ele>564.2</ele>
        <time>2018-10-21T08:29:15Z</time>
      </trkpt>
      <trkpt lat="42.8786300" lon="-3.3268030">
        <ele>564.2</ele>
        <time>2018-10-21T08:29:16Z</time>
      </trkpt>
      <trkpt lat="42.8786800" lon="-3.3267430">
        <ele>564.2</ele>
        <time>2018-10-21T08:29:17Z</time>
      </trkpt>
      <trkpt lat="42.8787280" lon="-3.3266830">
        <ele>564.2</ele>
        <time>2018-10-21T08:29:18Z</time>
      </trkpt>
      <trkpt lat="42.8787770" lon="-3.3266230">
        <ele>564.2</ele>
        <time>2018-10-21T08:29:19Z</time>
      </trkpt>
      <trkpt lat="42.8788250" lon="-3.3265630">
        <ele>565.3</ele>
        <time>2018-10-21T08:29:20Z</time>
      </trkpt>
      <trkpt lat="42.8788730" lon="-3.3265020">
        <ele>565.3</ele>
        <time>2018-10-21T08:29:21Z</time>
      </trkpt>
      <trkpt lat="42.8789220" lon="-3.3264450">
        <ele>565.3</ele>
        <time>2018-10-21T08:29:22Z</time>
      </trkpt>
      <trkpt lat="42.8789700" lon="-3.3263850">
        <ele>565.3</ele>
        <time>2018-10-21T08:29:23Z</time>
      </trkpt>
      <trkpt lat="42.8790170" lon="-3.3263280">
        <ele>565.3</ele>
        <time>2018-10-21T08:29:24Z</time>
      </trkpt>
      <trkpt lat="42.8790670" lon="-3.3262730">
        <ele>565.3</ele>
        <time>2018-10-21T08:29:25Z</time>
      </trkpt>
      <trkpt lat="42.8791170" lon="-3.3262200">
        <ele>565.3</ele>
        <time>2018-10-21T08:29:26Z</time>
      </trkpt>
      <trkpt lat="42.8791680" lon="-3.3261700">
        <ele>565.3</ele>
        <time>2018-10-21T08:29:27Z</time>
      </trkpt>
      <trkpt lat="42.8792200" lon="-3.3261220">
        <ele>565.3</ele>
        <time>2018-10-21T08:29:28Z</time>
      </trkpt>
      <trkpt lat="42.8792730" lon="-3.3260770">
        <ele>565.3</ele>
        <time>2018-10-21T08:29:29Z</time>
      </trkpt>
      <trkpt lat="42.8793270" lon="-3.3260330">
        <ele>565.3</ele>
        <time>2018-10-21T08:29:30Z</time>
      </trkpt>
      <trkpt lat="42.8793830" lon="-3.3259970">
        <ele>565.3</ele>
        <time>2018-10-21T08:29:31Z</time>
      </trkpt>
      <trkpt lat="42.8794380" lon="-3.3259570">
        <ele>565.3</ele>
        <time>2018-10-21T08:29:32Z</time>
      </trkpt>
      <trkpt lat="42.8794980" lon="-3.3259130">
        <ele>565.3</ele>
        <time>2018-10-21T08:29:33Z</time>
      </trkpt>
      <trkpt lat="42.8795600" lon="-3.3258700">
        <ele>566.2</ele>
        <time>2018-10-21T08:29:34Z</time>
      </trkpt>
      <trkpt lat="42.8796230" lon="-3.3258270">
        <ele>566.2</ele>
        <time>2018-10-21T08:29:35Z</time>
      </trkpt>
      <trkpt lat="42.8796900" lon="-3.3257920">
        <ele>566.2</ele>
        <time>2018-10-21T08:29:36Z</time>
      </trkpt>
      <trkpt lat="42.8797570" lon="-3.3257600">
        <ele>566.2</ele>
        <time>2018-10-21T08:29:37Z</time>
      </trkpt>
      <trkpt lat="42.8798230" lon="-3.3257320">
        <ele>566.2</ele>
        <time>2018-10-21T08:29:38Z</time>
      </trkpt>
      <trkpt lat="42.8798920" lon="-3.3257070">
        <ele>566.2</ele>
        <time>2018-10-21T08:29:39Z</time>
      </trkpt>
      <trkpt lat="42.8799620" lon="-3.3256870">
        <ele>566.2</ele>
        <time>2018-10-21T08:29:40Z</time>
      </trkpt>
      <trkpt lat="42.8800300" lon="-3.3256700">
        <ele>566.2</ele>
        <time>2018-10-21T08:29:41Z</time>
      </trkpt>
      <trkpt lat="42.8801000" lon="-3.3256530">
        <ele>566.2</ele>
        <time>2018-10-21T08:29:42Z</time>
      </trkpt>
      <trkpt lat="42.8801680" lon="-3.3256380">
        <ele>566.2</ele>
        <time>2018-10-21T08:29:43Z</time>
      </trkpt>
      <trkpt lat="42.8802380" lon="-3.3256250">
        <ele>566.2</ele>
        <time>2018-10-21T08:29:44Z</time>
      </trkpt>
      <trkpt lat="42.8803100" lon="-3.3256150">
        <ele>566.2</ele>
        <time>2018-10-21T08:29:45Z</time>
      </trkpt>
      <trkpt lat="42.8803780" lon="-3.3256050">
        <ele>566.2</ele>
        <time>2018-10-21T08:29:46Z</time>
      </trkpt>
      <trkpt lat="42.8804480" lon="-3.3255950">
        <ele>566.2</ele>
        <time>2018-10-21T08:29:47Z</time>
      </trkpt>
      <trkpt lat="42.8805180" lon="-3.3255880">
        <ele>566.2</ele>
        <time>2018-10-21T08:29:48Z</time>
      </trkpt>
      <trkpt lat="42.8805880" lon="-3.3255850">
        <ele>566.2</ele>
        <time>2018-10-21T08:29:49Z</time>
      </trkpt>
      <trkpt lat="42.8806570" lon="-3.3255830">
        <ele>566.2</ele>
        <time>2018-10-21T08:29:50Z</time>
      </trkpt>
      <trkpt lat="42.8807250" lon="-3.3255870">
        <ele>566.2</ele>
        <time>2018-10-21T08:29:51Z</time>
      </trkpt>
      <trkpt lat="42.8807920" lon="-3.3255850">
        <ele>566.2</ele>
        <time>2018-10-21T08:29:52Z</time>
      </trkpt>
      <trkpt lat="42.8808580" lon="-3.3255820">
        <ele>566.2</ele>
        <time>2018-10-21T08:29:53Z</time>
      </trkpt>
      <trkpt lat="42.8809250" lon="-3.3255770">
        <ele>567.2</ele>
        <time>2018-10-21T08:29:54Z</time>
      </trkpt>
      <trkpt lat="42.8809920" lon="-3.3255770">
        <ele>567.2</ele>
        <time>2018-10-21T08:29:55Z</time>
      </trkpt>
      <trkpt lat="42.8810570" lon="-3.3255800">
        <ele>567.2</ele>
        <time>2018-10-21T08:29:56Z</time>
      </trkpt>
      <trkpt lat="42.8811230" lon="-3.3255900">
        <ele>567.2</ele>
        <time>2018-10-21T08:29:57Z</time>
      </trkpt>
      <trkpt lat="42.8811900" lon="-3.3256050">
        <ele>567.2</ele>
        <time>2018-10-21T08:29:58Z</time>
      </trkpt>
      <trkpt lat="42.8812580" lon="-3.3256150">
        <ele>567.2</ele>
        <time>2018-10-21T08:29:59Z</time>
      </trkpt>
      <trkpt lat="42.8813280" lon="-3.3256220">
        <ele>567.2</ele>
        <time>2018-10-21T08:30:00Z</time>
      </trkpt>
      <trkpt lat="42.8814000" lon="-3.3256270">
        <ele>567.2</ele>
        <time>2018-10-21T08:30:01Z</time>
      </trkpt>
      <trkpt lat="42.8814720" lon="-3.3256220">
        <ele>567.2</ele>
        <time>2018-10-21T08:30:02Z</time>
      </trkpt>
      <trkpt lat="42.8815430" lon="-3.3256120">
        <ele>567.2</ele>
        <time>2018-10-21T08:30:03Z</time>
      </trkpt>
      <trkpt lat="42.8816150" lon="-3.3255950">
        <ele>567.2</ele>
        <time>2018-10-21T08:30:04Z</time>
      </trkpt>
      <trkpt lat="42.8816870" lon="-3.3255730">
        <ele>567.2</ele>
        <time>2018-10-21T08:30:05Z</time>
      </trkpt>
      <trkpt lat="42.8817570" lon="-3.3255500">
        <ele>567.2</ele>
        <time>2018-10-21T08:30:06Z</time>
      </trkpt>
      <trkpt lat="42.8818270" lon="-3.3255270">
        <ele>567.2</ele>
        <time>2018-10-21T08:30:07Z</time>
      </trkpt>
      <trkpt lat="42.8818970" lon="-3.3255000">
        <ele>567.2</ele>
        <time>2018-10-21T08:30:08Z</time>
      </trkpt>
      <trkpt lat="42.8819650" lon="-3.3254720">
        <ele>567.2</ele>
        <time>2018-10-21T08:30:09Z</time>
      </trkpt>
      <trkpt lat="42.8820330" lon="-3.3254420">
        <ele>567.2</ele>
        <time>2018-10-21T08:30:10Z</time>
      </trkpt>
      <trkpt lat="42.8821030" lon="-3.3254150">
        <ele>567.2</ele>
        <time>2018-10-21T08:30:11Z</time>
      </trkpt>
      <trkpt lat="42.8821730" lon="-3.3253880">
        <ele>567.2</ele>
        <time>2018-10-21T08:30:12Z</time>
      </trkpt>
      <trkpt lat="42.8822430" lon="-3.3253620">
        <ele>567.2</ele>
        <time>2018-10-21T08:30:13Z</time>
      </trkpt>
      <trkpt lat="42.8823130" lon="-3.3253350">
        <ele>567.2</ele>
        <time>2018-10-21T08:30:14Z</time>
      </trkpt>
      <trkpt lat="42.8823830" lon="-3.3253070">
        <ele>567.2</ele>
        <time>2018-10-21T08:30:15Z</time>
      </trkpt>
      <trkpt lat="42.8824520" lon="-3.3252780">
        <ele>567.2</ele>
        <time>2018-10-21T08:30:16Z</time>
      </trkpt>
      <trkpt lat="42.8825220" lon="-3.3252500">
        <ele>567.2</ele>
        <time>2018-10-21T08:30:17Z</time>
      </trkpt>
      <trkpt lat="42.8825900" lon="-3.3252220">
        <ele>567.2</ele>
        <time>2018-10-21T08:30:18Z</time>
      </trkpt>
      <trkpt lat="42.8826570" lon="-3.3251930">
        <ele>567.2</ele>
        <time>2018-10-21T08:30:19Z</time>
      </trkpt>
      <trkpt lat="42.8827230" lon="-3.3251620">
        <ele>567.2</ele>
        <time>2018-10-21T08:30:20Z</time>
      </trkpt>
      <trkpt lat="42.8827900" lon="-3.3251280">
        <ele>567.2</ele>
        <time>2018-10-21T08:30:21Z</time>
      </trkpt>
      <trkpt lat="42.8828550" lon="-3.3250920">
        <ele>567.2</ele>
        <time>2018-10-21T08:30:22Z</time>
      </trkpt>
      <trkpt lat="42.8829180" lon="-3.3250550">
        <ele>567.2</ele>
        <time>2018-10-21T08:30:23Z</time>
      </trkpt>
      <trkpt lat="42.8829830" lon="-3.3250150">
        <ele>567.2</ele>
        <time>2018-10-21T08:30:24Z</time>
      </trkpt>
      <trkpt lat="42.8830470" lon="-3.3249720">
        <ele>567.2</ele>
        <time>2018-10-21T08:30:25Z</time>
      </trkpt>
      <trkpt lat="42.8831100" lon="-3.3249270">
        <ele>567.2</ele>
        <time>2018-10-21T08:30:26Z</time>
      </trkpt>
      <trkpt lat="42.8831750" lon="-3.3248820">
        <ele>567.2</ele>
        <time>2018-10-21T08:30:27Z</time>
      </trkpt>
      <trkpt lat="42.8832400" lon="-3.3248370">
        <ele>567.2</ele>
        <time>2018-10-21T08:30:28Z</time>
      </trkpt>
      <trkpt lat="42.8833030" lon="-3.3247900">
        <ele>567.2</ele>
        <time>2018-10-21T08:30:29Z</time>
      </trkpt>
      <trkpt lat="42.8833630" lon="-3.3247400">
        <ele>567.2</ele>
        <time>2018-10-21T08:30:30Z</time>
      </trkpt>
      <trkpt lat="42.8834270" lon="-3.3246930">
        <ele>567.2</ele>
        <time>2018-10-21T08:30:31Z</time>
      </trkpt>
      <trkpt lat="42.8834900" lon="-3.3246480">
        <ele>567.2</ele>
        <time>2018-10-21T08:30:32Z</time>
      </trkpt>
      <trkpt lat="42.8835530" lon="-3.3246050">
        <ele>567.2</ele>
        <time>2018-10-21T08:30:33Z</time>
      </trkpt>
      <trkpt lat="42.8836180" lon="-3.3245620">
        <ele>567.2</ele>
        <time>2018-10-21T08:30:34Z</time>
      </trkpt>
      <trkpt lat="42.8836820" lon="-3.3245200">
        <ele>567.2</ele>
        <time>2018-10-21T08:30:35Z</time>
      </trkpt>
      <trkpt lat="42.8837450" lon="-3.3244800">
        <ele>567.2</ele>
        <time>2018-10-21T08:30:36Z</time>
      </trkpt>
      <trkpt lat="42.8838100" lon="-3.3244470">
        <ele>567.2</ele>
        <time>2018-10-21T08:30:37Z</time>
      </trkpt>
      <trkpt lat="42.8838780" lon="-3.3244150">
        <ele>567.2</ele>
        <time>2018-10-21T08:30:38Z</time>
      </trkpt>
      <trkpt lat="42.8839450" lon="-3.3243800">
        <ele>567.2</ele>
        <time>2018-10-21T08:30:39Z</time>
      </trkpt>
      <trkpt lat="42.8840130" lon="-3.3243450">
        <ele>567.2</ele>
        <time>2018-10-21T08:30:40Z</time>
      </trkpt>
      <trkpt lat="42.8840820" lon="-3.3243080">
        <ele>567.2</ele>
        <time>2018-10-21T08:30:41Z</time>
      </trkpt>
      <trkpt lat="42.8841500" lon="-3.3242650">
        <ele>567.2</ele>
        <time>2018-10-21T08:30:42Z</time>
      </trkpt>
      <trkpt lat="42.8842130" lon="-3.3242100">
        <ele>567.2</ele>
        <time>2018-10-21T08:30:43Z</time>
      </trkpt>
      <trkpt lat="42.8842750" lon="-3.3241480">
        <ele>567.2</ele>
        <time>2018-10-21T08:30:44Z</time>
      </trkpt>
      <trkpt lat="42.8843320" lon="-3.3240770">
        <ele>567.2</ele>
        <time>2018-10-21T08:30:45Z</time>
      </trkpt>
      <trkpt lat="42.8843830" lon="-3.3240020">
        <ele>567.2</ele>
        <time>2018-10-21T08:30:46Z</time>
      </trkpt>
      <trkpt lat="42.8844320" lon="-3.3239200">
        <ele>567.2</ele>
        <time>2018-10-21T08:30:47Z</time>
      </trkpt>
      <trkpt lat="42.8844750" lon="-3.3238330">
        <ele>567.2</ele>
        <time>2018-10-21T08:30:48Z</time>
      </trkpt>
      <trkpt lat="42.8845130" lon="-3.3237470">
        <ele>567.2</ele>
        <time>2018-10-21T08:30:49Z</time>
      </trkpt>
      <trkpt lat="42.8845520" lon="-3.3236600">
        <ele>567.2</ele>
        <time>2018-10-21T08:30:50Z</time>
      </trkpt>
      <trkpt lat="42.8845870" lon="-3.3235770">
        <ele>567.2</ele>
        <time>2018-10-21T08:30:51Z</time>
      </trkpt>
      <trkpt lat="42.8846220" lon="-3.3234950">
        <ele>567.2</ele>
        <time>2018-10-21T08:30:52Z</time>
      </trkpt>
      <trkpt lat="42.8846530" lon="-3.3234130">
        <ele>567.2</ele>
        <time>2018-10-21T08:30:53Z</time>
      </trkpt>
      <trkpt lat="42.8846850" lon="-3.3233350">
        <ele>567.2</ele>
        <time>2018-10-21T08:30:54Z</time>
      </trkpt>
      <trkpt lat="42.8847170" lon="-3.3232570">
        <ele>567.2</ele>
        <time>2018-10-21T08:30:55Z</time>
      </trkpt>
      <trkpt lat="42.8847500" lon="-3.3231770">
        <ele>568.3</ele>
        <time>2018-10-21T08:30:56Z</time>
      </trkpt>
      <trkpt lat="42.8847830" lon="-3.3230970">
        <ele>568.3</ele>
        <time>2018-10-21T08:30:57Z</time>
      </trkpt>
      <trkpt lat="42.8848170" lon="-3.3230150">
        <ele>568.3</ele>
        <time>2018-10-21T08:30:58Z</time>
      </trkpt>
      <trkpt lat="42.8848480" lon="-3.3229350">
        <ele>568.3</ele>
        <time>2018-10-21T08:30:59Z</time>
      </trkpt>
      <trkpt lat="42.8848820" lon="-3.3228570">
        <ele>569.2</ele>
        <time>2018-10-21T08:31:00Z</time>
      </trkpt>
      <trkpt lat="42.8849130" lon="-3.3227770">
        <ele>569.2</ele>
        <time>2018-10-21T08:31:01Z</time>
      </trkpt>
      <trkpt lat="42.8849450" lon="-3.3226980">
        <ele>569.2</ele>
        <time>2018-10-21T08:31:02Z</time>
      </trkpt>
      <trkpt lat="42.8849750" lon="-3.3226180">
        <ele>569.2</ele>
        <time>2018-10-21T08:31:03Z</time>
      </trkpt>
      <trkpt lat="42.8850070" lon="-3.3225430">
        <ele>569.2</ele>
        <time>2018-10-21T08:31:04Z</time>
      </trkpt>
      <trkpt lat="42.8850400" lon="-3.3224730">
        <ele>569.2</ele>
        <time>2018-10-21T08:31:05Z</time>
      </trkpt>
      <trkpt lat="42.8850700" lon="-3.3224050">
        <ele>570.3</ele>
        <time>2018-10-21T08:31:06Z</time>
      </trkpt>
      <trkpt lat="42.8850970" lon="-3.3223350">
        <ele>570.3</ele>
        <time>2018-10-21T08:31:07Z</time>
      </trkpt>
      <trkpt lat="42.8851220" lon="-3.3222620">
        <ele>570.3</ele>
        <time>2018-10-21T08:31:08Z</time>
      </trkpt>
      <trkpt lat="42.8851480" lon="-3.3221920">
        <ele>570.3</ele>
        <time>2018-10-21T08:31:09Z</time>
      </trkpt>
      <trkpt lat="42.8851780" lon="-3.3221180">
        <ele>570.3</ele>
        <time>2018-10-21T08:31:10Z</time>
      </trkpt>
      <trkpt lat="42.8852080" lon="-3.3220470">
        <ele>570.3</ele>
        <time>2018-10-21T08:31:11Z</time>
      </trkpt>
      <trkpt lat="42.8852380" lon="-3.3219720">
        <ele>570.3</ele>
        <time>2018-10-21T08:31:12Z</time>
      </trkpt>
      <trkpt lat="42.8852680" lon="-3.3218950">
        <ele>570.3</ele>
        <time>2018-10-21T08:31:13Z</time>
      </trkpt>
      <trkpt lat="42.8853030" lon="-3.3218180">
        <ele>571.2</ele>
        <time>2018-10-21T08:31:14Z</time>
      </trkpt>
      <trkpt lat="42.8853370" lon="-3.3217430">
        <ele>571.2</ele>
        <time>2018-10-21T08:31:15Z</time>
      </trkpt>
      <trkpt lat="42.8853680" lon="-3.3216650">
        <ele>571.2</ele>
        <time>2018-10-21T08:31:16Z</time>
      </trkpt>
      <trkpt lat="42.8853980" lon="-3.3215870">
        <ele>571.2</ele>
        <time>2018-10-21T08:31:17Z</time>
      </trkpt>
      <trkpt lat="42.8854300" lon="-3.3215080">
        <ele>571.2</ele>
        <time>2018-10-21T08:31:18Z</time>
      </trkpt>
      <trkpt lat="42.8854620" lon="-3.3214320">
        <ele>571.2</ele>
        <time>2018-10-21T08:31:19Z</time>
      </trkpt>
      <trkpt lat="42.8854950" lon="-3.3213570">
        <ele>571.2</ele>
        <time>2018-10-21T08:31:20Z</time>
      </trkpt>
      <trkpt lat="42.8855270" lon="-3.3212800">
        <ele>571.2</ele>
        <time>2018-10-21T08:31:21Z</time>
      </trkpt>
      <trkpt lat="42.8855550" lon="-3.3212030">
        <ele>571.2</ele>
        <time>2018-10-21T08:31:22Z</time>
      </trkpt>
      <trkpt lat="42.8855870" lon="-3.3211300">
        <ele>571.2</ele>
        <time>2018-10-21T08:31:23Z</time>
      </trkpt>
      <trkpt lat="42.8856200" lon="-3.3210570">
        <ele>571.2</ele>
        <time>2018-10-21T08:31:24Z</time>
      </trkpt>
      <trkpt lat="42.8856570" lon="-3.3209850">
        <ele>571.2</ele>
        <time>2018-10-21T08:31:25Z</time>
      </trkpt>
      <trkpt lat="42.8856970" lon="-3.3209180">
        <ele>571.2</ele>
        <time>2018-10-21T08:31:26Z</time>
      </trkpt>
      <trkpt lat="42.8857420" lon="-3.3208530">
        <ele>571.2</ele>
        <time>2018-10-21T08:31:27Z</time>
      </trkpt>
      <trkpt lat="42.8857870" lon="-3.3207930">
        <ele>571.2</ele>
        <time>2018-10-21T08:31:28Z</time>
      </trkpt>
      <trkpt lat="42.8858370" lon="-3.3207400">
        <ele>571.2</ele>
        <time>2018-10-21T08:31:29Z</time>
      </trkpt>
      <trkpt lat="42.8858900" lon="-3.3206920">
        <ele>571.2</ele>
        <time>2018-10-21T08:31:30Z</time>
      </trkpt>
      <trkpt lat="42.8859450" lon="-3.3206530">
        <ele>571.2</ele>
        <time>2018-10-21T08:31:31Z</time>
      </trkpt>
      <trkpt lat="42.8860030" lon="-3.3206200">
        <ele>571.2</ele>
        <time>2018-10-21T08:31:32Z</time>
      </trkpt>
      <trkpt lat="42.8860630" lon="-3.3205950">
        <ele>571.2</ele>
        <time>2018-10-21T08:31:33Z</time>
      </trkpt>
      <trkpt lat="42.8861230" lon="-3.3205770">
        <ele>571.2</ele>
        <time>2018-10-21T08:31:34Z</time>
      </trkpt>
      <trkpt lat="42.8861850" lon="-3.3205630">
        <ele>571.2</ele>
        <time>2018-10-21T08:31:35Z</time>
      </trkpt>
      <trkpt lat="42.8862470" lon="-3.3205600">
        <ele>571.2</ele>
        <time>2018-10-21T08:31:36Z</time>
      </trkpt>
      <trkpt lat="42.8863080" lon="-3.3205700">
        <ele>571.2</ele>
        <time>2018-10-21T08:31:37Z</time>
      </trkpt>
      <trkpt lat="42.8863680" lon="-3.3205920">
        <ele>571.2</ele>
        <time>2018-10-21T08:31:38Z</time>
      </trkpt>
      <trkpt lat="42.8864270" lon="-3.3206220">
        <ele>571.2</ele>
        <time>2018-10-21T08:31:39Z</time>
      </trkpt>
      <trkpt lat="42.8864830" lon="-3.3206600">
        <ele>571.2</ele>
        <time>2018-10-21T08:31:40Z</time>
      </trkpt>
      <trkpt lat="42.8865380" lon="-3.3207020">
        <ele>571.2</ele>
        <time>2018-10-21T08:31:41Z</time>
      </trkpt>
      <trkpt lat="42.8865920" lon="-3.3207450">
        <ele>571.2</ele>
        <time>2018-10-21T08:31:42Z</time>
      </trkpt>
      <trkpt lat="42.8866470" lon="-3.3207900">
        <ele>571.2</ele>
        <time>2018-10-21T08:31:43Z</time>
      </trkpt>
      <trkpt lat="42.8867030" lon="-3.3208330">
        <ele>571.2</ele>
        <time>2018-10-21T08:31:44Z</time>
      </trkpt>
      <trkpt lat="42.8867580" lon="-3.3208770">
        <ele>571.2</ele>
        <time>2018-10-21T08:31:45Z</time>
      </trkpt>
      <trkpt lat="42.8868170" lon="-3.3209230">
        <ele>571.2</ele>
        <time>2018-10-21T08:31:46Z</time>
      </trkpt>
      <trkpt lat="42.8868730" lon="-3.3209700">
        <ele>571.2</ele>
        <time>2018-10-21T08:31:47Z</time>
      </trkpt>
      <trkpt lat="42.8869300" lon="-3.3210180">
        <ele>571.2</ele>
        <time>2018-10-21T08:31:48Z</time>
      </trkpt>
      <trkpt lat="42.8869870" lon="-3.3210670">
        <ele>571.2</ele>
        <time>2018-10-21T08:31:49Z</time>
      </trkpt>
      <trkpt lat="42.8870430" lon="-3.3211150">
        <ele>571.2</ele>
        <time>2018-10-21T08:31:50Z</time>
      </trkpt>
      <trkpt lat="42.8871000" lon="-3.3211630">
        <ele>571.2</ele>
        <time>2018-10-21T08:31:51Z</time>
      </trkpt>
      <trkpt lat="42.8871570" lon="-3.3212080">
        <ele>571.2</ele>
        <time>2018-10-21T08:31:52Z</time>
      </trkpt>
      <trkpt lat="42.8872120" lon="-3.3212530">
        <ele>571.2</ele>
        <time>2018-10-21T08:31:53Z</time>
      </trkpt>
      <trkpt lat="42.8872680" lon="-3.3212950">
        <ele>571.2</ele>
        <time>2018-10-21T08:31:54Z</time>
      </trkpt>
      <trkpt lat="42.8873250" lon="-3.3213350">
        <ele>571.2</ele>
        <time>2018-10-21T08:31:55Z</time>
      </trkpt>
      <trkpt lat="42.8873820" lon="-3.3213670">
        <ele>571.2</ele>
        <time>2018-10-21T08:31:56Z</time>
      </trkpt>
      <trkpt lat="42.8874420" lon="-3.3213920">
        <ele>571.2</ele>
        <time>2018-10-21T08:31:57Z</time>
      </trkpt>
      <trkpt lat="42.8875050" lon="-3.3214020">
        <ele>572.3</ele>
        <time>2018-10-21T08:31:58Z</time>
      </trkpt>
      <trkpt lat="42.8875680" lon="-3.3213980">
        <ele>572.3</ele>
        <time>2018-10-21T08:31:59Z</time>
      </trkpt>
      <trkpt lat="42.8876300" lon="-3.3213830">
        <ele>572.3</ele>
        <time>2018-10-21T08:32:00Z</time>
      </trkpt>
      <trkpt lat="42.8876930" lon="-3.3213620">
        <ele>572.3</ele>
        <time>2018-10-21T08:32:01Z</time>
      </trkpt>
      <trkpt lat="42.8877530" lon="-3.3213280">
        <ele>572.3</ele>
        <time>2018-10-21T08:32:02Z</time>
      </trkpt>
      <trkpt lat="42.8878100" lon="-3.3212870">
        <ele>572.3</ele>
        <time>2018-10-21T08:32:03Z</time>
      </trkpt>
      <trkpt lat="42.8878670" lon="-3.3212400">
        <ele>572.3</ele>
        <time>2018-10-21T08:32:04Z</time>
      </trkpt>
      <trkpt lat="42.8879200" lon="-3.3211900">
        <ele>572.3</ele>
        <time>2018-10-21T08:32:05Z</time>
      </trkpt>
      <trkpt lat="42.8879730" lon="-3.3211370">
        <ele>572.3</ele>
        <time>2018-10-21T08:32:06Z</time>
      </trkpt>
      <trkpt lat="42.8880280" lon="-3.3210800">
        <ele>572.3</ele>
        <time>2018-10-21T08:32:07Z</time>
      </trkpt>
      <trkpt lat="42.8880850" lon="-3.3210230">
        <ele>572.3</ele>
        <time>2018-10-21T08:32:08Z</time>
      </trkpt>
      <trkpt lat="42.8881420" lon="-3.3209650">
        <ele>572.3</ele>
        <time>2018-10-21T08:32:09Z</time>
      </trkpt>
      <trkpt lat="42.8882000" lon="-3.3209100">
        <ele>573.2</ele>
        <time>2018-10-21T08:32:10Z</time>
      </trkpt>
      <trkpt lat="42.8882570" lon="-3.3208570">
        <ele>573.2</ele>
        <time>2018-10-21T08:32:11Z</time>
      </trkpt>
      <trkpt lat="42.8883130" lon="-3.3208030">
        <ele>573.2</ele>
        <time>2018-10-21T08:32:12Z</time>
      </trkpt>
      <trkpt lat="42.8883700" lon="-3.3207530">
        <ele>573.2</ele>
        <time>2018-10-21T08:32:13Z</time>
      </trkpt>
      <trkpt lat="42.8884250" lon="-3.3207020">
        <ele>573.2</ele>
        <time>2018-10-21T08:32:14Z</time>
      </trkpt>
      <trkpt lat="42.8884800" lon="-3.3206500">
        <ele>573.2</ele>
        <time>2018-10-21T08:32:15Z</time>
      </trkpt>
      <trkpt lat="42.8885370" lon="-3.3206020">
        <ele>573.2</ele>
        <time>2018-10-21T08:32:16Z</time>
      </trkpt>
      <trkpt lat="42.8885920" lon="-3.3205570">
        <ele>573.2</ele>
        <time>2018-10-21T08:32:17Z</time>
      </trkpt>
      <trkpt lat="42.8886450" lon="-3.3205120">
        <ele>573.2</ele>
        <time>2018-10-21T08:32:18Z</time>
      </trkpt>
      <trkpt lat="42.8886970" lon="-3.3204650">
        <ele>573.2</ele>
        <time>2018-10-21T08:32:19Z</time>
      </trkpt>
      <trkpt lat="42.8887480" lon="-3.3204170">
        <ele>574.3</ele>
        <time>2018-10-21T08:32:20Z</time>
      </trkpt>
      <trkpt lat="42.8888020" lon="-3.3203720">
        <ele>574.3</ele>
        <time>2018-10-21T08:32:21Z</time>
      </trkpt>
      <trkpt lat="42.8888580" lon="-3.3203320">
        <ele>574.3</ele>
        <time>2018-10-21T08:32:22Z</time>
      </trkpt>
      <trkpt lat="42.8889180" lon="-3.3203020">
        <ele>574.3</ele>
        <time>2018-10-21T08:32:23Z</time>
      </trkpt>
      <trkpt lat="42.8889800" lon="-3.3202780">
        <ele>574.3</ele>
        <time>2018-10-21T08:32:24Z</time>
      </trkpt>
      <trkpt lat="42.8890430" lon="-3.3202650">
        <ele>574.3</ele>
        <time>2018-10-21T08:32:25Z</time>
      </trkpt>
      <trkpt lat="42.8891070" lon="-3.3202550">
        <ele>574.3</ele>
        <time>2018-10-21T08:32:26Z</time>
      </trkpt>
      <trkpt lat="42.8891720" lon="-3.3202520">
        <ele>574.3</ele>
        <time>2018-10-21T08:32:27Z</time>
      </trkpt>
      <trkpt lat="42.8892380" lon="-3.3202530">
        <ele>574.3</ele>
        <time>2018-10-21T08:32:28Z</time>
      </trkpt>
      <trkpt lat="42.8893030" lon="-3.3202570">
        <ele>574.3</ele>
        <time>2018-10-21T08:32:29Z</time>
      </trkpt>
      <trkpt lat="42.8893670" lon="-3.3202580">
        <ele>574.3</ele>
        <time>2018-10-21T08:32:30Z</time>
      </trkpt>
      <trkpt lat="42.8894320" lon="-3.3202620">
        <ele>574.3</ele>
        <time>2018-10-21T08:32:31Z</time>
      </trkpt>
      <trkpt lat="42.8894970" lon="-3.3202620">
        <ele>574.3</ele>
        <time>2018-10-21T08:32:32Z</time>
      </trkpt>
      <trkpt lat="42.8895620" lon="-3.3202520">
        <ele>574.3</ele>
        <time>2018-10-21T08:32:33Z</time>
      </trkpt>
      <trkpt lat="42.8896230" lon="-3.3202350">
        <ele>574.3</ele>
        <time>2018-10-21T08:32:34Z</time>
      </trkpt>
      <trkpt lat="42.8896850" lon="-3.3202120">
        <ele>574.3</ele>
        <time>2018-10-21T08:32:35Z</time>
      </trkpt>
      <trkpt lat="42.8897450" lon="-3.3201870">
        <ele>575.2</ele>
        <time>2018-10-21T08:32:36Z</time>
      </trkpt>
      <trkpt lat="42.8898070" lon="-3.3201620">
        <ele>575.2</ele>
        <time>2018-10-21T08:32:37Z</time>
      </trkpt>
      <trkpt lat="42.8898680" lon="-3.3201350">
        <ele>575.2</ele>
        <time>2018-10-21T08:32:38Z</time>
      </trkpt>
      <trkpt lat="42.8899280" lon="-3.3201120">
        <ele>575.2</ele>
        <time>2018-10-21T08:32:39Z</time>
      </trkpt>
      <trkpt lat="42.8899900" lon="-3.3200920">
        <ele>575.2</ele>
        <time>2018-10-21T08:32:40Z</time>
      </trkpt>
      <trkpt lat="42.8900500" lon="-3.3200750">
        <ele>575.2</ele>
        <time>2018-10-21T08:32:41Z</time>
      </trkpt>
      <trkpt lat="42.8901100" lon="-3.3200600">
        <ele>576.2</ele>
        <time>2018-10-21T08:32:42Z</time>
      </trkpt>
      <trkpt lat="42.8901680" lon="-3.3200430">
        <ele>576.2</ele>
        <time>2018-10-21T08:32:43Z</time>
      </trkpt>
      <trkpt lat="42.8902280" lon="-3.3200300">
        <ele>576.2</ele>
        <time>2018-10-21T08:32:44Z</time>
      </trkpt>
      <trkpt lat="42.8902880" lon="-3.3200150">
        <ele>576.2</ele>
        <time>2018-10-21T08:32:45Z</time>
      </trkpt>
      <trkpt lat="42.8903470" lon="-3.3200000">
        <ele>576.2</ele>
        <time>2018-10-21T08:32:46Z</time>
      </trkpt>
      <trkpt lat="42.8904050" lon="-3.3199880">
        <ele>576.2</ele>
        <time>2018-10-21T08:32:47Z</time>
      </trkpt>
      <trkpt lat="42.8904650" lon="-3.3199820">
        <ele>576.2</ele>
        <time>2018-10-21T08:32:48Z</time>
      </trkpt>
      <trkpt lat="42.8905230" lon="-3.3199680">
        <ele>576.2</ele>
        <time>2018-10-21T08:32:49Z</time>
      </trkpt>
      <trkpt lat="42.8905820" lon="-3.3199480">
        <ele>576.2</ele>
        <time>2018-10-21T08:32:50Z</time>
      </trkpt>
      <trkpt lat="42.8906370" lon="-3.3199170">
        <ele>576.2</ele>
        <time>2018-10-21T08:32:51Z</time>
      </trkpt>
      <trkpt lat="42.8906900" lon="-3.3198850">
        <ele>576.2</ele>
        <time>2018-10-21T08:32:52Z</time>
      </trkpt>
      <trkpt lat="42.8907450" lon="-3.3198570">
        <ele>576.2</ele>
        <time>2018-10-21T08:32:53Z</time>
      </trkpt>
      <trkpt lat="42.8907950" lon="-3.3198180">
        <ele>576.2</ele>
        <time>2018-10-21T08:32:54Z</time>
      </trkpt>
      <trkpt lat="42.8908420" lon="-3.3197750">
        <ele>576.2</ele>
        <time>2018-10-21T08:32:55Z</time>
      </trkpt>
      <trkpt lat="42.8908870" lon="-3.3197330">
        <ele>579.3</ele>
        <time>2018-10-21T08:32:56Z</time>
      </trkpt>
      <trkpt lat="42.8909350" lon="-3.3196950">
        <ele>579.3</ele>
        <time>2018-10-21T08:32:57Z</time>
      </trkpt>
      <trkpt lat="42.8909820" lon="-3.3196620">
        <ele>579.3</ele>
        <time>2018-10-21T08:32:58Z</time>
      </trkpt>
      <trkpt lat="42.8910280" lon="-3.3196350">
        <ele>579.3</ele>
        <time>2018-10-21T08:32:59Z</time>
      </trkpt>
      <trkpt lat="42.8910720" lon="-3.3196120">
        <ele>579.3</ele>
        <time>2018-10-21T08:33:00Z</time>
      </trkpt>
      <trkpt lat="42.8911180" lon="-3.3195930">
        <ele>579.3</ele>
        <time>2018-10-21T08:33:01Z</time>
      </trkpt>
      <trkpt lat="42.8911650" lon="-3.3195770">
        <ele>580.2</ele>
        <time>2018-10-21T08:33:02Z</time>
      </trkpt>
      <trkpt lat="42.8912130" lon="-3.3195650">
        <ele>580.2</ele>
        <time>2018-10-21T08:33:03Z</time>
      </trkpt>
      <trkpt lat="42.8912620" lon="-3.3195550">
        <ele>580.2</ele>
        <time>2018-10-21T08:33:04Z</time>
      </trkpt>
      <trkpt lat="42.8913120" lon="-3.3195450">
        <ele>580.2</ele>
        <time>2018-10-21T08:33:05Z</time>
      </trkpt>
      <trkpt lat="42.8913600" lon="-3.3195370">
        <ele>580.2</ele>
        <time>2018-10-21T08:33:06Z</time>
      </trkpt>
      <trkpt lat="42.8914080" lon="-3.3195300">
        <ele>580.2</ele>
        <time>2018-10-21T08:33:07Z</time>
      </trkpt>
      <trkpt lat="42.8914580" lon="-3.3195230">
        <ele>581.3</ele>
        <time>2018-10-21T08:33:08Z</time>
      </trkpt>
      <trkpt lat="42.8915070" lon="-3.3195150">
        <ele>581.3</ele>
        <time>2018-10-21T08:33:09Z</time>
      </trkpt>
      <trkpt lat="42.8915530" lon="-3.3195070">
        <ele>581.3</ele>
        <time>2018-10-21T08:33:10Z</time>
      </trkpt>
      <trkpt lat="42.8916000" lon="-3.3195020">
        <ele>581.3</ele>
        <time>2018-10-21T08:33:11Z</time>
      </trkpt>
      <trkpt lat="42.8916450" lon="-3.3194950">
        <ele>581.3</ele>
        <time>2018-10-21T08:33:12Z</time>
      </trkpt>
      <trkpt lat="42.8916880" lon="-3.3194900">
        <ele>581.3</ele>
        <time>2018-10-21T08:33:13Z</time>
      </trkpt>
      <trkpt lat="42.8917320" lon="-3.3194830">
        <ele>582.2</ele>
        <time>2018-10-21T08:33:14Z</time>
      </trkpt>
      <trkpt lat="42.8917730" lon="-3.3194730">
        <ele>582.2</ele>
        <time>2018-10-21T08:33:15Z</time>
      </trkpt>
      <trkpt lat="42.8918150" lon="-3.3194580">
        <ele>582.2</ele>
        <time>2018-10-21T08:33:16Z</time>
      </trkpt>
      <trkpt lat="42.8918550" lon="-3.3194470">
        <ele>582.2</ele>
        <time>2018-10-21T08:33:17Z</time>
      </trkpt>
      <trkpt lat="42.8918950" lon="-3.3194400">
        <ele>582.2</ele>
        <time>2018-10-21T08:33:18Z</time>
      </trkpt>
      <trkpt lat="42.8919330" lon="-3.3194330">
        <ele>582.2</ele>
        <time>2018-10-21T08:33:19Z</time>
      </trkpt>
      <trkpt lat="42.8919720" lon="-3.3194250">
        <ele>583.2</ele>
        <time>2018-10-21T08:33:20Z</time>
      </trkpt>
      <trkpt lat="42.8920120" lon="-3.3194180">
        <ele>583.2</ele>
        <time>2018-10-21T08:33:21Z</time>
      </trkpt>
      <trkpt lat="42.8920530" lon="-3.3194120">
        <ele>583.2</ele>
        <time>2018-10-21T08:33:22Z</time>
      </trkpt>
      <trkpt lat="42.8920930" lon="-3.3194050">
        <ele>583.2</ele>
        <time>2018-10-21T08:33:23Z</time>
      </trkpt>
      <trkpt lat="42.8921330" lon="-3.3193970">
        <ele>584.3</ele>
        <time>2018-10-21T08:33:24Z</time>
      </trkpt>
      <trkpt lat="42.8921730" lon="-3.3193850">
        <ele>584.3</ele>
        <time>2018-10-21T08:33:25Z</time>
      </trkpt>
      <trkpt lat="42.8922120" lon="-3.3193700">
        <ele>584.3</ele>
        <time>2018-10-21T08:33:26Z</time>
      </trkpt>
      <trkpt lat="42.8922480" lon="-3.3193600">
        <ele>584.3</ele>
        <time>2018-10-21T08:33:27Z</time>
      </trkpt>
      <trkpt lat="42.8922850" lon="-3.3193450">
        <ele>585.2</ele>
        <time>2018-10-21T08:33:28Z</time>
      </trkpt>
      <trkpt lat="42.8923220" lon="-3.3193320">
        <ele>585.2</ele>
        <time>2018-10-21T08:33:29Z</time>
      </trkpt>
      <trkpt lat="42.8923580" lon="-3.3193170">
        <ele>585.2</ele>
        <time>2018-10-21T08:33:30Z</time>
      </trkpt>
      <trkpt lat="42.8923950" lon="-3.3193020">
        <ele>585.2</ele>
        <time>2018-10-21T08:33:31Z</time>
      </trkpt>
      <trkpt lat="42.8924320" lon="-3.3192880">
        <ele>586.3</ele>
        <time>2018-10-21T08:33:32Z</time>
      </trkpt>
      <trkpt lat="42.8924700" lon="-3.3192720">
        <ele>586.3</ele>
        <time>2018-10-21T08:33:33Z</time>
      </trkpt>
      <trkpt lat="42.8925050" lon="-3.3192520">
        <ele>586.3</ele>
        <time>2018-10-21T08:33:34Z</time>
      </trkpt>
      <trkpt lat="42.8925400" lon="-3.3192300">
        <ele>586.3</ele>
        <time>2018-10-21T08:33:35Z</time>
      </trkpt>
      <trkpt lat="42.8925750" lon="-3.3192070">
        <ele>587.2</ele>
        <time>2018-10-21T08:33:36Z</time>
      </trkpt>
      <trkpt lat="42.8926120" lon="-3.3191850">
        <ele>587.2</ele>
        <time>2018-10-21T08:33:37Z</time>
      </trkpt>
      <trkpt lat="42.8926470" lon="-3.3191630">
        <ele>587.2</ele>
        <time>2018-10-21T08:33:38Z</time>
      </trkpt>
      <trkpt lat="42.8926850" lon="-3.3191430">
        <ele>587.2</ele>
        <time>2018-10-21T08:33:39Z</time>
      </trkpt>
      <trkpt lat="42.8927220" lon="-3.3191220">
        <ele>587.2</ele>
        <time>2018-10-21T08:33:40Z</time>
      </trkpt>
      <trkpt lat="42.8927600" lon="-3.3190970">
        <ele>587.2</ele>
        <time>2018-10-21T08:33:41Z</time>
      </trkpt>
      <trkpt lat="42.8927980" lon="-3.3190680">
        <ele>587.2</ele>
        <time>2018-10-21T08:33:42Z</time>
      </trkpt>
      <trkpt lat="42.8928380" lon="-3.3190380">
        <ele>587.2</ele>
        <time>2018-10-21T08:33:43Z</time>
      </trkpt>
      <trkpt lat="42.8928800" lon="-3.3190080">
        <ele>587.2</ele>
        <time>2018-10-21T08:33:44Z</time>
      </trkpt>
      <trkpt lat="42.8929200" lon="-3.3189700">
        <ele>587.2</ele>
        <time>2018-10-21T08:33:45Z</time>
      </trkpt>
      <trkpt lat="42.8929580" lon="-3.3189350">
        <ele>587.2</ele>
        <time>2018-10-21T08:33:46Z</time>
      </trkpt>
      <trkpt lat="42.8929980" lon="-3.3189030">
        <ele>587.2</ele>
        <time>2018-10-21T08:33:47Z</time>
      </trkpt>
      <trkpt lat="42.8930400" lon="-3.3188700">
        <ele>588.3</ele>
        <time>2018-10-21T08:33:48Z</time>
      </trkpt>
      <trkpt lat="42.8930820" lon="-3.3188400">
        <ele>588.3</ele>
        <time>2018-10-21T08:33:49Z</time>
      </trkpt>
      <trkpt lat="42.8931250" lon="-3.3188100">
        <ele>588.3</ele>
        <time>2018-10-21T08:33:50Z</time>
      </trkpt>
      <trkpt lat="42.8931730" lon="-3.3187800">
        <ele>588.3</ele>
        <time>2018-10-21T08:33:51Z</time>
      </trkpt>
      <trkpt lat="42.8932200" lon="-3.3187450">
        <ele>588.3</ele>
        <time>2018-10-21T08:33:52Z</time>
      </trkpt>
      <trkpt lat="42.8932670" lon="-3.3187070">
        <ele>588.3</ele>
        <time>2018-10-21T08:33:53Z</time>
      </trkpt>
      <trkpt lat="42.8933130" lon="-3.3186670">
        <ele>588.3</ele>
        <time>2018-10-21T08:33:54Z</time>
      </trkpt>
      <trkpt lat="42.8933550" lon="-3.3186130">
        <ele>588.3</ele>
        <time>2018-10-21T08:33:55Z</time>
      </trkpt>
      <trkpt lat="42.8934030" lon="-3.3185630">
        <ele>588.3</ele>
        <time>2018-10-21T08:33:56Z</time>
      </trkpt>
      <trkpt lat="42.8934520" lon="-3.3185100">
        <ele>588.3</ele>
        <time>2018-10-21T08:33:57Z</time>
      </trkpt>
      <trkpt lat="42.8935030" lon="-3.3184530">
        <ele>588.3</ele>
        <time>2018-10-21T08:33:58Z</time>
      </trkpt>
      <trkpt lat="42.8935580" lon="-3.3183930">
        <ele>588.3</ele>
        <time>2018-10-21T08:33:59Z</time>
      </trkpt>
      <trkpt lat="42.8936150" lon="-3.3183330">
        <ele>587.2</ele>
        <time>2018-10-21T08:34:00Z</time>
      </trkpt>
      <trkpt lat="42.8936770" lon="-3.3182730">
        <ele>587.2</ele>
        <time>2018-10-21T08:34:01Z</time>
      </trkpt>
      <trkpt lat="42.8937400" lon="-3.3182080">
        <ele>586.3</ele>
        <time>2018-10-21T08:34:02Z</time>
      </trkpt>
      <trkpt lat="42.8938030" lon="-3.3181380">
        <ele>586.3</ele>
        <time>2018-10-21T08:34:03Z</time>
      </trkpt>
      <trkpt lat="42.8938700" lon="-3.3180680">
        <ele>585.2</ele>
        <time>2018-10-21T08:34:04Z</time>
      </trkpt>
      <trkpt lat="42.8939400" lon="-3.3180000">
        <ele>585.2</ele>
        <time>2018-10-21T08:34:05Z</time>
      </trkpt>
      <trkpt lat="42.8940130" lon="-3.3179350">
        <ele>584.3</ele>
        <time>2018-10-21T08:34:06Z</time>
      </trkpt>
      <trkpt lat="42.8940900" lon="-3.3178730">
        <ele>584.3</ele>
        <time>2018-10-21T08:34:07Z</time>
      </trkpt>
      <trkpt lat="42.8941720" lon="-3.3178200">
        <ele>583.2</ele>
        <time>2018-10-21T08:34:08Z</time>
      </trkpt>
      <trkpt lat="42.8942570" lon="-3.3177750">
        <ele>583.2</ele>
        <time>2018-10-21T08:34:09Z</time>
      </trkpt>
      <trkpt lat="42.8943450" lon="-3.3177370">
        <ele>582.2</ele>
        <time>2018-10-21T08:34:10Z</time>
      </trkpt>
      <trkpt lat="42.8944370" lon="-3.3177070">
        <ele>582.2</ele>
        <time>2018-10-21T08:34:11Z</time>
      </trkpt>
      <trkpt lat="42.8945280" lon="-3.3176820">
        <ele>582.2</ele>
        <time>2018-10-21T08:34:12Z</time>
      </trkpt>
      <trkpt lat="42.8946200" lon="-3.3176600">
        <ele>582.2</ele>
        <time>2018-10-21T08:34:13Z</time>
      </trkpt>
      <trkpt lat="42.8947120" lon="-3.3176420">
        <ele>581.3</ele>
        <time>2018-10-21T08:34:14Z</time>
      </trkpt>
      <trkpt lat="42.8948020" lon="-3.3176230">
        <ele>581.3</ele>
        <time>2018-10-21T08:34:15Z</time>
      </trkpt>
      <trkpt lat="42.8948900" lon="-3.3176030">
        <ele>581.3</ele>
        <time>2018-10-21T08:34:16Z</time>
      </trkpt>
      <trkpt lat="42.8949750" lon="-3.3175850">
        <ele>581.3</ele>
        <time>2018-10-21T08:34:17Z</time>
      </trkpt>
      <trkpt lat="42.8950570" lon="-3.3175620">
        <ele>581.3</ele>
        <time>2018-10-21T08:34:18Z</time>
      </trkpt>
      <trkpt lat="42.8951330" lon="-3.3175350">
        <ele>581.3</ele>
        <time>2018-10-21T08:34:19Z</time>
      </trkpt>
      <trkpt lat="42.8952080" lon="-3.3175070">
        <ele>581.3</ele>
        <time>2018-10-21T08:34:20Z</time>
      </trkpt>
      <trkpt lat="42.8952820" lon="-3.3174750">
        <ele>581.3</ele>
        <time>2018-10-21T08:34:21Z</time>
      </trkpt>
      <trkpt lat="42.8953550" lon="-3.3174430">
        <ele>581.3</ele>
        <time>2018-10-21T08:34:22Z</time>
      </trkpt>
      <trkpt lat="42.8954250" lon="-3.3174070">
        <ele>581.3</ele>
        <time>2018-10-21T08:34:23Z</time>
      </trkpt>
      <trkpt lat="42.8954920" lon="-3.3173680">
        <ele>581.3</ele>
        <time>2018-10-21T08:34:24Z</time>
      </trkpt>
      <trkpt lat="42.8955570" lon="-3.3173330">
        <ele>581.3</ele>
        <time>2018-10-21T08:34:25Z</time>
      </trkpt>
      <trkpt lat="42.8956220" lon="-3.3173030">
        <ele>582.2</ele>
        <time>2018-10-21T08:34:26Z</time>
      </trkpt>
      <trkpt lat="42.8956830" lon="-3.3172770">
        <ele>582.2</ele>
        <time>2018-10-21T08:34:27Z</time>
      </trkpt>
      <trkpt lat="42.8957430" lon="-3.3172450">
        <ele>582.2</ele>
        <time>2018-10-21T08:34:28Z</time>
      </trkpt>
      <trkpt lat="42.8958030" lon="-3.3172080">
        <ele>582.2</ele>
        <time>2018-10-21T08:34:29Z</time>
      </trkpt>
      <trkpt lat="42.8958650" lon="-3.3171730">
        <ele>582.2</ele>
        <time>2018-10-21T08:34:30Z</time>
      </trkpt>
      <trkpt lat="42.8959280" lon="-3.3171380">
        <ele>582.2</ele>
        <time>2018-10-21T08:34:31Z</time>
      </trkpt>
      <trkpt lat="42.8959920" lon="-3.3171080">
        <ele>582.2</ele>
        <time>2018-10-21T08:34:32Z</time>
      </trkpt>
      <trkpt lat="42.8960570" lon="-3.3170830">
        <ele>582.2</ele>
        <time>2018-10-21T08:34:33Z</time>
      </trkpt>
      <trkpt lat="42.8961270" lon="-3.3170620">
        <ele>582.2</ele>
        <time>2018-10-21T08:34:34Z</time>
      </trkpt>
      <trkpt lat="42.8961970" lon="-3.3170430">
        <ele>582.2</ele>
        <time>2018-10-21T08:34:35Z</time>
      </trkpt>
      <trkpt lat="42.8962670" lon="-3.3170300">
        <ele>582.2</ele>
        <time>2018-10-21T08:34:36Z</time>
      </trkpt>
      <trkpt lat="42.8963370" lon="-3.3170180">
        <ele>582.2</ele>
        <time>2018-10-21T08:34:37Z</time>
      </trkpt>
      <trkpt lat="42.8964070" lon="-3.3170030">
        <ele>582.2</ele>
        <time>2018-10-21T08:34:38Z</time>
      </trkpt>
      <trkpt lat="42.8964750" lon="-3.3169830">
        <ele>582.2</ele>
        <time>2018-10-21T08:34:39Z</time>
      </trkpt>
      <trkpt lat="42.8965400" lon="-3.3169570">
        <ele>583.2</ele>
        <time>2018-10-21T08:34:40Z</time>
      </trkpt>
      <trkpt lat="42.8966030" lon="-3.3169270">
        <ele>583.2</ele>
        <time>2018-10-21T08:34:41Z</time>
      </trkpt>
      <trkpt lat="42.8966670" lon="-3.3168950">
        <ele>583.2</ele>
        <time>2018-10-21T08:34:42Z</time>
      </trkpt>
      <trkpt lat="42.8967300" lon="-3.3168620">
        <ele>583.2</ele>
        <time>2018-10-21T08:34:43Z</time>
      </trkpt>
      <trkpt lat="42.8967920" lon="-3.3168250">
        <ele>583.2</ele>
        <time>2018-10-21T08:34:44Z</time>
      </trkpt>
      <trkpt lat="42.8968530" lon="-3.3167850">
        <ele>583.2</ele>
        <time>2018-10-21T08:34:45Z</time>
      </trkpt>
      <trkpt lat="42.8969150" lon="-3.3167470">
        <ele>583.2</ele>
        <time>2018-10-21T08:34:46Z</time>
      </trkpt>
      <trkpt lat="42.8969780" lon="-3.3167070">
        <ele>583.2</ele>
        <time>2018-10-21T08:34:47Z</time>
      </trkpt>
      <trkpt lat="42.8970380" lon="-3.3166620">
        <ele>583.2</ele>
        <time>2018-10-21T08:34:48Z</time>
      </trkpt>
      <trkpt lat="42.8971000" lon="-3.3166180">
        <ele>583.2</ele>
        <time>2018-10-21T08:34:49Z</time>
      </trkpt>
      <trkpt lat="42.8971650" lon="-3.3165800">
        <ele>583.2</ele>
        <time>2018-10-21T08:34:50Z</time>
      </trkpt>
      <trkpt lat="42.8972300" lon="-3.3165470">
        <ele>583.2</ele>
        <time>2018-10-21T08:34:51Z</time>
      </trkpt>
      <trkpt lat="42.8972980" lon="-3.3165180">
        <ele>583.2</ele>
        <time>2018-10-21T08:34:52Z</time>
      </trkpt>
      <trkpt lat="42.8973700" lon="-3.3164970">
        <ele>583.2</ele>
        <time>2018-10-21T08:34:53Z</time>
      </trkpt>
      <trkpt lat="42.8974400" lon="-3.3164870">
        <ele>583.2</ele>
        <time>2018-10-21T08:34:54Z</time>
      </trkpt>
      <trkpt lat="42.8975100" lon="-3.3164820">
        <ele>583.2</ele>
        <time>2018-10-21T08:34:55Z</time>
      </trkpt>
      <trkpt lat="42.8975800" lon="-3.3164750">
        <ele>583.2</ele>
        <time>2018-10-21T08:34:56Z</time>
      </trkpt>
      <trkpt lat="42.8976470" lon="-3.3164700">
        <ele>583.2</ele>
        <time>2018-10-21T08:34:57Z</time>
      </trkpt>
      <trkpt lat="42.8977130" lon="-3.3164620">
        <ele>583.2</ele>
        <time>2018-10-21T08:34:58Z</time>
      </trkpt>
      <trkpt lat="42.8977800" lon="-3.3164520">
        <ele>583.2</ele>
        <time>2018-10-21T08:34:59Z</time>
      </trkpt>
      <trkpt lat="42.8978500" lon="-3.3164450">
        <ele>583.2</ele>
        <time>2018-10-21T08:35:00Z</time>
      </trkpt>
      <trkpt lat="42.8979220" lon="-3.3164400">
        <ele>583.2</ele>
        <time>2018-10-21T08:35:01Z</time>
      </trkpt>
      <trkpt lat="42.8979930" lon="-3.3164380">
        <ele>583.2</ele>
        <time>2018-10-21T08:35:02Z</time>
      </trkpt>
      <trkpt lat="42.8980650" lon="-3.3164370">
        <ele>583.2</ele>
        <time>2018-10-21T08:35:03Z</time>
      </trkpt>
      <trkpt lat="42.8981370" lon="-3.3164350">
        <ele>583.2</ele>
        <time>2018-10-21T08:35:04Z</time>
      </trkpt>
      <trkpt lat="42.8982080" lon="-3.3164370">
        <ele>583.2</ele>
        <time>2018-10-21T08:35:05Z</time>
      </trkpt>
      <trkpt lat="42.8982800" lon="-3.3164370">
        <ele>583.2</ele>
        <time>2018-10-21T08:35:06Z</time>
      </trkpt>
      <trkpt lat="42.8983500" lon="-3.3164370">
        <ele>583.2</ele>
        <time>2018-10-21T08:35:07Z</time>
      </trkpt>
      <trkpt lat="42.8984220" lon="-3.3164400">
        <ele>582.2</ele>
        <time>2018-10-21T08:35:08Z</time>
      </trkpt>
      <trkpt lat="42.8984950" lon="-3.3164420">
        <ele>582.2</ele>
        <time>2018-10-21T08:35:09Z</time>
      </trkpt>
      <trkpt lat="42.8985700" lon="-3.3164420">
        <ele>582.2</ele>
        <time>2018-10-21T08:35:10Z</time>
      </trkpt>
      <trkpt lat="42.8986430" lon="-3.3164500">
        <ele>582.2</ele>
        <time>2018-10-21T08:35:11Z</time>
      </trkpt>
      <trkpt lat="42.8987170" lon="-3.3164530">
        <ele>582.2</ele>
        <time>2018-10-21T08:35:12Z</time>
      </trkpt>
      <trkpt lat="42.8987870" lon="-3.3164580">
        <ele>582.2</ele>
        <time>2018-10-21T08:35:13Z</time>
      </trkpt>
      <trkpt lat="42.8988580" lon="-3.3164650">
        <ele>582.2</ele>
        <time>2018-10-21T08:35:14Z</time>
      </trkpt>
      <trkpt lat="42.8989250" lon="-3.3164800">
        <ele>582.2</ele>
        <time>2018-10-21T08:35:15Z</time>
      </trkpt>
      <trkpt lat="42.8989900" lon="-3.3165020">
        <ele>581.3</ele>
        <time>2018-10-21T08:35:16Z</time>
      </trkpt>
      <trkpt lat="42.8990530" lon="-3.3165200">
        <ele>581.3</ele>
        <time>2018-10-21T08:35:17Z</time>
      </trkpt>
      <trkpt lat="42.8991150" lon="-3.3165420">
        <ele>581.3</ele>
        <time>2018-10-21T08:35:18Z</time>
      </trkpt>
      <trkpt lat="42.8991770" lon="-3.3165620">
        <ele>581.3</ele>
        <time>2018-10-21T08:35:19Z</time>
      </trkpt>
      <trkpt lat="42.8992350" lon="-3.3165800">
        <ele>581.3</ele>
        <time>2018-10-21T08:35:20Z</time>
      </trkpt>
      <trkpt lat="42.8992930" lon="-3.3166000">
        <ele>581.3</ele>
        <time>2018-10-21T08:35:21Z</time>
      </trkpt>
      <trkpt lat="42.8993500" lon="-3.3166180">
        <ele>581.3</ele>
        <time>2018-10-21T08:35:22Z</time>
      </trkpt>
      <trkpt lat="42.8994080" lon="-3.3166300">
        <ele>581.3</ele>
        <time>2018-10-21T08:35:23Z</time>
      </trkpt>
      <trkpt lat="42.8994650" lon="-3.3166450">
        <ele>582.2</ele>
        <time>2018-10-21T08:35:24Z</time>
      </trkpt>
      <trkpt lat="42.8995200" lon="-3.3166630">
        <ele>582.2</ele>
        <time>2018-10-21T08:35:25Z</time>
      </trkpt>
      <trkpt lat="42.8995750" lon="-3.3166830">
        <ele>582.2</ele>
        <time>2018-10-21T08:35:26Z</time>
      </trkpt>
      <trkpt lat="42.8996300" lon="-3.3167030">
        <ele>582.2</ele>
        <time>2018-10-21T08:35:27Z</time>
      </trkpt>
      <trkpt lat="42.8996830" lon="-3.3167230">
        <ele>582.2</ele>
        <time>2018-10-21T08:35:28Z</time>
      </trkpt>
      <trkpt lat="42.8997380" lon="-3.3167420">
        <ele>582.2</ele>
        <time>2018-10-21T08:35:29Z</time>
      </trkpt>
      <trkpt lat="42.8997950" lon="-3.3167580">
        <ele>582.2</ele>
        <time>2018-10-21T08:35:30Z</time>
      </trkpt>
      <trkpt lat="42.8998520" lon="-3.3167750">
        <ele>582.2</ele>
        <time>2018-10-21T08:35:31Z</time>
      </trkpt>
      <trkpt lat="42.8999100" lon="-3.3167930">
        <ele>582.2</ele>
        <time>2018-10-21T08:35:32Z</time>
      </trkpt>
      <trkpt lat="42.8999680" lon="-3.3168100">
        <ele>582.2</ele>
        <time>2018-10-21T08:35:33Z</time>
      </trkpt>
      <trkpt lat="42.9000280" lon="-3.3168220">
        <ele>582.2</ele>
        <time>2018-10-21T08:35:34Z</time>
      </trkpt>
      <trkpt lat="42.9000880" lon="-3.3168380">
        <ele>582.2</ele>
        <time>2018-10-21T08:35:35Z</time>
      </trkpt>
      <trkpt lat="42.9001500" lon="-3.3168550">
        <ele>582.2</ele>
        <time>2018-10-21T08:35:36Z</time>
      </trkpt>
      <trkpt lat="42.9002130" lon="-3.3168670">
        <ele>582.2</ele>
        <time>2018-10-21T08:35:37Z</time>
      </trkpt>
      <trkpt lat="42.9002770" lon="-3.3168730">
        <ele>582.2</ele>
        <time>2018-10-21T08:35:38Z</time>
      </trkpt>
      <trkpt lat="42.9003400" lon="-3.3168770">
        <ele>582.2</ele>
        <time>2018-10-21T08:35:39Z</time>
      </trkpt>
      <trkpt lat="42.9004030" lon="-3.3168770">
        <ele>583.2</ele>
        <time>2018-10-21T08:35:40Z</time>
      </trkpt>
      <trkpt lat="42.9004680" lon="-3.3168700">
        <ele>583.2</ele>
        <time>2018-10-21T08:35:41Z</time>
      </trkpt>
      <trkpt lat="42.9005320" lon="-3.3168630">
        <ele>583.2</ele>
        <time>2018-10-21T08:35:42Z</time>
      </trkpt>
      <trkpt lat="42.9005970" lon="-3.3168520">
        <ele>583.2</ele>
        <time>2018-10-21T08:35:43Z</time>
      </trkpt>
      <trkpt lat="42.9006620" lon="-3.3168420">
        <ele>583.2</ele>
        <time>2018-10-21T08:35:44Z</time>
      </trkpt>
      <trkpt lat="42.9007250" lon="-3.3168280">
        <ele>583.2</ele>
        <time>2018-10-21T08:35:45Z</time>
      </trkpt>
      <trkpt lat="42.9007880" lon="-3.3168150">
        <ele>582.2</ele>
        <time>2018-10-21T08:35:46Z</time>
      </trkpt>
      <trkpt lat="42.9008530" lon="-3.3168020">
        <ele>582.2</ele>
        <time>2018-10-21T08:35:47Z</time>
      </trkpt>
      <trkpt lat="42.9009170" lon="-3.3167870">
        <ele>582.2</ele>
        <time>2018-10-21T08:35:48Z</time>
      </trkpt>
      <trkpt lat="42.9009820" lon="-3.3167730">
        <ele>582.2</ele>
        <time>2018-10-21T08:35:49Z</time>
      </trkpt>
      <trkpt lat="42.9010450" lon="-3.3167600">
        <ele>582.2</ele>
        <time>2018-10-21T08:35:50Z</time>
      </trkpt>
      <trkpt lat="42.9011100" lon="-3.3167430">
        <ele>582.2</ele>
        <time>2018-10-21T08:35:51Z</time>
      </trkpt>
      <trkpt lat="42.9011730" lon="-3.3167280">
        <ele>582.2</ele>
        <time>2018-10-21T08:35:52Z</time>
      </trkpt>
      <trkpt lat="42.9012370" lon="-3.3167150">
        <ele>582.2</ele>
        <time>2018-10-21T08:35:53Z</time>
      </trkpt>
      <trkpt lat="42.9013020" lon="-3.3167000">
        <ele>582.2</ele>
        <time>2018-10-21T08:35:54Z</time>
      </trkpt>
      <trkpt lat="42.9013630" lon="-3.3166850">
        <ele>582.2</ele>
        <time>2018-10-21T08:35:55Z</time>
      </trkpt>
      <trkpt lat="42.9014230" lon="-3.3166650">
        <ele>583.2</ele>
        <time>2018-10-21T08:35:56Z</time>
      </trkpt>
      <trkpt lat="42.9014800" lon="-3.3166450">
        <ele>583.2</ele>
        <time>2018-10-21T08:35:57Z</time>
      </trkpt>
      <trkpt lat="42.9015350" lon="-3.3166230">
        <ele>583.2</ele>
        <time>2018-10-21T08:35:58Z</time>
      </trkpt>
      <trkpt lat="42.9015900" lon="-3.3165980">
        <ele>583.2</ele>
        <time>2018-10-21T08:35:59Z</time>
      </trkpt>
      <trkpt lat="42.9016420" lon="-3.3165700">
        <ele>584.3</ele>
        <time>2018-10-21T08:36:00Z</time>
      </trkpt>
      <trkpt lat="42.9016920" lon="-3.3165350">
        <ele>584.3</ele>
        <time>2018-10-21T08:36:01Z</time>
      </trkpt>
      <trkpt lat="42.9017420" lon="-3.3164970">
        <ele>584.3</ele>
        <time>2018-10-21T08:36:02Z</time>
      </trkpt>
      <trkpt lat="42.9017880" lon="-3.3164520">
        <ele>584.3</ele>
        <time>2018-10-21T08:36:03Z</time>
      </trkpt>
      <trkpt lat="42.9018320" lon="-3.3164030">
        <ele>584.3</ele>
        <time>2018-10-21T08:36:04Z</time>
      </trkpt>
      <trkpt lat="42.9018700" lon="-3.3163480">
        <ele>584.3</ele>
        <time>2018-10-21T08:36:05Z</time>
      </trkpt>
      <trkpt lat="42.9019070" lon="-3.3162920">
        <ele>585.2</ele>
        <time>2018-10-21T08:36:06Z</time>
      </trkpt>
      <trkpt lat="42.9019420" lon="-3.3162380">
        <ele>585.2</ele>
        <time>2018-10-21T08:36:07Z</time>
      </trkpt>
      <trkpt lat="42.9019780" lon="-3.3161870">
        <ele>585.2</ele>
        <time>2018-10-21T08:36:08Z</time>
      </trkpt>
      <trkpt lat="42.9020170" lon="-3.3161380">
        <ele>585.2</ele>
        <time>2018-10-21T08:36:09Z</time>
      </trkpt>
      <trkpt lat="42.9020550" lon="-3.3160930">
        <ele>585.2</ele>
        <time>2018-10-21T08:36:10Z</time>
      </trkpt>
      <trkpt lat="42.9020930" lon="-3.3160500">
        <ele>585.2</ele>
        <time>2018-10-21T08:36:11Z</time>
      </trkpt>
      <trkpt lat="42.9021350" lon="-3.3160120">
        <ele>585.2</ele>
        <time>2018-10-21T08:36:12Z</time>
      </trkpt>
      <trkpt lat="42.9021780" lon="-3.3159750">
        <ele>585.2</ele>
        <time>2018-10-21T08:36:13Z</time>
      </trkpt>
      <trkpt lat="42.9022180" lon="-3.3159350">
        <ele>585.2</ele>
        <time>2018-10-21T08:36:14Z</time>
      </trkpt>
      <trkpt lat="42.9022620" lon="-3.3158970">
        <ele>585.2</ele>
        <time>2018-10-21T08:36:15Z</time>
      </trkpt>
      <trkpt lat="42.9023030" lon="-3.3158600">
        <ele>587.2</ele>
        <time>2018-10-21T08:36:16Z</time>
      </trkpt>
      <trkpt lat="42.9023450" lon="-3.3158270">
        <ele>587.2</ele>
        <time>2018-10-21T08:36:17Z</time>
      </trkpt>
      <trkpt lat="42.9023850" lon="-3.3157950">
        <ele>587.2</ele>
        <time>2018-10-21T08:36:18Z</time>
      </trkpt>
      <trkpt lat="42.9024220" lon="-3.3157630">
        <ele>587.2</ele>
        <time>2018-10-21T08:36:19Z</time>
      </trkpt>
      <trkpt lat="42.9024580" lon="-3.3157320">
        <ele>588.3</ele>
        <time>2018-10-21T08:36:20Z</time>
      </trkpt>
      <trkpt lat="42.9024950" lon="-3.3157020">
        <ele>588.3</ele>
        <time>2018-10-21T08:36:21Z</time>
      </trkpt>
      <trkpt lat="42.9025320" lon="-3.3156700">
        <ele>589.2</ele>
        <time>2018-10-21T08:36:22Z</time>
      </trkpt>
      <trkpt lat="42.9025680" lon="-3.3156380">
        <ele>589.2</ele>
        <time>2018-10-21T08:36:23Z</time>
      </trkpt>
      <trkpt lat="42.9026050" lon="-3.3156070">
        <ele>589.2</ele>
        <time>2018-10-21T08:36:24Z</time>
      </trkpt>
      <trkpt lat="42.9026380" lon="-3.3155750">
        <ele>589.2</ele>
        <time>2018-10-21T08:36:25Z</time>
      </trkpt>
      <trkpt lat="42.9026730" lon="-3.3155430">
        <ele>590.3</ele>
        <time>2018-10-21T08:36:26Z</time>
      </trkpt>
      <trkpt lat="42.9027100" lon="-3.3155170">
        <ele>590.3</ele>
        <time>2018-10-21T08:36:27Z</time>
      </trkpt>
      <trkpt lat="42.9027480" lon="-3.3154870">
        <ele>590.3</ele>
        <time>2018-10-21T08:36:28Z</time>
      </trkpt>
      <trkpt lat="42.9027870" lon="-3.3154570">
        <ele>590.3</ele>
        <time>2018-10-21T08:36:29Z</time>
      </trkpt>
      <trkpt lat="42.9028280" lon="-3.3154300">
        <ele>591.2</ele>
        <time>2018-10-21T08:36:30Z</time>
      </trkpt>
      <trkpt lat="42.9028730" lon="-3.3154070">
        <ele>591.2</ele>
        <time>2018-10-21T08:36:31Z</time>
      </trkpt>
      <trkpt lat="42.9029170" lon="-3.3153820">
        <ele>591.2</ele>
        <time>2018-10-21T08:36:32Z</time>
      </trkpt>
      <trkpt lat="42.9029600" lon="-3.3153620">
        <ele>591.2</ele>
        <time>2018-10-21T08:36:33Z</time>
      </trkpt>
      <trkpt lat="42.9030050" lon="-3.3153500">
        <ele>591.2</ele>
        <time>2018-10-21T08:36:34Z</time>
      </trkpt>
      <trkpt lat="42.9030500" lon="-3.3153430">
        <ele>591.2</ele>
        <time>2018-10-21T08:36:35Z</time>
      </trkpt>
      <trkpt lat="42.9030950" lon="-3.3153400">
        <ele>592.2</ele>
        <time>2018-10-21T08:36:36Z</time>
      </trkpt>
      <trkpt lat="42.9031400" lon="-3.3153420">
        <ele>592.2</ele>
        <time>2018-10-21T08:36:37Z</time>
      </trkpt>
      <trkpt lat="42.9031850" lon="-3.3153530">
        <ele>592.2</ele>
        <time>2018-10-21T08:36:38Z</time>
      </trkpt>
      <trkpt lat="42.9032330" lon="-3.3153730">
        <ele>592.2</ele>
        <time>2018-10-21T08:36:39Z</time>
      </trkpt>
      <trkpt lat="42.9032850" lon="-3.3153950">
        <ele>592.2</ele>
        <time>2018-10-21T08:36:40Z</time>
      </trkpt>
      <trkpt lat="42.9033370" lon="-3.3154220">
        <ele>592.2</ele>
        <time>2018-10-21T08:36:41Z</time>
      </trkpt>
      <trkpt lat="42.9033900" lon="-3.3154530">
        <ele>592.2</ele>
        <time>2018-10-21T08:36:42Z</time>
      </trkpt>
      <trkpt lat="42.9034400" lon="-3.3154930">
        <ele>592.2</ele>
        <time>2018-10-21T08:36:43Z</time>
      </trkpt>
      <trkpt lat="42.9034920" lon="-3.3155400">
        <ele>591.2</ele>
        <time>2018-10-21T08:36:44Z</time>
      </trkpt>
      <trkpt lat="42.9035420" lon="-3.3155920">
        <ele>591.2</ele>
        <time>2018-10-21T08:36:45Z</time>
      </trkpt>
      <trkpt lat="42.9035970" lon="-3.3156450">
        <ele>591.2</ele>
        <time>2018-10-21T08:36:46Z</time>
      </trkpt>
      <trkpt lat="42.9036530" lon="-3.3157020">
        <ele>591.2</ele>
        <time>2018-10-21T08:36:47Z</time>
      </trkpt>
      <trkpt lat="42.9037120" lon="-3.3157600">
        <ele>591.2</ele>
        <time>2018-10-21T08:36:48Z</time>
      </trkpt>
      <trkpt lat="42.9037720" lon="-3.3158220">
        <ele>591.2</ele>
        <time>2018-10-21T08:36:49Z</time>
      </trkpt>
      <trkpt lat="42.9038330" lon="-3.3158850">
        <ele>591.2</ele>
        <time>2018-10-21T08:36:50Z</time>
      </trkpt>
      <trkpt lat="42.9039020" lon="-3.3159470">
        <ele>591.2</ele>
        <time>2018-10-21T08:36:51Z</time>
      </trkpt>
      <trkpt lat="42.9039700" lon="-3.3160150">
        <ele>590.3</ele>
        <time>2018-10-21T08:36:52Z</time>
      </trkpt>
      <trkpt lat="42.9040400" lon="-3.3160850">
        <ele>590.3</ele>
        <time>2018-10-21T08:36:53Z</time>
      </trkpt>
      <trkpt lat="42.9041120" lon="-3.3161570">
        <ele>590.3</ele>
        <time>2018-10-21T08:36:54Z</time>
      </trkpt>
      <trkpt lat="42.9041850" lon="-3.3162320">
        <ele>590.3</ele>
        <time>2018-10-21T08:36:55Z</time>
      </trkpt>
      <trkpt lat="42.9042600" lon="-3.3163080">
        <ele>589.2</ele>
        <time>2018-10-21T08:36:56Z</time>
      </trkpt>
      <trkpt lat="42.9043370" lon="-3.3163870">
        <ele>589.2</ele>
        <time>2018-10-21T08:36:57Z</time>
      </trkpt>
      <trkpt lat="42.9044170" lon="-3.3164620">
        <ele>588.3</ele>
        <time>2018-10-21T08:36:58Z</time>
      </trkpt>
      <trkpt lat="42.9045000" lon="-3.3165330">
        <ele>588.3</ele>
        <time>2018-10-21T08:36:59Z</time>
      </trkpt>
      <trkpt lat="42.9045850" lon="-3.3166030">
        <ele>587.2</ele>
        <time>2018-10-21T08:37:00Z</time>
      </trkpt>
      <trkpt lat="42.9046720" lon="-3.3166680">
        <ele>587.2</ele>
        <time>2018-10-21T08:37:01Z</time>
      </trkpt>
      <trkpt lat="42.9047550" lon="-3.3167320">
        <ele>586.3</ele>
        <time>2018-10-21T08:37:02Z</time>
      </trkpt>
      <trkpt lat="42.9048380" lon="-3.3167950">
        <ele>586.3</ele>
        <time>2018-10-21T08:37:03Z</time>
      </trkpt>
      <trkpt lat="42.9049200" lon="-3.3168570">
        <ele>586.3</ele>
        <time>2018-10-21T08:37:04Z</time>
      </trkpt>
      <trkpt lat="42.9050020" lon="-3.3169170">
        <ele>586.3</ele>
        <time>2018-10-21T08:37:05Z</time>
      </trkpt>
      <trkpt lat="42.9050820" lon="-3.3169750">
        <ele>586.3</ele>
        <time>2018-10-21T08:37:06Z</time>
      </trkpt>
      <trkpt lat="42.9051600" lon="-3.3170350">
        <ele>586.3</ele>
        <time>2018-10-21T08:37:07Z</time>
      </trkpt>
      <trkpt lat="42.9052380" lon="-3.3170950">
        <ele>586.3</ele>
        <time>2018-10-21T08:37:08Z</time>
      </trkpt>
      <trkpt lat="42.9053170" lon="-3.3171530">
        <ele>586.3</ele>
        <time>2018-10-21T08:37:09Z</time>
      </trkpt>
      <trkpt lat="42.9053950" lon="-3.3172120">
        <ele>584.3</ele>
        <time>2018-10-21T08:37:10Z</time>
      </trkpt>
      <trkpt lat="42.9054730" lon="-3.3172650">
        <ele>584.3</ele>
        <time>2018-10-21T08:37:11Z</time>
      </trkpt>
      <trkpt lat="42.9055520" lon="-3.3173170">
        <ele>584.3</ele>
        <time>2018-10-21T08:37:12Z</time>
      </trkpt>
      <trkpt lat="42.9056280" lon="-3.3173700">
        <ele>584.3</ele>
        <time>2018-10-21T08:37:13Z</time>
      </trkpt>
      <trkpt lat="42.9057050" lon="-3.3174230">
        <ele>584.3</ele>
        <time>2018-10-21T08:37:14Z</time>
      </trkpt>
      <trkpt lat="42.9057820" lon="-3.3174720">
        <ele>584.3</ele>
        <time>2018-10-21T08:37:15Z</time>
      </trkpt>
      <trkpt lat="42.9058570" lon="-3.3175130">
        <ele>583.2</ele>
        <time>2018-10-21T08:37:16Z</time>
      </trkpt>
      <trkpt lat="42.9059370" lon="-3.3175400">
        <ele>583.2</ele>
        <time>2018-10-21T08:37:17Z</time>
      </trkpt>
      <trkpt lat="42.9060170" lon="-3.3175530">
        <ele>583.2</ele>
        <time>2018-10-21T08:37:18Z</time>
      </trkpt>
      <trkpt lat="42.9060970" lon="-3.3175530">
        <ele>583.2</ele>
        <time>2018-10-21T08:37:19Z</time>
      </trkpt>
      <trkpt lat="42.9061770" lon="-3.3175420">
        <ele>583.2</ele>
        <time>2018-10-21T08:37:20Z</time>
      </trkpt>
      <trkpt lat="42.9062550" lon="-3.3175200">
        <ele>583.2</ele>
        <time>2018-10-21T08:37:21Z</time>
      </trkpt>
      <trkpt lat="42.9063320" lon="-3.3174950">
        <ele>583.2</ele>
        <time>2018-10-21T08:37:22Z</time>
      </trkpt>
      <trkpt lat="42.9064080" lon="-3.3174670">
        <ele>583.2</ele>
        <time>2018-10-21T08:37:23Z</time>
      </trkpt>
      <trkpt lat="42.9064850" lon="-3.3174420">
        <ele>583.2</ele>
        <time>2018-10-21T08:37:24Z</time>
      </trkpt>
      <trkpt lat="42.9065600" lon="-3.3174150">
        <ele>583.2</ele>
        <time>2018-10-21T08:37:25Z</time>
      </trkpt>
      <trkpt lat="42.9066330" lon="-3.3173880">
        <ele>583.2</ele>
        <time>2018-10-21T08:37:26Z</time>
      </trkpt>
      <trkpt lat="42.9067080" lon="-3.3173600">
        <ele>583.2</ele>
        <time>2018-10-21T08:37:27Z</time>
      </trkpt>
      <trkpt lat="42.9067820" lon="-3.3173330">
        <ele>583.2</ele>
        <time>2018-10-21T08:37:28Z</time>
      </trkpt>
      <trkpt lat="42.9068550" lon="-3.3173080">
        <ele>583.2</ele>
        <time>2018-10-21T08:37:29Z</time>
      </trkpt>
      <trkpt lat="42.9069270" lon="-3.3172830">
        <ele>583.2</ele>
        <time>2018-10-21T08:37:30Z</time>
      </trkpt>
      <trkpt lat="42.9069980" lon="-3.3172550">
        <ele>583.2</ele>
        <time>2018-10-21T08:37:31Z</time>
      </trkpt>
      <trkpt lat="42.9070700" lon="-3.3172270">
        <ele>583.2</ele>
        <time>2018-10-21T08:37:32Z</time>
      </trkpt>
      <trkpt lat="42.9071430" lon="-3.3172000">
        <ele>583.2</ele>
        <time>2018-10-21T08:37:33Z</time>
      </trkpt>
      <trkpt lat="42.9072150" lon="-3.3171700">
        <ele>583.2</ele>
        <time>2018-10-21T08:37:34Z</time>
      </trkpt>
      <trkpt lat="42.9072880" lon="-3.3171350">
        <ele>583.2</ele>
        <time>2018-10-21T08:37:35Z</time>
      </trkpt>
      <trkpt lat="42.9073580" lon="-3.3170950">
        <ele>583.2</ele>
        <time>2018-10-21T08:37:36Z</time>
      </trkpt>
      <trkpt lat="42.9074270" lon="-3.3170470">
        <ele>583.2</ele>
        <time>2018-10-21T08:37:37Z</time>
      </trkpt>
      <trkpt lat="42.9074900" lon="-3.3169920">
        <ele>583.2</ele>
        <time>2018-10-21T08:37:38Z</time>
      </trkpt>
      <trkpt lat="42.9075520" lon="-3.3169300">
        <ele>583.2</ele>
        <time>2018-10-21T08:37:39Z</time>
      </trkpt>
      <trkpt lat="42.9076070" lon="-3.3168630">
        <ele>583.2</ele>
        <time>2018-10-21T08:37:40Z</time>
      </trkpt>
      <trkpt lat="42.9076580" lon="-3.3167930">
        <ele>583.2</ele>
        <time>2018-10-21T08:37:41Z</time>
      </trkpt>
      <trkpt lat="42.9077100" lon="-3.3167230">
        <ele>584.3</ele>
        <time>2018-10-21T08:37:42Z</time>
      </trkpt>
      <trkpt lat="42.9077570" lon="-3.3166520">
        <ele>584.3</ele>
        <time>2018-10-21T08:37:43Z</time>
      </trkpt>
      <trkpt lat="42.9078070" lon="-3.3165800">
        <ele>584.3</ele>
        <time>2018-10-21T08:37:44Z</time>
      </trkpt>
      <trkpt lat="42.9078570" lon="-3.3165120">
        <ele>584.3</ele>
        <time>2018-10-21T08:37:45Z</time>
      </trkpt>
      <trkpt lat="42.9079030" lon="-3.3164420">
        <ele>584.3</ele>
        <time>2018-10-21T08:37:46Z</time>
      </trkpt>
      <trkpt lat="42.9079500" lon="-3.3163720">
        <ele>584.3</ele>
        <time>2018-10-21T08:37:47Z</time>
      </trkpt>
      <trkpt lat="42.9079970" lon="-3.3163030">
        <ele>585.2</ele>
        <time>2018-10-21T08:37:48Z</time>
      </trkpt>
      <trkpt lat="42.9080430" lon="-3.3162370">
        <ele>585.2</ele>
        <time>2018-10-21T08:37:49Z</time>
      </trkpt>
      <trkpt lat="42.9080900" lon="-3.3161700">
        <ele>585.2</ele>
        <time>2018-10-21T08:37:50Z</time>
      </trkpt>
      <trkpt lat="42.9081370" lon="-3.3161030">
        <ele>585.2</ele>
        <time>2018-10-21T08:37:51Z</time>
      </trkpt>
      <trkpt lat="42.9081830" lon="-3.3160330">
        <ele>585.2</ele>
        <time>2018-10-21T08:37:52Z</time>
      </trkpt>
      <trkpt lat="42.9082300" lon="-3.3159670">
        <ele>585.2</ele>
        <time>2018-10-21T08:37:53Z</time>
      </trkpt>
      <trkpt lat="42.9082780" lon="-3.3159030">
        <ele>585.2</ele>
        <time>2018-10-21T08:37:54Z</time>
      </trkpt>
      <trkpt lat="42.9083270" lon="-3.3158450">
        <ele>585.2</ele>
        <time>2018-10-21T08:37:55Z</time>
      </trkpt>
      <trkpt lat="42.9083770" lon="-3.3157880">
        <ele>585.2</ele>
        <time>2018-10-21T08:37:56Z</time>
      </trkpt>
      <trkpt lat="42.9084320" lon="-3.3157370">
        <ele>585.2</ele>
        <time>2018-10-21T08:37:57Z</time>
      </trkpt>
      <trkpt lat="42.9084880" lon="-3.3156880">
        <ele>585.2</ele>
        <time>2018-10-21T08:37:58Z</time>
      </trkpt>
      <trkpt lat="42.9085480" lon="-3.3156430">
        <ele>585.2</ele>
        <time>2018-10-21T08:37:59Z</time>
      </trkpt>
      <trkpt lat="42.9086120" lon="-3.3156050">
        <ele>585.2</ele>
        <time>2018-10-21T08:38:00Z</time>
      </trkpt>
      <trkpt lat="42.9086770" lon="-3.3155680">
        <ele>585.2</ele>
        <time>2018-10-21T08:38:01Z</time>
      </trkpt>
      <trkpt lat="42.9087450" lon="-3.3155420">
        <ele>585.2</ele>
        <time>2018-10-21T08:38:02Z</time>
      </trkpt>
      <trkpt lat="42.9088150" lon="-3.3155220">
        <ele>585.2</ele>
        <time>2018-10-21T08:38:03Z</time>
      </trkpt>
      <trkpt lat="42.9088880" lon="-3.3155080">
        <ele>586.3</ele>
        <time>2018-10-21T08:38:04Z</time>
      </trkpt>
      <trkpt lat="42.9089620" lon="-3.3155020">
        <ele>586.3</ele>
        <time>2018-10-21T08:38:05Z</time>
      </trkpt>
      <trkpt lat="42.9090350" lon="-3.3154980">
        <ele>586.3</ele>
        <time>2018-10-21T08:38:06Z</time>
      </trkpt>
      <trkpt lat="42.9091100" lon="-3.3155050">
        <ele>586.3</ele>
        <time>2018-10-21T08:38:07Z</time>
      </trkpt>
      <trkpt lat="42.9091820" lon="-3.3155220">
        <ele>586.3</ele>
        <time>2018-10-21T08:38:08Z</time>
      </trkpt>
      <trkpt lat="42.9092520" lon="-3.3155430">
        <ele>586.3</ele>
        <time>2018-10-21T08:38:09Z</time>
      </trkpt>
      <trkpt lat="42.9093230" lon="-3.3155680">
        <ele>586.3</ele>
        <time>2018-10-21T08:38:10Z</time>
      </trkpt>
      <trkpt lat="42.9093920" lon="-3.3156030">
        <ele>586.3</ele>
        <time>2018-10-21T08:38:11Z</time>
      </trkpt>
      <trkpt lat="42.9094580" lon="-3.3156420">
        <ele>585.2</ele>
        <time>2018-10-21T08:38:12Z</time>
      </trkpt>
      <trkpt lat="42.9095250" lon="-3.3156820">
        <ele>585.2</ele>
        <time>2018-10-21T08:38:13Z</time>
      </trkpt>
      <trkpt lat="42.9095930" lon="-3.3157220">
        <ele>585.2</ele>
        <time>2018-10-21T08:38:14Z</time>
      </trkpt>
      <trkpt lat="42.9096620" lon="-3.3157620">
        <ele>585.2</ele>
        <time>2018-10-21T08:38:15Z</time>
      </trkpt>
      <trkpt lat="42.9097320" lon="-3.3158000">
        <ele>584.3</ele>
        <time>2018-10-21T08:38:16Z</time>
      </trkpt>
      <trkpt lat="42.9098020" lon="-3.3158380">
        <ele>584.3</ele>
        <time>2018-10-21T08:38:17Z</time>
      </trkpt>
      <trkpt lat="42.9098700" lon="-3.3158780">
        <ele>584.3</ele>
        <time>2018-10-21T08:38:18Z</time>
      </trkpt>
      <trkpt lat="42.9099380" lon="-3.3159200">
        <ele>584.3</ele>
        <time>2018-10-21T08:38:19Z</time>
      </trkpt>
      <trkpt lat="42.9100080" lon="-3.3159600">
        <ele>584.3</ele>
        <time>2018-10-21T08:38:20Z</time>
      </trkpt>
      <trkpt lat="42.9100770" lon="-3.3160000">
        <ele>584.3</ele>
        <time>2018-10-21T08:38:21Z</time>
      </trkpt>
      <trkpt lat="42.9101450" lon="-3.3160420">
        <ele>584.3</ele>
        <time>2018-10-21T08:38:22Z</time>
      </trkpt>
      <trkpt lat="42.9102130" lon="-3.3160800">
        <ele>584.3</ele>
        <time>2018-10-21T08:38:23Z</time>
      </trkpt>
      <trkpt lat="42.9102830" lon="-3.3161230">
        <ele>583.2</ele>
        <time>2018-10-21T08:38:24Z</time>
      </trkpt>
      <trkpt lat="42.9103520" lon="-3.3161630">
        <ele>583.2</ele>
        <time>2018-10-21T08:38:25Z</time>
      </trkpt>
      <trkpt lat="42.9104220" lon="-3.3162020">
        <ele>583.2</ele>
        <time>2018-10-21T08:38:26Z</time>
      </trkpt>
      <trkpt lat="42.9104920" lon="-3.3162400">
        <ele>583.2</ele>
        <time>2018-10-21T08:38:27Z</time>
      </trkpt>
      <trkpt lat="42.9105620" lon="-3.3162780">
        <ele>583.2</ele>
        <time>2018-10-21T08:38:28Z</time>
      </trkpt>
      <trkpt lat="42.9106320" lon="-3.3163200">
        <ele>583.2</ele>
        <time>2018-10-21T08:38:29Z</time>
      </trkpt>
      <trkpt lat="42.9107000" lon="-3.3163600">
        <ele>583.2</ele>
        <time>2018-10-21T08:38:30Z</time>
      </trkpt>
      <trkpt lat="42.9107680" lon="-3.3164020">
        <ele>583.2</ele>
        <time>2018-10-21T08:38:31Z</time>
      </trkpt>
      <trkpt lat="42.9108350" lon="-3.3164420">
        <ele>583.2</ele>
        <time>2018-10-21T08:38:32Z</time>
      </trkpt>
      <trkpt lat="42.9109000" lon="-3.3164820">
        <ele>583.2</ele>
        <time>2018-10-21T08:38:33Z</time>
      </trkpt>
      <trkpt lat="42.9109650" lon="-3.3165200">
        <ele>583.2</ele>
        <time>2018-10-21T08:38:34Z</time>
      </trkpt>
      <trkpt lat="42.9110320" lon="-3.3165570">
        <ele>583.2</ele>
        <time>2018-10-21T08:38:35Z</time>
      </trkpt>
      <trkpt lat="42.9110970" lon="-3.3165950">
        <ele>583.2</ele>
        <time>2018-10-21T08:38:36Z</time>
      </trkpt>
      <trkpt lat="42.9111620" lon="-3.3166350">
        <ele>583.2</ele>
        <time>2018-10-21T08:38:37Z</time>
      </trkpt>
      <trkpt lat="42.9112250" lon="-3.3166750">
        <ele>584.3</ele>
        <time>2018-10-21T08:38:38Z</time>
      </trkpt>
      <trkpt lat="42.9112880" lon="-3.3167130">
        <ele>584.3</ele>
        <time>2018-10-21T08:38:39Z</time>
      </trkpt>
      <trkpt lat="42.9113520" lon="-3.3167520">
        <ele>584.3</ele>
        <time>2018-10-21T08:38:40Z</time>
      </trkpt>
      <trkpt lat="42.9114150" lon="-3.3167870">
        <ele>584.3</ele>
        <time>2018-10-21T08:38:41Z</time>
      </trkpt>
      <trkpt lat="42.9114770" lon="-3.3168220">
        <ele>584.3</ele>
        <time>2018-10-21T08:38:42Z</time>
      </trkpt>
      <trkpt lat="42.9115380" lon="-3.3168570">
        <ele>584.3</ele>
        <time>2018-10-21T08:38:43Z</time>
      </trkpt>
      <trkpt lat="42.9115980" lon="-3.3168920">
        <ele>584.3</ele>
        <time>2018-10-21T08:38:44Z</time>
      </trkpt>
      <trkpt lat="42.9116580" lon="-3.3169250">
        <ele>584.3</ele>
        <time>2018-10-21T08:38:45Z</time>
      </trkpt>
      <trkpt lat="42.9117170" lon="-3.3169620">
        <ele>584.3</ele>
        <time>2018-10-21T08:38:46Z</time>
      </trkpt>
      <trkpt lat="42.9117750" lon="-3.3169970">
        <ele>584.3</ele>
        <time>2018-10-21T08:38:47Z</time>
      </trkpt>
      <trkpt lat="42.9118330" lon="-3.3170280">
        <ele>584.3</ele>
        <time>2018-10-21T08:38:48Z</time>
      </trkpt>
      <trkpt lat="42.9118930" lon="-3.3170620">
        <ele>584.3</ele>
        <time>2018-10-21T08:38:49Z</time>
      </trkpt>
      <trkpt lat="42.9119520" lon="-3.3170970">
        <ele>584.3</ele>
        <time>2018-10-21T08:38:50Z</time>
      </trkpt>
      <trkpt lat="42.9120100" lon="-3.3171320">
        <ele>584.3</ele>
        <time>2018-10-21T08:38:51Z</time>
      </trkpt>
      <trkpt lat="42.9120680" lon="-3.3171670">
        <ele>584.3</ele>
        <time>2018-10-21T08:38:52Z</time>
      </trkpt>
      <trkpt lat="42.9121250" lon="-3.3172000">
        <ele>584.3</ele>
        <time>2018-10-21T08:38:53Z</time>
      </trkpt>
      <trkpt lat="42.9121820" lon="-3.3172330">
        <ele>584.3</ele>
        <time>2018-10-21T08:38:54Z</time>
      </trkpt>
      <trkpt lat="42.9122350" lon="-3.3172650">
        <ele>584.3</ele>
        <time>2018-10-21T08:38:55Z</time>
      </trkpt>
      <trkpt lat="42.9122880" lon="-3.3172950">
        <ele>585.2</ele>
        <time>2018-10-21T08:38:56Z</time>
      </trkpt>
      <trkpt lat="42.9123400" lon="-3.3173270">
        <ele>585.2</ele>
        <time>2018-10-21T08:38:57Z</time>
      </trkpt>
      <trkpt lat="42.9123920" lon="-3.3173600">
        <ele>586.3</ele>
        <time>2018-10-21T08:38:58Z</time>
      </trkpt>
      <trkpt lat="42.9124430" lon="-3.3173900">
        <ele>586.3</ele>
        <time>2018-10-21T08:38:59Z</time>
      </trkpt>
      <trkpt lat="42.9124930" lon="-3.3174220">
        <ele>586.3</ele>
        <time>2018-10-21T08:39:00Z</time>
      </trkpt>
      <trkpt lat="42.9125450" lon="-3.3174520">
        <ele>586.3</ele>
        <time>2018-10-21T08:39:01Z</time>
      </trkpt>
      <trkpt lat="42.9125950" lon="-3.3174830">
        <ele>587.2</ele>
        <time>2018-10-21T08:39:02Z</time>
      </trkpt>
      <trkpt lat="42.9126420" lon="-3.3175170">
        <ele>587.2</ele>
        <time>2018-10-21T08:39:03Z</time>
      </trkpt>
      <trkpt lat="42.9126880" lon="-3.3175520">
        <ele>587.2</ele>
        <time>2018-10-21T08:39:04Z</time>
      </trkpt>
      <trkpt lat="42.9127330" lon="-3.3175880">
        <ele>587.2</ele>
        <time>2018-10-21T08:39:05Z</time>
      </trkpt>
      <trkpt lat="42.9127770" lon="-3.3176320">
        <ele>588.3</ele>
        <time>2018-10-21T08:39:06Z</time>
      </trkpt>
      <trkpt lat="42.9128130" lon="-3.3176830">
        <ele>588.3</ele>
        <time>2018-10-21T08:39:07Z</time>
      </trkpt>
      <trkpt lat="42.9128480" lon="-3.3177400">
        <ele>588.3</ele>
        <time>2018-10-21T08:39:08Z</time>
      </trkpt>
      <trkpt lat="42.9128850" lon="-3.3177950">
        <ele>588.3</ele>
        <time>2018-10-21T08:39:09Z</time>
      </trkpt>
      <trkpt lat="42.9129200" lon="-3.3178520">
        <ele>588.3</ele>
        <time>2018-10-21T08:39:10Z</time>
      </trkpt>
      <trkpt lat="42.9129520" lon="-3.3179130">
        <ele>588.3</ele>
        <time>2018-10-21T08:39:11Z</time>
      </trkpt>
      <trkpt lat="42.9129830" lon="-3.3179800">
        <ele>589.2</ele>
        <time>2018-10-21T08:39:12Z</time>
      </trkpt>
      <trkpt lat="42.9130100" lon="-3.3180470">
        <ele>589.2</ele>
        <time>2018-10-21T08:39:13Z</time>
      </trkpt>
      <trkpt lat="42.9130370" lon="-3.3181130">
        <ele>589.2</ele>
        <time>2018-10-21T08:39:14Z</time>
      </trkpt>
      <trkpt lat="42.9130670" lon="-3.3181780">
        <ele>589.2</ele>
        <time>2018-10-21T08:39:15Z</time>
      </trkpt>
      <trkpt lat="42.9130970" lon="-3.3182470">
        <ele>589.2</ele>
        <time>2018-10-21T08:39:16Z</time>
      </trkpt>
      <trkpt lat="42.9131270" lon="-3.3183170">
        <ele>589.2</ele>
        <time>2018-10-21T08:39:17Z</time>
      </trkpt>
      <trkpt lat="42.9131570" lon="-3.3183880">
        <ele>589.2</ele>
        <time>2018-10-21T08:39:18Z</time>
      </trkpt>
      <trkpt lat="42.9131850" lon="-3.3184620">
        <ele>589.2</ele>
        <time>2018-10-21T08:39:19Z</time>
      </trkpt>
      <trkpt lat="42.9132150" lon="-3.3185350">
        <ele>589.2</ele>
        <time>2018-10-21T08:39:20Z</time>
      </trkpt>
      <trkpt lat="42.9132430" lon="-3.3186080">
        <ele>589.2</ele>
        <time>2018-10-21T08:39:21Z</time>
      </trkpt>
      <trkpt lat="42.9132750" lon="-3.3186800">
        <ele>589.2</ele>
        <time>2018-10-21T08:39:22Z</time>
      </trkpt>
      <trkpt lat="42.9133050" lon="-3.3187530">
        <ele>589.2</ele>
        <time>2018-10-21T08:39:23Z</time>
      </trkpt>
      <trkpt lat="42.9133350" lon="-3.3188280">
        <ele>589.2</ele>
        <time>2018-10-21T08:39:24Z</time>
      </trkpt>
      <trkpt lat="42.9133650" lon="-3.3189050">
        <ele>589.2</ele>
        <time>2018-10-21T08:39:25Z</time>
      </trkpt>
      <trkpt lat="42.9133970" lon="-3.3189820">
        <ele>589.2</ele>
        <time>2018-10-21T08:39:26Z</time>
      </trkpt>
      <trkpt lat="42.9134280" lon="-3.3190570">
        <ele>589.2</ele>
        <time>2018-10-21T08:39:27Z</time>
      </trkpt>
      <trkpt lat="42.9134620" lon="-3.3191330">
        <ele>589.2</ele>
        <time>2018-10-21T08:39:28Z</time>
      </trkpt>
      <trkpt lat="42.9134930" lon="-3.3192080">
        <ele>589.2</ele>
        <time>2018-10-21T08:39:29Z</time>
      </trkpt>
      <trkpt lat="42.9135280" lon="-3.3192800">
        <ele>589.2</ele>
        <time>2018-10-21T08:39:30Z</time>
      </trkpt>
      <trkpt lat="42.9135670" lon="-3.3193520">
        <ele>589.2</ele>
        <time>2018-10-21T08:39:31Z</time>
      </trkpt>
      <trkpt lat="42.9136050" lon="-3.3194220">
        <ele>589.2</ele>
        <time>2018-10-21T08:39:32Z</time>
      </trkpt>
      <trkpt lat="42.9136470" lon="-3.3194900">
        <ele>589.2</ele>
        <time>2018-10-21T08:39:33Z</time>
      </trkpt>
      <trkpt lat="42.9136900" lon="-3.3195550">
        <ele>589.2</ele>
        <time>2018-10-21T08:39:34Z</time>
      </trkpt>
      <trkpt lat="42.9137370" lon="-3.3196170">
        <ele>589.2</ele>
        <time>2018-10-21T08:39:35Z</time>
      </trkpt>
      <trkpt lat="42.9137850" lon="-3.3196780">
        <ele>589.2</ele>
        <time>2018-10-21T08:39:36Z</time>
      </trkpt>
      <trkpt lat="42.9138320" lon="-3.3197400">
        <ele>589.2</ele>
        <time>2018-10-21T08:39:37Z</time>
      </trkpt>
      <trkpt lat="42.9138780" lon="-3.3198000">
        <ele>589.2</ele>
        <time>2018-10-21T08:39:38Z</time>
      </trkpt>
      <trkpt lat="42.9139250" lon="-3.3198600">
        <ele>589.2</ele>
        <time>2018-10-21T08:39:39Z</time>
      </trkpt>
      <trkpt lat="42.9139720" lon="-3.3199180">
        <ele>589.2</ele>
        <time>2018-10-21T08:39:40Z</time>
      </trkpt>
      <trkpt lat="42.9140200" lon="-3.3199780">
        <ele>589.2</ele>
        <time>2018-10-21T08:39:41Z</time>
      </trkpt>
      <trkpt lat="42.9140650" lon="-3.3200420">
        <ele>589.2</ele>
        <time>2018-10-21T08:39:42Z</time>
      </trkpt>
      <trkpt lat="42.9141130" lon="-3.3201020">
        <ele>589.2</ele>
        <time>2018-10-21T08:39:43Z</time>
      </trkpt>
      <trkpt lat="42.9141650" lon="-3.3201600">
        <ele>589.2</ele>
        <time>2018-10-21T08:39:44Z</time>
      </trkpt>
      <trkpt lat="42.9142150" lon="-3.3202170">
        <ele>589.2</ele>
        <time>2018-10-21T08:39:45Z</time>
      </trkpt>
      <trkpt lat="42.9142700" lon="-3.3202680">
        <ele>589.2</ele>
        <time>2018-10-21T08:39:46Z</time>
      </trkpt>
      <trkpt lat="42.9143320" lon="-3.3203120">
        <ele>589.2</ele>
        <time>2018-10-21T08:39:47Z</time>
      </trkpt>
      <trkpt lat="42.9143980" lon="-3.3203450">
        <ele>589.2</ele>
        <time>2018-10-21T08:39:48Z</time>
      </trkpt>
      <trkpt lat="42.9144670" lon="-3.3203680">
        <ele>589.2</ele>
        <time>2018-10-21T08:39:49Z</time>
      </trkpt>
      <trkpt lat="42.9145350" lon="-3.3203820">
        <ele>588.3</ele>
        <time>2018-10-21T08:39:50Z</time>
      </trkpt>
      <trkpt lat="42.9146070" lon="-3.3203900">
        <ele>588.3</ele>
        <time>2018-10-21T08:39:51Z</time>
      </trkpt>
      <trkpt lat="42.9146770" lon="-3.3203930">
        <ele>588.3</ele>
        <time>2018-10-21T08:39:52Z</time>
      </trkpt>
      <trkpt lat="42.9147470" lon="-3.3203950">
        <ele>588.3</ele>
        <time>2018-10-21T08:39:53Z</time>
      </trkpt>
      <trkpt lat="42.9148180" lon="-3.3203970">
        <ele>588.3</ele>
        <time>2018-10-21T08:39:54Z</time>
      </trkpt>
      <trkpt lat="42.9148880" lon="-3.3203970">
        <ele>588.3</ele>
        <time>2018-10-21T08:39:55Z</time>
      </trkpt>
      <trkpt lat="42.9149580" lon="-3.3203970">
        <ele>588.3</ele>
        <time>2018-10-21T08:39:56Z</time>
      </trkpt>
      <trkpt lat="42.9150280" lon="-3.3203980">
        <ele>588.3</ele>
        <time>2018-10-21T08:39:57Z</time>
      </trkpt>
      <trkpt lat="42.9150970" lon="-3.3204020">
        <ele>587.2</ele>
        <time>2018-10-21T08:39:58Z</time>
      </trkpt>
      <trkpt lat="42.9151650" lon="-3.3204020">
        <ele>587.2</ele>
        <time>2018-10-21T08:39:59Z</time>
      </trkpt>
      <trkpt lat="42.9152320" lon="-3.3204020">
        <ele>587.2</ele>
        <time>2018-10-21T08:40:00Z</time>
      </trkpt>
      <trkpt lat="42.9153000" lon="-3.3204020">
        <ele>587.2</ele>
        <time>2018-10-21T08:40:01Z</time>
      </trkpt>
      <trkpt lat="42.9153670" lon="-3.3204000">
        <ele>587.2</ele>
        <time>2018-10-21T08:40:02Z</time>
      </trkpt>
      <trkpt lat="42.9154350" lon="-3.3203970">
        <ele>587.2</ele>
        <time>2018-10-21T08:40:03Z</time>
      </trkpt>
      <trkpt lat="42.9155020" lon="-3.3203870">
        <ele>587.2</ele>
        <time>2018-10-21T08:40:04Z</time>
      </trkpt>
      <trkpt lat="42.9155700" lon="-3.3203680">
        <ele>587.2</ele>
        <time>2018-10-21T08:40:05Z</time>
      </trkpt>
      <trkpt lat="42.9156380" lon="-3.3203430">
        <ele>587.2</ele>
        <time>2018-10-21T08:40:06Z</time>
      </trkpt>
      <trkpt lat="42.9157070" lon="-3.3203130">
        <ele>587.2</ele>
        <time>2018-10-21T08:40:07Z</time>
      </trkpt>
      <trkpt lat="42.9157730" lon="-3.3202830">
        <ele>587.2</ele>
        <time>2018-10-21T08:40:08Z</time>
      </trkpt>
      <trkpt lat="42.9158420" lon="-3.3202520">
        <ele>587.2</ele>
        <time>2018-10-21T08:40:09Z</time>
      </trkpt>
      <trkpt lat="42.9159080" lon="-3.3202180">
        <ele>587.2</ele>
        <time>2018-10-21T08:40:10Z</time>
      </trkpt>
      <trkpt lat="42.9159730" lon="-3.3201830">
        <ele>587.2</ele>
        <time>2018-10-21T08:40:11Z</time>
      </trkpt>
      <trkpt lat="42.9160380" lon="-3.3201480">
        <ele>587.2</ele>
        <time>2018-10-21T08:40:12Z</time>
      </trkpt>
      <trkpt lat="42.9161020" lon="-3.3201120">
        <ele>587.2</ele>
        <time>2018-10-21T08:40:13Z</time>
      </trkpt>
      <trkpt lat="42.9161650" lon="-3.3200730">
        <ele>587.2</ele>
        <time>2018-10-21T08:40:14Z</time>
      </trkpt>
      <trkpt lat="42.9162270" lon="-3.3200320">
        <ele>587.2</ele>
        <time>2018-10-21T08:40:15Z</time>
      </trkpt>
      <trkpt lat="42.9162870" lon="-3.3199880">
        <ele>587.2</ele>
        <time>2018-10-21T08:40:16Z</time>
      </trkpt>
      <trkpt lat="42.9163430" lon="-3.3199420">
        <ele>587.2</ele>
        <time>2018-10-21T08:40:17Z</time>
      </trkpt>
      <trkpt lat="42.9163980" lon="-3.3198880">
        <ele>587.2</ele>
        <time>2018-10-21T08:40:18Z</time>
      </trkpt>
      <trkpt lat="42.9164500" lon="-3.3198320">
        <ele>587.2</ele>
        <time>2018-10-21T08:40:19Z</time>
      </trkpt>
      <trkpt lat="42.9165000" lon="-3.3197730">
        <ele>587.2</ele>
        <time>2018-10-21T08:40:20Z</time>
      </trkpt>
      <trkpt lat="42.9165500" lon="-3.3197120">
        <ele>587.2</ele>
        <time>2018-10-21T08:40:21Z</time>
      </trkpt>
      <trkpt lat="42.9165980" lon="-3.3196500">
        <ele>587.2</ele>
        <time>2018-10-21T08:40:22Z</time>
      </trkpt>
      <trkpt lat="42.9166450" lon="-3.3195880">
        <ele>587.2</ele>
        <time>2018-10-21T08:40:23Z</time>
      </trkpt>
      <trkpt lat="42.9166920" lon="-3.3195280">
        <ele>587.2</ele>
        <time>2018-10-21T08:40:24Z</time>
      </trkpt>
      <trkpt lat="42.9167370" lon="-3.3194680">
        <ele>587.2</ele>
        <time>2018-10-21T08:40:25Z</time>
      </trkpt>
      <trkpt lat="42.9167780" lon="-3.3194080">
        <ele>588.3</ele>
        <time>2018-10-21T08:40:26Z</time>
      </trkpt>
      <trkpt lat="42.9168200" lon="-3.3193500">
        <ele>588.3</ele>
        <time>2018-10-21T08:40:27Z</time>
      </trkpt>
      <trkpt lat="42.9168630" lon="-3.3192930">
        <ele>588.3</ele>
        <time>2018-10-21T08:40:28Z</time>
      </trkpt>
      <trkpt lat="42.9169030" lon="-3.3192330">
        <ele>588.3</ele>
        <time>2018-10-21T08:40:29Z</time>
      </trkpt>
      <trkpt lat="42.9169470" lon="-3.3191730">
        <ele>589.2</ele>
        <time>2018-10-21T08:40:30Z</time>
      </trkpt>
      <trkpt lat="42.9169920" lon="-3.3191120">
        <ele>589.2</ele>
        <time>2018-10-21T08:40:31Z</time>
      </trkpt>
      <trkpt lat="42.9170380" lon="-3.3190480">
        <ele>589.2</ele>
        <time>2018-10-21T08:40:32Z</time>
      </trkpt>
      <trkpt lat="42.9170870" lon="-3.3189820">
        <ele>589.2</ele>
        <time>2018-10-21T08:40:33Z</time>
      </trkpt>
      <trkpt lat="42.9171330" lon="-3.3189150">
        <ele>589.2</ele>
        <time>2018-10-21T08:40:34Z</time>
      </trkpt>
      <trkpt lat="42.9171800" lon="-3.3188470">
        <ele>589.2</ele>
        <time>2018-10-21T08:40:35Z</time>
      </trkpt>
      <trkpt lat="42.9172220" lon="-3.3187730">
        <ele>588.3</ele>
        <time>2018-10-21T08:40:36Z</time>
      </trkpt>
      <trkpt lat="42.9172600" lon="-3.3186950">
        <ele>588.3</ele>
        <time>2018-10-21T08:40:37Z</time>
      </trkpt>
      <trkpt lat="42.9172930" lon="-3.3186130">
        <ele>588.3</ele>
        <time>2018-10-21T08:40:38Z</time>
      </trkpt>
      <trkpt lat="42.9173220" lon="-3.3185270">
        <ele>588.3</ele>
        <time>2018-10-21T08:40:39Z</time>
      </trkpt>
      <trkpt lat="42.9173430" lon="-3.3184370">
        <ele>588.3</ele>
        <time>2018-10-21T08:40:40Z</time>
      </trkpt>
      <trkpt lat="42.9173550" lon="-3.3183420">
        <ele>588.3</ele>
        <time>2018-10-21T08:40:41Z</time>
      </trkpt>
      <trkpt lat="42.9173580" lon="-3.3182450">
        <ele>588.3</ele>
        <time>2018-10-21T08:40:42Z</time>
      </trkpt>
      <trkpt lat="42.9173570" lon="-3.3181470">
        <ele>588.3</ele>
        <time>2018-10-21T08:40:43Z</time>
      </trkpt>
      <trkpt lat="42.9173480" lon="-3.3180480">
        <ele>588.3</ele>
        <time>2018-10-21T08:40:44Z</time>
      </trkpt>
      <trkpt lat="42.9173320" lon="-3.3179530">
        <ele>588.3</ele>
        <time>2018-10-21T08:40:45Z</time>
      </trkpt>
      <trkpt lat="42.9173130" lon="-3.3178600">
        <ele>588.3</ele>
        <time>2018-10-21T08:40:46Z</time>
      </trkpt>
      <trkpt lat="42.9172930" lon="-3.3177680">
        <ele>588.3</ele>
        <time>2018-10-21T08:40:47Z</time>
      </trkpt>
      <trkpt lat="42.9172700" lon="-3.3176780">
        <ele>588.3</ele>
        <time>2018-10-21T08:40:48Z</time>
      </trkpt>
      <trkpt lat="42.9172500" lon="-3.3175880">
        <ele>588.3</ele>
        <time>2018-10-21T08:40:49Z</time>
      </trkpt>
      <trkpt lat="42.9172330" lon="-3.3174980">
        <ele>588.3</ele>
        <time>2018-10-21T08:40:50Z</time>
      </trkpt>
      <trkpt lat="42.9172130" lon="-3.3174100">
        <ele>588.3</ele>
        <time>2018-10-21T08:40:51Z</time>
      </trkpt>
      <trkpt lat="42.9171900" lon="-3.3173230">
        <ele>588.3</ele>
        <time>2018-10-21T08:40:52Z</time>
      </trkpt>
      <trkpt lat="42.9171670" lon="-3.3172370">
        <ele>588.3</ele>
        <time>2018-10-21T08:40:53Z</time>
      </trkpt>
      <trkpt lat="42.9171450" lon="-3.3171500">
        <ele>588.3</ele>
        <time>2018-10-21T08:40:54Z</time>
      </trkpt>
      <trkpt lat="42.9171230" lon="-3.3170620">
        <ele>588.3</ele>
        <time>2018-10-21T08:40:55Z</time>
      </trkpt>
      <trkpt lat="42.9171020" lon="-3.3169750">
        <ele>588.3</ele>
        <time>2018-10-21T08:40:56Z</time>
      </trkpt>
      <trkpt lat="42.9170820" lon="-3.3168870">
        <ele>588.3</ele>
        <time>2018-10-21T08:40:57Z</time>
      </trkpt>
      <trkpt lat="42.9170620" lon="-3.3167980">
        <ele>588.3</ele>
        <time>2018-10-21T08:40:58Z</time>
      </trkpt>
      <trkpt lat="42.9170400" lon="-3.3167100">
        <ele>588.3</ele>
        <time>2018-10-21T08:40:59Z</time>
      </trkpt>
      <trkpt lat="42.9170180" lon="-3.3166200">
        <ele>588.3</ele>
        <time>2018-10-21T08:41:00Z</time>
      </trkpt>
      <trkpt lat="42.9169980" lon="-3.3165300">
        <ele>588.3</ele>
        <time>2018-10-21T08:41:01Z</time>
      </trkpt>
      <trkpt lat="42.9169780" lon="-3.3164400">
        <ele>588.3</ele>
        <time>2018-10-21T08:41:02Z</time>
      </trkpt>
      <trkpt lat="42.9169570" lon="-3.3163520">
        <ele>588.3</ele>
        <time>2018-10-21T08:41:03Z</time>
      </trkpt>
      <trkpt lat="42.9169350" lon="-3.3162620">
        <ele>589.2</ele>
        <time>2018-10-21T08:41:04Z</time>
      </trkpt>
      <trkpt lat="42.9169130" lon="-3.3161730">
        <ele>589.2</ele>
        <time>2018-10-21T08:41:05Z</time>
      </trkpt>
      <trkpt lat="42.9168930" lon="-3.3160870">
        <ele>589.2</ele>
        <time>2018-10-21T08:41:06Z</time>
      </trkpt>
      <trkpt lat="42.9168750" lon="-3.3160000">
        <ele>589.2</ele>
        <time>2018-10-21T08:41:07Z</time>
      </trkpt>
      <trkpt lat="42.9168570" lon="-3.3159130">
        <ele>589.2</ele>
        <time>2018-10-21T08:41:08Z</time>
      </trkpt>
      <trkpt lat="42.9168370" lon="-3.3158280">
        <ele>589.2</ele>
        <time>2018-10-21T08:41:09Z</time>
      </trkpt>
      <trkpt lat="42.9168150" lon="-3.3157430">
        <ele>589.2</ele>
        <time>2018-10-21T08:41:10Z</time>
      </trkpt>
      <trkpt lat="42.9167970" lon="-3.3156580">
        <ele>589.2</ele>
        <time>2018-10-21T08:41:11Z</time>
      </trkpt>
      <trkpt lat="42.9167770" lon="-3.3155730">
        <ele>589.2</ele>
        <time>2018-10-21T08:41:12Z</time>
      </trkpt>
      <trkpt lat="42.9167570" lon="-3.3154870">
        <ele>589.2</ele>
        <time>2018-10-21T08:41:13Z</time>
      </trkpt>
      <trkpt lat="42.9167350" lon="-3.3154020">
        <ele>589.2</ele>
        <time>2018-10-21T08:41:14Z</time>
      </trkpt>
      <trkpt lat="42.9167170" lon="-3.3153150">
        <ele>589.2</ele>
        <time>2018-10-21T08:41:15Z</time>
      </trkpt>
      <trkpt lat="42.9167000" lon="-3.3152280">
        <ele>589.2</ele>
        <time>2018-10-21T08:41:16Z</time>
      </trkpt>
      <trkpt lat="42.9166800" lon="-3.3151420">
        <ele>589.2</ele>
        <time>2018-10-21T08:41:17Z</time>
      </trkpt>
      <trkpt lat="42.9166630" lon="-3.3150580">
        <ele>589.2</ele>
        <time>2018-10-21T08:41:18Z</time>
      </trkpt>
      <trkpt lat="42.9166450" lon="-3.3149730">
        <ele>589.2</ele>
        <time>2018-10-21T08:41:19Z</time>
      </trkpt>
      <trkpt lat="42.9166300" lon="-3.3148900">
        <ele>590.3</ele>
        <time>2018-10-21T08:41:20Z</time>
      </trkpt>
      <trkpt lat="42.9166220" lon="-3.3148050">
        <ele>590.3</ele>
        <time>2018-10-21T08:41:21Z</time>
      </trkpt>
      <trkpt lat="42.9166150" lon="-3.3147180">
        <ele>590.3</ele>
        <time>2018-10-21T08:41:22Z</time>
      </trkpt>
      <trkpt lat="42.9166120" lon="-3.3146330">
        <ele>590.3</ele>
        <time>2018-10-21T08:41:23Z</time>
      </trkpt>
      <trkpt lat="42.9166100" lon="-3.3145500">
        <ele>590.3</ele>
        <time>2018-10-21T08:41:24Z</time>
      </trkpt>
      <trkpt lat="42.9166130" lon="-3.3144650">
        <ele>590.3</ele>
        <time>2018-10-21T08:41:25Z</time>
      </trkpt>
      <trkpt lat="42.9166180" lon="-3.3143820">
        <ele>590.3</ele>
        <time>2018-10-21T08:41:26Z</time>
      </trkpt>
      <trkpt lat="42.9166280" lon="-3.3143000">
        <ele>590.3</ele>
        <time>2018-10-21T08:41:27Z</time>
      </trkpt>
      <trkpt lat="42.9166420" lon="-3.3142180">
        <ele>590.3</ele>
        <time>2018-10-21T08:41:28Z</time>
      </trkpt>
      <trkpt lat="42.9166600" lon="-3.3141370">
        <ele>590.3</ele>
        <time>2018-10-21T08:41:29Z</time>
      </trkpt>
      <trkpt lat="42.9166780" lon="-3.3140550">
        <ele>590.3</ele>
        <time>2018-10-21T08:41:30Z</time>
      </trkpt>
      <trkpt lat="42.9166980" lon="-3.3139720">
        <ele>590.3</ele>
        <time>2018-10-21T08:41:31Z</time>
      </trkpt>
      <trkpt lat="42.9167180" lon="-3.3138880">
        <ele>590.3</ele>
        <time>2018-10-21T08:41:32Z</time>
      </trkpt>
      <trkpt lat="42.9167400" lon="-3.3138030">
        <ele>590.3</ele>
        <time>2018-10-21T08:41:33Z</time>
      </trkpt>
      <trkpt lat="42.9167620" lon="-3.3137180">
        <ele>590.3</ele>
        <time>2018-10-21T08:41:34Z</time>
      </trkpt>
      <trkpt lat="42.9167850" lon="-3.3136320">
        <ele>590.3</ele>
        <time>2018-10-21T08:41:35Z</time>
      </trkpt>
      <trkpt lat="42.9168070" lon="-3.3135470">
        <ele>590.3</ele>
        <time>2018-10-21T08:41:36Z</time>
      </trkpt>
      <trkpt lat="42.9168300" lon="-3.3134600">
        <ele>590.3</ele>
        <time>2018-10-21T08:41:37Z</time>
      </trkpt>
      <trkpt lat="42.9168530" lon="-3.3133730">
        <ele>590.3</ele>
        <time>2018-10-21T08:41:38Z</time>
      </trkpt>
      <trkpt lat="42.9168750" lon="-3.3132850">
        <ele>590.3</ele>
        <time>2018-10-21T08:41:39Z</time>
      </trkpt>
      <trkpt lat="42.9169000" lon="-3.3131980">
        <ele>590.3</ele>
        <time>2018-10-21T08:41:40Z</time>
      </trkpt>
      <trkpt lat="42.9169230" lon="-3.3131100">
        <ele>590.3</ele>
        <time>2018-10-21T08:41:41Z</time>
      </trkpt>
      <trkpt lat="42.9169500" lon="-3.3130220">
        <ele>590.3</ele>
        <time>2018-10-21T08:41:42Z</time>
      </trkpt>
      <trkpt lat="42.9169770" lon="-3.3129330">
        <ele>590.3</ele>
        <time>2018-10-21T08:41:43Z</time>
      </trkpt>
      <trkpt lat="42.9170050" lon="-3.3128480">
        <ele>590.3</ele>
        <time>2018-10-21T08:41:44Z</time>
      </trkpt>
      <trkpt lat="42.9170370" lon="-3.3127630">
        <ele>590.3</ele>
        <time>2018-10-21T08:41:45Z</time>
      </trkpt>
      <trkpt lat="42.9170720" lon="-3.3126800">
        <ele>590.3</ele>
        <time>2018-10-21T08:41:46Z</time>
      </trkpt>
      <trkpt lat="42.9171100" lon="-3.3125980">
        <ele>590.3</ele>
        <time>2018-10-21T08:41:47Z</time>
      </trkpt>
      <trkpt lat="42.9171480" lon="-3.3125170">
        <ele>590.3</ele>
        <time>2018-10-21T08:41:48Z</time>
      </trkpt>
      <trkpt lat="42.9171880" lon="-3.3124370">
        <ele>590.3</ele>
        <time>2018-10-21T08:41:49Z</time>
      </trkpt>
      <trkpt lat="42.9172280" lon="-3.3123550">
        <ele>590.3</ele>
        <time>2018-10-21T08:41:50Z</time>
      </trkpt>
      <trkpt lat="42.9172680" lon="-3.3122750">
        <ele>590.3</ele>
        <time>2018-10-21T08:41:51Z</time>
      </trkpt>
      <trkpt lat="42.9173100" lon="-3.3121930">
        <ele>590.3</ele>
        <time>2018-10-21T08:41:52Z</time>
      </trkpt>
      <trkpt lat="42.9173500" lon="-3.3121130">
        <ele>590.3</ele>
        <time>2018-10-21T08:41:53Z</time>
      </trkpt>
      <trkpt lat="42.9173930" lon="-3.3120330">
        <ele>590.3</ele>
        <time>2018-10-21T08:41:54Z</time>
      </trkpt>
      <trkpt lat="42.9174380" lon="-3.3119550">
        <ele>590.3</ele>
        <time>2018-10-21T08:41:55Z</time>
      </trkpt>
      <trkpt lat="42.9174820" lon="-3.3118750">
        <ele>590.3</ele>
        <time>2018-10-21T08:41:56Z</time>
      </trkpt>
      <trkpt lat="42.9175250" lon="-3.3117950">
        <ele>590.3</ele>
        <time>2018-10-21T08:41:57Z</time>
      </trkpt>
      <trkpt lat="42.9175700" lon="-3.3117180">
        <ele>590.3</ele>
        <time>2018-10-21T08:41:58Z</time>
      </trkpt>
      <trkpt lat="42.9176130" lon="-3.3116380">
        <ele>590.3</ele>
        <time>2018-10-21T08:41:59Z</time>
      </trkpt>
      <trkpt lat="42.9176530" lon="-3.3115600">
        <ele>590.3</ele>
        <time>2018-10-21T08:42:00Z</time>
      </trkpt>
      <trkpt lat="42.9176970" lon="-3.3114830">
        <ele>590.3</ele>
        <time>2018-10-21T08:42:01Z</time>
      </trkpt>
      <trkpt lat="42.9177420" lon="-3.3114080">
        <ele>590.3</ele>
        <time>2018-10-21T08:42:02Z</time>
      </trkpt>
      <trkpt lat="42.9177900" lon="-3.3113350">
        <ele>590.3</ele>
        <time>2018-10-21T08:42:03Z</time>
      </trkpt>
      <trkpt lat="42.9178370" lon="-3.3112600">
        <ele>590.3</ele>
        <time>2018-10-21T08:42:04Z</time>
      </trkpt>
      <trkpt lat="42.9178830" lon="-3.3111830">
        <ele>590.3</ele>
        <time>2018-10-21T08:42:05Z</time>
      </trkpt>
      <trkpt lat="42.9179280" lon="-3.3111030">
        <ele>590.3</ele>
        <time>2018-10-21T08:42:06Z</time>
      </trkpt>
      <trkpt lat="42.9179770" lon="-3.3110250">
        <ele>590.3</ele>
        <time>2018-10-21T08:42:07Z</time>
      </trkpt>
      <trkpt lat="42.9180250" lon="-3.3109480">
        <ele>590.3</ele>
        <time>2018-10-21T08:42:08Z</time>
      </trkpt>
      <trkpt lat="42.9180700" lon="-3.3108680">
        <ele>590.3</ele>
        <time>2018-10-21T08:42:09Z</time>
      </trkpt>
      <trkpt lat="42.9181180" lon="-3.3107900">
        <ele>590.3</ele>
        <time>2018-10-21T08:42:10Z</time>
      </trkpt>
      <trkpt lat="42.9181650" lon="-3.3107130">
        <ele>590.3</ele>
        <time>2018-10-21T08:42:11Z</time>
      </trkpt>
      <trkpt lat="42.9182130" lon="-3.3106370">
        <ele>590.3</ele>
        <time>2018-10-21T08:42:12Z</time>
      </trkpt>
      <trkpt lat="42.9182620" lon="-3.3105580">
        <ele>590.3</ele>
        <time>2018-10-21T08:42:13Z</time>
      </trkpt>
      <trkpt lat="42.9183100" lon="-3.3104800">
        <ele>590.3</ele>
        <time>2018-10-21T08:42:14Z</time>
      </trkpt>
      <trkpt lat="42.9183570" lon="-3.3104020">
        <ele>590.3</ele>
        <time>2018-10-21T08:42:15Z</time>
      </trkpt>
      <trkpt lat="42.9184050" lon="-3.3103250">
        <ele>590.3</ele>
        <time>2018-10-21T08:42:16Z</time>
      </trkpt>
      <trkpt lat="42.9184530" lon="-3.3102500">
        <ele>590.3</ele>
        <time>2018-10-21T08:42:17Z</time>
      </trkpt>
      <trkpt lat="42.9185020" lon="-3.3101750">
        <ele>590.3</ele>
        <time>2018-10-21T08:42:18Z</time>
      </trkpt>
      <trkpt lat="42.9185520" lon="-3.3101020">
        <ele>590.3</ele>
        <time>2018-10-21T08:42:19Z</time>
      </trkpt>
      <trkpt lat="42.9186000" lon="-3.3100280">
        <ele>590.3</ele>
        <time>2018-10-21T08:42:20Z</time>
      </trkpt>
      <trkpt lat="42.9186480" lon="-3.3099570">
        <ele>590.3</ele>
        <time>2018-10-21T08:42:21Z</time>
      </trkpt>
      <trkpt lat="42.9186970" lon="-3.3098850">
        <ele>591.2</ele>
        <time>2018-10-21T08:42:22Z</time>
      </trkpt>
      <trkpt lat="42.9187520" lon="-3.3098120">
        <ele>591.2</ele>
        <time>2018-10-21T08:42:23Z</time>
      </trkpt>
      <trkpt lat="42.9188070" lon="-3.3097380">
        <ele>591.2</ele>
        <time>2018-10-21T08:42:24Z</time>
      </trkpt>
      <trkpt lat="42.9188600" lon="-3.3096620">
        <ele>591.2</ele>
        <time>2018-10-21T08:42:25Z</time>
      </trkpt>
      <trkpt lat="42.9189120" lon="-3.3095870">
        <ele>591.2</ele>
        <time>2018-10-21T08:42:26Z</time>
      </trkpt>
      <trkpt lat="42.9189600" lon="-3.3095120">
        <ele>591.2</ele>
        <time>2018-10-21T08:42:27Z</time>
      </trkpt>
      <trkpt lat="42.9190120" lon="-3.3094420">
        <ele>591.2</ele>
        <time>2018-10-21T08:42:28Z</time>
      </trkpt>
      <trkpt lat="42.9190630" lon="-3.3093730">
        <ele>591.2</ele>
        <time>2018-10-21T08:42:29Z</time>
      </trkpt>
      <trkpt lat="42.9191150" lon="-3.3093030">
        <ele>591.2</ele>
        <time>2018-10-21T08:42:30Z</time>
      </trkpt>
      <trkpt lat="42.9191650" lon="-3.3092350">
        <ele>591.2</ele>
        <time>2018-10-21T08:42:31Z</time>
      </trkpt>
      <trkpt lat="42.9192150" lon="-3.3091650">
        <ele>591.2</ele>
        <time>2018-10-21T08:42:32Z</time>
      </trkpt>
      <trkpt lat="42.9192600" lon="-3.3090920">
        <ele>591.2</ele>
        <time>2018-10-21T08:42:33Z</time>
      </trkpt>
      <trkpt lat="42.9193050" lon="-3.3090200">
        <ele>591.2</ele>
        <time>2018-10-21T08:42:34Z</time>
      </trkpt>
      <trkpt lat="42.9193470" lon="-3.3089470">
        <ele>591.2</ele>
        <time>2018-10-21T08:42:35Z</time>
      </trkpt>
      <trkpt lat="42.9193880" lon="-3.3088700">
        <ele>592.2</ele>
        <time>2018-10-21T08:42:36Z</time>
      </trkpt>
      <trkpt lat="42.9194300" lon="-3.3087920">
        <ele>592.2</ele>
        <time>2018-10-21T08:42:37Z</time>
      </trkpt>
      <trkpt lat="42.9194720" lon="-3.3087130">
        <ele>592.2</ele>
        <time>2018-10-21T08:42:38Z</time>
      </trkpt>
      <trkpt lat="42.9195150" lon="-3.3086350">
        <ele>592.2</ele>
        <time>2018-10-21T08:42:39Z</time>
      </trkpt>
      <trkpt lat="42.9195580" lon="-3.3085570">
        <ele>592.2</ele>
        <time>2018-10-21T08:42:40Z</time>
      </trkpt>
      <trkpt lat="42.9195980" lon="-3.3084750">
        <ele>592.2</ele>
        <time>2018-10-21T08:42:41Z</time>
      </trkpt>
      <trkpt lat="42.9196420" lon="-3.3083900">
        <ele>592.2</ele>
        <time>2018-10-21T08:42:42Z</time>
      </trkpt>
      <trkpt lat="42.9196870" lon="-3.3082950">
        <ele>592.2</ele>
        <time>2018-10-21T08:42:43Z</time>
      </trkpt>
      <trkpt lat="42.9197330" lon="-3.3082030">
        <ele>593.3</ele>
        <time>2018-10-21T08:42:44Z</time>
      </trkpt>
      <trkpt lat="42.9197780" lon="-3.3081130">
        <ele>593.3</ele>
        <time>2018-10-21T08:42:45Z</time>
      </trkpt>
      <trkpt lat="42.9198230" lon="-3.3080220">
        <ele>593.3</ele>
        <time>2018-10-21T08:42:46Z</time>
      </trkpt>
      <trkpt lat="42.9198680" lon="-3.3079350">
        <ele>593.3</ele>
        <time>2018-10-21T08:42:47Z</time>
      </trkpt>
      <trkpt lat="42.9199150" lon="-3.3078500">
        <ele>593.3</ele>
        <time>2018-10-21T08:42:48Z</time>
      </trkpt>
      <trkpt lat="42.9199600" lon="-3.3077650">
        <ele>593.3</ele>
        <time>2018-10-21T08:42:49Z</time>
      </trkpt>
      <trkpt lat="42.9200070" lon="-3.3076850">
        <ele>593.3</ele>
        <time>2018-10-21T08:42:50Z</time>
      </trkpt>
      <trkpt lat="42.9200570" lon="-3.3076120">
        <ele>593.3</ele>
        <time>2018-10-21T08:42:51Z</time>
      </trkpt>
      <trkpt lat="42.9201080" lon="-3.3075380">
        <ele>593.3</ele>
        <time>2018-10-21T08:42:52Z</time>
      </trkpt>
      <trkpt lat="42.9201630" lon="-3.3074680">
        <ele>593.3</ele>
        <time>2018-10-21T08:42:53Z</time>
      </trkpt>
      <trkpt lat="42.9202180" lon="-3.3073980">
        <ele>593.3</ele>
        <time>2018-10-21T08:42:54Z</time>
      </trkpt>
      <trkpt lat="42.9202720" lon="-3.3073250">
        <ele>593.3</ele>
        <time>2018-10-21T08:42:55Z</time>
      </trkpt>
      <trkpt lat="42.9203220" lon="-3.3072450">
        <ele>593.3</ele>
        <time>2018-10-21T08:42:56Z</time>
      </trkpt>
      <trkpt lat="42.9203650" lon="-3.3071600">
        <ele>593.3</ele>
        <time>2018-10-21T08:42:57Z</time>
      </trkpt>
      <trkpt lat="42.9204000" lon="-3.3070670">
        <ele>593.3</ele>
        <time>2018-10-21T08:42:58Z</time>
      </trkpt>
      <trkpt lat="42.9204300" lon="-3.3069730">
        <ele>593.3</ele>
        <time>2018-10-21T08:42:59Z</time>
      </trkpt>
      <trkpt lat="42.9204520" lon="-3.3068800">
        <ele>593.3</ele>
        <time>2018-10-21T08:43:00Z</time>
      </trkpt>
      <trkpt lat="42.9204720" lon="-3.3067830">
        <ele>593.3</ele>
        <time>2018-10-21T08:43:01Z</time>
      </trkpt>
      <trkpt lat="42.9204880" lon="-3.3066850">
        <ele>593.3</ele>
        <time>2018-10-21T08:43:02Z</time>
      </trkpt>
      <trkpt lat="42.9205030" lon="-3.3065870">
        <ele>593.3</ele>
        <time>2018-10-21T08:43:03Z</time>
      </trkpt>
      <trkpt lat="42.9205170" lon="-3.3064880">
        <ele>593.3</ele>
        <time>2018-10-21T08:43:04Z</time>
      </trkpt>
      <trkpt lat="42.9205280" lon="-3.3063900">
        <ele>593.3</ele>
        <time>2018-10-21T08:43:05Z</time>
      </trkpt>
      <trkpt lat="42.9205400" lon="-3.3062930">
        <ele>592.2</ele>
        <time>2018-10-21T08:43:06Z</time>
      </trkpt>
      <trkpt lat="42.9205470" lon="-3.3061930">
        <ele>592.2</ele>
        <time>2018-10-21T08:43:07Z</time>
      </trkpt>
      <trkpt lat="42.9205500" lon="-3.3060930">
        <ele>592.2</ele>
        <time>2018-10-21T08:43:08Z</time>
      </trkpt>
      <trkpt lat="42.9205500" lon="-3.3059920">
        <ele>592.2</ele>
        <time>2018-10-21T08:43:09Z</time>
      </trkpt>
      <trkpt lat="42.9205480" lon="-3.3058880">
        <ele>592.2</ele>
        <time>2018-10-21T08:43:10Z</time>
      </trkpt>
      <trkpt lat="42.9205480" lon="-3.3057830">
        <ele>592.2</ele>
        <time>2018-10-21T08:43:11Z</time>
      </trkpt>
      <trkpt lat="42.9205470" lon="-3.3056780">
        <ele>592.2</ele>
        <time>2018-10-21T08:43:12Z</time>
      </trkpt>
      <trkpt lat="42.9205480" lon="-3.3055720">
        <ele>592.2</ele>
        <time>2018-10-21T08:43:13Z</time>
      </trkpt>
      <trkpt lat="42.9205520" lon="-3.3054670">
        <ele>592.2</ele>
        <time>2018-10-21T08:43:14Z</time>
      </trkpt>
      <trkpt lat="42.9205580" lon="-3.3053620">
        <ele>592.2</ele>
        <time>2018-10-21T08:43:15Z</time>
      </trkpt>
      <trkpt lat="42.9205670" lon="-3.3052570">
        <ele>592.2</ele>
        <time>2018-10-21T08:43:16Z</time>
      </trkpt>
      <trkpt lat="42.9205770" lon="-3.3051520">
        <ele>592.2</ele>
        <time>2018-10-21T08:43:17Z</time>
      </trkpt>
      <trkpt lat="42.9205870" lon="-3.3050500">
        <ele>592.2</ele>
        <time>2018-10-21T08:43:18Z</time>
      </trkpt>
      <trkpt lat="42.9205980" lon="-3.3049470">
        <ele>592.2</ele>
        <time>2018-10-21T08:43:19Z</time>
      </trkpt>
      <trkpt lat="42.9206120" lon="-3.3048450">
        <ele>592.2</ele>
        <time>2018-10-21T08:43:20Z</time>
      </trkpt>
      <trkpt lat="42.9206250" lon="-3.3047450">
        <ele>592.2</ele>
        <time>2018-10-21T08:43:21Z</time>
      </trkpt>
      <trkpt lat="42.9206420" lon="-3.3046470">
        <ele>592.2</ele>
        <time>2018-10-21T08:43:22Z</time>
      </trkpt>
      <trkpt lat="42.9206520" lon="-3.3045500">
        <ele>592.2</ele>
        <time>2018-10-21T08:43:23Z</time>
      </trkpt>
      <trkpt lat="42.9206670" lon="-3.3044520">
        <ele>592.2</ele>
        <time>2018-10-21T08:43:24Z</time>
      </trkpt>
      <trkpt lat="42.9206830" lon="-3.3043550">
        <ele>592.2</ele>
        <time>2018-10-21T08:43:25Z</time>
      </trkpt>
      <trkpt lat="42.9207020" lon="-3.3042570">
        <ele>592.2</ele>
        <time>2018-10-21T08:43:26Z</time>
      </trkpt>
      <trkpt lat="42.9207180" lon="-3.3041600">
        <ele>592.2</ele>
        <time>2018-10-21T08:43:27Z</time>
      </trkpt>
      <trkpt lat="42.9207350" lon="-3.3040620">
        <ele>592.2</ele>
        <time>2018-10-21T08:43:28Z</time>
      </trkpt>
      <trkpt lat="42.9207520" lon="-3.3039630">
        <ele>592.2</ele>
        <time>2018-10-21T08:43:29Z</time>
      </trkpt>
      <trkpt lat="42.9207680" lon="-3.3038650">
        <ele>592.2</ele>
        <time>2018-10-21T08:43:30Z</time>
      </trkpt>
      <trkpt lat="42.9207830" lon="-3.3037680">
        <ele>592.2</ele>
        <time>2018-10-21T08:43:31Z</time>
      </trkpt>
      <trkpt lat="42.9208000" lon="-3.3036720">
        <ele>592.2</ele>
        <time>2018-10-21T08:43:32Z</time>
      </trkpt>
      <trkpt lat="42.9208170" lon="-3.3035770">
        <ele>592.2</ele>
        <time>2018-10-21T08:43:33Z</time>
      </trkpt>
      <trkpt lat="42.9208350" lon="-3.3034830">
        <ele>592.2</ele>
        <time>2018-10-21T08:43:34Z</time>
      </trkpt>
      <trkpt lat="42.9208530" lon="-3.3033880">
        <ele>592.2</ele>
        <time>2018-10-21T08:43:35Z</time>
      </trkpt>
      <trkpt lat="42.9208730" lon="-3.3032930">
        <ele>592.2</ele>
        <time>2018-10-21T08:43:36Z</time>
      </trkpt>
      <trkpt lat="42.9209020" lon="-3.3032020">
        <ele>592.2</ele>
        <time>2018-10-21T08:43:37Z</time>
      </trkpt>
      <trkpt lat="42.9209380" lon="-3.3031150">
        <ele>592.2</ele>
        <time>2018-10-21T08:43:38Z</time>
      </trkpt>
      <trkpt lat="42.9209800" lon="-3.3030320">
        <ele>592.2</ele>
        <time>2018-10-21T08:43:39Z</time>
      </trkpt>
      <trkpt lat="42.9210280" lon="-3.3029530">
        <ele>592.2</ele>
        <time>2018-10-21T08:43:40Z</time>
      </trkpt>
      <trkpt lat="42.9210830" lon="-3.3028800">
        <ele>592.2</ele>
        <time>2018-10-21T08:43:41Z</time>
      </trkpt>
      <trkpt lat="42.9211430" lon="-3.3028120">
        <ele>592.2</ele>
        <time>2018-10-21T08:43:42Z</time>
      </trkpt>
      <trkpt lat="42.9212030" lon="-3.3027500">
        <ele>592.2</ele>
        <time>2018-10-21T08:43:43Z</time>
      </trkpt>
      <trkpt lat="42.9212670" lon="-3.3026900">
        <ele>592.2</ele>
        <time>2018-10-21T08:43:44Z</time>
      </trkpt>
      <trkpt lat="42.9213320" lon="-3.3026330">
        <ele>592.2</ele>
        <time>2018-10-21T08:43:45Z</time>
      </trkpt>
      <trkpt lat="42.9213950" lon="-3.3025770">
        <ele>592.2</ele>
        <time>2018-10-21T08:43:46Z</time>
      </trkpt>
      <trkpt lat="42.9214570" lon="-3.3025180">
        <ele>592.2</ele>
        <time>2018-10-21T08:43:47Z</time>
      </trkpt>
      <trkpt lat="42.9215180" lon="-3.3024620">
        <ele>592.2</ele>
        <time>2018-10-21T08:43:48Z</time>
      </trkpt>
      <trkpt lat="42.9215800" lon="-3.3024070">
        <ele>592.2</ele>
        <time>2018-10-21T08:43:49Z</time>
      </trkpt>
      <trkpt lat="42.9216430" lon="-3.3023500">
        <ele>592.2</ele>
        <time>2018-10-21T08:43:50Z</time>
      </trkpt>
      <trkpt lat="42.9217030" lon="-3.3022920">
        <ele>592.2</ele>
        <time>2018-10-21T08:43:51Z</time>
      </trkpt>
      <trkpt lat="42.9217650" lon="-3.3022330">
        <ele>592.2</ele>
        <time>2018-10-21T08:43:52Z</time>
      </trkpt>
      <trkpt lat="42.9218250" lon="-3.3021750">
        <ele>592.2</ele>
        <time>2018-10-21T08:43:53Z</time>
      </trkpt>
      <trkpt lat="42.9218830" lon="-3.3021170">
        <ele>592.2</ele>
        <time>2018-10-21T08:43:54Z</time>
      </trkpt>
      <trkpt lat="42.9219380" lon="-3.3020600">
        <ele>592.2</ele>
        <time>2018-10-21T08:43:55Z</time>
      </trkpt>
      <trkpt lat="42.9219870" lon="-3.3020130">
        <ele>592.2</ele>
        <time>2018-10-21T08:43:56Z</time>
      </trkpt>
      <trkpt lat="42.9220230" lon="-3.3019900">
        <ele>592.2</ele>
        <time>2018-10-21T08:43:57Z</time>
      </trkpt>
      <trkpt lat="42.9220580" lon="-3.3019970">
        <ele>592.2</ele>
        <time>2018-10-21T08:43:58Z</time>
      </trkpt>
      <trkpt lat="42.9220850" lon="-3.3020220">
        <ele>592.2</ele>
        <time>2018-10-21T08:43:59Z</time>
      </trkpt>
      <trkpt lat="42.9221070" lon="-3.3020430">
        <ele>592.2</ele>
        <time>2018-10-21T08:44:00Z</time>
      </trkpt>
      <trkpt lat="42.9222390" lon="-3.3019620">
        <ele>592.2</ele>
        <time>2018-10-21T08:44:01Z</time>
      </trkpt>
      <trkpt lat="42.9223540" lon="-3.3018730">
        <ele>593.3</ele>
        <time>2018-10-21T08:44:02Z</time>
      </trkpt>
      <trkpt lat="42.9224700" lon="-3.3017830">
        <ele>593.3</ele>
        <time>2018-10-21T08:46:37Z</time>
      </trkpt>
      <trkpt lat="42.9225850" lon="-3.3016930">
        <ele>593.3</ele>
        <time>2018-10-21T08:46:38Z</time>
      </trkpt>
      <trkpt lat="42.9226330" lon="-3.3016730">
        <ele>593.3</ele>
        <time>2018-10-21T08:46:39Z</time>
      </trkpt>
      <trkpt lat="42.9226820" lon="-3.3016550">
        <ele>593.3</ele>
        <time>2018-10-21T08:46:40Z</time>
      </trkpt>
      <trkpt lat="42.9227330" lon="-3.3016370">
        <ele>593.3</ele>
        <time>2018-10-21T08:46:41Z</time>
      </trkpt>
      <trkpt lat="42.9227870" lon="-3.3016180">
        <ele>593.3</ele>
        <time>2018-10-21T08:46:42Z</time>
      </trkpt>
      <trkpt lat="42.9228400" lon="-3.3015980">
        <ele>593.3</ele>
        <time>2018-10-21T08:46:43Z</time>
      </trkpt>
      <trkpt lat="42.9228920" lon="-3.3015780">
        <ele>593.3</ele>
        <time>2018-10-21T08:46:44Z</time>
      </trkpt>
      <trkpt lat="42.9229430" lon="-3.3015600">
        <ele>593.3</ele>
        <time>2018-10-21T08:46:45Z</time>
      </trkpt>
      <trkpt lat="42.9229950" lon="-3.3015420">
        <ele>593.3</ele>
        <time>2018-10-21T08:46:46Z</time>
      </trkpt>
      <trkpt lat="42.9230470" lon="-3.3015220">
        <ele>593.3</ele>
        <time>2018-10-21T08:46:47Z</time>
      </trkpt>
      <trkpt lat="42.9230980" lon="-3.3015020">
        <ele>593.3</ele>
        <time>2018-10-21T08:46:48Z</time>
      </trkpt>
      <trkpt lat="42.9231520" lon="-3.3014820">
        <ele>593.3</ele>
        <time>2018-10-21T08:46:49Z</time>
      </trkpt>
      <trkpt lat="42.9232050" lon="-3.3014650">
        <ele>593.3</ele>
        <time>2018-10-21T08:46:50Z</time>
      </trkpt>
      <trkpt lat="42.9232580" lon="-3.3014450">
        <ele>593.3</ele>
        <time>2018-10-21T08:46:51Z</time>
      </trkpt>
      <trkpt lat="42.9233100" lon="-3.3014270">
        <ele>593.3</ele>
        <time>2018-10-21T08:46:52Z</time>
      </trkpt>
      <trkpt lat="42.9233630" lon="-3.3014080">
        <ele>594.2</ele>
        <time>2018-10-21T08:46:53Z</time>
      </trkpt>
      <trkpt lat="42.9234170" lon="-3.3013920">
        <ele>594.2</ele>
        <time>2018-10-21T08:46:54Z</time>
      </trkpt>
      <trkpt lat="42.9234680" lon="-3.3013700">
        <ele>594.2</ele>
        <time>2018-10-21T08:46:55Z</time>
      </trkpt>
      <trkpt lat="42.9235200" lon="-3.3013520">
        <ele>594.2</ele>
        <time>2018-10-21T08:46:56Z</time>
      </trkpt>
      <trkpt lat="42.9235680" lon="-3.3013350">
        <ele>595.3</ele>
        <time>2018-10-21T08:46:57Z</time>
      </trkpt>
      <trkpt lat="42.9236180" lon="-3.3013180">
        <ele>595.3</ele>
        <time>2018-10-21T08:46:58Z</time>
      </trkpt>
      <trkpt lat="42.9236620" lon="-3.3012980">
        <ele>595.3</ele>
        <time>2018-10-21T08:46:59Z</time>
      </trkpt>
      <trkpt lat="42.9237070" lon="-3.3012800">
        <ele>595.3</ele>
        <time>2018-10-21T08:47:00Z</time>
      </trkpt>
      <trkpt lat="42.9237500" lon="-3.3012600">
        <ele>596.2</ele>
        <time>2018-10-21T08:47:01Z</time>
      </trkpt>
      <trkpt lat="42.9237930" lon="-3.3012430">
        <ele>596.2</ele>
        <time>2018-10-21T08:47:02Z</time>
      </trkpt>
      <trkpt lat="42.9238370" lon="-3.3012270">
        <ele>597.3</ele>
        <time>2018-10-21T08:47:03Z</time>
      </trkpt>
      <trkpt lat="42.9238780" lon="-3.3012120">
        <ele>597.3</ele>
        <time>2018-10-21T08:47:04Z</time>
      </trkpt>
      <trkpt lat="42.9239230" lon="-3.3011950">
        <ele>597.3</ele>
        <time>2018-10-21T08:47:05Z</time>
      </trkpt>
      <trkpt lat="42.9239680" lon="-3.3011730">
        <ele>597.3</ele>
        <time>2018-10-21T08:47:06Z</time>
      </trkpt>
      <trkpt lat="42.9240180" lon="-3.3011520">
        <ele>597.3</ele>
        <time>2018-10-21T08:47:07Z</time>
      </trkpt>
      <trkpt lat="42.9240680" lon="-3.3011320">
        <ele>597.3</ele>
        <time>2018-10-21T08:47:08Z</time>
      </trkpt>
      <trkpt lat="42.9241220" lon="-3.3011080">
        <ele>597.3</ele>
        <time>2018-10-21T08:47:09Z</time>
      </trkpt>
      <trkpt lat="42.9241770" lon="-3.3010820">
        <ele>597.3</ele>
        <time>2018-10-21T08:47:10Z</time>
      </trkpt>
      <trkpt lat="42.9242350" lon="-3.3010520">
        <ele>597.3</ele>
        <time>2018-10-21T08:47:11Z</time>
      </trkpt>
      <trkpt lat="42.9242900" lon="-3.3010230">
        <ele>597.3</ele>
        <time>2018-10-21T08:47:12Z</time>
      </trkpt>
      <trkpt lat="42.9243520" lon="-3.3009980">
        <ele>597.3</ele>
        <time>2018-10-21T08:47:13Z</time>
      </trkpt>
      <trkpt lat="42.9244150" lon="-3.3009650">
        <ele>597.3</ele>
        <time>2018-10-21T08:47:14Z</time>
      </trkpt>
      <trkpt lat="42.9244770" lon="-3.3009320">
        <ele>597.3</ele>
        <time>2018-10-21T08:47:15Z</time>
      </trkpt>
      <trkpt lat="42.9245420" lon="-3.3008950">
        <ele>597.3</ele>
        <time>2018-10-21T08:47:16Z</time>
      </trkpt>
      <trkpt lat="42.9246070" lon="-3.3008520">
        <ele>597.3</ele>
        <time>2018-10-21T08:47:17Z</time>
      </trkpt>
      <trkpt lat="42.9246700" lon="-3.3008080">
        <ele>597.3</ele>
        <time>2018-10-21T08:47:18Z</time>
      </trkpt>
      <trkpt lat="42.9247330" lon="-3.3007620">
        <ele>596.2</ele>
        <time>2018-10-21T08:47:19Z</time>
      </trkpt>
      <trkpt lat="42.9247980" lon="-3.3007180">
        <ele>596.2</ele>
        <time>2018-10-21T08:47:20Z</time>
      </trkpt>
      <trkpt lat="42.9248620" lon="-3.3006750">
        <ele>596.2</ele>
        <time>2018-10-21T08:47:21Z</time>
      </trkpt>
      <trkpt lat="42.9249280" lon="-3.3006330">
        <ele>596.2</ele>
        <time>2018-10-21T08:47:22Z</time>
      </trkpt>
      <trkpt lat="42.9249950" lon="-3.3005920">
        <ele>596.2</ele>
        <time>2018-10-21T08:47:23Z</time>
      </trkpt>
      <trkpt lat="42.9250620" lon="-3.3005520">
        <ele>596.2</ele>
        <time>2018-10-21T08:47:24Z</time>
      </trkpt>
      <trkpt lat="42.9251250" lon="-3.3005080">
        <ele>596.2</ele>
        <time>2018-10-21T08:47:25Z</time>
      </trkpt>
      <trkpt lat="42.9251880" lon="-3.3004620">
        <ele>596.2</ele>
        <time>2018-10-21T08:47:26Z</time>
      </trkpt>
      <trkpt lat="42.9252550" lon="-3.3004170">
        <ele>596.2</ele>
        <time>2018-10-21T08:47:27Z</time>
      </trkpt>
      <trkpt lat="42.9253180" lon="-3.3003730">
        <ele>596.2</ele>
        <time>2018-10-21T08:47:28Z</time>
      </trkpt>
      <trkpt lat="42.9253820" lon="-3.3003320">
        <ele>595.3</ele>
        <time>2018-10-21T08:47:29Z</time>
      </trkpt>
      <trkpt lat="42.9254400" lon="-3.3002900">
        <ele>595.3</ele>
        <time>2018-10-21T08:47:30Z</time>
      </trkpt>
      <trkpt lat="42.9255080" lon="-3.3002470">
        <ele>595.3</ele>
        <time>2018-10-21T08:47:31Z</time>
      </trkpt>
      <trkpt lat="42.9255720" lon="-3.3002030">
        <ele>595.3</ele>
        <time>2018-10-21T08:47:32Z</time>
      </trkpt>
      <trkpt lat="42.9256320" lon="-3.3001600">
        <ele>596.2</ele>
        <time>2018-10-21T08:47:33Z</time>
      </trkpt>
      <trkpt lat="42.9256950" lon="-3.3001200">
        <ele>596.2</ele>
        <time>2018-10-21T08:47:34Z</time>
      </trkpt>
      <trkpt lat="42.9257580" lon="-3.3000780">
        <ele>596.2</ele>
        <time>2018-10-21T08:47:35Z</time>
      </trkpt>
      <trkpt lat="42.9258180" lon="-3.3000330">
        <ele>596.2</ele>
        <time>2018-10-21T08:47:36Z</time>
      </trkpt>
      <trkpt lat="42.9258780" lon="-3.2999850">
        <ele>596.2</ele>
        <time>2018-10-21T08:47:37Z</time>
      </trkpt>
      <trkpt lat="42.9259380" lon="-3.2999330">
        <ele>596.2</ele>
        <time>2018-10-21T08:47:38Z</time>
      </trkpt>
      <trkpt lat="42.9259970" lon="-3.2998730">
        <ele>596.2</ele>
        <time>2018-10-21T08:47:39Z</time>
      </trkpt>
      <trkpt lat="42.9260520" lon="-3.2998120">
        <ele>596.2</ele>
        <time>2018-10-21T08:47:40Z</time>
      </trkpt>
      <trkpt lat="42.9261050" lon="-3.2997450">
        <ele>596.2</ele>
        <time>2018-10-21T08:47:41Z</time>
      </trkpt>
      <trkpt lat="42.9261580" lon="-3.2996780">
        <ele>596.2</ele>
        <time>2018-10-21T08:47:42Z</time>
      </trkpt>
      <trkpt lat="42.9262080" lon="-3.2996120">
        <ele>596.2</ele>
        <time>2018-10-21T08:47:43Z</time>
      </trkpt>
      <trkpt lat="42.9262600" lon="-3.2995420">
        <ele>596.2</ele>
        <time>2018-10-21T08:47:44Z</time>
      </trkpt>
      <trkpt lat="42.9263100" lon="-3.2994720">
        <ele>596.2</ele>
        <time>2018-10-21T08:47:45Z</time>
      </trkpt>
      <trkpt lat="42.9263620" lon="-3.2994020">
        <ele>596.2</ele>
        <time>2018-10-21T08:47:46Z</time>
      </trkpt>
      <trkpt lat="42.9264130" lon="-3.2993320">
        <ele>596.2</ele>
        <time>2018-10-21T08:47:47Z</time>
      </trkpt>
      <trkpt lat="42.9264630" lon="-3.2992620">
        <ele>596.2</ele>
        <time>2018-10-21T08:47:48Z</time>
      </trkpt>
      <trkpt lat="42.9265130" lon="-3.2991880">
        <ele>596.2</ele>
        <time>2018-10-21T08:47:49Z</time>
      </trkpt>
      <trkpt lat="42.9265620" lon="-3.2991150">
        <ele>596.2</ele>
        <time>2018-10-21T08:47:50Z</time>
      </trkpt>
      <trkpt lat="42.9266100" lon="-3.2990380">
        <ele>596.2</ele>
        <time>2018-10-21T08:47:51Z</time>
      </trkpt>
      <trkpt lat="42.9266550" lon="-3.2989580">
        <ele>596.2</ele>
        <time>2018-10-21T08:47:52Z</time>
      </trkpt>
      <trkpt lat="42.9266930" lon="-3.2988720">
        <ele>595.3</ele>
        <time>2018-10-21T08:47:53Z</time>
      </trkpt>
      <trkpt lat="42.9267300" lon="-3.2987820">
        <ele>595.3</ele>
        <time>2018-10-21T08:47:54Z</time>
      </trkpt>
      <trkpt lat="42.9267630" lon="-3.2986900">
        <ele>595.3</ele>
        <time>2018-10-21T08:47:55Z</time>
      </trkpt>
      <trkpt lat="42.9267930" lon="-3.2985970">
        <ele>595.3</ele>
        <time>2018-10-21T08:47:56Z</time>
      </trkpt>
      <trkpt lat="42.9268200" lon="-3.2985000">
        <ele>595.3</ele>
        <time>2018-10-21T08:47:57Z</time>
      </trkpt>
      <trkpt lat="42.9268470" lon="-3.2984050">
        <ele>595.3</ele>
        <time>2018-10-21T08:47:58Z</time>
      </trkpt>
      <trkpt lat="42.9268680" lon="-3.2983070">
        <ele>595.3</ele>
        <time>2018-10-21T08:47:59Z</time>
      </trkpt>
      <trkpt lat="42.9268900" lon="-3.2982080">
        <ele>595.3</ele>
        <time>2018-10-21T08:48:00Z</time>
      </trkpt>
      <trkpt lat="42.9269120" lon="-3.2981120">
        <ele>595.3</ele>
        <time>2018-10-21T08:48:01Z</time>
      </trkpt>
      <trkpt lat="42.9269330" lon="-3.2980130">
        <ele>595.3</ele>
        <time>2018-10-21T08:48:02Z</time>
      </trkpt>
      <trkpt lat="42.9269570" lon="-3.2979180">
        <ele>595.3</ele>
        <time>2018-10-21T08:48:03Z</time>
      </trkpt>
      <trkpt lat="42.9269770" lon="-3.2978220">
        <ele>595.3</ele>
        <time>2018-10-21T08:48:04Z</time>
      </trkpt>
      <trkpt lat="42.9269970" lon="-3.2977250">
        <ele>595.3</ele>
        <time>2018-10-21T08:48:05Z</time>
      </trkpt>
      <trkpt lat="42.9270170" lon="-3.2976300">
        <ele>595.3</ele>
        <time>2018-10-21T08:48:06Z</time>
      </trkpt>
      <trkpt lat="42.9270370" lon="-3.2975350">
        <ele>595.3</ele>
        <time>2018-10-21T08:48:07Z</time>
      </trkpt>
      <trkpt lat="42.9270570" lon="-3.2974400">
        <ele>595.3</ele>
        <time>2018-10-21T08:48:08Z</time>
      </trkpt>
      <trkpt lat="42.9270770" lon="-3.2973450">
        <ele>595.3</ele>
        <time>2018-10-21T08:48:09Z</time>
      </trkpt>
      <trkpt lat="42.9270970" lon="-3.2972500">
        <ele>595.3</ele>
        <time>2018-10-21T08:48:10Z</time>
      </trkpt>
      <trkpt lat="42.9271170" lon="-3.2971580">
        <ele>595.3</ele>
        <time>2018-10-21T08:48:11Z</time>
      </trkpt>
      <trkpt lat="42.9271380" lon="-3.2970670">
        <ele>595.3</ele>
        <time>2018-10-21T08:48:12Z</time>
      </trkpt>
      <trkpt lat="42.9271580" lon="-3.2969730">
        <ele>594.2</ele>
        <time>2018-10-21T08:48:13Z</time>
      </trkpt>
      <trkpt lat="42.9271780" lon="-3.2968820">
        <ele>594.2</ele>
        <time>2018-10-21T08:48:14Z</time>
      </trkpt>
      <trkpt lat="42.9271970" lon="-3.2967900">
        <ele>594.2</ele>
        <time>2018-10-21T08:48:15Z</time>
      </trkpt>
      <trkpt lat="42.9272170" lon="-3.2967000">
        <ele>594.2</ele>
        <time>2018-10-21T08:48:16Z</time>
      </trkpt>
      <trkpt lat="42.9272350" lon="-3.2966080">
        <ele>594.2</ele>
        <time>2018-10-21T08:48:17Z</time>
      </trkpt>
      <trkpt lat="42.9272530" lon="-3.2965170">
        <ele>594.2</ele>
        <time>2018-10-21T08:48:18Z</time>
      </trkpt>
      <trkpt lat="42.9272730" lon="-3.2964270">
        <ele>594.2</ele>
        <time>2018-10-21T08:48:19Z</time>
      </trkpt>
      <trkpt lat="42.9272930" lon="-3.2963370">
        <ele>594.2</ele>
        <time>2018-10-21T08:48:20Z</time>
      </trkpt>
      <trkpt lat="42.9273130" lon="-3.2962470">
        <ele>594.2</ele>
        <time>2018-10-21T08:48:21Z</time>
      </trkpt>
      <trkpt lat="42.9273370" lon="-3.2961620">
        <ele>594.2</ele>
        <time>2018-10-21T08:48:22Z</time>
      </trkpt>
      <trkpt lat="42.9273620" lon="-3.2960770">
        <ele>594.2</ele>
        <time>2018-10-21T08:48:23Z</time>
      </trkpt>
      <trkpt lat="42.9273900" lon="-3.2959950">
        <ele>594.2</ele>
        <time>2018-10-21T08:48:24Z</time>
      </trkpt>
      <trkpt lat="42.9274170" lon="-3.2959150">
        <ele>594.2</ele>
        <time>2018-10-21T08:48:25Z</time>
      </trkpt>
      <trkpt lat="42.9274450" lon="-3.2958380">
        <ele>594.2</ele>
        <time>2018-10-21T08:48:26Z</time>
      </trkpt>
      <trkpt lat="42.9274700" lon="-3.2957650">
        <ele>594.2</ele>
        <time>2018-10-21T08:48:27Z</time>
      </trkpt>
      <trkpt lat="42.9274980" lon="-3.2956950">
        <ele>594.2</ele>
        <time>2018-10-21T08:48:28Z</time>
      </trkpt>
      <trkpt lat="42.9275280" lon="-3.2956280">
        <ele>596.2</ele>
        <time>2018-10-21T08:48:29Z</time>
      </trkpt>
      <trkpt lat="42.9275570" lon="-3.2955670">
        <ele>596.2</ele>
        <time>2018-10-21T08:48:30Z</time>
      </trkpt>
      <trkpt lat="42.9275850" lon="-3.2955030">
        <ele>597.3</ele>
        <time>2018-10-21T08:48:31Z</time>
      </trkpt>
      <trkpt lat="42.9276130" lon="-3.2954450">
        <ele>597.3</ele>
        <time>2018-10-21T08:48:32Z</time>
      </trkpt>
      <trkpt lat="42.9276430" lon="-3.2953880">
        <ele>597.3</ele>
        <time>2018-10-21T08:48:33Z</time>
      </trkpt>
      <trkpt lat="42.9276670" lon="-3.2953300">
        <ele>597.3</ele>
        <time>2018-10-21T08:48:34Z</time>
      </trkpt>
      <trkpt lat="42.9276920" lon="-3.2952720">
        <ele>597.3</ele>
        <time>2018-10-21T08:48:35Z</time>
      </trkpt>
      <trkpt lat="42.9277080" lon="-3.2952050">
        <ele>597.3</ele>
        <time>2018-10-21T08:48:36Z</time>
      </trkpt>
      <trkpt lat="42.9277150" lon="-3.2951330">
        <ele>598.2</ele>
        <time>2018-10-21T08:48:37Z</time>
      </trkpt>
      <trkpt lat="42.9277100" lon="-3.2950570">
        <ele>598.2</ele>
        <time>2018-10-21T08:48:38Z</time>
      </trkpt>
      <trkpt lat="42.9276880" lon="-3.2949830">
        <ele>598.2</ele>
        <time>2018-10-21T08:48:39Z</time>
      </trkpt>
      <trkpt lat="42.9276530" lon="-3.2949180">
        <ele>598.2</ele>
        <time>2018-10-21T08:48:40Z</time>
      </trkpt>
      <trkpt lat="42.9276070" lon="-3.2948630">
        <ele>598.2</ele>
        <time>2018-10-21T08:48:41Z</time>
      </trkpt>
      <trkpt lat="42.9275520" lon="-3.2948150">
        <ele>598.2</ele>
        <time>2018-10-21T08:48:42Z</time>
      </trkpt>
      <trkpt lat="42.9274950" lon="-3.2947720">
        <ele>598.2</ele>
        <time>2018-10-21T08:48:43Z</time>
      </trkpt>
      <trkpt lat="42.9274400" lon="-3.2947250">
        <ele>598.2</ele>
        <time>2018-10-21T08:48:44Z</time>
      </trkpt>
      <trkpt lat="42.9273850" lon="-3.2946800">
        <ele>598.2</ele>
        <time>2018-10-21T08:48:45Z</time>
      </trkpt>
      <trkpt lat="42.9273330" lon="-3.2946300">
        <ele>598.2</ele>
        <time>2018-10-21T08:48:46Z</time>
      </trkpt>
      <trkpt lat="42.9272900" lon="-3.2945670">
        <ele>598.2</ele>
        <time>2018-10-21T08:48:47Z</time>
      </trkpt>
      <trkpt lat="42.9272650" lon="-3.2944900">
        <ele>598.2</ele>
        <time>2018-10-21T08:48:48Z</time>
      </trkpt>
      <trkpt lat="42.9272650" lon="-3.2944070">
        <ele>599.2</ele>
        <time>2018-10-21T08:48:49Z</time>
      </trkpt>
      <trkpt lat="42.9272870" lon="-3.2943280">
        <ele>599.2</ele>
        <time>2018-10-21T08:48:50Z</time>
      </trkpt>
      <trkpt lat="42.9273170" lon="-3.2942520">
        <ele>599.2</ele>
        <time>2018-10-21T08:48:51Z</time>
      </trkpt>
      <trkpt lat="42.9273480" lon="-3.2941730">
        <ele>599.2</ele>
        <time>2018-10-21T08:48:52Z</time>
      </trkpt>
      <trkpt lat="42.9273870" lon="-3.2940980">
        <ele>599.2</ele>
        <time>2018-10-21T08:48:53Z</time>
      </trkpt>
      <trkpt lat="42.9274170" lon="-3.2940150">
        <ele>599.2</ele>
        <time>2018-10-21T08:48:54Z</time>
      </trkpt>
      <trkpt lat="42.9274370" lon="-3.2939270">
        <ele>599.2</ele>
        <time>2018-10-21T08:48:55Z</time>
      </trkpt>
      <trkpt lat="42.9274470" lon="-3.2938350">
        <ele>599.2</ele>
        <time>2018-10-21T08:48:56Z</time>
      </trkpt>
      <trkpt lat="42.9274520" lon="-3.2937450">
        <ele>599.2</ele>
        <time>2018-10-21T08:48:57Z</time>
      </trkpt>
      <trkpt lat="42.9274500" lon="-3.2936570">
        <ele>599.2</ele>
        <time>2018-10-21T08:48:58Z</time>
      </trkpt>
      <trkpt lat="42.9274450" lon="-3.2935700">
        <ele>598.2</ele>
        <time>2018-10-21T08:48:59Z</time>
      </trkpt>
      <trkpt lat="42.9274380" lon="-3.2934830">
        <ele>598.2</ele>
        <time>2018-10-21T08:49:00Z</time>
      </trkpt>
      <trkpt lat="42.9274320" lon="-3.2933980">
        <ele>598.2</ele>
        <time>2018-10-21T08:49:01Z</time>
      </trkpt>
      <trkpt lat="42.9274230" lon="-3.2933130">
        <ele>598.2</ele>
        <time>2018-10-21T08:49:02Z</time>
      </trkpt>
      <trkpt lat="42.9274130" lon="-3.2932300">
        <ele>598.2</ele>
        <time>2018-10-21T08:49:03Z</time>
      </trkpt>
      <trkpt lat="42.9274030" lon="-3.2931480">
        <ele>598.2</ele>
        <time>2018-10-21T08:49:04Z</time>
      </trkpt>
      <trkpt lat="42.9273920" lon="-3.2930680">
        <ele>598.2</ele>
        <time>2018-10-21T08:49:05Z</time>
      </trkpt>
      <trkpt lat="42.9273800" lon="-3.2929900">
        <ele>598.2</ele>
        <time>2018-10-21T08:49:06Z</time>
      </trkpt>
      <trkpt lat="42.9273680" lon="-3.2929120">
        <ele>598.2</ele>
        <time>2018-10-21T08:49:07Z</time>
      </trkpt>
      <trkpt lat="42.9273530" lon="-3.2928350">
        <ele>598.2</ele>
        <time>2018-10-21T08:49:08Z</time>
      </trkpt>
      <trkpt lat="42.9273370" lon="-3.2927580">
        <ele>598.2</ele>
        <time>2018-10-21T08:49:09Z</time>
      </trkpt>
      <trkpt lat="42.9273200" lon="-3.2926820">
        <ele>598.2</ele>
        <time>2018-10-21T08:49:10Z</time>
      </trkpt>
      <trkpt lat="42.9273030" lon="-3.2926050">
        <ele>598.2</ele>
        <time>2018-10-21T08:49:11Z</time>
      </trkpt>
      <trkpt lat="42.9272900" lon="-3.2925270">
        <ele>598.2</ele>
        <time>2018-10-21T08:49:12Z</time>
      </trkpt>
      <trkpt lat="42.9272770" lon="-3.2924520">
        <ele>598.2</ele>
        <time>2018-10-21T08:49:13Z</time>
      </trkpt>
      <trkpt lat="42.9272630" lon="-3.2923750">
        <ele>598.2</ele>
        <time>2018-10-21T08:49:14Z</time>
      </trkpt>
      <trkpt lat="42.9272480" lon="-3.2923000">
        <ele>599.2</ele>
        <time>2018-10-21T08:49:15Z</time>
      </trkpt>
      <trkpt lat="42.9272370" lon="-3.2922250">
        <ele>599.2</ele>
        <time>2018-10-21T08:49:16Z</time>
      </trkpt>
      <trkpt lat="42.9272320" lon="-3.2921480">
        <ele>599.2</ele>
        <time>2018-10-21T08:49:17Z</time>
      </trkpt>
      <trkpt lat="42.9272280" lon="-3.2920730">
        <ele>599.2</ele>
        <time>2018-10-21T08:49:18Z</time>
      </trkpt>
      <trkpt lat="42.9272280" lon="-3.2919980">
        <ele>599.2</ele>
        <time>2018-10-21T08:49:19Z</time>
      </trkpt>
      <trkpt lat="42.9272330" lon="-3.2919220">
        <ele>599.2</ele>
        <time>2018-10-21T08:49:20Z</time>
      </trkpt>
      <trkpt lat="42.9272420" lon="-3.2918480">
        <ele>599.2</ele>
        <time>2018-10-21T08:49:21Z</time>
      </trkpt>
      <trkpt lat="42.9272530" lon="-3.2917770">
        <ele>599.2</ele>
        <time>2018-10-21T08:49:22Z</time>
      </trkpt>
      <trkpt lat="42.9272680" lon="-3.2917050">
        <ele>599.2</ele>
        <time>2018-10-21T08:49:23Z</time>
      </trkpt>
      <trkpt lat="42.9272850" lon="-3.2916370">
        <ele>599.2</ele>
        <time>2018-10-21T08:49:24Z</time>
      </trkpt>
      <trkpt lat="42.9273070" lon="-3.2915680">
        <ele>599.2</ele>
        <time>2018-10-21T08:49:25Z</time>
      </trkpt>
      <trkpt lat="42.9273300" lon="-3.2915050">
        <ele>599.2</ele>
        <time>2018-10-21T08:49:26Z</time>
      </trkpt>
      <trkpt lat="42.9273580" lon="-3.2914470">
        <ele>599.2</ele>
        <time>2018-10-21T08:49:27Z</time>
      </trkpt>
      <trkpt lat="42.9273900" lon="-3.2913900">
        <ele>599.2</ele>
        <time>2018-10-21T08:49:28Z</time>
      </trkpt>
      <trkpt lat="42.9274230" lon="-3.2913350">
        <ele>599.2</ele>
        <time>2018-10-21T08:49:29Z</time>
      </trkpt>
      <trkpt lat="42.9274550" lon="-3.2912820">
        <ele>599.2</ele>
        <time>2018-10-21T08:49:30Z</time>
      </trkpt>
      <trkpt lat="42.9274880" lon="-3.2912300">
        <ele>600.3</ele>
        <time>2018-10-21T08:49:31Z</time>
      </trkpt>
      <trkpt lat="42.9275220" lon="-3.2911800">
        <ele>600.3</ele>
        <time>2018-10-21T08:49:32Z</time>
      </trkpt>
      <trkpt lat="42.9275550" lon="-3.2911300">
        <ele>600.3</ele>
        <time>2018-10-21T08:49:33Z</time>
      </trkpt>
      <trkpt lat="42.9275900" lon="-3.2910830">
        <ele>600.3</ele>
        <time>2018-10-21T08:49:34Z</time>
      </trkpt>
      <trkpt lat="42.9276250" lon="-3.2910370">
        <ele>600.3</ele>
        <time>2018-10-21T08:49:35Z</time>
      </trkpt>
      <trkpt lat="42.9276600" lon="-3.2909920">
        <ele>600.3</ele>
        <time>2018-10-21T08:49:36Z</time>
      </trkpt>
      <trkpt lat="42.9276950" lon="-3.2909480">
        <ele>601.2</ele>
        <time>2018-10-21T08:49:37Z</time>
      </trkpt>
      <trkpt lat="42.9277280" lon="-3.2909070">
        <ele>601.2</ele>
        <time>2018-10-21T08:49:38Z</time>
      </trkpt>
      <trkpt lat="42.9277630" lon="-3.2908650">
        <ele>601.2</ele>
        <time>2018-10-21T08:49:39Z</time>
      </trkpt>
      <trkpt lat="42.9277970" lon="-3.2908230">
        <ele>601.2</ele>
        <time>2018-10-21T08:49:40Z</time>
      </trkpt>
      <trkpt lat="42.9278300" lon="-3.2907800">
        <ele>602.3</ele>
        <time>2018-10-21T08:49:41Z</time>
      </trkpt>
      <trkpt lat="42.9278650" lon="-3.2907350">
        <ele>602.3</ele>
        <time>2018-10-21T08:49:42Z</time>
      </trkpt>
      <trkpt lat="42.9278980" lon="-3.2906930">
        <ele>602.3</ele>
        <time>2018-10-21T08:49:43Z</time>
      </trkpt>
      <trkpt lat="42.9279300" lon="-3.2906530">
        <ele>602.3</ele>
        <time>2018-10-21T08:49:44Z</time>
      </trkpt>
      <trkpt lat="42.9279630" lon="-3.2906150">
        <ele>603.2</ele>
        <time>2018-10-21T08:49:45Z</time>
      </trkpt>
      <trkpt lat="42.9279930" lon="-3.2905730">
        <ele>603.2</ele>
        <time>2018-10-21T08:49:46Z</time>
      </trkpt>
      <trkpt lat="42.9280230" lon="-3.2905330">
        <ele>603.2</ele>
        <time>2018-10-21T08:49:47Z</time>
      </trkpt>
      <trkpt lat="42.9280550" lon="-3.2904920">
        <ele>603.2</ele>
        <time>2018-10-21T08:49:48Z</time>
      </trkpt>
      <trkpt lat="42.9280870" lon="-3.2904520">
        <ele>604.3</ele>
        <time>2018-10-21T08:49:49Z</time>
      </trkpt>
      <trkpt lat="42.9281180" lon="-3.2904130">
        <ele>604.3</ele>
        <time>2018-10-21T08:49:50Z</time>
      </trkpt>
      <trkpt lat="42.9281500" lon="-3.2903770">
        <ele>604.3</ele>
        <time>2018-10-21T08:49:51Z</time>
      </trkpt>
      <trkpt lat="42.9281820" lon="-3.2903370">
        <ele>604.3</ele>
        <time>2018-10-21T08:49:52Z</time>
      </trkpt>
      <trkpt lat="42.9282120" lon="-3.2903000">
        <ele>605.2</ele>
        <time>2018-10-21T08:49:53Z</time>
      </trkpt>
      <trkpt lat="42.9282430" lon="-3.2902620">
        <ele>605.2</ele>
        <time>2018-10-21T08:49:54Z</time>
      </trkpt>
      <trkpt lat="42.9282730" lon="-3.2902220">
        <ele>605.2</ele>
        <time>2018-10-21T08:49:55Z</time>
      </trkpt>
      <trkpt lat="42.9283050" lon="-3.2901830">
        <ele>605.2</ele>
        <time>2018-10-21T08:49:56Z</time>
      </trkpt>
      <trkpt lat="42.9283350" lon="-3.2901420">
        <ele>606.3</ele>
        <time>2018-10-21T08:49:57Z</time>
      </trkpt>
      <trkpt lat="42.9283670" lon="-3.2901030">
        <ele>606.3</ele>
        <time>2018-10-21T08:49:58Z</time>
      </trkpt>
      <trkpt lat="42.9284000" lon="-3.2900650">
        <ele>606.3</ele>
        <time>2018-10-21T08:49:59Z</time>
      </trkpt>
      <trkpt lat="42.9284300" lon="-3.2900230">
        <ele>606.3</ele>
        <time>2018-10-21T08:50:00Z</time>
      </trkpt>
      <trkpt lat="42.9284620" lon="-3.2899830">
        <ele>606.3</ele>
        <time>2018-10-21T08:50:01Z</time>
      </trkpt>
      <trkpt lat="42.9284930" lon="-3.2899450">
        <ele>606.3</ele>
        <time>2018-10-21T08:50:02Z</time>
      </trkpt>
      <trkpt lat="42.9285270" lon="-3.2899070">
        <ele>607.2</ele>
        <time>2018-10-21T08:50:03Z</time>
      </trkpt>
      <trkpt lat="42.9285600" lon="-3.2898670">
        <ele>607.2</ele>
        <time>2018-10-21T08:50:04Z</time>
      </trkpt>
      <trkpt lat="42.9285950" lon="-3.2898230">
        <ele>608.2</ele>
        <time>2018-10-21T08:50:05Z</time>
      </trkpt>
      <trkpt lat="42.9286320" lon="-3.2897800">
        <ele>608.2</ele>
        <time>2018-10-21T08:50:06Z</time>
      </trkpt>
      <trkpt lat="42.9286670" lon="-3.2897350">
        <ele>608.2</ele>
        <time>2018-10-21T08:50:07Z</time>
      </trkpt>
      <trkpt lat="42.9287020" lon="-3.2896920">
        <ele>608.2</ele>
        <time>2018-10-21T08:50:08Z</time>
      </trkpt>
      <trkpt lat="42.9287370" lon="-3.2896500">
        <ele>608.2</ele>
        <time>2018-10-21T08:50:09Z</time>
      </trkpt>
      <trkpt lat="42.9287700" lon="-3.2896070">
        <ele>608.2</ele>
        <time>2018-10-21T08:50:10Z</time>
      </trkpt>
      <trkpt lat="42.9288050" lon="-3.2895650">
        <ele>608.2</ele>
        <time>2018-10-21T08:50:11Z</time>
      </trkpt>
      <trkpt lat="42.9288380" lon="-3.2895180">
        <ele>608.2</ele>
        <time>2018-10-21T08:50:12Z</time>
      </trkpt>
      <trkpt lat="42.9288750" lon="-3.2894700">
        <ele>608.2</ele>
        <time>2018-10-21T08:50:13Z</time>
      </trkpt>
      <trkpt lat="42.9289130" lon="-3.2894220">
        <ele>608.2</ele>
        <time>2018-10-21T08:50:14Z</time>
      </trkpt>
      <trkpt lat="42.9289530" lon="-3.2893720">
        <ele>608.2</ele>
        <time>2018-10-21T08:50:15Z</time>
      </trkpt>
      <trkpt lat="42.9289950" lon="-3.2893180">
        <ele>608.2</ele>
        <time>2018-10-21T08:50:16Z</time>
      </trkpt>
      <trkpt lat="42.9290370" lon="-3.2892650">
        <ele>608.2</ele>
        <time>2018-10-21T08:50:17Z</time>
      </trkpt>
      <trkpt lat="42.9290830" lon="-3.2892120">
        <ele>608.2</ele>
        <time>2018-10-21T08:50:18Z</time>
      </trkpt>
      <trkpt lat="42.9291300" lon="-3.2891580">
        <ele>607.2</ele>
        <time>2018-10-21T08:50:19Z</time>
      </trkpt>
      <trkpt lat="42.9291770" lon="-3.2891030">
        <ele>607.2</ele>
        <time>2018-10-21T08:50:20Z</time>
      </trkpt>
      <trkpt lat="42.9292230" lon="-3.2890470">
        <ele>607.2</ele>
        <time>2018-10-21T08:50:21Z</time>
      </trkpt>
      <trkpt lat="42.9292680" lon="-3.2889870">
        <ele>607.2</ele>
        <time>2018-10-21T08:50:22Z</time>
      </trkpt>
      <trkpt lat="42.9293180" lon="-3.2889280">
        <ele>606.3</ele>
        <time>2018-10-21T08:50:23Z</time>
      </trkpt>
      <trkpt lat="42.9293670" lon="-3.2888680">
        <ele>606.3</ele>
        <time>2018-10-21T08:50:24Z</time>
      </trkpt>
      <trkpt lat="42.9294170" lon="-3.2888070">
        <ele>606.3</ele>
        <time>2018-10-21T08:50:25Z</time>
      </trkpt>
      <trkpt lat="42.9294670" lon="-3.2887450">
        <ele>606.3</ele>
        <time>2018-10-21T08:50:26Z</time>
      </trkpt>
      <trkpt lat="42.9295200" lon="-3.2886850">
        <ele>605.2</ele>
        <time>2018-10-21T08:50:27Z</time>
      </trkpt>
      <trkpt lat="42.9295730" lon="-3.2886220">
        <ele>605.2</ele>
        <time>2018-10-21T08:50:28Z</time>
      </trkpt>
      <trkpt lat="42.9296270" lon="-3.2885620">
        <ele>605.2</ele>
        <time>2018-10-21T08:50:29Z</time>
      </trkpt>
      <trkpt lat="42.9296820" lon="-3.2884980">
        <ele>605.2</ele>
        <time>2018-10-21T08:50:30Z</time>
      </trkpt>
      <trkpt lat="42.9297370" lon="-3.2884400">
        <ele>605.2</ele>
        <time>2018-10-21T08:50:31Z</time>
      </trkpt>
      <trkpt lat="42.9297950" lon="-3.2883880">
        <ele>605.2</ele>
        <time>2018-10-21T08:50:32Z</time>
      </trkpt>
      <trkpt lat="42.9298550" lon="-3.2883420">
        <ele>605.2</ele>
        <time>2018-10-21T08:50:33Z</time>
      </trkpt>
      <trkpt lat="42.9299150" lon="-3.2882980">
        <ele>605.2</ele>
        <time>2018-10-21T08:50:34Z</time>
      </trkpt>
      <trkpt lat="42.9299730" lon="-3.2882520">
        <ele>605.2</ele>
        <time>2018-10-21T08:50:35Z</time>
      </trkpt>
      <trkpt lat="42.9300320" lon="-3.2882070">
        <ele>605.2</ele>
        <time>2018-10-21T08:50:36Z</time>
      </trkpt>
      <trkpt lat="42.9300900" lon="-3.2881620">
        <ele>605.2</ele>
        <time>2018-10-21T08:50:37Z</time>
      </trkpt>
      <trkpt lat="42.9301500" lon="-3.2881180">
        <ele>605.2</ele>
        <time>2018-10-21T08:50:38Z</time>
      </trkpt>
      <trkpt lat="42.9302080" lon="-3.2880750">
        <ele>605.2</ele>
        <time>2018-10-21T08:50:39Z</time>
      </trkpt>
      <trkpt lat="42.9302670" lon="-3.2880300">
        <ele>605.2</ele>
        <time>2018-10-21T08:50:40Z</time>
      </trkpt>
      <trkpt lat="42.9303230" lon="-3.2879820">
        <ele>605.2</ele>
        <time>2018-10-21T08:50:41Z</time>
      </trkpt>
      <trkpt lat="42.9303800" lon="-3.2879320">
        <ele>605.2</ele>
        <time>2018-10-21T08:50:42Z</time>
      </trkpt>
      <trkpt lat="42.9304380" lon="-3.2878850">
        <ele>604.3</ele>
        <time>2018-10-21T08:50:43Z</time>
      </trkpt>
      <trkpt lat="42.9304970" lon="-3.2878420">
        <ele>604.3</ele>
        <time>2018-10-21T08:50:44Z</time>
      </trkpt>
      <trkpt lat="42.9305550" lon="-3.2877970">
        <ele>604.3</ele>
        <time>2018-10-21T08:50:45Z</time>
      </trkpt>
      <trkpt lat="42.9306150" lon="-3.2877530">
        <ele>604.3</ele>
        <time>2018-10-21T08:50:46Z</time>
      </trkpt>
      <trkpt lat="42.9306770" lon="-3.2877130">
        <ele>604.3</ele>
        <time>2018-10-21T08:50:47Z</time>
      </trkpt>
      <trkpt lat="42.9307370" lon="-3.2876720">
        <ele>604.3</ele>
        <time>2018-10-21T08:50:48Z</time>
      </trkpt>
      <trkpt lat="42.9307980" lon="-3.2876280">
        <ele>605.2</ele>
        <time>2018-10-21T08:50:49Z</time>
      </trkpt>
      <trkpt lat="42.9308570" lon="-3.2875820">
        <ele>605.2</ele>
        <time>2018-10-21T08:50:50Z</time>
      </trkpt>
      <trkpt lat="42.9309170" lon="-3.2875350">
        <ele>605.2</ele>
        <time>2018-10-21T08:50:51Z</time>
      </trkpt>
      <trkpt lat="42.9309770" lon="-3.2874900">
        <ele>605.2</ele>
        <time>2018-10-21T08:50:52Z</time>
      </trkpt>
      <trkpt lat="42.9310370" lon="-3.2874430">
        <ele>605.2</ele>
        <time>2018-10-21T08:50:53Z</time>
      </trkpt>
      <trkpt lat="42.9310980" lon="-3.2873970">
        <ele>605.2</ele>
        <time>2018-10-21T08:50:54Z</time>
      </trkpt>
      <trkpt lat="42.9311600" lon="-3.2873500">
        <ele>605.2</ele>
        <time>2018-10-21T08:50:55Z</time>
      </trkpt>
      <trkpt lat="42.9312220" lon="-3.2873030">
        <ele>605.2</ele>
        <time>2018-10-21T08:50:56Z</time>
      </trkpt>
      <trkpt lat="42.9312820" lon="-3.2872570">
        <ele>605.2</ele>
        <time>2018-10-21T08:50:57Z</time>
      </trkpt>
      <trkpt lat="42.9313430" lon="-3.2872080">
        <ele>605.2</ele>
        <time>2018-10-21T08:50:58Z</time>
      </trkpt>
      <trkpt lat="42.9314030" lon="-3.2871620">
        <ele>605.2</ele>
        <time>2018-10-21T08:50:59Z</time>
      </trkpt>
      <trkpt lat="42.9314630" lon="-3.2871150">
        <ele>605.2</ele>
        <time>2018-10-21T08:51:00Z</time>
      </trkpt>
      <trkpt lat="42.9315230" lon="-3.2870680">
        <ele>604.3</ele>
        <time>2018-10-21T08:51:01Z</time>
      </trkpt>
      <trkpt lat="42.9315820" lon="-3.2870250">
        <ele>604.3</ele>
        <time>2018-10-21T08:51:02Z</time>
      </trkpt>
      <trkpt lat="42.9316400" lon="-3.2869830">
        <ele>604.3</ele>
        <time>2018-10-21T08:51:03Z</time>
      </trkpt>
      <trkpt lat="42.9316980" lon="-3.2869430">
        <ele>604.3</ele>
        <time>2018-10-21T08:51:04Z</time>
      </trkpt>
      <trkpt lat="42.9317550" lon="-3.2869120">
        <ele>604.3</ele>
        <time>2018-10-21T08:51:05Z</time>
      </trkpt>
      <trkpt lat="42.9318100" lon="-3.2868820">
        <ele>604.3</ele>
        <time>2018-10-21T08:51:06Z</time>
      </trkpt>
      <trkpt lat="42.9318650" lon="-3.2868600">
        <ele>605.2</ele>
        <time>2018-10-21T08:51:07Z</time>
      </trkpt>
      <trkpt lat="42.9319200" lon="-3.2868420">
        <ele>605.2</ele>
        <time>2018-10-21T08:51:08Z</time>
      </trkpt>
      <trkpt lat="42.9319730" lon="-3.2868230">
        <ele>605.2</ele>
        <time>2018-10-21T08:51:09Z</time>
      </trkpt>
      <trkpt lat="42.9320270" lon="-3.2868070">
        <ele>605.2</ele>
        <time>2018-10-21T08:51:10Z</time>
      </trkpt>
      <trkpt lat="42.9320800" lon="-3.2867920">
        <ele>606.3</ele>
        <time>2018-10-21T08:51:11Z</time>
      </trkpt>
      <trkpt lat="42.9321350" lon="-3.2867800">
        <ele>606.3</ele>
        <time>2018-10-21T08:51:12Z</time>
      </trkpt>
      <trkpt lat="42.9321900" lon="-3.2867680">
        <ele>606.3</ele>
        <time>2018-10-21T08:51:13Z</time>
      </trkpt>
      <trkpt lat="42.9322480" lon="-3.2867550">
        <ele>606.3</ele>
        <time>2018-10-21T08:51:14Z</time>
      </trkpt>
      <trkpt lat="42.9323050" lon="-3.2867470">
        <ele>606.3</ele>
        <time>2018-10-21T08:51:15Z</time>
      </trkpt>
      <trkpt lat="42.9323620" lon="-3.2867370">
        <ele>606.3</ele>
        <time>2018-10-21T08:51:16Z</time>
      </trkpt>
      <trkpt lat="42.9324170" lon="-3.2867270">
        <ele>606.3</ele>
        <time>2018-10-21T08:51:17Z</time>
      </trkpt>
      <trkpt lat="42.9324730" lon="-3.2867130">
        <ele>606.3</ele>
        <time>2018-10-21T08:51:18Z</time>
      </trkpt>
      <trkpt lat="42.9325300" lon="-3.2866980">
        <ele>606.3</ele>
        <time>2018-10-21T08:51:19Z</time>
      </trkpt>
      <trkpt lat="42.9325880" lon="-3.2866830">
        <ele>606.3</ele>
        <time>2018-10-21T08:51:20Z</time>
      </trkpt>
      <trkpt lat="42.9326470" lon="-3.2866630">
        <ele>606.3</ele>
        <time>2018-10-21T08:51:21Z</time>
      </trkpt>
      <trkpt lat="42.9327050" lon="-3.2866420">
        <ele>606.3</ele>
        <time>2018-10-21T08:51:22Z</time>
      </trkpt>
      <trkpt lat="42.9327650" lon="-3.2866150">
        <ele>606.3</ele>
        <time>2018-10-21T08:51:23Z</time>
      </trkpt>
      <trkpt lat="42.9328230" lon="-3.2865870">
        <ele>606.3</ele>
        <time>2018-10-21T08:51:24Z</time>
      </trkpt>
      <trkpt lat="42.9328800" lon="-3.2865530">
        <ele>606.3</ele>
        <time>2018-10-21T08:51:25Z</time>
      </trkpt>
      <trkpt lat="42.9329370" lon="-3.2865200">
        <ele>606.3</ele>
        <time>2018-10-21T08:51:26Z</time>
      </trkpt>
      <trkpt lat="42.9329930" lon="-3.2864850">
        <ele>606.3</ele>
        <time>2018-10-21T08:51:27Z</time>
      </trkpt>
      <trkpt lat="42.9330480" lon="-3.2864500">
        <ele>606.3</ele>
        <time>2018-10-21T08:51:28Z</time>
      </trkpt>
      <trkpt lat="42.9331030" lon="-3.2864150">
        <ele>607.2</ele>
        <time>2018-10-21T08:51:29Z</time>
      </trkpt>
      <trkpt lat="42.9331580" lon="-3.2863770">
        <ele>607.2</ele>
        <time>2018-10-21T08:51:30Z</time>
      </trkpt>
      <trkpt lat="42.9332130" lon="-3.2863400">
        <ele>607.2</ele>
        <time>2018-10-21T08:51:31Z</time>
      </trkpt>
      <trkpt lat="42.9332680" lon="-3.2863000">
        <ele>607.2</ele>
        <time>2018-10-21T08:51:32Z</time>
      </trkpt>
      <trkpt lat="42.9333250" lon="-3.2862620">
        <ele>607.2</ele>
        <time>2018-10-21T08:51:33Z</time>
      </trkpt>
      <trkpt lat="42.9333820" lon="-3.2862230">
        <ele>607.2</ele>
        <time>2018-10-21T08:51:34Z</time>
      </trkpt>
      <trkpt lat="42.9334420" lon="-3.2861870">
        <ele>607.2</ele>
        <time>2018-10-21T08:51:35Z</time>
      </trkpt>
      <trkpt lat="42.9335020" lon="-3.2861480">
        <ele>607.2</ele>
        <time>2018-10-21T08:51:36Z</time>
      </trkpt>
      <trkpt lat="42.9335580" lon="-3.2861080">
        <ele>607.2</ele>
        <time>2018-10-21T08:51:37Z</time>
      </trkpt>
      <trkpt lat="42.9336180" lon="-3.2860700">
        <ele>607.2</ele>
        <time>2018-10-21T08:51:38Z</time>
      </trkpt>
      <trkpt lat="42.9336780" lon="-3.2860320">
        <ele>607.2</ele>
        <time>2018-10-21T08:51:39Z</time>
      </trkpt>
      <trkpt lat="42.9337380" lon="-3.2859930">
        <ele>607.2</ele>
        <time>2018-10-21T08:51:40Z</time>
      </trkpt>
      <trkpt lat="42.9337980" lon="-3.2859530">
        <ele>607.2</ele>
        <time>2018-10-21T08:51:41Z</time>
      </trkpt>
      <trkpt lat="42.9338580" lon="-3.2859150">
        <ele>607.2</ele>
        <time>2018-10-21T08:51:42Z</time>
      </trkpt>
      <trkpt lat="42.9339170" lon="-3.2858770">
        <ele>607.2</ele>
        <time>2018-10-21T08:51:43Z</time>
      </trkpt>
      <trkpt lat="42.9339770" lon="-3.2858380">
        <ele>607.2</ele>
        <time>2018-10-21T08:51:44Z</time>
      </trkpt>
      <trkpt lat="42.9340350" lon="-3.2857980">
        <ele>607.2</ele>
        <time>2018-10-21T08:51:45Z</time>
      </trkpt>
      <trkpt lat="42.9340930" lon="-3.2857600">
        <ele>607.2</ele>
        <time>2018-10-21T08:51:46Z</time>
      </trkpt>
      <trkpt lat="42.9341500" lon="-3.2857220">
        <ele>607.2</ele>
        <time>2018-10-21T08:51:47Z</time>
      </trkpt>
      <trkpt lat="42.9342070" lon="-3.2856850">
        <ele>607.2</ele>
        <time>2018-10-21T08:51:48Z</time>
      </trkpt>
      <trkpt lat="42.9342600" lon="-3.2856520">
        <ele>608.2</ele>
        <time>2018-10-21T08:51:49Z</time>
      </trkpt>
      <trkpt lat="42.9343150" lon="-3.2856220">
        <ele>608.2</ele>
        <time>2018-10-21T08:51:50Z</time>
      </trkpt>
      <trkpt lat="42.9343680" lon="-3.2855900">
        <ele>608.2</ele>
        <time>2018-10-21T08:51:51Z</time>
      </trkpt>
      <trkpt lat="42.9344220" lon="-3.2855580">
        <ele>608.2</ele>
        <time>2018-10-21T08:51:52Z</time>
      </trkpt>
      <trkpt lat="42.9344750" lon="-3.2855250">
        <ele>609.3</ele>
        <time>2018-10-21T08:51:53Z</time>
      </trkpt>
      <trkpt lat="42.9345250" lon="-3.2854900">
        <ele>609.3</ele>
        <time>2018-10-21T08:51:54Z</time>
      </trkpt>
      <trkpt lat="42.9345780" lon="-3.2854570">
        <ele>609.3</ele>
        <time>2018-10-21T08:51:55Z</time>
      </trkpt>
      <trkpt lat="42.9346320" lon="-3.2854230">
        <ele>609.3</ele>
        <time>2018-10-21T08:51:56Z</time>
      </trkpt>
      <trkpt lat="42.9346850" lon="-3.2853900">
        <ele>610.2</ele>
        <time>2018-10-21T08:51:57Z</time>
      </trkpt>
      <trkpt lat="42.9347370" lon="-3.2853550">
        <ele>610.2</ele>
        <time>2018-10-21T08:51:58Z</time>
      </trkpt>
      <trkpt lat="42.9347900" lon="-3.2853200">
        <ele>610.2</ele>
        <time>2018-10-21T08:51:59Z</time>
      </trkpt>
      <trkpt lat="42.9348420" lon="-3.2852850">
        <ele>610.2</ele>
        <time>2018-10-21T08:52:00Z</time>
      </trkpt>
      <trkpt lat="42.9348920" lon="-3.2852550">
        <ele>611.3</ele>
        <time>2018-10-21T08:52:01Z</time>
      </trkpt>
      <trkpt lat="42.9349420" lon="-3.2852230">
        <ele>611.3</ele>
        <time>2018-10-21T08:52:02Z</time>
      </trkpt>
      <trkpt lat="42.9349880" lon="-3.2851950">
        <ele>611.3</ele>
        <time>2018-10-21T08:52:03Z</time>
      </trkpt>
      <trkpt lat="42.9350320" lon="-3.2851620">
        <ele>611.3</ele>
        <time>2018-10-21T08:52:04Z</time>
      </trkpt>
      <trkpt lat="42.9350750" lon="-3.2851250">
        <ele>612.2</ele>
        <time>2018-10-21T08:52:05Z</time>
      </trkpt>
      <trkpt lat="42.9351200" lon="-3.2850870">
        <ele>612.2</ele>
        <time>2018-10-21T08:52:06Z</time>
      </trkpt>
      <trkpt lat="42.9351650" lon="-3.2850430">
        <ele>612.2</ele>
        <time>2018-10-21T08:52:07Z</time>
      </trkpt>
      <trkpt lat="42.9352070" lon="-3.2849970">
        <ele>612.2</ele>
        <time>2018-10-21T08:52:08Z</time>
      </trkpt>
      <trkpt lat="42.9352500" lon="-3.2849470">
        <ele>612.2</ele>
        <time>2018-10-21T08:52:09Z</time>
      </trkpt>
      <trkpt lat="42.9352930" lon="-3.2848930">
        <ele>612.2</ele>
        <time>2018-10-21T08:52:10Z</time>
      </trkpt>
      <trkpt lat="42.9353380" lon="-3.2848380">
        <ele>612.2</ele>
        <time>2018-10-21T08:52:11Z</time>
      </trkpt>
      <trkpt lat="42.9353830" lon="-3.2847850">
        <ele>612.2</ele>
        <time>2018-10-21T08:52:12Z</time>
      </trkpt>
      <trkpt lat="42.9354270" lon="-3.2847280">
        <ele>612.2</ele>
        <time>2018-10-21T08:52:13Z</time>
      </trkpt>
      <trkpt lat="42.9354650" lon="-3.2846670">
        <ele>612.2</ele>
        <time>2018-10-21T08:52:14Z</time>
      </trkpt>
      <trkpt lat="42.9355020" lon="-3.2846000">
        <ele>612.2</ele>
        <time>2018-10-21T08:52:15Z</time>
      </trkpt>
      <trkpt lat="42.9355400" lon="-3.2845400">
        <ele>612.2</ele>
        <time>2018-10-21T08:52:16Z</time>
      </trkpt>
      <trkpt lat="42.9355800" lon="-3.2844800">
        <ele>613.3</ele>
        <time>2018-10-21T08:52:17Z</time>
      </trkpt>
      <trkpt lat="42.9356180" lon="-3.2844220">
        <ele>613.3</ele>
        <time>2018-10-21T08:52:18Z</time>
      </trkpt>
      <trkpt lat="42.9356570" lon="-3.2843630">
        <ele>613.3</ele>
        <time>2018-10-21T08:52:19Z</time>
      </trkpt>
      <trkpt lat="42.9356950" lon="-3.2843070">
        <ele>613.3</ele>
        <time>2018-10-21T08:52:20Z</time>
      </trkpt>
      <trkpt lat="42.9357320" lon="-3.2842500">
        <ele>614.2</ele>
        <time>2018-10-21T08:52:21Z</time>
      </trkpt>
      <trkpt lat="42.9357680" lon="-3.2841970">
        <ele>614.2</ele>
        <time>2018-10-21T08:52:22Z</time>
      </trkpt>
      <trkpt lat="42.9358050" lon="-3.2841450">
        <ele>614.2</ele>
        <time>2018-10-21T08:52:23Z</time>
      </trkpt>
      <trkpt lat="42.9358400" lon="-3.2840920">
        <ele>614.2</ele>
        <time>2018-10-21T08:52:24Z</time>
      </trkpt>
      <trkpt lat="42.9358750" lon="-3.2840400">
        <ele>615.2</ele>
        <time>2018-10-21T08:52:25Z</time>
      </trkpt>
      <trkpt lat="42.9359120" lon="-3.2839880">
        <ele>615.2</ele>
        <time>2018-10-21T08:52:26Z</time>
      </trkpt>
      <trkpt lat="42.9359480" lon="-3.2839380">
        <ele>615.2</ele>
        <time>2018-10-21T08:52:27Z</time>
      </trkpt>
      <trkpt lat="42.9359880" lon="-3.2838900">
        <ele>615.2</ele>
        <time>2018-10-21T08:52:28Z</time>
      </trkpt>
      <trkpt lat="42.9360280" lon="-3.2838420">
        <ele>616.3</ele>
        <time>2018-10-21T08:52:29Z</time>
      </trkpt>
      <trkpt lat="42.9360700" lon="-3.2837980">
        <ele>616.3</ele>
        <time>2018-10-21T08:52:30Z</time>
      </trkpt>
      <trkpt lat="42.9361150" lon="-3.2837580">
        <ele>616.3</ele>
        <time>2018-10-21T08:52:31Z</time>
      </trkpt>
      <trkpt lat="42.9361620" lon="-3.2837220">
        <ele>616.3</ele>
        <time>2018-10-21T08:52:32Z</time>
      </trkpt>
      <trkpt lat="42.9362100" lon="-3.2836870">
        <ele>616.3</ele>
        <time>2018-10-21T08:52:33Z</time>
      </trkpt>
      <trkpt lat="42.9362570" lon="-3.2836500">
        <ele>616.3</ele>
        <time>2018-10-21T08:52:34Z</time>
      </trkpt>
      <trkpt lat="42.9363020" lon="-3.2836120">
        <ele>616.3</ele>
        <time>2018-10-21T08:52:35Z</time>
      </trkpt>
      <trkpt lat="42.9363480" lon="-3.2835770">
        <ele>616.3</ele>
        <time>2018-10-21T08:52:36Z</time>
      </trkpt>
      <trkpt lat="42.9363950" lon="-3.2835430">
        <ele>616.3</ele>
        <time>2018-10-21T08:52:37Z</time>
      </trkpt>
      <trkpt lat="42.9364450" lon="-3.2835130">
        <ele>616.3</ele>
        <time>2018-10-21T08:52:38Z</time>
      </trkpt>
      <trkpt lat="42.9364930" lon="-3.2834800">
        <ele>616.3</ele>
        <time>2018-10-21T08:52:39Z</time>
      </trkpt>
      <trkpt lat="42.9365420" lon="-3.2834480">
        <ele>616.3</ele>
        <time>2018-10-21T08:52:40Z</time>
      </trkpt>
      <trkpt lat="42.9365900" lon="-3.2834130">
        <ele>616.3</ele>
        <time>2018-10-21T08:52:41Z</time>
      </trkpt>
      <trkpt lat="42.9366400" lon="-3.2833780">
        <ele>616.3</ele>
        <time>2018-10-21T08:52:42Z</time>
      </trkpt>
      <trkpt lat="42.9366880" lon="-3.2833420">
        <ele>617.2</ele>
        <time>2018-10-21T08:52:43Z</time>
      </trkpt>
      <trkpt lat="42.9367380" lon="-3.2833070">
        <ele>617.2</ele>
        <time>2018-10-21T08:52:44Z</time>
      </trkpt>
      <trkpt lat="42.9367870" lon="-3.2832720">
        <ele>617.2</ele>
        <time>2018-10-21T08:52:45Z</time>
      </trkpt>
      <trkpt lat="42.9368350" lon="-3.2832400">
        <ele>617.2</ele>
        <time>2018-10-21T08:52:46Z</time>
      </trkpt>
      <trkpt lat="42.9368830" lon="-3.2832050">
        <ele>617.2</ele>
        <time>2018-10-21T08:52:47Z</time>
      </trkpt>
      <trkpt lat="42.9369320" lon="-3.2831730">
        <ele>617.2</ele>
        <time>2018-10-21T08:52:48Z</time>
      </trkpt>
      <trkpt lat="42.9369780" lon="-3.2831430">
        <ele>617.2</ele>
        <time>2018-10-21T08:52:49Z</time>
      </trkpt>
      <trkpt lat="42.9370200" lon="-3.2831080">
        <ele>617.2</ele>
        <time>2018-10-21T08:52:50Z</time>
      </trkpt>
      <trkpt lat="42.9370570" lon="-3.2830750">
        <ele>617.2</ele>
        <time>2018-10-21T08:52:51Z</time>
      </trkpt>
      <trkpt lat="42.9370880" lon="-3.2830470">
        <ele>617.2</ele>
        <time>2018-10-21T08:52:52Z</time>
      </trkpt>
      <trkpt lat="42.9371170" lon="-3.2830220">
        <ele>617.2</ele>
        <time>2018-10-21T08:52:53Z</time>
      </trkpt>
      <trkpt lat="42.9371420" lon="-3.2830000">
        <ele>617.2</ele>
        <time>2018-10-21T08:52:54Z</time>
      </trkpt>
      <trkpt lat="42.9371650" lon="-3.2829820">
        <ele>617.2</ele>
        <time>2018-10-21T08:52:55Z</time>
      </trkpt>
      <trkpt lat="42.9371850" lon="-3.2829630">
        <ele>617.2</ele>
        <time>2018-10-21T08:52:56Z</time>
      </trkpt>
      <trkpt lat="42.9372120" lon="-3.2829520">
        <ele>617.2</ele>
        <time>2018-10-21T08:52:57Z</time>
      </trkpt>
      <trkpt lat="42.9372370" lon="-3.2829620">
        <ele>617.2</ele>
        <time>2018-10-21T08:52:58Z</time>
      </trkpt>
      <trkpt lat="42.9372570" lon="-3.2829750">
        <ele>617.2</ele>
        <time>2018-10-21T08:52:59Z</time>
      </trkpt>
      <trkpt lat="42.9372730" lon="-3.2829770">
        <ele>617.2</ele>
        <time>2018-10-21T08:53:00Z</time>
      </trkpt>
      <trkpt lat="42.9372870" lon="-3.2829680">
        <ele>617.2</ele>
        <time>2018-10-21T08:53:01Z</time>
      </trkpt>
      <trkpt lat="42.9372900" lon="-3.2829650">
        <ele>617.2</ele>
        <time>2018-10-21T08:53:02Z</time>
      </trkpt>
      <trkpt lat="42.9372900" lon="-3.2829630">
        <ele>617.2</ele>
        <time>2018-10-21T08:53:03Z</time>
      </trkpt>
      <trkpt lat="42.9372930" lon="-3.2829630">
        <ele>617.2</ele>
        <time>2018-10-21T08:53:04Z</time>
      </trkpt>
      <trkpt lat="42.9372930" lon="-3.2829630">
        <ele>617.2</ele>
        <time>2018-10-21T08:53:05Z</time>
      </trkpt>
      <trkpt lat="42.9372870" lon="-3.2829780">
        <ele>617.2</ele>
        <time>2018-10-21T08:53:12Z</time>
      </trkpt>
      <trkpt lat="42.9372820" lon="-3.2829800">
        <ele>617.2</ele>
        <time>2018-10-21T08:53:13Z</time>
      </trkpt>
      <trkpt lat="42.9372800" lon="-3.2829830">
        <ele>617.2</ele>
        <time>2018-10-21T08:53:14Z</time>
      </trkpt>
      <trkpt lat="42.9372770" lon="-3.2829870">
        <ele>617.2</ele>
        <time>2018-10-21T08:53:15Z</time>
      </trkpt>
      <trkpt lat="42.9372730" lon="-3.2829900">
        <ele>617.2</ele>
        <time>2018-10-21T08:53:16Z</time>
      </trkpt>
      <trkpt lat="42.9372650" lon="-3.2829970">
        <ele>617.2</ele>
        <time>2018-10-21T08:53:17Z</time>
      </trkpt>
      <trkpt lat="42.9372650" lon="-3.2830020">
        <ele>617.2</ele>
        <time>2018-10-21T08:53:18Z</time>
      </trkpt>
      <trkpt lat="42.9372630" lon="-3.2830030">
        <ele>617.2</ele>
        <time>2018-10-21T08:53:19Z</time>
      </trkpt>
      <trkpt lat="42.9372630" lon="-3.2830030">
        <ele>617.2</ele>
        <time>2018-10-21T08:53:20Z</time>
      </trkpt>
      <trkpt lat="42.9372620" lon="-3.2830050">
        <ele>617.2</ele>
        <time>2018-10-21T08:53:21Z</time>
      </trkpt>
      <trkpt lat="42.9372650" lon="-3.2830000">
        <ele>617.2</ele>
        <time>2018-10-21T08:54:11Z</time>
      </trkpt>
      <trkpt lat="42.9372700" lon="-3.2829970">
        <ele>617.2</ele>
        <time>2018-10-21T08:54:12Z</time>
      </trkpt>
      <trkpt lat="42.9372750" lon="-3.2829970">
        <ele>617.2</ele>
        <time>2018-10-21T08:54:13Z</time>
      </trkpt>
      <trkpt lat="42.9372770" lon="-3.2829950">
        <ele>617.2</ele>
        <time>2018-10-21T08:54:14Z</time>
      </trkpt>
      <trkpt lat="42.9372730" lon="-3.2829970">
        <ele>617.2</ele>
        <time>2018-10-21T08:54:15Z</time>
      </trkpt>
      <trkpt lat="42.9372730" lon="-3.2829970">
        <ele>617.2</ele>
        <time>2018-10-21T08:54:16Z</time>
      </trkpt>
      <trkpt lat="42.9372780" lon="-3.2830050">
        <ele>617.2</ele>
        <time>2018-10-21T08:54:35Z</time>
      </trkpt>
      <trkpt lat="42.9372830" lon="-3.2830070">
        <ele>617.2</ele>
        <time>2018-10-21T08:54:36Z</time>
      </trkpt>
      <trkpt lat="42.9372850" lon="-3.2830070">
        <ele>617.2</ele>
        <time>2018-10-21T08:54:37Z</time>
      </trkpt>
      <trkpt lat="42.9372850" lon="-3.2830070">
        <ele>617.2</ele>
        <time>2018-10-21T08:54:38Z</time>
      </trkpt>
      <trkpt lat="42.9372850" lon="-3.2830070">
        <ele>617.2</ele>
        <time>2018-10-21T08:54:39Z</time>
      </trkpt>
      <trkpt lat="42.9372970" lon="-3.2829750">
        <ele>617.2</ele>
        <time>2018-10-21T08:55:52Z</time>
      </trkpt>
      <trkpt lat="42.9372950" lon="-3.2829750">
        <ele>617.2</ele>
        <time>2018-10-21T08:55:53Z</time>
      </trkpt>
      <trkpt lat="42.9372950" lon="-3.2829750">
        <ele>617.2</ele>
        <time>2018-10-21T08:55:54Z</time>
      </trkpt>
      <trkpt lat="42.9372950" lon="-3.2829750">
        <ele>617.2</ele>
        <time>2018-10-21T08:55:55Z</time>
      </trkpt>
      <trkpt lat="42.9372950" lon="-3.2829730">
        <ele>618.3</ele>
        <time>2018-10-21T08:55:56Z</time>
      </trkpt>
      <trkpt lat="42.9372770" lon="-3.2829650">
        <ele>618.3</ele>
        <time>2018-10-21T08:56:07Z</time>
      </trkpt>
      <trkpt lat="42.9372700" lon="-3.2829430">
        <ele>618.3</ele>
        <time>2018-10-21T08:56:08Z</time>
      </trkpt>
      <trkpt lat="42.9372750" lon="-3.2829200">
        <ele>618.3</ele>
        <time>2018-10-21T08:56:09Z</time>
      </trkpt>
      <trkpt lat="42.9372870" lon="-3.2828930">
        <ele>618.3</ele>
        <time>2018-10-21T08:56:10Z</time>
      </trkpt>
      <trkpt lat="42.9373070" lon="-3.2828700">
        <ele>618.3</ele>
        <time>2018-10-21T08:56:11Z</time>
      </trkpt>
      <trkpt lat="42.9373320" lon="-3.2828430">
        <ele>618.3</ele>
        <time>2018-10-21T08:56:12Z</time>
      </trkpt>
      <trkpt lat="42.9373600" lon="-3.2828120">
        <ele>618.3</ele>
        <time>2018-10-21T08:56:13Z</time>
      </trkpt>
      <trkpt lat="42.9373880" lon="-3.2827770">
        <ele>618.3</ele>
        <time>2018-10-21T08:56:14Z</time>
      </trkpt>
      <trkpt lat="42.9374220" lon="-3.2827380">
        <ele>618.3</ele>
        <time>2018-10-21T08:56:15Z</time>
      </trkpt>
      <trkpt lat="42.9374570" lon="-3.2826970">
        <ele>618.3</ele>
        <time>2018-10-21T08:56:16Z</time>
      </trkpt>
      <trkpt lat="42.9374900" lon="-3.2826520">
        <ele>618.3</ele>
        <time>2018-10-21T08:56:17Z</time>
      </trkpt>
      <trkpt lat="42.9375270" lon="-3.2826120">
        <ele>618.3</ele>
        <time>2018-10-21T08:56:18Z</time>
      </trkpt>
      <trkpt lat="42.9375650" lon="-3.2825730">
        <ele>618.3</ele>
        <time>2018-10-21T08:56:19Z</time>
      </trkpt>
      <trkpt lat="42.9376020" lon="-3.2825350">
        <ele>618.3</ele>
        <time>2018-10-21T08:56:20Z</time>
      </trkpt>
      <trkpt lat="42.9376400" lon="-3.2824930">
        <ele>619.2</ele>
        <time>2018-10-21T08:56:21Z</time>
      </trkpt>
      <trkpt lat="42.9376800" lon="-3.2824480">
        <ele>619.2</ele>
        <time>2018-10-21T08:56:22Z</time>
      </trkpt>
      <trkpt lat="42.9377200" lon="-3.2824020">
        <ele>619.2</ele>
        <time>2018-10-21T08:56:23Z</time>
      </trkpt>
      <trkpt lat="42.9377620" lon="-3.2823520">
        <ele>619.2</ele>
        <time>2018-10-21T08:56:24Z</time>
      </trkpt>
      <trkpt lat="42.9378030" lon="-3.2823020">
        <ele>619.2</ele>
        <time>2018-10-21T08:56:25Z</time>
      </trkpt>
      <trkpt lat="42.9378480" lon="-3.2822530">
        <ele>619.2</ele>
        <time>2018-10-21T08:56:26Z</time>
      </trkpt>
      <trkpt lat="42.9378930" lon="-3.2822030">
        <ele>619.2</ele>
        <time>2018-10-21T08:56:27Z</time>
      </trkpt>
      <trkpt lat="42.9379380" lon="-3.2821520">
        <ele>619.2</ele>
        <time>2018-10-21T08:56:28Z</time>
      </trkpt>
      <trkpt lat="42.9379830" lon="-3.2821000">
        <ele>619.2</ele>
        <time>2018-10-21T08:56:29Z</time>
      </trkpt>
      <trkpt lat="42.9380300" lon="-3.2820470">
        <ele>619.2</ele>
        <time>2018-10-21T08:56:30Z</time>
      </trkpt>
      <trkpt lat="42.9380770" lon="-3.2819950">
        <ele>619.2</ele>
        <time>2018-10-21T08:56:31Z</time>
      </trkpt>
      <trkpt lat="42.9381230" lon="-3.2819420">
        <ele>619.2</ele>
        <time>2018-10-21T08:56:32Z</time>
      </trkpt>
      <trkpt lat="42.9381720" lon="-3.2818870">
        <ele>619.2</ele>
        <time>2018-10-21T08:56:33Z</time>
      </trkpt>
      <trkpt lat="42.9382200" lon="-3.2818330">
        <ele>619.2</ele>
        <time>2018-10-21T08:56:34Z</time>
      </trkpt>
      <trkpt lat="42.9382700" lon="-3.2817780">
        <ele>619.2</ele>
        <time>2018-10-21T08:56:35Z</time>
      </trkpt>
      <trkpt lat="42.9383200" lon="-3.2817230">
        <ele>619.2</ele>
        <time>2018-10-21T08:56:36Z</time>
      </trkpt>
      <trkpt lat="42.9383700" lon="-3.2816670">
        <ele>619.2</ele>
        <time>2018-10-21T08:56:37Z</time>
      </trkpt>
      <trkpt lat="42.9384200" lon="-3.2816120">
        <ele>619.2</ele>
        <time>2018-10-21T08:56:38Z</time>
      </trkpt>
      <trkpt lat="42.9384680" lon="-3.2815570">
        <ele>619.2</ele>
        <time>2018-10-21T08:56:39Z</time>
      </trkpt>
      <trkpt lat="42.9385180" lon="-3.2815020">
        <ele>619.2</ele>
        <time>2018-10-21T08:56:40Z</time>
      </trkpt>
      <trkpt lat="42.9385680" lon="-3.2814450">
        <ele>619.2</ele>
        <time>2018-10-21T08:56:41Z</time>
      </trkpt>
      <trkpt lat="42.9386180" lon="-3.2813880">
        <ele>619.2</ele>
        <time>2018-10-21T08:56:42Z</time>
      </trkpt>
      <trkpt lat="42.9386680" lon="-3.2813320">
        <ele>619.2</ele>
        <time>2018-10-21T08:56:43Z</time>
      </trkpt>
      <trkpt lat="42.9387180" lon="-3.2812750">
        <ele>619.2</ele>
        <time>2018-10-21T08:56:44Z</time>
      </trkpt>
      <trkpt lat="42.9387700" lon="-3.2812170">
        <ele>618.3</ele>
        <time>2018-10-21T08:56:45Z</time>
      </trkpt>
      <trkpt lat="42.9388220" lon="-3.2811580">
        <ele>618.3</ele>
        <time>2018-10-21T08:56:46Z</time>
      </trkpt>
      <trkpt lat="42.9388750" lon="-3.2811000">
        <ele>618.3</ele>
        <time>2018-10-21T08:56:47Z</time>
      </trkpt>
      <trkpt lat="42.9389280" lon="-3.2810430">
        <ele>618.3</ele>
        <time>2018-10-21T08:56:48Z</time>
      </trkpt>
      <trkpt lat="42.9389800" lon="-3.2809850">
        <ele>618.3</ele>
        <time>2018-10-21T08:56:49Z</time>
      </trkpt>
      <trkpt lat="42.9390320" lon="-3.2809270">
        <ele>618.3</ele>
        <time>2018-10-21T08:56:50Z</time>
      </trkpt>
      <trkpt lat="42.9390850" lon="-3.2808700">
        <ele>619.2</ele>
        <time>2018-10-21T08:56:51Z</time>
      </trkpt>
      <trkpt lat="42.9391370" lon="-3.2808120">
        <ele>619.2</ele>
        <time>2018-10-21T08:56:52Z</time>
      </trkpt>
      <trkpt lat="42.9391900" lon="-3.2807520">
        <ele>618.3</ele>
        <time>2018-10-21T08:56:53Z</time>
      </trkpt>
      <trkpt lat="42.9392430" lon="-3.2806920">
        <ele>618.3</ele>
        <time>2018-10-21T08:56:54Z</time>
      </trkpt>
      <trkpt lat="42.9392970" lon="-3.2806330">
        <ele>618.3</ele>
        <time>2018-10-21T08:56:55Z</time>
      </trkpt>
      <trkpt lat="42.9393520" lon="-3.2805750">
        <ele>618.3</ele>
        <time>2018-10-21T08:56:56Z</time>
      </trkpt>
      <trkpt lat="42.9394050" lon="-3.2805150">
        <ele>618.3</ele>
        <time>2018-10-21T08:56:57Z</time>
      </trkpt>
      <trkpt lat="42.9394580" lon="-3.2804530">
        <ele>618.3</ele>
        <time>2018-10-21T08:56:58Z</time>
      </trkpt>
      <trkpt lat="42.9395130" lon="-3.2803930">
        <ele>618.3</ele>
        <time>2018-10-21T08:56:59Z</time>
      </trkpt>
      <trkpt lat="42.9395700" lon="-3.2803300">
        <ele>618.3</ele>
        <time>2018-10-21T08:57:00Z</time>
      </trkpt>
      <trkpt lat="42.9396270" lon="-3.2802670">
        <ele>619.2</ele>
        <time>2018-10-21T08:57:01Z</time>
      </trkpt>
      <trkpt lat="42.9396830" lon="-3.2802030">
        <ele>619.2</ele>
        <time>2018-10-21T08:57:02Z</time>
      </trkpt>
      <trkpt lat="42.9397420" lon="-3.2801400">
        <ele>619.2</ele>
        <time>2018-10-21T08:57:03Z</time>
      </trkpt>
      <trkpt lat="42.9398000" lon="-3.2800770">
        <ele>619.2</ele>
        <time>2018-10-21T08:57:04Z</time>
      </trkpt>
      <trkpt lat="42.9398570" lon="-3.2800130">
        <ele>619.2</ele>
        <time>2018-10-21T08:57:05Z</time>
      </trkpt>
      <trkpt lat="42.9399150" lon="-3.2799480">
        <ele>619.2</ele>
        <time>2018-10-21T08:57:06Z</time>
      </trkpt>
      <trkpt lat="42.9399720" lon="-3.2798820">
        <ele>619.2</ele>
        <time>2018-10-21T08:57:07Z</time>
      </trkpt>
      <trkpt lat="42.9400300" lon="-3.2798170">
        <ele>619.2</ele>
        <time>2018-10-21T08:57:08Z</time>
      </trkpt>
      <trkpt lat="42.9400880" lon="-3.2797520">
        <ele>619.2</ele>
        <time>2018-10-21T08:57:09Z</time>
      </trkpt>
      <trkpt lat="42.9401480" lon="-3.2796870">
        <ele>619.2</ele>
        <time>2018-10-21T08:57:10Z</time>
      </trkpt>
      <trkpt lat="42.9402050" lon="-3.2796200">
        <ele>619.2</ele>
        <time>2018-10-21T08:57:11Z</time>
      </trkpt>
      <trkpt lat="42.9402650" lon="-3.2795550">
        <ele>619.2</ele>
        <time>2018-10-21T08:57:12Z</time>
      </trkpt>
      <trkpt lat="42.9403220" lon="-3.2794900">
        <ele>619.2</ele>
        <time>2018-10-21T08:57:13Z</time>
      </trkpt>
      <trkpt lat="42.9403800" lon="-3.2794270">
        <ele>619.2</ele>
        <time>2018-10-21T08:57:14Z</time>
      </trkpt>
      <trkpt lat="42.9404380" lon="-3.2793620">
        <ele>619.2</ele>
        <time>2018-10-21T08:57:15Z</time>
      </trkpt>
      <trkpt lat="42.9404970" lon="-3.2792950">
        <ele>619.2</ele>
        <time>2018-10-21T08:57:16Z</time>
      </trkpt>
      <trkpt lat="42.9405570" lon="-3.2792300">
        <ele>619.2</ele>
        <time>2018-10-21T08:57:17Z</time>
      </trkpt>
      <trkpt lat="42.9406150" lon="-3.2791630">
        <ele>619.2</ele>
        <time>2018-10-21T08:57:18Z</time>
      </trkpt>
      <trkpt lat="42.9406730" lon="-3.2790980">
        <ele>619.2</ele>
        <time>2018-10-21T08:57:19Z</time>
      </trkpt>
      <trkpt lat="42.9407320" lon="-3.2790330">
        <ele>619.2</ele>
        <time>2018-10-21T08:57:20Z</time>
      </trkpt>
      <trkpt lat="42.9407900" lon="-3.2789680">
        <ele>619.2</ele>
        <time>2018-10-21T08:57:21Z</time>
      </trkpt>
      <trkpt lat="42.9408500" lon="-3.2789020">
        <ele>619.2</ele>
        <time>2018-10-21T08:57:22Z</time>
      </trkpt>
      <trkpt lat="42.9409120" lon="-3.2788350">
        <ele>619.2</ele>
        <time>2018-10-21T08:57:23Z</time>
      </trkpt>
      <trkpt lat="42.9409730" lon="-3.2787700">
        <ele>619.2</ele>
        <time>2018-10-21T08:57:24Z</time>
      </trkpt>
      <trkpt lat="42.9410350" lon="-3.2787020">
        <ele>618.3</ele>
        <time>2018-10-21T08:57:25Z</time>
      </trkpt>
      <trkpt lat="42.9411000" lon="-3.2786370">
        <ele>618.3</ele>
        <time>2018-10-21T08:57:26Z</time>
      </trkpt>
      <trkpt lat="42.9411650" lon="-3.2785720">
        <ele>618.3</ele>
        <time>2018-10-21T08:57:27Z</time>
      </trkpt>
      <trkpt lat="42.9412330" lon="-3.2785070">
        <ele>618.3</ele>
        <time>2018-10-21T08:57:28Z</time>
      </trkpt>
      <trkpt lat="42.9413020" lon="-3.2784450">
        <ele>618.3</ele>
        <time>2018-10-21T08:57:29Z</time>
      </trkpt>
      <trkpt lat="42.9413720" lon="-3.2783820">
        <ele>618.3</ele>
        <time>2018-10-21T08:57:30Z</time>
      </trkpt>
      <trkpt lat="42.9414420" lon="-3.2783180">
        <ele>618.3</ele>
        <time>2018-10-21T08:57:31Z</time>
      </trkpt>
      <trkpt lat="42.9415150" lon="-3.2782570">
        <ele>618.3</ele>
        <time>2018-10-21T08:57:32Z</time>
      </trkpt>
      <trkpt lat="42.9415870" lon="-3.2781970">
        <ele>617.2</ele>
        <time>2018-10-21T08:57:33Z</time>
      </trkpt>
      <trkpt lat="42.9416600" lon="-3.2781370">
        <ele>617.2</ele>
        <time>2018-10-21T08:57:34Z</time>
      </trkpt>
      <trkpt lat="42.9417320" lon="-3.2780770">
        <ele>617.2</ele>
        <time>2018-10-21T08:57:35Z</time>
      </trkpt>
      <trkpt lat="42.9418050" lon="-3.2780170">
        <ele>617.2</ele>
        <time>2018-10-21T08:57:36Z</time>
      </trkpt>
      <trkpt lat="42.9418770" lon="-3.2779570">
        <ele>616.3</ele>
        <time>2018-10-21T08:57:37Z</time>
      </trkpt>
      <trkpt lat="42.9419480" lon="-3.2778970">
        <ele>616.3</ele>
        <time>2018-10-21T08:57:38Z</time>
      </trkpt>
      <trkpt lat="42.9420200" lon="-3.2778370">
        <ele>616.3</ele>
        <time>2018-10-21T08:57:39Z</time>
      </trkpt>
      <trkpt lat="42.9420900" lon="-3.2777770">
        <ele>616.3</ele>
        <time>2018-10-21T08:57:40Z</time>
      </trkpt>
      <trkpt lat="42.9421600" lon="-3.2777180">
        <ele>616.3</ele>
        <time>2018-10-21T08:57:41Z</time>
      </trkpt>
      <trkpt lat="42.9422300" lon="-3.2776620">
        <ele>616.3</ele>
        <time>2018-10-21T08:57:42Z</time>
      </trkpt>
      <trkpt lat="42.9422980" lon="-3.2776030">
        <ele>616.3</ele>
        <time>2018-10-21T08:57:43Z</time>
      </trkpt>
      <trkpt lat="42.9423680" lon="-3.2775470">
        <ele>616.3</ele>
        <time>2018-10-21T08:57:44Z</time>
      </trkpt>
      <trkpt lat="42.9424370" lon="-3.2774880">
        <ele>616.3</ele>
        <time>2018-10-21T08:57:45Z</time>
      </trkpt>
      <trkpt lat="42.9425050" lon="-3.2774300">
        <ele>616.3</ele>
        <time>2018-10-21T08:57:46Z</time>
      </trkpt>
      <trkpt lat="42.9425730" lon="-3.2773730">
        <ele>616.3</ele>
        <time>2018-10-21T08:57:47Z</time>
      </trkpt>
      <trkpt lat="42.9426420" lon="-3.2773180">
        <ele>616.3</ele>
        <time>2018-10-21T08:57:48Z</time>
      </trkpt>
      <trkpt lat="42.9427120" lon="-3.2772630">
        <ele>616.3</ele>
        <time>2018-10-21T08:57:49Z</time>
      </trkpt>
      <trkpt lat="42.9427800" lon="-3.2772080">
        <ele>616.3</ele>
        <time>2018-10-21T08:57:50Z</time>
      </trkpt>
      <trkpt lat="42.9428480" lon="-3.2771500">
        <ele>616.3</ele>
        <time>2018-10-21T08:57:51Z</time>
      </trkpt>
      <trkpt lat="42.9429180" lon="-3.2770920">
        <ele>616.3</ele>
        <time>2018-10-21T08:57:52Z</time>
      </trkpt>
      <trkpt lat="42.9429870" lon="-3.2770330">
        <ele>616.3</ele>
        <time>2018-10-21T08:57:53Z</time>
      </trkpt>
      <trkpt lat="42.9430550" lon="-3.2769750">
        <ele>616.3</ele>
        <time>2018-10-21T08:57:54Z</time>
      </trkpt>
      <trkpt lat="42.9431230" lon="-3.2769170">
        <ele>616.3</ele>
        <time>2018-10-21T08:57:55Z</time>
      </trkpt>
      <trkpt lat="42.9431930" lon="-3.2768600">
        <ele>616.3</ele>
        <time>2018-10-21T08:57:56Z</time>
      </trkpt>
      <trkpt lat="42.9432620" lon="-3.2768030">
        <ele>616.3</ele>
        <time>2018-10-21T08:57:57Z</time>
      </trkpt>
      <trkpt lat="42.9433300" lon="-3.2767480">
        <ele>616.3</ele>
        <time>2018-10-21T08:57:58Z</time>
      </trkpt>
      <trkpt lat="42.9433970" lon="-3.2766920">
        <ele>616.3</ele>
        <time>2018-10-21T08:57:59Z</time>
      </trkpt>
      <trkpt lat="42.9434650" lon="-3.2766370">
        <ele>616.3</ele>
        <time>2018-10-21T08:58:00Z</time>
      </trkpt>
      <trkpt lat="42.9435320" lon="-3.2765800">
        <ele>616.3</ele>
        <time>2018-10-21T08:58:01Z</time>
      </trkpt>
      <trkpt lat="42.9435980" lon="-3.2765250">
        <ele>616.3</ele>
        <time>2018-10-21T08:58:02Z</time>
      </trkpt>
      <trkpt lat="42.9436650" lon="-3.2764700">
        <ele>616.3</ele>
        <time>2018-10-21T08:58:03Z</time>
      </trkpt>
      <trkpt lat="42.9437300" lon="-3.2764130">
        <ele>616.3</ele>
        <time>2018-10-21T08:58:04Z</time>
      </trkpt>
      <trkpt lat="42.9437970" lon="-3.2763600">
        <ele>616.3</ele>
        <time>2018-10-21T08:58:05Z</time>
      </trkpt>
      <trkpt lat="42.9438630" lon="-3.2763030">
        <ele>616.3</ele>
        <time>2018-10-21T08:58:06Z</time>
      </trkpt>
      <trkpt lat="42.9439300" lon="-3.2762480">
        <ele>616.3</ele>
        <time>2018-10-21T08:58:07Z</time>
      </trkpt>
      <trkpt lat="42.9439970" lon="-3.2761930">
        <ele>616.3</ele>
        <time>2018-10-21T08:58:08Z</time>
      </trkpt>
      <trkpt lat="42.9440630" lon="-3.2761380">
        <ele>616.3</ele>
        <time>2018-10-21T08:58:09Z</time>
      </trkpt>
      <trkpt lat="42.9441280" lon="-3.2760830">
        <ele>616.3</ele>
        <time>2018-10-21T08:58:10Z</time>
      </trkpt>
      <trkpt lat="42.9441950" lon="-3.2760280">
        <ele>616.3</ele>
        <time>2018-10-21T08:58:11Z</time>
      </trkpt>
      <trkpt lat="42.9442620" lon="-3.2759720">
        <ele>616.3</ele>
        <time>2018-10-21T08:58:12Z</time>
      </trkpt>
      <trkpt lat="42.9443280" lon="-3.2759170">
        <ele>616.3</ele>
        <time>2018-10-21T08:58:13Z</time>
      </trkpt>
      <trkpt lat="42.9443950" lon="-3.2758600">
        <ele>616.3</ele>
        <time>2018-10-21T08:58:14Z</time>
      </trkpt>
      <trkpt lat="42.9444620" lon="-3.2758030">
        <ele>616.3</ele>
        <time>2018-10-21T08:58:15Z</time>
      </trkpt>
      <trkpt lat="42.9445280" lon="-3.2757480">
        <ele>616.3</ele>
        <time>2018-10-21T08:58:16Z</time>
      </trkpt>
      <trkpt lat="42.9445970" lon="-3.2756930">
        <ele>616.3</ele>
        <time>2018-10-21T08:58:17Z</time>
      </trkpt>
      <trkpt lat="42.9446630" lon="-3.2756370">
        <ele>616.3</ele>
        <time>2018-10-21T08:58:18Z</time>
      </trkpt>
      <trkpt lat="42.9447300" lon="-3.2755780">
        <ele>616.3</ele>
        <time>2018-10-21T08:58:19Z</time>
      </trkpt>
      <trkpt lat="42.9447950" lon="-3.2755180">
        <ele>616.3</ele>
        <time>2018-10-21T08:58:20Z</time>
      </trkpt>
      <trkpt lat="42.9448620" lon="-3.2754550">
        <ele>616.3</ele>
        <time>2018-10-21T08:58:21Z</time>
      </trkpt>
      <trkpt lat="42.9449270" lon="-3.2753900">
        <ele>616.3</ele>
        <time>2018-10-21T08:58:22Z</time>
      </trkpt>
      <trkpt lat="42.9449900" lon="-3.2753180">
        <ele>615.2</ele>
        <time>2018-10-21T08:58:23Z</time>
      </trkpt>
      <trkpt lat="42.9450550" lon="-3.2752470">
        <ele>615.2</ele>
        <time>2018-10-21T08:58:24Z</time>
      </trkpt>
      <trkpt lat="42.9451200" lon="-3.2751720">
        <ele>615.2</ele>
        <time>2018-10-21T08:58:25Z</time>
      </trkpt>
      <trkpt lat="42.9451850" lon="-3.2750950">
        <ele>615.2</ele>
        <time>2018-10-21T08:58:26Z</time>
      </trkpt>
      <trkpt lat="42.9452500" lon="-3.2750150">
        <ele>615.2</ele>
        <time>2018-10-21T08:58:27Z</time>
      </trkpt>
      <trkpt lat="42.9453170" lon="-3.2749350">
        <ele>615.2</ele>
        <time>2018-10-21T08:58:28Z</time>
      </trkpt>
      <trkpt lat="42.9453820" lon="-3.2748530">
        <ele>612.2</ele>
        <time>2018-10-21T08:58:29Z</time>
      </trkpt>
      <trkpt lat="42.9454500" lon="-3.2747720">
        <ele>612.2</ele>
        <time>2018-10-21T08:58:30Z</time>
      </trkpt>
      <trkpt lat="42.9455170" lon="-3.2746880">
        <ele>612.2</ele>
        <time>2018-10-21T08:58:31Z</time>
      </trkpt>
      <trkpt lat="42.9455870" lon="-3.2746070">
        <ele>612.2</ele>
        <time>2018-10-21T08:58:32Z</time>
      </trkpt>
      <trkpt lat="42.9456580" lon="-3.2745270">
        <ele>612.2</ele>
        <time>2018-10-21T08:58:33Z</time>
      </trkpt>
      <trkpt lat="42.9457330" lon="-3.2744480">
        <ele>612.2</ele>
        <time>2018-10-21T08:58:34Z</time>
      </trkpt>
      <trkpt lat="42.9458080" lon="-3.2743700">
        <ele>612.2</ele>
        <time>2018-10-21T08:58:35Z</time>
      </trkpt>
      <trkpt lat="42.9458850" lon="-3.2742930">
        <ele>612.2</ele>
        <time>2018-10-21T08:58:36Z</time>
      </trkpt>
      <trkpt lat="42.9459630" lon="-3.2742230">
        <ele>612.2</ele>
        <time>2018-10-21T08:58:37Z</time>
      </trkpt>
      <trkpt lat="42.9460380" lon="-3.2741580">
        <ele>612.2</ele>
        <time>2018-10-21T08:58:38Z</time>
      </trkpt>
      <trkpt lat="42.9461170" lon="-3.2740930">
        <ele>610.2</ele>
        <time>2018-10-21T08:58:39Z</time>
      </trkpt>
      <trkpt lat="42.9461900" lon="-3.2740250">
        <ele>610.2</ele>
        <time>2018-10-21T08:58:40Z</time>
      </trkpt>
      <trkpt lat="42.9462630" lon="-3.2739600">
        <ele>610.2</ele>
        <time>2018-10-21T08:58:41Z</time>
      </trkpt>
      <trkpt lat="42.9463380" lon="-3.2738930">
        <ele>610.2</ele>
        <time>2018-10-21T08:58:42Z</time>
      </trkpt>
      <trkpt lat="42.9464080" lon="-3.2738300">
        <ele>609.3</ele>
        <time>2018-10-21T08:58:43Z</time>
      </trkpt>
      <trkpt lat="42.9464780" lon="-3.2737670">
        <ele>609.3</ele>
        <time>2018-10-21T08:58:44Z</time>
      </trkpt>
      <trkpt lat="42.9465480" lon="-3.2737030">
        <ele>609.3</ele>
        <time>2018-10-21T08:58:45Z</time>
      </trkpt>
      <trkpt lat="42.9466180" lon="-3.2736400">
        <ele>609.3</ele>
        <time>2018-10-21T08:58:46Z</time>
      </trkpt>
      <trkpt lat="42.9466880" lon="-3.2735770">
        <ele>609.3</ele>
        <time>2018-10-21T08:58:47Z</time>
      </trkpt>
      <trkpt lat="42.9467570" lon="-3.2735130">
        <ele>609.3</ele>
        <time>2018-10-21T08:58:48Z</time>
      </trkpt>
      <trkpt lat="42.9468270" lon="-3.2734530">
        <ele>609.3</ele>
        <time>2018-10-21T08:58:49Z</time>
      </trkpt>
      <trkpt lat="42.9468970" lon="-3.2733920">
        <ele>609.3</ele>
        <time>2018-10-21T08:58:50Z</time>
      </trkpt>
      <trkpt lat="42.9469670" lon="-3.2733300">
        <ele>609.3</ele>
        <time>2018-10-21T08:58:51Z</time>
      </trkpt>
      <trkpt lat="42.9470370" lon="-3.2732700">
        <ele>609.3</ele>
        <time>2018-10-21T08:58:52Z</time>
      </trkpt>
      <trkpt lat="42.9471070" lon="-3.2732080">
        <ele>609.3</ele>
        <time>2018-10-21T08:58:53Z</time>
      </trkpt>
      <trkpt lat="42.9471750" lon="-3.2731470">
        <ele>609.3</ele>
        <time>2018-10-21T08:58:54Z</time>
      </trkpt>
      <trkpt lat="42.9472430" lon="-3.2730850">
        <ele>608.2</ele>
        <time>2018-10-21T08:58:55Z</time>
      </trkpt>
      <trkpt lat="42.9473100" lon="-3.2730270">
        <ele>608.2</ele>
        <time>2018-10-21T08:58:56Z</time>
      </trkpt>
      <trkpt lat="42.9473770" lon="-3.2729680">
        <ele>608.2</ele>
        <time>2018-10-21T08:58:57Z</time>
      </trkpt>
      <trkpt lat="42.9474470" lon="-3.2729070">
        <ele>608.2</ele>
        <time>2018-10-21T08:58:58Z</time>
      </trkpt>
      <trkpt lat="42.9475150" lon="-3.2728450">
        <ele>608.2</ele>
        <time>2018-10-21T08:58:59Z</time>
      </trkpt>
      <trkpt lat="42.9475800" lon="-3.2727830">
        <ele>608.2</ele>
        <time>2018-10-21T08:59:00Z</time>
      </trkpt>
      <trkpt lat="42.9476450" lon="-3.2727220">
        <ele>608.2</ele>
        <time>2018-10-21T08:59:01Z</time>
      </trkpt>
      <trkpt lat="42.9477120" lon="-3.2726650">
        <ele>608.2</ele>
        <time>2018-10-21T08:59:02Z</time>
      </trkpt>
      <trkpt lat="42.9477770" lon="-3.2726080">
        <ele>608.2</ele>
        <time>2018-10-21T08:59:03Z</time>
      </trkpt>
      <trkpt lat="42.9478420" lon="-3.2725500">
        <ele>608.2</ele>
        <time>2018-10-21T08:59:04Z</time>
      </trkpt>
      <trkpt lat="42.9479050" lon="-3.2724950">
        <ele>608.2</ele>
        <time>2018-10-21T08:59:05Z</time>
      </trkpt>
      <trkpt lat="42.9479680" lon="-3.2724420">
        <ele>608.2</ele>
        <time>2018-10-21T08:59:06Z</time>
      </trkpt>
      <trkpt lat="42.9480280" lon="-3.2723900">
        <ele>608.2</ele>
        <time>2018-10-21T08:59:07Z</time>
      </trkpt>
      <trkpt lat="42.9480880" lon="-3.2723380">
        <ele>608.2</ele>
        <time>2018-10-21T08:59:08Z</time>
      </trkpt>
      <trkpt lat="42.9481480" lon="-3.2722900">
        <ele>608.2</ele>
        <time>2018-10-21T08:59:09Z</time>
      </trkpt>
      <trkpt lat="42.9482080" lon="-3.2722430">
        <ele>608.2</ele>
        <time>2018-10-21T08:59:10Z</time>
      </trkpt>
      <trkpt lat="42.9482670" lon="-3.2721970">
        <ele>609.3</ele>
        <time>2018-10-21T08:59:11Z</time>
      </trkpt>
      <trkpt lat="42.9483270" lon="-3.2721550">
        <ele>609.3</ele>
        <time>2018-10-21T08:59:12Z</time>
      </trkpt>
      <trkpt lat="42.9483870" lon="-3.2721150">
        <ele>609.3</ele>
        <time>2018-10-21T08:59:13Z</time>
      </trkpt>
      <trkpt lat="42.9484500" lon="-3.2720820">
        <ele>609.3</ele>
        <time>2018-10-21T08:59:14Z</time>
      </trkpt>
      <trkpt lat="42.9485120" lon="-3.2720450">
        <ele>609.3</ele>
        <time>2018-10-21T08:59:15Z</time>
      </trkpt>
      <trkpt lat="42.9485680" lon="-3.2720030">
        <ele>609.3</ele>
        <time>2018-10-21T08:59:16Z</time>
      </trkpt>
      <trkpt lat="42.9486230" lon="-3.2719550">
        <ele>610.2</ele>
        <time>2018-10-21T08:59:17Z</time>
      </trkpt>
      <trkpt lat="42.9486780" lon="-3.2719050">
        <ele>610.2</ele>
        <time>2018-10-21T08:59:18Z</time>
      </trkpt>
      <trkpt lat="42.9487300" lon="-3.2718520">
        <ele>610.2</ele>
        <time>2018-10-21T08:59:19Z</time>
      </trkpt>
      <trkpt lat="42.9487830" lon="-3.2717980">
        <ele>610.2</ele>
        <time>2018-10-21T08:59:20Z</time>
      </trkpt>
      <trkpt lat="42.9488370" lon="-3.2717480">
        <ele>610.2</ele>
        <time>2018-10-21T08:59:21Z</time>
      </trkpt>
      <trkpt lat="42.9488920" lon="-3.2716980">
        <ele>610.2</ele>
        <time>2018-10-21T08:59:22Z</time>
      </trkpt>
      <trkpt lat="42.9489420" lon="-3.2716470">
        <ele>611.3</ele>
        <time>2018-10-21T08:59:23Z</time>
      </trkpt>
      <trkpt lat="42.9489900" lon="-3.2715880">
        <ele>611.3</ele>
        <time>2018-10-21T08:59:24Z</time>
      </trkpt>
      <trkpt lat="42.9490320" lon="-3.2715250">
        <ele>612.2</ele>
        <time>2018-10-21T08:59:25Z</time>
      </trkpt>
      <trkpt lat="42.9490730" lon="-3.2714600">
        <ele>612.2</ele>
        <time>2018-10-21T08:59:26Z</time>
      </trkpt>
      <trkpt lat="42.9491170" lon="-3.2713970">
        <ele>612.2</ele>
        <time>2018-10-21T08:59:27Z</time>
      </trkpt>
      <trkpt lat="42.9491620" lon="-3.2713370">
        <ele>612.2</ele>
        <time>2018-10-21T08:59:28Z</time>
      </trkpt>
      <trkpt lat="42.9492070" lon="-3.2712770">
        <ele>612.2</ele>
        <time>2018-10-21T08:59:29Z</time>
      </trkpt>
      <trkpt lat="42.9492520" lon="-3.2712150">
        <ele>612.2</ele>
        <time>2018-10-21T08:59:30Z</time>
      </trkpt>
      <trkpt lat="42.9492950" lon="-3.2711530">
        <ele>613.3</ele>
        <time>2018-10-21T08:59:31Z</time>
      </trkpt>
      <trkpt lat="42.9493400" lon="-3.2710900">
        <ele>613.3</ele>
        <time>2018-10-21T08:59:32Z</time>
      </trkpt>
      <trkpt lat="42.9493830" lon="-3.2710270">
        <ele>613.3</ele>
        <time>2018-10-21T08:59:33Z</time>
      </trkpt>
      <trkpt lat="42.9494280" lon="-3.2709670">
        <ele>613.3</ele>
        <time>2018-10-21T08:59:34Z</time>
      </trkpt>
      <trkpt lat="42.9494730" lon="-3.2709070">
        <ele>614.2</ele>
        <time>2018-10-21T08:59:35Z</time>
      </trkpt>
      <trkpt lat="42.9495170" lon="-3.2708450">
        <ele>614.2</ele>
        <time>2018-10-21T08:59:36Z</time>
      </trkpt>
      <trkpt lat="42.9495620" lon="-3.2707850">
        <ele>614.2</ele>
        <time>2018-10-21T08:59:37Z</time>
      </trkpt>
      <trkpt lat="42.9496070" lon="-3.2707280">
        <ele>614.2</ele>
        <time>2018-10-21T08:59:38Z</time>
      </trkpt>
      <trkpt lat="42.9496500" lon="-3.2706680">
        <ele>614.2</ele>
        <time>2018-10-21T08:59:39Z</time>
      </trkpt>
      <trkpt lat="42.9496950" lon="-3.2706100">
        <ele>614.2</ele>
        <time>2018-10-21T08:59:40Z</time>
      </trkpt>
      <trkpt lat="42.9497380" lon="-3.2705520">
        <ele>615.2</ele>
        <time>2018-10-21T08:59:41Z</time>
      </trkpt>
      <trkpt lat="42.9497820" lon="-3.2704970">
        <ele>615.2</ele>
        <time>2018-10-21T08:59:42Z</time>
      </trkpt>
      <trkpt lat="42.9498270" lon="-3.2704400">
        <ele>615.2</ele>
        <time>2018-10-21T08:59:43Z</time>
      </trkpt>
      <trkpt lat="42.9498730" lon="-3.2703870">
        <ele>615.2</ele>
        <time>2018-10-21T08:59:44Z</time>
      </trkpt>
      <trkpt lat="42.9499200" lon="-3.2703320">
        <ele>615.2</ele>
        <time>2018-10-21T08:59:45Z</time>
      </trkpt>
      <trkpt lat="42.9499680" lon="-3.2702750">
        <ele>615.2</ele>
        <time>2018-10-21T08:59:46Z</time>
      </trkpt>
      <trkpt lat="42.9500180" lon="-3.2702220">
        <ele>615.2</ele>
        <time>2018-10-21T08:59:47Z</time>
      </trkpt>
      <trkpt lat="42.9500680" lon="-3.2701700">
        <ele>615.2</ele>
        <time>2018-10-21T08:59:48Z</time>
      </trkpt>
      <trkpt lat="42.9501200" lon="-3.2701200">
        <ele>615.2</ele>
        <time>2018-10-21T08:59:49Z</time>
      </trkpt>
      <trkpt lat="42.9501730" lon="-3.2700700">
        <ele>615.2</ele>
        <time>2018-10-21T08:59:50Z</time>
      </trkpt>
      <trkpt lat="42.9502270" lon="-3.2700150">
        <ele>615.2</ele>
        <time>2018-10-21T08:59:51Z</time>
      </trkpt>
      <trkpt lat="42.9502830" lon="-3.2699630">
        <ele>615.2</ele>
        <time>2018-10-21T08:59:52Z</time>
      </trkpt>
      <trkpt lat="42.9503430" lon="-3.2699150">
        <ele>615.2</ele>
        <time>2018-10-21T08:59:53Z</time>
      </trkpt>
      <trkpt lat="42.9504070" lon="-3.2698700">
        <ele>615.2</ele>
        <time>2018-10-21T08:59:54Z</time>
      </trkpt>
      <trkpt lat="42.9504730" lon="-3.2698270">
        <ele>614.2</ele>
        <time>2018-10-21T08:59:55Z</time>
      </trkpt>
      <trkpt lat="42.9505430" lon="-3.2697820">
        <ele>614.2</ele>
        <time>2018-10-21T08:59:56Z</time>
      </trkpt>
      <trkpt lat="42.9506150" lon="-3.2697420">
        <ele>613.3</ele>
        <time>2018-10-21T08:59:57Z</time>
      </trkpt>
      <trkpt lat="42.9506920" lon="-3.2697030">
        <ele>613.3</ele>
        <time>2018-10-21T08:59:58Z</time>
      </trkpt>
      <trkpt lat="42.9507680" lon="-3.2696670">
        <ele>612.2</ele>
        <time>2018-10-21T08:59:59Z</time>
      </trkpt>
      <trkpt lat="42.9508480" lon="-3.2696300">
        <ele>612.2</ele>
        <time>2018-10-21T09:00:00Z</time>
      </trkpt>
      <trkpt lat="42.9509300" lon="-3.2695930">
        <ele>611.3</ele>
        <time>2018-10-21T09:00:01Z</time>
      </trkpt>
      <trkpt lat="42.9510130" lon="-3.2695570">
        <ele>611.3</ele>
        <time>2018-10-21T09:00:02Z</time>
      </trkpt>
      <trkpt lat="42.9510980" lon="-3.2695200">
        <ele>611.3</ele>
        <time>2018-10-21T09:00:03Z</time>
      </trkpt>
      <trkpt lat="42.9511850" lon="-3.2694820">
        <ele>611.3</ele>
        <time>2018-10-21T09:00:04Z</time>
      </trkpt>
      <trkpt lat="42.9512720" lon="-3.2694450">
        <ele>610.2</ele>
        <time>2018-10-21T09:00:05Z</time>
      </trkpt>
      <trkpt lat="42.9513580" lon="-3.2694080">
        <ele>610.2</ele>
        <time>2018-10-21T09:00:06Z</time>
      </trkpt>
      <trkpt lat="42.9514450" lon="-3.2693730">
        <ele>610.2</ele>
        <time>2018-10-21T09:00:07Z</time>
      </trkpt>
      <trkpt lat="42.9515300" lon="-3.2693380">
        <ele>610.2</ele>
        <time>2018-10-21T09:00:08Z</time>
      </trkpt>
      <trkpt lat="42.9516170" lon="-3.2693020">
        <ele>610.2</ele>
        <time>2018-10-21T09:00:09Z</time>
      </trkpt>
      <trkpt lat="42.9517020" lon="-3.2692650">
        <ele>610.2</ele>
        <time>2018-10-21T09:00:10Z</time>
      </trkpt>
      <trkpt lat="42.9517850" lon="-3.2692320">
        <ele>609.3</ele>
        <time>2018-10-21T09:00:11Z</time>
      </trkpt>
      <trkpt lat="42.9518670" lon="-3.2691970">
        <ele>609.3</ele>
        <time>2018-10-21T09:00:12Z</time>
      </trkpt>
      <trkpt lat="42.9519470" lon="-3.2691630">
        <ele>609.3</ele>
        <time>2018-10-21T09:00:13Z</time>
      </trkpt>
      <trkpt lat="42.9520270" lon="-3.2691330">
        <ele>609.3</ele>
        <time>2018-10-21T09:00:14Z</time>
      </trkpt>
      <trkpt lat="42.9521030" lon="-3.2691020">
        <ele>610.2</ele>
        <time>2018-10-21T09:00:15Z</time>
      </trkpt>
      <trkpt lat="42.9521820" lon="-3.2690680">
        <ele>610.2</ele>
        <time>2018-10-21T09:00:16Z</time>
      </trkpt>
      <trkpt lat="42.9522580" lon="-3.2690330">
        <ele>610.2</ele>
        <time>2018-10-21T09:00:17Z</time>
      </trkpt>
      <trkpt lat="42.9523370" lon="-3.2690020">
        <ele>610.2</ele>
        <time>2018-10-21T09:00:18Z</time>
      </trkpt>
      <trkpt lat="42.9524150" lon="-3.2689680">
        <ele>610.2</ele>
        <time>2018-10-21T09:00:19Z</time>
      </trkpt>
      <trkpt lat="42.9524930" lon="-3.2689350">
        <ele>610.2</ele>
        <time>2018-10-21T09:00:20Z</time>
      </trkpt>
      <trkpt lat="42.9525720" lon="-3.2689030">
        <ele>611.3</ele>
        <time>2018-10-21T09:00:21Z</time>
      </trkpt>
      <trkpt lat="42.9526500" lon="-3.2688700">
        <ele>611.3</ele>
        <time>2018-10-21T09:00:22Z</time>
      </trkpt>
      <trkpt lat="42.9527280" lon="-3.2688380">
        <ele>611.3</ele>
        <time>2018-10-21T09:00:23Z</time>
      </trkpt>
      <trkpt lat="42.9528070" lon="-3.2688070">
        <ele>611.3</ele>
        <time>2018-10-21T09:00:24Z</time>
      </trkpt>
      <trkpt lat="42.9528850" lon="-3.2687730">
        <ele>611.3</ele>
        <time>2018-10-21T09:00:25Z</time>
      </trkpt>
      <trkpt lat="42.9529630" lon="-3.2687400">
        <ele>611.3</ele>
        <time>2018-10-21T09:00:26Z</time>
      </trkpt>
      <trkpt lat="42.9530420" lon="-3.2687050">
        <ele>611.3</ele>
        <time>2018-10-21T09:00:27Z</time>
      </trkpt>
      <trkpt lat="42.9531200" lon="-3.2686750">
        <ele>611.3</ele>
        <time>2018-10-21T09:00:28Z</time>
      </trkpt>
      <trkpt lat="42.9531980" lon="-3.2686430">
        <ele>611.3</ele>
        <time>2018-10-21T09:00:29Z</time>
      </trkpt>
      <trkpt lat="42.9532750" lon="-3.2686100">
        <ele>611.3</ele>
        <time>2018-10-21T09:00:30Z</time>
      </trkpt>
      <trkpt lat="42.9533500" lon="-3.2685780">
        <ele>611.3</ele>
        <time>2018-10-21T09:00:31Z</time>
      </trkpt>
      <trkpt lat="42.9534270" lon="-3.2685470">
        <ele>611.3</ele>
        <time>2018-10-21T09:00:32Z</time>
      </trkpt>
      <trkpt lat="42.9535020" lon="-3.2685150">
        <ele>611.3</ele>
        <time>2018-10-21T09:00:33Z</time>
      </trkpt>
      <trkpt lat="42.9535770" lon="-3.2684830">
        <ele>611.3</ele>
        <time>2018-10-21T09:00:34Z</time>
      </trkpt>
      <trkpt lat="42.9536520" lon="-3.2684530">
        <ele>611.3</ele>
        <time>2018-10-21T09:00:35Z</time>
      </trkpt>
      <trkpt lat="42.9537250" lon="-3.2684220">
        <ele>611.3</ele>
        <time>2018-10-21T09:00:36Z</time>
      </trkpt>
      <trkpt lat="42.9537980" lon="-3.2683920">
        <ele>611.3</ele>
        <time>2018-10-21T09:00:37Z</time>
      </trkpt>
      <trkpt lat="42.9538720" lon="-3.2683620">
        <ele>611.3</ele>
        <time>2018-10-21T09:00:38Z</time>
      </trkpt>
      <trkpt lat="42.9539450" lon="-3.2683320">
        <ele>611.3</ele>
        <time>2018-10-21T09:00:39Z</time>
      </trkpt>
      <trkpt lat="42.9540170" lon="-3.2683020">
        <ele>611.3</ele>
        <time>2018-10-21T09:00:40Z</time>
      </trkpt>
      <trkpt lat="42.9540900" lon="-3.2682720">
        <ele>611.3</ele>
        <time>2018-10-21T09:00:41Z</time>
      </trkpt>
      <trkpt lat="42.9541620" lon="-3.2682420">
        <ele>611.3</ele>
        <time>2018-10-21T09:00:42Z</time>
      </trkpt>
      <trkpt lat="42.9542330" lon="-3.2682130">
        <ele>612.2</ele>
        <time>2018-10-21T09:00:43Z</time>
      </trkpt>
      <trkpt lat="42.9543030" lon="-3.2681850">
        <ele>612.2</ele>
        <time>2018-10-21T09:00:44Z</time>
      </trkpt>
      <trkpt lat="42.9543750" lon="-3.2681570">
        <ele>612.2</ele>
        <time>2018-10-21T09:00:45Z</time>
      </trkpt>
      <trkpt lat="42.9544450" lon="-3.2681280">
        <ele>612.2</ele>
        <time>2018-10-21T09:00:46Z</time>
      </trkpt>
      <trkpt lat="42.9545150" lon="-3.2680980">
        <ele>612.2</ele>
        <time>2018-10-21T09:00:47Z</time>
      </trkpt>
      <trkpt lat="42.9545850" lon="-3.2680700">
        <ele>612.2</ele>
        <time>2018-10-21T09:00:48Z</time>
      </trkpt>
      <trkpt lat="42.9546570" lon="-3.2680420">
        <ele>612.2</ele>
        <time>2018-10-21T09:00:49Z</time>
      </trkpt>
      <trkpt lat="42.9547270" lon="-3.2680130">
        <ele>612.2</ele>
        <time>2018-10-21T09:00:50Z</time>
      </trkpt>
      <trkpt lat="42.9547980" lon="-3.2679870">
        <ele>613.3</ele>
        <time>2018-10-21T09:00:51Z</time>
      </trkpt>
      <trkpt lat="42.9548700" lon="-3.2679600">
        <ele>613.3</ele>
        <time>2018-10-21T09:00:52Z</time>
      </trkpt>
      <trkpt lat="42.9549430" lon="-3.2679330">
        <ele>613.3</ele>
        <time>2018-10-21T09:00:53Z</time>
      </trkpt>
      <trkpt lat="42.9550130" lon="-3.2679030">
        <ele>613.3</ele>
        <time>2018-10-21T09:00:54Z</time>
      </trkpt>
      <trkpt lat="42.9550850" lon="-3.2678750">
        <ele>613.3</ele>
        <time>2018-10-21T09:00:55Z</time>
      </trkpt>
      <trkpt lat="42.9551570" lon="-3.2678450">
        <ele>613.3</ele>
        <time>2018-10-21T09:00:56Z</time>
      </trkpt>
      <trkpt lat="42.9552280" lon="-3.2678170">
        <ele>613.3</ele>
        <time>2018-10-21T09:00:57Z</time>
      </trkpt>
      <trkpt lat="42.9552980" lon="-3.2677880">
        <ele>613.3</ele>
        <time>2018-10-21T09:00:58Z</time>
      </trkpt>
      <trkpt lat="42.9553700" lon="-3.2677620">
        <ele>613.3</ele>
        <time>2018-10-21T09:00:59Z</time>
      </trkpt>
      <trkpt lat="42.9554400" lon="-3.2677330">
        <ele>613.3</ele>
        <time>2018-10-21T09:01:00Z</time>
      </trkpt>
      <trkpt lat="42.9555100" lon="-3.2677070">
        <ele>614.2</ele>
        <time>2018-10-21T09:01:01Z</time>
      </trkpt>
      <trkpt lat="42.9555800" lon="-3.2676780">
        <ele>614.2</ele>
        <time>2018-10-21T09:01:02Z</time>
      </trkpt>
      <trkpt lat="42.9556500" lon="-3.2676520">
        <ele>614.2</ele>
        <time>2018-10-21T09:01:03Z</time>
      </trkpt>
      <trkpt lat="42.9557200" lon="-3.2676250">
        <ele>614.2</ele>
        <time>2018-10-21T09:01:04Z</time>
      </trkpt>
      <trkpt lat="42.9557900" lon="-3.2675970">
        <ele>614.2</ele>
        <time>2018-10-21T09:01:05Z</time>
      </trkpt>
      <trkpt lat="42.9558600" lon="-3.2675700">
        <ele>614.2</ele>
        <time>2018-10-21T09:01:06Z</time>
      </trkpt>
      <trkpt lat="42.9559320" lon="-3.2675400">
        <ele>614.2</ele>
        <time>2018-10-21T09:01:07Z</time>
      </trkpt>
      <trkpt lat="42.9560020" lon="-3.2675120">
        <ele>614.2</ele>
        <time>2018-10-21T09:01:08Z</time>
      </trkpt>
      <trkpt lat="42.9560730" lon="-3.2674830">
        <ele>614.2</ele>
        <time>2018-10-21T09:01:09Z</time>
      </trkpt>
      <trkpt lat="42.9561450" lon="-3.2674530">
        <ele>614.2</ele>
        <time>2018-10-21T09:01:10Z</time>
      </trkpt>
      <trkpt lat="42.9562150" lon="-3.2674250">
        <ele>614.2</ele>
        <time>2018-10-21T09:01:11Z</time>
      </trkpt>
      <trkpt lat="42.9562850" lon="-3.2673950">
        <ele>614.2</ele>
        <time>2018-10-21T09:01:12Z</time>
      </trkpt>
      <trkpt lat="42.9563520" lon="-3.2673630">
        <ele>615.2</ele>
        <time>2018-10-21T09:01:13Z</time>
      </trkpt>
      <trkpt lat="42.9564170" lon="-3.2673270">
        <ele>615.2</ele>
        <time>2018-10-21T09:01:14Z</time>
      </trkpt>
      <trkpt lat="42.9564780" lon="-3.2672920">
        <ele>615.2</ele>
        <time>2018-10-21T09:01:15Z</time>
      </trkpt>
      <trkpt lat="42.9565400" lon="-3.2672530">
        <ele>615.2</ele>
        <time>2018-10-21T09:01:16Z</time>
      </trkpt>
      <trkpt lat="42.9565980" lon="-3.2672120">
        <ele>616.3</ele>
        <time>2018-10-21T09:01:17Z</time>
      </trkpt>
      <trkpt lat="42.9566550" lon="-3.2671670">
        <ele>616.3</ele>
        <time>2018-10-21T09:01:18Z</time>
      </trkpt>
      <trkpt lat="42.9567100" lon="-3.2671230">
        <ele>616.3</ele>
        <time>2018-10-21T09:01:19Z</time>
      </trkpt>
      <trkpt lat="42.9567650" lon="-3.2670750">
        <ele>616.3</ele>
        <time>2018-10-21T09:01:20Z</time>
      </trkpt>
      <trkpt lat="42.9568170" lon="-3.2670230">
        <ele>616.3</ele>
        <time>2018-10-21T09:01:21Z</time>
      </trkpt>
      <trkpt lat="42.9568680" lon="-3.2669720">
        <ele>616.3</ele>
        <time>2018-10-21T09:01:22Z</time>
      </trkpt>
      <trkpt lat="42.9569180" lon="-3.2669170">
        <ele>617.2</ele>
        <time>2018-10-21T09:01:23Z</time>
      </trkpt>
      <trkpt lat="42.9569630" lon="-3.2668570">
        <ele>617.2</ele>
        <time>2018-10-21T09:01:24Z</time>
      </trkpt>
      <trkpt lat="42.9570100" lon="-3.2667980">
        <ele>617.2</ele>
        <time>2018-10-21T09:01:25Z</time>
      </trkpt>
      <trkpt lat="42.9570520" lon="-3.2667330">
        <ele>617.2</ele>
        <time>2018-10-21T09:01:26Z</time>
      </trkpt>
      <trkpt lat="42.9570930" lon="-3.2666670">
        <ele>617.2</ele>
        <time>2018-10-21T09:01:27Z</time>
      </trkpt>
      <trkpt lat="42.9571320" lon="-3.2665980">
        <ele>617.2</ele>
        <time>2018-10-21T09:01:28Z</time>
      </trkpt>
      <trkpt lat="42.9571670" lon="-3.2665300">
        <ele>618.3</ele>
        <time>2018-10-21T09:01:29Z</time>
      </trkpt>
      <trkpt lat="42.9571970" lon="-3.2664580">
        <ele>618.3</ele>
        <time>2018-10-21T09:01:30Z</time>
      </trkpt>
      <trkpt lat="42.9572270" lon="-3.2663870">
        <ele>619.2</ele>
        <time>2018-10-21T09:01:31Z</time>
      </trkpt>
      <trkpt lat="42.9572580" lon="-3.2663180">
        <ele>619.2</ele>
        <time>2018-10-21T09:01:32Z</time>
      </trkpt>
      <trkpt lat="42.9572870" lon="-3.2662470">
        <ele>619.2</ele>
        <time>2018-10-21T09:01:33Z</time>
      </trkpt>
      <trkpt lat="42.9573120" lon="-3.2661730">
        <ele>619.2</ele>
        <time>2018-10-21T09:01:34Z</time>
      </trkpt>
      <trkpt lat="42.9573330" lon="-3.2660930">
        <ele>619.2</ele>
        <time>2018-10-21T09:01:35Z</time>
      </trkpt>
      <trkpt lat="42.9573550" lon="-3.2660150">
        <ele>619.2</ele>
        <time>2018-10-21T09:01:36Z</time>
      </trkpt>
      <trkpt lat="42.9573730" lon="-3.2659330">
        <ele>619.2</ele>
        <time>2018-10-21T09:01:37Z</time>
      </trkpt>
      <trkpt lat="42.9573880" lon="-3.2658520">
        <ele>619.2</ele>
        <time>2018-10-21T09:01:38Z</time>
      </trkpt>
      <trkpt lat="42.9574000" lon="-3.2657670">
        <ele>620.3</ele>
        <time>2018-10-21T09:01:39Z</time>
      </trkpt>
      <trkpt lat="42.9574080" lon="-3.2656820">
        <ele>620.3</ele>
        <time>2018-10-21T09:01:40Z</time>
      </trkpt>
      <trkpt lat="42.9574130" lon="-3.2655950">
        <ele>620.3</ele>
        <time>2018-10-21T09:01:41Z</time>
      </trkpt>
      <trkpt lat="42.9574170" lon="-3.2655080">
        <ele>620.3</ele>
        <time>2018-10-21T09:01:42Z</time>
      </trkpt>
      <trkpt lat="42.9574200" lon="-3.2654220">
        <ele>621.2</ele>
        <time>2018-10-21T09:01:43Z</time>
      </trkpt>
      <trkpt lat="42.9574230" lon="-3.2653330">
        <ele>621.2</ele>
        <time>2018-10-21T09:01:44Z</time>
      </trkpt>
      <trkpt lat="42.9574230" lon="-3.2652470">
        <ele>621.2</ele>
        <time>2018-10-21T09:01:45Z</time>
      </trkpt>
      <trkpt lat="42.9574250" lon="-3.2651570">
        <ele>621.2</ele>
        <time>2018-10-21T09:01:46Z</time>
      </trkpt>
      <trkpt lat="42.9574300" lon="-3.2650670">
        <ele>621.2</ele>
        <time>2018-10-21T09:01:47Z</time>
      </trkpt>
      <trkpt lat="42.9574380" lon="-3.2649770">
        <ele>621.2</ele>
        <time>2018-10-21T09:01:48Z</time>
      </trkpt>
      <trkpt lat="42.9574480" lon="-3.2648850">
        <ele>621.2</ele>
        <time>2018-10-21T09:01:49Z</time>
      </trkpt>
      <trkpt lat="42.9574600" lon="-3.2647930">
        <ele>621.2</ele>
        <time>2018-10-21T09:01:50Z</time>
      </trkpt>
      <trkpt lat="42.9574750" lon="-3.2647020">
        <ele>621.2</ele>
        <time>2018-10-21T09:01:51Z</time>
      </trkpt>
      <trkpt lat="42.9574950" lon="-3.2646100">
        <ele>621.2</ele>
        <time>2018-10-21T09:01:52Z</time>
      </trkpt>
      <trkpt lat="42.9575150" lon="-3.2645180">
        <ele>621.2</ele>
        <time>2018-10-21T09:01:53Z</time>
      </trkpt>
      <trkpt lat="42.9575400" lon="-3.2644270">
        <ele>621.2</ele>
        <time>2018-10-21T09:01:54Z</time>
      </trkpt>
      <trkpt lat="42.9575680" lon="-3.2643350">
        <ele>621.2</ele>
        <time>2018-10-21T09:01:55Z</time>
      </trkpt>
      <trkpt lat="42.9576000" lon="-3.2642420">
        <ele>621.2</ele>
        <time>2018-10-21T09:01:56Z</time>
      </trkpt>
      <trkpt lat="42.9576320" lon="-3.2641450">
        <ele>621.2</ele>
        <time>2018-10-21T09:01:57Z</time>
      </trkpt>
      <trkpt lat="42.9576630" lon="-3.2640450">
        <ele>621.2</ele>
        <time>2018-10-21T09:01:58Z</time>
      </trkpt>
      <trkpt lat="42.9576980" lon="-3.2639430">
        <ele>620.3</ele>
        <time>2018-10-21T09:01:59Z</time>
      </trkpt>
      <trkpt lat="42.9577350" lon="-3.2638380">
        <ele>620.3</ele>
        <time>2018-10-21T09:02:00Z</time>
      </trkpt>
      <trkpt lat="42.9577750" lon="-3.2637320">
        <ele>620.3</ele>
        <time>2018-10-21T09:02:01Z</time>
      </trkpt>
      <trkpt lat="42.9578130" lon="-3.2636230">
        <ele>620.3</ele>
        <time>2018-10-21T09:02:02Z</time>
      </trkpt>
      <trkpt lat="42.9578520" lon="-3.2635100">
        <ele>619.2</ele>
        <time>2018-10-21T09:02:03Z</time>
      </trkpt>
      <trkpt lat="42.9578900" lon="-3.2633950">
        <ele>619.2</ele>
        <time>2018-10-21T09:02:04Z</time>
      </trkpt>
      <trkpt lat="42.9579330" lon="-3.2632800">
        <ele>619.2</ele>
        <time>2018-10-21T09:02:05Z</time>
      </trkpt>
      <trkpt lat="42.9579750" lon="-3.2631650">
        <ele>619.2</ele>
        <time>2018-10-21T09:02:06Z</time>
      </trkpt>
      <trkpt lat="42.9580200" lon="-3.2630480">
        <ele>618.3</ele>
        <time>2018-10-21T09:02:07Z</time>
      </trkpt>
      <trkpt lat="42.9580600" lon="-3.2629280">
        <ele>618.3</ele>
        <time>2018-10-21T09:02:08Z</time>
      </trkpt>
      <trkpt lat="42.9581020" lon="-3.2628070">
        <ele>617.2</ele>
        <time>2018-10-21T09:02:09Z</time>
      </trkpt>
      <trkpt lat="42.9581430" lon="-3.2626870">
        <ele>617.2</ele>
        <time>2018-10-21T09:02:10Z</time>
      </trkpt>
      <trkpt lat="42.9581830" lon="-3.2625670">
        <ele>616.3</ele>
        <time>2018-10-21T09:02:11Z</time>
      </trkpt>
      <trkpt lat="42.9582250" lon="-3.2624480">
        <ele>616.3</ele>
        <time>2018-10-21T09:02:12Z</time>
      </trkpt>
      <trkpt lat="42.9582630" lon="-3.2623300">
        <ele>616.3</ele>
        <time>2018-10-21T09:02:13Z</time>
      </trkpt>
      <trkpt lat="42.9583020" lon="-3.2622120">
        <ele>616.3</ele>
        <time>2018-10-21T09:02:14Z</time>
      </trkpt>
      <trkpt lat="42.9583400" lon="-3.2620970">
        <ele>616.3</ele>
        <time>2018-10-21T09:02:15Z</time>
      </trkpt>
      <trkpt lat="42.9583780" lon="-3.2619830">
        <ele>616.3</ele>
        <time>2018-10-21T09:02:16Z</time>
      </trkpt>
      <trkpt lat="42.9584170" lon="-3.2618700">
        <ele>615.2</ele>
        <time>2018-10-21T09:02:17Z</time>
      </trkpt>
      <trkpt lat="42.9584570" lon="-3.2617600">
        <ele>615.2</ele>
        <time>2018-10-21T09:02:18Z</time>
      </trkpt>
      <trkpt lat="42.9584970" lon="-3.2616520">
        <ele>615.2</ele>
        <time>2018-10-21T09:02:19Z</time>
      </trkpt>
      <trkpt lat="42.9585330" lon="-3.2615430">
        <ele>615.2</ele>
        <time>2018-10-21T09:02:20Z</time>
      </trkpt>
      <trkpt lat="42.9585720" lon="-3.2614350">
        <ele>615.2</ele>
        <time>2018-10-21T09:02:21Z</time>
      </trkpt>
      <trkpt lat="42.9586100" lon="-3.2613280">
        <ele>615.2</ele>
        <time>2018-10-21T09:02:22Z</time>
      </trkpt>
      <trkpt lat="42.9586480" lon="-3.2612250">
        <ele>615.2</ele>
        <time>2018-10-21T09:02:23Z</time>
      </trkpt>
      <trkpt lat="42.9586880" lon="-3.2611220">
        <ele>615.2</ele>
        <time>2018-10-21T09:02:24Z</time>
      </trkpt>
      <trkpt lat="42.9587280" lon="-3.2610180">
        <ele>615.2</ele>
        <time>2018-10-21T09:02:25Z</time>
      </trkpt>
      <trkpt lat="42.9587680" lon="-3.2609150">
        <ele>615.2</ele>
        <time>2018-10-21T09:02:26Z</time>
      </trkpt>
      <trkpt lat="42.9588070" lon="-3.2608100">
        <ele>614.2</ele>
        <time>2018-10-21T09:02:27Z</time>
      </trkpt>
      <trkpt lat="42.9588470" lon="-3.2607050">
        <ele>614.2</ele>
        <time>2018-10-21T09:02:28Z</time>
      </trkpt>
      <trkpt lat="42.9588850" lon="-3.2605980">
        <ele>614.2</ele>
        <time>2018-10-21T09:02:29Z</time>
      </trkpt>
      <trkpt lat="42.9589230" lon="-3.2604930">
        <ele>614.2</ele>
        <time>2018-10-21T09:02:30Z</time>
      </trkpt>
      <trkpt lat="42.9589620" lon="-3.2603900">
        <ele>614.2</ele>
        <time>2018-10-21T09:02:31Z</time>
      </trkpt>
      <trkpt lat="42.9590020" lon="-3.2602870">
        <ele>614.2</ele>
        <time>2018-10-21T09:02:32Z</time>
      </trkpt>
      <trkpt lat="42.9590400" lon="-3.2601850">
        <ele>614.2</ele>
        <time>2018-10-21T09:02:33Z</time>
      </trkpt>
      <trkpt lat="42.9590780" lon="-3.2600850">
        <ele>614.2</ele>
        <time>2018-10-21T09:02:34Z</time>
      </trkpt>
      <trkpt lat="42.9591170" lon="-3.2599850">
        <ele>615.2</ele>
        <time>2018-10-21T09:02:35Z</time>
      </trkpt>
      <trkpt lat="42.9591530" lon="-3.2598830">
        <ele>615.2</ele>
        <time>2018-10-21T09:02:36Z</time>
      </trkpt>
      <trkpt lat="42.9591880" lon="-3.2597830">
        <ele>615.2</ele>
        <time>2018-10-21T09:02:37Z</time>
      </trkpt>
      <trkpt lat="42.9592250" lon="-3.2596850">
        <ele>615.2</ele>
        <time>2018-10-21T09:02:38Z</time>
      </trkpt>
      <trkpt lat="42.9592630" lon="-3.2595870">
        <ele>615.2</ele>
        <time>2018-10-21T09:02:39Z</time>
      </trkpt>
      <trkpt lat="42.9593000" lon="-3.2594900">
        <ele>615.2</ele>
        <time>2018-10-21T09:02:40Z</time>
      </trkpt>
      <trkpt lat="42.9593370" lon="-3.2593920">
        <ele>615.2</ele>
        <time>2018-10-21T09:02:41Z</time>
      </trkpt>
      <trkpt lat="42.9593720" lon="-3.2592980">
        <ele>615.2</ele>
        <time>2018-10-21T09:02:42Z</time>
      </trkpt>
      <trkpt lat="42.9594070" lon="-3.2592030">
        <ele>616.3</ele>
        <time>2018-10-21T09:02:43Z</time>
      </trkpt>
      <trkpt lat="42.9594420" lon="-3.2591080">
        <ele>616.3</ele>
        <time>2018-10-21T09:02:44Z</time>
      </trkpt>
      <trkpt lat="42.9594770" lon="-3.2590150">
        <ele>616.3</ele>
        <time>2018-10-21T09:02:45Z</time>
      </trkpt>
      <trkpt lat="42.9595120" lon="-3.2589220">
        <ele>616.3</ele>
        <time>2018-10-21T09:02:46Z</time>
      </trkpt>
      <trkpt lat="42.9595450" lon="-3.2588280">
        <ele>617.2</ele>
        <time>2018-10-21T09:02:47Z</time>
      </trkpt>
      <trkpt lat="42.9595830" lon="-3.2587370">
        <ele>617.2</ele>
        <time>2018-10-21T09:02:48Z</time>
      </trkpt>
      <trkpt lat="42.9596180" lon="-3.2586450">
        <ele>617.2</ele>
        <time>2018-10-21T09:02:49Z</time>
      </trkpt>
      <trkpt lat="42.9596520" lon="-3.2585550">
        <ele>617.2</ele>
        <time>2018-10-21T09:02:50Z</time>
      </trkpt>
      <trkpt lat="42.9596830" lon="-3.2584630">
        <ele>618.3</ele>
        <time>2018-10-21T09:02:51Z</time>
      </trkpt>
      <trkpt lat="42.9597170" lon="-3.2583700">
        <ele>618.3</ele>
        <time>2018-10-21T09:02:52Z</time>
      </trkpt>
      <trkpt lat="42.9597480" lon="-3.2582800">
        <ele>618.3</ele>
        <time>2018-10-21T09:02:53Z</time>
      </trkpt>
      <trkpt lat="42.9597850" lon="-3.2581900">
        <ele>618.3</ele>
        <time>2018-10-21T09:02:54Z</time>
      </trkpt>
      <trkpt lat="42.9598180" lon="-3.2580980">
        <ele>618.3</ele>
        <time>2018-10-21T09:02:55Z</time>
      </trkpt>
      <trkpt lat="42.9598520" lon="-3.2580100">
        <ele>618.3</ele>
        <time>2018-10-21T09:02:56Z</time>
      </trkpt>
      <trkpt lat="42.9598850" lon="-3.2579220">
        <ele>618.3</ele>
        <time>2018-10-21T09:02:57Z</time>
      </trkpt>
      <trkpt lat="42.9599180" lon="-3.2578370">
        <ele>618.3</ele>
        <time>2018-10-21T09:02:58Z</time>
      </trkpt>
      <trkpt lat="42.9599500" lon="-3.2577500">
        <ele>618.3</ele>
        <time>2018-10-21T09:02:59Z</time>
      </trkpt>
      <trkpt lat="42.9599820" lon="-3.2576620">
        <ele>618.3</ele>
        <time>2018-10-21T09:03:00Z</time>
      </trkpt>
      <trkpt lat="42.9600130" lon="-3.2575730">
        <ele>618.3</ele>
        <time>2018-10-21T09:03:01Z</time>
      </trkpt>
      <trkpt lat="42.9600450" lon="-3.2574850">
        <ele>618.3</ele>
        <time>2018-10-21T09:03:02Z</time>
      </trkpt>
      <trkpt lat="42.9600780" lon="-3.2573950">
        <ele>618.3</ele>
        <time>2018-10-21T09:03:03Z</time>
      </trkpt>
      <trkpt lat="42.9601120" lon="-3.2573050">
        <ele>618.3</ele>
        <time>2018-10-21T09:03:04Z</time>
      </trkpt>
      <trkpt lat="42.9601430" lon="-3.2572130">
        <ele>618.3</ele>
        <time>2018-10-21T09:03:05Z</time>
      </trkpt>
      <trkpt lat="42.9601780" lon="-3.2571230">
        <ele>618.3</ele>
        <time>2018-10-21T09:03:06Z</time>
      </trkpt>
      <trkpt lat="42.9602100" lon="-3.2570330">
        <ele>618.3</ele>
        <time>2018-10-21T09:03:07Z</time>
      </trkpt>
      <trkpt lat="42.9602430" lon="-3.2569450">
        <ele>618.3</ele>
        <time>2018-10-21T09:03:08Z</time>
      </trkpt>
      <trkpt lat="42.9602770" lon="-3.2568580">
        <ele>618.3</ele>
        <time>2018-10-21T09:03:09Z</time>
      </trkpt>
      <trkpt lat="42.9603120" lon="-3.2567770">
        <ele>618.3</ele>
        <time>2018-10-21T09:03:10Z</time>
      </trkpt>
      <trkpt lat="42.9603480" lon="-3.2566980">
        <ele>618.3</ele>
        <time>2018-10-21T09:03:11Z</time>
      </trkpt>
      <trkpt lat="42.9603850" lon="-3.2566230">
        <ele>618.3</ele>
        <time>2018-10-21T09:03:12Z</time>
      </trkpt>
      <trkpt lat="42.9604230" lon="-3.2565520">
        <ele>618.3</ele>
        <time>2018-10-21T09:03:13Z</time>
      </trkpt>
      <trkpt lat="42.9604620" lon="-3.2564800">
        <ele>618.3</ele>
        <time>2018-10-21T09:03:14Z</time>
      </trkpt>
      <trkpt lat="42.9605030" lon="-3.2564130">
        <ele>618.3</ele>
        <time>2018-10-21T09:03:15Z</time>
      </trkpt>
      <trkpt lat="42.9605470" lon="-3.2563500">
        <ele>618.3</ele>
        <time>2018-10-21T09:03:16Z</time>
      </trkpt>
      <trkpt lat="42.9605920" lon="-3.2562900">
        <ele>618.3</ele>
        <time>2018-10-21T09:03:17Z</time>
      </trkpt>
      <trkpt lat="42.9606380" lon="-3.2562280">
        <ele>618.3</ele>
        <time>2018-10-21T09:03:18Z</time>
      </trkpt>
      <trkpt lat="42.9606880" lon="-3.2561720">
        <ele>618.3</ele>
        <time>2018-10-21T09:03:19Z</time>
      </trkpt>
      <trkpt lat="42.9607400" lon="-3.2561130">
        <ele>618.3</ele>
        <time>2018-10-21T09:03:20Z</time>
      </trkpt>
      <trkpt lat="42.9607930" lon="-3.2560570">
        <ele>618.3</ele>
        <time>2018-10-21T09:03:21Z</time>
      </trkpt>
      <trkpt lat="42.9608450" lon="-3.2559970">
        <ele>618.3</ele>
        <time>2018-10-21T09:03:22Z</time>
      </trkpt>
      <trkpt lat="42.9608970" lon="-3.2559400">
        <ele>618.3</ele>
        <time>2018-10-21T09:03:23Z</time>
      </trkpt>
      <trkpt lat="42.9609500" lon="-3.2558830">
        <ele>618.3</ele>
        <time>2018-10-21T09:03:24Z</time>
      </trkpt>
      <trkpt lat="42.9610030" lon="-3.2558270">
        <ele>618.3</ele>
        <time>2018-10-21T09:03:25Z</time>
      </trkpt>
      <trkpt lat="42.9610550" lon="-3.2557680">
        <ele>618.3</ele>
        <time>2018-10-21T09:03:26Z</time>
      </trkpt>
      <trkpt lat="42.9611080" lon="-3.2557080">
        <ele>618.3</ele>
        <time>2018-10-21T09:03:27Z</time>
      </trkpt>
      <trkpt lat="42.9611600" lon="-3.2556480">
        <ele>618.3</ele>
        <time>2018-10-21T09:03:28Z</time>
      </trkpt>
      <trkpt lat="42.9612130" lon="-3.2555870">
        <ele>618.3</ele>
        <time>2018-10-21T09:03:29Z</time>
      </trkpt>
      <trkpt lat="42.9612650" lon="-3.2555270">
        <ele>618.3</ele>
        <time>2018-10-21T09:03:30Z</time>
      </trkpt>
      <trkpt lat="42.9613170" lon="-3.2554670">
        <ele>618.3</ele>
        <time>2018-10-21T09:03:31Z</time>
      </trkpt>
      <trkpt lat="42.9613700" lon="-3.2554070">
        <ele>618.3</ele>
        <time>2018-10-21T09:03:32Z</time>
      </trkpt>
      <trkpt lat="42.9614230" lon="-3.2553480">
        <ele>618.3</ele>
        <time>2018-10-21T09:03:33Z</time>
      </trkpt>
      <trkpt lat="42.9614750" lon="-3.2552900">
        <ele>618.3</ele>
        <time>2018-10-21T09:03:34Z</time>
      </trkpt>
      <trkpt lat="42.9615280" lon="-3.2552320">
        <ele>618.3</ele>
        <time>2018-10-21T09:03:35Z</time>
      </trkpt>
      <trkpt lat="42.9615800" lon="-3.2551730">
        <ele>618.3</ele>
        <time>2018-10-21T09:03:36Z</time>
      </trkpt>
      <trkpt lat="42.9616330" lon="-3.2551150">
        <ele>619.2</ele>
        <time>2018-10-21T09:03:37Z</time>
      </trkpt>
      <trkpt lat="42.9616850" lon="-3.2550550">
        <ele>619.2</ele>
        <time>2018-10-21T09:03:38Z</time>
      </trkpt>
      <trkpt lat="42.9617380" lon="-3.2549970">
        <ele>619.2</ele>
        <time>2018-10-21T09:03:39Z</time>
      </trkpt>
      <trkpt lat="42.9617920" lon="-3.2549380">
        <ele>619.2</ele>
        <time>2018-10-21T09:03:40Z</time>
      </trkpt>
      <trkpt lat="42.9618470" lon="-3.2548800">
        <ele>619.2</ele>
        <time>2018-10-21T09:03:41Z</time>
      </trkpt>
      <trkpt lat="42.9619000" lon="-3.2548220">
        <ele>619.2</ele>
        <time>2018-10-21T09:03:42Z</time>
      </trkpt>
      <trkpt lat="42.9619530" lon="-3.2547600">
        <ele>619.2</ele>
        <time>2018-10-21T09:03:43Z</time>
      </trkpt>
      <trkpt lat="42.9620070" lon="-3.2546980">
        <ele>619.2</ele>
        <time>2018-10-21T09:03:44Z</time>
      </trkpt>
      <trkpt lat="42.9620600" lon="-3.2546400">
        <ele>619.2</ele>
        <time>2018-10-21T09:03:45Z</time>
      </trkpt>
      <trkpt lat="42.9621150" lon="-3.2545800">
        <ele>619.2</ele>
        <time>2018-10-21T09:03:46Z</time>
      </trkpt>
      <trkpt lat="42.9621700" lon="-3.2545200">
        <ele>619.2</ele>
        <time>2018-10-21T09:03:47Z</time>
      </trkpt>
      <trkpt lat="42.9622230" lon="-3.2544570">
        <ele>619.2</ele>
        <time>2018-10-21T09:03:48Z</time>
      </trkpt>
      <trkpt lat="42.9622750" lon="-3.2543900">
        <ele>620.3</ele>
        <time>2018-10-21T09:03:49Z</time>
      </trkpt>
      <trkpt lat="42.9623250" lon="-3.2543230">
        <ele>620.3</ele>
        <time>2018-10-21T09:03:50Z</time>
      </trkpt>
      <trkpt lat="42.9623730" lon="-3.2542550">
        <ele>620.3</ele>
        <time>2018-10-21T09:03:51Z</time>
      </trkpt>
      <trkpt lat="42.9624220" lon="-3.2541850">
        <ele>620.3</ele>
        <time>2018-10-21T09:03:52Z</time>
      </trkpt>
      <trkpt lat="42.9624700" lon="-3.2541120">
        <ele>620.3</ele>
        <time>2018-10-21T09:03:53Z</time>
      </trkpt>
      <trkpt lat="42.9625150" lon="-3.2540380">
        <ele>620.3</ele>
        <time>2018-10-21T09:03:54Z</time>
      </trkpt>
      <trkpt lat="42.9625600" lon="-3.2539620">
        <ele>620.3</ele>
        <time>2018-10-21T09:03:55Z</time>
      </trkpt>
      <trkpt lat="42.9626030" lon="-3.2538850">
        <ele>620.3</ele>
        <time>2018-10-21T09:03:56Z</time>
      </trkpt>
      <trkpt lat="42.9626430" lon="-3.2538070">
        <ele>620.3</ele>
        <time>2018-10-21T09:03:57Z</time>
      </trkpt>
      <trkpt lat="42.9626870" lon="-3.2537300">
        <ele>620.3</ele>
        <time>2018-10-21T09:03:58Z</time>
      </trkpt>
      <trkpt lat="42.9627270" lon="-3.2536520">
        <ele>620.3</ele>
        <time>2018-10-21T09:03:59Z</time>
      </trkpt>
      <trkpt lat="42.9627700" lon="-3.2535750">
        <ele>620.3</ele>
        <time>2018-10-21T09:04:00Z</time>
      </trkpt>
      <trkpt lat="42.9628100" lon="-3.2534950">
        <ele>620.3</ele>
        <time>2018-10-21T09:04:01Z</time>
      </trkpt>
      <trkpt lat="42.9628500" lon="-3.2534150">
        <ele>620.3</ele>
        <time>2018-10-21T09:04:02Z</time>
      </trkpt>
      <trkpt lat="42.9628880" lon="-3.2533350">
        <ele>620.3</ele>
        <time>2018-10-21T09:04:03Z</time>
      </trkpt>
      <trkpt lat="42.9629280" lon="-3.2532570">
        <ele>620.3</ele>
        <time>2018-10-21T09:04:04Z</time>
      </trkpt>
      <trkpt lat="42.9629680" lon="-3.2531800">
        <ele>620.3</ele>
        <time>2018-10-21T09:04:05Z</time>
      </trkpt>
      <trkpt lat="42.9630080" lon="-3.2531030">
        <ele>620.3</ele>
        <time>2018-10-21T09:04:06Z</time>
      </trkpt>
      <trkpt lat="42.9630480" lon="-3.2530270">
        <ele>620.3</ele>
        <time>2018-10-21T09:04:07Z</time>
      </trkpt>
      <trkpt lat="42.9630870" lon="-3.2529500">
        <ele>620.3</ele>
        <time>2018-10-21T09:04:08Z</time>
      </trkpt>
      <trkpt lat="42.9631270" lon="-3.2528720">
        <ele>620.3</ele>
        <time>2018-10-21T09:04:09Z</time>
      </trkpt>
      <trkpt lat="42.9631650" lon="-3.2527950">
        <ele>620.3</ele>
        <time>2018-10-21T09:04:10Z</time>
      </trkpt>
      <trkpt lat="42.9632050" lon="-3.2527180">
        <ele>620.3</ele>
        <time>2018-10-21T09:04:11Z</time>
      </trkpt>
      <trkpt lat="42.9632450" lon="-3.2526450">
        <ele>620.3</ele>
        <time>2018-10-21T09:04:12Z</time>
      </trkpt>
      <trkpt lat="42.9632830" lon="-3.2525720">
        <ele>620.3</ele>
        <time>2018-10-21T09:04:13Z</time>
      </trkpt>
      <trkpt lat="42.9633230" lon="-3.2525020">
        <ele>620.3</ele>
        <time>2018-10-21T09:04:14Z</time>
      </trkpt>
      <trkpt lat="42.9633650" lon="-3.2524370">
        <ele>620.3</ele>
        <time>2018-10-21T09:04:15Z</time>
      </trkpt>
      <trkpt lat="42.9634000" lon="-3.2523650">
        <ele>620.3</ele>
        <time>2018-10-21T09:04:16Z</time>
      </trkpt>
      <trkpt lat="42.9634370" lon="-3.2522950">
        <ele>620.3</ele>
        <time>2018-10-21T09:04:17Z</time>
      </trkpt>
      <trkpt lat="42.9634720" lon="-3.2522230">
        <ele>620.3</ele>
        <time>2018-10-21T09:04:18Z</time>
      </trkpt>
      <trkpt lat="42.9635070" lon="-3.2521520">
        <ele>622.3</ele>
        <time>2018-10-21T09:04:19Z</time>
      </trkpt>
      <trkpt lat="42.9635430" lon="-3.2520820">
        <ele>622.3</ele>
        <time>2018-10-21T09:04:20Z</time>
      </trkpt>
      <trkpt lat="42.9635820" lon="-3.2520130">
        <ele>622.3</ele>
        <time>2018-10-21T09:04:21Z</time>
      </trkpt>
      <trkpt lat="42.9636180" lon="-3.2519430">
        <ele>622.3</ele>
        <time>2018-10-21T09:04:22Z</time>
      </trkpt>
      <trkpt lat="42.9636530" lon="-3.2518700">
        <ele>622.3</ele>
        <time>2018-10-21T09:04:23Z</time>
      </trkpt>
      <trkpt lat="42.9636900" lon="-3.2517970">
        <ele>622.3</ele>
        <time>2018-10-21T09:04:24Z</time>
      </trkpt>
      <trkpt lat="42.9637270" lon="-3.2517230">
        <ele>622.3</ele>
        <time>2018-10-21T09:04:25Z</time>
      </trkpt>
      <trkpt lat="42.9637630" lon="-3.2516500">
        <ele>622.3</ele>
        <time>2018-10-21T09:04:26Z</time>
      </trkpt>
      <trkpt lat="42.9638000" lon="-3.2515780">
        <ele>622.3</ele>
        <time>2018-10-21T09:04:27Z</time>
      </trkpt>
      <trkpt lat="42.9638370" lon="-3.2515070">
        <ele>622.3</ele>
        <time>2018-10-21T09:04:28Z</time>
      </trkpt>
      <trkpt lat="42.9638750" lon="-3.2514330">
        <ele>622.3</ele>
        <time>2018-10-21T09:04:29Z</time>
      </trkpt>
      <trkpt lat="42.9639130" lon="-3.2513620">
        <ele>622.3</ele>
        <time>2018-10-21T09:04:30Z</time>
      </trkpt>
      <trkpt lat="42.9639500" lon="-3.2512900">
        <ele>622.3</ele>
        <time>2018-10-21T09:04:31Z</time>
      </trkpt>
      <trkpt lat="42.9639870" lon="-3.2512180">
        <ele>622.3</ele>
        <time>2018-10-21T09:04:32Z</time>
      </trkpt>
      <trkpt lat="42.9640230" lon="-3.2511470">
        <ele>622.3</ele>
        <time>2018-10-21T09:04:33Z</time>
      </trkpt>
      <trkpt lat="42.9640600" lon="-3.2510780">
        <ele>622.3</ele>
        <time>2018-10-21T09:04:34Z</time>
      </trkpt>
      <trkpt lat="42.9640930" lon="-3.2510070">
        <ele>622.3</ele>
        <time>2018-10-21T09:04:35Z</time>
      </trkpt>
      <trkpt lat="42.9641280" lon="-3.2509380">
        <ele>622.3</ele>
        <time>2018-10-21T09:04:36Z</time>
      </trkpt>
      <trkpt lat="42.9641630" lon="-3.2508680">
        <ele>622.3</ele>
        <time>2018-10-21T09:04:37Z</time>
      </trkpt>
      <trkpt lat="42.9642000" lon="-3.2508000">
        <ele>622.3</ele>
        <time>2018-10-21T09:04:38Z</time>
      </trkpt>
      <trkpt lat="42.9642370" lon="-3.2507300">
        <ele>622.3</ele>
        <time>2018-10-21T09:04:39Z</time>
      </trkpt>
      <trkpt lat="42.9642720" lon="-3.2506620">
        <ele>622.3</ele>
        <time>2018-10-21T09:04:40Z</time>
      </trkpt>
      <trkpt lat="42.9643080" lon="-3.2505900">
        <ele>622.3</ele>
        <time>2018-10-21T09:04:41Z</time>
      </trkpt>
      <trkpt lat="42.9643430" lon="-3.2505180">
        <ele>622.3</ele>
        <time>2018-10-21T09:04:42Z</time>
      </trkpt>
      <trkpt lat="42.9643770" lon="-3.2504450">
        <ele>622.3</ele>
        <time>2018-10-21T09:04:43Z</time>
      </trkpt>
      <trkpt lat="42.9644120" lon="-3.2503730">
        <ele>622.3</ele>
        <time>2018-10-21T09:04:44Z</time>
      </trkpt>
      <trkpt lat="42.9644480" lon="-3.2503020">
        <ele>624.2</ele>
        <time>2018-10-21T09:04:45Z</time>
      </trkpt>
      <trkpt lat="42.9644850" lon="-3.2502320">
        <ele>624.2</ele>
        <time>2018-10-21T09:04:46Z</time>
      </trkpt>
      <trkpt lat="42.9645180" lon="-3.2501600">
        <ele>624.2</ele>
        <time>2018-10-21T09:04:47Z</time>
      </trkpt>
      <trkpt lat="42.9645530" lon="-3.2500900">
        <ele>624.2</ele>
        <time>2018-10-21T09:04:48Z</time>
      </trkpt>
      <trkpt lat="42.9645880" lon="-3.2500200">
        <ele>624.2</ele>
        <time>2018-10-21T09:04:49Z</time>
      </trkpt>
      <trkpt lat="42.9646230" lon="-3.2499500">
        <ele>624.2</ele>
        <time>2018-10-21T09:04:50Z</time>
      </trkpt>
      <trkpt lat="42.9646600" lon="-3.2498800">
        <ele>624.2</ele>
        <time>2018-10-21T09:04:51Z</time>
      </trkpt>
      <trkpt lat="42.9646970" lon="-3.2498100">
        <ele>624.2</ele>
        <time>2018-10-21T09:04:52Z</time>
      </trkpt>
      <trkpt lat="42.9647320" lon="-3.2497400">
        <ele>624.2</ele>
        <time>2018-10-21T09:04:53Z</time>
      </trkpt>
      <trkpt lat="42.9647670" lon="-3.2496700">
        <ele>624.2</ele>
        <time>2018-10-21T09:04:54Z</time>
      </trkpt>
      <trkpt lat="42.9648020" lon="-3.2495980">
        <ele>624.2</ele>
        <time>2018-10-21T09:04:55Z</time>
      </trkpt>
      <trkpt lat="42.9648370" lon="-3.2495250">
        <ele>624.2</ele>
        <time>2018-10-21T09:04:56Z</time>
      </trkpt>
      <trkpt lat="42.9648720" lon="-3.2494520">
        <ele>625.3</ele>
        <time>2018-10-21T09:04:57Z</time>
      </trkpt>
      <trkpt lat="42.9649070" lon="-3.2493780">
        <ele>625.3</ele>
        <time>2018-10-21T09:04:58Z</time>
      </trkpt>
      <trkpt lat="42.9649430" lon="-3.2493030">
        <ele>625.3</ele>
        <time>2018-10-21T09:04:59Z</time>
      </trkpt>
      <trkpt lat="42.9649800" lon="-3.2492280">
        <ele>625.3</ele>
        <time>2018-10-21T09:05:00Z</time>
      </trkpt>
      <trkpt lat="42.9650130" lon="-3.2491520">
        <ele>625.3</ele>
        <time>2018-10-21T09:05:01Z</time>
      </trkpt>
      <trkpt lat="42.9650470" lon="-3.2490720">
        <ele>625.3</ele>
        <time>2018-10-21T09:05:02Z</time>
      </trkpt>
      <trkpt lat="42.9650820" lon="-3.2489930">
        <ele>625.3</ele>
        <time>2018-10-21T09:05:03Z</time>
      </trkpt>
      <trkpt lat="42.9651180" lon="-3.2489150">
        <ele>625.3</ele>
        <time>2018-10-21T09:05:04Z</time>
      </trkpt>
      <trkpt lat="42.9651550" lon="-3.2488330">
        <ele>625.3</ele>
        <time>2018-10-21T09:05:05Z</time>
      </trkpt>
      <trkpt lat="42.9651920" lon="-3.2487530">
        <ele>625.3</ele>
        <time>2018-10-21T09:05:06Z</time>
      </trkpt>
      <trkpt lat="42.9652280" lon="-3.2486700">
        <ele>625.3</ele>
        <time>2018-10-21T09:05:07Z</time>
      </trkpt>
      <trkpt lat="42.9652650" lon="-3.2485880">
        <ele>625.3</ele>
        <time>2018-10-21T09:05:08Z</time>
      </trkpt>
      <trkpt lat="42.9653030" lon="-3.2485070">
        <ele>624.2</ele>
        <time>2018-10-21T09:05:09Z</time>
      </trkpt>
      <trkpt lat="42.9653420" lon="-3.2484220">
        <ele>624.2</ele>
        <time>2018-10-21T09:05:10Z</time>
      </trkpt>
      <trkpt lat="42.9653800" lon="-3.2483370">
        <ele>624.2</ele>
        <time>2018-10-21T09:05:11Z</time>
      </trkpt>
      <trkpt lat="42.9654180" lon="-3.2482520">
        <ele>624.2</ele>
        <time>2018-10-21T09:05:12Z</time>
      </trkpt>
      <trkpt lat="42.9654570" lon="-3.2481650">
        <ele>624.2</ele>
        <time>2018-10-21T09:05:13Z</time>
      </trkpt>
      <trkpt lat="42.9654950" lon="-3.2480780">
        <ele>624.2</ele>
        <time>2018-10-21T09:05:14Z</time>
      </trkpt>
      <trkpt lat="42.9655350" lon="-3.2479900">
        <ele>624.2</ele>
        <time>2018-10-21T09:05:15Z</time>
      </trkpt>
      <trkpt lat="42.9655770" lon="-3.2479020">
        <ele>624.2</ele>
        <time>2018-10-21T09:05:16Z</time>
      </trkpt>
      <trkpt lat="42.9656170" lon="-3.2478100">
        <ele>624.2</ele>
        <time>2018-10-21T09:05:17Z</time>
      </trkpt>
      <trkpt lat="42.9656570" lon="-3.2477200">
        <ele>624.2</ele>
        <time>2018-10-21T09:05:18Z</time>
      </trkpt>
      <trkpt lat="42.9656980" lon="-3.2476280">
        <ele>624.2</ele>
        <time>2018-10-21T09:05:19Z</time>
      </trkpt>
      <trkpt lat="42.9657380" lon="-3.2475380">
        <ele>624.2</ele>
        <time>2018-10-21T09:05:20Z</time>
      </trkpt>
      <trkpt lat="42.9657780" lon="-3.2474470">
        <ele>624.2</ele>
        <time>2018-10-21T09:05:21Z</time>
      </trkpt>
      <trkpt lat="42.9658200" lon="-3.2473570">
        <ele>624.2</ele>
        <time>2018-10-21T09:05:22Z</time>
      </trkpt>
      <trkpt lat="42.9658600" lon="-3.2472670">
        <ele>623.2</ele>
        <time>2018-10-21T09:05:23Z</time>
      </trkpt>
      <trkpt lat="42.9659020" lon="-3.2471750">
        <ele>623.2</ele>
        <time>2018-10-21T09:05:24Z</time>
      </trkpt>
      <trkpt lat="42.9659430" lon="-3.2470830">
        <ele>623.2</ele>
        <time>2018-10-21T09:05:25Z</time>
      </trkpt>
      <trkpt lat="42.9659850" lon="-3.2469930">
        <ele>623.2</ele>
        <time>2018-10-21T09:05:26Z</time>
      </trkpt>
      <trkpt lat="42.9660250" lon="-3.2469030">
        <ele>623.2</ele>
        <time>2018-10-21T09:05:27Z</time>
      </trkpt>
      <trkpt lat="42.9660650" lon="-3.2468170">
        <ele>623.2</ele>
        <time>2018-10-21T09:05:28Z</time>
      </trkpt>
      <trkpt lat="42.9661050" lon="-3.2467280">
        <ele>623.2</ele>
        <time>2018-10-21T09:05:29Z</time>
      </trkpt>
      <trkpt lat="42.9661450" lon="-3.2466420">
        <ele>623.2</ele>
        <time>2018-10-21T09:05:30Z</time>
      </trkpt>
      <trkpt lat="42.9661830" lon="-3.2465530">
        <ele>623.2</ele>
        <time>2018-10-21T09:05:31Z</time>
      </trkpt>
      <trkpt lat="42.9662220" lon="-3.2464680">
        <ele>623.2</ele>
        <time>2018-10-21T09:05:32Z</time>
      </trkpt>
      <trkpt lat="42.9662620" lon="-3.2463820">
        <ele>623.2</ele>
        <time>2018-10-21T09:05:33Z</time>
      </trkpt>
      <trkpt lat="42.9663000" lon="-3.2462970">
        <ele>623.2</ele>
        <time>2018-10-21T09:05:34Z</time>
      </trkpt>
      <trkpt lat="42.9663400" lon="-3.2462100">
        <ele>622.3</ele>
        <time>2018-10-21T09:05:35Z</time>
      </trkpt>
      <trkpt lat="42.9663780" lon="-3.2461250">
        <ele>622.3</ele>
        <time>2018-10-21T09:05:36Z</time>
      </trkpt>
      <trkpt lat="42.9664170" lon="-3.2460400">
        <ele>623.2</ele>
        <time>2018-10-21T09:05:37Z</time>
      </trkpt>
      <trkpt lat="42.9664550" lon="-3.2459550">
        <ele>623.2</ele>
        <time>2018-10-21T09:05:38Z</time>
      </trkpt>
      <trkpt lat="42.9664930" lon="-3.2458700">
        <ele>623.2</ele>
        <time>2018-10-21T09:05:39Z</time>
      </trkpt>
      <trkpt lat="42.9665320" lon="-3.2457850">
        <ele>623.2</ele>
        <time>2018-10-21T09:05:40Z</time>
      </trkpt>
      <trkpt lat="42.9665720" lon="-3.2457000">
        <ele>622.3</ele>
        <time>2018-10-21T09:05:41Z</time>
      </trkpt>
      <trkpt lat="42.9666100" lon="-3.2456170">
        <ele>622.3</ele>
        <time>2018-10-21T09:05:42Z</time>
      </trkpt>
      <trkpt lat="42.9666480" lon="-3.2455300">
        <ele>622.3</ele>
        <time>2018-10-21T09:05:43Z</time>
      </trkpt>
      <trkpt lat="42.9666870" lon="-3.2454450">
        <ele>622.3</ele>
        <time>2018-10-21T09:05:44Z</time>
      </trkpt>
      <trkpt lat="42.9667270" lon="-3.2453600">
        <ele>622.3</ele>
        <time>2018-10-21T09:05:45Z</time>
      </trkpt>
      <trkpt lat="42.9667650" lon="-3.2452770">
        <ele>622.3</ele>
        <time>2018-10-21T09:05:46Z</time>
      </trkpt>
      <trkpt lat="42.9668030" lon="-3.2451900">
        <ele>622.3</ele>
        <time>2018-10-21T09:05:47Z</time>
      </trkpt>
      <trkpt lat="42.9668420" lon="-3.2451050">
        <ele>622.3</ele>
        <time>2018-10-21T09:05:48Z</time>
      </trkpt>
      <trkpt lat="42.9668800" lon="-3.2450200">
        <ele>622.3</ele>
        <time>2018-10-21T09:05:49Z</time>
      </trkpt>
      <trkpt lat="42.9669180" lon="-3.2449350">
        <ele>622.3</ele>
        <time>2018-10-21T09:05:50Z</time>
      </trkpt>
      <trkpt lat="42.9669570" lon="-3.2448500">
        <ele>622.3</ele>
        <time>2018-10-21T09:05:51Z</time>
      </trkpt>
      <trkpt lat="42.9669930" lon="-3.2447670">
        <ele>622.3</ele>
        <time>2018-10-21T09:05:52Z</time>
      </trkpt>
      <trkpt lat="42.9670320" lon="-3.2446830">
        <ele>622.3</ele>
        <time>2018-10-21T09:05:53Z</time>
      </trkpt>
      <trkpt lat="42.9670700" lon="-3.2446020">
        <ele>622.3</ele>
        <time>2018-10-21T09:05:54Z</time>
      </trkpt>
      <trkpt lat="42.9671080" lon="-3.2445200">
        <ele>622.3</ele>
        <time>2018-10-21T09:05:55Z</time>
      </trkpt>
      <trkpt lat="42.9671450" lon="-3.2444370">
        <ele>622.3</ele>
        <time>2018-10-21T09:05:56Z</time>
      </trkpt>
      <trkpt lat="42.9671830" lon="-3.2443520">
        <ele>622.3</ele>
        <time>2018-10-21T09:05:57Z</time>
      </trkpt>
      <trkpt lat="42.9672200" lon="-3.2442700">
        <ele>622.3</ele>
        <time>2018-10-21T09:05:58Z</time>
      </trkpt>
      <trkpt lat="42.9672580" lon="-3.2441870">
        <ele>622.3</ele>
        <time>2018-10-21T09:05:59Z</time>
      </trkpt>
      <trkpt lat="42.9672950" lon="-3.2441050">
        <ele>622.3</ele>
        <time>2018-10-21T09:06:00Z</time>
      </trkpt>
      <trkpt lat="42.9673330" lon="-3.2440220">
        <ele>622.3</ele>
        <time>2018-10-21T09:06:01Z</time>
      </trkpt>
      <trkpt lat="42.9673720" lon="-3.2439400">
        <ele>622.3</ele>
        <time>2018-10-21T09:06:02Z</time>
      </trkpt>
      <trkpt lat="42.9674080" lon="-3.2438570">
        <ele>622.3</ele>
        <time>2018-10-21T09:06:03Z</time>
      </trkpt>
      <trkpt lat="42.9674450" lon="-3.2437750">
        <ele>622.3</ele>
        <time>2018-10-21T09:06:04Z</time>
      </trkpt>
      <trkpt lat="42.9674830" lon="-3.2436930">
        <ele>621.2</ele>
        <time>2018-10-21T09:06:05Z</time>
      </trkpt>
      <trkpt lat="42.9675220" lon="-3.2436100">
        <ele>621.2</ele>
        <time>2018-10-21T09:06:06Z</time>
      </trkpt>
      <trkpt lat="42.9675600" lon="-3.2435270">
        <ele>622.3</ele>
        <time>2018-10-21T09:06:07Z</time>
      </trkpt>
      <trkpt lat="42.9675970" lon="-3.2434430">
        <ele>622.3</ele>
        <time>2018-10-21T09:06:08Z</time>
      </trkpt>
      <trkpt lat="42.9676350" lon="-3.2433600">
        <ele>622.3</ele>
        <time>2018-10-21T09:06:09Z</time>
      </trkpt>
      <trkpt lat="42.9676730" lon="-3.2432770">
        <ele>622.3</ele>
        <time>2018-10-21T09:06:10Z</time>
      </trkpt>
      <trkpt lat="42.9677120" lon="-3.2431930">
        <ele>622.3</ele>
        <time>2018-10-21T09:06:11Z</time>
      </trkpt>
      <trkpt lat="42.9677500" lon="-3.2431120">
        <ele>622.3</ele>
        <time>2018-10-21T09:06:12Z</time>
      </trkpt>
      <trkpt lat="42.9677870" lon="-3.2430280">
        <ele>622.3</ele>
        <time>2018-10-21T09:06:13Z</time>
      </trkpt>
      <trkpt lat="42.9678250" lon="-3.2429470">
        <ele>622.3</ele>
        <time>2018-10-21T09:06:14Z</time>
      </trkpt>
      <trkpt lat="42.9678620" lon="-3.2428650">
        <ele>622.3</ele>
        <time>2018-10-21T09:06:15Z</time>
      </trkpt>
      <trkpt lat="42.9678980" lon="-3.2427830">
        <ele>622.3</ele>
        <time>2018-10-21T09:06:16Z</time>
      </trkpt>
      <trkpt lat="42.9679370" lon="-3.2427050">
        <ele>621.2</ele>
        <time>2018-10-21T09:06:17Z</time>
      </trkpt>
      <trkpt lat="42.9679720" lon="-3.2426250">
        <ele>621.2</ele>
        <time>2018-10-21T09:06:18Z</time>
      </trkpt>
      <trkpt lat="42.9680070" lon="-3.2425450">
        <ele>621.2</ele>
        <time>2018-10-21T09:06:19Z</time>
      </trkpt>
      <trkpt lat="42.9680430" lon="-3.2424700">
        <ele>621.2</ele>
        <time>2018-10-21T09:06:20Z</time>
      </trkpt>
      <trkpt lat="42.9680780" lon="-3.2423930">
        <ele>622.3</ele>
        <time>2018-10-21T09:06:21Z</time>
      </trkpt>
      <trkpt lat="42.9681130" lon="-3.2423170">
        <ele>622.3</ele>
        <time>2018-10-21T09:06:22Z</time>
      </trkpt>
      <trkpt lat="42.9681480" lon="-3.2422400">
        <ele>622.3</ele>
        <time>2018-10-21T09:06:23Z</time>
      </trkpt>
      <trkpt lat="42.9681830" lon="-3.2421650">
        <ele>622.3</ele>
        <time>2018-10-21T09:06:24Z</time>
      </trkpt>
      <trkpt lat="42.9682180" lon="-3.2420880">
        <ele>622.3</ele>
        <time>2018-10-21T09:06:25Z</time>
      </trkpt>
      <trkpt lat="42.9682530" lon="-3.2420100">
        <ele>622.3</ele>
        <time>2018-10-21T09:06:26Z</time>
      </trkpt>
      <trkpt lat="42.9682880" lon="-3.2419320">
        <ele>622.3</ele>
        <time>2018-10-21T09:06:27Z</time>
      </trkpt>
      <trkpt lat="42.9683250" lon="-3.2418530">
        <ele>622.3</ele>
        <time>2018-10-21T09:06:28Z</time>
      </trkpt>
      <trkpt lat="42.9683620" lon="-3.2417750">
        <ele>623.2</ele>
        <time>2018-10-21T09:06:29Z</time>
      </trkpt>
      <trkpt lat="42.9683980" lon="-3.2416980">
        <ele>623.2</ele>
        <time>2018-10-21T09:06:30Z</time>
      </trkpt>
      <trkpt lat="42.9684330" lon="-3.2416180">
        <ele>623.2</ele>
        <time>2018-10-21T09:06:31Z</time>
      </trkpt>
      <trkpt lat="42.9684680" lon="-3.2415430">
        <ele>623.2</ele>
        <time>2018-10-21T09:06:32Z</time>
      </trkpt>
      <trkpt lat="42.9685050" lon="-3.2414670">
        <ele>623.2</ele>
        <time>2018-10-21T09:06:33Z</time>
      </trkpt>
      <trkpt lat="42.9685380" lon="-3.2413880">
        <ele>623.2</ele>
        <time>2018-10-21T09:06:34Z</time>
      </trkpt>
      <trkpt lat="42.9685730" lon="-3.2413080">
        <ele>623.2</ele>
        <time>2018-10-21T09:06:35Z</time>
      </trkpt>
      <trkpt lat="42.9686070" lon="-3.2412280">
        <ele>623.2</ele>
        <time>2018-10-21T09:06:36Z</time>
      </trkpt>
      <trkpt lat="42.9686420" lon="-3.2411500">
        <ele>623.2</ele>
        <time>2018-10-21T09:06:37Z</time>
      </trkpt>
      <trkpt lat="42.9686780" lon="-3.2410720">
        <ele>623.2</ele>
        <time>2018-10-21T09:06:38Z</time>
      </trkpt>
      <trkpt lat="42.9687170" lon="-3.2409930">
        <ele>623.2</ele>
        <time>2018-10-21T09:06:39Z</time>
      </trkpt>
      <trkpt lat="42.9687530" lon="-3.2409130">
        <ele>623.2</ele>
        <time>2018-10-21T09:06:40Z</time>
      </trkpt>
      <trkpt lat="42.9687880" lon="-3.2408330">
        <ele>623.2</ele>
        <time>2018-10-21T09:06:41Z</time>
      </trkpt>
      <trkpt lat="42.9688250" lon="-3.2407530">
        <ele>623.2</ele>
        <time>2018-10-21T09:06:42Z</time>
      </trkpt>
      <trkpt lat="42.9688600" lon="-3.2406750">
        <ele>623.2</ele>
        <time>2018-10-21T09:06:43Z</time>
      </trkpt>
      <trkpt lat="42.9688970" lon="-3.2405930">
        <ele>623.2</ele>
        <time>2018-10-21T09:06:44Z</time>
      </trkpt>
      <trkpt lat="42.9689330" lon="-3.2405130">
        <ele>623.2</ele>
        <time>2018-10-21T09:06:45Z</time>
      </trkpt>
      <trkpt lat="42.9689700" lon="-3.2404300">
        <ele>623.2</ele>
        <time>2018-10-21T09:06:46Z</time>
      </trkpt>
      <trkpt lat="42.9690070" lon="-3.2403480">
        <ele>623.2</ele>
        <time>2018-10-21T09:06:47Z</time>
      </trkpt>
      <trkpt lat="42.9690430" lon="-3.2402650">
        <ele>623.2</ele>
        <time>2018-10-21T09:06:48Z</time>
      </trkpt>
      <trkpt lat="42.9690820" lon="-3.2401830">
        <ele>623.2</ele>
        <time>2018-10-21T09:06:49Z</time>
      </trkpt>
      <trkpt lat="42.9691180" lon="-3.2401020">
        <ele>623.2</ele>
        <time>2018-10-21T09:06:50Z</time>
      </trkpt>
      <trkpt lat="42.9691550" lon="-3.2400200">
        <ele>623.2</ele>
        <time>2018-10-21T09:06:51Z</time>
      </trkpt>
      <trkpt lat="42.9691930" lon="-3.2399380">
        <ele>623.2</ele>
        <time>2018-10-21T09:06:52Z</time>
      </trkpt>
      <trkpt lat="42.9692320" lon="-3.2398570">
        <ele>624.2</ele>
        <time>2018-10-21T09:06:53Z</time>
      </trkpt>
      <trkpt lat="42.9692680" lon="-3.2397730">
        <ele>624.2</ele>
        <time>2018-10-21T09:06:54Z</time>
      </trkpt>
      <trkpt lat="42.9693030" lon="-3.2396900">
        <ele>624.2</ele>
        <time>2018-10-21T09:06:55Z</time>
      </trkpt>
      <trkpt lat="42.9693420" lon="-3.2396080">
        <ele>624.2</ele>
        <time>2018-10-21T09:06:56Z</time>
      </trkpt>
      <trkpt lat="42.9693800" lon="-3.2395250">
        <ele>624.2</ele>
        <time>2018-10-21T09:06:57Z</time>
      </trkpt>
      <trkpt lat="42.9694180" lon="-3.2394400">
        <ele>624.2</ele>
        <time>2018-10-21T09:06:58Z</time>
      </trkpt>
      <trkpt lat="42.9694550" lon="-3.2393550">
        <ele>624.2</ele>
        <time>2018-10-21T09:06:59Z</time>
      </trkpt>
      <trkpt lat="42.9694920" lon="-3.2392680">
        <ele>624.2</ele>
        <time>2018-10-21T09:07:00Z</time>
      </trkpt>
      <trkpt lat="42.9695300" lon="-3.2391820">
        <ele>624.2</ele>
        <time>2018-10-21T09:07:01Z</time>
      </trkpt>
      <trkpt lat="42.9695680" lon="-3.2390950">
        <ele>624.2</ele>
        <time>2018-10-21T09:07:02Z</time>
      </trkpt>
      <trkpt lat="42.9696070" lon="-3.2390100">
        <ele>624.2</ele>
        <time>2018-10-21T09:07:03Z</time>
      </trkpt>
      <trkpt lat="42.9696470" lon="-3.2389270">
        <ele>624.2</ele>
        <time>2018-10-21T09:07:04Z</time>
      </trkpt>
      <trkpt lat="42.9696900" lon="-3.2388430">
        <ele>624.2</ele>
        <time>2018-10-21T09:07:05Z</time>
      </trkpt>
      <trkpt lat="42.9697320" lon="-3.2387620">
        <ele>624.2</ele>
        <time>2018-10-21T09:07:06Z</time>
      </trkpt>
      <trkpt lat="42.9697730" lon="-3.2386820">
        <ele>624.2</ele>
        <time>2018-10-21T09:07:07Z</time>
      </trkpt>
      <trkpt lat="42.9698150" lon="-3.2386020">
        <ele>624.2</ele>
        <time>2018-10-21T09:07:08Z</time>
      </trkpt>
      <trkpt lat="42.9698580" lon="-3.2385230">
        <ele>624.2</ele>
        <time>2018-10-21T09:07:09Z</time>
      </trkpt>
      <trkpt lat="42.9699000" lon="-3.2384450">
        <ele>624.2</ele>
        <time>2018-10-21T09:07:10Z</time>
      </trkpt>
      <trkpt lat="42.9699430" lon="-3.2383680">
        <ele>625.3</ele>
        <time>2018-10-21T09:07:11Z</time>
      </trkpt>
      <trkpt lat="42.9699870" lon="-3.2382930">
        <ele>625.3</ele>
        <time>2018-10-21T09:07:12Z</time>
      </trkpt>
      <trkpt lat="42.9700300" lon="-3.2382170">
        <ele>625.3</ele>
        <time>2018-10-21T09:07:13Z</time>
      </trkpt>
      <trkpt lat="42.9700750" lon="-3.2381420">
        <ele>625.3</ele>
        <time>2018-10-21T09:07:14Z</time>
      </trkpt>
      <trkpt lat="42.9701200" lon="-3.2380620">
        <ele>625.3</ele>
        <time>2018-10-21T09:07:15Z</time>
      </trkpt>
      <trkpt lat="42.9701650" lon="-3.2379830">
        <ele>625.3</ele>
        <time>2018-10-21T09:07:16Z</time>
      </trkpt>
      <trkpt lat="42.9702120" lon="-3.2379030">
        <ele>625.3</ele>
        <time>2018-10-21T09:07:17Z</time>
      </trkpt>
      <trkpt lat="42.9702570" lon="-3.2378250">
        <ele>625.3</ele>
        <time>2018-10-21T09:07:18Z</time>
      </trkpt>
      <trkpt lat="42.9703030" lon="-3.2377450">
        <ele>625.3</ele>
        <time>2018-10-21T09:07:19Z</time>
      </trkpt>
      <trkpt lat="42.9703500" lon="-3.2376670">
        <ele>625.3</ele>
        <time>2018-10-21T09:07:20Z</time>
      </trkpt>
      <trkpt lat="42.9703950" lon="-3.2375880">
        <ele>625.3</ele>
        <time>2018-10-21T09:07:21Z</time>
      </trkpt>
      <trkpt lat="42.9704420" lon="-3.2375080">
        <ele>625.3</ele>
        <time>2018-10-21T09:07:22Z</time>
      </trkpt>
      <trkpt lat="42.9704850" lon="-3.2374280">
        <ele>625.3</ele>
        <time>2018-10-21T09:07:23Z</time>
      </trkpt>
      <trkpt lat="42.9705320" lon="-3.2373480">
        <ele>625.3</ele>
        <time>2018-10-21T09:07:24Z</time>
      </trkpt>
      <trkpt lat="42.9705770" lon="-3.2372700">
        <ele>625.3</ele>
        <time>2018-10-21T09:07:25Z</time>
      </trkpt>
      <trkpt lat="42.9706230" lon="-3.2371900">
        <ele>625.3</ele>
        <time>2018-10-21T09:07:26Z</time>
      </trkpt>
      <trkpt lat="42.9706680" lon="-3.2371100">
        <ele>625.3</ele>
        <time>2018-10-21T09:07:27Z</time>
      </trkpt>
      <trkpt lat="42.9707150" lon="-3.2370300">
        <ele>625.3</ele>
        <time>2018-10-21T09:07:28Z</time>
      </trkpt>
      <trkpt lat="42.9707600" lon="-3.2369520">
        <ele>625.3</ele>
        <time>2018-10-21T09:07:29Z</time>
      </trkpt>
      <trkpt lat="42.9708070" lon="-3.2368730">
        <ele>625.3</ele>
        <time>2018-10-21T09:07:30Z</time>
      </trkpt>
      <trkpt lat="42.9708520" lon="-3.2367970">
        <ele>624.2</ele>
        <time>2018-10-21T09:07:31Z</time>
      </trkpt>
      <trkpt lat="42.9708970" lon="-3.2367180">
        <ele>624.2</ele>
        <time>2018-10-21T09:07:32Z</time>
      </trkpt>
      <trkpt lat="42.9709420" lon="-3.2366420">
        <ele>624.2</ele>
        <time>2018-10-21T09:07:33Z</time>
      </trkpt>
      <trkpt lat="42.9709830" lon="-3.2365650">
        <ele>624.2</ele>
        <time>2018-10-21T09:07:34Z</time>
      </trkpt>
      <trkpt lat="42.9710270" lon="-3.2364880">
        <ele>624.2</ele>
        <time>2018-10-21T09:07:35Z</time>
      </trkpt>
      <trkpt lat="42.9710700" lon="-3.2364130">
        <ele>624.2</ele>
        <time>2018-10-21T09:07:36Z</time>
      </trkpt>
      <trkpt lat="42.9711130" lon="-3.2363380">
        <ele>625.3</ele>
        <time>2018-10-21T09:07:37Z</time>
      </trkpt>
      <trkpt lat="42.9711570" lon="-3.2362630">
        <ele>625.3</ele>
        <time>2018-10-21T09:07:38Z</time>
      </trkpt>
      <trkpt lat="42.9712000" lon="-3.2361880">
        <ele>625.3</ele>
        <time>2018-10-21T09:07:39Z</time>
      </trkpt>
      <trkpt lat="42.9712430" lon="-3.2361130">
        <ele>625.3</ele>
        <time>2018-10-21T09:07:40Z</time>
      </trkpt>
      <trkpt lat="42.9712870" lon="-3.2360380">
        <ele>625.3</ele>
        <time>2018-10-21T09:07:41Z</time>
      </trkpt>
      <trkpt lat="42.9713280" lon="-3.2359630">
        <ele>625.3</ele>
        <time>2018-10-21T09:07:42Z</time>
      </trkpt>
      <trkpt lat="42.9713720" lon="-3.2358880">
        <ele>625.3</ele>
        <time>2018-10-21T09:07:43Z</time>
      </trkpt>
      <trkpt lat="42.9714150" lon="-3.2358130">
        <ele>625.3</ele>
        <time>2018-10-21T09:07:44Z</time>
      </trkpt>
      <trkpt lat="42.9714570" lon="-3.2357380">
        <ele>625.3</ele>
        <time>2018-10-21T09:07:45Z</time>
      </trkpt>
      <trkpt lat="42.9714980" lon="-3.2356650">
        <ele>625.3</ele>
        <time>2018-10-21T09:07:46Z</time>
      </trkpt>
      <trkpt lat="42.9715400" lon="-3.2355930">
        <ele>625.3</ele>
        <time>2018-10-21T09:07:47Z</time>
      </trkpt>
      <trkpt lat="42.9715820" lon="-3.2355200">
        <ele>625.3</ele>
        <time>2018-10-21T09:07:48Z</time>
      </trkpt>
      <trkpt lat="42.9716250" lon="-3.2354480">
        <ele>625.3</ele>
        <time>2018-10-21T09:07:49Z</time>
      </trkpt>
      <trkpt lat="42.9716670" lon="-3.2353770">
        <ele>625.3</ele>
        <time>2018-10-21T09:07:50Z</time>
      </trkpt>
      <trkpt lat="42.9717080" lon="-3.2353030">
        <ele>625.3</ele>
        <time>2018-10-21T09:07:51Z</time>
      </trkpt>
      <trkpt lat="42.9717520" lon="-3.2352320">
        <ele>625.3</ele>
        <time>2018-10-21T09:07:52Z</time>
      </trkpt>
      <trkpt lat="42.9717950" lon="-3.2351630">
        <ele>625.3</ele>
        <time>2018-10-21T09:07:53Z</time>
      </trkpt>
      <trkpt lat="42.9718370" lon="-3.2350950">
        <ele>625.3</ele>
        <time>2018-10-21T09:07:54Z</time>
      </trkpt>
      <trkpt lat="42.9718780" lon="-3.2350250">
        <ele>625.3</ele>
        <time>2018-10-21T09:07:55Z</time>
      </trkpt>
      <trkpt lat="42.9719170" lon="-3.2349550">
        <ele>625.3</ele>
        <time>2018-10-21T09:07:56Z</time>
      </trkpt>
      <trkpt lat="42.9719550" lon="-3.2348850">
        <ele>625.3</ele>
        <time>2018-10-21T09:07:57Z</time>
      </trkpt>
      <trkpt lat="42.9719920" lon="-3.2348130">
        <ele>625.3</ele>
        <time>2018-10-21T09:07:58Z</time>
      </trkpt>
      <trkpt lat="42.9720280" lon="-3.2347450">
        <ele>625.3</ele>
        <time>2018-10-21T09:07:59Z</time>
      </trkpt>
      <trkpt lat="42.9720670" lon="-3.2346750">
        <ele>625.3</ele>
        <time>2018-10-21T09:08:00Z</time>
      </trkpt>
      <trkpt lat="42.9721050" lon="-3.2346070">
        <ele>625.3</ele>
        <time>2018-10-21T09:08:01Z</time>
      </trkpt>
      <trkpt lat="42.9721430" lon="-3.2345380">
        <ele>625.3</ele>
        <time>2018-10-21T09:08:02Z</time>
      </trkpt>
      <trkpt lat="42.9721820" lon="-3.2344700">
        <ele>625.3</ele>
        <time>2018-10-21T09:08:03Z</time>
      </trkpt>
      <trkpt lat="42.9722200" lon="-3.2344030">
        <ele>625.3</ele>
        <time>2018-10-21T09:08:04Z</time>
      </trkpt>
      <trkpt lat="42.9722600" lon="-3.2343350">
        <ele>625.3</ele>
        <time>2018-10-21T09:08:05Z</time>
      </trkpt>
      <trkpt lat="42.9722980" lon="-3.2342680">
        <ele>625.3</ele>
        <time>2018-10-21T09:08:06Z</time>
      </trkpt>
      <trkpt lat="42.9723370" lon="-3.2342000">
        <ele>625.3</ele>
        <time>2018-10-21T09:08:07Z</time>
      </trkpt>
      <trkpt lat="42.9723780" lon="-3.2341330">
        <ele>625.3</ele>
        <time>2018-10-21T09:08:08Z</time>
      </trkpt>
      <trkpt lat="42.9724170" lon="-3.2340650">
        <ele>625.3</ele>
        <time>2018-10-21T09:08:09Z</time>
      </trkpt>
      <trkpt lat="42.9724530" lon="-3.2339930">
        <ele>625.3</ele>
        <time>2018-10-21T09:08:10Z</time>
      </trkpt>
      <trkpt lat="42.9724900" lon="-3.2339220">
        <ele>625.3</ele>
        <time>2018-10-21T09:08:11Z</time>
      </trkpt>
      <trkpt lat="42.9725270" lon="-3.2338500">
        <ele>625.3</ele>
        <time>2018-10-21T09:08:12Z</time>
      </trkpt>
      <trkpt lat="42.9725620" lon="-3.2337770">
        <ele>625.3</ele>
        <time>2018-10-21T09:08:13Z</time>
      </trkpt>
      <trkpt lat="42.9725980" lon="-3.2337050">
        <ele>625.3</ele>
        <time>2018-10-21T09:08:14Z</time>
      </trkpt>
      <trkpt lat="42.9726330" lon="-3.2336320">
        <ele>625.3</ele>
        <time>2018-10-21T09:08:15Z</time>
      </trkpt>
      <trkpt lat="42.9726700" lon="-3.2335600">
        <ele>625.3</ele>
        <time>2018-10-21T09:08:16Z</time>
      </trkpt>
      <trkpt lat="42.9727070" lon="-3.2334880">
        <ele>625.3</ele>
        <time>2018-10-21T09:08:17Z</time>
      </trkpt>
      <trkpt lat="42.9727420" lon="-3.2334150">
        <ele>625.3</ele>
        <time>2018-10-21T09:08:18Z</time>
      </trkpt>
      <trkpt lat="42.9727780" lon="-3.2333430">
        <ele>625.3</ele>
        <time>2018-10-21T09:08:19Z</time>
      </trkpt>
      <trkpt lat="42.9728130" lon="-3.2332720">
        <ele>625.3</ele>
        <time>2018-10-21T09:08:20Z</time>
      </trkpt>
      <trkpt lat="42.9728480" lon="-3.2332000">
        <ele>625.3</ele>
        <time>2018-10-21T09:08:21Z</time>
      </trkpt>
      <trkpt lat="42.9728830" lon="-3.2331300">
        <ele>625.3</ele>
        <time>2018-10-21T09:08:22Z</time>
      </trkpt>
      <trkpt lat="42.9729180" lon="-3.2330600">
        <ele>625.3</ele>
        <time>2018-10-21T09:08:23Z</time>
      </trkpt>
      <trkpt lat="42.9729550" lon="-3.2329920">
        <ele>625.3</ele>
        <time>2018-10-21T09:08:24Z</time>
      </trkpt>
      <trkpt lat="42.9729920" lon="-3.2329220">
        <ele>625.3</ele>
        <time>2018-10-21T09:08:25Z</time>
      </trkpt>
      <trkpt lat="42.9730250" lon="-3.2328520">
        <ele>625.3</ele>
        <time>2018-10-21T09:08:26Z</time>
      </trkpt>
      <trkpt lat="42.9730620" lon="-3.2327830">
        <ele>625.3</ele>
        <time>2018-10-21T09:08:27Z</time>
      </trkpt>
      <trkpt lat="42.9730950" lon="-3.2327150">
        <ele>625.3</ele>
        <time>2018-10-21T09:08:28Z</time>
      </trkpt>
      <trkpt lat="42.9731300" lon="-3.2326480">
        <ele>625.3</ele>
        <time>2018-10-21T09:08:29Z</time>
      </trkpt>
      <trkpt lat="42.9731630" lon="-3.2325800">
        <ele>625.3</ele>
        <time>2018-10-21T09:08:30Z</time>
      </trkpt>
      <trkpt lat="42.9731970" lon="-3.2325120">
        <ele>625.3</ele>
        <time>2018-10-21T09:08:31Z</time>
      </trkpt>
      <trkpt lat="42.9732300" lon="-3.2324420">
        <ele>625.3</ele>
        <time>2018-10-21T09:08:32Z</time>
      </trkpt>
      <trkpt lat="42.9732650" lon="-3.2323730">
        <ele>627.3</ele>
        <time>2018-10-21T09:08:33Z</time>
      </trkpt>
      <trkpt lat="42.9732980" lon="-3.2323050">
        <ele>627.3</ele>
        <time>2018-10-21T09:08:34Z</time>
      </trkpt>
      <trkpt lat="42.9733330" lon="-3.2322370">
        <ele>627.3</ele>
        <time>2018-10-21T09:08:35Z</time>
      </trkpt>
      <trkpt lat="42.9733680" lon="-3.2321670">
        <ele>627.3</ele>
        <time>2018-10-21T09:08:36Z</time>
      </trkpt>
      <trkpt lat="42.9734030" lon="-3.2320980">
        <ele>627.3</ele>
        <time>2018-10-21T09:08:37Z</time>
      </trkpt>
      <trkpt lat="42.9734380" lon="-3.2320300">
        <ele>627.3</ele>
        <time>2018-10-21T09:08:38Z</time>
      </trkpt>
      <trkpt lat="42.9734720" lon="-3.2319600">
        <ele>627.3</ele>
        <time>2018-10-21T09:08:39Z</time>
      </trkpt>
      <trkpt lat="42.9735070" lon="-3.2318920">
        <ele>627.3</ele>
        <time>2018-10-21T09:08:40Z</time>
      </trkpt>
      <trkpt lat="42.9735400" lon="-3.2318230">
        <ele>628.2</ele>
        <time>2018-10-21T09:08:41Z</time>
      </trkpt>
      <trkpt lat="42.9735730" lon="-3.2317550">
        <ele>628.2</ele>
        <time>2018-10-21T09:08:42Z</time>
      </trkpt>
      <trkpt lat="42.9736080" lon="-3.2316900">
        <ele>628.2</ele>
        <time>2018-10-21T09:08:43Z</time>
      </trkpt>
      <trkpt lat="42.9736430" lon="-3.2316230">
        <ele>628.2</ele>
        <time>2018-10-21T09:08:44Z</time>
      </trkpt>
      <trkpt lat="42.9736770" lon="-3.2315570">
        <ele>628.2</ele>
        <time>2018-10-21T09:08:45Z</time>
      </trkpt>
      <trkpt lat="42.9737100" lon="-3.2314900">
        <ele>628.2</ele>
        <time>2018-10-21T09:08:46Z</time>
      </trkpt>
      <trkpt lat="42.9737450" lon="-3.2314230">
        <ele>628.2</ele>
        <time>2018-10-21T09:08:47Z</time>
      </trkpt>
      <trkpt lat="42.9737780" lon="-3.2313580">
        <ele>628.2</ele>
        <time>2018-10-21T09:08:48Z</time>
      </trkpt>
      <trkpt lat="42.9738120" lon="-3.2312930">
        <ele>628.2</ele>
        <time>2018-10-21T09:08:49Z</time>
      </trkpt>
      <trkpt lat="42.9738450" lon="-3.2312280">
        <ele>628.2</ele>
        <time>2018-10-21T09:08:50Z</time>
      </trkpt>
      <trkpt lat="42.9738780" lon="-3.2311630">
        <ele>628.2</ele>
        <time>2018-10-21T09:08:51Z</time>
      </trkpt>
      <trkpt lat="42.9739100" lon="-3.2310980">
        <ele>628.2</ele>
        <time>2018-10-21T09:08:52Z</time>
      </trkpt>
      <trkpt lat="42.9739420" lon="-3.2310320">
        <ele>628.2</ele>
        <time>2018-10-21T09:08:53Z</time>
      </trkpt>
      <trkpt lat="42.9739750" lon="-3.2309680">
        <ele>628.2</ele>
        <time>2018-10-21T09:08:54Z</time>
      </trkpt>
      <trkpt lat="42.9740070" lon="-3.2309070">
        <ele>628.2</ele>
        <time>2018-10-21T09:08:55Z</time>
      </trkpt>
      <trkpt lat="42.9740400" lon="-3.2308430">
        <ele>628.2</ele>
        <time>2018-10-21T09:08:56Z</time>
      </trkpt>
      <trkpt lat="42.9740720" lon="-3.2307800">
        <ele>628.2</ele>
        <time>2018-10-21T09:08:57Z</time>
      </trkpt>
      <trkpt lat="42.9741030" lon="-3.2307170">
        <ele>628.2</ele>
        <time>2018-10-21T09:08:58Z</time>
      </trkpt>
      <trkpt lat="42.9741330" lon="-3.2306530">
        <ele>628.2</ele>
        <time>2018-10-21T09:08:59Z</time>
      </trkpt>
      <trkpt lat="42.9741650" lon="-3.2305900">
        <ele>628.2</ele>
        <time>2018-10-21T09:09:00Z</time>
      </trkpt>
      <trkpt lat="42.9741980" lon="-3.2305270">
        <ele>628.2</ele>
        <time>2018-10-21T09:09:01Z</time>
      </trkpt>
      <trkpt lat="42.9742320" lon="-3.2304630">
        <ele>628.2</ele>
        <time>2018-10-21T09:09:02Z</time>
      </trkpt>
      <trkpt lat="42.9742630" lon="-3.2303980">
        <ele>629.3</ele>
        <time>2018-10-21T09:09:03Z</time>
      </trkpt>
      <trkpt lat="42.9742970" lon="-3.2303320">
        <ele>629.3</ele>
        <time>2018-10-21T09:09:04Z</time>
      </trkpt>
      <trkpt lat="42.9743300" lon="-3.2302670">
        <ele>629.3</ele>
        <time>2018-10-21T09:09:05Z</time>
      </trkpt>
      <trkpt lat="42.9743620" lon="-3.2302020">
        <ele>629.3</ele>
        <time>2018-10-21T09:09:06Z</time>
      </trkpt>
      <trkpt lat="42.9743950" lon="-3.2301350">
        <ele>629.3</ele>
        <time>2018-10-21T09:09:07Z</time>
      </trkpt>
      <trkpt lat="42.9744280" lon="-3.2300700">
        <ele>629.3</ele>
        <time>2018-10-21T09:09:08Z</time>
      </trkpt>
      <trkpt lat="42.9744620" lon="-3.2300050">
        <ele>629.3</ele>
        <time>2018-10-21T09:09:09Z</time>
      </trkpt>
      <trkpt lat="42.9744950" lon="-3.2299400">
        <ele>629.3</ele>
        <time>2018-10-21T09:09:10Z</time>
      </trkpt>
      <trkpt lat="42.9745270" lon="-3.2298730">
        <ele>629.3</ele>
        <time>2018-10-21T09:09:11Z</time>
      </trkpt>
      <trkpt lat="42.9745600" lon="-3.2298080">
        <ele>629.3</ele>
        <time>2018-10-21T09:09:12Z</time>
      </trkpt>
      <trkpt lat="42.9745930" lon="-3.2297430">
        <ele>629.3</ele>
        <time>2018-10-21T09:09:13Z</time>
      </trkpt>
      <trkpt lat="42.9746270" lon="-3.2296770">
        <ele>629.3</ele>
        <time>2018-10-21T09:09:14Z</time>
      </trkpt>
      <trkpt lat="42.9746580" lon="-3.2296100">
        <ele>630.2</ele>
        <time>2018-10-21T09:09:15Z</time>
      </trkpt>
      <trkpt lat="42.9746920" lon="-3.2295450">
        <ele>630.2</ele>
        <time>2018-10-21T09:09:16Z</time>
      </trkpt>
      <trkpt lat="42.9747250" lon="-3.2294800">
        <ele>630.2</ele>
        <time>2018-10-21T09:09:17Z</time>
      </trkpt>
      <trkpt lat="42.9747580" lon="-3.2294150">
        <ele>630.2</ele>
        <time>2018-10-21T09:09:18Z</time>
      </trkpt>
      <trkpt lat="42.9747920" lon="-3.2293480">
        <ele>630.2</ele>
        <time>2018-10-21T09:09:19Z</time>
      </trkpt>
      <trkpt lat="42.9748230" lon="-3.2292820">
        <ele>630.2</ele>
        <time>2018-10-21T09:09:20Z</time>
      </trkpt>
      <trkpt lat="42.9748570" lon="-3.2292170">
        <ele>630.2</ele>
        <time>2018-10-21T09:09:21Z</time>
      </trkpt>
      <trkpt lat="42.9748900" lon="-3.2291500">
        <ele>630.2</ele>
        <time>2018-10-21T09:09:22Z</time>
      </trkpt>
      <trkpt lat="42.9749230" lon="-3.2290850">
        <ele>630.2</ele>
        <time>2018-10-21T09:09:23Z</time>
      </trkpt>
      <trkpt lat="42.9749570" lon="-3.2290180">
        <ele>630.2</ele>
        <time>2018-10-21T09:09:24Z</time>
      </trkpt>
      <trkpt lat="42.9749900" lon="-3.2289520">
        <ele>631.2</ele>
        <time>2018-10-21T09:09:25Z</time>
      </trkpt>
      <trkpt lat="42.9750230" lon="-3.2288870">
        <ele>631.2</ele>
        <time>2018-10-21T09:09:26Z</time>
      </trkpt>
      <trkpt lat="42.9750570" lon="-3.2288200">
        <ele>631.2</ele>
        <time>2018-10-21T09:09:27Z</time>
      </trkpt>
      <trkpt lat="42.9750900" lon="-3.2287550">
        <ele>631.2</ele>
        <time>2018-10-21T09:09:28Z</time>
      </trkpt>
      <trkpt lat="42.9751250" lon="-3.2286900">
        <ele>631.2</ele>
        <time>2018-10-21T09:09:29Z</time>
      </trkpt>
      <trkpt lat="42.9751600" lon="-3.2286230">
        <ele>631.2</ele>
        <time>2018-10-21T09:09:30Z</time>
      </trkpt>
      <trkpt lat="42.9751930" lon="-3.2285550">
        <ele>631.2</ele>
        <time>2018-10-21T09:09:31Z</time>
      </trkpt>
      <trkpt lat="42.9752270" lon="-3.2284870">
        <ele>631.2</ele>
        <time>2018-10-21T09:09:32Z</time>
      </trkpt>
      <trkpt lat="42.9752600" lon="-3.2284180">
        <ele>631.2</ele>
        <time>2018-10-21T09:09:33Z</time>
      </trkpt>
      <trkpt lat="42.9752930" lon="-3.2283520">
        <ele>631.2</ele>
        <time>2018-10-21T09:09:34Z</time>
      </trkpt>
      <trkpt lat="42.9753280" lon="-3.2282830">
        <ele>631.2</ele>
        <time>2018-10-21T09:09:35Z</time>
      </trkpt>
      <trkpt lat="42.9753620" lon="-3.2282170">
        <ele>631.2</ele>
        <time>2018-10-21T09:09:36Z</time>
      </trkpt>
      <trkpt lat="42.9753950" lon="-3.2281480">
        <ele>631.2</ele>
        <time>2018-10-21T09:09:37Z</time>
      </trkpt>
      <trkpt lat="42.9754280" lon="-3.2280800">
        <ele>631.2</ele>
        <time>2018-10-21T09:09:38Z</time>
      </trkpt>
      <trkpt lat="42.9754630" lon="-3.2280130">
        <ele>631.2</ele>
        <time>2018-10-21T09:09:39Z</time>
      </trkpt>
      <trkpt lat="42.9754980" lon="-3.2279430">
        <ele>631.2</ele>
        <time>2018-10-21T09:09:40Z</time>
      </trkpt>
      <trkpt lat="42.9755320" lon="-3.2278750">
        <ele>631.2</ele>
        <time>2018-10-21T09:09:41Z</time>
      </trkpt>
      <trkpt lat="42.9755650" lon="-3.2278070">
        <ele>631.2</ele>
        <time>2018-10-21T09:09:42Z</time>
      </trkpt>
      <trkpt lat="42.9755980" lon="-3.2277380">
        <ele>632.3</ele>
        <time>2018-10-21T09:09:43Z</time>
      </trkpt>
      <trkpt lat="42.9756330" lon="-3.2276700">
        <ele>632.3</ele>
        <time>2018-10-21T09:09:44Z</time>
      </trkpt>
      <trkpt lat="42.9756670" lon="-3.2276000">
        <ele>632.3</ele>
        <time>2018-10-21T09:09:45Z</time>
      </trkpt>
      <trkpt lat="42.9757000" lon="-3.2275320">
        <ele>632.3</ele>
        <time>2018-10-21T09:09:46Z</time>
      </trkpt>
      <trkpt lat="42.9757350" lon="-3.2274650">
        <ele>632.3</ele>
        <time>2018-10-21T09:09:47Z</time>
      </trkpt>
      <trkpt lat="42.9757680" lon="-3.2273980">
        <ele>632.3</ele>
        <time>2018-10-21T09:09:48Z</time>
      </trkpt>
      <trkpt lat="42.9758020" lon="-3.2273320">
        <ele>632.3</ele>
        <time>2018-10-21T09:09:49Z</time>
      </trkpt>
      <trkpt lat="42.9758350" lon="-3.2272650">
        <ele>632.3</ele>
        <time>2018-10-21T09:09:50Z</time>
      </trkpt>
      <trkpt lat="42.9758680" lon="-3.2272000">
        <ele>633.2</ele>
        <time>2018-10-21T09:09:51Z</time>
      </trkpt>
      <trkpt lat="42.9759000" lon="-3.2271350">
        <ele>633.2</ele>
        <time>2018-10-21T09:09:52Z</time>
      </trkpt>
      <trkpt lat="42.9759320" lon="-3.2270720">
        <ele>633.2</ele>
        <time>2018-10-21T09:09:53Z</time>
      </trkpt>
      <trkpt lat="42.9759620" lon="-3.2270080">
        <ele>633.2</ele>
        <time>2018-10-21T09:09:54Z</time>
      </trkpt>
      <trkpt lat="42.9759930" lon="-3.2269450">
        <ele>633.2</ele>
        <time>2018-10-21T09:09:55Z</time>
      </trkpt>
      <trkpt lat="42.9760230" lon="-3.2268830">
        <ele>633.2</ele>
        <time>2018-10-21T09:09:56Z</time>
      </trkpt>
      <trkpt lat="42.9760550" lon="-3.2268230">
        <ele>633.2</ele>
        <time>2018-10-21T09:09:57Z</time>
      </trkpt>
      <trkpt lat="42.9760870" lon="-3.2267630">
        <ele>633.2</ele>
        <time>2018-10-21T09:09:58Z</time>
      </trkpt>
      <trkpt lat="42.9761180" lon="-3.2267030">
        <ele>633.2</ele>
        <time>2018-10-21T09:09:59Z</time>
      </trkpt>
      <trkpt lat="42.9761500" lon="-3.2266430">
        <ele>633.2</ele>
        <time>2018-10-21T09:10:00Z</time>
      </trkpt>
      <trkpt lat="42.9761800" lon="-3.2265820">
        <ele>634.3</ele>
        <time>2018-10-21T09:10:01Z</time>
      </trkpt>
      <trkpt lat="42.9762080" lon="-3.2265180">
        <ele>634.3</ele>
        <time>2018-10-21T09:10:02Z</time>
      </trkpt>
      <trkpt lat="42.9762400" lon="-3.2264550">
        <ele>634.3</ele>
        <time>2018-10-21T09:10:03Z</time>
      </trkpt>
      <trkpt lat="42.9762730" lon="-3.2263920">
        <ele>634.3</ele>
        <time>2018-10-21T09:10:04Z</time>
      </trkpt>
      <trkpt lat="42.9763070" lon="-3.2263280">
        <ele>634.3</ele>
        <time>2018-10-21T09:10:05Z</time>
      </trkpt>
      <trkpt lat="42.9763380" lon="-3.2262670">
        <ele>634.3</ele>
        <time>2018-10-21T09:10:06Z</time>
      </trkpt>
      <trkpt lat="42.9763700" lon="-3.2262050">
        <ele>635.2</ele>
        <time>2018-10-21T09:10:07Z</time>
      </trkpt>
      <trkpt lat="42.9764000" lon="-3.2261420">
        <ele>635.2</ele>
        <time>2018-10-21T09:10:08Z</time>
      </trkpt>
      <trkpt lat="42.9764300" lon="-3.2260780">
        <ele>635.2</ele>
        <time>2018-10-21T09:10:09Z</time>
      </trkpt>
      <trkpt lat="42.9764630" lon="-3.2260170">
        <ele>635.2</ele>
        <time>2018-10-21T09:10:10Z</time>
      </trkpt>
      <trkpt lat="42.9764950" lon="-3.2259550">
        <ele>635.2</ele>
        <time>2018-10-21T09:10:11Z</time>
      </trkpt>
      <trkpt lat="42.9765270" lon="-3.2258920">
        <ele>635.2</ele>
        <time>2018-10-21T09:10:12Z</time>
      </trkpt>
      <trkpt lat="42.9765580" lon="-3.2258250">
        <ele>635.2</ele>
        <time>2018-10-21T09:10:13Z</time>
      </trkpt>
      <trkpt lat="42.9765900" lon="-3.2257580">
        <ele>635.2</ele>
        <time>2018-10-21T09:10:14Z</time>
      </trkpt>
      <trkpt lat="42.9766230" lon="-3.2256920">
        <ele>635.2</ele>
        <time>2018-10-21T09:10:15Z</time>
      </trkpt>
      <trkpt lat="42.9766550" lon="-3.2256250">
        <ele>635.2</ele>
        <time>2018-10-21T09:10:16Z</time>
      </trkpt>
      <trkpt lat="42.9766870" lon="-3.2255600">
        <ele>636.3</ele>
        <time>2018-10-21T09:10:17Z</time>
      </trkpt>
      <trkpt lat="42.9767180" lon="-3.2254930">
        <ele>636.3</ele>
        <time>2018-10-21T09:10:18Z</time>
      </trkpt>
      <trkpt lat="42.9767500" lon="-3.2254280">
        <ele>636.3</ele>
        <time>2018-10-21T09:10:19Z</time>
      </trkpt>
      <trkpt lat="42.9767800" lon="-3.2253620">
        <ele>636.3</ele>
        <time>2018-10-21T09:10:20Z</time>
      </trkpt>
      <trkpt lat="42.9768100" lon="-3.2252930">
        <ele>636.3</ele>
        <time>2018-10-21T09:10:21Z</time>
      </trkpt>
      <trkpt lat="42.9768370" lon="-3.2252230">
        <ele>636.3</ele>
        <time>2018-10-21T09:10:22Z</time>
      </trkpt>
      <trkpt lat="42.9768620" lon="-3.2251520">
        <ele>636.3</ele>
        <time>2018-10-21T09:10:23Z</time>
      </trkpt>
      <trkpt lat="42.9768850" lon="-3.2250800">
        <ele>636.3</ele>
        <time>2018-10-21T09:10:24Z</time>
      </trkpt>
      <trkpt lat="42.9769020" lon="-3.2250050">
        <ele>636.3</ele>
        <time>2018-10-21T09:10:25Z</time>
      </trkpt>
      <trkpt lat="42.9769150" lon="-3.2249270">
        <ele>636.3</ele>
        <time>2018-10-21T09:10:26Z</time>
      </trkpt>
      <trkpt lat="42.9769250" lon="-3.2248450">
        <ele>636.3</ele>
        <time>2018-10-21T09:10:27Z</time>
      </trkpt>
      <trkpt lat="42.9769380" lon="-3.2247650">
        <ele>636.3</ele>
        <time>2018-10-21T09:10:28Z</time>
      </trkpt>
      <trkpt lat="42.9769550" lon="-3.2246870">
        <ele>636.3</ele>
        <time>2018-10-21T09:10:29Z</time>
      </trkpt>
      <trkpt lat="42.9769820" lon="-3.2246130">
        <ele>636.3</ele>
        <time>2018-10-21T09:10:30Z</time>
      </trkpt>
      <trkpt lat="42.9770180" lon="-3.2245500">
        <ele>636.3</ele>
        <time>2018-10-21T09:10:31Z</time>
      </trkpt>
      <trkpt lat="42.9770650" lon="-3.2245000">
        <ele>636.3</ele>
        <time>2018-10-21T09:10:32Z</time>
      </trkpt>
      <trkpt lat="42.9771130" lon="-3.2244620">
        <ele>636.3</ele>
        <time>2018-10-21T09:10:33Z</time>
      </trkpt>
      <trkpt lat="42.9771650" lon="-3.2244270">
        <ele>636.3</ele>
        <time>2018-10-21T09:10:34Z</time>
      </trkpt>
      <trkpt lat="42.9772150" lon="-3.2243920">
        <ele>636.3</ele>
        <time>2018-10-21T09:10:35Z</time>
      </trkpt>
      <trkpt lat="42.9772620" lon="-3.2243530">
        <ele>636.3</ele>
        <time>2018-10-21T09:10:36Z</time>
      </trkpt>
      <trkpt lat="42.9773050" lon="-3.2243130">
        <ele>636.3</ele>
        <time>2018-10-21T09:10:37Z</time>
      </trkpt>
      <trkpt lat="42.9773450" lon="-3.2242670">
        <ele>636.3</ele>
        <time>2018-10-21T09:10:38Z</time>
      </trkpt>
      <trkpt lat="42.9773800" lon="-3.2242130">
        <ele>636.3</ele>
        <time>2018-10-21T09:10:39Z</time>
      </trkpt>
      <trkpt lat="42.9774100" lon="-3.2241550">
        <ele>636.3</ele>
        <time>2018-10-21T09:10:40Z</time>
      </trkpt>
      <trkpt lat="42.9774420" lon="-3.2240950">
        <ele>636.3</ele>
        <time>2018-10-21T09:10:41Z</time>
      </trkpt>
      <trkpt lat="42.9774750" lon="-3.2240370">
        <ele>636.3</ele>
        <time>2018-10-21T09:10:42Z</time>
      </trkpt>
      <trkpt lat="42.9775100" lon="-3.2239780">
        <ele>636.3</ele>
        <time>2018-10-21T09:10:43Z</time>
      </trkpt>
      <trkpt lat="42.9775420" lon="-3.2239180">
        <ele>636.3</ele>
        <time>2018-10-21T09:10:44Z</time>
      </trkpt>
      <trkpt lat="42.9775730" lon="-3.2238580">
        <ele>636.3</ele>
        <time>2018-10-21T09:10:45Z</time>
      </trkpt>
      <trkpt lat="42.9776070" lon="-3.2237980">
        <ele>636.3</ele>
        <time>2018-10-21T09:10:46Z</time>
      </trkpt>
      <trkpt lat="42.9776380" lon="-3.2237400">
        <ele>637.2</ele>
        <time>2018-10-21T09:10:47Z</time>
      </trkpt>
      <trkpt lat="42.9776700" lon="-3.2236820">
        <ele>637.2</ele>
        <time>2018-10-21T09:10:48Z</time>
      </trkpt>
      <trkpt lat="42.9777030" lon="-3.2236220">
        <ele>637.2</ele>
        <time>2018-10-21T09:10:49Z</time>
      </trkpt>
      <trkpt lat="42.9777350" lon="-3.2235620">
        <ele>637.2</ele>
        <time>2018-10-21T09:10:50Z</time>
      </trkpt>
      <trkpt lat="42.9777680" lon="-3.2235020">
        <ele>637.2</ele>
        <time>2018-10-21T09:10:51Z</time>
      </trkpt>
      <trkpt lat="42.9778000" lon="-3.2234450">
        <ele>637.2</ele>
        <time>2018-10-21T09:10:52Z</time>
      </trkpt>
      <trkpt lat="42.9778350" lon="-3.2233870">
        <ele>637.2</ele>
        <time>2018-10-21T09:10:53Z</time>
      </trkpt>
      <trkpt lat="42.9778720" lon="-3.2233320">
        <ele>637.2</ele>
        <time>2018-10-21T09:10:54Z</time>
      </trkpt>
      <trkpt lat="42.9779100" lon="-3.2232750">
        <ele>637.2</ele>
        <time>2018-10-21T09:10:55Z</time>
      </trkpt>
      <trkpt lat="42.9779470" lon="-3.2232200">
        <ele>637.2</ele>
        <time>2018-10-21T09:10:56Z</time>
      </trkpt>
      <trkpt lat="42.9779850" lon="-3.2231670">
        <ele>637.2</ele>
        <time>2018-10-21T09:10:57Z</time>
      </trkpt>
      <trkpt lat="42.9780220" lon="-3.2231130">
        <ele>637.2</ele>
        <time>2018-10-21T09:10:58Z</time>
      </trkpt>
      <trkpt lat="42.9780620" lon="-3.2230600">
        <ele>637.2</ele>
        <time>2018-10-21T09:10:59Z</time>
      </trkpt>
      <trkpt lat="42.9781000" lon="-3.2230050">
        <ele>637.2</ele>
        <time>2018-10-21T09:11:00Z</time>
      </trkpt>
      <trkpt lat="42.9781400" lon="-3.2229480">
        <ele>638.3</ele>
        <time>2018-10-21T09:11:01Z</time>
      </trkpt>
      <trkpt lat="42.9781800" lon="-3.2228930">
        <ele>638.3</ele>
        <time>2018-10-21T09:11:02Z</time>
      </trkpt>
      <trkpt lat="42.9782200" lon="-3.2228370">
        <ele>638.3</ele>
        <time>2018-10-21T09:11:03Z</time>
      </trkpt>
      <trkpt lat="42.9782600" lon="-3.2227800">
        <ele>638.3</ele>
        <time>2018-10-21T09:11:04Z</time>
      </trkpt>
      <trkpt lat="42.9783000" lon="-3.2227250">
        <ele>638.3</ele>
        <time>2018-10-21T09:11:05Z</time>
      </trkpt>
      <trkpt lat="42.9783420" lon="-3.2226720">
        <ele>638.3</ele>
        <time>2018-10-21T09:11:06Z</time>
      </trkpt>
      <trkpt lat="42.9783820" lon="-3.2226170">
        <ele>638.3</ele>
        <time>2018-10-21T09:11:07Z</time>
      </trkpt>
      <trkpt lat="42.9784220" lon="-3.2225620">
        <ele>638.3</ele>
        <time>2018-10-21T09:11:08Z</time>
      </trkpt>
      <trkpt lat="42.9784630" lon="-3.2225050">
        <ele>638.3</ele>
        <time>2018-10-21T09:11:09Z</time>
      </trkpt>
      <trkpt lat="42.9785030" lon="-3.2224480">
        <ele>638.3</ele>
        <time>2018-10-21T09:11:10Z</time>
      </trkpt>
      <trkpt lat="42.9785430" lon="-3.2223920">
        <ele>638.3</ele>
        <time>2018-10-21T09:11:11Z</time>
      </trkpt>
      <trkpt lat="42.9785830" lon="-3.2223330">
        <ele>638.3</ele>
        <time>2018-10-21T09:11:12Z</time>
      </trkpt>
      <trkpt lat="42.9786230" lon="-3.2222780">
        <ele>638.3</ele>
        <time>2018-10-21T09:11:13Z</time>
      </trkpt>
      <trkpt lat="42.9786650" lon="-3.2222220">
        <ele>638.3</ele>
        <time>2018-10-21T09:11:14Z</time>
      </trkpt>
      <trkpt lat="42.9787070" lon="-3.2221650">
        <ele>638.3</ele>
        <time>2018-10-21T09:11:15Z</time>
      </trkpt>
      <trkpt lat="42.9787470" lon="-3.2221100">
        <ele>638.3</ele>
        <time>2018-10-21T09:11:16Z</time>
      </trkpt>
      <trkpt lat="42.9787870" lon="-3.2220530">
        <ele>638.3</ele>
        <time>2018-10-21T09:11:17Z</time>
      </trkpt>
      <trkpt lat="42.9788280" lon="-3.2219980">
        <ele>638.3</ele>
        <time>2018-10-21T09:11:18Z</time>
      </trkpt>
      <trkpt lat="42.9788680" lon="-3.2219420">
        <ele>638.3</ele>
        <time>2018-10-21T09:11:19Z</time>
      </trkpt>
      <trkpt lat="42.9789080" lon="-3.2218830">
        <ele>638.3</ele>
        <time>2018-10-21T09:11:20Z</time>
      </trkpt>
      <trkpt lat="42.9789480" lon="-3.2218250">
        <ele>638.3</ele>
        <time>2018-10-21T09:11:21Z</time>
      </trkpt>
      <trkpt lat="42.9789900" lon="-3.2217680">
        <ele>638.3</ele>
        <time>2018-10-21T09:11:22Z</time>
      </trkpt>
      <trkpt lat="42.9790320" lon="-3.2217120">
        <ele>638.3</ele>
        <time>2018-10-21T09:11:23Z</time>
      </trkpt>
      <trkpt lat="42.9790720" lon="-3.2216530">
        <ele>638.3</ele>
        <time>2018-10-21T09:11:24Z</time>
      </trkpt>
      <trkpt lat="42.9791120" lon="-3.2215980">
        <ele>638.3</ele>
        <time>2018-10-21T09:11:25Z</time>
      </trkpt>
      <trkpt lat="42.9791530" lon="-3.2215430">
        <ele>638.3</ele>
        <time>2018-10-21T09:11:26Z</time>
      </trkpt>
      <trkpt lat="42.9791930" lon="-3.2214870">
        <ele>639.2</ele>
        <time>2018-10-21T09:11:27Z</time>
      </trkpt>
      <trkpt lat="42.9792330" lon="-3.2214300">
        <ele>639.2</ele>
        <time>2018-10-21T09:11:28Z</time>
      </trkpt>
      <trkpt lat="42.9792730" lon="-3.2213730">
        <ele>639.2</ele>
        <time>2018-10-21T09:11:29Z</time>
      </trkpt>
      <trkpt lat="42.9793130" lon="-3.2213170">
        <ele>639.2</ele>
        <time>2018-10-21T09:11:30Z</time>
      </trkpt>
      <trkpt lat="42.9793550" lon="-3.2212600">
        <ele>639.2</ele>
        <time>2018-10-21T09:11:31Z</time>
      </trkpt>
      <trkpt lat="42.9793950" lon="-3.2212030">
        <ele>639.2</ele>
        <time>2018-10-21T09:11:32Z</time>
      </trkpt>
      <trkpt lat="42.9794350" lon="-3.2211450">
        <ele>639.2</ele>
        <time>2018-10-21T09:11:33Z</time>
      </trkpt>
      <trkpt lat="42.9794770" lon="-3.2210880">
        <ele>639.2</ele>
        <time>2018-10-21T09:11:34Z</time>
      </trkpt>
      <trkpt lat="42.9795170" lon="-3.2210300">
        <ele>639.2</ele>
        <time>2018-10-21T09:11:35Z</time>
      </trkpt>
      <trkpt lat="42.9795580" lon="-3.2209750">
        <ele>639.2</ele>
        <time>2018-10-21T09:11:36Z</time>
      </trkpt>
      <trkpt lat="42.9795980" lon="-3.2209180">
        <ele>639.2</ele>
        <time>2018-10-21T09:11:37Z</time>
      </trkpt>
      <trkpt lat="42.9796400" lon="-3.2208600">
        <ele>639.2</ele>
        <time>2018-10-21T09:11:38Z</time>
      </trkpt>
      <trkpt lat="42.9796820" lon="-3.2208030">
        <ele>639.2</ele>
        <time>2018-10-21T09:11:39Z</time>
      </trkpt>
      <trkpt lat="42.9797230" lon="-3.2207450">
        <ele>639.2</ele>
        <time>2018-10-21T09:11:40Z</time>
      </trkpt>
      <trkpt lat="42.9797630" lon="-3.2206870">
        <ele>639.2</ele>
        <time>2018-10-21T09:11:41Z</time>
      </trkpt>
      <trkpt lat="42.9798070" lon="-3.2206300">
        <ele>639.2</ele>
        <time>2018-10-21T09:11:42Z</time>
      </trkpt>
      <trkpt lat="42.9798480" lon="-3.2205730">
        <ele>639.2</ele>
        <time>2018-10-21T09:11:43Z</time>
      </trkpt>
      <trkpt lat="42.9798900" lon="-3.2205180">
        <ele>639.2</ele>
        <time>2018-10-21T09:11:44Z</time>
      </trkpt>
      <trkpt lat="42.9799300" lon="-3.2204600">
        <ele>640.2</ele>
        <time>2018-10-21T09:11:45Z</time>
      </trkpt>
      <trkpt lat="42.9799720" lon="-3.2204000">
        <ele>640.2</ele>
        <time>2018-10-21T09:11:46Z</time>
      </trkpt>
      <trkpt lat="42.9800130" lon="-3.2203420">
        <ele>640.2</ele>
        <time>2018-10-21T09:11:47Z</time>
      </trkpt>
      <trkpt lat="42.9800550" lon="-3.2202830">
        <ele>640.2</ele>
        <time>2018-10-21T09:11:48Z</time>
      </trkpt>
      <trkpt lat="42.9800970" lon="-3.2202250">
        <ele>640.2</ele>
        <time>2018-10-21T09:11:49Z</time>
      </trkpt>
      <trkpt lat="42.9801380" lon="-3.2201670">
        <ele>640.2</ele>
        <time>2018-10-21T09:11:50Z</time>
      </trkpt>
      <trkpt lat="42.9801800" lon="-3.2201100">
        <ele>640.2</ele>
        <time>2018-10-21T09:11:51Z</time>
      </trkpt>
      <trkpt lat="42.9802220" lon="-3.2200530">
        <ele>640.2</ele>
        <time>2018-10-21T09:11:52Z</time>
      </trkpt>
      <trkpt lat="42.9802630" lon="-3.2199970">
        <ele>640.2</ele>
        <time>2018-10-21T09:11:53Z</time>
      </trkpt>
      <trkpt lat="42.9803030" lon="-3.2199380">
        <ele>640.2</ele>
        <time>2018-10-21T09:11:54Z</time>
      </trkpt>
      <trkpt lat="42.9803450" lon="-3.2198830">
        <ele>641.3</ele>
        <time>2018-10-21T09:11:55Z</time>
      </trkpt>
      <trkpt lat="42.9803850" lon="-3.2198270">
        <ele>641.3</ele>
        <time>2018-10-21T09:11:56Z</time>
      </trkpt>
      <trkpt lat="42.9804250" lon="-3.2197720">
        <ele>641.3</ele>
        <time>2018-10-21T09:11:57Z</time>
      </trkpt>
      <trkpt lat="42.9804630" lon="-3.2197150">
        <ele>641.3</ele>
        <time>2018-10-21T09:11:58Z</time>
      </trkpt>
      <trkpt lat="42.9805050" lon="-3.2196580">
        <ele>641.3</ele>
        <time>2018-10-21T09:11:59Z</time>
      </trkpt>
      <trkpt lat="42.9805450" lon="-3.2196020">
        <ele>641.3</ele>
        <time>2018-10-21T09:12:00Z</time>
      </trkpt>
      <trkpt lat="42.9805870" lon="-3.2195470">
        <ele>641.3</ele>
        <time>2018-10-21T09:12:01Z</time>
      </trkpt>
      <trkpt lat="42.9806280" lon="-3.2194900">
        <ele>641.3</ele>
        <time>2018-10-21T09:12:02Z</time>
      </trkpt>
      <trkpt lat="42.9806670" lon="-3.2194330">
        <ele>641.3</ele>
        <time>2018-10-21T09:12:03Z</time>
      </trkpt>
      <trkpt lat="42.9807070" lon="-3.2193780">
        <ele>641.3</ele>
        <time>2018-10-21T09:12:04Z</time>
      </trkpt>
      <trkpt lat="42.9807450" lon="-3.2193230">
        <ele>641.3</ele>
        <time>2018-10-21T09:12:05Z</time>
      </trkpt>
      <trkpt lat="42.9807850" lon="-3.2192680">
        <ele>641.3</ele>
        <time>2018-10-21T09:12:06Z</time>
      </trkpt>
      <trkpt lat="42.9808250" lon="-3.2192150">
        <ele>641.3</ele>
        <time>2018-10-21T09:12:07Z</time>
      </trkpt>
      <trkpt lat="42.9808630" lon="-3.2191600">
        <ele>641.3</ele>
        <time>2018-10-21T09:12:08Z</time>
      </trkpt>
      <trkpt lat="42.9809030" lon="-3.2191050">
        <ele>642.2</ele>
        <time>2018-10-21T09:12:09Z</time>
      </trkpt>
      <trkpt lat="42.9809420" lon="-3.2190500">
        <ele>642.2</ele>
        <time>2018-10-21T09:12:10Z</time>
      </trkpt>
      <trkpt lat="42.9809820" lon="-3.2189970">
        <ele>642.2</ele>
        <time>2018-10-21T09:12:11Z</time>
      </trkpt>
      <trkpt lat="42.9810220" lon="-3.2189420">
        <ele>642.2</ele>
        <time>2018-10-21T09:12:12Z</time>
      </trkpt>
      <trkpt lat="42.9810620" lon="-3.2188880">
        <ele>642.2</ele>
        <time>2018-10-21T09:12:13Z</time>
      </trkpt>
      <trkpt lat="42.9811020" lon="-3.2188350">
        <ele>642.2</ele>
        <time>2018-10-21T09:12:14Z</time>
      </trkpt>
      <trkpt lat="42.9811400" lon="-3.2187800">
        <ele>642.2</ele>
        <time>2018-10-21T09:12:15Z</time>
      </trkpt>
      <trkpt lat="42.9811780" lon="-3.2187250">
        <ele>642.2</ele>
        <time>2018-10-21T09:12:16Z</time>
      </trkpt>
      <trkpt lat="42.9812170" lon="-3.2186720">
        <ele>642.2</ele>
        <time>2018-10-21T09:12:17Z</time>
      </trkpt>
      <trkpt lat="42.9812550" lon="-3.2186180">
        <ele>642.2</ele>
        <time>2018-10-21T09:12:18Z</time>
      </trkpt>
      <trkpt lat="42.9812930" lon="-3.2185650">
        <ele>642.2</ele>
        <time>2018-10-21T09:12:19Z</time>
      </trkpt>
      <trkpt lat="42.9813320" lon="-3.2185120">
        <ele>642.2</ele>
        <time>2018-10-21T09:12:20Z</time>
      </trkpt>
      <trkpt lat="42.9813700" lon="-3.2184570">
        <ele>642.2</ele>
        <time>2018-10-21T09:12:21Z</time>
      </trkpt>
      <trkpt lat="42.9814080" lon="-3.2184020">
        <ele>642.2</ele>
        <time>2018-10-21T09:12:22Z</time>
      </trkpt>
      <trkpt lat="42.9814480" lon="-3.2183480">
        <ele>643.3</ele>
        <time>2018-10-21T09:12:23Z</time>
      </trkpt>
      <trkpt lat="42.9814880" lon="-3.2182970">
        <ele>643.3</ele>
        <time>2018-10-21T09:12:24Z</time>
      </trkpt>
      <trkpt lat="42.9815270" lon="-3.2182430">
        <ele>643.3</ele>
        <time>2018-10-21T09:12:25Z</time>
      </trkpt>
      <trkpt lat="42.9815650" lon="-3.2181900">
        <ele>643.3</ele>
        <time>2018-10-21T09:12:26Z</time>
      </trkpt>
      <trkpt lat="42.9816030" lon="-3.2181370">
        <ele>643.3</ele>
        <time>2018-10-21T09:12:27Z</time>
      </trkpt>
      <trkpt lat="42.9816420" lon="-3.2180830">
        <ele>643.3</ele>
        <time>2018-10-21T09:12:28Z</time>
      </trkpt>
      <trkpt lat="42.9816780" lon="-3.2180320">
        <ele>644.2</ele>
        <time>2018-10-21T09:12:29Z</time>
      </trkpt>
      <trkpt lat="42.9817170" lon="-3.2179800">
        <ele>644.2</ele>
        <time>2018-10-21T09:12:30Z</time>
      </trkpt>
      <trkpt lat="42.9817550" lon="-3.2179270">
        <ele>644.2</ele>
        <time>2018-10-21T09:12:31Z</time>
      </trkpt>
      <trkpt lat="42.9817930" lon="-3.2178730">
        <ele>644.2</ele>
        <time>2018-10-21T09:12:32Z</time>
      </trkpt>
      <trkpt lat="42.9818300" lon="-3.2178180">
        <ele>644.2</ele>
        <time>2018-10-21T09:12:33Z</time>
      </trkpt>
      <trkpt lat="42.9818680" lon="-3.2177670">
        <ele>644.2</ele>
        <time>2018-10-21T09:12:34Z</time>
      </trkpt>
      <trkpt lat="42.9819070" lon="-3.2177120">
        <ele>644.2</ele>
        <time>2018-10-21T09:12:35Z</time>
      </trkpt>
      <trkpt lat="42.9819450" lon="-3.2176600">
        <ele>644.2</ele>
        <time>2018-10-21T09:12:36Z</time>
      </trkpt>
      <trkpt lat="42.9819830" lon="-3.2176080">
        <ele>644.2</ele>
        <time>2018-10-21T09:12:37Z</time>
      </trkpt>
      <trkpt lat="42.9820220" lon="-3.2175580">
        <ele>644.2</ele>
        <time>2018-10-21T09:12:38Z</time>
      </trkpt>
      <trkpt lat="42.9820570" lon="-3.2175070">
        <ele>645.3</ele>
        <time>2018-10-21T09:12:39Z</time>
      </trkpt>
      <trkpt lat="42.9820930" lon="-3.2174530">
        <ele>645.3</ele>
        <time>2018-10-21T09:12:40Z</time>
      </trkpt>
      <trkpt lat="42.9821300" lon="-3.2174030">
        <ele>645.3</ele>
        <time>2018-10-21T09:12:41Z</time>
      </trkpt>
      <trkpt lat="42.9821670" lon="-3.2173550">
        <ele>645.3</ele>
        <time>2018-10-21T09:12:42Z</time>
      </trkpt>
      <trkpt lat="42.9822030" lon="-3.2173070">
        <ele>645.3</ele>
        <time>2018-10-21T09:12:43Z</time>
      </trkpt>
      <trkpt lat="42.9822380" lon="-3.2172600">
        <ele>645.3</ele>
        <time>2018-10-21T09:12:44Z</time>
      </trkpt>
      <trkpt lat="42.9822730" lon="-3.2172150">
        <ele>646.2</ele>
        <time>2018-10-21T09:12:45Z</time>
      </trkpt>
      <trkpt lat="42.9823080" lon="-3.2171670">
        <ele>646.2</ele>
        <time>2018-10-21T09:12:46Z</time>
      </trkpt>
      <trkpt lat="42.9823430" lon="-3.2171180">
        <ele>646.2</ele>
        <time>2018-10-21T09:12:47Z</time>
      </trkpt>
      <trkpt lat="42.9823800" lon="-3.2170720">
        <ele>646.2</ele>
        <time>2018-10-21T09:12:48Z</time>
      </trkpt>
      <trkpt lat="42.9824200" lon="-3.2170230">
        <ele>647.3</ele>
        <time>2018-10-21T09:12:49Z</time>
      </trkpt>
      <trkpt lat="42.9824620" lon="-3.2169750">
        <ele>647.3</ele>
        <time>2018-10-21T09:12:50Z</time>
      </trkpt>
      <trkpt lat="42.9825020" lon="-3.2169300">
        <ele>647.3</ele>
        <time>2018-10-21T09:12:51Z</time>
      </trkpt>
      <trkpt lat="42.9825430" lon="-3.2168870">
        <ele>647.3</ele>
        <time>2018-10-21T09:12:52Z</time>
      </trkpt>
      <trkpt lat="42.9825880" lon="-3.2168480">
        <ele>647.3</ele>
        <time>2018-10-21T09:12:53Z</time>
      </trkpt>
      <trkpt lat="42.9826330" lon="-3.2168080">
        <ele>647.3</ele>
        <time>2018-10-21T09:12:54Z</time>
      </trkpt>
      <trkpt lat="42.9826780" lon="-3.2167700">
        <ele>647.3</ele>
        <time>2018-10-21T09:12:55Z</time>
      </trkpt>
      <trkpt lat="42.9827270" lon="-3.2167370">
        <ele>647.3</ele>
        <time>2018-10-21T09:12:56Z</time>
      </trkpt>
      <trkpt lat="42.9827770" lon="-3.2167070">
        <ele>647.3</ele>
        <time>2018-10-21T09:12:57Z</time>
      </trkpt>
      <trkpt lat="42.9828300" lon="-3.2166800">
        <ele>647.3</ele>
        <time>2018-10-21T09:12:58Z</time>
      </trkpt>
      <trkpt lat="42.9828830" lon="-3.2166580">
        <ele>647.3</ele>
        <time>2018-10-21T09:12:59Z</time>
      </trkpt>
      <trkpt lat="42.9829400" lon="-3.2166400">
        <ele>647.3</ele>
        <time>2018-10-21T09:13:00Z</time>
      </trkpt>
      <trkpt lat="42.9829970" lon="-3.2166220">
        <ele>647.3</ele>
        <time>2018-10-21T09:13:01Z</time>
      </trkpt>
      <trkpt lat="42.9830530" lon="-3.2166070">
        <ele>647.3</ele>
        <time>2018-10-21T09:13:02Z</time>
      </trkpt>
      <trkpt lat="42.9831120" lon="-3.2165930">
        <ele>647.3</ele>
        <time>2018-10-21T09:13:03Z</time>
      </trkpt>
      <trkpt lat="42.9831720" lon="-3.2165820">
        <ele>647.3</ele>
        <time>2018-10-21T09:13:04Z</time>
      </trkpt>
      <trkpt lat="42.9832320" lon="-3.2165720">
        <ele>647.3</ele>
        <time>2018-10-21T09:13:05Z</time>
      </trkpt>
      <trkpt lat="42.9832930" lon="-3.2165620">
        <ele>647.3</ele>
        <time>2018-10-21T09:13:06Z</time>
      </trkpt>
      <trkpt lat="42.9833550" lon="-3.2165480">
        <ele>647.3</ele>
        <time>2018-10-21T09:13:07Z</time>
      </trkpt>
      <trkpt lat="42.9834150" lon="-3.2165380">
        <ele>647.3</ele>
        <time>2018-10-21T09:13:08Z</time>
      </trkpt>
      <trkpt lat="42.9834770" lon="-3.2165280">
        <ele>647.3</ele>
        <time>2018-10-21T09:13:09Z</time>
      </trkpt>
      <trkpt lat="42.9835370" lon="-3.2165180">
        <ele>647.3</ele>
        <time>2018-10-21T09:13:10Z</time>
      </trkpt>
      <trkpt lat="42.9835950" lon="-3.2165100">
        <ele>647.3</ele>
        <time>2018-10-21T09:13:11Z</time>
      </trkpt>
      <trkpt lat="42.9836550" lon="-3.2165030">
        <ele>647.3</ele>
        <time>2018-10-21T09:13:12Z</time>
      </trkpt>
      <trkpt lat="42.9837130" lon="-3.2164920">
        <ele>647.3</ele>
        <time>2018-10-21T09:13:13Z</time>
      </trkpt>
      <trkpt lat="42.9837720" lon="-3.2164800">
        <ele>647.3</ele>
        <time>2018-10-21T09:13:14Z</time>
      </trkpt>
      <trkpt lat="42.9838280" lon="-3.2164700">
        <ele>647.3</ele>
        <time>2018-10-21T09:13:15Z</time>
      </trkpt>
      <trkpt lat="42.9838880" lon="-3.2164600">
        <ele>647.3</ele>
        <time>2018-10-21T09:13:16Z</time>
      </trkpt>
      <trkpt lat="42.9839470" lon="-3.2164520">
        <ele>647.3</ele>
        <time>2018-10-21T09:13:17Z</time>
      </trkpt>
      <trkpt lat="42.9840070" lon="-3.2164400">
        <ele>647.3</ele>
        <time>2018-10-21T09:13:18Z</time>
      </trkpt>
      <trkpt lat="42.9840670" lon="-3.2164280">
        <ele>647.3</ele>
        <time>2018-10-21T09:13:19Z</time>
      </trkpt>
      <trkpt lat="42.9841280" lon="-3.2164180">
        <ele>647.3</ele>
        <time>2018-10-21T09:13:20Z</time>
      </trkpt>
      <trkpt lat="42.9841880" lon="-3.2164080">
        <ele>647.3</ele>
        <time>2018-10-21T09:13:21Z</time>
      </trkpt>
      <trkpt lat="42.9842480" lon="-3.2163980">
        <ele>647.3</ele>
        <time>2018-10-21T09:13:22Z</time>
      </trkpt>
      <trkpt lat="42.9843050" lon="-3.2163880">
        <ele>648.2</ele>
        <time>2018-10-21T09:13:23Z</time>
      </trkpt>
      <trkpt lat="42.9843620" lon="-3.2163750">
        <ele>648.2</ele>
        <time>2018-10-21T09:13:24Z</time>
      </trkpt>
      <trkpt lat="42.9844180" lon="-3.2163580">
        <ele>648.2</ele>
        <time>2018-10-21T09:13:25Z</time>
      </trkpt>
      <trkpt lat="42.9844750" lon="-3.2163380">
        <ele>648.2</ele>
        <time>2018-10-21T09:13:26Z</time>
      </trkpt>
      <trkpt lat="42.9845350" lon="-3.2163170">
        <ele>648.2</ele>
        <time>2018-10-21T09:13:27Z</time>
      </trkpt>
      <trkpt lat="42.9845930" lon="-3.2162950">
        <ele>648.2</ele>
        <time>2018-10-21T09:13:28Z</time>
      </trkpt>
      <trkpt lat="42.9846500" lon="-3.2162700">
        <ele>648.2</ele>
        <time>2018-10-21T09:13:29Z</time>
      </trkpt>
      <trkpt lat="42.9847050" lon="-3.2162420">
        <ele>648.2</ele>
        <time>2018-10-21T09:13:30Z</time>
      </trkpt>
      <trkpt lat="42.9847620" lon="-3.2162130">
        <ele>648.2</ele>
        <time>2018-10-21T09:13:31Z</time>
      </trkpt>
      <trkpt lat="42.9848170" lon="-3.2161820">
        <ele>648.2</ele>
        <time>2018-10-21T09:13:32Z</time>
      </trkpt>
      <trkpt lat="42.9848720" lon="-3.2161480">
        <ele>648.2</ele>
        <time>2018-10-21T09:13:33Z</time>
      </trkpt>
      <trkpt lat="42.9849230" lon="-3.2161150">
        <ele>648.2</ele>
        <time>2018-10-21T09:13:34Z</time>
      </trkpt>
      <trkpt lat="42.9849730" lon="-3.2160830">
        <ele>648.2</ele>
        <time>2018-10-21T09:13:35Z</time>
      </trkpt>
      <trkpt lat="42.9850220" lon="-3.2160550">
        <ele>648.2</ele>
        <time>2018-10-21T09:13:36Z</time>
      </trkpt>
      <trkpt lat="42.9850670" lon="-3.2160300">
        <ele>648.2</ele>
        <time>2018-10-21T09:13:37Z</time>
      </trkpt>
      <trkpt lat="42.9851120" lon="-3.2160030">
        <ele>648.2</ele>
        <time>2018-10-21T09:13:38Z</time>
      </trkpt>
      <trkpt lat="42.9851580" lon="-3.2159700">
        <ele>648.2</ele>
        <time>2018-10-21T09:13:39Z</time>
      </trkpt>
      <trkpt lat="42.9852050" lon="-3.2159380">
        <ele>648.2</ele>
        <time>2018-10-21T09:13:40Z</time>
      </trkpt>
      <trkpt lat="42.9852550" lon="-3.2159070">
        <ele>648.2</ele>
        <time>2018-10-21T09:13:41Z</time>
      </trkpt>
      <trkpt lat="42.9853050" lon="-3.2158730">
        <ele>648.2</ele>
        <time>2018-10-21T09:13:42Z</time>
      </trkpt>
      <trkpt lat="42.9853550" lon="-3.2158380">
        <ele>648.2</ele>
        <time>2018-10-21T09:13:43Z</time>
      </trkpt>
      <trkpt lat="42.9854050" lon="-3.2158050">
        <ele>648.2</ele>
        <time>2018-10-21T09:13:44Z</time>
      </trkpt>
      <trkpt lat="42.9854570" lon="-3.2157720">
        <ele>648.2</ele>
        <time>2018-10-21T09:13:45Z</time>
      </trkpt>
      <trkpt lat="42.9855080" lon="-3.2157380">
        <ele>648.2</ele>
        <time>2018-10-21T09:13:46Z</time>
      </trkpt>
      <trkpt lat="42.9855570" lon="-3.2157070">
        <ele>648.2</ele>
        <time>2018-10-21T09:13:47Z</time>
      </trkpt>
      <trkpt lat="42.9856070" lon="-3.2156750">
        <ele>648.2</ele>
        <time>2018-10-21T09:13:48Z</time>
      </trkpt>
      <trkpt lat="42.9856570" lon="-3.2156450">
        <ele>648.2</ele>
        <time>2018-10-21T09:13:49Z</time>
      </trkpt>
      <trkpt lat="42.9857050" lon="-3.2156150">
        <ele>648.2</ele>
        <time>2018-10-21T09:13:50Z</time>
      </trkpt>
      <trkpt lat="42.9857520" lon="-3.2155850">
        <ele>648.2</ele>
        <time>2018-10-21T09:13:51Z</time>
      </trkpt>
      <trkpt lat="42.9858020" lon="-3.2155550">
        <ele>648.2</ele>
        <time>2018-10-21T09:13:52Z</time>
      </trkpt>
      <trkpt lat="42.9858520" lon="-3.2155200">
        <ele>648.2</ele>
        <time>2018-10-21T09:13:53Z</time>
      </trkpt>
      <trkpt lat="42.9859020" lon="-3.2154870">
        <ele>648.2</ele>
        <time>2018-10-21T09:13:54Z</time>
      </trkpt>
      <trkpt lat="42.9859520" lon="-3.2154520">
        <ele>648.2</ele>
        <time>2018-10-21T09:13:55Z</time>
      </trkpt>
      <trkpt lat="42.9860020" lon="-3.2154200">
        <ele>648.2</ele>
        <time>2018-10-21T09:13:56Z</time>
      </trkpt>
      <trkpt lat="42.9860520" lon="-3.2153880">
        <ele>648.2</ele>
        <time>2018-10-21T09:13:57Z</time>
      </trkpt>
      <trkpt lat="42.9861000" lon="-3.2153580">
        <ele>648.2</ele>
        <time>2018-10-21T09:13:58Z</time>
      </trkpt>
      <trkpt lat="42.9861500" lon="-3.2153230">
        <ele>649.2</ele>
        <time>2018-10-21T09:13:59Z</time>
      </trkpt>
      <trkpt lat="42.9861980" lon="-3.2152880">
        <ele>649.2</ele>
        <time>2018-10-21T09:14:00Z</time>
      </trkpt>
      <trkpt lat="42.9862480" lon="-3.2152570">
        <ele>649.2</ele>
        <time>2018-10-21T09:14:01Z</time>
      </trkpt>
      <trkpt lat="42.9862970" lon="-3.2152250">
        <ele>649.2</ele>
        <time>2018-10-21T09:14:02Z</time>
      </trkpt>
      <trkpt lat="42.9863400" lon="-3.2151950">
        <ele>649.2</ele>
        <time>2018-10-21T09:14:03Z</time>
      </trkpt>
      <trkpt lat="42.9863880" lon="-3.2151680">
        <ele>649.2</ele>
        <time>2018-10-21T09:14:04Z</time>
      </trkpt>
      <trkpt lat="42.9864470" lon="-3.2151420">
        <ele>649.2</ele>
        <time>2018-10-21T09:14:05Z</time>
      </trkpt>
      <trkpt lat="42.9864970" lon="-3.2151120">
        <ele>649.2</ele>
        <time>2018-10-21T09:14:06Z</time>
      </trkpt>
      <trkpt lat="42.9865450" lon="-3.2150770">
        <ele>649.2</ele>
        <time>2018-10-21T09:14:07Z</time>
      </trkpt>
      <trkpt lat="42.9865950" lon="-3.2150430">
        <ele>649.2</ele>
        <time>2018-10-21T09:14:08Z</time>
      </trkpt>
      <trkpt lat="42.9866450" lon="-3.2150120">
        <ele>649.2</ele>
        <time>2018-10-21T09:14:09Z</time>
      </trkpt>
      <trkpt lat="42.9866970" lon="-3.2149800">
        <ele>649.2</ele>
        <time>2018-10-21T09:14:10Z</time>
      </trkpt>
      <trkpt lat="42.9867480" lon="-3.2149470">
        <ele>649.2</ele>
        <time>2018-10-21T09:14:11Z</time>
      </trkpt>
      <trkpt lat="42.9867980" lon="-3.2149130">
        <ele>649.2</ele>
        <time>2018-10-21T09:14:12Z</time>
      </trkpt>
      <trkpt lat="42.9868500" lon="-3.2148800">
        <ele>649.2</ele>
        <time>2018-10-21T09:14:13Z</time>
      </trkpt>
      <trkpt lat="42.9869020" lon="-3.2148470">
        <ele>649.2</ele>
        <time>2018-10-21T09:14:14Z</time>
      </trkpt>
      <trkpt lat="42.9869530" lon="-3.2148130">
        <ele>649.2</ele>
        <time>2018-10-21T09:14:15Z</time>
      </trkpt>
      <trkpt lat="42.9870030" lon="-3.2147820">
        <ele>649.2</ele>
        <time>2018-10-21T09:14:16Z</time>
      </trkpt>
      <trkpt lat="42.9870530" lon="-3.2147500">
        <ele>649.2</ele>
        <time>2018-10-21T09:14:17Z</time>
      </trkpt>
      <trkpt lat="42.9871020" lon="-3.2147150">
        <ele>649.2</ele>
        <time>2018-10-21T09:14:18Z</time>
      </trkpt>
      <trkpt lat="42.9871500" lon="-3.2146820">
        <ele>649.2</ele>
        <time>2018-10-21T09:14:19Z</time>
      </trkpt>
      <trkpt lat="42.9871980" lon="-3.2146500">
        <ele>649.2</ele>
        <time>2018-10-21T09:14:20Z</time>
      </trkpt>
      <trkpt lat="42.9872470" lon="-3.2146180">
        <ele>649.2</ele>
        <time>2018-10-21T09:14:21Z</time>
      </trkpt>
      <trkpt lat="42.9872970" lon="-3.2145880">
        <ele>649.2</ele>
        <time>2018-10-21T09:14:22Z</time>
      </trkpt>
      <trkpt lat="42.9873450" lon="-3.2145580">
        <ele>650.3</ele>
        <time>2018-10-21T09:14:23Z</time>
      </trkpt>
      <trkpt lat="42.9873930" lon="-3.2145270">
        <ele>650.3</ele>
        <time>2018-10-21T09:14:24Z</time>
      </trkpt>
      <trkpt lat="42.9874400" lon="-3.2144930">
        <ele>650.3</ele>
        <time>2018-10-21T09:14:25Z</time>
      </trkpt>
      <trkpt lat="42.9874880" lon="-3.2144630">
        <ele>650.3</ele>
        <time>2018-10-21T09:14:26Z</time>
      </trkpt>
      <trkpt lat="42.9875350" lon="-3.2144330">
        <ele>651.2</ele>
        <time>2018-10-21T09:14:27Z</time>
      </trkpt>
      <trkpt lat="42.9875820" lon="-3.2144000">
        <ele>651.2</ele>
        <time>2018-10-21T09:14:28Z</time>
      </trkpt>
      <trkpt lat="42.9876280" lon="-3.2143720">
        <ele>651.2</ele>
        <time>2018-10-21T09:14:29Z</time>
      </trkpt>
      <trkpt lat="42.9876770" lon="-3.2143430">
        <ele>651.2</ele>
        <time>2018-10-21T09:14:30Z</time>
      </trkpt>
      <trkpt lat="42.9877250" lon="-3.2143120">
        <ele>651.2</ele>
        <time>2018-10-21T09:14:31Z</time>
      </trkpt>
      <trkpt lat="42.9877730" lon="-3.2142780">
        <ele>651.2</ele>
        <time>2018-10-21T09:14:32Z</time>
      </trkpt>
      <trkpt lat="42.9878230" lon="-3.2142470">
        <ele>651.2</ele>
        <time>2018-10-21T09:14:33Z</time>
      </trkpt>
      <trkpt lat="42.9878720" lon="-3.2142150">
        <ele>651.2</ele>
        <time>2018-10-21T09:14:34Z</time>
      </trkpt>
      <trkpt lat="42.9879180" lon="-3.2141830">
        <ele>651.2</ele>
        <time>2018-10-21T09:14:35Z</time>
      </trkpt>
      <trkpt lat="42.9879630" lon="-3.2141520">
        <ele>651.2</ele>
        <time>2018-10-21T09:14:36Z</time>
      </trkpt>
      <trkpt lat="42.9880100" lon="-3.2141220">
        <ele>651.2</ele>
        <time>2018-10-21T09:14:37Z</time>
      </trkpt>
      <trkpt lat="42.9880580" lon="-3.2140920">
        <ele>651.2</ele>
        <time>2018-10-21T09:14:38Z</time>
      </trkpt>
      <trkpt lat="42.9881050" lon="-3.2140620">
        <ele>652.3</ele>
        <time>2018-10-21T09:14:39Z</time>
      </trkpt>
      <trkpt lat="42.9881520" lon="-3.2140300">
        <ele>652.3</ele>
        <time>2018-10-21T09:14:40Z</time>
      </trkpt>
      <trkpt lat="42.9882000" lon="-3.2140000">
        <ele>652.3</ele>
        <time>2018-10-21T09:14:41Z</time>
      </trkpt>
      <trkpt lat="42.9882450" lon="-3.2139700">
        <ele>652.3</ele>
        <time>2018-10-21T09:14:42Z</time>
      </trkpt>
      <trkpt lat="42.9882930" lon="-3.2139430">
        <ele>652.3</ele>
        <time>2018-10-21T09:14:43Z</time>
      </trkpt>
      <trkpt lat="42.9883420" lon="-3.2139130">
        <ele>652.3</ele>
        <time>2018-10-21T09:14:44Z</time>
      </trkpt>
      <trkpt lat="42.9883880" lon="-3.2138850">
        <ele>652.3</ele>
        <time>2018-10-21T09:14:45Z</time>
      </trkpt>
      <trkpt lat="42.9884350" lon="-3.2138530">
        <ele>652.3</ele>
        <time>2018-10-21T09:14:46Z</time>
      </trkpt>
      <trkpt lat="42.9884820" lon="-3.2138230">
        <ele>653.2</ele>
        <time>2018-10-21T09:14:47Z</time>
      </trkpt>
      <trkpt lat="42.9885280" lon="-3.2137880">
        <ele>653.2</ele>
        <time>2018-10-21T09:14:48Z</time>
      </trkpt>
      <trkpt lat="42.9885780" lon="-3.2137550">
        <ele>653.2</ele>
        <time>2018-10-21T09:14:49Z</time>
      </trkpt>
      <trkpt lat="42.9886300" lon="-3.2137200">
        <ele>653.2</ele>
        <time>2018-10-21T09:14:50Z</time>
      </trkpt>
      <trkpt lat="42.9886820" lon="-3.2136850">
        <ele>653.2</ele>
        <time>2018-10-21T09:14:51Z</time>
      </trkpt>
      <trkpt lat="42.9887370" lon="-3.2136480">
        <ele>653.2</ele>
        <time>2018-10-21T09:14:52Z</time>
      </trkpt>
      <trkpt lat="42.9887900" lon="-3.2136120">
        <ele>654.3</ele>
        <time>2018-10-21T09:14:53Z</time>
      </trkpt>
      <trkpt lat="42.9888450" lon="-3.2135750">
        <ele>654.3</ele>
        <time>2018-10-21T09:14:54Z</time>
      </trkpt>
      <trkpt lat="42.9888980" lon="-3.2135380">
        <ele>654.3</ele>
        <time>2018-10-21T09:14:55Z</time>
      </trkpt>
      <trkpt lat="42.9889530" lon="-3.2135030">
        <ele>654.3</ele>
        <time>2018-10-21T09:14:56Z</time>
      </trkpt>
      <trkpt lat="42.9890070" lon="-3.2134700">
        <ele>654.3</ele>
        <time>2018-10-21T09:14:57Z</time>
      </trkpt>
      <trkpt lat="42.9890620" lon="-3.2134350">
        <ele>654.3</ele>
        <time>2018-10-21T09:14:58Z</time>
      </trkpt>
      <trkpt lat="42.9891150" lon="-3.2134000">
        <ele>654.3</ele>
        <time>2018-10-21T09:14:59Z</time>
      </trkpt>
      <trkpt lat="42.9891700" lon="-3.2133650">
        <ele>654.3</ele>
        <time>2018-10-21T09:15:00Z</time>
      </trkpt>
      <trkpt lat="42.9892230" lon="-3.2133300">
        <ele>654.3</ele>
        <time>2018-10-21T09:15:01Z</time>
      </trkpt>
      <trkpt lat="42.9892750" lon="-3.2132950">
        <ele>654.3</ele>
        <time>2018-10-21T09:15:02Z</time>
      </trkpt>
      <trkpt lat="42.9893280" lon="-3.2132620">
        <ele>654.3</ele>
        <time>2018-10-21T09:15:03Z</time>
      </trkpt>
      <trkpt lat="42.9893820" lon="-3.2132280">
        <ele>654.3</ele>
        <time>2018-10-21T09:15:04Z</time>
      </trkpt>
      <trkpt lat="42.9894350" lon="-3.2131930">
        <ele>655.2</ele>
        <time>2018-10-21T09:15:05Z</time>
      </trkpt>
      <trkpt lat="42.9894880" lon="-3.2131600">
        <ele>655.2</ele>
        <time>2018-10-21T09:15:06Z</time>
      </trkpt>
      <trkpt lat="42.9895420" lon="-3.2131250">
        <ele>655.2</ele>
        <time>2018-10-21T09:15:07Z</time>
      </trkpt>
      <trkpt lat="42.9895950" lon="-3.2130920">
        <ele>655.2</ele>
        <time>2018-10-21T09:15:08Z</time>
      </trkpt>
      <trkpt lat="42.9896480" lon="-3.2130570">
        <ele>655.2</ele>
        <time>2018-10-21T09:15:09Z</time>
      </trkpt>
      <trkpt lat="42.9897030" lon="-3.2130230">
        <ele>655.2</ele>
        <time>2018-10-21T09:15:10Z</time>
      </trkpt>
      <trkpt lat="42.9897570" lon="-3.2129900">
        <ele>654.3</ele>
        <time>2018-10-21T09:15:11Z</time>
      </trkpt>
      <trkpt lat="42.9898080" lon="-3.2129570">
        <ele>654.3</ele>
        <time>2018-10-21T09:15:12Z</time>
      </trkpt>
      <trkpt lat="42.9898620" lon="-3.2129230">
        <ele>655.2</ele>
        <time>2018-10-21T09:15:13Z</time>
      </trkpt>
      <trkpt lat="42.9899130" lon="-3.2128880">
        <ele>655.2</ele>
        <time>2018-10-21T09:15:14Z</time>
      </trkpt>
      <trkpt lat="42.9899630" lon="-3.2128530">
        <ele>655.2</ele>
        <time>2018-10-21T09:15:15Z</time>
      </trkpt>
      <trkpt lat="42.9900150" lon="-3.2128220">
        <ele>655.2</ele>
        <time>2018-10-21T09:15:16Z</time>
      </trkpt>
      <trkpt lat="42.9900670" lon="-3.2127880">
        <ele>655.2</ele>
        <time>2018-10-21T09:15:17Z</time>
      </trkpt>
      <trkpt lat="42.9901180" lon="-3.2127550">
        <ele>655.2</ele>
        <time>2018-10-21T09:15:18Z</time>
      </trkpt>
      <trkpt lat="42.9901680" lon="-3.2127220">
        <ele>655.2</ele>
        <time>2018-10-21T09:15:19Z</time>
      </trkpt>
      <trkpt lat="42.9902180" lon="-3.2126870">
        <ele>655.2</ele>
        <time>2018-10-21T09:15:20Z</time>
      </trkpt>
      <trkpt lat="42.9902700" lon="-3.2126550">
        <ele>655.2</ele>
        <time>2018-10-21T09:15:21Z</time>
      </trkpt>
      <trkpt lat="42.9903220" lon="-3.2126220">
        <ele>655.2</ele>
        <time>2018-10-21T09:15:22Z</time>
      </trkpt>
      <trkpt lat="42.9903730" lon="-3.2125880">
        <ele>655.2</ele>
        <time>2018-10-21T09:15:23Z</time>
      </trkpt>
      <trkpt lat="42.9904250" lon="-3.2125550">
        <ele>655.2</ele>
        <time>2018-10-21T09:15:24Z</time>
      </trkpt>
      <trkpt lat="42.9904770" lon="-3.2125220">
        <ele>655.2</ele>
        <time>2018-10-21T09:15:25Z</time>
      </trkpt>
      <trkpt lat="42.9905270" lon="-3.2124900">
        <ele>655.2</ele>
        <time>2018-10-21T09:15:26Z</time>
      </trkpt>
      <trkpt lat="42.9905780" lon="-3.2124570">
        <ele>655.2</ele>
        <time>2018-10-21T09:15:27Z</time>
      </trkpt>
      <trkpt lat="42.9906300" lon="-3.2124230">
        <ele>655.2</ele>
        <time>2018-10-21T09:15:28Z</time>
      </trkpt>
      <trkpt lat="42.9906820" lon="-3.2123930">
        <ele>656.2</ele>
        <time>2018-10-21T09:15:29Z</time>
      </trkpt>
      <trkpt lat="42.9907330" lon="-3.2123600">
        <ele>656.2</ele>
        <time>2018-10-21T09:15:30Z</time>
      </trkpt>
      <trkpt lat="42.9907850" lon="-3.2123270">
        <ele>656.2</ele>
        <time>2018-10-21T09:15:31Z</time>
      </trkpt>
      <trkpt lat="42.9908350" lon="-3.2122930">
        <ele>656.2</ele>
        <time>2018-10-21T09:15:32Z</time>
      </trkpt>
      <trkpt lat="42.9908850" lon="-3.2122580">
        <ele>656.2</ele>
        <time>2018-10-21T09:15:33Z</time>
      </trkpt>
      <trkpt lat="42.9909350" lon="-3.2122250">
        <ele>656.2</ele>
        <time>2018-10-21T09:15:34Z</time>
      </trkpt>
      <trkpt lat="42.9909830" lon="-3.2121920">
        <ele>656.2</ele>
        <time>2018-10-21T09:15:35Z</time>
      </trkpt>
      <trkpt lat="42.9910330" lon="-3.2121600">
        <ele>656.2</ele>
        <time>2018-10-21T09:15:36Z</time>
      </trkpt>
      <trkpt lat="42.9910830" lon="-3.2121280">
        <ele>657.3</ele>
        <time>2018-10-21T09:15:37Z</time>
      </trkpt>
      <trkpt lat="42.9911350" lon="-3.2120950">
        <ele>657.3</ele>
        <time>2018-10-21T09:15:38Z</time>
      </trkpt>
      <trkpt lat="42.9911870" lon="-3.2120620">
        <ele>657.3</ele>
        <time>2018-10-21T09:15:39Z</time>
      </trkpt>
      <trkpt lat="42.9912370" lon="-3.2120270">
        <ele>657.3</ele>
        <time>2018-10-21T09:15:40Z</time>
      </trkpt>
      <trkpt lat="42.9912900" lon="-3.2119950">
        <ele>657.3</ele>
        <time>2018-10-21T09:15:41Z</time>
      </trkpt>
      <trkpt lat="42.9913430" lon="-3.2119620">
        <ele>657.3</ele>
        <time>2018-10-21T09:15:42Z</time>
      </trkpt>
      <trkpt lat="42.9913950" lon="-3.2119280">
        <ele>657.3</ele>
        <time>2018-10-21T09:15:43Z</time>
      </trkpt>
      <trkpt lat="42.9914470" lon="-3.2118950">
        <ele>657.3</ele>
        <time>2018-10-21T09:15:44Z</time>
      </trkpt>
      <trkpt lat="42.9915000" lon="-3.2118620">
        <ele>658.2</ele>
        <time>2018-10-21T09:15:45Z</time>
      </trkpt>
      <trkpt lat="42.9915520" lon="-3.2118280">
        <ele>658.2</ele>
        <time>2018-10-21T09:15:46Z</time>
      </trkpt>
      <trkpt lat="42.9916030" lon="-3.2117950">
        <ele>658.2</ele>
        <time>2018-10-21T09:15:47Z</time>
      </trkpt>
      <trkpt lat="42.9916550" lon="-3.2117630">
        <ele>658.2</ele>
        <time>2018-10-21T09:15:48Z</time>
      </trkpt>
      <trkpt lat="42.9917070" lon="-3.2117280">
        <ele>658.2</ele>
        <time>2018-10-21T09:15:49Z</time>
      </trkpt>
      <trkpt lat="42.9917580" lon="-3.2116930">
        <ele>658.2</ele>
        <time>2018-10-21T09:15:50Z</time>
      </trkpt>
      <trkpt lat="42.9918100" lon="-3.2116600">
        <ele>658.2</ele>
        <time>2018-10-21T09:15:51Z</time>
      </trkpt>
      <trkpt lat="42.9918620" lon="-3.2116230">
        <ele>658.2</ele>
        <time>2018-10-21T09:15:52Z</time>
      </trkpt>
      <trkpt lat="42.9919130" lon="-3.2115900">
        <ele>658.2</ele>
        <time>2018-10-21T09:15:53Z</time>
      </trkpt>
      <trkpt lat="42.9919650" lon="-3.2115580">
        <ele>658.2</ele>
        <time>2018-10-21T09:15:54Z</time>
      </trkpt>
      <trkpt lat="42.9920170" lon="-3.2115250">
        <ele>658.2</ele>
        <time>2018-10-21T09:15:55Z</time>
      </trkpt>
      <trkpt lat="42.9920680" lon="-3.2114920">
        <ele>658.2</ele>
        <time>2018-10-21T09:15:56Z</time>
      </trkpt>
      <trkpt lat="42.9921200" lon="-3.2114580">
        <ele>658.2</ele>
        <time>2018-10-21T09:15:57Z</time>
      </trkpt>
      <trkpt lat="42.9921730" lon="-3.2114250">
        <ele>658.2</ele>
        <time>2018-10-21T09:15:58Z</time>
      </trkpt>
      <trkpt lat="42.9922270" lon="-3.2113950">
        <ele>658.2</ele>
        <time>2018-10-21T09:15:59Z</time>
      </trkpt>
      <trkpt lat="42.9922780" lon="-3.2113600">
        <ele>658.2</ele>
        <time>2018-10-21T09:16:00Z</time>
      </trkpt>
      <trkpt lat="42.9923320" lon="-3.2113270">
        <ele>658.2</ele>
        <time>2018-10-21T09:16:01Z</time>
      </trkpt>
      <trkpt lat="42.9923850" lon="-3.2112950">
        <ele>658.2</ele>
        <time>2018-10-21T09:16:02Z</time>
      </trkpt>
      <trkpt lat="42.9924370" lon="-3.2112600">
        <ele>659.3</ele>
        <time>2018-10-21T09:16:03Z</time>
      </trkpt>
      <trkpt lat="42.9924880" lon="-3.2112230">
        <ele>659.3</ele>
        <time>2018-10-21T09:16:04Z</time>
      </trkpt>
      <trkpt lat="42.9925400" lon="-3.2111880">
        <ele>659.3</ele>
        <time>2018-10-21T09:16:05Z</time>
      </trkpt>
      <trkpt lat="42.9925930" lon="-3.2111530">
        <ele>659.3</ele>
        <time>2018-10-21T09:16:06Z</time>
      </trkpt>
      <trkpt lat="42.9926470" lon="-3.2111170">
        <ele>659.3</ele>
        <time>2018-10-21T09:16:07Z</time>
      </trkpt>
      <trkpt lat="42.9927020" lon="-3.2110830">
        <ele>659.3</ele>
        <time>2018-10-21T09:16:08Z</time>
      </trkpt>
      <trkpt lat="42.9927570" lon="-3.2110480">
        <ele>659.3</ele>
        <time>2018-10-21T09:16:09Z</time>
      </trkpt>
      <trkpt lat="42.9928100" lon="-3.2110130">
        <ele>659.3</ele>
        <time>2018-10-21T09:16:10Z</time>
      </trkpt>
      <trkpt lat="42.9928650" lon="-3.2109780">
        <ele>659.3</ele>
        <time>2018-10-21T09:16:11Z</time>
      </trkpt>
      <trkpt lat="42.9929200" lon="-3.2109430">
        <ele>659.3</ele>
        <time>2018-10-21T09:16:12Z</time>
      </trkpt>
      <trkpt lat="42.9929750" lon="-3.2109080">
        <ele>660.2</ele>
        <time>2018-10-21T09:16:13Z</time>
      </trkpt>
      <trkpt lat="42.9930300" lon="-3.2108720">
        <ele>660.2</ele>
        <time>2018-10-21T09:16:14Z</time>
      </trkpt>
      <trkpt lat="42.9930830" lon="-3.2108350">
        <ele>660.2</ele>
        <time>2018-10-21T09:16:15Z</time>
      </trkpt>
      <trkpt lat="42.9931380" lon="-3.2108020">
        <ele>660.2</ele>
        <time>2018-10-21T09:16:16Z</time>
      </trkpt>
      <trkpt lat="42.9931950" lon="-3.2107670">
        <ele>660.2</ele>
        <time>2018-10-21T09:16:17Z</time>
      </trkpt>
      <trkpt lat="42.9932500" lon="-3.2107320">
        <ele>660.2</ele>
        <time>2018-10-21T09:16:18Z</time>
      </trkpt>
      <trkpt lat="42.9933050" lon="-3.2106970">
        <ele>660.2</ele>
        <time>2018-10-21T09:16:19Z</time>
      </trkpt>
      <trkpt lat="42.9933600" lon="-3.2106620">
        <ele>660.2</ele>
        <time>2018-10-21T09:16:20Z</time>
      </trkpt>
      <trkpt lat="42.9934130" lon="-3.2106250">
        <ele>660.2</ele>
        <time>2018-10-21T09:16:21Z</time>
      </trkpt>
      <trkpt lat="42.9934680" lon="-3.2105880">
        <ele>660.2</ele>
        <time>2018-10-21T09:16:22Z</time>
      </trkpt>
      <trkpt lat="42.9935220" lon="-3.2105530">
        <ele>660.2</ele>
        <time>2018-10-21T09:16:23Z</time>
      </trkpt>
      <trkpt lat="42.9935780" lon="-3.2105200">
        <ele>660.2</ele>
        <time>2018-10-21T09:16:24Z</time>
      </trkpt>
      <trkpt lat="42.9936330" lon="-3.2104850">
        <ele>661.3</ele>
        <time>2018-10-21T09:16:25Z</time>
      </trkpt>
      <trkpt lat="42.9936880" lon="-3.2104520">
        <ele>661.3</ele>
        <time>2018-10-21T09:16:26Z</time>
      </trkpt>
      <trkpt lat="42.9937430" lon="-3.2104150">
        <ele>661.3</ele>
        <time>2018-10-21T09:16:27Z</time>
      </trkpt>
      <trkpt lat="42.9937980" lon="-3.2103800">
        <ele>661.3</ele>
        <time>2018-10-21T09:16:28Z</time>
      </trkpt>
      <trkpt lat="42.9938530" lon="-3.2103430">
        <ele>661.3</ele>
        <time>2018-10-21T09:16:29Z</time>
      </trkpt>
      <trkpt lat="42.9939100" lon="-3.2103070">
        <ele>661.3</ele>
        <time>2018-10-21T09:16:30Z</time>
      </trkpt>
      <trkpt lat="42.9939650" lon="-3.2102720">
        <ele>661.3</ele>
        <time>2018-10-21T09:16:31Z</time>
      </trkpt>
      <trkpt lat="42.9940200" lon="-3.2102370">
        <ele>661.3</ele>
        <time>2018-10-21T09:16:32Z</time>
      </trkpt>
      <trkpt lat="42.9940750" lon="-3.2102000">
        <ele>661.3</ele>
        <time>2018-10-21T09:16:33Z</time>
      </trkpt>
      <trkpt lat="42.9941300" lon="-3.2101650">
        <ele>661.3</ele>
        <time>2018-10-21T09:16:34Z</time>
      </trkpt>
      <trkpt lat="42.9941830" lon="-3.2101300">
        <ele>662.2</ele>
        <time>2018-10-21T09:16:35Z</time>
      </trkpt>
      <trkpt lat="42.9942370" lon="-3.2100950">
        <ele>662.2</ele>
        <time>2018-10-21T09:16:36Z</time>
      </trkpt>
      <trkpt lat="42.9942900" lon="-3.2100600">
        <ele>662.2</ele>
        <time>2018-10-21T09:16:37Z</time>
      </trkpt>
      <trkpt lat="42.9943400" lon="-3.2100220">
        <ele>662.2</ele>
        <time>2018-10-21T09:16:38Z</time>
      </trkpt>
      <trkpt lat="42.9943920" lon="-3.2099820">
        <ele>662.2</ele>
        <time>2018-10-21T09:16:39Z</time>
      </trkpt>
      <trkpt lat="42.9944430" lon="-3.2099420">
        <ele>662.2</ele>
        <time>2018-10-21T09:16:40Z</time>
      </trkpt>
      <trkpt lat="42.9944950" lon="-3.2099000">
        <ele>662.2</ele>
        <time>2018-10-21T09:16:41Z</time>
      </trkpt>
      <trkpt lat="42.9945450" lon="-3.2098550">
        <ele>662.2</ele>
        <time>2018-10-21T09:16:42Z</time>
      </trkpt>
      <trkpt lat="42.9945950" lon="-3.2098120">
        <ele>662.2</ele>
        <time>2018-10-21T09:16:43Z</time>
      </trkpt>
      <trkpt lat="42.9946450" lon="-3.2097670">
        <ele>662.2</ele>
        <time>2018-10-21T09:16:44Z</time>
      </trkpt>
      <trkpt lat="42.9946930" lon="-3.2097200">
        <ele>662.2</ele>
        <time>2018-10-21T09:16:45Z</time>
      </trkpt>
      <trkpt lat="42.9947420" lon="-3.2096750">
        <ele>662.2</ele>
        <time>2018-10-21T09:16:46Z</time>
      </trkpt>
      <trkpt lat="42.9947900" lon="-3.2096280">
        <ele>662.2</ele>
        <time>2018-10-21T09:16:47Z</time>
      </trkpt>
      <trkpt lat="42.9948380" lon="-3.2095820">
        <ele>662.2</ele>
        <time>2018-10-21T09:16:48Z</time>
      </trkpt>
      <trkpt lat="42.9948850" lon="-3.2095350">
        <ele>662.2</ele>
        <time>2018-10-21T09:16:49Z</time>
      </trkpt>
      <trkpt lat="42.9949330" lon="-3.2094880">
        <ele>662.2</ele>
        <time>2018-10-21T09:16:50Z</time>
      </trkpt>
      <trkpt lat="42.9949820" lon="-3.2094420">
        <ele>662.2</ele>
        <time>2018-10-21T09:16:51Z</time>
      </trkpt>
      <trkpt lat="42.9950300" lon="-3.2093950">
        <ele>662.2</ele>
        <time>2018-10-21T09:16:52Z</time>
      </trkpt>
      <trkpt lat="42.9950780" lon="-3.2093500">
        <ele>662.2</ele>
        <time>2018-10-21T09:16:53Z</time>
      </trkpt>
      <trkpt lat="42.9951270" lon="-3.2093030">
        <ele>662.2</ele>
        <time>2018-10-21T09:16:54Z</time>
      </trkpt>
      <trkpt lat="42.9951730" lon="-3.2092580">
        <ele>663.3</ele>
        <time>2018-10-21T09:16:55Z</time>
      </trkpt>
      <trkpt lat="42.9952200" lon="-3.2092100">
        <ele>663.3</ele>
        <time>2018-10-21T09:16:56Z</time>
      </trkpt>
      <trkpt lat="42.9952670" lon="-3.2091580">
        <ele>663.3</ele>
        <time>2018-10-21T09:16:57Z</time>
      </trkpt>
      <trkpt lat="42.9953150" lon="-3.2091100">
        <ele>663.3</ele>
        <time>2018-10-21T09:16:58Z</time>
      </trkpt>
      <trkpt lat="42.9953650" lon="-3.2090620">
        <ele>663.3</ele>
        <time>2018-10-21T09:16:59Z</time>
      </trkpt>
      <trkpt lat="42.9954130" lon="-3.2090130">
        <ele>663.3</ele>
        <time>2018-10-21T09:17:00Z</time>
      </trkpt>
      <trkpt lat="42.9954620" lon="-3.2089670">
        <ele>663.3</ele>
        <time>2018-10-21T09:17:01Z</time>
      </trkpt>
      <trkpt lat="42.9955100" lon="-3.2089170">
        <ele>663.3</ele>
        <time>2018-10-21T09:17:02Z</time>
      </trkpt>
      <trkpt lat="42.9955600" lon="-3.2088680">
        <ele>663.3</ele>
        <time>2018-10-21T09:17:03Z</time>
      </trkpt>
      <trkpt lat="42.9956080" lon="-3.2088200">
        <ele>663.3</ele>
        <time>2018-10-21T09:17:04Z</time>
      </trkpt>
      <trkpt lat="42.9956580" lon="-3.2087720">
        <ele>663.3</ele>
        <time>2018-10-21T09:17:05Z</time>
      </trkpt>
      <trkpt lat="42.9957070" lon="-3.2087250">
        <ele>663.3</ele>
        <time>2018-10-21T09:17:06Z</time>
      </trkpt>
      <trkpt lat="42.9957570" lon="-3.2086780">
        <ele>663.3</ele>
        <time>2018-10-21T09:17:07Z</time>
      </trkpt>
      <trkpt lat="42.9958070" lon="-3.2086330">
        <ele>663.3</ele>
        <time>2018-10-21T09:17:08Z</time>
      </trkpt>
      <trkpt lat="42.9958550" lon="-3.2085870">
        <ele>664.2</ele>
        <time>2018-10-21T09:17:09Z</time>
      </trkpt>
      <trkpt lat="42.9959050" lon="-3.2085430">
        <ele>664.2</ele>
        <time>2018-10-21T09:17:10Z</time>
      </trkpt>
      <trkpt lat="42.9959570" lon="-3.2085000">
        <ele>664.2</ele>
        <time>2018-10-21T09:17:11Z</time>
      </trkpt>
      <trkpt lat="42.9960080" lon="-3.2084570">
        <ele>664.2</ele>
        <time>2018-10-21T09:17:12Z</time>
      </trkpt>
      <trkpt lat="42.9960600" lon="-3.2084180">
        <ele>664.2</ele>
        <time>2018-10-21T09:17:13Z</time>
      </trkpt>
      <trkpt lat="42.9961120" lon="-3.2083780">
        <ele>664.2</ele>
        <time>2018-10-21T09:17:14Z</time>
      </trkpt>
      <trkpt lat="42.9961650" lon="-3.2083400">
        <ele>664.2</ele>
        <time>2018-10-21T09:17:15Z</time>
      </trkpt>
      <trkpt lat="42.9962170" lon="-3.2083020">
        <ele>664.2</ele>
        <time>2018-10-21T09:17:16Z</time>
      </trkpt>
      <trkpt lat="42.9962720" lon="-3.2082670">
        <ele>664.2</ele>
        <time>2018-10-21T09:17:17Z</time>
      </trkpt>
      <trkpt lat="42.9963250" lon="-3.2082300">
        <ele>664.2</ele>
        <time>2018-10-21T09:17:18Z</time>
      </trkpt>
      <trkpt lat="42.9963800" lon="-3.2081950">
        <ele>664.2</ele>
        <time>2018-10-21T09:17:19Z</time>
      </trkpt>
      <trkpt lat="42.9964350" lon="-3.2081620">
        <ele>664.2</ele>
        <time>2018-10-21T09:17:20Z</time>
      </trkpt>
      <trkpt lat="42.9964920" lon="-3.2081280">
        <ele>664.2</ele>
        <time>2018-10-21T09:17:21Z</time>
      </trkpt>
      <trkpt lat="42.9965480" lon="-3.2080950">
        <ele>664.2</ele>
        <time>2018-10-21T09:17:22Z</time>
      </trkpt>
      <trkpt lat="42.9966050" lon="-3.2080630">
        <ele>664.2</ele>
        <time>2018-10-21T09:17:23Z</time>
      </trkpt>
      <trkpt lat="42.9966630" lon="-3.2080320">
        <ele>664.2</ele>
        <time>2018-10-21T09:17:24Z</time>
      </trkpt>
      <trkpt lat="42.9967200" lon="-3.2080000">
        <ele>664.2</ele>
        <time>2018-10-21T09:17:25Z</time>
      </trkpt>
      <trkpt lat="42.9967770" lon="-3.2079650">
        <ele>664.2</ele>
        <time>2018-10-21T09:17:26Z</time>
      </trkpt>
      <trkpt lat="42.9968330" lon="-3.2079320">
        <ele>664.2</ele>
        <time>2018-10-21T09:17:27Z</time>
      </trkpt>
      <trkpt lat="42.9968900" lon="-3.2078980">
        <ele>664.2</ele>
        <time>2018-10-21T09:17:28Z</time>
      </trkpt>
      <trkpt lat="42.9969480" lon="-3.2078650">
        <ele>664.2</ele>
        <time>2018-10-21T09:17:29Z</time>
      </trkpt>
      <trkpt lat="42.9970050" lon="-3.2078330">
        <ele>664.2</ele>
        <time>2018-10-21T09:17:30Z</time>
      </trkpt>
      <trkpt lat="42.9970620" lon="-3.2078020">
        <ele>664.2</ele>
        <time>2018-10-21T09:17:31Z</time>
      </trkpt>
      <trkpt lat="42.9971180" lon="-3.2077680">
        <ele>664.2</ele>
        <time>2018-10-21T09:17:32Z</time>
      </trkpt>
      <trkpt lat="42.9971730" lon="-3.2077330">
        <ele>664.2</ele>
        <time>2018-10-21T09:17:33Z</time>
      </trkpt>
      <trkpt lat="42.9972280" lon="-3.2077000">
        <ele>664.2</ele>
        <time>2018-10-21T09:17:34Z</time>
      </trkpt>
      <trkpt lat="42.9972850" lon="-3.2076680">
        <ele>664.2</ele>
        <time>2018-10-21T09:17:35Z</time>
      </trkpt>
      <trkpt lat="42.9973380" lon="-3.2076400">
        <ele>664.2</ele>
        <time>2018-10-21T09:17:36Z</time>
      </trkpt>
      <trkpt lat="42.9973930" lon="-3.2076100">
        <ele>664.2</ele>
        <time>2018-10-21T09:17:37Z</time>
      </trkpt>
      <trkpt lat="42.9974480" lon="-3.2075800">
        <ele>664.2</ele>
        <time>2018-10-21T09:17:38Z</time>
      </trkpt>
      <trkpt lat="42.9975000" lon="-3.2075480">
        <ele>665.2</ele>
        <time>2018-10-21T09:17:39Z</time>
      </trkpt>
      <trkpt lat="42.9975520" lon="-3.2075170">
        <ele>665.2</ele>
        <time>2018-10-21T09:17:40Z</time>
      </trkpt>
      <trkpt lat="42.9976020" lon="-3.2074880">
        <ele>665.2</ele>
        <time>2018-10-21T09:17:41Z</time>
      </trkpt>
      <trkpt lat="42.9976530" lon="-3.2074580">
        <ele>665.2</ele>
        <time>2018-10-21T09:17:42Z</time>
      </trkpt>
      <trkpt lat="42.9977030" lon="-3.2074300">
        <ele>666.3</ele>
        <time>2018-10-21T09:17:43Z</time>
      </trkpt>
      <trkpt lat="42.9977500" lon="-3.2074030">
        <ele>666.3</ele>
        <time>2018-10-21T09:17:44Z</time>
      </trkpt>
      <trkpt lat="42.9978020" lon="-3.2073770">
        <ele>666.3</ele>
        <time>2018-10-21T09:17:45Z</time>
      </trkpt>
      <trkpt lat="42.9978520" lon="-3.2073480">
        <ele>666.3</ele>
        <time>2018-10-21T09:17:46Z</time>
      </trkpt>
      <trkpt lat="42.9979020" lon="-3.2073170">
        <ele>667.2</ele>
        <time>2018-10-21T09:17:47Z</time>
      </trkpt>
      <trkpt lat="42.9979520" lon="-3.2072850">
        <ele>667.2</ele>
        <time>2018-10-21T09:17:48Z</time>
      </trkpt>
      <trkpt lat="42.9980020" lon="-3.2072570">
        <ele>667.2</ele>
        <time>2018-10-21T09:17:49Z</time>
      </trkpt>
      <trkpt lat="42.9980530" lon="-3.2072280">
        <ele>667.2</ele>
        <time>2018-10-21T09:17:50Z</time>
      </trkpt>
      <trkpt lat="42.9981030" lon="-3.2072000">
        <ele>668.3</ele>
        <time>2018-10-21T09:17:51Z</time>
      </trkpt>
      <trkpt lat="42.9981550" lon="-3.2071700">
        <ele>668.3</ele>
        <time>2018-10-21T09:17:52Z</time>
      </trkpt>
      <trkpt lat="42.9982070" lon="-3.2071400">
        <ele>668.3</ele>
        <time>2018-10-21T09:17:53Z</time>
      </trkpt>
      <trkpt lat="42.9982600" lon="-3.2071130">
        <ele>668.3</ele>
        <time>2018-10-21T09:17:54Z</time>
      </trkpt>
      <trkpt lat="42.9983120" lon="-3.2070820">
        <ele>668.3</ele>
        <time>2018-10-21T09:17:55Z</time>
      </trkpt>
      <trkpt lat="42.9983630" lon="-3.2070520">
        <ele>668.3</ele>
        <time>2018-10-21T09:17:56Z</time>
      </trkpt>
      <trkpt lat="42.9984130" lon="-3.2070250">
        <ele>669.2</ele>
        <time>2018-10-21T09:17:57Z</time>
      </trkpt>
      <trkpt lat="42.9984620" lon="-3.2069950">
        <ele>669.2</ele>
        <time>2018-10-21T09:17:58Z</time>
      </trkpt>
      <trkpt lat="42.9985100" lon="-3.2069680">
        <ele>669.2</ele>
        <time>2018-10-21T09:17:59Z</time>
      </trkpt>
      <trkpt lat="42.9985580" lon="-3.2069370">
        <ele>669.2</ele>
        <time>2018-10-21T09:18:00Z</time>
      </trkpt>
      <trkpt lat="42.9986030" lon="-3.2068980">
        <ele>669.2</ele>
        <time>2018-10-21T09:18:01Z</time>
      </trkpt>
      <trkpt lat="42.9986480" lon="-3.2068600">
        <ele>669.2</ele>
        <time>2018-10-21T09:18:02Z</time>
      </trkpt>
      <trkpt lat="42.9986970" lon="-3.2068230">
        <ele>669.2</ele>
        <time>2018-10-21T09:18:03Z</time>
      </trkpt>
      <trkpt lat="42.9987450" lon="-3.2067850">
        <ele>669.2</ele>
        <time>2018-10-21T09:18:04Z</time>
      </trkpt>
      <trkpt lat="42.9987950" lon="-3.2067470">
        <ele>669.2</ele>
        <time>2018-10-21T09:18:05Z</time>
      </trkpt>
      <trkpt lat="42.9988450" lon="-3.2067070">
        <ele>669.2</ele>
        <time>2018-10-21T09:18:06Z</time>
      </trkpt>
      <trkpt lat="42.9988950" lon="-3.2066680">
        <ele>669.2</ele>
        <time>2018-10-21T09:18:07Z</time>
      </trkpt>
      <trkpt lat="42.9989470" lon="-3.2066280">
        <ele>669.2</ele>
        <time>2018-10-21T09:18:08Z</time>
      </trkpt>
      <trkpt lat="42.9989970" lon="-3.2065870">
        <ele>669.2</ele>
        <time>2018-10-21T09:18:09Z</time>
      </trkpt>
      <trkpt lat="42.9990480" lon="-3.2065430">
        <ele>669.2</ele>
        <time>2018-10-21T09:18:10Z</time>
      </trkpt>
      <trkpt lat="42.9991000" lon="-3.2065000">
        <ele>669.2</ele>
        <time>2018-10-21T09:18:11Z</time>
      </trkpt>
      <trkpt lat="42.9991530" lon="-3.2064570">
        <ele>669.2</ele>
        <time>2018-10-21T09:18:12Z</time>
      </trkpt>
      <trkpt lat="42.9992070" lon="-3.2064120">
        <ele>669.2</ele>
        <time>2018-10-21T09:18:13Z</time>
      </trkpt>
      <trkpt lat="42.9992580" lon="-3.2063670">
        <ele>669.2</ele>
        <time>2018-10-21T09:18:14Z</time>
      </trkpt>
      <trkpt lat="42.9993120" lon="-3.2063250">
        <ele>669.2</ele>
        <time>2018-10-21T09:18:15Z</time>
      </trkpt>
      <trkpt lat="42.9993650" lon="-3.2062800">
        <ele>669.2</ele>
        <time>2018-10-21T09:18:16Z</time>
      </trkpt>
      <trkpt lat="42.9994180" lon="-3.2062370">
        <ele>669.2</ele>
        <time>2018-10-21T09:18:17Z</time>
      </trkpt>
      <trkpt lat="42.9994720" lon="-3.2061930">
        <ele>669.2</ele>
        <time>2018-10-21T09:18:18Z</time>
      </trkpt>
      <trkpt lat="42.9995230" lon="-3.2061520">
        <ele>669.2</ele>
        <time>2018-10-21T09:18:19Z</time>
      </trkpt>
      <trkpt lat="42.9995770" lon="-3.2061100">
        <ele>669.2</ele>
        <time>2018-10-21T09:18:20Z</time>
      </trkpt>
      <trkpt lat="42.9996280" lon="-3.2060670">
        <ele>669.2</ele>
        <time>2018-10-21T09:18:21Z</time>
      </trkpt>
      <trkpt lat="42.9996820" lon="-3.2060250">
        <ele>669.2</ele>
        <time>2018-10-21T09:18:22Z</time>
      </trkpt>
      <trkpt lat="42.9997330" lon="-3.2059820">
        <ele>669.2</ele>
        <time>2018-10-21T09:18:23Z</time>
      </trkpt>
      <trkpt lat="42.9997850" lon="-3.2059370">
        <ele>669.2</ele>
        <time>2018-10-21T09:18:24Z</time>
      </trkpt>
      <trkpt lat="42.9998380" lon="-3.2058930">
        <ele>669.2</ele>
        <time>2018-10-21T09:18:25Z</time>
      </trkpt>
      <trkpt lat="42.9998900" lon="-3.2058480">
        <ele>669.2</ele>
        <time>2018-10-21T09:18:26Z</time>
      </trkpt>
      <trkpt lat="42.9999430" lon="-3.2058050">
        <ele>669.2</ele>
        <time>2018-10-21T09:18:27Z</time>
      </trkpt>
      <trkpt lat="42.9999950" lon="-3.2057630">
        <ele>669.2</ele>
        <time>2018-10-21T09:18:28Z</time>
      </trkpt>
      <trkpt lat="43.0000470" lon="-3.2057180">
        <ele>669.2</ele>
        <time>2018-10-21T09:18:29Z</time>
      </trkpt>
      <trkpt lat="43.0000980" lon="-3.2056750">
        <ele>669.2</ele>
        <time>2018-10-21T09:18:30Z</time>
      </trkpt>
      <trkpt lat="43.0001480" lon="-3.2056330">
        <ele>669.2</ele>
        <time>2018-10-21T09:18:31Z</time>
      </trkpt>
      <trkpt lat="43.0002000" lon="-3.2055930">
        <ele>669.2</ele>
        <time>2018-10-21T09:18:32Z</time>
      </trkpt>
      <trkpt lat="43.0002500" lon="-3.2055520">
        <ele>669.2</ele>
        <time>2018-10-21T09:18:33Z</time>
      </trkpt>
      <trkpt lat="43.0003000" lon="-3.2055100">
        <ele>669.2</ele>
        <time>2018-10-21T09:18:34Z</time>
      </trkpt>
      <trkpt lat="43.0003500" lon="-3.2054680">
        <ele>669.2</ele>
        <time>2018-10-21T09:18:35Z</time>
      </trkpt>
      <trkpt lat="43.0004000" lon="-3.2054300">
        <ele>669.2</ele>
        <time>2018-10-21T09:18:36Z</time>
      </trkpt>
      <trkpt lat="43.0004480" lon="-3.2053900">
        <ele>669.2</ele>
        <time>2018-10-21T09:18:37Z</time>
      </trkpt>
      <trkpt lat="43.0004970" lon="-3.2053500">
        <ele>669.2</ele>
        <time>2018-10-21T09:18:38Z</time>
      </trkpt>
      <trkpt lat="43.0005430" lon="-3.2053130">
        <ele>670.3</ele>
        <time>2018-10-21T09:18:39Z</time>
      </trkpt>
      <trkpt lat="43.0005920" lon="-3.2052780">
        <ele>670.3</ele>
        <time>2018-10-21T09:18:40Z</time>
      </trkpt>
      <trkpt lat="43.0006420" lon="-3.2052400">
        <ele>670.3</ele>
        <time>2018-10-21T09:18:41Z</time>
      </trkpt>
      <trkpt lat="43.0006900" lon="-3.2051980">
        <ele>670.3</ele>
        <time>2018-10-21T09:18:42Z</time>
      </trkpt>
      <trkpt lat="43.0007380" lon="-3.2051570">
        <ele>671.2</ele>
        <time>2018-10-21T09:18:43Z</time>
      </trkpt>
      <trkpt lat="43.0007880" lon="-3.2051180">
        <ele>671.2</ele>
        <time>2018-10-21T09:18:44Z</time>
      </trkpt>
      <trkpt lat="43.0008370" lon="-3.2050780">
        <ele>671.2</ele>
        <time>2018-10-21T09:18:45Z</time>
      </trkpt>
      <trkpt lat="43.0008870" lon="-3.2050380">
        <ele>671.2</ele>
        <time>2018-10-21T09:18:46Z</time>
      </trkpt>
      <trkpt lat="43.0009350" lon="-3.2049980">
        <ele>671.2</ele>
        <time>2018-10-21T09:18:47Z</time>
      </trkpt>
      <trkpt lat="43.0009830" lon="-3.2049570">
        <ele>671.2</ele>
        <time>2018-10-21T09:18:48Z</time>
      </trkpt>
      <trkpt lat="43.0010320" lon="-3.2049150">
        <ele>671.2</ele>
        <time>2018-10-21T09:18:49Z</time>
      </trkpt>
      <trkpt lat="43.0010800" lon="-3.2048730">
        <ele>671.2</ele>
        <time>2018-10-21T09:18:50Z</time>
      </trkpt>
      <trkpt lat="43.0011300" lon="-3.2048320">
        <ele>672.2</ele>
        <time>2018-10-21T09:18:51Z</time>
      </trkpt>
      <trkpt lat="43.0011820" lon="-3.2047900">
        <ele>672.2</ele>
        <time>2018-10-21T09:18:52Z</time>
      </trkpt>
      <trkpt lat="43.0012320" lon="-3.2047470">
        <ele>672.2</ele>
        <time>2018-10-21T09:18:53Z</time>
      </trkpt>
      <trkpt lat="43.0012820" lon="-3.2047050">
        <ele>672.2</ele>
        <time>2018-10-21T09:18:54Z</time>
      </trkpt>
      <trkpt lat="43.0013330" lon="-3.2046650">
        <ele>672.2</ele>
        <time>2018-10-21T09:18:55Z</time>
      </trkpt>
      <trkpt lat="43.0013830" lon="-3.2046230">
        <ele>672.2</ele>
        <time>2018-10-21T09:18:56Z</time>
      </trkpt>
      <trkpt lat="43.0014330" lon="-3.2045820">
        <ele>673.3</ele>
        <time>2018-10-21T09:18:57Z</time>
      </trkpt>
      <trkpt lat="43.0014830" lon="-3.2045400">
        <ele>673.3</ele>
        <time>2018-10-21T09:18:58Z</time>
      </trkpt>
      <trkpt lat="43.0015370" lon="-3.2045020">
        <ele>673.3</ele>
        <time>2018-10-21T09:18:59Z</time>
      </trkpt>
      <trkpt lat="43.0015880" lon="-3.2044600">
        <ele>673.3</ele>
        <time>2018-10-21T09:19:00Z</time>
      </trkpt>
      <trkpt lat="43.0016380" lon="-3.2044150">
        <ele>673.3</ele>
        <time>2018-10-21T09:19:01Z</time>
      </trkpt>
      <trkpt lat="43.0016900" lon="-3.2043720">
        <ele>673.3</ele>
        <time>2018-10-21T09:19:02Z</time>
      </trkpt>
      <trkpt lat="43.0017420" lon="-3.2043280">
        <ele>673.3</ele>
        <time>2018-10-21T09:19:03Z</time>
      </trkpt>
      <trkpt lat="43.0017930" lon="-3.2042850">
        <ele>673.3</ele>
        <time>2018-10-21T09:19:04Z</time>
      </trkpt>
      <trkpt lat="43.0018450" lon="-3.2042400">
        <ele>673.3</ele>
        <time>2018-10-21T09:19:05Z</time>
      </trkpt>
      <trkpt lat="43.0018970" lon="-3.2041970">
        <ele>673.3</ele>
        <time>2018-10-21T09:19:06Z</time>
      </trkpt>
      <trkpt lat="43.0019500" lon="-3.2041550">
        <ele>674.2</ele>
        <time>2018-10-21T09:19:07Z</time>
      </trkpt>
      <trkpt lat="43.0020020" lon="-3.2041130">
        <ele>674.2</ele>
        <time>2018-10-21T09:19:08Z</time>
      </trkpt>
      <trkpt lat="43.0020520" lon="-3.2040730">
        <ele>674.2</ele>
        <time>2018-10-21T09:19:09Z</time>
      </trkpt>
      <trkpt lat="43.0021030" lon="-3.2040320">
        <ele>674.2</ele>
        <time>2018-10-21T09:19:10Z</time>
      </trkpt>
      <trkpt lat="43.0021530" lon="-3.2039900">
        <ele>675.3</ele>
        <time>2018-10-21T09:19:11Z</time>
      </trkpt>
      <trkpt lat="43.0022030" lon="-3.2039480">
        <ele>675.3</ele>
        <time>2018-10-21T09:19:12Z</time>
      </trkpt>
      <trkpt lat="43.0022530" lon="-3.2039080">
        <ele>675.3</ele>
        <time>2018-10-21T09:19:13Z</time>
      </trkpt>
      <trkpt lat="43.0023030" lon="-3.2038670">
        <ele>675.3</ele>
        <time>2018-10-21T09:19:14Z</time>
      </trkpt>
      <trkpt lat="43.0023530" lon="-3.2038270">
        <ele>675.3</ele>
        <time>2018-10-21T09:19:15Z</time>
      </trkpt>
      <trkpt lat="43.0024050" lon="-3.2037850">
        <ele>675.3</ele>
        <time>2018-10-21T09:19:16Z</time>
      </trkpt>
      <trkpt lat="43.0024550" lon="-3.2037450">
        <ele>676.2</ele>
        <time>2018-10-21T09:19:17Z</time>
      </trkpt>
      <trkpt lat="43.0025050" lon="-3.2037050">
        <ele>676.2</ele>
        <time>2018-10-21T09:19:18Z</time>
      </trkpt>
      <trkpt lat="43.0025530" lon="-3.2036670">
        <ele>676.2</ele>
        <time>2018-10-21T09:19:19Z</time>
      </trkpt>
      <trkpt lat="43.0026020" lon="-3.2036280">
        <ele>676.2</ele>
        <time>2018-10-21T09:19:20Z</time>
      </trkpt>
      <trkpt lat="43.0026500" lon="-3.2035920">
        <ele>677.3</ele>
        <time>2018-10-21T09:19:21Z</time>
      </trkpt>
      <trkpt lat="43.0026950" lon="-3.2035520">
        <ele>677.3</ele>
        <time>2018-10-21T09:19:22Z</time>
      </trkpt>
      <trkpt lat="43.0027420" lon="-3.2035150">
        <ele>677.3</ele>
        <time>2018-10-21T09:19:23Z</time>
      </trkpt>
      <trkpt lat="43.0027900" lon="-3.2034780">
        <ele>677.3</ele>
        <time>2018-10-21T09:19:24Z</time>
      </trkpt>
      <trkpt lat="43.0028370" lon="-3.2034400">
        <ele>677.3</ele>
        <time>2018-10-21T09:19:25Z</time>
      </trkpt>
      <trkpt lat="43.0028830" lon="-3.2034020">
        <ele>677.3</ele>
        <time>2018-10-21T09:19:26Z</time>
      </trkpt>
      <trkpt lat="43.0029320" lon="-3.2033620">
        <ele>678.2</ele>
        <time>2018-10-21T09:19:27Z</time>
      </trkpt>
      <trkpt lat="43.0029780" lon="-3.2033220">
        <ele>678.2</ele>
        <time>2018-10-21T09:19:28Z</time>
      </trkpt>
      <trkpt lat="43.0030270" lon="-3.2032800">
        <ele>678.2</ele>
        <time>2018-10-21T09:19:29Z</time>
      </trkpt>
      <trkpt lat="43.0030750" lon="-3.2032420">
        <ele>678.2</ele>
        <time>2018-10-21T09:19:30Z</time>
      </trkpt>
      <trkpt lat="43.0031250" lon="-3.2032020">
        <ele>678.2</ele>
        <time>2018-10-21T09:19:31Z</time>
      </trkpt>
      <trkpt lat="43.0031730" lon="-3.2031600">
        <ele>678.2</ele>
        <time>2018-10-21T09:19:32Z</time>
      </trkpt>
      <trkpt lat="43.0032220" lon="-3.2031200">
        <ele>679.3</ele>
        <time>2018-10-21T09:19:33Z</time>
      </trkpt>
      <trkpt lat="43.0032720" lon="-3.2030780">
        <ele>679.3</ele>
        <time>2018-10-21T09:19:34Z</time>
      </trkpt>
      <trkpt lat="43.0033220" lon="-3.2030380">
        <ele>679.3</ele>
        <time>2018-10-21T09:19:35Z</time>
      </trkpt>
      <trkpt lat="43.0033720" lon="-3.2029970">
        <ele>679.3</ele>
        <time>2018-10-21T09:19:36Z</time>
      </trkpt>
      <trkpt lat="43.0034230" lon="-3.2029570">
        <ele>679.3</ele>
        <time>2018-10-21T09:19:37Z</time>
      </trkpt>
      <trkpt lat="43.0034730" lon="-3.2029150">
        <ele>679.3</ele>
        <time>2018-10-21T09:19:38Z</time>
      </trkpt>
      <trkpt lat="43.0035220" lon="-3.2028750">
        <ele>679.3</ele>
        <time>2018-10-21T09:19:39Z</time>
      </trkpt>
      <trkpt lat="43.0035720" lon="-3.2028350">
        <ele>679.3</ele>
        <time>2018-10-21T09:19:40Z</time>
      </trkpt>
      <trkpt lat="43.0036220" lon="-3.2027950">
        <ele>679.3</ele>
        <time>2018-10-21T09:19:41Z</time>
      </trkpt>
      <trkpt lat="43.0036720" lon="-3.2027530">
        <ele>679.3</ele>
        <time>2018-10-21T09:19:42Z</time>
      </trkpt>
      <trkpt lat="43.0037250" lon="-3.2027120">
        <ele>679.3</ele>
        <time>2018-10-21T09:19:43Z</time>
      </trkpt>
      <trkpt lat="43.0037780" lon="-3.2026700">
        <ele>679.3</ele>
        <time>2018-10-21T09:19:44Z</time>
      </trkpt>
      <trkpt lat="43.0038300" lon="-3.2026270">
        <ele>680.2</ele>
        <time>2018-10-21T09:19:45Z</time>
      </trkpt>
      <trkpt lat="43.0038830" lon="-3.2025830">
        <ele>680.2</ele>
        <time>2018-10-21T09:19:46Z</time>
      </trkpt>
      <trkpt lat="43.0039350" lon="-3.2025400">
        <ele>680.2</ele>
        <time>2018-10-21T09:19:47Z</time>
      </trkpt>
      <trkpt lat="43.0039900" lon="-3.2024950">
        <ele>680.2</ele>
        <time>2018-10-21T09:19:48Z</time>
      </trkpt>
      <trkpt lat="43.0040420" lon="-3.2024470">
        <ele>680.2</ele>
        <time>2018-10-21T09:19:49Z</time>
      </trkpt>
      <trkpt lat="43.0040970" lon="-3.2023980">
        <ele>680.2</ele>
        <time>2018-10-21T09:19:50Z</time>
      </trkpt>
      <trkpt lat="43.0041500" lon="-3.2023530">
        <ele>680.2</ele>
        <time>2018-10-21T09:19:51Z</time>
      </trkpt>
      <trkpt lat="43.0042050" lon="-3.2023100">
        <ele>680.2</ele>
        <time>2018-10-21T09:19:52Z</time>
      </trkpt>
      <trkpt lat="43.0042600" lon="-3.2022680">
        <ele>680.2</ele>
        <time>2018-10-21T09:19:53Z</time>
      </trkpt>
      <trkpt lat="43.0043150" lon="-3.2022280">
        <ele>680.2</ele>
        <time>2018-10-21T09:19:54Z</time>
      </trkpt>
      <trkpt lat="43.0043700" lon="-3.2021850">
        <ele>680.2</ele>
        <time>2018-10-21T09:19:55Z</time>
      </trkpt>
      <trkpt lat="43.0044250" lon="-3.2021420">
        <ele>680.2</ele>
        <time>2018-10-21T09:19:56Z</time>
      </trkpt>
      <trkpt lat="43.0044800" lon="-3.2020970">
        <ele>680.2</ele>
        <time>2018-10-21T09:19:57Z</time>
      </trkpt>
      <trkpt lat="43.0045370" lon="-3.2020500">
        <ele>680.2</ele>
        <time>2018-10-21T09:19:58Z</time>
      </trkpt>
      <trkpt lat="43.0045950" lon="-3.2020020">
        <ele>680.2</ele>
        <time>2018-10-21T09:19:59Z</time>
      </trkpt>
      <trkpt lat="43.0046520" lon="-3.2019550">
        <ele>680.2</ele>
        <time>2018-10-21T09:20:00Z</time>
      </trkpt>
      <trkpt lat="43.0047080" lon="-3.2019070">
        <ele>680.2</ele>
        <time>2018-10-21T09:20:01Z</time>
      </trkpt>
      <trkpt lat="43.0047670" lon="-3.2018600">
        <ele>680.2</ele>
        <time>2018-10-21T09:20:02Z</time>
      </trkpt>
      <trkpt lat="43.0048230" lon="-3.2018100">
        <ele>680.2</ele>
        <time>2018-10-21T09:20:03Z</time>
      </trkpt>
      <trkpt lat="43.0048820" lon="-3.2017600">
        <ele>680.2</ele>
        <time>2018-10-21T09:20:04Z</time>
      </trkpt>
      <trkpt lat="43.0049400" lon="-3.2017130">
        <ele>680.2</ele>
        <time>2018-10-21T09:20:05Z</time>
      </trkpt>
      <trkpt lat="43.0049980" lon="-3.2016650">
        <ele>680.2</ele>
        <time>2018-10-21T09:20:06Z</time>
      </trkpt>
      <trkpt lat="43.0050550" lon="-3.2016170">
        <ele>680.2</ele>
        <time>2018-10-21T09:20:07Z</time>
      </trkpt>
      <trkpt lat="43.0051130" lon="-3.2015700">
        <ele>680.2</ele>
        <time>2018-10-21T09:20:08Z</time>
      </trkpt>
      <trkpt lat="43.0051720" lon="-3.2015230">
        <ele>680.2</ele>
        <time>2018-10-21T09:20:09Z</time>
      </trkpt>
      <trkpt lat="43.0052300" lon="-3.2014750">
        <ele>680.2</ele>
        <time>2018-10-21T09:20:10Z</time>
      </trkpt>
      <trkpt lat="43.0052880" lon="-3.2014250">
        <ele>680.2</ele>
        <time>2018-10-21T09:20:11Z</time>
      </trkpt>
      <trkpt lat="43.0053450" lon="-3.2013770">
        <ele>680.2</ele>
        <time>2018-10-21T09:20:12Z</time>
      </trkpt>
      <trkpt lat="43.0054030" lon="-3.2013280">
        <ele>680.2</ele>
        <time>2018-10-21T09:20:13Z</time>
      </trkpt>
      <trkpt lat="43.0054620" lon="-3.2012820">
        <ele>680.2</ele>
        <time>2018-10-21T09:20:14Z</time>
      </trkpt>
      <trkpt lat="43.0055200" lon="-3.2012350">
        <ele>680.2</ele>
        <time>2018-10-21T09:20:15Z</time>
      </trkpt>
      <trkpt lat="43.0055780" lon="-3.2011850">
        <ele>680.2</ele>
        <time>2018-10-21T09:20:16Z</time>
      </trkpt>
      <trkpt lat="43.0056370" lon="-3.2011380">
        <ele>680.2</ele>
        <time>2018-10-21T09:20:17Z</time>
      </trkpt>
      <trkpt lat="43.0056950" lon="-3.2010920">
        <ele>680.2</ele>
        <time>2018-10-21T09:20:18Z</time>
      </trkpt>
      <trkpt lat="43.0057530" lon="-3.2010450">
        <ele>680.2</ele>
        <time>2018-10-21T09:20:19Z</time>
      </trkpt>
      <trkpt lat="43.0058100" lon="-3.2009950">
        <ele>680.2</ele>
        <time>2018-10-21T09:20:20Z</time>
      </trkpt>
      <trkpt lat="43.0058670" lon="-3.2009470">
        <ele>680.2</ele>
        <time>2018-10-21T09:20:21Z</time>
      </trkpt>
      <trkpt lat="43.0059270" lon="-3.2009000">
        <ele>680.2</ele>
        <time>2018-10-21T09:20:22Z</time>
      </trkpt>
      <trkpt lat="43.0059850" lon="-3.2008520">
        <ele>680.2</ele>
        <time>2018-10-21T09:20:23Z</time>
      </trkpt>
      <trkpt lat="43.0060450" lon="-3.2008030">
        <ele>680.2</ele>
        <time>2018-10-21T09:20:24Z</time>
      </trkpt>
      <trkpt lat="43.0061050" lon="-3.2007570">
        <ele>680.2</ele>
        <time>2018-10-21T09:20:25Z</time>
      </trkpt>
      <trkpt lat="43.0061630" lon="-3.2007100">
        <ele>680.2</ele>
        <time>2018-10-21T09:20:26Z</time>
      </trkpt>
      <trkpt lat="43.0062220" lon="-3.2006620">
        <ele>680.2</ele>
        <time>2018-10-21T09:20:27Z</time>
      </trkpt>
      <trkpt lat="43.0062780" lon="-3.2006130">
        <ele>680.2</ele>
        <time>2018-10-21T09:20:28Z</time>
      </trkpt>
      <trkpt lat="43.0063350" lon="-3.2005670">
        <ele>680.2</ele>
        <time>2018-10-21T09:20:29Z</time>
      </trkpt>
      <trkpt lat="43.0063930" lon="-3.2005200">
        <ele>680.2</ele>
        <time>2018-10-21T09:20:30Z</time>
      </trkpt>
      <trkpt lat="43.0064500" lon="-3.2004750">
        <ele>680.2</ele>
        <time>2018-10-21T09:20:31Z</time>
      </trkpt>
      <trkpt lat="43.0065080" lon="-3.2004300">
        <ele>680.2</ele>
        <time>2018-10-21T09:20:32Z</time>
      </trkpt>
      <trkpt lat="43.0065650" lon="-3.2003830">
        <ele>680.2</ele>
        <time>2018-10-21T09:20:33Z</time>
      </trkpt>
      <trkpt lat="43.0066220" lon="-3.2003370">
        <ele>680.2</ele>
        <time>2018-10-21T09:20:34Z</time>
      </trkpt>
      <trkpt lat="43.0066780" lon="-3.2002900">
        <ele>680.2</ele>
        <time>2018-10-21T09:20:35Z</time>
      </trkpt>
      <trkpt lat="43.0067350" lon="-3.2002430">
        <ele>680.2</ele>
        <time>2018-10-21T09:20:36Z</time>
      </trkpt>
      <trkpt lat="43.0067920" lon="-3.2001970">
        <ele>680.2</ele>
        <time>2018-10-21T09:20:37Z</time>
      </trkpt>
      <trkpt lat="43.0068480" lon="-3.2001500">
        <ele>680.2</ele>
        <time>2018-10-21T09:20:38Z</time>
      </trkpt>
      <trkpt lat="43.0069050" lon="-3.2001050">
        <ele>680.2</ele>
        <time>2018-10-21T09:20:39Z</time>
      </trkpt>
      <trkpt lat="43.0069620" lon="-3.2000600">
        <ele>680.2</ele>
        <time>2018-10-21T09:20:40Z</time>
      </trkpt>
      <trkpt lat="43.0070180" lon="-3.2000170">
        <ele>680.2</ele>
        <time>2018-10-21T09:20:41Z</time>
      </trkpt>
      <trkpt lat="43.0070750" lon="-3.1999720">
        <ele>680.2</ele>
        <time>2018-10-21T09:20:42Z</time>
      </trkpt>
      <trkpt lat="43.0071350" lon="-3.1999200">
        <ele>680.2</ele>
        <time>2018-10-21T09:20:43Z</time>
      </trkpt>
      <trkpt lat="43.0071970" lon="-3.1998630">
        <ele>680.2</ele>
        <time>2018-10-21T09:20:44Z</time>
      </trkpt>
      <trkpt lat="43.0072570" lon="-3.1998100">
        <ele>680.2</ele>
        <time>2018-10-21T09:20:45Z</time>
      </trkpt>
      <trkpt lat="43.0073200" lon="-3.1997650">
        <ele>680.2</ele>
        <time>2018-10-21T09:20:46Z</time>
      </trkpt>
      <trkpt lat="43.0073820" lon="-3.1997270">
        <ele>680.2</ele>
        <time>2018-10-21T09:20:47Z</time>
      </trkpt>
      <trkpt lat="43.0074450" lon="-3.1996930">
        <ele>680.2</ele>
        <time>2018-10-21T09:20:48Z</time>
      </trkpt>
      <trkpt lat="43.0075030" lon="-3.1996600">
        <ele>682.3</ele>
        <time>2018-10-21T09:20:49Z</time>
      </trkpt>
      <trkpt lat="43.0075620" lon="-3.1996300">
        <ele>682.3</ele>
        <time>2018-10-21T09:20:50Z</time>
      </trkpt>
      <trkpt lat="43.0076200" lon="-3.1996070">
        <ele>682.3</ele>
        <time>2018-10-21T09:20:51Z</time>
      </trkpt>
      <trkpt lat="43.0076780" lon="-3.1995830">
        <ele>682.3</ele>
        <time>2018-10-21T09:20:52Z</time>
      </trkpt>
      <trkpt lat="43.0077370" lon="-3.1995600">
        <ele>682.3</ele>
        <time>2018-10-21T09:20:53Z</time>
      </trkpt>
      <trkpt lat="43.0077930" lon="-3.1995370">
        <ele>682.3</ele>
        <time>2018-10-21T09:20:54Z</time>
      </trkpt>
      <trkpt lat="43.0078520" lon="-3.1995130">
        <ele>682.3</ele>
        <time>2018-10-21T09:20:55Z</time>
      </trkpt>
      <trkpt lat="43.0079120" lon="-3.1994920">
        <ele>682.3</ele>
        <time>2018-10-21T09:20:56Z</time>
      </trkpt>
      <trkpt lat="43.0079730" lon="-3.1994730">
        <ele>682.3</ele>
        <time>2018-10-21T09:20:57Z</time>
      </trkpt>
      <trkpt lat="43.0080370" lon="-3.1994570">
        <ele>682.3</ele>
        <time>2018-10-21T09:20:58Z</time>
      </trkpt>
      <trkpt lat="43.0081020" lon="-3.1994370">
        <ele>682.3</ele>
        <time>2018-10-21T09:20:59Z</time>
      </trkpt>
      <trkpt lat="43.0081670" lon="-3.1994200">
        <ele>682.3</ele>
        <time>2018-10-21T09:21:00Z</time>
      </trkpt>
      <trkpt lat="43.0082320" lon="-3.1994020">
        <ele>683.2</ele>
        <time>2018-10-21T09:21:01Z</time>
      </trkpt>
      <trkpt lat="43.0082950" lon="-3.1993830">
        <ele>683.2</ele>
        <time>2018-10-21T09:21:02Z</time>
      </trkpt>
      <trkpt lat="43.0083600" lon="-3.1993650">
        <ele>683.2</ele>
        <time>2018-10-21T09:21:03Z</time>
      </trkpt>
      <trkpt lat="43.0084230" lon="-3.1993500">
        <ele>683.2</ele>
        <time>2018-10-21T09:21:04Z</time>
      </trkpt>
      <trkpt lat="43.0084870" lon="-3.1993350">
        <ele>684.3</ele>
        <time>2018-10-21T09:21:05Z</time>
      </trkpt>
      <trkpt lat="43.0085480" lon="-3.1993180">
        <ele>684.3</ele>
        <time>2018-10-21T09:21:06Z</time>
      </trkpt>
      <trkpt lat="43.0086120" lon="-3.1993000">
        <ele>684.3</ele>
        <time>2018-10-21T09:21:07Z</time>
      </trkpt>
      <trkpt lat="43.0086750" lon="-3.1992830">
        <ele>684.3</ele>
        <time>2018-10-21T09:21:08Z</time>
      </trkpt>
      <trkpt lat="43.0087370" lon="-3.1992680">
        <ele>684.3</ele>
        <time>2018-10-21T09:21:09Z</time>
      </trkpt>
      <trkpt lat="43.0088000" lon="-3.1992520">
        <ele>684.3</ele>
        <time>2018-10-21T09:21:10Z</time>
      </trkpt>
      <trkpt lat="43.0088630" lon="-3.1992350">
        <ele>684.3</ele>
        <time>2018-10-21T09:21:11Z</time>
      </trkpt>
      <trkpt lat="43.0089270" lon="-3.1992170">
        <ele>684.3</ele>
        <time>2018-10-21T09:21:12Z</time>
      </trkpt>
      <trkpt lat="43.0089900" lon="-3.1991980">
        <ele>684.3</ele>
        <time>2018-10-21T09:21:13Z</time>
      </trkpt>
      <trkpt lat="43.0090530" lon="-3.1991830">
        <ele>684.3</ele>
        <time>2018-10-21T09:21:14Z</time>
      </trkpt>
      <trkpt lat="43.0091170" lon="-3.1991670">
        <ele>685.2</ele>
        <time>2018-10-21T09:21:15Z</time>
      </trkpt>
      <trkpt lat="43.0091780" lon="-3.1991480">
        <ele>685.2</ele>
        <time>2018-10-21T09:21:16Z</time>
      </trkpt>
      <trkpt lat="43.0092380" lon="-3.1991320">
        <ele>685.2</ele>
        <time>2018-10-21T09:21:17Z</time>
      </trkpt>
      <trkpt lat="43.0092950" lon="-3.1991130">
        <ele>685.2</ele>
        <time>2018-10-21T09:21:18Z</time>
      </trkpt>
      <trkpt lat="43.0093480" lon="-3.1990950">
        <ele>685.2</ele>
        <time>2018-10-21T09:21:19Z</time>
      </trkpt>
      <trkpt lat="43.0094000" lon="-3.1990820">
        <ele>685.2</ele>
        <time>2018-10-21T09:21:20Z</time>
      </trkpt>
      <trkpt lat="43.0094530" lon="-3.1990670">
        <ele>685.2</ele>
        <time>2018-10-21T09:21:21Z</time>
      </trkpt>
      <trkpt lat="43.0095080" lon="-3.1990520">
        <ele>685.2</ele>
        <time>2018-10-21T09:21:22Z</time>
      </trkpt>
      <trkpt lat="43.0095650" lon="-3.1990380">
        <ele>685.2</ele>
        <time>2018-10-21T09:21:23Z</time>
      </trkpt>
      <trkpt lat="43.0096230" lon="-3.1990250">
        <ele>685.2</ele>
        <time>2018-10-21T09:21:24Z</time>
      </trkpt>
      <trkpt lat="43.0096780" lon="-3.1990150">
        <ele>685.2</ele>
        <time>2018-10-21T09:21:25Z</time>
      </trkpt>
      <trkpt lat="43.0097330" lon="-3.1990020">
        <ele>685.2</ele>
        <time>2018-10-21T09:21:26Z</time>
      </trkpt>
      <trkpt lat="43.0097870" lon="-3.1989880">
        <ele>686.3</ele>
        <time>2018-10-21T09:21:27Z</time>
      </trkpt>
      <trkpt lat="43.0098400" lon="-3.1989770">
        <ele>686.3</ele>
        <time>2018-10-21T09:21:28Z</time>
      </trkpt>
      <trkpt lat="43.0098930" lon="-3.1989650">
        <ele>686.3</ele>
        <time>2018-10-21T09:21:29Z</time>
      </trkpt>
      <trkpt lat="43.0099450" lon="-3.1989530">
        <ele>686.3</ele>
        <time>2018-10-21T09:21:30Z</time>
      </trkpt>
      <trkpt lat="43.0099980" lon="-3.1989450">
        <ele>687.2</ele>
        <time>2018-10-21T09:21:31Z</time>
      </trkpt>
      <trkpt lat="43.0100480" lon="-3.1989380">
        <ele>687.2</ele>
        <time>2018-10-21T09:21:32Z</time>
      </trkpt>
      <trkpt lat="43.0101000" lon="-3.1989350">
        <ele>688.2</ele>
        <time>2018-10-21T09:21:33Z</time>
      </trkpt>
      <trkpt lat="43.0101500" lon="-3.1989370">
        <ele>688.2</ele>
        <time>2018-10-21T09:21:34Z</time>
      </trkpt>
      <trkpt lat="43.0102000" lon="-3.1989400">
        <ele>688.2</ele>
        <time>2018-10-21T09:21:35Z</time>
      </trkpt>
      <trkpt lat="43.0102500" lon="-3.1989480">
        <ele>688.2</ele>
        <time>2018-10-21T09:21:36Z</time>
      </trkpt>
      <trkpt lat="43.0103000" lon="-3.1989550">
        <ele>689.3</ele>
        <time>2018-10-21T09:21:37Z</time>
      </trkpt>
      <trkpt lat="43.0103480" lon="-3.1989680">
        <ele>689.3</ele>
        <time>2018-10-21T09:21:38Z</time>
      </trkpt>
      <trkpt lat="43.0104000" lon="-3.1989820">
        <ele>689.3</ele>
        <time>2018-10-21T09:21:39Z</time>
      </trkpt>
      <trkpt lat="43.0104530" lon="-3.1989950">
        <ele>689.3</ele>
        <time>2018-10-21T09:21:40Z</time>
      </trkpt>
      <trkpt lat="43.0105070" lon="-3.1990100">
        <ele>689.3</ele>
        <time>2018-10-21T09:21:41Z</time>
      </trkpt>
      <trkpt lat="43.0105570" lon="-3.1990270">
        <ele>689.3</ele>
        <time>2018-10-21T09:21:42Z</time>
      </trkpt>
      <trkpt lat="43.0106080" lon="-3.1990430">
        <ele>689.3</ele>
        <time>2018-10-21T09:21:43Z</time>
      </trkpt>
      <trkpt lat="43.0106580" lon="-3.1990630">
        <ele>689.3</ele>
        <time>2018-10-21T09:21:44Z</time>
      </trkpt>
      <trkpt lat="43.0107080" lon="-3.1990820">
        <ele>689.3</ele>
        <time>2018-10-21T09:21:45Z</time>
      </trkpt>
      <trkpt lat="43.0107570" lon="-3.1991020">
        <ele>689.3</ele>
        <time>2018-10-21T09:21:46Z</time>
      </trkpt>
      <trkpt lat="43.0108050" lon="-3.1991230">
        <ele>690.2</ele>
        <time>2018-10-21T09:21:47Z</time>
      </trkpt>
      <trkpt lat="43.0108550" lon="-3.1991450">
        <ele>690.2</ele>
        <time>2018-10-21T09:21:48Z</time>
      </trkpt>
      <trkpt lat="43.0109050" lon="-3.1991670">
        <ele>690.2</ele>
        <time>2018-10-21T09:21:49Z</time>
      </trkpt>
      <trkpt lat="43.0109550" lon="-3.1991900">
        <ele>690.2</ele>
        <time>2018-10-21T09:21:50Z</time>
      </trkpt>
      <trkpt lat="43.0110100" lon="-3.1992180">
        <ele>690.2</ele>
        <time>2018-10-21T09:21:51Z</time>
      </trkpt>
      <trkpt lat="43.0110650" lon="-3.1992450">
        <ele>690.2</ele>
        <time>2018-10-21T09:21:52Z</time>
      </trkpt>
      <trkpt lat="43.0111200" lon="-3.1992750">
        <ele>690.2</ele>
        <time>2018-10-21T09:21:53Z</time>
      </trkpt>
      <trkpt lat="43.0111750" lon="-3.1993050">
        <ele>690.2</ele>
        <time>2018-10-21T09:21:54Z</time>
      </trkpt>
      <trkpt lat="43.0112300" lon="-3.1993350">
        <ele>690.2</ele>
        <time>2018-10-21T09:21:55Z</time>
      </trkpt>
      <trkpt lat="43.0112870" lon="-3.1993630">
        <ele>690.2</ele>
        <time>2018-10-21T09:21:56Z</time>
      </trkpt>
      <trkpt lat="43.0113420" lon="-3.1993970">
        <ele>690.2</ele>
        <time>2018-10-21T09:21:57Z</time>
      </trkpt>
      <trkpt lat="43.0113970" lon="-3.1994320">
        <ele>690.2</ele>
        <time>2018-10-21T09:21:58Z</time>
      </trkpt>
      <trkpt lat="43.0114530" lon="-3.1994670">
        <ele>690.2</ele>
        <time>2018-10-21T09:21:59Z</time>
      </trkpt>
      <trkpt lat="43.0115100" lon="-3.1995050">
        <ele>690.2</ele>
        <time>2018-10-21T09:22:00Z</time>
      </trkpt>
      <trkpt lat="43.0115630" lon="-3.1995470">
        <ele>690.2</ele>
        <time>2018-10-21T09:22:01Z</time>
      </trkpt>
      <trkpt lat="43.0116180" lon="-3.1995880">
        <ele>690.2</ele>
        <time>2018-10-21T09:22:02Z</time>
      </trkpt>
      <trkpt lat="43.0116720" lon="-3.1996350">
        <ele>690.2</ele>
        <time>2018-10-21T09:22:03Z</time>
      </trkpt>
      <trkpt lat="43.0117230" lon="-3.1996800">
        <ele>690.2</ele>
        <time>2018-10-21T09:22:04Z</time>
      </trkpt>
      <trkpt lat="43.0117750" lon="-3.1997280">
        <ele>690.2</ele>
        <time>2018-10-21T09:22:05Z</time>
      </trkpt>
      <trkpt lat="43.0118280" lon="-3.1997770">
        <ele>690.2</ele>
        <time>2018-10-21T09:22:06Z</time>
      </trkpt>
      <trkpt lat="43.0118820" lon="-3.1998250">
        <ele>690.2</ele>
        <time>2018-10-21T09:22:07Z</time>
      </trkpt>
      <trkpt lat="43.0119330" lon="-3.1998750">
        <ele>690.2</ele>
        <time>2018-10-21T09:22:08Z</time>
      </trkpt>
      <trkpt lat="43.0119850" lon="-3.1999270">
        <ele>690.2</ele>
        <time>2018-10-21T09:22:09Z</time>
      </trkpt>
      <trkpt lat="43.0120380" lon="-3.1999800">
        <ele>690.2</ele>
        <time>2018-10-21T09:22:10Z</time>
      </trkpt>
      <trkpt lat="43.0120920" lon="-3.2000300">
        <ele>690.2</ele>
        <time>2018-10-21T09:22:11Z</time>
      </trkpt>
      <trkpt lat="43.0121450" lon="-3.2000800">
        <ele>690.2</ele>
        <time>2018-10-21T09:22:12Z</time>
      </trkpt>
      <trkpt lat="43.0121970" lon="-3.2001280">
        <ele>690.2</ele>
        <time>2018-10-21T09:22:13Z</time>
      </trkpt>
      <trkpt lat="43.0122500" lon="-3.2001750">
        <ele>690.2</ele>
        <time>2018-10-21T09:22:14Z</time>
      </trkpt>
      <trkpt lat="43.0123030" lon="-3.2002170">
        <ele>690.2</ele>
        <time>2018-10-21T09:22:15Z</time>
      </trkpt>
      <trkpt lat="43.0123570" lon="-3.2002570">
        <ele>690.2</ele>
        <time>2018-10-21T09:22:16Z</time>
      </trkpt>
      <trkpt lat="43.0124130" lon="-3.2002930">
        <ele>690.2</ele>
        <time>2018-10-21T09:22:17Z</time>
      </trkpt>
      <trkpt lat="43.0124720" lon="-3.2003280">
        <ele>690.2</ele>
        <time>2018-10-21T09:22:18Z</time>
      </trkpt>
      <trkpt lat="43.0125300" lon="-3.2003550">
        <ele>690.2</ele>
        <time>2018-10-21T09:22:19Z</time>
      </trkpt>
      <trkpt lat="43.0125880" lon="-3.2003770">
        <ele>690.2</ele>
        <time>2018-10-21T09:22:20Z</time>
      </trkpt>
      <trkpt lat="43.0126470" lon="-3.2003950">
        <ele>690.2</ele>
        <time>2018-10-21T09:22:21Z</time>
      </trkpt>
      <trkpt lat="43.0127070" lon="-3.2004070">
        <ele>690.2</ele>
        <time>2018-10-21T09:22:22Z</time>
      </trkpt>
      <trkpt lat="43.0127670" lon="-3.2004130">
        <ele>690.2</ele>
        <time>2018-10-21T09:22:23Z</time>
      </trkpt>
      <trkpt lat="43.0128270" lon="-3.2004170">
        <ele>690.2</ele>
        <time>2018-10-21T09:22:24Z</time>
      </trkpt>
      <trkpt lat="43.0128850" lon="-3.2004170">
        <ele>690.2</ele>
        <time>2018-10-21T09:22:25Z</time>
      </trkpt>
      <trkpt lat="43.0129450" lon="-3.2004120">
        <ele>690.2</ele>
        <time>2018-10-21T09:22:26Z</time>
      </trkpt>
      <trkpt lat="43.0130080" lon="-3.2004050">
        <ele>691.3</ele>
        <time>2018-10-21T09:22:27Z</time>
      </trkpt>
      <trkpt lat="43.0130720" lon="-3.2003970">
        <ele>691.3</ele>
        <time>2018-10-21T09:22:28Z</time>
      </trkpt>
      <trkpt lat="43.0131370" lon="-3.2003780">
        <ele>691.3</ele>
        <time>2018-10-21T09:22:29Z</time>
      </trkpt>
      <trkpt lat="43.0132000" lon="-3.2003600">
        <ele>691.3</ele>
        <time>2018-10-21T09:22:30Z</time>
      </trkpt>
      <trkpt lat="43.0132630" lon="-3.2003420">
        <ele>692.2</ele>
        <time>2018-10-21T09:22:31Z</time>
      </trkpt>
      <trkpt lat="43.0133270" lon="-3.2003220">
        <ele>692.2</ele>
        <time>2018-10-21T09:22:32Z</time>
      </trkpt>
      <trkpt lat="43.0133880" lon="-3.2003000">
        <ele>692.2</ele>
        <time>2018-10-21T09:22:33Z</time>
      </trkpt>
      <trkpt lat="43.0134530" lon="-3.2002770">
        <ele>692.2</ele>
        <time>2018-10-21T09:22:34Z</time>
      </trkpt>
      <trkpt lat="43.0135170" lon="-3.2002550">
        <ele>692.2</ele>
        <time>2018-10-21T09:22:35Z</time>
      </trkpt>
      <trkpt lat="43.0135800" lon="-3.2002320">
        <ele>692.2</ele>
        <time>2018-10-21T09:22:36Z</time>
      </trkpt>
      <trkpt lat="43.0136450" lon="-3.2002100">
        <ele>692.2</ele>
        <time>2018-10-21T09:22:37Z</time>
      </trkpt>
      <trkpt lat="43.0137080" lon="-3.2001900">
        <ele>692.2</ele>
        <time>2018-10-21T09:22:38Z</time>
      </trkpt>
      <trkpt lat="43.0137730" lon="-3.2001680">
        <ele>692.2</ele>
        <time>2018-10-21T09:22:39Z</time>
      </trkpt>
      <trkpt lat="43.0138370" lon="-3.2001450">
        <ele>692.2</ele>
        <time>2018-10-21T09:22:40Z</time>
      </trkpt>
      <trkpt lat="43.0139020" lon="-3.2001220">
        <ele>692.2</ele>
        <time>2018-10-21T09:22:41Z</time>
      </trkpt>
      <trkpt lat="43.0139670" lon="-3.2000980">
        <ele>692.2</ele>
        <time>2018-10-21T09:22:42Z</time>
      </trkpt>
      <trkpt lat="43.0140320" lon="-3.2000770">
        <ele>692.2</ele>
        <time>2018-10-21T09:22:43Z</time>
      </trkpt>
      <trkpt lat="43.0140980" lon="-3.2000530">
        <ele>692.2</ele>
        <time>2018-10-21T09:22:44Z</time>
      </trkpt>
      <trkpt lat="43.0141650" lon="-3.2000320">
        <ele>693.3</ele>
        <time>2018-10-21T09:22:45Z</time>
      </trkpt>
      <trkpt lat="43.0142320" lon="-3.2000100">
        <ele>693.3</ele>
        <time>2018-10-21T09:22:46Z</time>
      </trkpt>
      <trkpt lat="43.0142980" lon="-3.1999870">
        <ele>693.3</ele>
        <time>2018-10-21T09:22:47Z</time>
      </trkpt>
      <trkpt lat="43.0143650" lon="-3.1999680">
        <ele>693.3</ele>
        <time>2018-10-21T09:22:48Z</time>
      </trkpt>
      <trkpt lat="43.0144330" lon="-3.1999520">
        <ele>693.3</ele>
        <time>2018-10-21T09:22:49Z</time>
      </trkpt>
      <trkpt lat="43.0145030" lon="-3.1999370">
        <ele>693.3</ele>
        <time>2018-10-21T09:22:50Z</time>
      </trkpt>
      <trkpt lat="43.0145730" lon="-3.1999270">
        <ele>694.2</ele>
        <time>2018-10-21T09:22:51Z</time>
      </trkpt>
      <trkpt lat="43.0146430" lon="-3.1999200">
        <ele>694.2</ele>
        <time>2018-10-21T09:22:52Z</time>
      </trkpt>
      <trkpt lat="43.0147130" lon="-3.1999170">
        <ele>694.2</ele>
        <time>2018-10-21T09:22:53Z</time>
      </trkpt>
      <trkpt lat="43.0147830" lon="-3.1999130">
        <ele>694.2</ele>
        <time>2018-10-21T09:22:54Z</time>
      </trkpt>
      <trkpt lat="43.0148530" lon="-3.1999130">
        <ele>694.2</ele>
        <time>2018-10-21T09:22:55Z</time>
      </trkpt>
      <trkpt lat="43.0149230" lon="-3.1999150">
        <ele>694.2</ele>
        <time>2018-10-21T09:22:56Z</time>
      </trkpt>
      <trkpt lat="43.0149950" lon="-3.1999170">
        <ele>694.2</ele>
        <time>2018-10-21T09:22:57Z</time>
      </trkpt>
      <trkpt lat="43.0150670" lon="-3.1999180">
        <ele>694.2</ele>
        <time>2018-10-21T09:22:58Z</time>
      </trkpt>
      <trkpt lat="43.0151400" lon="-3.1999220">
        <ele>694.2</ele>
        <time>2018-10-21T09:22:59Z</time>
      </trkpt>
      <trkpt lat="43.0152100" lon="-3.1999250">
        <ele>694.2</ele>
        <time>2018-10-21T09:23:00Z</time>
      </trkpt>
      <trkpt lat="43.0152820" lon="-3.1999300">
        <ele>694.2</ele>
        <time>2018-10-21T09:23:01Z</time>
      </trkpt>
      <trkpt lat="43.0153530" lon="-3.1999330">
        <ele>694.2</ele>
        <time>2018-10-21T09:23:02Z</time>
      </trkpt>
      <trkpt lat="43.0154230" lon="-3.1999350">
        <ele>694.2</ele>
        <time>2018-10-21T09:23:03Z</time>
      </trkpt>
      <trkpt lat="43.0154950" lon="-3.1999350">
        <ele>694.2</ele>
        <time>2018-10-21T09:23:04Z</time>
      </trkpt>
      <trkpt lat="43.0155650" lon="-3.1999300">
        <ele>694.2</ele>
        <time>2018-10-21T09:23:05Z</time>
      </trkpt>
      <trkpt lat="43.0156350" lon="-3.1999230">
        <ele>694.2</ele>
        <time>2018-10-21T09:23:06Z</time>
      </trkpt>
      <trkpt lat="43.0157050" lon="-3.1999130">
        <ele>694.2</ele>
        <time>2018-10-21T09:23:07Z</time>
      </trkpt>
      <trkpt lat="43.0157730" lon="-3.1999030">
        <ele>694.2</ele>
        <time>2018-10-21T09:23:08Z</time>
      </trkpt>
      <trkpt lat="43.0158400" lon="-3.1998830">
        <ele>694.2</ele>
        <time>2018-10-21T09:23:09Z</time>
      </trkpt>
      <trkpt lat="43.0159050" lon="-3.1998630">
        <ele>694.2</ele>
        <time>2018-10-21T09:23:10Z</time>
      </trkpt>
      <trkpt lat="43.0159700" lon="-3.1998380">
        <ele>695.3</ele>
        <time>2018-10-21T09:23:11Z</time>
      </trkpt>
      <trkpt lat="43.0160320" lon="-3.1998070">
        <ele>695.3</ele>
        <time>2018-10-21T09:23:12Z</time>
      </trkpt>
      <trkpt lat="43.0160920" lon="-3.1997750">
        <ele>695.3</ele>
        <time>2018-10-21T09:23:13Z</time>
      </trkpt>
      <trkpt lat="43.0161500" lon="-3.1997380">
        <ele>695.3</ele>
        <time>2018-10-21T09:23:14Z</time>
      </trkpt>
      <trkpt lat="43.0162080" lon="-3.1996980">
        <ele>695.3</ele>
        <time>2018-10-21T09:23:15Z</time>
      </trkpt>
      <trkpt lat="43.0162670" lon="-3.1996570">
        <ele>695.3</ele>
        <time>2018-10-21T09:23:16Z</time>
      </trkpt>
      <trkpt lat="43.0163230" lon="-3.1996150">
        <ele>696.2</ele>
        <time>2018-10-21T09:23:17Z</time>
      </trkpt>
      <trkpt lat="43.0163820" lon="-3.1995730">
        <ele>696.2</ele>
        <time>2018-10-21T09:23:18Z</time>
      </trkpt>
      <trkpt lat="43.0164370" lon="-3.1995300">
        <ele>696.2</ele>
        <time>2018-10-21T09:23:19Z</time>
      </trkpt>
      <trkpt lat="43.0164930" lon="-3.1994870">
        <ele>696.2</ele>
        <time>2018-10-21T09:23:20Z</time>
      </trkpt>
      <trkpt lat="43.0165480" lon="-3.1994450">
        <ele>696.2</ele>
        <time>2018-10-21T09:23:21Z</time>
      </trkpt>
      <trkpt lat="43.0166030" lon="-3.1994020">
        <ele>696.2</ele>
        <time>2018-10-21T09:23:22Z</time>
      </trkpt>
      <trkpt lat="43.0166600" lon="-3.1993570">
        <ele>697.2</ele>
        <time>2018-10-21T09:23:23Z</time>
      </trkpt>
      <trkpt lat="43.0167150" lon="-3.1993130">
        <ele>697.2</ele>
        <time>2018-10-21T09:23:24Z</time>
      </trkpt>
      <trkpt lat="43.0167720" lon="-3.1992700">
        <ele>697.2</ele>
        <time>2018-10-21T09:23:25Z</time>
      </trkpt>
      <trkpt lat="43.0168270" lon="-3.1992250">
        <ele>697.2</ele>
        <time>2018-10-21T09:23:26Z</time>
      </trkpt>
      <trkpt lat="43.0168830" lon="-3.1991780">
        <ele>697.2</ele>
        <time>2018-10-21T09:23:27Z</time>
      </trkpt>
      <trkpt lat="43.0169380" lon="-3.1991300">
        <ele>697.2</ele>
        <time>2018-10-21T09:23:28Z</time>
      </trkpt>
      <trkpt lat="43.0169930" lon="-3.1990780">
        <ele>698.3</ele>
        <time>2018-10-21T09:23:29Z</time>
      </trkpt>
      <trkpt lat="43.0170470" lon="-3.1990250">
        <ele>698.3</ele>
        <time>2018-10-21T09:23:30Z</time>
      </trkpt>
      <trkpt lat="43.0171000" lon="-3.1989700">
        <ele>698.3</ele>
        <time>2018-10-21T09:23:31Z</time>
      </trkpt>
      <trkpt lat="43.0171500" lon="-3.1989120">
        <ele>698.3</ele>
        <time>2018-10-21T09:23:32Z</time>
      </trkpt>
      <trkpt lat="43.0171970" lon="-3.1988520">
        <ele>698.3</ele>
        <time>2018-10-21T09:23:33Z</time>
      </trkpt>
      <trkpt lat="43.0172430" lon="-3.1987900">
        <ele>698.3</ele>
        <time>2018-10-21T09:23:34Z</time>
      </trkpt>
      <trkpt lat="43.0172880" lon="-3.1987270">
        <ele>698.3</ele>
        <time>2018-10-21T09:23:35Z</time>
      </trkpt>
      <trkpt lat="43.0173330" lon="-3.1986620">
        <ele>698.3</ele>
        <time>2018-10-21T09:23:36Z</time>
      </trkpt>
      <trkpt lat="43.0173770" lon="-3.1985950">
        <ele>698.3</ele>
        <time>2018-10-21T09:23:37Z</time>
      </trkpt>
      <trkpt lat="43.0174220" lon="-3.1985270">
        <ele>698.3</ele>
        <time>2018-10-21T09:23:38Z</time>
      </trkpt>
      <trkpt lat="43.0174680" lon="-3.1984620">
        <ele>698.3</ele>
        <time>2018-10-21T09:23:39Z</time>
      </trkpt>
      <trkpt lat="43.0175150" lon="-3.1983970">
        <ele>698.3</ele>
        <time>2018-10-21T09:23:40Z</time>
      </trkpt>
      <trkpt lat="43.0175620" lon="-3.1983300">
        <ele>698.3</ele>
        <time>2018-10-21T09:23:41Z</time>
      </trkpt>
      <trkpt lat="43.0176080" lon="-3.1982620">
        <ele>698.3</ele>
        <time>2018-10-21T09:23:42Z</time>
      </trkpt>
      <trkpt lat="43.0176570" lon="-3.1981920">
        <ele>698.3</ele>
        <time>2018-10-21T09:23:43Z</time>
      </trkpt>
      <trkpt lat="43.0177050" lon="-3.1981200">
        <ele>698.3</ele>
        <time>2018-10-21T09:23:44Z</time>
      </trkpt>
      <trkpt lat="43.0177530" lon="-3.1980520">
        <ele>699.2</ele>
        <time>2018-10-21T09:23:45Z</time>
      </trkpt>
      <trkpt lat="43.0178000" lon="-3.1979820">
        <ele>699.2</ele>
        <time>2018-10-21T09:23:46Z</time>
      </trkpt>
      <trkpt lat="43.0178450" lon="-3.1979150">
        <ele>699.2</ele>
        <time>2018-10-21T09:23:47Z</time>
      </trkpt>
      <trkpt lat="43.0178900" lon="-3.1978470">
        <ele>699.2</ele>
        <time>2018-10-21T09:23:48Z</time>
      </trkpt>
      <trkpt lat="43.0179330" lon="-3.1977800">
        <ele>699.2</ele>
        <time>2018-10-21T09:23:49Z</time>
      </trkpt>
      <trkpt lat="43.0179780" lon="-3.1977150">
        <ele>699.2</ele>
        <time>2018-10-21T09:23:50Z</time>
      </trkpt>
      <trkpt lat="43.0180230" lon="-3.1976480">
        <ele>699.2</ele>
        <time>2018-10-21T09:23:51Z</time>
      </trkpt>
      <trkpt lat="43.0180680" lon="-3.1975800">
        <ele>699.2</ele>
        <time>2018-10-21T09:23:52Z</time>
      </trkpt>
      <trkpt lat="43.0181150" lon="-3.1975130">
        <ele>699.2</ele>
        <time>2018-10-21T09:23:53Z</time>
      </trkpt>
      <trkpt lat="43.0181630" lon="-3.1974450">
        <ele>699.2</ele>
        <time>2018-10-21T09:23:54Z</time>
      </trkpt>
      <trkpt lat="43.0182120" lon="-3.1973770">
        <ele>699.2</ele>
        <time>2018-10-21T09:23:55Z</time>
      </trkpt>
      <trkpt lat="43.0182620" lon="-3.1973100">
        <ele>699.2</ele>
        <time>2018-10-21T09:23:56Z</time>
      </trkpt>
      <trkpt lat="43.0183120" lon="-3.1972450">
        <ele>699.2</ele>
        <time>2018-10-21T09:23:57Z</time>
      </trkpt>
      <trkpt lat="43.0183650" lon="-3.1971800">
        <ele>699.2</ele>
        <time>2018-10-21T09:23:58Z</time>
      </trkpt>
      <trkpt lat="43.0184180" lon="-3.1971170">
        <ele>699.2</ele>
        <time>2018-10-21T09:23:59Z</time>
      </trkpt>
      <trkpt lat="43.0184720" lon="-3.1970570">
        <ele>699.2</ele>
        <time>2018-10-21T09:24:00Z</time>
      </trkpt>
      <trkpt lat="43.0185270" lon="-3.1969970">
        <ele>699.2</ele>
        <time>2018-10-21T09:24:01Z</time>
      </trkpt>
      <trkpt lat="43.0185820" lon="-3.1969380">
        <ele>699.2</ele>
        <time>2018-10-21T09:24:02Z</time>
      </trkpt>
      <trkpt lat="43.0186370" lon="-3.1968820">
        <ele>699.2</ele>
        <time>2018-10-21T09:24:03Z</time>
      </trkpt>
      <trkpt lat="43.0186900" lon="-3.1968270">
        <ele>699.2</ele>
        <time>2018-10-21T09:24:04Z</time>
      </trkpt>
      <trkpt lat="43.0187420" lon="-3.1967720">
        <ele>699.2</ele>
        <time>2018-10-21T09:24:05Z</time>
      </trkpt>
      <trkpt lat="43.0187920" lon="-3.1967150">
        <ele>699.2</ele>
        <time>2018-10-21T09:24:06Z</time>
      </trkpt>
      <trkpt lat="43.0188450" lon="-3.1966600">
        <ele>699.2</ele>
        <time>2018-10-21T09:24:07Z</time>
      </trkpt>
      <trkpt lat="43.0189020" lon="-3.1966050">
        <ele>699.2</ele>
        <time>2018-10-21T09:24:08Z</time>
      </trkpt>
      <trkpt lat="43.0189570" lon="-3.1965520">
        <ele>699.2</ele>
        <time>2018-10-21T09:24:09Z</time>
      </trkpt>
      <trkpt lat="43.0190120" lon="-3.1964980">
        <ele>699.2</ele>
        <time>2018-10-21T09:24:10Z</time>
      </trkpt>
      <trkpt lat="43.0190670" lon="-3.1964470">
        <ele>699.2</ele>
        <time>2018-10-21T09:24:11Z</time>
      </trkpt>
      <trkpt lat="43.0191200" lon="-3.1963930">
        <ele>699.2</ele>
        <time>2018-10-21T09:24:12Z</time>
      </trkpt>
      <trkpt lat="43.0191730" lon="-3.1963400">
        <ele>699.2</ele>
        <time>2018-10-21T09:24:13Z</time>
      </trkpt>
      <trkpt lat="43.0192270" lon="-3.1962880">
        <ele>699.2</ele>
        <time>2018-10-21T09:24:14Z</time>
      </trkpt>
      <trkpt lat="43.0192800" lon="-3.1962350">
        <ele>700.3</ele>
        <time>2018-10-21T09:24:15Z</time>
      </trkpt>
      <trkpt lat="43.0193320" lon="-3.1961830">
        <ele>700.3</ele>
        <time>2018-10-21T09:24:16Z</time>
      </trkpt>
      <trkpt lat="43.0193830" lon="-3.1961320">
        <ele>700.3</ele>
        <time>2018-10-21T09:24:17Z</time>
      </trkpt>
      <trkpt lat="43.0194350" lon="-3.1960820">
        <ele>700.3</ele>
        <time>2018-10-21T09:24:18Z</time>
      </trkpt>
      <trkpt lat="43.0194870" lon="-3.1960320">
        <ele>701.2</ele>
        <time>2018-10-21T09:24:19Z</time>
      </trkpt>
      <trkpt lat="43.0195380" lon="-3.1959820">
        <ele>701.2</ele>
        <time>2018-10-21T09:24:20Z</time>
      </trkpt>
      <trkpt lat="43.0195880" lon="-3.1959280">
        <ele>701.2</ele>
        <time>2018-10-21T09:24:21Z</time>
      </trkpt>
      <trkpt lat="43.0196420" lon="-3.1958750">
        <ele>701.2</ele>
        <time>2018-10-21T09:24:22Z</time>
      </trkpt>
      <trkpt lat="43.0196950" lon="-3.1958220">
        <ele>701.2</ele>
        <time>2018-10-21T09:24:23Z</time>
      </trkpt>
      <trkpt lat="43.0197480" lon="-3.1957680">
        <ele>701.2</ele>
        <time>2018-10-21T09:24:24Z</time>
      </trkpt>
      <trkpt lat="43.0198020" lon="-3.1957170">
        <ele>701.2</ele>
        <time>2018-10-21T09:24:25Z</time>
      </trkpt>
      <trkpt lat="43.0198550" lon="-3.1956650">
        <ele>701.2</ele>
        <time>2018-10-21T09:24:26Z</time>
      </trkpt>
      <trkpt lat="43.0199070" lon="-3.1956130">
        <ele>701.2</ele>
        <time>2018-10-21T09:24:27Z</time>
      </trkpt>
      <trkpt lat="43.0199600" lon="-3.1955620">
        <ele>701.2</ele>
        <time>2018-10-21T09:24:28Z</time>
      </trkpt>
      <trkpt lat="43.0200130" lon="-3.1955080">
        <ele>701.2</ele>
        <time>2018-10-21T09:24:29Z</time>
      </trkpt>
      <trkpt lat="43.0200700" lon="-3.1954530">
        <ele>701.2</ele>
        <time>2018-10-21T09:24:30Z</time>
      </trkpt>
      <trkpt lat="43.0201250" lon="-3.1953970">
        <ele>702.3</ele>
        <time>2018-10-21T09:24:31Z</time>
      </trkpt>
      <trkpt lat="43.0201800" lon="-3.1953420">
        <ele>702.3</ele>
        <time>2018-10-21T09:24:32Z</time>
      </trkpt>
      <trkpt lat="43.0202350" lon="-3.1952870">
        <ele>702.3</ele>
        <time>2018-10-21T09:24:33Z</time>
      </trkpt>
      <trkpt lat="43.0202920" lon="-3.1952330">
        <ele>702.3</ele>
        <time>2018-10-21T09:24:34Z</time>
      </trkpt>
      <trkpt lat="43.0203470" lon="-3.1951780">
        <ele>702.3</ele>
        <time>2018-10-21T09:24:35Z</time>
      </trkpt>
      <trkpt lat="43.0204030" lon="-3.1951230">
        <ele>702.3</ele>
        <time>2018-10-21T09:24:36Z</time>
      </trkpt>
      <trkpt lat="43.0204580" lon="-3.1950680">
        <ele>702.3</ele>
        <time>2018-10-21T09:24:37Z</time>
      </trkpt>
      <trkpt lat="43.0205170" lon="-3.1950120">
        <ele>702.3</ele>
        <time>2018-10-21T09:24:38Z</time>
      </trkpt>
      <trkpt lat="43.0205720" lon="-3.1949550">
        <ele>702.3</ele>
        <time>2018-10-21T09:24:39Z</time>
      </trkpt>
      <trkpt lat="43.0206280" lon="-3.1948980">
        <ele>702.3</ele>
        <time>2018-10-21T09:24:40Z</time>
      </trkpt>
      <trkpt lat="43.0206850" lon="-3.1948430">
        <ele>702.3</ele>
        <time>2018-10-21T09:24:41Z</time>
      </trkpt>
      <trkpt lat="43.0207420" lon="-3.1947850">
        <ele>702.3</ele>
        <time>2018-10-21T09:24:42Z</time>
      </trkpt>
      <trkpt lat="43.0208000" lon="-3.1947270">
        <ele>702.3</ele>
        <time>2018-10-21T09:24:43Z</time>
      </trkpt>
      <trkpt lat="43.0208570" lon="-3.1946700">
        <ele>702.3</ele>
        <time>2018-10-21T09:24:44Z</time>
      </trkpt>
      <trkpt lat="43.0209130" lon="-3.1946150">
        <ele>703.2</ele>
        <time>2018-10-21T09:24:45Z</time>
      </trkpt>
      <trkpt lat="43.0209680" lon="-3.1945580">
        <ele>703.2</ele>
        <time>2018-10-21T09:24:46Z</time>
      </trkpt>
      <trkpt lat="43.0210250" lon="-3.1945030">
        <ele>703.2</ele>
        <time>2018-10-21T09:24:47Z</time>
      </trkpt>
      <trkpt lat="43.0210800" lon="-3.1944480">
        <ele>703.2</ele>
        <time>2018-10-21T09:24:48Z</time>
      </trkpt>
      <trkpt lat="43.0211350" lon="-3.1943930">
        <ele>703.2</ele>
        <time>2018-10-21T09:24:49Z</time>
      </trkpt>
      <trkpt lat="43.0211920" lon="-3.1943370">
        <ele>703.2</ele>
        <time>2018-10-21T09:24:50Z</time>
      </trkpt>
      <trkpt lat="43.0212470" lon="-3.1942800">
        <ele>703.2</ele>
        <time>2018-10-21T09:24:51Z</time>
      </trkpt>
      <trkpt lat="43.0213030" lon="-3.1942270">
        <ele>703.2</ele>
        <time>2018-10-21T09:24:52Z</time>
      </trkpt>
      <trkpt lat="43.0213600" lon="-3.1941720">
        <ele>703.2</ele>
        <time>2018-10-21T09:24:53Z</time>
      </trkpt>
      <trkpt lat="43.0214170" lon="-3.1941170">
        <ele>703.2</ele>
        <time>2018-10-21T09:24:54Z</time>
      </trkpt>
      <trkpt lat="43.0214720" lon="-3.1940600">
        <ele>704.2</ele>
        <time>2018-10-21T09:24:55Z</time>
      </trkpt>
      <trkpt lat="43.0215280" lon="-3.1940070">
        <ele>704.2</ele>
        <time>2018-10-21T09:24:56Z</time>
      </trkpt>
      <trkpt lat="43.0215850" lon="-3.1939530">
        <ele>704.2</ele>
        <time>2018-10-21T09:24:57Z</time>
      </trkpt>
      <trkpt lat="43.0216420" lon="-3.1939020">
        <ele>704.2</ele>
        <time>2018-10-21T09:24:58Z</time>
      </trkpt>
      <trkpt lat="43.0216980" lon="-3.1938520">
        <ele>704.2</ele>
        <time>2018-10-21T09:24:59Z</time>
      </trkpt>
      <trkpt lat="43.0217580" lon="-3.1938020">
        <ele>704.2</ele>
        <time>2018-10-21T09:25:00Z</time>
      </trkpt>
      <trkpt lat="43.0218170" lon="-3.1937520">
        <ele>704.2</ele>
        <time>2018-10-21T09:25:01Z</time>
      </trkpt>
      <trkpt lat="43.0218770" lon="-3.1937020">
        <ele>704.2</ele>
        <time>2018-10-21T09:25:02Z</time>
      </trkpt>
      <trkpt lat="43.0219380" lon="-3.1936550">
        <ele>705.3</ele>
        <time>2018-10-21T09:25:03Z</time>
      </trkpt>
      <trkpt lat="43.0220000" lon="-3.1936070">
        <ele>705.3</ele>
        <time>2018-10-21T09:25:04Z</time>
      </trkpt>
      <trkpt lat="43.0220630" lon="-3.1935570">
        <ele>705.3</ele>
        <time>2018-10-21T09:25:05Z</time>
      </trkpt>
      <trkpt lat="43.0221270" lon="-3.1935080">
        <ele>705.3</ele>
        <time>2018-10-21T09:25:06Z</time>
      </trkpt>
      <trkpt lat="43.0221920" lon="-3.1934600">
        <ele>705.3</ele>
        <time>2018-10-21T09:25:07Z</time>
      </trkpt>
      <trkpt lat="43.0222550" lon="-3.1934130">
        <ele>705.3</ele>
        <time>2018-10-21T09:25:08Z</time>
      </trkpt>
      <trkpt lat="43.0223200" lon="-3.1933680">
        <ele>705.3</ele>
        <time>2018-10-21T09:25:09Z</time>
      </trkpt>
      <trkpt lat="43.0223850" lon="-3.1933220">
        <ele>705.3</ele>
        <time>2018-10-21T09:25:10Z</time>
      </trkpt>
      <trkpt lat="43.0224500" lon="-3.1932750">
        <ele>705.3</ele>
        <time>2018-10-21T09:25:11Z</time>
      </trkpt>
      <trkpt lat="43.0225150" lon="-3.1932270">
        <ele>705.3</ele>
        <time>2018-10-21T09:25:12Z</time>
      </trkpt>
      <trkpt lat="43.0225800" lon="-3.1931800">
        <ele>705.3</ele>
        <time>2018-10-21T09:25:13Z</time>
      </trkpt>
      <trkpt lat="43.0226450" lon="-3.1931330">
        <ele>705.3</ele>
        <time>2018-10-21T09:25:14Z</time>
      </trkpt>
      <trkpt lat="43.0227120" lon="-3.1930870">
        <ele>705.3</ele>
        <time>2018-10-21T09:25:15Z</time>
      </trkpt>
      <trkpt lat="43.0227770" lon="-3.1930380">
        <ele>705.3</ele>
        <time>2018-10-21T09:25:16Z</time>
      </trkpt>
      <trkpt lat="43.0228420" lon="-3.1929920">
        <ele>706.2</ele>
        <time>2018-10-21T09:25:17Z</time>
      </trkpt>
      <trkpt lat="43.0229070" lon="-3.1929430">
        <ele>706.2</ele>
        <time>2018-10-21T09:25:18Z</time>
      </trkpt>
      <trkpt lat="43.0229730" lon="-3.1928950">
        <ele>706.2</ele>
        <time>2018-10-21T09:25:19Z</time>
      </trkpt>
      <trkpt lat="43.0230380" lon="-3.1928450">
        <ele>706.2</ele>
        <time>2018-10-21T09:25:20Z</time>
      </trkpt>
      <trkpt lat="43.0231050" lon="-3.1927980">
        <ele>706.2</ele>
        <time>2018-10-21T09:25:21Z</time>
      </trkpt>
      <trkpt lat="43.0231720" lon="-3.1927500">
        <ele>706.2</ele>
        <time>2018-10-21T09:25:22Z</time>
      </trkpt>
      <trkpt lat="43.0232370" lon="-3.1927020">
        <ele>706.2</ele>
        <time>2018-10-21T09:25:23Z</time>
      </trkpt>
      <trkpt lat="43.0233030" lon="-3.1926530">
        <ele>706.2</ele>
        <time>2018-10-21T09:25:24Z</time>
      </trkpt>
      <trkpt lat="43.0233700" lon="-3.1926030">
        <ele>706.2</ele>
        <time>2018-10-21T09:25:25Z</time>
      </trkpt>
      <trkpt lat="43.0234380" lon="-3.1925570">
        <ele>706.2</ele>
        <time>2018-10-21T09:25:26Z</time>
      </trkpt>
      <trkpt lat="43.0235030" lon="-3.1925080">
        <ele>706.2</ele>
        <time>2018-10-21T09:25:27Z</time>
      </trkpt>
      <trkpt lat="43.0235700" lon="-3.1924600">
        <ele>706.2</ele>
        <time>2018-10-21T09:25:28Z</time>
      </trkpt>
      <trkpt lat="43.0236350" lon="-3.1924120">
        <ele>706.2</ele>
        <time>2018-10-21T09:25:29Z</time>
      </trkpt>
      <trkpt lat="43.0237000" lon="-3.1923650">
        <ele>706.2</ele>
        <time>2018-10-21T09:25:30Z</time>
      </trkpt>
      <trkpt lat="43.0237650" lon="-3.1923180">
        <ele>706.2</ele>
        <time>2018-10-21T09:25:31Z</time>
      </trkpt>
      <trkpt lat="43.0238300" lon="-3.1922720">
        <ele>706.2</ele>
        <time>2018-10-21T09:25:32Z</time>
      </trkpt>
      <trkpt lat="43.0238930" lon="-3.1922250">
        <ele>706.2</ele>
        <time>2018-10-21T09:25:33Z</time>
      </trkpt>
      <trkpt lat="43.0239570" lon="-3.1921780">
        <ele>706.2</ele>
        <time>2018-10-21T09:25:34Z</time>
      </trkpt>
      <trkpt lat="43.0240200" lon="-3.1921320">
        <ele>706.2</ele>
        <time>2018-10-21T09:25:35Z</time>
      </trkpt>
      <trkpt lat="43.0240850" lon="-3.1920850">
        <ele>706.2</ele>
        <time>2018-10-21T09:25:36Z</time>
      </trkpt>
      <trkpt lat="43.0241500" lon="-3.1920400">
        <ele>706.2</ele>
        <time>2018-10-21T09:25:37Z</time>
      </trkpt>
      <trkpt lat="43.0242150" lon="-3.1919930">
        <ele>706.2</ele>
        <time>2018-10-21T09:25:38Z</time>
      </trkpt>
      <trkpt lat="43.0242830" lon="-3.1919500">
        <ele>706.2</ele>
        <time>2018-10-21T09:25:39Z</time>
      </trkpt>
      <trkpt lat="43.0243500" lon="-3.1919050">
        <ele>706.2</ele>
        <time>2018-10-21T09:25:40Z</time>
      </trkpt>
      <trkpt lat="43.0244200" lon="-3.1918630">
        <ele>706.2</ele>
        <time>2018-10-21T09:25:41Z</time>
      </trkpt>
      <trkpt lat="43.0244920" lon="-3.1918250">
        <ele>706.2</ele>
        <time>2018-10-21T09:25:42Z</time>
      </trkpt>
      <trkpt lat="43.0245670" lon="-3.1917920">
        <ele>706.2</ele>
        <time>2018-10-21T09:25:43Z</time>
      </trkpt>
      <trkpt lat="43.0246420" lon="-3.1917570">
        <ele>706.2</ele>
        <time>2018-10-21T09:25:44Z</time>
      </trkpt>
      <trkpt lat="43.0247220" lon="-3.1917250">
        <ele>706.2</ele>
        <time>2018-10-21T09:25:45Z</time>
      </trkpt>
      <trkpt lat="43.0248050" lon="-3.1916980">
        <ele>706.2</ele>
        <time>2018-10-21T09:25:46Z</time>
      </trkpt>
      <trkpt lat="43.0248920" lon="-3.1916750">
        <ele>705.3</ele>
        <time>2018-10-21T09:25:47Z</time>
      </trkpt>
      <trkpt lat="43.0249820" lon="-3.1916570">
        <ele>705.3</ele>
        <time>2018-10-21T09:25:48Z</time>
      </trkpt>
      <trkpt lat="43.0250750" lon="-3.1916450">
        <ele>704.2</ele>
        <time>2018-10-21T09:25:49Z</time>
      </trkpt>
      <trkpt lat="43.0251700" lon="-3.1916380">
        <ele>704.2</ele>
        <time>2018-10-21T09:25:50Z</time>
      </trkpt>
      <trkpt lat="43.0251700" lon="-3.1916380">
        <ele>704.2</ele>
        <time>2018-10-21T09:25:51Z</time>
      </trkpt>
      <trkpt lat="43.0251700" lon="-3.1916380">
        <ele>704.2</ele>
        <time>2018-10-21T09:25:52Z</time>
      </trkpt>
      <trkpt lat="43.0251700" lon="-3.1916380">
        <ele>703.2</ele>
        <time>2018-10-21T09:25:53Z</time>
      </trkpt>
      <trkpt lat="43.0251700" lon="-3.1916380">
        <ele>703.2</ele>
        <time>2018-10-21T09:25:54Z</time>
      </trkpt>
      <trkpt lat="43.0251700" lon="-3.1916380">
        <ele>703.2</ele>
        <time>2018-10-21T09:25:55Z</time>
      </trkpt>
      <trkpt lat="43.0251700" lon="-3.1916380">
        <ele>703.2</ele>
        <time>2018-10-21T09:25:56Z</time>
      </trkpt>
      <trkpt lat="43.0251700" lon="-3.1916380">
        <ele>703.2</ele>
        <time>2018-10-21T09:25:57Z</time>
      </trkpt>
      <trkpt lat="43.0251700" lon="-3.1916380">
        <ele>703.2</ele>
        <time>2018-10-21T09:25:58Z</time>
      </trkpt>
      <trkpt lat="43.0251700" lon="-3.1916380">
        <ele>698.3</ele>
        <time>2018-10-21T09:25:59Z</time>
      </trkpt>
      <trkpt lat="43.0251700" lon="-3.1916380">
        <ele>698.3</ele>
        <time>2018-10-21T09:26:00Z</time>
      </trkpt>
      <trkpt lat="43.0251700" lon="-3.1916380">
        <ele>698.3</ele>
        <time>2018-10-21T09:26:01Z</time>
      </trkpt>
      <trkpt lat="43.0251700" lon="-3.1916380">
        <ele>698.3</ele>
        <time>2018-10-21T09:26:02Z</time>
      </trkpt>
      <trkpt lat="43.0251700" lon="-3.1916380">
        <ele>698.3</ele>
        <time>2018-10-21T09:26:03Z</time>
      </trkpt>
      <trkpt lat="43.0251700" lon="-3.1916380">
        <ele>698.3</ele>
        <time>2018-10-21T09:26:04Z</time>
      </trkpt>
      <trkpt lat="43.0251700" lon="-3.1916380">
        <ele>698.3</ele>
        <time>2018-10-21T09:26:05Z</time>
      </trkpt>
      <trkpt lat="43.0251700" lon="-3.1916380">
        <ele>698.3</ele>
        <time>2018-10-21T09:26:06Z</time>
      </trkpt>
      <trkpt lat="43.0251700" lon="-3.1916380">
        <ele>698.3</ele>
        <time>2018-10-21T09:26:07Z</time>
      </trkpt>
      <trkpt lat="43.0251700" lon="-3.1916380">
        <ele>698.3</ele>
        <time>2018-10-21T09:26:08Z</time>
      </trkpt>
      <trkpt lat="43.0251700" lon="-3.1916380">
        <ele>695.3</ele>
        <time>2018-10-21T09:26:09Z</time>
      </trkpt>
      <trkpt lat="43.0251700" lon="-3.1916380">
        <ele>695.3</ele>
        <time>2018-10-21T09:26:10Z</time>
      </trkpt>
      <trkpt lat="43.0251700" lon="-3.1916380">
        <ele>692.2</ele>
        <time>2018-10-21T09:26:11Z</time>
      </trkpt>
      <trkpt lat="43.0251700" lon="-3.1916380">
        <ele>692.2</ele>
        <time>2018-10-21T09:26:12Z</time>
      </trkpt>
      <trkpt lat="43.0251700" lon="-3.1916380">
        <ele>691.3</ele>
        <time>2018-10-21T09:26:13Z</time>
      </trkpt>
      <trkpt lat="43.0251700" lon="-3.1916380">
        <ele>691.3</ele>
        <time>2018-10-21T09:26:14Z</time>
      </trkpt>
      <trkpt lat="43.0251700" lon="-3.1916380">
        <ele>690.2</ele>
        <time>2018-10-21T09:26:15Z</time>
      </trkpt>
      <trkpt lat="43.0251700" lon="-3.1916380">
        <ele>690.2</ele>
        <time>2018-10-21T09:26:16Z</time>
      </trkpt>
      <trkpt lat="43.0251700" lon="-3.1916380">
        <ele>688.2</ele>
        <time>2018-10-21T09:26:17Z</time>
      </trkpt>
      <trkpt lat="43.0251700" lon="-3.1916380">
        <ele>688.2</ele>
        <time>2018-10-21T09:26:18Z</time>
      </trkpt>
      <trkpt lat="43.0251700" lon="-3.1916380">
        <ele>687.2</ele>
        <time>2018-10-21T09:26:19Z</time>
      </trkpt>
      <trkpt lat="43.0251700" lon="-3.1916380">
        <ele>687.2</ele>
        <time>2018-10-21T09:26:20Z</time>
      </trkpt>
      <trkpt lat="43.0251700" lon="-3.1916380">
        <ele>685.2</ele>
        <time>2018-10-21T09:26:21Z</time>
      </trkpt>
      <trkpt lat="43.0251700" lon="-3.1916380">
        <ele>685.2</ele>
        <time>2018-10-21T09:26:22Z</time>
      </trkpt>
      <trkpt lat="43.0251700" lon="-3.1916380">
        <ele>684.3</ele>
        <time>2018-10-21T09:26:23Z</time>
      </trkpt>
      <trkpt lat="43.0251700" lon="-3.1916380">
        <ele>684.3</ele>
        <time>2018-10-21T09:26:24Z</time>
      </trkpt>
      <trkpt lat="43.0251700" lon="-3.1916380">
        <ele>683.2</ele>
        <time>2018-10-21T09:26:25Z</time>
      </trkpt>
      <trkpt lat="43.0252670" lon="-3.1916380">
        <ele>683.2</ele>
        <time>2018-10-21T09:26:26Z</time>
      </trkpt>
      <trkpt lat="43.0253670" lon="-3.1916500">
        <ele>681.2</ele>
        <time>2018-10-21T09:26:27Z</time>
      </trkpt>
      <trkpt lat="43.0254680" lon="-3.1916670">
        <ele>681.2</ele>
        <time>2018-10-21T09:26:28Z</time>
      </trkpt>
      <trkpt lat="43.0255730" lon="-3.1916920">
        <ele>679.3</ele>
        <time>2018-10-21T09:26:29Z</time>
      </trkpt>
      <trkpt lat="43.0256780" lon="-3.1917250">
        <ele>679.3</ele>
        <time>2018-10-21T09:26:30Z</time>
      </trkpt>
      <trkpt lat="43.0257830" lon="-3.1917650">
        <ele>678.2</ele>
        <time>2018-10-21T09:26:31Z</time>
      </trkpt>
      <trkpt lat="43.0258880" lon="-3.1918120">
        <ele>678.2</ele>
        <time>2018-10-21T09:26:32Z</time>
      </trkpt>
      <trkpt lat="43.0259950" lon="-3.1918580">
        <ele>676.2</ele>
        <time>2018-10-21T09:26:33Z</time>
      </trkpt>
      <trkpt lat="43.0261000" lon="-3.1919080">
        <ele>676.2</ele>
        <time>2018-10-21T09:26:34Z</time>
      </trkpt>
      <trkpt lat="43.0262070" lon="-3.1919600">
        <ele>674.2</ele>
        <time>2018-10-21T09:26:35Z</time>
      </trkpt>
      <trkpt lat="43.0263150" lon="-3.1920130">
        <ele>674.2</ele>
        <time>2018-10-21T09:26:36Z</time>
      </trkpt>
      <trkpt lat="43.0264200" lon="-3.1920670">
        <ele>673.3</ele>
        <time>2018-10-21T09:26:37Z</time>
      </trkpt>
      <trkpt lat="43.0265270" lon="-3.1921230">
        <ele>673.3</ele>
        <time>2018-10-21T09:26:38Z</time>
      </trkpt>
      <trkpt lat="43.0266330" lon="-3.1921830">
        <ele>672.2</ele>
        <time>2018-10-21T09:26:39Z</time>
      </trkpt>
      <trkpt lat="43.0267400" lon="-3.1922470">
        <ele>672.2</ele>
        <time>2018-10-21T09:26:40Z</time>
      </trkpt>
      <trkpt lat="43.0268430" lon="-3.1923030">
        <ele>670.3</ele>
        <time>2018-10-21T09:26:41Z</time>
      </trkpt>
      <trkpt lat="43.0269430" lon="-3.1923530">
        <ele>670.3</ele>
        <time>2018-10-21T09:26:42Z</time>
      </trkpt>
      <trkpt lat="43.0270470" lon="-3.1924050">
        <ele>668.3</ele>
        <time>2018-10-21T09:26:43Z</time>
      </trkpt>
      <trkpt lat="43.0271520" lon="-3.1924600">
        <ele>668.3</ele>
        <time>2018-10-21T09:26:44Z</time>
      </trkpt>
      <trkpt lat="43.0271520" lon="-3.1924600">
        <ele>666.3</ele>
        <time>2018-10-21T09:26:45Z</time>
      </trkpt>
      <trkpt lat="43.0284380" lon="-3.1922660">
        <ele>666.3</ele>
        <time>2018-10-21T09:26:46Z</time>
      </trkpt>
      <trkpt lat="43.0297230" lon="-3.1920710">
        <ele>665.2</ele>
        <time>2018-10-21T09:26:47Z</time>
      </trkpt>
      <trkpt lat="43.0322930" lon="-3.1916820">
        <ele>665.2</ele>
        <time>2018-10-21T09:26:48Z</time>
      </trkpt>
      <trkpt lat="43.0323520" lon="-3.1916020">
        <ele>664.2</ele>
        <time>2018-10-21T09:26:49Z</time>
      </trkpt>
      <trkpt lat="43.0323980" lon="-3.1915330">
        <ele>664.2</ele>
        <time>2018-10-21T09:26:50Z</time>
      </trkpt>
      <trkpt lat="43.0324330" lon="-3.1914750">
        <ele>662.2</ele>
        <time>2018-10-21T09:26:51Z</time>
      </trkpt>
      <trkpt lat="43.0324570" lon="-3.1914330">
        <ele>662.2</ele>
        <time>2018-10-21T09:26:52Z</time>
      </trkpt>
      <trkpt lat="43.0324700" lon="-3.1914120">
        <ele>661.3</ele>
        <time>2018-10-21T09:26:53Z</time>
      </trkpt>
      <trkpt lat="43.0324720" lon="-3.1914030">
        <ele>654.3</ele>
        <time>2018-10-21T09:26:54Z</time>
      </trkpt>
      <trkpt lat="43.0339010" lon="-3.1902110">
        <ele>654.3</ele>
        <time>2018-10-21T09:42:43Z</time>
      </trkpt>
      <trkpt lat="43.0339100" lon="-3.1902110">
        <ele>654.3</ele>
        <time>2018-10-21T09:42:44Z</time>
      </trkpt>
      <trkpt lat="43.0339180" lon="-3.1902100">
        <ele>654.3</ele>
        <time>2018-10-21T09:42:45Z</time>
      </trkpt>
      <trkpt lat="43.0339380" lon="-3.1902100">
        <ele>654.3</ele>
        <time>2018-10-21T09:42:46Z</time>
      </trkpt>
      <trkpt lat="43.0339670" lon="-3.1902100">
        <ele>654.3</ele>
        <time>2018-10-21T09:42:47Z</time>
      </trkpt>
      <trkpt lat="43.0340030" lon="-3.1902070">
        <ele>654.3</ele>
        <time>2018-10-21T09:42:48Z</time>
      </trkpt>
      <trkpt lat="43.0340450" lon="-3.1901920">
        <ele>654.3</ele>
        <time>2018-10-21T09:42:49Z</time>
      </trkpt>
      <trkpt lat="43.0340950" lon="-3.1901870">
        <ele>654.3</ele>
        <time>2018-10-21T09:42:50Z</time>
      </trkpt>
      <trkpt lat="43.0341520" lon="-3.1901770">
        <ele>653.2</ele>
        <time>2018-10-21T09:42:51Z</time>
      </trkpt>
      <trkpt lat="43.0342130" lon="-3.1901700">
        <ele>653.2</ele>
        <time>2018-10-21T09:42:52Z</time>
      </trkpt>
      <trkpt lat="43.0342780" lon="-3.1901600">
        <ele>652.3</ele>
        <time>2018-10-21T09:42:53Z</time>
      </trkpt>
      <trkpt lat="43.0343450" lon="-3.1901500">
        <ele>652.3</ele>
        <time>2018-10-21T09:42:54Z</time>
      </trkpt>
      <trkpt lat="43.0344150" lon="-3.1901370">
        <ele>652.3</ele>
        <time>2018-10-21T09:42:55Z</time>
      </trkpt>
      <trkpt lat="43.0344850" lon="-3.1901220">
        <ele>652.3</ele>
        <time>2018-10-21T09:42:56Z</time>
      </trkpt>
      <trkpt lat="43.0345580" lon="-3.1901170">
        <ele>652.3</ele>
        <time>2018-10-21T09:42:57Z</time>
      </trkpt>
      <trkpt lat="43.0346330" lon="-3.1901220">
        <ele>652.3</ele>
        <time>2018-10-21T09:42:58Z</time>
      </trkpt>
      <trkpt lat="43.0347080" lon="-3.1901420">
        <ele>651.2</ele>
        <time>2018-10-21T09:42:59Z</time>
      </trkpt>
      <trkpt lat="43.0347840" lon="-3.1901780">
        <ele>651.2</ele>
        <time>2018-10-21T09:43:00Z</time>
      </trkpt>
      <trkpt lat="43.0348600" lon="-3.1902150">
        <ele>651.2</ele>
        <time>2018-10-21T09:43:01Z</time>
      </trkpt>
      <trkpt lat="43.0349330" lon="-3.1902670">
        <ele>651.2</ele>
        <time>2018-10-21T09:43:02Z</time>
      </trkpt>
      <trkpt lat="43.0350080" lon="-3.1903180">
        <ele>651.2</ele>
        <time>2018-10-21T09:43:03Z</time>
      </trkpt>
      <trkpt lat="43.0350850" lon="-3.1903720">
        <ele>651.2</ele>
        <time>2018-10-21T09:43:04Z</time>
      </trkpt>
      <trkpt lat="43.0351650" lon="-3.1904230">
        <ele>651.2</ele>
        <time>2018-10-21T09:43:05Z</time>
      </trkpt>
      <trkpt lat="43.0352500" lon="-3.1904650">
        <ele>651.2</ele>
        <time>2018-10-21T09:43:06Z</time>
      </trkpt>
      <trkpt lat="43.0353380" lon="-3.1904980">
        <ele>648.2</ele>
        <time>2018-10-21T09:43:07Z</time>
      </trkpt>
      <trkpt lat="43.0354320" lon="-3.1905180">
        <ele>648.2</ele>
        <time>2018-10-21T09:43:08Z</time>
      </trkpt>
      <trkpt lat="43.0355250" lon="-3.1905320">
        <ele>648.2</ele>
        <time>2018-10-21T09:43:09Z</time>
      </trkpt>
      <trkpt lat="43.0356200" lon="-3.1905500">
        <ele>648.2</ele>
        <time>2018-10-21T09:43:10Z</time>
      </trkpt>
      <trkpt lat="43.0357180" lon="-3.1905670">
        <ele>647.3</ele>
        <time>2018-10-21T09:43:11Z</time>
      </trkpt>
      <trkpt lat="43.0358180" lon="-3.1905820">
        <ele>647.3</ele>
        <time>2018-10-21T09:43:12Z</time>
      </trkpt>
      <trkpt lat="43.0359130" lon="-3.1905900">
        <ele>646.2</ele>
        <time>2018-10-21T09:43:13Z</time>
      </trkpt>
      <trkpt lat="43.0360080" lon="-3.1905950">
        <ele>646.2</ele>
        <time>2018-10-21T09:43:14Z</time>
      </trkpt>
      <trkpt lat="43.0361050" lon="-3.1905900">
        <ele>646.2</ele>
        <time>2018-10-21T09:43:15Z</time>
      </trkpt>
      <trkpt lat="43.0362020" lon="-3.1905700">
        <ele>646.2</ele>
        <time>2018-10-21T09:43:16Z</time>
      </trkpt>
      <trkpt lat="43.0362980" lon="-3.1905370">
        <ele>646.2</ele>
        <time>2018-10-21T09:43:17Z</time>
      </trkpt>
      <trkpt lat="43.0363930" lon="-3.1904870">
        <ele>646.2</ele>
        <time>2018-10-21T09:43:18Z</time>
      </trkpt>
      <trkpt lat="43.0364850" lon="-3.1904230">
        <ele>644.2</ele>
        <time>2018-10-21T09:43:19Z</time>
      </trkpt>
      <trkpt lat="43.0365750" lon="-3.1903530">
        <ele>644.2</ele>
        <time>2018-10-21T09:43:20Z</time>
      </trkpt>
      <trkpt lat="43.0366650" lon="-3.1902850">
        <ele>643.3</ele>
        <time>2018-10-21T09:43:21Z</time>
      </trkpt>
      <trkpt lat="43.0367580" lon="-3.1902270">
        <ele>643.3</ele>
        <time>2018-10-21T09:43:22Z</time>
      </trkpt>
      <trkpt lat="43.0368570" lon="-3.1901800">
        <ele>642.2</ele>
        <time>2018-10-21T09:43:23Z</time>
      </trkpt>
      <trkpt lat="43.0369570" lon="-3.1901470">
        <ele>642.2</ele>
        <time>2018-10-21T09:43:24Z</time>
      </trkpt>
      <trkpt lat="43.0370580" lon="-3.1901180">
        <ele>640.2</ele>
        <time>2018-10-21T09:43:25Z</time>
      </trkpt>
      <trkpt lat="43.0371620" lon="-3.1901020">
        <ele>640.2</ele>
        <time>2018-10-21T09:43:26Z</time>
      </trkpt>
      <trkpt lat="43.0372670" lon="-3.1900930">
        <ele>639.2</ele>
        <time>2018-10-21T09:43:27Z</time>
      </trkpt>
      <trkpt lat="43.0373730" lon="-3.1900920">
        <ele>639.2</ele>
        <time>2018-10-21T09:43:28Z</time>
      </trkpt>
      <trkpt lat="43.0374830" lon="-3.1900920">
        <ele>638.3</ele>
        <time>2018-10-21T09:43:29Z</time>
      </trkpt>
      <trkpt lat="43.0375930" lon="-3.1900930">
        <ele>638.3</ele>
        <time>2018-10-21T09:43:30Z</time>
      </trkpt>
      <trkpt lat="43.0377030" lon="-3.1900950">
        <ele>636.3</ele>
        <time>2018-10-21T09:43:31Z</time>
      </trkpt>
      <trkpt lat="43.0378130" lon="-3.1900970">
        <ele>636.3</ele>
        <time>2018-10-21T09:43:32Z</time>
      </trkpt>
      <trkpt lat="43.0379220" lon="-3.1900970">
        <ele>635.2</ele>
        <time>2018-10-21T09:43:33Z</time>
      </trkpt>
      <trkpt lat="43.0380320" lon="-3.1901000">
        <ele>635.2</ele>
        <time>2018-10-21T09:43:34Z</time>
      </trkpt>
      <trkpt lat="43.0381420" lon="-3.1901020">
        <ele>634.3</ele>
        <time>2018-10-21T09:43:35Z</time>
      </trkpt>
      <trkpt lat="43.0382520" lon="-3.1901030">
        <ele>634.3</ele>
        <time>2018-10-21T09:43:36Z</time>
      </trkpt>
      <trkpt lat="43.0383630" lon="-3.1901050">
        <ele>633.2</ele>
        <time>2018-10-21T09:43:37Z</time>
      </trkpt>
      <trkpt lat="43.0384750" lon="-3.1901070">
        <ele>633.2</ele>
        <time>2018-10-21T09:43:38Z</time>
      </trkpt>
      <trkpt lat="43.0385870" lon="-3.1901120">
        <ele>632.3</ele>
        <time>2018-10-21T09:43:39Z</time>
      </trkpt>
      <trkpt lat="43.0386970" lon="-3.1901170">
        <ele>632.3</ele>
        <time>2018-10-21T09:43:40Z</time>
      </trkpt>
      <trkpt lat="43.0388080" lon="-3.1901280">
        <ele>631.2</ele>
        <time>2018-10-21T09:43:41Z</time>
      </trkpt>
      <trkpt lat="43.0389220" lon="-3.1901430">
        <ele>631.2</ele>
        <time>2018-10-21T09:43:42Z</time>
      </trkpt>
      <trkpt lat="43.0390350" lon="-3.1901620">
        <ele>629.3</ele>
        <time>2018-10-21T09:43:43Z</time>
      </trkpt>
      <trkpt lat="43.0391480" lon="-3.1901830">
        <ele>629.3</ele>
        <time>2018-10-21T09:43:44Z</time>
      </trkpt>
      <trkpt lat="43.0392620" lon="-3.1902050">
        <ele>628.2</ele>
        <time>2018-10-21T09:43:45Z</time>
      </trkpt>
      <trkpt lat="43.0393750" lon="-3.1902270">
        <ele>628.2</ele>
        <time>2018-10-21T09:43:46Z</time>
      </trkpt>
      <trkpt lat="43.0394880" lon="-3.1902470">
        <ele>626.2</ele>
        <time>2018-10-21T09:43:47Z</time>
      </trkpt>
      <trkpt lat="43.0396030" lon="-3.1902680">
        <ele>626.2</ele>
        <time>2018-10-21T09:43:48Z</time>
      </trkpt>
      <trkpt lat="43.0397180" lon="-3.1902920">
        <ele>625.3</ele>
        <time>2018-10-21T09:43:49Z</time>
      </trkpt>
      <trkpt lat="43.0398320" lon="-3.1903130">
        <ele>625.3</ele>
        <time>2018-10-21T09:43:50Z</time>
      </trkpt>
      <trkpt lat="43.0399450" lon="-3.1903350">
        <ele>624.2</ele>
        <time>2018-10-21T09:43:51Z</time>
      </trkpt>
      <trkpt lat="43.0400580" lon="-3.1903550">
        <ele>624.2</ele>
        <time>2018-10-21T09:43:52Z</time>
      </trkpt>
      <trkpt lat="43.0401700" lon="-3.1903720">
        <ele>622.3</ele>
        <time>2018-10-21T09:43:53Z</time>
      </trkpt>
      <trkpt lat="43.0402800" lon="-3.1903880">
        <ele>622.3</ele>
        <time>2018-10-21T09:43:54Z</time>
      </trkpt>
      <trkpt lat="43.0403880" lon="-3.1904000">
        <ele>621.2</ele>
        <time>2018-10-21T09:43:55Z</time>
      </trkpt>
      <trkpt lat="43.0404970" lon="-3.1904100">
        <ele>621.2</ele>
        <time>2018-10-21T09:43:56Z</time>
      </trkpt>
      <trkpt lat="43.0406020" lon="-3.1904200">
        <ele>620.3</ele>
        <time>2018-10-21T09:43:57Z</time>
      </trkpt>
      <trkpt lat="43.0407020" lon="-3.1904200">
        <ele>620.3</ele>
        <time>2018-10-21T09:43:58Z</time>
      </trkpt>
      <trkpt lat="43.0408000" lon="-3.1904130">
        <ele>619.2</ele>
        <time>2018-10-21T09:43:59Z</time>
      </trkpt>
      <trkpt lat="43.0408950" lon="-3.1903880">
        <ele>619.2</ele>
        <time>2018-10-21T09:44:00Z</time>
      </trkpt>
      <trkpt lat="43.0409820" lon="-3.1903370">
        <ele>618.3</ele>
        <time>2018-10-21T09:44:01Z</time>
      </trkpt>
      <trkpt lat="43.0410620" lon="-3.1902670">
        <ele>618.3</ele>
        <time>2018-10-21T09:44:02Z</time>
      </trkpt>
      <trkpt lat="43.0411300" lon="-3.1901750">
        <ele>617.2</ele>
        <time>2018-10-21T09:44:03Z</time>
      </trkpt>
      <trkpt lat="43.0411820" lon="-3.1900670">
        <ele>617.2</ele>
        <time>2018-10-21T09:44:04Z</time>
      </trkpt>
      <trkpt lat="43.0412130" lon="-3.1899430">
        <ele>616.3</ele>
        <time>2018-10-21T09:44:05Z</time>
      </trkpt>
      <trkpt lat="43.0412220" lon="-3.1898080">
        <ele>616.3</ele>
        <time>2018-10-21T09:44:06Z</time>
      </trkpt>
      <trkpt lat="43.0412150" lon="-3.1896720">
        <ele>615.2</ele>
        <time>2018-10-21T09:44:07Z</time>
      </trkpt>
      <trkpt lat="43.0411980" lon="-3.1895320">
        <ele>615.2</ele>
        <time>2018-10-21T09:44:08Z</time>
      </trkpt>
      <trkpt lat="43.0411820" lon="-3.1893920">
        <ele>614.2</ele>
        <time>2018-10-21T09:44:09Z</time>
      </trkpt>
      <trkpt lat="43.0411680" lon="-3.1892500">
        <ele>614.2</ele>
        <time>2018-10-21T09:44:10Z</time>
      </trkpt>
      <trkpt lat="43.0411570" lon="-3.1891070">
        <ele>613.3</ele>
        <time>2018-10-21T09:44:11Z</time>
      </trkpt>
      <trkpt lat="43.0411470" lon="-3.1889630">
        <ele>613.3</ele>
        <time>2018-10-21T09:44:12Z</time>
      </trkpt>
      <trkpt lat="43.0411420" lon="-3.1888130">
        <ele>613.3</ele>
        <time>2018-10-21T09:44:13Z</time>
      </trkpt>
      <trkpt lat="43.0411330" lon="-3.1886620">
        <ele>613.3</ele>
        <time>2018-10-21T09:44:14Z</time>
      </trkpt>
      <trkpt lat="43.0411250" lon="-3.1885050">
        <ele>613.3</ele>
        <time>2018-10-21T09:44:15Z</time>
      </trkpt>
      <trkpt lat="43.0411180" lon="-3.1883500">
        <ele>613.3</ele>
        <time>2018-10-21T09:44:16Z</time>
      </trkpt>
      <trkpt lat="43.0411150" lon="-3.1881950">
        <ele>609.3</ele>
        <time>2018-10-21T09:44:17Z</time>
      </trkpt>
      <trkpt lat="43.0411100" lon="-3.1880420">
        <ele>609.3</ele>
        <time>2018-10-21T09:44:18Z</time>
      </trkpt>
      <trkpt lat="43.0411070" lon="-3.1878900">
        <ele>609.3</ele>
        <time>2018-10-21T09:44:19Z</time>
      </trkpt>
      <trkpt lat="43.0411030" lon="-3.1877420">
        <ele>609.3</ele>
        <time>2018-10-21T09:44:20Z</time>
      </trkpt>
      <trkpt lat="43.0411020" lon="-3.1875950">
        <ele>609.3</ele>
        <time>2018-10-21T09:44:21Z</time>
      </trkpt>
      <trkpt lat="43.0411020" lon="-3.1874480">
        <ele>609.3</ele>
        <time>2018-10-21T09:44:22Z</time>
      </trkpt>
      <trkpt lat="43.0411020" lon="-3.1873020">
        <ele>609.3</ele>
        <time>2018-10-21T09:44:23Z</time>
      </trkpt>
      <trkpt lat="43.0411020" lon="-3.1871550">
        <ele>609.3</ele>
        <time>2018-10-21T09:44:24Z</time>
      </trkpt>
      <trkpt lat="43.0411020" lon="-3.1870080">
        <ele>609.3</ele>
        <time>2018-10-21T09:44:25Z</time>
      </trkpt>
      <trkpt lat="43.0411030" lon="-3.1868630">
        <ele>609.3</ele>
        <time>2018-10-21T09:44:26Z</time>
      </trkpt>
      <trkpt lat="43.0411030" lon="-3.1867180">
        <ele>604.3</ele>
        <time>2018-10-21T09:44:27Z</time>
      </trkpt>
      <trkpt lat="43.0411050" lon="-3.1865720">
        <ele>604.3</ele>
        <time>2018-10-21T09:44:28Z</time>
      </trkpt>
      <trkpt lat="43.0411070" lon="-3.1864230">
        <ele>603.2</ele>
        <time>2018-10-21T09:44:29Z</time>
      </trkpt>
      <trkpt lat="43.0411080" lon="-3.1862730">
        <ele>603.2</ele>
        <time>2018-10-21T09:44:30Z</time>
      </trkpt>
      <trkpt lat="43.0411150" lon="-3.1861220">
        <ele>601.2</ele>
        <time>2018-10-21T09:44:31Z</time>
      </trkpt>
      <trkpt lat="43.0411250" lon="-3.1859680">
        <ele>601.2</ele>
        <time>2018-10-21T09:44:32Z</time>
      </trkpt>
      <trkpt lat="43.0411400" lon="-3.1858130">
        <ele>600.3</ele>
        <time>2018-10-21T09:44:33Z</time>
      </trkpt>
      <trkpt lat="43.0411580" lon="-3.1856580">
        <ele>600.3</ele>
        <time>2018-10-21T09:44:34Z</time>
      </trkpt>
      <trkpt lat="43.0411780" lon="-3.1855020">
        <ele>598.2</ele>
        <time>2018-10-21T09:44:35Z</time>
      </trkpt>
      <trkpt lat="43.0412020" lon="-3.1853450">
        <ele>598.2</ele>
        <time>2018-10-21T09:44:36Z</time>
      </trkpt>
      <trkpt lat="43.0412250" lon="-3.1851900">
        <ele>597.3</ele>
        <time>2018-10-21T09:44:37Z</time>
      </trkpt>
      <trkpt lat="43.0412500" lon="-3.1850330">
        <ele>597.3</ele>
        <time>2018-10-21T09:44:38Z</time>
      </trkpt>
      <trkpt lat="43.0412730" lon="-3.1848780">
        <ele>595.3</ele>
        <time>2018-10-21T09:44:39Z</time>
      </trkpt>
      <trkpt lat="43.0412970" lon="-3.1847230">
        <ele>595.3</ele>
        <time>2018-10-21T09:44:40Z</time>
      </trkpt>
      <trkpt lat="43.0413200" lon="-3.1845680">
        <ele>593.3</ele>
        <time>2018-10-21T09:44:41Z</time>
      </trkpt>
      <trkpt lat="43.0413450" lon="-3.1844130">
        <ele>593.3</ele>
        <time>2018-10-21T09:44:42Z</time>
      </trkpt>
      <trkpt lat="43.0413680" lon="-3.1842600">
        <ele>593.3</ele>
        <time>2018-10-21T09:44:43Z</time>
      </trkpt>
      <trkpt lat="43.0413920" lon="-3.1841070">
        <ele>593.3</ele>
        <time>2018-10-21T09:44:44Z</time>
      </trkpt>
      <trkpt lat="43.0414130" lon="-3.1839530">
        <ele>592.2</ele>
        <time>2018-10-21T09:44:45Z</time>
      </trkpt>
      <trkpt lat="43.0414370" lon="-3.1837980">
        <ele>592.2</ele>
        <time>2018-10-21T09:44:46Z</time>
      </trkpt>
      <trkpt lat="43.0414600" lon="-3.1836420">
        <ele>590.3</ele>
        <time>2018-10-21T09:44:47Z</time>
      </trkpt>
      <trkpt lat="43.0414830" lon="-3.1834850">
        <ele>590.3</ele>
        <time>2018-10-21T09:44:48Z</time>
      </trkpt>
      <trkpt lat="43.0415080" lon="-3.1833280">
        <ele>588.3</ele>
        <time>2018-10-21T09:44:49Z</time>
      </trkpt>
      <trkpt lat="43.0415320" lon="-3.1831720">
        <ele>588.3</ele>
        <time>2018-10-21T09:44:50Z</time>
      </trkpt>
      <trkpt lat="43.0415570" lon="-3.1830130">
        <ele>587.2</ele>
        <time>2018-10-21T09:44:51Z</time>
      </trkpt>
      <trkpt lat="43.0415820" lon="-3.1828550">
        <ele>587.2</ele>
        <time>2018-10-21T09:44:52Z</time>
      </trkpt>
      <trkpt lat="43.0416080" lon="-3.1826970">
        <ele>587.2</ele>
        <time>2018-10-21T09:44:53Z</time>
      </trkpt>
      <trkpt lat="43.0416330" lon="-3.1825350">
        <ele>587.2</ele>
        <time>2018-10-21T09:44:54Z</time>
      </trkpt>
      <trkpt lat="43.0416580" lon="-3.1823750">
        <ele>585.2</ele>
        <time>2018-10-21T09:44:55Z</time>
      </trkpt>
      <trkpt lat="43.0416850" lon="-3.1822120">
        <ele>585.2</ele>
        <time>2018-10-21T09:44:56Z</time>
      </trkpt>
      <trkpt lat="43.0417130" lon="-3.1820500">
        <ele>583.2</ele>
        <time>2018-10-21T09:44:57Z</time>
      </trkpt>
      <trkpt lat="43.0417430" lon="-3.1818870">
        <ele>583.2</ele>
        <time>2018-10-21T09:44:58Z</time>
      </trkpt>
      <trkpt lat="43.0417780" lon="-3.1817250">
        <ele>582.2</ele>
        <time>2018-10-21T09:44:59Z</time>
      </trkpt>
      <trkpt lat="43.0418200" lon="-3.1815670">
        <ele>582.2</ele>
        <time>2018-10-21T09:45:00Z</time>
      </trkpt>
      <trkpt lat="43.0418680" lon="-3.1814120">
        <ele>582.2</ele>
        <time>2018-10-21T09:45:01Z</time>
      </trkpt>
      <trkpt lat="43.0419250" lon="-3.1812650">
        <ele>582.2</ele>
        <time>2018-10-21T09:45:02Z</time>
      </trkpt>
      <trkpt lat="43.0419880" lon="-3.1811220">
        <ele>580.2</ele>
        <time>2018-10-21T09:45:03Z</time>
      </trkpt>
      <trkpt lat="43.0420570" lon="-3.1809870">
        <ele>580.2</ele>
        <time>2018-10-21T09:45:04Z</time>
      </trkpt>
      <trkpt lat="43.0421350" lon="-3.1808600">
        <ele>579.3</ele>
        <time>2018-10-21T09:45:05Z</time>
      </trkpt>
      <trkpt lat="43.0422130" lon="-3.1807370">
        <ele>579.3</ele>
        <time>2018-10-21T09:45:06Z</time>
      </trkpt>
      <trkpt lat="43.0422930" lon="-3.1806150">
        <ele>577.3</ele>
        <time>2018-10-21T09:45:07Z</time>
      </trkpt>
      <trkpt lat="43.0423750" lon="-3.1804930">
        <ele>577.3</ele>
        <time>2018-10-21T09:45:08Z</time>
      </trkpt>
      <trkpt lat="43.0424620" lon="-3.1803780">
        <ele>576.2</ele>
        <time>2018-10-21T09:45:09Z</time>
      </trkpt>
      <trkpt lat="43.0425500" lon="-3.1802670">
        <ele>576.2</ele>
        <time>2018-10-21T09:45:10Z</time>
      </trkpt>
      <trkpt lat="43.0426420" lon="-3.1801570">
        <ele>574.3</ele>
        <time>2018-10-21T09:45:11Z</time>
      </trkpt>
      <trkpt lat="43.0427330" lon="-3.1800480">
        <ele>574.3</ele>
        <time>2018-10-21T09:45:12Z</time>
      </trkpt>
      <trkpt lat="43.0428280" lon="-3.1799450">
        <ele>573.2</ele>
        <time>2018-10-21T09:45:13Z</time>
      </trkpt>
      <trkpt lat="43.0429200" lon="-3.1798420">
        <ele>573.2</ele>
        <time>2018-10-21T09:45:14Z</time>
      </trkpt>
      <trkpt lat="43.0430100" lon="-3.1797320">
        <ele>573.2</ele>
        <time>2018-10-21T09:45:15Z</time>
      </trkpt>
      <trkpt lat="43.0430980" lon="-3.1796200">
        <ele>573.2</ele>
        <time>2018-10-21T09:45:16Z</time>
      </trkpt>
      <trkpt lat="43.0431850" lon="-3.1795020">
        <ele>573.2</ele>
        <time>2018-10-21T09:45:17Z</time>
      </trkpt>
      <trkpt lat="43.0432700" lon="-3.1793800">
        <ele>573.2</ele>
        <time>2018-10-21T09:45:18Z</time>
      </trkpt>
      <trkpt lat="43.0433550" lon="-3.1792520">
        <ele>573.2</ele>
        <time>2018-10-21T09:45:19Z</time>
      </trkpt>
      <trkpt lat="43.0434330" lon="-3.1791130">
        <ele>573.2</ele>
        <time>2018-10-21T09:45:20Z</time>
      </trkpt>
      <trkpt lat="43.0435070" lon="-3.1789670">
        <ele>568.3</ele>
        <time>2018-10-21T09:45:21Z</time>
      </trkpt>
      <trkpt lat="43.0435730" lon="-3.1788130">
        <ele>568.3</ele>
        <time>2018-10-21T09:45:22Z</time>
      </trkpt>
      <trkpt lat="43.0436350" lon="-3.1786570">
        <ele>566.2</ele>
        <time>2018-10-21T09:45:23Z</time>
      </trkpt>
      <trkpt lat="43.0436950" lon="-3.1784980">
        <ele>566.2</ele>
        <time>2018-10-21T09:45:24Z</time>
      </trkpt>
      <trkpt lat="43.0437520" lon="-3.1783400">
        <ele>566.2</ele>
        <time>2018-10-21T09:45:25Z</time>
      </trkpt>
      <trkpt lat="43.0438080" lon="-3.1781820">
        <ele>566.2</ele>
        <time>2018-10-21T09:45:26Z</time>
      </trkpt>
      <trkpt lat="43.0438650" lon="-3.1780270">
        <ele>566.2</ele>
        <time>2018-10-21T09:45:27Z</time>
      </trkpt>
      <trkpt lat="43.0439220" lon="-3.1778750">
        <ele>566.2</ele>
        <time>2018-10-21T09:45:28Z</time>
      </trkpt>
      <trkpt lat="43.0439820" lon="-3.1777270">
        <ele>566.2</ele>
        <time>2018-10-21T09:45:29Z</time>
      </trkpt>
      <trkpt lat="43.0440450" lon="-3.1775820">
        <ele>566.2</ele>
        <time>2018-10-21T09:45:30Z</time>
      </trkpt>
      <trkpt lat="43.0441100" lon="-3.1774330">
        <ele>561.3</ele>
        <time>2018-10-21T09:45:31Z</time>
      </trkpt>
      <trkpt lat="43.0441730" lon="-3.1772800">
        <ele>561.3</ele>
        <time>2018-10-21T09:45:32Z</time>
      </trkpt>
      <trkpt lat="43.0442350" lon="-3.1771250">
        <ele>560.2</ele>
        <time>2018-10-21T09:45:33Z</time>
      </trkpt>
      <trkpt lat="43.0443000" lon="-3.1769720">
        <ele>560.2</ele>
        <time>2018-10-21T09:45:34Z</time>
      </trkpt>
      <trkpt lat="43.0443630" lon="-3.1768170">
        <ele>558.2</ele>
        <time>2018-10-21T09:45:35Z</time>
      </trkpt>
      <trkpt lat="43.0444280" lon="-3.1766650">
        <ele>558.2</ele>
        <time>2018-10-21T09:45:36Z</time>
      </trkpt>
      <trkpt lat="43.0445000" lon="-3.1765180">
        <ele>557.2</ele>
        <time>2018-10-21T09:45:37Z</time>
      </trkpt>
      <trkpt lat="43.0445830" lon="-3.1763820">
        <ele>557.2</ele>
        <time>2018-10-21T09:45:38Z</time>
      </trkpt>
      <trkpt lat="43.0446780" lon="-3.1762570">
        <ele>556.3</ele>
        <time>2018-10-21T09:45:39Z</time>
      </trkpt>
      <trkpt lat="43.0447800" lon="-3.1761470">
        <ele>556.3</ele>
        <time>2018-10-21T09:45:40Z</time>
      </trkpt>
      <trkpt lat="43.0448900" lon="-3.1760580">
        <ele>553.2</ele>
        <time>2018-10-21T09:45:41Z</time>
      </trkpt>
      <trkpt lat="43.0450050" lon="-3.1759850">
        <ele>553.2</ele>
        <time>2018-10-21T09:45:42Z</time>
      </trkpt>
      <trkpt lat="43.0451250" lon="-3.1759230">
        <ele>552.3</ele>
        <time>2018-10-21T09:45:43Z</time>
      </trkpt>
      <trkpt lat="43.0452480" lon="-3.1758720">
        <ele>552.3</ele>
        <time>2018-10-21T09:45:44Z</time>
      </trkpt>
      <trkpt lat="43.0453720" lon="-3.1758350">
        <ele>550.2</ele>
        <time>2018-10-21T09:45:45Z</time>
      </trkpt>
      <trkpt lat="43.0454980" lon="-3.1758100">
        <ele>550.2</ele>
        <time>2018-10-21T09:45:46Z</time>
      </trkpt>
      <trkpt lat="43.0456230" lon="-3.1757920">
        <ele>549.3</ele>
        <time>2018-10-21T09:45:47Z</time>
      </trkpt>
      <trkpt lat="43.0457480" lon="-3.1757730">
        <ele>549.3</ele>
        <time>2018-10-21T09:45:48Z</time>
      </trkpt>
      <trkpt lat="43.0458700" lon="-3.1757570">
        <ele>548.2</ele>
        <time>2018-10-21T09:45:49Z</time>
      </trkpt>
      <trkpt lat="43.0459930" lon="-3.1757320">
        <ele>548.2</ele>
        <time>2018-10-21T09:45:50Z</time>
      </trkpt>
      <trkpt lat="43.0461150" lon="-3.1757080">
        <ele>546.2</ele>
        <time>2018-10-21T09:45:51Z</time>
      </trkpt>
      <trkpt lat="43.0462350" lon="-3.1756830">
        <ele>546.2</ele>
        <time>2018-10-21T09:45:52Z</time>
      </trkpt>
      <trkpt lat="43.0463520" lon="-3.1756580">
        <ele>546.2</ele>
        <time>2018-10-21T09:45:53Z</time>
      </trkpt>
      <trkpt lat="43.0464650" lon="-3.1756370">
        <ele>546.2</ele>
        <time>2018-10-21T09:45:54Z</time>
      </trkpt>
      <trkpt lat="43.0465750" lon="-3.1756170">
        <ele>546.2</ele>
        <time>2018-10-21T09:45:55Z</time>
      </trkpt>
      <trkpt lat="43.0466820" lon="-3.1755950">
        <ele>546.2</ele>
        <time>2018-10-21T09:45:56Z</time>
      </trkpt>
      <trkpt lat="43.0467870" lon="-3.1755750">
        <ele>545.3</ele>
        <time>2018-10-21T09:45:57Z</time>
      </trkpt>
      <trkpt lat="43.0468900" lon="-3.1755570">
        <ele>545.3</ele>
        <time>2018-10-21T09:45:58Z</time>
      </trkpt>
      <trkpt lat="43.0469900" lon="-3.1755450">
        <ele>545.3</ele>
        <time>2018-10-21T09:45:59Z</time>
      </trkpt>
      <trkpt lat="43.0470900" lon="-3.1755400">
        <ele>545.3</ele>
        <time>2018-10-21T09:46:00Z</time>
      </trkpt>
      <trkpt lat="43.0471870" lon="-3.1755380">
        <ele>544.2</ele>
        <time>2018-10-21T09:46:01Z</time>
      </trkpt>
      <trkpt lat="43.0472830" lon="-3.1755400">
        <ele>544.2</ele>
        <time>2018-10-21T09:46:02Z</time>
      </trkpt>
      <trkpt lat="43.0473770" lon="-3.1755480">
        <ele>544.2</ele>
        <time>2018-10-21T09:46:03Z</time>
      </trkpt>
      <trkpt lat="43.0474700" lon="-3.1755630">
        <ele>544.2</ele>
        <time>2018-10-21T09:46:04Z</time>
      </trkpt>
      <trkpt lat="43.0475600" lon="-3.1755880">
        <ele>544.2</ele>
        <time>2018-10-21T09:46:05Z</time>
      </trkpt>
      <trkpt lat="43.0476480" lon="-3.1756170">
        <ele>544.2</ele>
        <time>2018-10-21T09:46:06Z</time>
      </trkpt>
      <trkpt lat="43.0477350" lon="-3.1756500">
        <ele>544.2</ele>
        <time>2018-10-21T09:46:07Z</time>
      </trkpt>
      <trkpt lat="43.0478200" lon="-3.1756870">
        <ele>544.2</ele>
        <time>2018-10-21T09:46:08Z</time>
      </trkpt>
      <trkpt lat="43.0479050" lon="-3.1757230">
        <ele>544.2</ele>
        <time>2018-10-21T09:46:09Z</time>
      </trkpt>
      <trkpt lat="43.0479880" lon="-3.1757620">
        <ele>544.2</ele>
        <time>2018-10-21T09:46:10Z</time>
      </trkpt>
      <trkpt lat="43.0480720" lon="-3.1758000">
        <ele>544.2</ele>
        <time>2018-10-21T09:46:11Z</time>
      </trkpt>
      <trkpt lat="43.0481550" lon="-3.1758370">
        <ele>544.2</ele>
        <time>2018-10-21T09:46:12Z</time>
      </trkpt>
      <trkpt lat="43.0482370" lon="-3.1758750">
        <ele>543.3</ele>
        <time>2018-10-21T09:46:13Z</time>
      </trkpt>
      <trkpt lat="43.0483180" lon="-3.1759120">
        <ele>543.3</ele>
        <time>2018-10-21T09:46:14Z</time>
      </trkpt>
      <trkpt lat="43.0483980" lon="-3.1759470">
        <ele>543.3</ele>
        <time>2018-10-21T09:46:15Z</time>
      </trkpt>
      <trkpt lat="43.0484800" lon="-3.1759780">
        <ele>543.3</ele>
        <time>2018-10-21T09:46:16Z</time>
      </trkpt>
      <trkpt lat="43.0485630" lon="-3.1760070">
        <ele>543.3</ele>
        <time>2018-10-21T09:46:17Z</time>
      </trkpt>
      <trkpt lat="43.0486480" lon="-3.1760270">
        <ele>543.3</ele>
        <time>2018-10-21T09:46:18Z</time>
      </trkpt>
      <trkpt lat="43.0487330" lon="-3.1760380">
        <ele>543.3</ele>
        <time>2018-10-21T09:46:19Z</time>
      </trkpt>
      <trkpt lat="43.0488200" lon="-3.1760420">
        <ele>543.3</ele>
        <time>2018-10-21T09:46:20Z</time>
      </trkpt>
      <trkpt lat="43.0489070" lon="-3.1760370">
        <ele>543.3</ele>
        <time>2018-10-21T09:46:21Z</time>
      </trkpt>
      <trkpt lat="43.0489920" lon="-3.1760270">
        <ele>543.3</ele>
        <time>2018-10-21T09:46:22Z</time>
      </trkpt>
      <trkpt lat="43.0490750" lon="-3.1760100">
        <ele>542.2</ele>
        <time>2018-10-21T09:46:23Z</time>
      </trkpt>
      <trkpt lat="43.0491580" lon="-3.1759880">
        <ele>542.2</ele>
        <time>2018-10-21T09:46:24Z</time>
      </trkpt>
      <trkpt lat="43.0492380" lon="-3.1759620">
        <ele>542.2</ele>
        <time>2018-10-21T09:46:25Z</time>
      </trkpt>
      <trkpt lat="43.0493200" lon="-3.1759350">
        <ele>542.2</ele>
        <time>2018-10-21T09:46:26Z</time>
      </trkpt>
      <trkpt lat="43.0494000" lon="-3.1759080">
        <ele>542.2</ele>
        <time>2018-10-21T09:46:27Z</time>
      </trkpt>
      <trkpt lat="43.0494800" lon="-3.1758800">
        <ele>542.2</ele>
        <time>2018-10-21T09:46:28Z</time>
      </trkpt>
      <trkpt lat="43.0495620" lon="-3.1758520">
        <ele>542.2</ele>
        <time>2018-10-21T09:46:29Z</time>
      </trkpt>
      <trkpt lat="43.0496430" lon="-3.1758230">
        <ele>542.2</ele>
        <time>2018-10-21T09:46:30Z</time>
      </trkpt>
      <trkpt lat="43.0497230" lon="-3.1757930">
        <ele>542.2</ele>
        <time>2018-10-21T09:46:31Z</time>
      </trkpt>
      <trkpt lat="43.0498030" lon="-3.1757650">
        <ele>542.2</ele>
        <time>2018-10-21T09:46:32Z</time>
      </trkpt>
      <trkpt lat="43.0498820" lon="-3.1757400">
        <ele>542.2</ele>
        <time>2018-10-21T09:46:33Z</time>
      </trkpt>
      <trkpt lat="43.0499600" lon="-3.1757150">
        <ele>542.2</ele>
        <time>2018-10-21T09:46:34Z</time>
      </trkpt>
      <trkpt lat="43.0500400" lon="-3.1756900">
        <ele>542.2</ele>
        <time>2018-10-21T09:46:35Z</time>
      </trkpt>
      <trkpt lat="43.0501180" lon="-3.1756670">
        <ele>542.2</ele>
        <time>2018-10-21T09:46:36Z</time>
      </trkpt>
      <trkpt lat="43.0501970" lon="-3.1756450">
        <ele>542.2</ele>
        <time>2018-10-21T09:46:37Z</time>
      </trkpt>
      <trkpt lat="43.0502750" lon="-3.1756300">
        <ele>542.2</ele>
        <time>2018-10-21T09:46:38Z</time>
      </trkpt>
      <trkpt lat="43.0503550" lon="-3.1756200">
        <ele>542.2</ele>
        <time>2018-10-21T09:46:39Z</time>
      </trkpt>
      <trkpt lat="43.0504330" lon="-3.1756100">
        <ele>542.2</ele>
        <time>2018-10-21T09:46:40Z</time>
      </trkpt>
      <trkpt lat="43.0505120" lon="-3.1756020">
        <ele>542.2</ele>
        <time>2018-10-21T09:46:41Z</time>
      </trkpt>
      <trkpt lat="43.0505920" lon="-3.1756000">
        <ele>542.2</ele>
        <time>2018-10-21T09:46:42Z</time>
      </trkpt>
      <trkpt lat="43.0506720" lon="-3.1756000">
        <ele>542.2</ele>
        <time>2018-10-21T09:46:43Z</time>
      </trkpt>
      <trkpt lat="43.0507520" lon="-3.1756030">
        <ele>542.2</ele>
        <time>2018-10-21T09:46:44Z</time>
      </trkpt>
      <trkpt lat="43.0508330" lon="-3.1756080">
        <ele>542.2</ele>
        <time>2018-10-21T09:46:45Z</time>
      </trkpt>
      <trkpt lat="43.0509150" lon="-3.1756170">
        <ele>542.2</ele>
        <time>2018-10-21T09:46:46Z</time>
      </trkpt>
      <trkpt lat="43.0509980" lon="-3.1756230">
        <ele>542.2</ele>
        <time>2018-10-21T09:46:47Z</time>
      </trkpt>
      <trkpt lat="43.0510800" lon="-3.1756320">
        <ele>542.2</ele>
        <time>2018-10-21T09:46:48Z</time>
      </trkpt>
      <trkpt lat="43.0511650" lon="-3.1756370">
        <ele>541.2</ele>
        <time>2018-10-21T09:46:49Z</time>
      </trkpt>
      <trkpt lat="43.0512500" lon="-3.1756380">
        <ele>541.2</ele>
        <time>2018-10-21T09:46:50Z</time>
      </trkpt>
      <trkpt lat="43.0513350" lon="-3.1756380">
        <ele>541.2</ele>
        <time>2018-10-21T09:46:51Z</time>
      </trkpt>
      <trkpt lat="43.0514200" lon="-3.1756300">
        <ele>541.2</ele>
        <time>2018-10-21T09:46:52Z</time>
      </trkpt>
      <trkpt lat="43.0515070" lon="-3.1756150">
        <ele>540.3</ele>
        <time>2018-10-21T09:46:53Z</time>
      </trkpt>
      <trkpt lat="43.0515950" lon="-3.1755980">
        <ele>540.3</ele>
        <time>2018-10-21T09:46:54Z</time>
      </trkpt>
      <trkpt lat="43.0516820" lon="-3.1755770">
        <ele>539.2</ele>
        <time>2018-10-21T09:46:55Z</time>
      </trkpt>
      <trkpt lat="43.0517700" lon="-3.1755500">
        <ele>539.2</ele>
        <time>2018-10-21T09:46:56Z</time>
      </trkpt>
      <trkpt lat="43.0518580" lon="-3.1755200">
        <ele>539.2</ele>
        <time>2018-10-21T09:46:57Z</time>
      </trkpt>
      <trkpt lat="43.0519450" lon="-3.1754880">
        <ele>539.2</ele>
        <time>2018-10-21T09:46:58Z</time>
      </trkpt>
      <trkpt lat="43.0520330" lon="-3.1754520">
        <ele>539.2</ele>
        <time>2018-10-21T09:46:59Z</time>
      </trkpt>
      <trkpt lat="43.0521200" lon="-3.1754150">
        <ele>539.2</ele>
        <time>2018-10-21T09:47:00Z</time>
      </trkpt>
      <trkpt lat="43.0522080" lon="-3.1753800">
        <ele>538.3</ele>
        <time>2018-10-21T09:47:01Z</time>
      </trkpt>
      <trkpt lat="43.0522950" lon="-3.1753430">
        <ele>538.3</ele>
        <time>2018-10-21T09:47:02Z</time>
      </trkpt>
      <trkpt lat="43.0523820" lon="-3.1753050">
        <ele>538.3</ele>
        <time>2018-10-21T09:47:03Z</time>
      </trkpt>
      <trkpt lat="43.0524680" lon="-3.1752680">
        <ele>538.3</ele>
        <time>2018-10-21T09:47:04Z</time>
      </trkpt>
      <trkpt lat="43.0525550" lon="-3.1752300">
        <ele>538.3</ele>
        <time>2018-10-21T09:47:05Z</time>
      </trkpt>
      <trkpt lat="43.0526380" lon="-3.1751950">
        <ele>538.3</ele>
        <time>2018-10-21T09:47:06Z</time>
      </trkpt>
      <trkpt lat="43.0527220" lon="-3.1751600">
        <ele>538.3</ele>
        <time>2018-10-21T09:47:07Z</time>
      </trkpt>
      <trkpt lat="43.0528050" lon="-3.1751270">
        <ele>538.3</ele>
        <time>2018-10-21T09:47:08Z</time>
      </trkpt>
      <trkpt lat="43.0528870" lon="-3.1750950">
        <ele>538.3</ele>
        <time>2018-10-21T09:47:09Z</time>
      </trkpt>
      <trkpt lat="43.0529670" lon="-3.1750680">
        <ele>538.3</ele>
        <time>2018-10-21T09:47:10Z</time>
      </trkpt>
      <trkpt lat="43.0530480" lon="-3.1750430">
        <ele>538.3</ele>
        <time>2018-10-21T09:47:11Z</time>
      </trkpt>
      <trkpt lat="43.0531300" lon="-3.1750270">
        <ele>538.3</ele>
        <time>2018-10-21T09:47:12Z</time>
      </trkpt>
      <trkpt lat="43.0532150" lon="-3.1750150">
        <ele>538.3</ele>
        <time>2018-10-21T09:47:13Z</time>
      </trkpt>
      <trkpt lat="43.0533000" lon="-3.1750100">
        <ele>538.3</ele>
        <time>2018-10-21T09:47:14Z</time>
      </trkpt>
      <trkpt lat="43.0533870" lon="-3.1750170">
        <ele>538.3</ele>
        <time>2018-10-21T09:47:15Z</time>
      </trkpt>
      <trkpt lat="43.0534730" lon="-3.1750280">
        <ele>538.3</ele>
        <time>2018-10-21T09:47:16Z</time>
      </trkpt>
      <trkpt lat="43.0535620" lon="-3.1750450">
        <ele>538.3</ele>
        <time>2018-10-21T09:47:17Z</time>
      </trkpt>
      <trkpt lat="43.0536480" lon="-3.1750630">
        <ele>538.3</ele>
        <time>2018-10-21T09:47:18Z</time>
      </trkpt>
      <trkpt lat="43.0537350" lon="-3.1750830">
        <ele>538.3</ele>
        <time>2018-10-21T09:47:19Z</time>
      </trkpt>
      <trkpt lat="43.0538200" lon="-3.1751030">
        <ele>538.3</ele>
        <time>2018-10-21T09:47:20Z</time>
      </trkpt>
      <trkpt lat="43.0539030" lon="-3.1751220">
        <ele>538.3</ele>
        <time>2018-10-21T09:47:21Z</time>
      </trkpt>
      <trkpt lat="43.0539880" lon="-3.1751420">
        <ele>538.3</ele>
        <time>2018-10-21T09:47:22Z</time>
      </trkpt>
      <trkpt lat="43.0540700" lon="-3.1751620">
        <ele>538.3</ele>
        <time>2018-10-21T09:47:23Z</time>
      </trkpt>
      <trkpt lat="43.0541530" lon="-3.1751800">
        <ele>538.3</ele>
        <time>2018-10-21T09:47:24Z</time>
      </trkpt>
      <trkpt lat="43.0542350" lon="-3.1751980">
        <ele>538.3</ele>
        <time>2018-10-21T09:47:25Z</time>
      </trkpt>
      <trkpt lat="43.0543180" lon="-3.1752180">
        <ele>538.3</ele>
        <time>2018-10-21T09:47:26Z</time>
      </trkpt>
      <trkpt lat="43.0544000" lon="-3.1752380">
        <ele>538.3</ele>
        <time>2018-10-21T09:47:27Z</time>
      </trkpt>
      <trkpt lat="43.0544800" lon="-3.1752580">
        <ele>538.3</ele>
        <time>2018-10-21T09:47:28Z</time>
      </trkpt>
      <trkpt lat="43.0545620" lon="-3.1752800">
        <ele>538.3</ele>
        <time>2018-10-21T09:47:29Z</time>
      </trkpt>
      <trkpt lat="43.0546420" lon="-3.1753020">
        <ele>538.3</ele>
        <time>2018-10-21T09:47:30Z</time>
      </trkpt>
      <trkpt lat="43.0547220" lon="-3.1753270">
        <ele>538.3</ele>
        <time>2018-10-21T09:47:31Z</time>
      </trkpt>
      <trkpt lat="43.0548020" lon="-3.1753550">
        <ele>538.3</ele>
        <time>2018-10-21T09:47:32Z</time>
      </trkpt>
      <trkpt lat="43.0548800" lon="-3.1753880">
        <ele>538.3</ele>
        <time>2018-10-21T09:47:33Z</time>
      </trkpt>
      <trkpt lat="43.0549570" lon="-3.1754250">
        <ele>538.3</ele>
        <time>2018-10-21T09:47:34Z</time>
      </trkpt>
      <trkpt lat="43.0550330" lon="-3.1754670">
        <ele>538.3</ele>
        <time>2018-10-21T09:47:35Z</time>
      </trkpt>
      <trkpt lat="43.0551100" lon="-3.1755150">
        <ele>538.3</ele>
        <time>2018-10-21T09:47:36Z</time>
      </trkpt>
      <trkpt lat="43.0551850" lon="-3.1755680">
        <ele>538.3</ele>
        <time>2018-10-21T09:47:37Z</time>
      </trkpt>
      <trkpt lat="43.0552570" lon="-3.1756250">
        <ele>538.3</ele>
        <time>2018-10-21T09:47:38Z</time>
      </trkpt>
      <trkpt lat="43.0553280" lon="-3.1756830">
        <ele>538.3</ele>
        <time>2018-10-21T09:47:39Z</time>
      </trkpt>
      <trkpt lat="43.0553980" lon="-3.1757450">
        <ele>538.3</ele>
        <time>2018-10-21T09:47:40Z</time>
      </trkpt>
      <trkpt lat="43.0554670" lon="-3.1758080">
        <ele>538.3</ele>
        <time>2018-10-21T09:47:41Z</time>
      </trkpt>
      <trkpt lat="43.0555370" lon="-3.1758720">
        <ele>538.3</ele>
        <time>2018-10-21T09:47:42Z</time>
      </trkpt>
      <trkpt lat="43.0556050" lon="-3.1759350">
        <ele>538.3</ele>
        <time>2018-10-21T09:47:43Z</time>
      </trkpt>
      <trkpt lat="43.0556720" lon="-3.1759980">
        <ele>538.3</ele>
        <time>2018-10-21T09:47:44Z</time>
      </trkpt>
      <trkpt lat="43.0557400" lon="-3.1760620">
        <ele>538.3</ele>
        <time>2018-10-21T09:47:45Z</time>
      </trkpt>
      <trkpt lat="43.0558070" lon="-3.1761250">
        <ele>538.3</ele>
        <time>2018-10-21T09:47:46Z</time>
      </trkpt>
      <trkpt lat="43.0558730" lon="-3.1761870">
        <ele>538.3</ele>
        <time>2018-10-21T09:47:47Z</time>
      </trkpt>
      <trkpt lat="43.0559380" lon="-3.1762480">
        <ele>538.3</ele>
        <time>2018-10-21T09:47:48Z</time>
      </trkpt>
      <trkpt lat="43.0560070" lon="-3.1763070">
        <ele>538.3</ele>
        <time>2018-10-21T09:47:49Z</time>
      </trkpt>
      <trkpt lat="43.0560730" lon="-3.1763650">
        <ele>538.3</ele>
        <time>2018-10-21T09:47:50Z</time>
      </trkpt>
      <trkpt lat="43.0561420" lon="-3.1764200">
        <ele>538.3</ele>
        <time>2018-10-21T09:47:51Z</time>
      </trkpt>
      <trkpt lat="43.0562130" lon="-3.1764700">
        <ele>538.3</ele>
        <time>2018-10-21T09:47:52Z</time>
      </trkpt>
      <trkpt lat="43.0562830" lon="-3.1765130">
        <ele>538.3</ele>
        <time>2018-10-21T09:47:53Z</time>
      </trkpt>
      <trkpt lat="43.0563550" lon="-3.1765520">
        <ele>538.3</ele>
        <time>2018-10-21T09:47:54Z</time>
      </trkpt>
      <trkpt lat="43.0564270" lon="-3.1765830">
        <ele>538.3</ele>
        <time>2018-10-21T09:47:55Z</time>
      </trkpt>
      <trkpt lat="43.0564970" lon="-3.1766120">
        <ele>538.3</ele>
        <time>2018-10-21T09:47:56Z</time>
      </trkpt>
      <trkpt lat="43.0565670" lon="-3.1766350">
        <ele>538.3</ele>
        <time>2018-10-21T09:47:57Z</time>
      </trkpt>
      <trkpt lat="43.0566350" lon="-3.1766530">
        <ele>538.3</ele>
        <time>2018-10-21T09:47:58Z</time>
      </trkpt>
      <trkpt lat="43.0567020" lon="-3.1766620">
        <ele>538.3</ele>
        <time>2018-10-21T09:47:59Z</time>
      </trkpt>
      <trkpt lat="43.0567680" lon="-3.1766670">
        <ele>538.3</ele>
        <time>2018-10-21T09:48:00Z</time>
      </trkpt>
      <trkpt lat="43.0568320" lon="-3.1766680">
        <ele>539.2</ele>
        <time>2018-10-21T09:48:01Z</time>
      </trkpt>
      <trkpt lat="43.0568970" lon="-3.1766620">
        <ele>539.2</ele>
        <time>2018-10-21T09:48:02Z</time>
      </trkpt>
      <trkpt lat="43.0569580" lon="-3.1766550">
        <ele>539.2</ele>
        <time>2018-10-21T09:48:03Z</time>
      </trkpt>
      <trkpt lat="43.0570180" lon="-3.1766420">
        <ele>539.2</ele>
        <time>2018-10-21T09:48:04Z</time>
      </trkpt>
      <trkpt lat="43.0570780" lon="-3.1766270">
        <ele>539.2</ele>
        <time>2018-10-21T09:48:05Z</time>
      </trkpt>
      <trkpt lat="43.0571370" lon="-3.1766100">
        <ele>539.2</ele>
        <time>2018-10-21T09:48:06Z</time>
      </trkpt>
      <trkpt lat="43.0571950" lon="-3.1765930">
        <ele>539.2</ele>
        <time>2018-10-21T09:48:07Z</time>
      </trkpt>
      <trkpt lat="43.0572550" lon="-3.1765770">
        <ele>539.2</ele>
        <time>2018-10-21T09:48:08Z</time>
      </trkpt>
      <trkpt lat="43.0573130" lon="-3.1765580">
        <ele>539.2</ele>
        <time>2018-10-21T09:48:09Z</time>
      </trkpt>
      <trkpt lat="43.0573700" lon="-3.1765400">
        <ele>539.2</ele>
        <time>2018-10-21T09:48:10Z</time>
      </trkpt>
      <trkpt lat="43.0574280" lon="-3.1765220">
        <ele>539.2</ele>
        <time>2018-10-21T09:48:11Z</time>
      </trkpt>
      <trkpt lat="43.0574850" lon="-3.1765050">
        <ele>539.2</ele>
        <time>2018-10-21T09:48:12Z</time>
      </trkpt>
      <trkpt lat="43.0575420" lon="-3.1764870">
        <ele>539.2</ele>
        <time>2018-10-21T09:48:13Z</time>
      </trkpt>
      <trkpt lat="43.0575980" lon="-3.1764700">
        <ele>539.2</ele>
        <time>2018-10-21T09:48:14Z</time>
      </trkpt>
      <trkpt lat="43.0576550" lon="-3.1764530">
        <ele>540.3</ele>
        <time>2018-10-21T09:48:15Z</time>
      </trkpt>
      <trkpt lat="43.0577120" lon="-3.1764350">
        <ele>540.3</ele>
        <time>2018-10-21T09:48:16Z</time>
      </trkpt>
      <trkpt lat="43.0577670" lon="-3.1764170">
        <ele>540.3</ele>
        <time>2018-10-21T09:48:17Z</time>
      </trkpt>
      <trkpt lat="43.0578220" lon="-3.1764070">
        <ele>540.3</ele>
        <time>2018-10-21T09:48:18Z</time>
      </trkpt>
      <trkpt lat="43.0578730" lon="-3.1763950">
        <ele>540.3</ele>
        <time>2018-10-21T09:48:19Z</time>
      </trkpt>
      <trkpt lat="43.0579230" lon="-3.1763800">
        <ele>540.3</ele>
        <time>2018-10-21T09:48:20Z</time>
      </trkpt>
      <trkpt lat="43.0579700" lon="-3.1763650">
        <ele>540.3</ele>
        <time>2018-10-21T09:48:21Z</time>
      </trkpt>
      <trkpt lat="43.0580200" lon="-3.1763500">
        <ele>540.3</ele>
        <time>2018-10-21T09:48:22Z</time>
      </trkpt>
      <trkpt lat="43.0580680" lon="-3.1763370">
        <ele>541.2</ele>
        <time>2018-10-21T09:48:23Z</time>
      </trkpt>
      <trkpt lat="43.0581170" lon="-3.1763220">
        <ele>541.2</ele>
        <time>2018-10-21T09:48:24Z</time>
      </trkpt>
      <trkpt lat="43.0581630" lon="-3.1763050">
        <ele>541.2</ele>
        <time>2018-10-21T09:48:25Z</time>
      </trkpt>
      <trkpt lat="43.0582100" lon="-3.1762900">
        <ele>541.2</ele>
        <time>2018-10-21T09:48:26Z</time>
      </trkpt>
      <trkpt lat="43.0582570" lon="-3.1762750">
        <ele>542.2</ele>
        <time>2018-10-21T09:48:27Z</time>
      </trkpt>
      <trkpt lat="43.0583020" lon="-3.1762580">
        <ele>542.2</ele>
        <time>2018-10-21T09:48:28Z</time>
      </trkpt>
      <trkpt lat="43.0583480" lon="-3.1762450">
        <ele>542.2</ele>
        <time>2018-10-21T09:48:29Z</time>
      </trkpt>
      <trkpt lat="43.0583950" lon="-3.1762320">
        <ele>542.2</ele>
        <time>2018-10-21T09:48:30Z</time>
      </trkpt>
      <trkpt lat="43.0584400" lon="-3.1762150">
        <ele>542.2</ele>
        <time>2018-10-21T09:48:31Z</time>
      </trkpt>
      <trkpt lat="43.0584870" lon="-3.1762000">
        <ele>542.2</ele>
        <time>2018-10-21T09:48:32Z</time>
      </trkpt>
      <trkpt lat="43.0585330" lon="-3.1761830">
        <ele>543.3</ele>
        <time>2018-10-21T09:48:33Z</time>
      </trkpt>
      <trkpt lat="43.0585800" lon="-3.1761700">
        <ele>543.3</ele>
        <time>2018-10-21T09:48:34Z</time>
      </trkpt>
      <trkpt lat="43.0586270" lon="-3.1761550">
        <ele>543.3</ele>
        <time>2018-10-21T09:48:35Z</time>
      </trkpt>
      <trkpt lat="43.0586730" lon="-3.1761370">
        <ele>543.3</ele>
        <time>2018-10-21T09:48:36Z</time>
      </trkpt>
      <trkpt lat="43.0587200" lon="-3.1761220">
        <ele>543.3</ele>
        <time>2018-10-21T09:48:37Z</time>
      </trkpt>
      <trkpt lat="43.0587670" lon="-3.1761120">
        <ele>543.3</ele>
        <time>2018-10-21T09:48:38Z</time>
      </trkpt>
      <trkpt lat="43.0588130" lon="-3.1760980">
        <ele>543.3</ele>
        <time>2018-10-21T09:48:39Z</time>
      </trkpt>
      <trkpt lat="43.0588600" lon="-3.1760820">
        <ele>543.3</ele>
        <time>2018-10-21T09:48:40Z</time>
      </trkpt>
      <trkpt lat="43.0589080" lon="-3.1760680">
        <ele>543.3</ele>
        <time>2018-10-21T09:48:41Z</time>
      </trkpt>
      <trkpt lat="43.0589580" lon="-3.1760550">
        <ele>543.3</ele>
        <time>2018-10-21T09:48:42Z</time>
      </trkpt>
      <trkpt lat="43.0590080" lon="-3.1760400">
        <ele>543.3</ele>
        <time>2018-10-21T09:48:43Z</time>
      </trkpt>
      <trkpt lat="43.0590580" lon="-3.1760230">
        <ele>543.3</ele>
        <time>2018-10-21T09:48:44Z</time>
      </trkpt>
      <trkpt lat="43.0591100" lon="-3.1760080">
        <ele>544.2</ele>
        <time>2018-10-21T09:48:45Z</time>
      </trkpt>
      <trkpt lat="43.0591630" lon="-3.1759920">
        <ele>544.2</ele>
        <time>2018-10-21T09:48:46Z</time>
      </trkpt>
      <trkpt lat="43.0592170" lon="-3.1759770">
        <ele>545.3</ele>
        <time>2018-10-21T09:48:47Z</time>
      </trkpt>
      <trkpt lat="43.0592680" lon="-3.1759630">
        <ele>545.3</ele>
        <time>2018-10-21T09:48:48Z</time>
      </trkpt>
      <trkpt lat="43.0593220" lon="-3.1759520">
        <ele>545.3</ele>
        <time>2018-10-21T09:48:49Z</time>
      </trkpt>
      <trkpt lat="43.0593750" lon="-3.1759420">
        <ele>545.3</ele>
        <time>2018-10-21T09:48:50Z</time>
      </trkpt>
      <trkpt lat="43.0594300" lon="-3.1759330">
        <ele>545.3</ele>
        <time>2018-10-21T09:48:51Z</time>
      </trkpt>
      <trkpt lat="43.0594850" lon="-3.1759280">
        <ele>545.3</ele>
        <time>2018-10-21T09:48:52Z</time>
      </trkpt>
      <trkpt lat="43.0595380" lon="-3.1759230">
        <ele>545.3</ele>
        <time>2018-10-21T09:48:53Z</time>
      </trkpt>
      <trkpt lat="43.0595930" lon="-3.1759200">
        <ele>545.3</ele>
        <time>2018-10-21T09:48:54Z</time>
      </trkpt>
      <trkpt lat="43.0596450" lon="-3.1759180">
        <ele>545.3</ele>
        <time>2018-10-21T09:48:55Z</time>
      </trkpt>
      <trkpt lat="43.0596980" lon="-3.1759250">
        <ele>545.3</ele>
        <time>2018-10-21T09:48:56Z</time>
      </trkpt>
      <trkpt lat="43.0597520" lon="-3.1759400">
        <ele>545.3</ele>
        <time>2018-10-21T09:48:57Z</time>
      </trkpt>
      <trkpt lat="43.0598050" lon="-3.1759450">
        <ele>545.3</ele>
        <time>2018-10-21T09:48:58Z</time>
      </trkpt>
      <trkpt lat="43.0598600" lon="-3.1759520">
        <ele>545.3</ele>
        <time>2018-10-21T09:48:59Z</time>
      </trkpt>
      <trkpt lat="43.0599150" lon="-3.1759600">
        <ele>545.3</ele>
        <time>2018-10-21T09:49:00Z</time>
      </trkpt>
      <trkpt lat="43.0599700" lon="-3.1759650">
        <ele>545.3</ele>
        <time>2018-10-21T09:49:01Z</time>
      </trkpt>
      <trkpt lat="43.0600250" lon="-3.1759720">
        <ele>545.3</ele>
        <time>2018-10-21T09:49:02Z</time>
      </trkpt>
      <trkpt lat="43.0600800" lon="-3.1759800">
        <ele>545.3</ele>
        <time>2018-10-21T09:49:03Z</time>
      </trkpt>
      <trkpt lat="43.0601330" lon="-3.1759880">
        <ele>545.3</ele>
        <time>2018-10-21T09:49:04Z</time>
      </trkpt>
      <trkpt lat="43.0601850" lon="-3.1759950">
        <ele>545.3</ele>
        <time>2018-10-21T09:49:05Z</time>
      </trkpt>
      <trkpt lat="43.0602370" lon="-3.1760030">
        <ele>545.3</ele>
        <time>2018-10-21T09:49:06Z</time>
      </trkpt>
      <trkpt lat="43.0602870" lon="-3.1760120">
        <ele>545.3</ele>
        <time>2018-10-21T09:49:07Z</time>
      </trkpt>
      <trkpt lat="43.0603350" lon="-3.1760220">
        <ele>545.3</ele>
        <time>2018-10-21T09:49:08Z</time>
      </trkpt>
      <trkpt lat="43.0603830" lon="-3.1760280">
        <ele>545.3</ele>
        <time>2018-10-21T09:49:09Z</time>
      </trkpt>
      <trkpt lat="43.0604320" lon="-3.1760370">
        <ele>545.3</ele>
        <time>2018-10-21T09:49:10Z</time>
      </trkpt>
      <trkpt lat="43.0604780" lon="-3.1760450">
        <ele>545.3</ele>
        <time>2018-10-21T09:49:11Z</time>
      </trkpt>
      <trkpt lat="43.0605250" lon="-3.1760520">
        <ele>545.3</ele>
        <time>2018-10-21T09:49:12Z</time>
      </trkpt>
      <trkpt lat="43.0605720" lon="-3.1760580">
        <ele>546.2</ele>
        <time>2018-10-21T09:49:13Z</time>
      </trkpt>
      <trkpt lat="43.0606180" lon="-3.1760670">
        <ele>546.2</ele>
        <time>2018-10-21T09:49:14Z</time>
      </trkpt>
      <trkpt lat="43.0606650" lon="-3.1760750">
        <ele>546.2</ele>
        <time>2018-10-21T09:49:15Z</time>
      </trkpt>
      <trkpt lat="43.0607100" lon="-3.1760800">
        <ele>546.2</ele>
        <time>2018-10-21T09:49:16Z</time>
      </trkpt>
      <trkpt lat="43.0607570" lon="-3.1760880">
        <ele>546.2</ele>
        <time>2018-10-21T09:49:17Z</time>
      </trkpt>
      <trkpt lat="43.0608020" lon="-3.1760950">
        <ele>546.2</ele>
        <time>2018-10-21T09:49:18Z</time>
      </trkpt>
      <trkpt lat="43.0608470" lon="-3.1761030">
        <ele>546.2</ele>
        <time>2018-10-21T09:49:19Z</time>
      </trkpt>
      <trkpt lat="43.0608900" lon="-3.1761130">
        <ele>546.2</ele>
        <time>2018-10-21T09:49:20Z</time>
      </trkpt>
      <trkpt lat="43.0609350" lon="-3.1761220">
        <ele>547.3</ele>
        <time>2018-10-21T09:49:21Z</time>
      </trkpt>
      <trkpt lat="43.0609780" lon="-3.1761300">
        <ele>547.3</ele>
        <time>2018-10-21T09:49:22Z</time>
      </trkpt>
      <trkpt lat="43.0610230" lon="-3.1761370">
        <ele>547.3</ele>
        <time>2018-10-21T09:49:23Z</time>
      </trkpt>
      <trkpt lat="43.0610680" lon="-3.1761470">
        <ele>547.3</ele>
        <time>2018-10-21T09:49:24Z</time>
      </trkpt>
      <trkpt lat="43.0611120" lon="-3.1761530">
        <ele>547.3</ele>
        <time>2018-10-21T09:49:25Z</time>
      </trkpt>
      <trkpt lat="43.0611570" lon="-3.1761600">
        <ele>547.3</ele>
        <time>2018-10-21T09:49:26Z</time>
      </trkpt>
      <trkpt lat="43.0612000" lon="-3.1761670">
        <ele>548.2</ele>
        <time>2018-10-21T09:49:27Z</time>
      </trkpt>
      <trkpt lat="43.0612450" lon="-3.1761750">
        <ele>548.2</ele>
        <time>2018-10-21T09:49:28Z</time>
      </trkpt>
      <trkpt lat="43.0612900" lon="-3.1761870">
        <ele>548.2</ele>
        <time>2018-10-21T09:49:29Z</time>
      </trkpt>
      <trkpt lat="43.0613330" lon="-3.1761950">
        <ele>548.2</ele>
        <time>2018-10-21T09:49:30Z</time>
      </trkpt>
      <trkpt lat="43.0613800" lon="-3.1762030">
        <ele>548.2</ele>
        <time>2018-10-21T09:49:31Z</time>
      </trkpt>
      <trkpt lat="43.0614250" lon="-3.1762100">
        <ele>548.2</ele>
        <time>2018-10-21T09:49:32Z</time>
      </trkpt>
      <trkpt lat="43.0614700" lon="-3.1762170">
        <ele>548.2</ele>
        <time>2018-10-21T09:49:33Z</time>
      </trkpt>
      <trkpt lat="43.0615150" lon="-3.1762230">
        <ele>548.2</ele>
        <time>2018-10-21T09:49:34Z</time>
      </trkpt>
      <trkpt lat="43.0615600" lon="-3.1762320">
        <ele>548.2</ele>
        <time>2018-10-21T09:49:35Z</time>
      </trkpt>
      <trkpt lat="43.0616050" lon="-3.1762400">
        <ele>548.2</ele>
        <time>2018-10-21T09:49:36Z</time>
      </trkpt>
      <trkpt lat="43.0616480" lon="-3.1762470">
        <ele>549.3</ele>
        <time>2018-10-21T09:49:37Z</time>
      </trkpt>
      <trkpt lat="43.0616930" lon="-3.1762530">
        <ele>549.3</ele>
        <time>2018-10-21T09:49:38Z</time>
      </trkpt>
      <trkpt lat="43.0617380" lon="-3.1762620">
        <ele>549.3</ele>
        <time>2018-10-21T09:49:39Z</time>
      </trkpt>
      <trkpt lat="43.0617830" lon="-3.1762700">
        <ele>549.3</ele>
        <time>2018-10-21T09:49:40Z</time>
      </trkpt>
      <trkpt lat="43.0618280" lon="-3.1762770">
        <ele>549.3</ele>
        <time>2018-10-21T09:49:41Z</time>
      </trkpt>
      <trkpt lat="43.0618730" lon="-3.1762850">
        <ele>549.3</ele>
        <time>2018-10-21T09:49:42Z</time>
      </trkpt>
      <trkpt lat="43.0619180" lon="-3.1762950">
        <ele>550.2</ele>
        <time>2018-10-21T09:49:43Z</time>
      </trkpt>
      <trkpt lat="43.0619630" lon="-3.1763030">
        <ele>550.2</ele>
        <time>2018-10-21T09:49:44Z</time>
      </trkpt>
      <trkpt lat="43.0620080" lon="-3.1763150">
        <ele>550.2</ele>
        <time>2018-10-21T09:49:45Z</time>
      </trkpt>
      <trkpt lat="43.0620530" lon="-3.1763250">
        <ele>550.2</ele>
        <time>2018-10-21T09:49:46Z</time>
      </trkpt>
      <trkpt lat="43.0620970" lon="-3.1763320">
        <ele>550.2</ele>
        <time>2018-10-21T09:49:47Z</time>
      </trkpt>
      <trkpt lat="43.0621420" lon="-3.1763370">
        <ele>550.2</ele>
        <time>2018-10-21T09:49:48Z</time>
      </trkpt>
      <trkpt lat="43.0621870" lon="-3.1763430">
        <ele>550.2</ele>
        <time>2018-10-21T09:49:49Z</time>
      </trkpt>
      <trkpt lat="43.0622320" lon="-3.1763530">
        <ele>550.2</ele>
        <time>2018-10-21T09:49:50Z</time>
      </trkpt>
      <trkpt lat="43.0622770" lon="-3.1763600">
        <ele>551.2</ele>
        <time>2018-10-21T09:49:51Z</time>
      </trkpt>
      <trkpt lat="43.0623220" lon="-3.1763670">
        <ele>551.2</ele>
        <time>2018-10-21T09:49:52Z</time>
      </trkpt>
      <trkpt lat="43.0623670" lon="-3.1763770">
        <ele>551.2</ele>
        <time>2018-10-21T09:49:53Z</time>
      </trkpt>
      <trkpt lat="43.0624100" lon="-3.1763870">
        <ele>551.2</ele>
        <time>2018-10-21T09:49:54Z</time>
      </trkpt>
      <trkpt lat="43.0624550" lon="-3.1763950">
        <ele>551.2</ele>
        <time>2018-10-21T09:49:55Z</time>
      </trkpt>
      <trkpt lat="43.0625000" lon="-3.1764030">
        <ele>551.2</ele>
        <time>2018-10-21T09:49:56Z</time>
      </trkpt>
      <trkpt lat="43.0625450" lon="-3.1764120">
        <ele>551.2</ele>
        <time>2018-10-21T09:49:57Z</time>
      </trkpt>
      <trkpt lat="43.0625880" lon="-3.1764200">
        <ele>551.2</ele>
        <time>2018-10-21T09:49:58Z</time>
      </trkpt>
      <trkpt lat="43.0626330" lon="-3.1764280">
        <ele>551.2</ele>
        <time>2018-10-21T09:49:59Z</time>
      </trkpt>
      <trkpt lat="43.0626800" lon="-3.1764370">
        <ele>551.2</ele>
        <time>2018-10-21T09:50:00Z</time>
      </trkpt>
      <trkpt lat="43.0627270" lon="-3.1764450">
        <ele>551.2</ele>
        <time>2018-10-21T09:50:01Z</time>
      </trkpt>
      <trkpt lat="43.0627750" lon="-3.1764530">
        <ele>551.2</ele>
        <time>2018-10-21T09:50:02Z</time>
      </trkpt>
      <trkpt lat="43.0628230" lon="-3.1764620">
        <ele>551.2</ele>
        <time>2018-10-21T09:50:03Z</time>
      </trkpt>
      <trkpt lat="43.0628750" lon="-3.1764700">
        <ele>551.2</ele>
        <time>2018-10-21T09:50:04Z</time>
      </trkpt>
      <trkpt lat="43.0629270" lon="-3.1764800">
        <ele>551.2</ele>
        <time>2018-10-21T09:50:05Z</time>
      </trkpt>
      <trkpt lat="43.0629780" lon="-3.1764900">
        <ele>551.2</ele>
        <time>2018-10-21T09:50:06Z</time>
      </trkpt>
      <trkpt lat="43.0630320" lon="-3.1765000">
        <ele>551.2</ele>
        <time>2018-10-21T09:50:07Z</time>
      </trkpt>
      <trkpt lat="43.0630850" lon="-3.1765100">
        <ele>551.2</ele>
        <time>2018-10-21T09:50:08Z</time>
      </trkpt>
      <trkpt lat="43.0631400" lon="-3.1765200">
        <ele>552.3</ele>
        <time>2018-10-21T09:50:09Z</time>
      </trkpt>
      <trkpt lat="43.0631950" lon="-3.1765300">
        <ele>552.3</ele>
        <time>2018-10-21T09:50:10Z</time>
      </trkpt>
      <trkpt lat="43.0632520" lon="-3.1765380">
        <ele>552.3</ele>
        <time>2018-10-21T09:50:11Z</time>
      </trkpt>
      <trkpt lat="43.0633080" lon="-3.1765500">
        <ele>552.3</ele>
        <time>2018-10-21T09:50:12Z</time>
      </trkpt>
      <trkpt lat="43.0633630" lon="-3.1765600">
        <ele>552.3</ele>
        <time>2018-10-21T09:50:13Z</time>
      </trkpt>
      <trkpt lat="43.0634200" lon="-3.1765700">
        <ele>552.3</ele>
        <time>2018-10-21T09:50:14Z</time>
      </trkpt>
      <trkpt lat="43.0634800" lon="-3.1765780">
        <ele>551.2</ele>
        <time>2018-10-21T09:50:15Z</time>
      </trkpt>
      <trkpt lat="43.0635370" lon="-3.1765900">
        <ele>551.2</ele>
        <time>2018-10-21T09:50:16Z</time>
      </trkpt>
      <trkpt lat="43.0635930" lon="-3.1766000">
        <ele>551.2</ele>
        <time>2018-10-21T09:50:17Z</time>
      </trkpt>
      <trkpt lat="43.0636500" lon="-3.1766100">
        <ele>551.2</ele>
        <time>2018-10-21T09:50:18Z</time>
      </trkpt>
      <trkpt lat="43.0637070" lon="-3.1766200">
        <ele>551.2</ele>
        <time>2018-10-21T09:50:19Z</time>
      </trkpt>
      <trkpt lat="43.0637630" lon="-3.1766320">
        <ele>551.2</ele>
        <time>2018-10-21T09:50:20Z</time>
      </trkpt>
      <trkpt lat="43.0638200" lon="-3.1766430">
        <ele>551.2</ele>
        <time>2018-10-21T09:50:21Z</time>
      </trkpt>
      <trkpt lat="43.0638780" lon="-3.1766580">
        <ele>551.2</ele>
        <time>2018-10-21T09:50:22Z</time>
      </trkpt>
      <trkpt lat="43.0639380" lon="-3.1766730">
        <ele>551.2</ele>
        <time>2018-10-21T09:50:23Z</time>
      </trkpt>
      <trkpt lat="43.0639970" lon="-3.1766880">
        <ele>551.2</ele>
        <time>2018-10-21T09:50:24Z</time>
      </trkpt>
      <trkpt lat="43.0640580" lon="-3.1767080">
        <ele>552.3</ele>
        <time>2018-10-21T09:50:25Z</time>
      </trkpt>
      <trkpt lat="43.0641200" lon="-3.1767300">
        <ele>552.3</ele>
        <time>2018-10-21T09:50:26Z</time>
      </trkpt>
      <trkpt lat="43.0641830" lon="-3.1767500">
        <ele>552.3</ele>
        <time>2018-10-21T09:50:27Z</time>
      </trkpt>
      <trkpt lat="43.0642480" lon="-3.1767680">
        <ele>552.3</ele>
        <time>2018-10-21T09:50:28Z</time>
      </trkpt>
      <trkpt lat="43.0643130" lon="-3.1767900">
        <ele>551.2</ele>
        <time>2018-10-21T09:50:29Z</time>
      </trkpt>
      <trkpt lat="43.0643780" lon="-3.1768180">
        <ele>551.2</ele>
        <time>2018-10-21T09:50:30Z</time>
      </trkpt>
      <trkpt lat="43.0644450" lon="-3.1768420">
        <ele>550.2</ele>
        <time>2018-10-21T09:50:31Z</time>
      </trkpt>
      <trkpt lat="43.0645150" lon="-3.1768650">
        <ele>550.2</ele>
        <time>2018-10-21T09:50:32Z</time>
      </trkpt>
      <trkpt lat="43.0645830" lon="-3.1768880">
        <ele>549.3</ele>
        <time>2018-10-21T09:50:33Z</time>
      </trkpt>
      <trkpt lat="43.0646550" lon="-3.1769120">
        <ele>549.3</ele>
        <time>2018-10-21T09:50:34Z</time>
      </trkpt>
      <trkpt lat="43.0647250" lon="-3.1769350">
        <ele>548.2</ele>
        <time>2018-10-21T09:50:35Z</time>
      </trkpt>
      <trkpt lat="43.0647970" lon="-3.1769600">
        <ele>548.2</ele>
        <time>2018-10-21T09:50:36Z</time>
      </trkpt>
      <trkpt lat="43.0648680" lon="-3.1769830">
        <ele>548.2</ele>
        <time>2018-10-21T09:50:37Z</time>
      </trkpt>
      <trkpt lat="43.0649400" lon="-3.1770020">
        <ele>548.2</ele>
        <time>2018-10-21T09:50:38Z</time>
      </trkpt>
      <trkpt lat="43.0650130" lon="-3.1770150">
        <ele>548.2</ele>
        <time>2018-10-21T09:50:39Z</time>
      </trkpt>
      <trkpt lat="43.0650870" lon="-3.1770300">
        <ele>548.2</ele>
        <time>2018-10-21T09:50:40Z</time>
      </trkpt>
      <trkpt lat="43.0651630" lon="-3.1770380">
        <ele>548.2</ele>
        <time>2018-10-21T09:50:41Z</time>
      </trkpt>
      <trkpt lat="43.0652380" lon="-3.1770380">
        <ele>548.2</ele>
        <time>2018-10-21T09:50:42Z</time>
      </trkpt>
      <trkpt lat="43.0653180" lon="-3.1770380">
        <ele>546.2</ele>
        <time>2018-10-21T09:50:43Z</time>
      </trkpt>
      <trkpt lat="43.0653980" lon="-3.1770330">
        <ele>546.2</ele>
        <time>2018-10-21T09:50:44Z</time>
      </trkpt>
      <trkpt lat="43.0654800" lon="-3.1770220">
        <ele>546.2</ele>
        <time>2018-10-21T09:50:45Z</time>
      </trkpt>
      <trkpt lat="43.0655630" lon="-3.1770070">
        <ele>546.2</ele>
        <time>2018-10-21T09:50:46Z</time>
      </trkpt>
      <trkpt lat="43.0656470" lon="-3.1769870">
        <ele>545.3</ele>
        <time>2018-10-21T09:50:47Z</time>
      </trkpt>
      <trkpt lat="43.0657320" lon="-3.1769600">
        <ele>545.3</ele>
        <time>2018-10-21T09:50:48Z</time>
      </trkpt>
      <trkpt lat="43.0658170" lon="-3.1769280">
        <ele>545.3</ele>
        <time>2018-10-21T09:50:49Z</time>
      </trkpt>
      <trkpt lat="43.0659030" lon="-3.1768920">
        <ele>545.3</ele>
        <time>2018-10-21T09:50:50Z</time>
      </trkpt>
      <trkpt lat="43.0659880" lon="-3.1768500">
        <ele>545.3</ele>
        <time>2018-10-21T09:50:51Z</time>
      </trkpt>
      <trkpt lat="43.0660750" lon="-3.1768100">
        <ele>545.3</ele>
        <time>2018-10-21T09:50:52Z</time>
      </trkpt>
      <trkpt lat="43.0661600" lon="-3.1767650">
        <ele>541.2</ele>
        <time>2018-10-21T09:50:53Z</time>
      </trkpt>
      <trkpt lat="43.0662470" lon="-3.1767200">
        <ele>541.2</ele>
        <time>2018-10-21T09:50:54Z</time>
      </trkpt>
      <trkpt lat="43.0663350" lon="-3.1766730">
        <ele>540.3</ele>
        <time>2018-10-21T09:50:55Z</time>
      </trkpt>
      <trkpt lat="43.0664220" lon="-3.1766230">
        <ele>540.3</ele>
        <time>2018-10-21T09:50:56Z</time>
      </trkpt>
      <trkpt lat="43.0665100" lon="-3.1765750">
        <ele>539.2</ele>
        <time>2018-10-21T09:50:57Z</time>
      </trkpt>
      <trkpt lat="43.0666000" lon="-3.1765250">
        <ele>539.2</ele>
        <time>2018-10-21T09:50:58Z</time>
      </trkpt>
      <trkpt lat="43.0666880" lon="-3.1764720">
        <ele>538.3</ele>
        <time>2018-10-21T09:50:59Z</time>
      </trkpt>
      <trkpt lat="43.0667780" lon="-3.1764150">
        <ele>538.3</ele>
        <time>2018-10-21T09:51:00Z</time>
      </trkpt>
      <trkpt lat="43.0668680" lon="-3.1763550">
        <ele>536.3</ele>
        <time>2018-10-21T09:51:01Z</time>
      </trkpt>
      <trkpt lat="43.0669530" lon="-3.1762830">
        <ele>536.3</ele>
        <time>2018-10-21T09:51:02Z</time>
      </trkpt>
      <trkpt lat="43.0670350" lon="-3.1762030">
        <ele>535.2</ele>
        <time>2018-10-21T09:51:03Z</time>
      </trkpt>
      <trkpt lat="43.0671100" lon="-3.1761130">
        <ele>535.2</ele>
        <time>2018-10-21T09:51:04Z</time>
      </trkpt>
      <trkpt lat="43.0671850" lon="-3.1760200">
        <ele>534.2</ele>
        <time>2018-10-21T09:51:05Z</time>
      </trkpt>
      <trkpt lat="43.0672600" lon="-3.1759250">
        <ele>534.2</ele>
        <time>2018-10-21T09:51:06Z</time>
      </trkpt>
      <trkpt lat="43.0673350" lon="-3.1758300">
        <ele>533.3</ele>
        <time>2018-10-21T09:51:07Z</time>
      </trkpt>
      <trkpt lat="43.0674100" lon="-3.1757330">
        <ele>533.3</ele>
        <time>2018-10-21T09:51:08Z</time>
      </trkpt>
      <trkpt lat="43.0674820" lon="-3.1756370">
        <ele>533.3</ele>
        <time>2018-10-21T09:51:09Z</time>
      </trkpt>
      <trkpt lat="43.0675570" lon="-3.1755420">
        <ele>533.3</ele>
        <time>2018-10-21T09:51:10Z</time>
      </trkpt>
      <trkpt lat="43.0676320" lon="-3.1754430">
        <ele>531.3</ele>
        <time>2018-10-21T09:51:11Z</time>
      </trkpt>
      <trkpt lat="43.0677100" lon="-3.1753470">
        <ele>531.3</ele>
        <time>2018-10-21T09:51:12Z</time>
      </trkpt>
      <trkpt lat="43.0677870" lon="-3.1752480">
        <ele>530.2</ele>
        <time>2018-10-21T09:51:13Z</time>
      </trkpt>
      <trkpt lat="43.0678630" lon="-3.1751500">
        <ele>530.2</ele>
        <time>2018-10-21T09:51:14Z</time>
      </trkpt>
      <trkpt lat="43.0679400" lon="-3.1750530">
        <ele>529.3</ele>
        <time>2018-10-21T09:51:15Z</time>
      </trkpt>
      <trkpt lat="43.0680170" lon="-3.1749600">
        <ele>529.3</ele>
        <time>2018-10-21T09:51:16Z</time>
      </trkpt>
      <trkpt lat="43.0680930" lon="-3.1748700">
        <ele>528.2</ele>
        <time>2018-10-21T09:51:17Z</time>
      </trkpt>
      <trkpt lat="43.0681720" lon="-3.1747800">
        <ele>528.2</ele>
        <time>2018-10-21T09:51:18Z</time>
      </trkpt>
      <trkpt lat="43.0682520" lon="-3.1746930">
        <ele>528.2</ele>
        <time>2018-10-21T09:51:19Z</time>
      </trkpt>
      <trkpt lat="43.0683370" lon="-3.1746150">
        <ele>528.2</ele>
        <time>2018-10-21T09:51:20Z</time>
      </trkpt>
      <trkpt lat="43.0684230" lon="-3.1745400">
        <ele>526.2</ele>
        <time>2018-10-21T09:51:21Z</time>
      </trkpt>
      <trkpt lat="43.0685130" lon="-3.1744730">
        <ele>526.2</ele>
        <time>2018-10-21T09:51:22Z</time>
      </trkpt>
      <trkpt lat="43.0686070" lon="-3.1744130">
        <ele>525.2</ele>
        <time>2018-10-21T09:51:23Z</time>
      </trkpt>
      <trkpt lat="43.0687030" lon="-3.1743630">
        <ele>525.2</ele>
        <time>2018-10-21T09:51:24Z</time>
      </trkpt>
      <trkpt lat="43.0688050" lon="-3.1743270">
        <ele>524.3</ele>
        <time>2018-10-21T09:51:25Z</time>
      </trkpt>
      <trkpt lat="43.0689070" lon="-3.1742970">
        <ele>524.3</ele>
        <time>2018-10-21T09:51:26Z</time>
      </trkpt>
      <trkpt lat="43.0690080" lon="-3.1742730">
        <ele>524.3</ele>
        <time>2018-10-21T09:51:27Z</time>
      </trkpt>
      <trkpt lat="43.0691120" lon="-3.1742550">
        <ele>524.3</ele>
        <time>2018-10-21T09:51:28Z</time>
      </trkpt>
      <trkpt lat="43.0692150" lon="-3.1742320">
        <ele>522.3</ele>
        <time>2018-10-21T09:51:29Z</time>
      </trkpt>
      <trkpt lat="43.0693180" lon="-3.1742080">
        <ele>522.3</ele>
        <time>2018-10-21T09:51:30Z</time>
      </trkpt>
      <trkpt lat="43.0694220" lon="-3.1741800">
        <ele>521.2</ele>
        <time>2018-10-21T09:51:31Z</time>
      </trkpt>
      <trkpt lat="43.0695250" lon="-3.1741420">
        <ele>521.2</ele>
        <time>2018-10-21T09:51:32Z</time>
      </trkpt>
      <trkpt lat="43.0696230" lon="-3.1740920">
        <ele>521.2</ele>
        <time>2018-10-21T09:51:33Z</time>
      </trkpt>
      <trkpt lat="43.0697130" lon="-3.1740250">
        <ele>521.2</ele>
        <time>2018-10-21T09:51:34Z</time>
      </trkpt>
      <trkpt lat="43.0697850" lon="-3.1739400">
        <ele>520.3</ele>
        <time>2018-10-21T09:51:35Z</time>
      </trkpt>
      <trkpt lat="43.0698350" lon="-3.1738370">
        <ele>520.3</ele>
        <time>2018-10-21T09:51:36Z</time>
      </trkpt>
      <trkpt lat="43.0698530" lon="-3.1737200">
        <ele>519.2</ele>
        <time>2018-10-21T09:51:37Z</time>
      </trkpt>
      <trkpt lat="43.0698400" lon="-3.1736050">
        <ele>519.2</ele>
        <time>2018-10-21T09:51:38Z</time>
      </trkpt>
      <trkpt lat="43.0698100" lon="-3.1734970">
        <ele>518.2</ele>
        <time>2018-10-21T09:51:39Z</time>
      </trkpt>
      <trkpt lat="43.0697880" lon="-3.1733820">
        <ele>518.2</ele>
        <time>2018-10-21T09:51:40Z</time>
      </trkpt>
      <trkpt lat="43.0697830" lon="-3.1732650">
        <ele>517.3</ele>
        <time>2018-10-21T09:51:41Z</time>
      </trkpt>
      <trkpt lat="43.0697880" lon="-3.1731500">
        <ele>517.3</ele>
        <time>2018-10-21T09:51:42Z</time>
      </trkpt>
      <trkpt lat="43.0698020" lon="-3.1730370">
        <ele>517.3</ele>
        <time>2018-10-21T09:51:43Z</time>
      </trkpt>
      <trkpt lat="43.0698250" lon="-3.1729300">
        <ele>517.3</ele>
        <time>2018-10-21T09:51:44Z</time>
      </trkpt>
      <trkpt lat="43.0698620" lon="-3.1728270">
        <ele>516.2</ele>
        <time>2018-10-21T09:51:45Z</time>
      </trkpt>
      <trkpt lat="43.0699130" lon="-3.1727280">
        <ele>516.2</ele>
        <time>2018-10-21T09:51:46Z</time>
      </trkpt>
      <trkpt lat="43.0699680" lon="-3.1726330">
        <ele>515.3</ele>
        <time>2018-10-21T09:51:47Z</time>
      </trkpt>
      <trkpt lat="43.0700170" lon="-3.1725270">
        <ele>515.3</ele>
        <time>2018-10-21T09:51:48Z</time>
      </trkpt>
      <trkpt lat="43.0700530" lon="-3.1724120">
        <ele>514.2</ele>
        <time>2018-10-21T09:51:49Z</time>
      </trkpt>
      <trkpt lat="43.0700900" lon="-3.1722930">
        <ele>514.2</ele>
        <time>2018-10-21T09:51:50Z</time>
      </trkpt>
      <trkpt lat="43.0701380" lon="-3.1721830">
        <ele>514.2</ele>
        <time>2018-10-21T09:51:51Z</time>
      </trkpt>
      <trkpt lat="43.0701980" lon="-3.1720870">
        <ele>514.2</ele>
        <time>2018-10-21T09:51:52Z</time>
      </trkpt>
      <trkpt lat="43.0702700" lon="-3.1720020">
        <ele>513.3</ele>
        <time>2018-10-21T09:51:53Z</time>
      </trkpt>
      <trkpt lat="43.0703450" lon="-3.1719250">
        <ele>513.3</ele>
        <time>2018-10-21T09:51:54Z</time>
      </trkpt>
      <trkpt lat="43.0704220" lon="-3.1718450">
        <ele>512.2</ele>
        <time>2018-10-21T09:51:55Z</time>
      </trkpt>
      <trkpt lat="43.0704980" lon="-3.1717670">
        <ele>512.2</ele>
        <time>2018-10-21T09:51:56Z</time>
      </trkpt>
      <trkpt lat="43.0705780" lon="-3.1716900">
        <ele>511.3</ele>
        <time>2018-10-21T09:51:57Z</time>
      </trkpt>
      <trkpt lat="43.0706650" lon="-3.1716220">
        <ele>511.3</ele>
        <time>2018-10-21T09:51:58Z</time>
      </trkpt>
      <trkpt lat="43.0707570" lon="-3.1715670">
        <ele>510.2</ele>
        <time>2018-10-21T09:51:59Z</time>
      </trkpt>
      <trkpt lat="43.0708550" lon="-3.1715220">
        <ele>510.2</ele>
        <time>2018-10-21T09:52:00Z</time>
      </trkpt>
      <trkpt lat="43.0709530" lon="-3.1714680">
        <ele>509.2</ele>
        <time>2018-10-21T09:52:01Z</time>
      </trkpt>
      <trkpt lat="43.0710420" lon="-3.1714000">
        <ele>509.2</ele>
        <time>2018-10-21T09:52:02Z</time>
      </trkpt>
      <trkpt lat="43.0711220" lon="-3.1713180">
        <ele>509.2</ele>
        <time>2018-10-21T09:52:03Z</time>
      </trkpt>
      <trkpt lat="43.0711820" lon="-3.1712130">
        <ele>509.2</ele>
        <time>2018-10-21T09:52:04Z</time>
      </trkpt>
      <trkpt lat="43.0712100" lon="-3.1710880">
        <ele>509.2</ele>
        <time>2018-10-21T09:52:05Z</time>
      </trkpt>
      <trkpt lat="43.0712130" lon="-3.1709550">
        <ele>509.2</ele>
        <time>2018-10-21T09:52:06Z</time>
      </trkpt>
      <trkpt lat="43.0712180" lon="-3.1708220">
        <ele>503.2</ele>
        <time>2018-10-21T09:52:07Z</time>
      </trkpt>
      <trkpt lat="43.0712470" lon="-3.1706980">
        <ele>503.2</ele>
        <time>2018-10-21T09:52:08Z</time>
      </trkpt>
      <trkpt lat="43.0713030" lon="-3.1705900">
        <ele>502.2</ele>
        <time>2018-10-21T09:52:09Z</time>
      </trkpt>
      <trkpt lat="43.0713770" lon="-3.1705000">
        <ele>502.2</ele>
        <time>2018-10-21T09:52:10Z</time>
      </trkpt>
      <trkpt lat="43.0714520" lon="-3.1704070">
        <ele>502.2</ele>
        <time>2018-10-21T09:52:11Z</time>
      </trkpt>
      <trkpt lat="43.0715170" lon="-3.1702950">
        <ele>502.2</ele>
        <time>2018-10-21T09:52:12Z</time>
      </trkpt>
      <trkpt lat="43.0715650" lon="-3.1701650">
        <ele>502.2</ele>
        <time>2018-10-21T09:52:13Z</time>
      </trkpt>
      <trkpt lat="43.0715950" lon="-3.1700270">
        <ele>502.2</ele>
        <time>2018-10-21T09:52:14Z</time>
      </trkpt>
      <trkpt lat="43.0716280" lon="-3.1699000">
        <ele>497.3</ele>
        <time>2018-10-21T09:52:15Z</time>
      </trkpt>
      <trkpt lat="43.0716900" lon="-3.1697970">
        <ele>497.3</ele>
        <time>2018-10-21T09:52:16Z</time>
      </trkpt>
      <trkpt lat="43.0717730" lon="-3.1697270">
        <ele>496.2</ele>
        <time>2018-10-21T09:52:17Z</time>
      </trkpt>
      <trkpt lat="43.0718670" lon="-3.1696920">
        <ele>496.2</ele>
        <time>2018-10-21T09:52:18Z</time>
      </trkpt>
      <trkpt lat="43.0719620" lon="-3.1696820">
        <ele>495.3</ele>
        <time>2018-10-21T09:52:19Z</time>
      </trkpt>
      <trkpt lat="43.0720580" lon="-3.1696800">
        <ele>495.3</ele>
        <time>2018-10-21T09:52:20Z</time>
      </trkpt>
      <trkpt lat="43.0721530" lon="-3.1696780">
        <ele>495.3</ele>
        <time>2018-10-21T09:52:21Z</time>
      </trkpt>
      <trkpt lat="43.0722470" lon="-3.1696770">
        <ele>495.3</ele>
        <time>2018-10-21T09:52:22Z</time>
      </trkpt>
      <trkpt lat="43.0723350" lon="-3.1696770">
        <ele>495.3</ele>
        <time>2018-10-21T09:52:23Z</time>
      </trkpt>
      <trkpt lat="43.0724220" lon="-3.1696770">
        <ele>495.3</ele>
        <time>2018-10-21T09:52:24Z</time>
      </trkpt>
      <trkpt lat="43.0725080" lon="-3.1696770">
        <ele>494.2</ele>
        <time>2018-10-21T09:52:25Z</time>
      </trkpt>
      <trkpt lat="43.0725980" lon="-3.1696800">
        <ele>494.2</ele>
        <time>2018-10-21T09:52:26Z</time>
      </trkpt>
      <trkpt lat="43.0726850" lon="-3.1696850">
        <ele>493.2</ele>
        <time>2018-10-21T09:52:27Z</time>
      </trkpt>
      <trkpt lat="43.0727780" lon="-3.1696900">
        <ele>493.2</ele>
        <time>2018-10-21T09:52:28Z</time>
      </trkpt>
      <trkpt lat="43.0728680" lon="-3.1696970">
        <ele>489.2</ele>
        <time>2018-10-21T09:52:29Z</time>
      </trkpt>
      <trkpt lat="43.0729600" lon="-3.1697000">
        <ele>489.2</ele>
        <time>2018-10-21T09:52:30Z</time>
      </trkpt>
      <trkpt lat="43.0730530" lon="-3.1697000">
        <ele>488.3</ele>
        <time>2018-10-21T09:52:31Z</time>
      </trkpt>
      <trkpt lat="43.0731450" lon="-3.1697000">
        <ele>488.3</ele>
        <time>2018-10-21T09:52:32Z</time>
      </trkpt>
      <trkpt lat="43.0732350" lon="-3.1696970">
        <ele>488.3</ele>
        <time>2018-10-21T09:52:33Z</time>
      </trkpt>
      <trkpt lat="43.0733200" lon="-3.1696900">
        <ele>488.3</ele>
        <time>2018-10-21T09:52:34Z</time>
      </trkpt>
      <trkpt lat="43.0734030" lon="-3.1696820">
        <ele>486.3</ele>
        <time>2018-10-21T09:52:35Z</time>
      </trkpt>
      <trkpt lat="43.0734850" lon="-3.1696700">
        <ele>486.3</ele>
        <time>2018-10-21T09:52:36Z</time>
      </trkpt>
      <trkpt lat="43.0735600" lon="-3.1696500">
        <ele>485.2</ele>
        <time>2018-10-21T09:52:37Z</time>
      </trkpt>
      <trkpt lat="43.0736280" lon="-3.1696080">
        <ele>485.2</ele>
        <time>2018-10-21T09:52:38Z</time>
      </trkpt>
      <trkpt lat="43.0736800" lon="-3.1695430">
        <ele>483.3</ele>
        <time>2018-10-21T09:52:39Z</time>
      </trkpt>
      <trkpt lat="43.0737000" lon="-3.1694620">
        <ele>483.3</ele>
        <time>2018-10-21T09:52:40Z</time>
      </trkpt>
      <trkpt lat="43.0736950" lon="-3.1693780">
        <ele>482.2</ele>
        <time>2018-10-21T09:52:41Z</time>
      </trkpt>
      <trkpt lat="43.0736720" lon="-3.1692930">
        <ele>482.2</ele>
        <time>2018-10-21T09:52:42Z</time>
      </trkpt>
      <trkpt lat="43.0736370" lon="-3.1692070">
        <ele>482.2</ele>
        <time>2018-10-21T09:52:43Z</time>
      </trkpt>
      <trkpt lat="43.0735970" lon="-3.1691200">
        <ele>482.2</ele>
        <time>2018-10-21T09:52:44Z</time>
      </trkpt>
      <trkpt lat="43.0735530" lon="-3.1690320">
        <ele>481.3</ele>
        <time>2018-10-21T09:52:45Z</time>
      </trkpt>
      <trkpt lat="43.0735020" lon="-3.1689500">
        <ele>481.3</ele>
        <time>2018-10-21T09:52:46Z</time>
      </trkpt>
      <trkpt lat="43.0734480" lon="-3.1688700">
        <ele>480.2</ele>
        <time>2018-10-21T09:52:47Z</time>
      </trkpt>
      <trkpt lat="43.0733920" lon="-3.1687930">
        <ele>480.2</ele>
        <time>2018-10-21T09:52:48Z</time>
      </trkpt>
      <trkpt lat="43.0733300" lon="-3.1687250">
        <ele>479.3</ele>
        <time>2018-10-21T09:52:49Z</time>
      </trkpt>
      <trkpt lat="43.0732670" lon="-3.1686570">
        <ele>479.3</ele>
        <time>2018-10-21T09:52:50Z</time>
      </trkpt>
      <trkpt lat="43.0732050" lon="-3.1685880">
        <ele>479.3</ele>
        <time>2018-10-21T09:52:51Z</time>
      </trkpt>
      <trkpt lat="43.0731470" lon="-3.1685120">
        <ele>479.3</ele>
        <time>2018-10-21T09:52:52Z</time>
      </trkpt>
      <trkpt lat="43.0730920" lon="-3.1684320">
        <ele>478.2</ele>
        <time>2018-10-21T09:52:53Z</time>
      </trkpt>
      <trkpt lat="43.0730420" lon="-3.1683430">
        <ele>478.2</ele>
        <time>2018-10-21T09:52:54Z</time>
      </trkpt>
      <trkpt lat="43.0730030" lon="-3.1682470">
        <ele>478.2</ele>
        <time>2018-10-21T09:52:55Z</time>
      </trkpt>
      <trkpt lat="43.0729820" lon="-3.1681380">
        <ele>478.2</ele>
        <time>2018-10-21T09:52:56Z</time>
      </trkpt>
      <trkpt lat="43.0729820" lon="-3.1680280">
        <ele>477.2</ele>
        <time>2018-10-21T09:52:57Z</time>
      </trkpt>
      <trkpt lat="43.0729920" lon="-3.1679180">
        <ele>477.2</ele>
        <time>2018-10-21T09:52:58Z</time>
      </trkpt>
      <trkpt lat="43.0730050" lon="-3.1678050">
        <ele>477.2</ele>
        <time>2018-10-21T09:52:59Z</time>
      </trkpt>
      <trkpt lat="43.0730050" lon="-3.1676880">
        <ele>477.2</ele>
        <time>2018-10-21T09:53:00Z</time>
      </trkpt>
      <trkpt lat="43.0729880" lon="-3.1675680">
        <ele>475.2</ele>
        <time>2018-10-21T09:53:01Z</time>
      </trkpt>
      <trkpt lat="43.0729580" lon="-3.1674530">
        <ele>475.2</ele>
        <time>2018-10-21T09:53:02Z</time>
      </trkpt>
      <trkpt lat="43.0729230" lon="-3.1673400">
        <ele>474.3</ele>
        <time>2018-10-21T09:53:03Z</time>
      </trkpt>
      <trkpt lat="43.0728870" lon="-3.1672230">
        <ele>474.3</ele>
        <time>2018-10-21T09:53:04Z</time>
      </trkpt>
      <trkpt lat="43.0728520" lon="-3.1671080">
        <ele>474.3</ele>
        <time>2018-10-21T09:53:05Z</time>
      </trkpt>
      <trkpt lat="43.0728180" lon="-3.1669950">
        <ele>474.3</ele>
        <time>2018-10-21T09:53:06Z</time>
      </trkpt>
      <trkpt lat="43.0728000" lon="-3.1668800">
        <ele>474.3</ele>
        <time>2018-10-21T09:53:07Z</time>
      </trkpt>
      <trkpt lat="43.0728020" lon="-3.1667630">
        <ele>474.3</ele>
        <time>2018-10-21T09:53:08Z</time>
      </trkpt>
      <trkpt lat="43.0728220" lon="-3.1666580">
        <ele>474.3</ele>
        <time>2018-10-21T09:53:09Z</time>
      </trkpt>
      <trkpt lat="43.0728680" lon="-3.1665720">
        <ele>474.3</ele>
        <time>2018-10-21T09:53:10Z</time>
      </trkpt>
      <trkpt lat="43.0729350" lon="-3.1665100">
        <ele>470.3</ele>
        <time>2018-10-21T09:53:11Z</time>
      </trkpt>
      <trkpt lat="43.0730080" lon="-3.1664620">
        <ele>470.3</ele>
        <time>2018-10-21T09:53:12Z</time>
      </trkpt>
      <trkpt lat="43.0730850" lon="-3.1664150">
        <ele>470.3</ele>
        <time>2018-10-21T09:53:13Z</time>
      </trkpt>
      <trkpt lat="43.0731650" lon="-3.1663670">
        <ele>470.3</ele>
        <time>2018-10-21T09:53:14Z</time>
      </trkpt>
      <trkpt lat="43.0732430" lon="-3.1663080">
        <ele>470.3</ele>
        <time>2018-10-21T09:53:15Z</time>
      </trkpt>
      <trkpt lat="43.0733180" lon="-3.1662430">
        <ele>470.3</ele>
        <time>2018-10-21T09:53:16Z</time>
      </trkpt>
      <trkpt lat="43.0734000" lon="-3.1661950">
        <ele>470.3</ele>
        <time>2018-10-21T09:53:17Z</time>
      </trkpt>
      <trkpt lat="43.0734870" lon="-3.1661720">
        <ele>470.3</ele>
        <time>2018-10-21T09:53:18Z</time>
      </trkpt>
      <trkpt lat="43.0735750" lon="-3.1661800">
        <ele>470.3</ele>
        <time>2018-10-21T09:53:19Z</time>
      </trkpt>
      <trkpt lat="43.0736600" lon="-3.1662170">
        <ele>470.3</ele>
        <time>2018-10-21T09:53:20Z</time>
      </trkpt>
      <trkpt lat="43.0737470" lon="-3.1662680">
        <ele>466.2</ele>
        <time>2018-10-21T09:53:21Z</time>
      </trkpt>
      <trkpt lat="43.0738350" lon="-3.1663320">
        <ele>466.2</ele>
        <time>2018-10-21T09:53:22Z</time>
      </trkpt>
      <trkpt lat="43.0739300" lon="-3.1663920">
        <ele>464.2</ele>
        <time>2018-10-21T09:53:23Z</time>
      </trkpt>
      <trkpt lat="43.0740300" lon="-3.1664250">
        <ele>464.2</ele>
        <time>2018-10-21T09:53:24Z</time>
      </trkpt>
      <trkpt lat="43.0741350" lon="-3.1664480">
        <ele>463.3</ele>
        <time>2018-10-21T09:53:25Z</time>
      </trkpt>
      <trkpt lat="43.0742420" lon="-3.1664620">
        <ele>463.3</ele>
        <time>2018-10-21T09:53:26Z</time>
      </trkpt>
      <trkpt lat="43.0743520" lon="-3.1664730">
        <ele>462.2</ele>
        <time>2018-10-21T09:53:27Z</time>
      </trkpt>
      <trkpt lat="43.0744620" lon="-3.1664900">
        <ele>462.2</ele>
        <time>2018-10-21T09:53:28Z</time>
      </trkpt>
      <trkpt lat="43.0745730" lon="-3.1665080">
        <ele>460.3</ele>
        <time>2018-10-21T09:53:29Z</time>
      </trkpt>
      <trkpt lat="43.0746820" lon="-3.1665400">
        <ele>460.3</ele>
        <time>2018-10-21T09:53:30Z</time>
      </trkpt>
      <trkpt lat="43.0747900" lon="-3.1665870">
        <ele>458.3</ele>
        <time>2018-10-21T09:53:31Z</time>
      </trkpt>
      <trkpt lat="43.0748950" lon="-3.1666420">
        <ele>458.3</ele>
        <time>2018-10-21T09:53:32Z</time>
      </trkpt>
      <trkpt lat="43.0750020" lon="-3.1666970">
        <ele>457.2</ele>
        <time>2018-10-21T09:53:33Z</time>
      </trkpt>
      <trkpt lat="43.0751100" lon="-3.1667450">
        <ele>457.2</ele>
        <time>2018-10-21T09:53:34Z</time>
      </trkpt>
      <trkpt lat="43.0752180" lon="-3.1667850">
        <ele>455.2</ele>
        <time>2018-10-21T09:53:35Z</time>
      </trkpt>
      <trkpt lat="43.0753280" lon="-3.1668120">
        <ele>455.2</ele>
        <time>2018-10-21T09:53:36Z</time>
      </trkpt>
      <trkpt lat="43.0754380" lon="-3.1668270">
        <ele>454.3</ele>
        <time>2018-10-21T09:53:37Z</time>
      </trkpt>
      <trkpt lat="43.0755500" lon="-3.1668250">
        <ele>454.3</ele>
        <time>2018-10-21T09:53:38Z</time>
      </trkpt>
      <trkpt lat="43.0756620" lon="-3.1668030">
        <ele>452.2</ele>
        <time>2018-10-21T09:53:39Z</time>
      </trkpt>
      <trkpt lat="43.0757720" lon="-3.1667670">
        <ele>452.2</ele>
        <time>2018-10-21T09:53:40Z</time>
      </trkpt>
      <trkpt lat="43.0758750" lon="-3.1667170">
        <ele>451.3</ele>
        <time>2018-10-21T09:53:41Z</time>
      </trkpt>
      <trkpt lat="43.0759730" lon="-3.1666670">
        <ele>451.3</ele>
        <time>2018-10-21T09:53:42Z</time>
      </trkpt>
      <trkpt lat="43.0760720" lon="-3.1666370">
        <ele>449.3</ele>
        <time>2018-10-21T09:53:43Z</time>
      </trkpt>
      <trkpt lat="43.0761750" lon="-3.1666350">
        <ele>449.3</ele>
        <time>2018-10-21T09:53:44Z</time>
      </trkpt>
      <trkpt lat="43.0762750" lon="-3.1666620">
        <ele>448.2</ele>
        <time>2018-10-21T09:53:45Z</time>
      </trkpt>
      <trkpt lat="43.0763750" lon="-3.1667050">
        <ele>448.2</ele>
        <time>2018-10-21T09:53:46Z</time>
      </trkpt>
      <trkpt lat="43.0764770" lon="-3.1667500">
        <ele>446.2</ele>
        <time>2018-10-21T09:53:47Z</time>
      </trkpt>
      <trkpt lat="43.0765830" lon="-3.1667880">
        <ele>446.2</ele>
        <time>2018-10-21T09:53:48Z</time>
      </trkpt>
      <trkpt lat="43.0766900" lon="-3.1668150">
        <ele>445.2</ele>
        <time>2018-10-21T09:53:49Z</time>
      </trkpt>
      <trkpt lat="43.0768020" lon="-3.1668270">
        <ele>445.2</ele>
        <time>2018-10-21T09:53:50Z</time>
      </trkpt>
      <trkpt lat="43.0769130" lon="-3.1668330">
        <ele>443.2</ele>
        <time>2018-10-21T09:53:51Z</time>
      </trkpt>
      <trkpt lat="43.0770270" lon="-3.1668370">
        <ele>443.2</ele>
        <time>2018-10-21T09:53:52Z</time>
      </trkpt>
      <trkpt lat="43.0771400" lon="-3.1668280">
        <ele>441.2</ele>
        <time>2018-10-21T09:53:53Z</time>
      </trkpt>
      <trkpt lat="43.0772530" lon="-3.1668100">
        <ele>441.2</ele>
        <time>2018-10-21T09:53:54Z</time>
      </trkpt>
      <trkpt lat="43.0773680" lon="-3.1667850">
        <ele>440.3</ele>
        <time>2018-10-21T09:53:55Z</time>
      </trkpt>
      <trkpt lat="43.0774820" lon="-3.1667580">
        <ele>440.3</ele>
        <time>2018-10-21T09:53:56Z</time>
      </trkpt>
      <trkpt lat="43.0775980" lon="-3.1667300">
        <ele>438.3</ele>
        <time>2018-10-21T09:53:57Z</time>
      </trkpt>
      <trkpt lat="43.0777150" lon="-3.1666970">
        <ele>438.3</ele>
        <time>2018-10-21T09:53:58Z</time>
      </trkpt>
      <trkpt lat="43.0778250" lon="-3.1666650">
        <ele>436.2</ele>
        <time>2018-10-21T09:53:59Z</time>
      </trkpt>
      <trkpt lat="43.0779270" lon="-3.1666330">
        <ele>436.2</ele>
        <time>2018-10-21T09:54:00Z</time>
      </trkpt>
      <trkpt lat="43.0780180" lon="-3.1665930">
        <ele>434.2</ele>
        <time>2018-10-21T09:54:01Z</time>
      </trkpt>
      <trkpt lat="43.0781000" lon="-3.1665280">
        <ele>434.2</ele>
        <time>2018-10-21T09:54:02Z</time>
      </trkpt>
      <trkpt lat="43.0781600" lon="-3.1664350">
        <ele>432.2</ele>
        <time>2018-10-21T09:54:03Z</time>
      </trkpt>
      <trkpt lat="43.0782000" lon="-3.1663230">
        <ele>432.2</ele>
        <time>2018-10-21T09:54:04Z</time>
      </trkpt>
      <trkpt lat="43.0782170" lon="-3.1662020">
        <ele>431.3</ele>
        <time>2018-10-21T09:54:05Z</time>
      </trkpt>
      <trkpt lat="43.0782100" lon="-3.1660730">
        <ele>431.3</ele>
        <time>2018-10-21T09:54:06Z</time>
      </trkpt>
      <trkpt lat="43.0781930" lon="-3.1659400">
        <ele>430.2</ele>
        <time>2018-10-21T09:54:07Z</time>
      </trkpt>
      <trkpt lat="43.0781680" lon="-3.1658070">
        <ele>430.2</ele>
        <time>2018-10-21T09:54:08Z</time>
      </trkpt>
      <trkpt lat="43.0781430" lon="-3.1656730">
        <ele>430.2</ele>
        <time>2018-10-21T09:54:09Z</time>
      </trkpt>
      <trkpt lat="43.0781330" lon="-3.1655420">
        <ele>430.2</ele>
        <time>2018-10-21T09:54:10Z</time>
      </trkpt>
      <trkpt lat="43.0781450" lon="-3.1654180">
        <ele>430.2</ele>
        <time>2018-10-21T09:54:11Z</time>
      </trkpt>
      <trkpt lat="43.0781920" lon="-3.1653170">
        <ele>430.2</ele>
        <time>2018-10-21T09:54:12Z</time>
      </trkpt>
      <trkpt lat="43.0782550" lon="-3.1652300">
        <ele>426.3</ele>
        <time>2018-10-21T09:54:13Z</time>
      </trkpt>
      <trkpt lat="43.0783330" lon="-3.1651650">
        <ele>426.3</ele>
        <time>2018-10-21T09:54:14Z</time>
      </trkpt>
      <trkpt lat="43.0784180" lon="-3.1651120">
        <ele>426.3</ele>
        <time>2018-10-21T09:54:15Z</time>
      </trkpt>
      <trkpt lat="43.0785070" lon="-3.1650650">
        <ele>426.3</ele>
        <time>2018-10-21T09:54:16Z</time>
      </trkpt>
      <trkpt lat="43.0785980" lon="-3.1650330">
        <ele>424.3</ele>
        <time>2018-10-21T09:54:17Z</time>
      </trkpt>
      <trkpt lat="43.0786950" lon="-3.1650220">
        <ele>424.3</ele>
        <time>2018-10-21T09:54:18Z</time>
      </trkpt>
      <trkpt lat="43.0787920" lon="-3.1650330">
        <ele>423.2</ele>
        <time>2018-10-21T09:54:19Z</time>
      </trkpt>
      <trkpt lat="43.0788870" lon="-3.1650650">
        <ele>423.2</ele>
        <time>2018-10-21T09:54:20Z</time>
      </trkpt>
      <trkpt lat="43.0789770" lon="-3.1651120">
        <ele>422.3</ele>
        <time>2018-10-21T09:54:21Z</time>
      </trkpt>
      <trkpt lat="43.0790670" lon="-3.1651650">
        <ele>422.3</ele>
        <time>2018-10-21T09:54:22Z</time>
      </trkpt>
      <trkpt lat="43.0791570" lon="-3.1652220">
        <ele>421.2</ele>
        <time>2018-10-21T09:54:23Z</time>
      </trkpt>
      <trkpt lat="43.0792480" lon="-3.1652850">
        <ele>421.2</ele>
        <time>2018-10-21T09:54:24Z</time>
      </trkpt>
      <trkpt lat="43.0793350" lon="-3.1653550">
        <ele>420.2</ele>
        <time>2018-10-21T09:54:25Z</time>
      </trkpt>
      <trkpt lat="43.0794220" lon="-3.1654350">
        <ele>420.2</ele>
        <time>2018-10-21T09:54:26Z</time>
      </trkpt>
      <trkpt lat="43.0795030" lon="-3.1655180">
        <ele>419.3</ele>
        <time>2018-10-21T09:54:27Z</time>
      </trkpt>
      <trkpt lat="43.0795880" lon="-3.1656020">
        <ele>419.3</ele>
        <time>2018-10-21T09:54:28Z</time>
      </trkpt>
      <trkpt lat="43.0796700" lon="-3.1656880">
        <ele>419.3</ele>
        <time>2018-10-21T09:54:29Z</time>
      </trkpt>
      <trkpt lat="43.0797530" lon="-3.1657770">
        <ele>419.3</ele>
        <time>2018-10-21T09:54:30Z</time>
      </trkpt>
      <trkpt lat="43.0798380" lon="-3.1658620">
        <ele>419.3</ele>
        <time>2018-10-21T09:54:31Z</time>
      </trkpt>
      <trkpt lat="43.0799250" lon="-3.1659420">
        <ele>419.3</ele>
        <time>2018-10-21T09:54:32Z</time>
      </trkpt>
      <trkpt lat="43.0800180" lon="-3.1660150">
        <ele>415.3</ele>
        <time>2018-10-21T09:54:33Z</time>
      </trkpt>
      <trkpt lat="43.0801150" lon="-3.1660780">
        <ele>415.3</ele>
        <time>2018-10-21T09:54:34Z</time>
      </trkpt>
      <trkpt lat="43.0802150" lon="-3.1661270">
        <ele>413.2</ele>
        <time>2018-10-21T09:54:35Z</time>
      </trkpt>
      <trkpt lat="43.0803200" lon="-3.1661550">
        <ele>413.2</ele>
        <time>2018-10-21T09:54:36Z</time>
      </trkpt>
      <trkpt lat="43.0804280" lon="-3.1661580">
        <ele>412.2</ele>
        <time>2018-10-21T09:54:37Z</time>
      </trkpt>
      <trkpt lat="43.0805380" lon="-3.1661450">
        <ele>412.2</ele>
        <time>2018-10-21T09:54:38Z</time>
      </trkpt>
      <trkpt lat="43.0806470" lon="-3.1661130">
        <ele>410.3</ele>
        <time>2018-10-21T09:54:39Z</time>
      </trkpt>
      <trkpt lat="43.0807570" lon="-3.1660850">
        <ele>410.3</ele>
        <time>2018-10-21T09:54:40Z</time>
      </trkpt>
      <trkpt lat="43.0808720" lon="-3.1660570">
        <ele>409.2</ele>
        <time>2018-10-21T09:54:41Z</time>
      </trkpt>
      <trkpt lat="43.0809870" lon="-3.1660270">
        <ele>409.2</ele>
        <time>2018-10-21T09:54:42Z</time>
      </trkpt>
      <trkpt lat="43.0811030" lon="-3.1659930">
        <ele>407.2</ele>
        <time>2018-10-21T09:54:43Z</time>
      </trkpt>
      <trkpt lat="43.0812200" lon="-3.1659570">
        <ele>407.2</ele>
        <time>2018-10-21T09:54:44Z</time>
      </trkpt>
      <trkpt lat="43.0813380" lon="-3.1659130">
        <ele>404.2</ele>
        <time>2018-10-21T09:54:45Z</time>
      </trkpt>
      <trkpt lat="43.0814570" lon="-3.1658650">
        <ele>404.2</ele>
        <time>2018-10-21T09:54:46Z</time>
      </trkpt>
      <trkpt lat="43.0815750" lon="-3.1658100">
        <ele>402.2</ele>
        <time>2018-10-21T09:54:47Z</time>
      </trkpt>
      <trkpt lat="43.0816930" lon="-3.1657500">
        <ele>402.2</ele>
        <time>2018-10-21T09:54:48Z</time>
      </trkpt>
      <trkpt lat="43.0818120" lon="-3.1656830">
        <ele>400.2</ele>
        <time>2018-10-21T09:54:49Z</time>
      </trkpt>
      <trkpt lat="43.0819270" lon="-3.1656050">
        <ele>400.2</ele>
        <time>2018-10-21T09:54:50Z</time>
      </trkpt>
      <trkpt lat="43.0820380" lon="-3.1655100">
        <ele>398.2</ele>
        <time>2018-10-21T09:54:51Z</time>
      </trkpt>
      <trkpt lat="43.0821450" lon="-3.1654050">
        <ele>398.2</ele>
        <time>2018-10-21T09:54:52Z</time>
      </trkpt>
      <trkpt lat="43.0822530" lon="-3.1653050">
        <ele>396.2</ele>
        <time>2018-10-21T09:54:53Z</time>
      </trkpt>
      <trkpt lat="43.0823650" lon="-3.1652180">
        <ele>396.2</ele>
        <time>2018-10-21T09:54:54Z</time>
      </trkpt>
      <trkpt lat="43.0824820" lon="-3.1651430">
        <ele>394.3</ele>
        <time>2018-10-21T09:54:55Z</time>
      </trkpt>
      <trkpt lat="43.0826000" lon="-3.1650820">
        <ele>394.3</ele>
        <time>2018-10-21T09:54:56Z</time>
      </trkpt>
      <trkpt lat="43.0827180" lon="-3.1650220">
        <ele>392.3</ele>
        <time>2018-10-21T09:54:57Z</time>
      </trkpt>
      <trkpt lat="43.0828330" lon="-3.1649720">
        <ele>392.3</ele>
        <time>2018-10-21T09:54:58Z</time>
      </trkpt>
      <trkpt lat="43.0829500" lon="-3.1649330">
        <ele>390.3</ele>
        <time>2018-10-21T09:54:59Z</time>
      </trkpt>
      <trkpt lat="43.0830670" lon="-3.1649080">
        <ele>390.3</ele>
        <time>2018-10-21T09:55:00Z</time>
      </trkpt>
      <trkpt lat="43.0831850" lon="-3.1648900">
        <ele>388.2</ele>
        <time>2018-10-21T09:55:01Z</time>
      </trkpt>
      <trkpt lat="43.0833020" lon="-3.1648650">
        <ele>388.2</ele>
        <time>2018-10-21T09:55:02Z</time>
      </trkpt>
      <trkpt lat="43.0834200" lon="-3.1648350">
        <ele>386.2</ele>
        <time>2018-10-21T09:55:03Z</time>
      </trkpt>
      <trkpt lat="43.0835380" lon="-3.1647970">
        <ele>386.2</ele>
        <time>2018-10-21T09:55:04Z</time>
      </trkpt>
      <trkpt lat="43.0836550" lon="-3.1647550">
        <ele>385.3</ele>
        <time>2018-10-21T09:55:05Z</time>
      </trkpt>
      <trkpt lat="43.0837730" lon="-3.1647130">
        <ele>385.3</ele>
        <time>2018-10-21T09:55:06Z</time>
      </trkpt>
      <trkpt lat="43.0838920" lon="-3.1646720">
        <ele>383.3</ele>
        <time>2018-10-21T09:55:07Z</time>
      </trkpt>
      <trkpt lat="43.0840080" lon="-3.1646280">
        <ele>383.3</ele>
        <time>2018-10-21T09:55:08Z</time>
      </trkpt>
      <trkpt lat="43.0841250" lon="-3.1645850">
        <ele>381.3</ele>
        <time>2018-10-21T09:55:09Z</time>
      </trkpt>
      <trkpt lat="43.0842370" lon="-3.1645430">
        <ele>381.3</ele>
        <time>2018-10-21T09:55:10Z</time>
      </trkpt>
      <trkpt lat="43.0843420" lon="-3.1645070">
        <ele>381.3</ele>
        <time>2018-10-21T09:55:11Z</time>
      </trkpt>
      <trkpt lat="43.0844430" lon="-3.1644670">
        <ele>381.3</ele>
        <time>2018-10-21T09:55:12Z</time>
      </trkpt>
      <trkpt lat="43.0845420" lon="-3.1644200">
        <ele>381.3</ele>
        <time>2018-10-21T09:55:13Z</time>
      </trkpt>
      <trkpt lat="43.0846350" lon="-3.1643580">
        <ele>381.3</ele>
        <time>2018-10-21T09:55:14Z</time>
      </trkpt>
      <trkpt lat="43.0847220" lon="-3.1642770">
        <ele>374.3</ele>
        <time>2018-10-21T09:55:15Z</time>
      </trkpt>
      <trkpt lat="43.0847920" lon="-3.1641730">
        <ele>374.3</ele>
        <time>2018-10-21T09:55:16Z</time>
      </trkpt>
      <trkpt lat="43.0848480" lon="-3.1640600">
        <ele>373.2</ele>
        <time>2018-10-21T09:55:17Z</time>
      </trkpt>
      <trkpt lat="43.0849100" lon="-3.1639520">
        <ele>373.2</ele>
        <time>2018-10-21T09:55:18Z</time>
      </trkpt>
      <trkpt lat="43.0849830" lon="-3.1638620">
        <ele>372.2</ele>
        <time>2018-10-21T09:55:19Z</time>
      </trkpt>
      <trkpt lat="43.0850720" lon="-3.1638000">
        <ele>372.2</ele>
        <time>2018-10-21T09:55:20Z</time>
      </trkpt>
      <trkpt lat="43.0851680" lon="-3.1637700">
        <ele>371.3</ele>
        <time>2018-10-21T09:55:21Z</time>
      </trkpt>
      <trkpt lat="43.0852680" lon="-3.1637700">
        <ele>371.3</ele>
        <time>2018-10-21T09:55:22Z</time>
      </trkpt>
      <trkpt lat="43.0853680" lon="-3.1637920">
        <ele>369.3</ele>
        <time>2018-10-21T09:55:23Z</time>
      </trkpt>
      <trkpt lat="43.0854680" lon="-3.1638200">
        <ele>369.3</ele>
        <time>2018-10-21T09:55:24Z</time>
      </trkpt>
      <trkpt lat="43.0855720" lon="-3.1638500">
        <ele>368.2</ele>
        <time>2018-10-21T09:55:25Z</time>
      </trkpt>
      <trkpt lat="43.0856770" lon="-3.1638650">
        <ele>368.2</ele>
        <time>2018-10-21T09:55:26Z</time>
      </trkpt>
      <trkpt lat="43.0857850" lon="-3.1638600">
        <ele>366.2</ele>
        <time>2018-10-21T09:55:27Z</time>
      </trkpt>
      <trkpt lat="43.0858950" lon="-3.1638320">
        <ele>366.2</ele>
        <time>2018-10-21T09:55:28Z</time>
      </trkpt>
      <trkpt lat="43.0860000" lon="-3.1637870">
        <ele>364.2</ele>
        <time>2018-10-21T09:55:29Z</time>
      </trkpt>
      <trkpt lat="43.0861030" lon="-3.1637270">
        <ele>364.2</ele>
        <time>2018-10-21T09:55:30Z</time>
      </trkpt>
      <trkpt lat="43.0862030" lon="-3.1636550">
        <ele>364.2</ele>
        <time>2018-10-21T09:55:31Z</time>
      </trkpt>
      <trkpt lat="43.0863000" lon="-3.1635730">
        <ele>364.2</ele>
        <time>2018-10-21T09:55:32Z</time>
      </trkpt>
      <trkpt lat="43.0863970" lon="-3.1634880">
        <ele>364.2</ele>
        <time>2018-10-21T09:55:33Z</time>
      </trkpt>
      <trkpt lat="43.0864970" lon="-3.1634070">
        <ele>364.2</ele>
        <time>2018-10-21T09:55:34Z</time>
      </trkpt>
      <trkpt lat="43.0866000" lon="-3.1633350">
        <ele>359.2</ele>
        <time>2018-10-21T09:55:35Z</time>
      </trkpt>
      <trkpt lat="43.0867050" lon="-3.1632630">
        <ele>359.2</ele>
        <time>2018-10-21T09:55:36Z</time>
      </trkpt>
      <trkpt lat="43.0868080" lon="-3.1631880">
        <ele>358.3</ele>
        <time>2018-10-21T09:55:37Z</time>
      </trkpt>
      <trkpt lat="43.0869150" lon="-3.1631200">
        <ele>358.3</ele>
        <time>2018-10-21T09:55:38Z</time>
      </trkpt>
      <trkpt lat="43.0870270" lon="-3.1630680">
        <ele>356.2</ele>
        <time>2018-10-21T09:55:39Z</time>
      </trkpt>
      <trkpt lat="43.0871420" lon="-3.1630300">
        <ele>356.2</ele>
        <time>2018-10-21T09:55:40Z</time>
      </trkpt>
      <trkpt lat="43.0872580" lon="-3.1629970">
        <ele>354.2</ele>
        <time>2018-10-21T09:55:41Z</time>
      </trkpt>
      <trkpt lat="43.0873750" lon="-3.1629520">
        <ele>354.2</ele>
        <time>2018-10-21T09:55:42Z</time>
      </trkpt>
      <trkpt lat="43.0874830" lon="-3.1628980">
        <ele>351.3</ele>
        <time>2018-10-21T09:55:43Z</time>
      </trkpt>
      <trkpt lat="43.0875830" lon="-3.1628330">
        <ele>351.3</ele>
        <time>2018-10-21T09:55:44Z</time>
      </trkpt>
      <trkpt lat="43.0876720" lon="-3.1627470">
        <ele>348.2</ele>
        <time>2018-10-21T09:55:45Z</time>
      </trkpt>
      <trkpt lat="43.0877450" lon="-3.1626470">
        <ele>348.2</ele>
        <time>2018-10-21T09:55:46Z</time>
      </trkpt>
      <trkpt lat="43.0878020" lon="-3.1625430">
        <ele>346.3</ele>
        <time>2018-10-21T09:55:47Z</time>
      </trkpt>
      <trkpt lat="43.0878600" lon="-3.1624520">
        <ele>346.3</ele>
        <time>2018-10-21T09:55:48Z</time>
      </trkpt>
      <trkpt lat="43.0879280" lon="-3.1623820">
        <ele>345.2</ele>
        <time>2018-10-21T09:55:49Z</time>
      </trkpt>
      <trkpt lat="43.0880100" lon="-3.1623320">
        <ele>345.2</ele>
        <time>2018-10-21T09:55:50Z</time>
      </trkpt>
      <trkpt lat="43.0881000" lon="-3.1623080">
        <ele>343.2</ele>
        <time>2018-10-21T09:55:51Z</time>
      </trkpt>
      <trkpt lat="43.0881920" lon="-3.1623100">
        <ele>343.2</ele>
        <time>2018-10-21T09:55:52Z</time>
      </trkpt>
      <trkpt lat="43.0882880" lon="-3.1623050">
        <ele>341.2</ele>
        <time>2018-10-21T09:55:53Z</time>
      </trkpt>
      <trkpt lat="43.0883870" lon="-3.1622770">
        <ele>341.2</ele>
        <time>2018-10-21T09:55:54Z</time>
      </trkpt>
      <trkpt lat="43.0884820" lon="-3.1622300">
        <ele>340.2</ele>
        <time>2018-10-21T09:55:55Z</time>
      </trkpt>
      <trkpt lat="43.0885750" lon="-3.1621670">
        <ele>340.2</ele>
        <time>2018-10-21T09:55:56Z</time>
      </trkpt>
      <trkpt lat="43.0886620" lon="-3.1620850">
        <ele>339.2</ele>
        <time>2018-10-21T09:55:57Z</time>
      </trkpt>
      <trkpt lat="43.0887420" lon="-3.1619900">
        <ele>339.2</ele>
        <time>2018-10-21T09:55:58Z</time>
      </trkpt>
      <trkpt lat="43.0888250" lon="-3.1618950">
        <ele>338.2</ele>
        <time>2018-10-21T09:55:59Z</time>
      </trkpt>
      <trkpt lat="43.0889150" lon="-3.1618130">
        <ele>338.2</ele>
        <time>2018-10-21T09:56:00Z</time>
      </trkpt>
      <trkpt lat="43.0890130" lon="-3.1617470">
        <ele>336.2</ele>
        <time>2018-10-21T09:56:01Z</time>
      </trkpt>
      <trkpt lat="43.0891130" lon="-3.1616880">
        <ele>336.2</ele>
        <time>2018-10-21T09:56:02Z</time>
      </trkpt>
      <trkpt lat="43.0892130" lon="-3.1616230">
        <ele>334.2</ele>
        <time>2018-10-21T09:56:03Z</time>
      </trkpt>
      <trkpt lat="43.0893120" lon="-3.1615530">
        <ele>334.2</ele>
        <time>2018-10-21T09:56:04Z</time>
      </trkpt>
      <trkpt lat="43.0894070" lon="-3.1614750">
        <ele>331.2</ele>
        <time>2018-10-21T09:56:05Z</time>
      </trkpt>
      <trkpt lat="43.0894980" lon="-3.1613930">
        <ele>331.2</ele>
        <time>2018-10-21T09:56:06Z</time>
      </trkpt>
      <trkpt lat="43.0895850" lon="-3.1613050">
        <ele>331.2</ele>
        <time>2018-10-21T09:56:07Z</time>
      </trkpt>
      <trkpt lat="43.0896700" lon="-3.1612130">
        <ele>331.2</ele>
        <time>2018-10-21T09:56:08Z</time>
      </trkpt>
      <trkpt lat="43.0897550" lon="-3.1611250">
        <ele>331.2</ele>
        <time>2018-10-21T09:56:09Z</time>
      </trkpt>
      <trkpt lat="43.0898470" lon="-3.1610520">
        <ele>331.2</ele>
        <time>2018-10-21T09:56:10Z</time>
      </trkpt>
      <trkpt lat="43.0899430" lon="-3.1609970">
        <ele>331.2</ele>
        <time>2018-10-21T09:56:11Z</time>
      </trkpt>
      <trkpt lat="43.0900420" lon="-3.1609530">
        <ele>331.2</ele>
        <time>2018-10-21T09:56:12Z</time>
      </trkpt>
      <trkpt lat="43.0901400" lon="-3.1609120">
        <ele>331.2</ele>
        <time>2018-10-21T09:56:13Z</time>
      </trkpt>
      <trkpt lat="43.0902370" lon="-3.1608630">
        <ele>331.2</ele>
        <time>2018-10-21T09:56:14Z</time>
      </trkpt>
      <trkpt lat="43.0903300" lon="-3.1608130">
        <ele>331.2</ele>
        <time>2018-10-21T09:56:15Z</time>
      </trkpt>
      <trkpt lat="43.0904220" lon="-3.1607670">
        <ele>331.2</ele>
        <time>2018-10-21T09:56:16Z</time>
      </trkpt>
      <trkpt lat="43.0905170" lon="-3.1607280">
        <ele>328.3</ele>
        <time>2018-10-21T09:56:17Z</time>
      </trkpt>
      <trkpt lat="43.0906150" lon="-3.1606980">
        <ele>328.3</ele>
        <time>2018-10-21T09:56:18Z</time>
      </trkpt>
      <trkpt lat="43.0907130" lon="-3.1606700">
        <ele>327.2</ele>
        <time>2018-10-21T09:56:19Z</time>
      </trkpt>
      <trkpt lat="43.0908100" lon="-3.1606350">
        <ele>327.2</ele>
        <time>2018-10-21T09:56:20Z</time>
      </trkpt>
      <trkpt lat="43.0909030" lon="-3.1605850">
        <ele>327.2</ele>
        <time>2018-10-21T09:56:21Z</time>
      </trkpt>
      <trkpt lat="43.0909930" lon="-3.1605280">
        <ele>327.2</ele>
        <time>2018-10-21T09:56:22Z</time>
      </trkpt>
      <trkpt lat="43.0910820" lon="-3.1604680">
        <ele>327.2</ele>
        <time>2018-10-21T09:56:23Z</time>
      </trkpt>
      <trkpt lat="43.0911720" lon="-3.1604070">
        <ele>327.2</ele>
        <time>2018-10-21T09:56:24Z</time>
      </trkpt>
      <trkpt lat="43.0912600" lon="-3.1603470">
        <ele>325.2</ele>
        <time>2018-10-21T09:56:25Z</time>
      </trkpt>
      <trkpt lat="43.0913500" lon="-3.1602850">
        <ele>325.2</ele>
        <time>2018-10-21T09:56:26Z</time>
      </trkpt>
      <trkpt lat="43.0914380" lon="-3.1602230">
        <ele>324.3</ele>
        <time>2018-10-21T09:56:27Z</time>
      </trkpt>
      <trkpt lat="43.0915270" lon="-3.1601630">
        <ele>324.3</ele>
        <time>2018-10-21T09:56:28Z</time>
      </trkpt>
      <trkpt lat="43.0916170" lon="-3.1601050">
        <ele>323.2</ele>
        <time>2018-10-21T09:56:29Z</time>
      </trkpt>
      <trkpt lat="43.0917050" lon="-3.1600470">
        <ele>323.2</ele>
        <time>2018-10-21T09:56:30Z</time>
      </trkpt>
      <trkpt lat="43.0917930" lon="-3.1599900">
        <ele>323.2</ele>
        <time>2018-10-21T09:56:31Z</time>
      </trkpt>
      <trkpt lat="43.0918800" lon="-3.1599320">
        <ele>323.2</ele>
        <time>2018-10-21T09:56:32Z</time>
      </trkpt>
      <trkpt lat="43.0919670" lon="-3.1598730">
        <ele>323.2</ele>
        <time>2018-10-21T09:56:33Z</time>
      </trkpt>
      <trkpt lat="43.0920530" lon="-3.1598130">
        <ele>323.2</ele>
        <time>2018-10-21T09:56:34Z</time>
      </trkpt>
      <trkpt lat="43.0921380" lon="-3.1597550">
        <ele>322.2</ele>
        <time>2018-10-21T09:56:35Z</time>
      </trkpt>
      <trkpt lat="43.0922250" lon="-3.1596930">
        <ele>322.2</ele>
        <time>2018-10-21T09:56:36Z</time>
      </trkpt>
      <trkpt lat="43.0923120" lon="-3.1596350">
        <ele>321.3</ele>
        <time>2018-10-21T09:56:37Z</time>
      </trkpt>
      <trkpt lat="43.0923980" lon="-3.1595750">
        <ele>321.3</ele>
        <time>2018-10-21T09:56:38Z</time>
      </trkpt>
      <trkpt lat="43.0924850" lon="-3.1595170">
        <ele>321.3</ele>
        <time>2018-10-21T09:56:39Z</time>
      </trkpt>
      <trkpt lat="43.0925730" lon="-3.1594600">
        <ele>321.3</ele>
        <time>2018-10-21T09:56:40Z</time>
      </trkpt>
      <trkpt lat="43.0926620" lon="-3.1594070">
        <ele>320.2</ele>
        <time>2018-10-21T09:56:41Z</time>
      </trkpt>
      <trkpt lat="43.0927520" lon="-3.1593550">
        <ele>320.2</ele>
        <time>2018-10-21T09:56:42Z</time>
      </trkpt>
      <trkpt lat="43.0928430" lon="-3.1593100">
        <ele>320.2</ele>
        <time>2018-10-21T09:56:43Z</time>
      </trkpt>
      <trkpt lat="43.0929320" lon="-3.1592600">
        <ele>320.2</ele>
        <time>2018-10-21T09:56:44Z</time>
      </trkpt>
      <trkpt lat="43.0930230" lon="-3.1592100">
        <ele>320.2</ele>
        <time>2018-10-21T09:56:45Z</time>
      </trkpt>
      <trkpt lat="43.0931180" lon="-3.1591580">
        <ele>320.2</ele>
        <time>2018-10-21T09:56:46Z</time>
      </trkpt>
      <trkpt lat="43.0932150" lon="-3.1591100">
        <ele>317.3</ele>
        <time>2018-10-21T09:56:47Z</time>
      </trkpt>
      <trkpt lat="43.0933130" lon="-3.1590620">
        <ele>317.3</ele>
        <time>2018-10-21T09:56:48Z</time>
      </trkpt>
      <trkpt lat="43.0934120" lon="-3.1590050">
        <ele>316.2</ele>
        <time>2018-10-21T09:56:49Z</time>
      </trkpt>
      <trkpt lat="43.0935120" lon="-3.1589480">
        <ele>316.2</ele>
        <time>2018-10-21T09:56:50Z</time>
      </trkpt>
      <trkpt lat="43.0936100" lon="-3.1588950">
        <ele>316.2</ele>
        <time>2018-10-21T09:56:51Z</time>
      </trkpt>
      <trkpt lat="43.0937080" lon="-3.1588420">
        <ele>316.2</ele>
        <time>2018-10-21T09:56:52Z</time>
      </trkpt>
      <trkpt lat="43.0938070" lon="-3.1587930">
        <ele>315.2</ele>
        <time>2018-10-21T09:56:53Z</time>
      </trkpt>
      <trkpt lat="43.0939020" lon="-3.1587470">
        <ele>315.2</ele>
        <time>2018-10-21T09:56:54Z</time>
      </trkpt>
      <trkpt lat="43.0940020" lon="-3.1587030">
        <ele>314.3</ele>
        <time>2018-10-21T09:56:55Z</time>
      </trkpt>
      <trkpt lat="43.0941030" lon="-3.1586600">
        <ele>314.3</ele>
        <time>2018-10-21T09:56:56Z</time>
      </trkpt>
      <trkpt lat="43.0942070" lon="-3.1586200">
        <ele>313.2</ele>
        <time>2018-10-21T09:56:57Z</time>
      </trkpt>
      <trkpt lat="43.0943100" lon="-3.1585820">
        <ele>313.2</ele>
        <time>2018-10-21T09:56:58Z</time>
      </trkpt>
      <trkpt lat="43.0944120" lon="-3.1585420">
        <ele>312.3</ele>
        <time>2018-10-21T09:56:59Z</time>
      </trkpt>
      <trkpt lat="43.0945120" lon="-3.1584950">
        <ele>312.3</ele>
        <time>2018-10-21T09:57:00Z</time>
      </trkpt>
      <trkpt lat="43.0946120" lon="-3.1584430">
        <ele>311.2</ele>
        <time>2018-10-21T09:57:01Z</time>
      </trkpt>
      <trkpt lat="43.0947080" lon="-3.1583850">
        <ele>311.2</ele>
        <time>2018-10-21T09:57:02Z</time>
      </trkpt>
      <trkpt lat="43.0948050" lon="-3.1583270">
        <ele>311.2</ele>
        <time>2018-10-21T09:57:03Z</time>
      </trkpt>
      <trkpt lat="43.0949020" lon="-3.1582700">
        <ele>311.2</ele>
        <time>2018-10-21T09:57:04Z</time>
      </trkpt>
      <trkpt lat="43.0950020" lon="-3.1582230">
        <ele>310.3</ele>
        <time>2018-10-21T09:57:05Z</time>
      </trkpt>
      <trkpt lat="43.0951080" lon="-3.1581820">
        <ele>310.3</ele>
        <time>2018-10-21T09:57:06Z</time>
      </trkpt>
      <trkpt lat="43.0952180" lon="-3.1581480">
        <ele>308.3</ele>
        <time>2018-10-21T09:57:07Z</time>
      </trkpt>
      <trkpt lat="43.0953280" lon="-3.1581200">
        <ele>308.3</ele>
        <time>2018-10-21T09:57:08Z</time>
      </trkpt>
      <trkpt lat="43.0954400" lon="-3.1580980">
        <ele>307.2</ele>
        <time>2018-10-21T09:57:09Z</time>
      </trkpt>
      <trkpt lat="43.0955520" lon="-3.1580780">
        <ele>307.2</ele>
        <time>2018-10-21T09:57:10Z</time>
      </trkpt>
      <trkpt lat="43.0956630" lon="-3.1580670">
        <ele>306.2</ele>
        <time>2018-10-21T09:57:11Z</time>
      </trkpt>
      <trkpt lat="43.0957750" lon="-3.1580670">
        <ele>306.2</ele>
        <time>2018-10-21T09:57:12Z</time>
      </trkpt>
      <trkpt lat="43.0958880" lon="-3.1580630">
        <ele>305.3</ele>
        <time>2018-10-21T09:57:13Z</time>
      </trkpt>
      <trkpt lat="43.0960050" lon="-3.1580600">
        <ele>305.3</ele>
        <time>2018-10-21T09:57:14Z</time>
      </trkpt>
      <trkpt lat="43.0961220" lon="-3.1580620">
        <ele>305.3</ele>
        <time>2018-10-21T09:57:15Z</time>
      </trkpt>
      <trkpt lat="43.0962420" lon="-3.1580580">
        <ele>305.3</ele>
        <time>2018-10-21T09:57:16Z</time>
      </trkpt>
      <trkpt lat="43.0963620" lon="-3.1580450">
        <ele>305.3</ele>
        <time>2018-10-21T09:57:17Z</time>
      </trkpt>
      <trkpt lat="43.0964770" lon="-3.1580250">
        <ele>305.3</ele>
        <time>2018-10-21T09:57:18Z</time>
      </trkpt>
      <trkpt lat="43.0965880" lon="-3.1579970">
        <ele>302.2</ele>
        <time>2018-10-21T09:57:19Z</time>
      </trkpt>
      <trkpt lat="43.0966970" lon="-3.1579700">
        <ele>302.2</ele>
        <time>2018-10-21T09:57:20Z</time>
      </trkpt>
      <trkpt lat="43.0968030" lon="-3.1579420">
        <ele>301.3</ele>
        <time>2018-10-21T09:57:21Z</time>
      </trkpt>
      <trkpt lat="43.0969080" lon="-3.1579150">
        <ele>301.3</ele>
        <time>2018-10-21T09:57:22Z</time>
      </trkpt>
      <trkpt lat="43.0970080" lon="-3.1578920">
        <ele>301.3</ele>
        <time>2018-10-21T09:57:23Z</time>
      </trkpt>
      <trkpt lat="43.0971080" lon="-3.1578720">
        <ele>301.3</ele>
        <time>2018-10-21T09:57:24Z</time>
      </trkpt>
      <trkpt lat="43.0972070" lon="-3.1578580">
        <ele>300.2</ele>
        <time>2018-10-21T09:57:25Z</time>
      </trkpt>
      <trkpt lat="43.0973020" lon="-3.1578600">
        <ele>300.2</ele>
        <time>2018-10-21T09:57:26Z</time>
      </trkpt>
      <trkpt lat="43.0973950" lon="-3.1578770">
        <ele>300.2</ele>
        <time>2018-10-21T09:57:27Z</time>
      </trkpt>
      <trkpt lat="43.0974870" lon="-3.1579050">
        <ele>300.2</ele>
        <time>2018-10-21T09:57:28Z</time>
      </trkpt>
      <trkpt lat="43.0975730" lon="-3.1579480">
        <ele>299.2</ele>
        <time>2018-10-21T09:57:29Z</time>
      </trkpt>
      <trkpt lat="43.0976580" lon="-3.1579980">
        <ele>299.2</ele>
        <time>2018-10-21T09:57:30Z</time>
      </trkpt>
      <trkpt lat="43.0977420" lon="-3.1580500">
        <ele>299.2</ele>
        <time>2018-10-21T09:57:31Z</time>
      </trkpt>
      <trkpt lat="43.0978230" lon="-3.1580950">
        <ele>299.2</ele>
        <time>2018-10-21T09:57:32Z</time>
      </trkpt>
      <trkpt lat="43.0979050" lon="-3.1581330">
        <ele>299.2</ele>
        <time>2018-10-21T09:57:33Z</time>
      </trkpt>
      <trkpt lat="43.0979830" lon="-3.1581720">
        <ele>299.2</ele>
        <time>2018-10-21T09:57:34Z</time>
      </trkpt>
      <trkpt lat="43.0980600" lon="-3.1582150">
        <ele>299.2</ele>
        <time>2018-10-21T09:57:35Z</time>
      </trkpt>
      <trkpt lat="43.0981320" lon="-3.1582680">
        <ele>299.2</ele>
        <time>2018-10-21T09:57:36Z</time>
      </trkpt>
      <trkpt lat="43.0981950" lon="-3.1583380">
        <ele>298.3</ele>
        <time>2018-10-21T09:57:37Z</time>
      </trkpt>
      <trkpt lat="43.0982480" lon="-3.1584180">
        <ele>298.3</ele>
        <time>2018-10-21T09:57:38Z</time>
      </trkpt>
      <trkpt lat="43.0982870" lon="-3.1585100">
        <ele>298.3</ele>
        <time>2018-10-21T09:57:39Z</time>
      </trkpt>
      <trkpt lat="43.0983150" lon="-3.1586080">
        <ele>298.3</ele>
        <time>2018-10-21T09:57:40Z</time>
      </trkpt>
      <trkpt lat="43.0983400" lon="-3.1587080">
        <ele>298.3</ele>
        <time>2018-10-21T09:57:41Z</time>
      </trkpt>
      <trkpt lat="43.0983630" lon="-3.1588080">
        <ele>298.3</ele>
        <time>2018-10-21T09:57:42Z</time>
      </trkpt>
      <trkpt lat="43.0983930" lon="-3.1589050">
        <ele>298.3</ele>
        <time>2018-10-21T09:57:43Z</time>
      </trkpt>
      <trkpt lat="43.0984280" lon="-3.1589970">
        <ele>298.3</ele>
        <time>2018-10-21T09:57:44Z</time>
      </trkpt>
      <trkpt lat="43.0984730" lon="-3.1590820">
        <ele>298.3</ele>
        <time>2018-10-21T09:57:45Z</time>
      </trkpt>
      <trkpt lat="43.0985220" lon="-3.1591620">
        <ele>298.3</ele>
        <time>2018-10-21T09:57:46Z</time>
      </trkpt>
      <trkpt lat="43.0985750" lon="-3.1592350">
        <ele>298.3</ele>
        <time>2018-10-21T09:57:47Z</time>
      </trkpt>
      <trkpt lat="43.0986300" lon="-3.1593080">
        <ele>298.3</ele>
        <time>2018-10-21T09:57:48Z</time>
      </trkpt>
      <trkpt lat="43.0986850" lon="-3.1593800">
        <ele>298.3</ele>
        <time>2018-10-21T09:57:49Z</time>
      </trkpt>
      <trkpt lat="43.0987420" lon="-3.1594500">
        <ele>298.3</ele>
        <time>2018-10-21T09:57:50Z</time>
      </trkpt>
      <trkpt lat="43.0987980" lon="-3.1595200">
        <ele>298.3</ele>
        <time>2018-10-21T09:57:51Z</time>
      </trkpt>
      <trkpt lat="43.0988550" lon="-3.1595920">
        <ele>298.3</ele>
        <time>2018-10-21T09:57:52Z</time>
      </trkpt>
      <trkpt lat="43.0989120" lon="-3.1596630">
        <ele>297.2</ele>
        <time>2018-10-21T09:57:53Z</time>
      </trkpt>
      <trkpt lat="43.0989680" lon="-3.1597370">
        <ele>297.2</ele>
        <time>2018-10-21T09:57:54Z</time>
      </trkpt>
      <trkpt lat="43.0990280" lon="-3.1598120">
        <ele>297.2</ele>
        <time>2018-10-21T09:57:55Z</time>
      </trkpt>
      <trkpt lat="43.0990880" lon="-3.1598870">
        <ele>297.2</ele>
        <time>2018-10-21T09:57:56Z</time>
      </trkpt>
      <trkpt lat="43.0991500" lon="-3.1599630">
        <ele>296.3</ele>
        <time>2018-10-21T09:57:57Z</time>
      </trkpt>
      <trkpt lat="43.0992180" lon="-3.1600380">
        <ele>296.3</ele>
        <time>2018-10-21T09:57:58Z</time>
      </trkpt>
      <trkpt lat="43.0992920" lon="-3.1601070">
        <ele>296.3</ele>
        <time>2018-10-21T09:57:59Z</time>
      </trkpt>
      <trkpt lat="43.0993730" lon="-3.1601620">
        <ele>296.3</ele>
        <time>2018-10-21T09:58:00Z</time>
      </trkpt>
      <trkpt lat="43.0994620" lon="-3.1602000">
        <ele>296.3</ele>
        <time>2018-10-21T09:58:01Z</time>
      </trkpt>
      <trkpt lat="43.0995550" lon="-3.1602200">
        <ele>296.3</ele>
        <time>2018-10-21T09:58:02Z</time>
      </trkpt>
      <trkpt lat="43.0996520" lon="-3.1602220">
        <ele>293.2</ele>
        <time>2018-10-21T09:58:03Z</time>
      </trkpt>
      <trkpt lat="43.0997470" lon="-3.1602120">
        <ele>293.2</ele>
        <time>2018-10-21T09:58:04Z</time>
      </trkpt>
      <trkpt lat="43.0998430" lon="-3.1601980">
        <ele>292.3</ele>
        <time>2018-10-21T09:58:05Z</time>
      </trkpt>
      <trkpt lat="43.0999400" lon="-3.1601850">
        <ele>292.3</ele>
        <time>2018-10-21T09:58:06Z</time>
      </trkpt>
      <trkpt lat="43.1000370" lon="-3.1601700">
        <ele>292.3</ele>
        <time>2018-10-21T09:58:07Z</time>
      </trkpt>
      <trkpt lat="43.1001320" lon="-3.1601550">
        <ele>292.3</ele>
        <time>2018-10-21T09:58:08Z</time>
      </trkpt>
      <trkpt lat="43.1002270" lon="-3.1601480">
        <ele>292.3</ele>
        <time>2018-10-21T09:58:09Z</time>
      </trkpt>
      <trkpt lat="43.1003220" lon="-3.1601550">
        <ele>292.3</ele>
        <time>2018-10-21T09:58:10Z</time>
      </trkpt>
      <trkpt lat="43.1004150" lon="-3.1601800">
        <ele>292.3</ele>
        <time>2018-10-21T09:58:11Z</time>
      </trkpt>
      <trkpt lat="43.1005070" lon="-3.1602200">
        <ele>292.3</ele>
        <time>2018-10-21T09:58:12Z</time>
      </trkpt>
      <trkpt lat="43.1005950" lon="-3.1602770">
        <ele>290.2</ele>
        <time>2018-10-21T09:58:13Z</time>
      </trkpt>
      <trkpt lat="43.1006830" lon="-3.1603380">
        <ele>290.2</ele>
        <time>2018-10-21T09:58:14Z</time>
      </trkpt>
      <trkpt lat="43.1007750" lon="-3.1603950">
        <ele>289.3</ele>
        <time>2018-10-21T09:58:15Z</time>
      </trkpt>
      <trkpt lat="43.1008680" lon="-3.1604380">
        <ele>289.3</ele>
        <time>2018-10-21T09:58:16Z</time>
      </trkpt>
      <trkpt lat="43.1009670" lon="-3.1604630">
        <ele>288.2</ele>
        <time>2018-10-21T09:58:17Z</time>
      </trkpt>
      <trkpt lat="43.1010650" lon="-3.1604720">
        <ele>288.2</ele>
        <time>2018-10-21T09:58:18Z</time>
      </trkpt>
      <trkpt lat="43.1011650" lon="-3.1604680">
        <ele>287.3</ele>
        <time>2018-10-21T09:58:19Z</time>
      </trkpt>
      <trkpt lat="43.1012630" lon="-3.1604520">
        <ele>287.3</ele>
        <time>2018-10-21T09:58:20Z</time>
      </trkpt>
      <trkpt lat="43.1013630" lon="-3.1604300">
        <ele>287.3</ele>
        <time>2018-10-21T09:58:21Z</time>
      </trkpt>
      <trkpt lat="43.1014630" lon="-3.1604070">
        <ele>287.3</ele>
        <time>2018-10-21T09:58:22Z</time>
      </trkpt>
      <trkpt lat="43.1015670" lon="-3.1603770">
        <ele>286.2</ele>
        <time>2018-10-21T09:58:23Z</time>
      </trkpt>
      <trkpt lat="43.1016720" lon="-3.1603470">
        <ele>286.2</ele>
        <time>2018-10-21T09:58:24Z</time>
      </trkpt>
      <trkpt lat="43.1017750" lon="-3.1603120">
        <ele>286.2</ele>
        <time>2018-10-21T09:58:25Z</time>
      </trkpt>
      <trkpt lat="43.1018780" lon="-3.1602700">
        <ele>286.2</ele>
        <time>2018-10-21T09:58:26Z</time>
      </trkpt>
      <trkpt lat="43.1019820" lon="-3.1602270">
        <ele>286.2</ele>
        <time>2018-10-21T09:58:27Z</time>
      </trkpt>
      <trkpt lat="43.1020830" lon="-3.1601800">
        <ele>286.2</ele>
        <time>2018-10-21T09:58:28Z</time>
      </trkpt>
      <trkpt lat="43.1021820" lon="-3.1601250">
        <ele>286.2</ele>
        <time>2018-10-21T09:58:29Z</time>
      </trkpt>
      <trkpt lat="43.1022730" lon="-3.1600580">
        <ele>286.2</ele>
        <time>2018-10-21T09:58:30Z</time>
      </trkpt>
      <trkpt lat="43.1023630" lon="-3.1599880">
        <ele>282.2</ele>
        <time>2018-10-21T09:58:31Z</time>
      </trkpt>
      <trkpt lat="43.1024520" lon="-3.1599270">
        <ele>282.2</ele>
        <time>2018-10-21T09:58:32Z</time>
      </trkpt>
      <trkpt lat="43.1025400" lon="-3.1598730">
        <ele>282.2</ele>
        <time>2018-10-21T09:58:33Z</time>
      </trkpt>
      <trkpt lat="43.1026300" lon="-3.1598280">
        <ele>282.2</ele>
        <time>2018-10-21T09:58:34Z</time>
      </trkpt>
      <trkpt lat="43.1027220" lon="-3.1597900">
        <ele>281.2</ele>
        <time>2018-10-21T09:58:35Z</time>
      </trkpt>
      <trkpt lat="43.1028130" lon="-3.1597580">
        <ele>281.2</ele>
        <time>2018-10-21T09:58:36Z</time>
      </trkpt>
      <trkpt lat="43.1029050" lon="-3.1597370">
        <ele>281.2</ele>
        <time>2018-10-21T09:58:37Z</time>
      </trkpt>
      <trkpt lat="43.1030000" lon="-3.1597320">
        <ele>281.2</ele>
        <time>2018-10-21T09:58:38Z</time>
      </trkpt>
      <trkpt lat="43.1030970" lon="-3.1597380">
        <ele>280.3</ele>
        <time>2018-10-21T09:58:39Z</time>
      </trkpt>
      <trkpt lat="43.1031920" lon="-3.1597530">
        <ele>280.3</ele>
        <time>2018-10-21T09:58:40Z</time>
      </trkpt>
      <trkpt lat="43.1032820" lon="-3.1597750">
        <ele>280.3</ele>
        <time>2018-10-21T09:58:41Z</time>
      </trkpt>
      <trkpt lat="43.1033700" lon="-3.1598120">
        <ele>280.3</ele>
        <time>2018-10-21T09:58:42Z</time>
      </trkpt>
      <trkpt lat="43.1034520" lon="-3.1598650">
        <ele>279.2</ele>
        <time>2018-10-21T09:58:43Z</time>
      </trkpt>
      <trkpt lat="43.1035220" lon="-3.1599430">
        <ele>279.2</ele>
        <time>2018-10-21T09:58:44Z</time>
      </trkpt>
      <trkpt lat="43.1035730" lon="-3.1600470">
        <ele>278.3</ele>
        <time>2018-10-21T09:58:45Z</time>
      </trkpt>
      <trkpt lat="43.1036080" lon="-3.1601620">
        <ele>278.3</ele>
        <time>2018-10-21T09:58:46Z</time>
      </trkpt>
      <trkpt lat="43.1036470" lon="-3.1602780">
        <ele>277.2</ele>
        <time>2018-10-21T09:58:47Z</time>
      </trkpt>
      <trkpt lat="43.1036950" lon="-3.1603900">
        <ele>277.2</ele>
        <time>2018-10-21T09:58:48Z</time>
      </trkpt>
      <trkpt lat="43.1037530" lon="-3.1604950">
        <ele>276.3</ele>
        <time>2018-10-21T09:58:49Z</time>
      </trkpt>
      <trkpt lat="43.1038280" lon="-3.1605730">
        <ele>276.3</ele>
        <time>2018-10-21T09:58:50Z</time>
      </trkpt>
      <trkpt lat="43.1039180" lon="-3.1606170">
        <ele>275.2</ele>
        <time>2018-10-21T09:58:51Z</time>
      </trkpt>
      <trkpt lat="43.1040130" lon="-3.1606370">
        <ele>275.2</ele>
        <time>2018-10-21T09:58:52Z</time>
      </trkpt>
      <trkpt lat="43.1041100" lon="-3.1606480">
        <ele>274.2</ele>
        <time>2018-10-21T09:58:53Z</time>
      </trkpt>
      <trkpt lat="43.1042100" lon="-3.1606600">
        <ele>274.2</ele>
        <time>2018-10-21T09:58:54Z</time>
      </trkpt>
      <trkpt lat="43.1043120" lon="-3.1606720">
        <ele>273.3</ele>
        <time>2018-10-21T09:58:55Z</time>
      </trkpt>
      <trkpt lat="43.1044150" lon="-3.1606850">
        <ele>273.3</ele>
        <time>2018-10-21T09:58:56Z</time>
      </trkpt>
      <trkpt lat="43.1045170" lon="-3.1607020">
        <ele>273.3</ele>
        <time>2018-10-21T09:58:57Z</time>
      </trkpt>
      <trkpt lat="43.1046180" lon="-3.1607150">
        <ele>273.3</ele>
        <time>2018-10-21T09:58:58Z</time>
      </trkpt>
      <trkpt lat="43.1047170" lon="-3.1607250">
        <ele>273.3</ele>
        <time>2018-10-21T09:58:59Z</time>
      </trkpt>
      <trkpt lat="43.1048130" lon="-3.1607370">
        <ele>273.3</ele>
        <time>2018-10-21T09:59:00Z</time>
      </trkpt>
      <trkpt lat="43.1049070" lon="-3.1607480">
        <ele>272.2</ele>
        <time>2018-10-21T09:59:01Z</time>
      </trkpt>
      <trkpt lat="43.1049980" lon="-3.1607530">
        <ele>272.2</ele>
        <time>2018-10-21T09:59:02Z</time>
      </trkpt>
      <trkpt lat="43.1050900" lon="-3.1607480">
        <ele>272.2</ele>
        <time>2018-10-21T09:59:03Z</time>
      </trkpt>
      <trkpt lat="43.1051780" lon="-3.1607330">
        <ele>272.2</ele>
        <time>2018-10-21T09:59:04Z</time>
      </trkpt>
      <trkpt lat="43.1052650" lon="-3.1607230">
        <ele>272.2</ele>
        <time>2018-10-21T09:59:05Z</time>
      </trkpt>
      <trkpt lat="43.1053500" lon="-3.1607300">
        <ele>272.2</ele>
        <time>2018-10-21T09:59:06Z</time>
      </trkpt>
      <trkpt lat="43.1054320" lon="-3.1607450">
        <ele>272.2</ele>
        <time>2018-10-21T09:59:07Z</time>
      </trkpt>
      <trkpt lat="43.1055120" lon="-3.1607750">
        <ele>272.2</ele>
        <time>2018-10-21T09:59:08Z</time>
      </trkpt>
      <trkpt lat="43.1055800" lon="-3.1608230">
        <ele>273.3</ele>
        <time>2018-10-21T09:59:09Z</time>
      </trkpt>
      <trkpt lat="43.1056450" lon="-3.1608830">
        <ele>273.3</ele>
        <time>2018-10-21T09:59:10Z</time>
      </trkpt>
      <trkpt lat="43.1057050" lon="-3.1609530">
        <ele>273.3</ele>
        <time>2018-10-21T09:59:11Z</time>
      </trkpt>
      <trkpt lat="43.1057600" lon="-3.1610370">
        <ele>273.3</ele>
        <time>2018-10-21T09:59:12Z</time>
      </trkpt>
      <trkpt lat="43.1058120" lon="-3.1611250">
        <ele>273.3</ele>
        <time>2018-10-21T09:59:13Z</time>
      </trkpt>
      <trkpt lat="43.1058620" lon="-3.1612150">
        <ele>273.3</ele>
        <time>2018-10-21T09:59:14Z</time>
      </trkpt>
      <trkpt lat="43.1059130" lon="-3.1613050">
        <ele>273.3</ele>
        <time>2018-10-21T09:59:15Z</time>
      </trkpt>
      <trkpt lat="43.1059670" lon="-3.1613900">
        <ele>273.3</ele>
        <time>2018-10-21T09:59:16Z</time>
      </trkpt>
      <trkpt lat="43.1060250" lon="-3.1614570">
        <ele>273.3</ele>
        <time>2018-10-21T09:59:17Z</time>
      </trkpt>
      <trkpt lat="43.1060920" lon="-3.1615030">
        <ele>273.3</ele>
        <time>2018-10-21T09:59:18Z</time>
      </trkpt>
      <trkpt lat="43.1061700" lon="-3.1615170">
        <ele>273.3</ele>
        <time>2018-10-21T09:59:19Z</time>
      </trkpt>
      <trkpt lat="43.1062420" lon="-3.1614870">
        <ele>273.3</ele>
        <time>2018-10-21T09:59:20Z</time>
      </trkpt>
      <trkpt lat="43.1063000" lon="-3.1614250">
        <ele>271.3</ele>
        <time>2018-10-21T09:59:21Z</time>
      </trkpt>
      <trkpt lat="43.1063530" lon="-3.1613480">
        <ele>271.3</ele>
        <time>2018-10-21T09:59:22Z</time>
      </trkpt>
      <trkpt lat="43.1064030" lon="-3.1612630">
        <ele>271.3</ele>
        <time>2018-10-21T09:59:23Z</time>
      </trkpt>
      <trkpt lat="43.1064500" lon="-3.1611720">
        <ele>271.3</ele>
        <time>2018-10-21T09:59:24Z</time>
      </trkpt>
      <trkpt lat="43.1065020" lon="-3.1610780">
        <ele>271.3</ele>
        <time>2018-10-21T09:59:25Z</time>
      </trkpt>
      <trkpt lat="43.1065570" lon="-3.1609870">
        <ele>271.3</ele>
        <time>2018-10-21T09:59:26Z</time>
      </trkpt>
      <trkpt lat="43.1066170" lon="-3.1609000">
        <ele>271.3</ele>
        <time>2018-10-21T09:59:27Z</time>
      </trkpt>
      <trkpt lat="43.1066830" lon="-3.1608250">
        <ele>271.3</ele>
        <time>2018-10-21T09:59:28Z</time>
      </trkpt>
      <trkpt lat="43.1067550" lon="-3.1607530">
        <ele>270.2</ele>
        <time>2018-10-21T09:59:29Z</time>
      </trkpt>
      <trkpt lat="43.1068330" lon="-3.1606920">
        <ele>270.2</ele>
        <time>2018-10-21T09:59:30Z</time>
      </trkpt>
      <trkpt lat="43.1069180" lon="-3.1606450">
        <ele>270.2</ele>
        <time>2018-10-21T09:59:31Z</time>
      </trkpt>
      <trkpt lat="43.1070070" lon="-3.1606150">
        <ele>270.2</ele>
        <time>2018-10-21T09:59:32Z</time>
      </trkpt>
      <trkpt lat="43.1070970" lon="-3.1606070">
        <ele>270.2</ele>
        <time>2018-10-21T09:59:33Z</time>
      </trkpt>
      <trkpt lat="43.1071880" lon="-3.1606130">
        <ele>270.2</ele>
        <time>2018-10-21T09:59:34Z</time>
      </trkpt>
      <trkpt lat="43.1072800" lon="-3.1606330">
        <ele>270.2</ele>
        <time>2018-10-21T09:59:35Z</time>
      </trkpt>
      <trkpt lat="43.1073680" lon="-3.1606650">
        <ele>270.2</ele>
        <time>2018-10-21T09:59:36Z</time>
      </trkpt>
      <trkpt lat="43.1074550" lon="-3.1607020">
        <ele>268.2</ele>
        <time>2018-10-21T09:59:37Z</time>
      </trkpt>
      <trkpt lat="43.1075380" lon="-3.1607350">
        <ele>268.2</ele>
        <time>2018-10-21T09:59:38Z</time>
      </trkpt>
      <trkpt lat="43.1076230" lon="-3.1607580">
        <ele>266.2</ele>
        <time>2018-10-21T09:59:39Z</time>
      </trkpt>
      <trkpt lat="43.1077070" lon="-3.1607620">
        <ele>266.2</ele>
        <time>2018-10-21T09:59:40Z</time>
      </trkpt>
      <trkpt lat="43.1077880" lon="-3.1607380">
        <ele>265.2</ele>
        <time>2018-10-21T09:59:41Z</time>
      </trkpt>
      <trkpt lat="43.1078670" lon="-3.1606920">
        <ele>265.2</ele>
        <time>2018-10-21T09:59:42Z</time>
      </trkpt>
      <trkpt lat="43.1079400" lon="-3.1606200">
        <ele>263.2</ele>
        <time>2018-10-21T09:59:43Z</time>
      </trkpt>
      <trkpt lat="43.1080130" lon="-3.1605400">
        <ele>263.2</ele>
        <time>2018-10-21T09:59:44Z</time>
      </trkpt>
      <trkpt lat="43.1080980" lon="-3.1604720">
        <ele>262.3</ele>
        <time>2018-10-21T09:59:45Z</time>
      </trkpt>
      <trkpt lat="43.1081950" lon="-3.1604200">
        <ele>262.3</ele>
        <time>2018-10-21T09:59:46Z</time>
      </trkpt>
      <trkpt lat="43.1082970" lon="-3.1603830">
        <ele>261.2</ele>
        <time>2018-10-21T09:59:47Z</time>
      </trkpt>
      <trkpt lat="43.1084030" lon="-3.1603600">
        <ele>261.2</ele>
        <time>2018-10-21T09:59:48Z</time>
      </trkpt>
      <trkpt lat="43.1085120" lon="-3.1603520">
        <ele>259.2</ele>
        <time>2018-10-21T09:59:49Z</time>
      </trkpt>
      <trkpt lat="43.1086220" lon="-3.1603530">
        <ele>259.2</ele>
        <time>2018-10-21T09:59:50Z</time>
      </trkpt>
      <trkpt lat="43.1087270" lon="-3.1603600">
        <ele>258.2</ele>
        <time>2018-10-21T09:59:51Z</time>
      </trkpt>
      <trkpt lat="43.1088220" lon="-3.1603630">
        <ele>258.2</ele>
        <time>2018-10-21T09:59:52Z</time>
      </trkpt>
      <trkpt lat="43.1089030" lon="-3.1603720">
        <ele>256.2</ele>
        <time>2018-10-21T09:59:53Z</time>
      </trkpt>
      <trkpt lat="43.1089800" lon="-3.1603750">
        <ele>256.2</ele>
        <time>2018-10-21T09:59:54Z</time>
      </trkpt>
      <trkpt lat="43.1090500" lon="-3.1603630">
        <ele>255.3</ele>
        <time>2018-10-21T09:59:55Z</time>
      </trkpt>
      <trkpt lat="43.1091200" lon="-3.1603220">
        <ele>255.3</ele>
        <time>2018-10-21T09:59:56Z</time>
      </trkpt>
      <trkpt lat="43.1091820" lon="-3.1602480">
        <ele>254.2</ele>
        <time>2018-10-21T09:59:57Z</time>
      </trkpt>
      <trkpt lat="43.1092370" lon="-3.1601530">
        <ele>254.2</ele>
        <time>2018-10-21T09:59:58Z</time>
      </trkpt>
      <trkpt lat="43.1092920" lon="-3.1600450">
        <ele>252.2</ele>
        <time>2018-10-21T09:59:59Z</time>
      </trkpt>
      <trkpt lat="43.1093450" lon="-3.1599320">
        <ele>252.2</ele>
        <time>2018-10-21T10:00:00Z</time>
      </trkpt>
      <trkpt lat="43.1094000" lon="-3.1598150">
        <ele>251.3</ele>
        <time>2018-10-21T10:00:01Z</time>
      </trkpt>
      <trkpt lat="43.1094550" lon="-3.1596930">
        <ele>251.3</ele>
        <time>2018-10-21T10:00:02Z</time>
      </trkpt>
      <trkpt lat="43.1095130" lon="-3.1595670">
        <ele>250.2</ele>
        <time>2018-10-21T10:00:03Z</time>
      </trkpt>
      <trkpt lat="43.1095670" lon="-3.1594300">
        <ele>250.2</ele>
        <time>2018-10-21T10:00:04Z</time>
      </trkpt>
      <trkpt lat="43.1096130" lon="-3.1592850">
        <ele>248.3</ele>
        <time>2018-10-21T10:00:05Z</time>
      </trkpt>
      <trkpt lat="43.1096570" lon="-3.1591380">
        <ele>248.3</ele>
        <time>2018-10-21T10:00:06Z</time>
      </trkpt>
      <trkpt lat="43.1096930" lon="-3.1589930">
        <ele>247.2</ele>
        <time>2018-10-21T10:00:07Z</time>
      </trkpt>
      <trkpt lat="43.1097300" lon="-3.1588520">
        <ele>247.2</ele>
        <time>2018-10-21T10:00:08Z</time>
      </trkpt>
      <trkpt lat="43.1097700" lon="-3.1587120">
        <ele>245.2</ele>
        <time>2018-10-21T10:00:09Z</time>
      </trkpt>
      <trkpt lat="43.1098200" lon="-3.1585770">
        <ele>245.2</ele>
        <time>2018-10-21T10:00:10Z</time>
      </trkpt>
      <trkpt lat="43.1098830" lon="-3.1584480">
        <ele>243.2</ele>
        <time>2018-10-21T10:00:11Z</time>
      </trkpt>
      <trkpt lat="43.1099580" lon="-3.1583300">
        <ele>243.2</ele>
        <time>2018-10-21T10:00:12Z</time>
      </trkpt>
      <trkpt lat="43.1100400" lon="-3.1582150">
        <ele>242.2</ele>
        <time>2018-10-21T10:00:13Z</time>
      </trkpt>
      <trkpt lat="43.1101250" lon="-3.1581030">
        <ele>242.2</ele>
        <time>2018-10-21T10:00:14Z</time>
      </trkpt>
      <trkpt lat="43.1102200" lon="-3.1580080">
        <ele>241.3</ele>
        <time>2018-10-21T10:00:15Z</time>
      </trkpt>
      <trkpt lat="43.1103220" lon="-3.1579270">
        <ele>241.3</ele>
        <time>2018-10-21T10:00:16Z</time>
      </trkpt>
      <trkpt lat="43.1104280" lon="-3.1578480">
        <ele>239.3</ele>
        <time>2018-10-21T10:00:17Z</time>
      </trkpt>
      <trkpt lat="43.1105320" lon="-3.1577620">
        <ele>239.3</ele>
        <time>2018-10-21T10:00:18Z</time>
      </trkpt>
      <trkpt lat="43.1106300" lon="-3.1576670">
        <ele>239.3</ele>
        <time>2018-10-21T10:00:19Z</time>
      </trkpt>
      <trkpt lat="43.1107180" lon="-3.1575620">
        <ele>239.3</ele>
        <time>2018-10-21T10:00:20Z</time>
      </trkpt>
      <trkpt lat="43.1108000" lon="-3.1574470">
        <ele>239.3</ele>
        <time>2018-10-21T10:00:21Z</time>
      </trkpt>
      <trkpt lat="43.1108720" lon="-3.1573170">
        <ele>239.3</ele>
        <time>2018-10-21T10:00:22Z</time>
      </trkpt>
      <trkpt lat="43.1109350" lon="-3.1571770">
        <ele>233.2</ele>
        <time>2018-10-21T10:00:23Z</time>
      </trkpt>
      <trkpt lat="43.1109930" lon="-3.1570280">
        <ele>233.2</ele>
        <time>2018-10-21T10:00:24Z</time>
      </trkpt>
      <trkpt lat="43.1110520" lon="-3.1568770">
        <ele>231.2</ele>
        <time>2018-10-21T10:00:25Z</time>
      </trkpt>
      <trkpt lat="43.1111080" lon="-3.1567230">
        <ele>231.2</ele>
        <time>2018-10-21T10:00:26Z</time>
      </trkpt>
      <trkpt lat="43.1111650" lon="-3.1565730">
        <ele>229.2</ele>
        <time>2018-10-21T10:00:27Z</time>
      </trkpt>
      <trkpt lat="43.1112150" lon="-3.1564220">
        <ele>229.2</ele>
        <time>2018-10-21T10:00:28Z</time>
      </trkpt>
      <trkpt lat="43.1112570" lon="-3.1562670">
        <ele>227.2</ele>
        <time>2018-10-21T10:00:29Z</time>
      </trkpt>
      <trkpt lat="43.1112900" lon="-3.1561120">
        <ele>227.2</ele>
        <time>2018-10-21T10:00:30Z</time>
      </trkpt>
      <trkpt lat="43.1113150" lon="-3.1559680">
        <ele>224.2</ele>
        <time>2018-10-21T10:00:31Z</time>
      </trkpt>
      <trkpt lat="43.1113380" lon="-3.1558380">
        <ele>224.2</ele>
        <time>2018-10-21T10:00:32Z</time>
      </trkpt>
      <trkpt lat="43.1113680" lon="-3.1557280">
        <ele>222.2</ele>
        <time>2018-10-21T10:00:33Z</time>
      </trkpt>
      <trkpt lat="43.1114100" lon="-3.1556350">
        <ele>222.2</ele>
        <time>2018-10-21T10:00:34Z</time>
      </trkpt>
      <trkpt lat="43.1114670" lon="-3.1555650">
        <ele>221.3</ele>
        <time>2018-10-21T10:00:35Z</time>
      </trkpt>
      <trkpt lat="43.1115370" lon="-3.1555280">
        <ele>221.3</ele>
        <time>2018-10-21T10:00:36Z</time>
      </trkpt>
      <trkpt lat="43.1116130" lon="-3.1555230">
        <ele>221.3</ele>
        <time>2018-10-21T10:00:37Z</time>
      </trkpt>
      <trkpt lat="43.1116920" lon="-3.1555370">
        <ele>221.3</ele>
        <time>2018-10-21T10:00:38Z</time>
      </trkpt>
      <trkpt lat="43.1117650" lon="-3.1555470">
        <ele>221.3</ele>
        <time>2018-10-21T10:00:39Z</time>
      </trkpt>
      <trkpt lat="43.1118380" lon="-3.1555400">
        <ele>221.3</ele>
        <time>2018-10-21T10:00:40Z</time>
      </trkpt>
      <trkpt lat="43.1119070" lon="-3.1555170">
        <ele>216.3</ele>
        <time>2018-10-21T10:00:41Z</time>
      </trkpt>
      <trkpt lat="43.1119650" lon="-3.1554780">
        <ele>216.3</ele>
        <time>2018-10-21T10:00:42Z</time>
      </trkpt>
      <trkpt lat="43.1120170" lon="-3.1554300">
        <ele>216.3</ele>
        <time>2018-10-21T10:00:43Z</time>
      </trkpt>
      <trkpt lat="43.1120650" lon="-3.1553970">
        <ele>216.3</ele>
        <time>2018-10-21T10:00:44Z</time>
      </trkpt>
      <trkpt lat="43.1121030" lon="-3.1553730">
        <ele>215.2</ele>
        <time>2018-10-21T10:00:45Z</time>
      </trkpt>
      <trkpt lat="43.1121370" lon="-3.1553530">
        <ele>215.2</ele>
        <time>2018-10-21T10:00:46Z</time>
      </trkpt>
      <trkpt lat="43.1121600" lon="-3.1553370">
        <ele>215.2</ele>
        <time>2018-10-21T10:00:47Z</time>
      </trkpt>
      <trkpt lat="43.1123440" lon="-3.1551150">
        <ele>216.3</ele>
        <time>2018-10-21T10:00:48Z</time>
      </trkpt>
      <trkpt lat="43.1125160" lon="-3.1549020">
        <ele>216.3</ele>
        <time>2018-10-21T10:05:10Z</time>
      </trkpt>
      <trkpt lat="43.1126870" lon="-3.1546900">
        <ele>216.3</ele>
        <time>2018-10-21T10:05:11Z</time>
      </trkpt>
      <trkpt lat="43.1127500" lon="-3.1546200">
        <ele>216.3</ele>
        <time>2018-10-21T10:05:12Z</time>
      </trkpt>
      <trkpt lat="43.1128150" lon="-3.1545470">
        <ele>216.3</ele>
        <time>2018-10-21T10:05:13Z</time>
      </trkpt>
      <trkpt lat="43.1128780" lon="-3.1544730">
        <ele>216.3</ele>
        <time>2018-10-21T10:05:14Z</time>
      </trkpt>
      <trkpt lat="43.1129420" lon="-3.1543970">
        <ele>214.3</ele>
        <time>2018-10-21T10:05:15Z</time>
      </trkpt>
      <trkpt lat="43.1130070" lon="-3.1543220">
        <ele>214.3</ele>
        <time>2018-10-21T10:05:16Z</time>
      </trkpt>
      <trkpt lat="43.1130650" lon="-3.1542420">
        <ele>214.3</ele>
        <time>2018-10-21T10:05:17Z</time>
      </trkpt>
      <trkpt lat="43.1131180" lon="-3.1541520">
        <ele>214.3</ele>
        <time>2018-10-21T10:05:18Z</time>
      </trkpt>
      <trkpt lat="43.1131650" lon="-3.1540450">
        <ele>214.3</ele>
        <time>2018-10-21T10:05:19Z</time>
      </trkpt>
      <trkpt lat="43.1132030" lon="-3.1539300">
        <ele>214.3</ele>
        <time>2018-10-21T10:05:20Z</time>
      </trkpt>
      <trkpt lat="43.1132400" lon="-3.1538100">
        <ele>214.3</ele>
        <time>2018-10-21T10:05:21Z</time>
      </trkpt>
      <trkpt lat="43.1132770" lon="-3.1536870">
        <ele>214.3</ele>
        <time>2018-10-21T10:05:22Z</time>
      </trkpt>
      <trkpt lat="43.1133070" lon="-3.1535600">
        <ele>214.3</ele>
        <time>2018-10-21T10:05:23Z</time>
      </trkpt>
      <trkpt lat="43.1133370" lon="-3.1534350">
        <ele>214.3</ele>
        <time>2018-10-21T10:05:24Z</time>
      </trkpt>
      <trkpt lat="43.1133720" lon="-3.1533080">
        <ele>214.3</ele>
        <time>2018-10-21T10:05:25Z</time>
      </trkpt>
      <trkpt lat="43.1134030" lon="-3.1531830">
        <ele>214.3</ele>
        <time>2018-10-21T10:05:26Z</time>
      </trkpt>
      <trkpt lat="43.1134330" lon="-3.1530550">
        <ele>214.3</ele>
        <time>2018-10-21T10:05:27Z</time>
      </trkpt>
      <trkpt lat="43.1134580" lon="-3.1529270">
        <ele>214.3</ele>
        <time>2018-10-21T10:05:28Z</time>
      </trkpt>
      <trkpt lat="43.1134830" lon="-3.1528000">
        <ele>214.3</ele>
        <time>2018-10-21T10:05:29Z</time>
      </trkpt>
      <trkpt lat="43.1135170" lon="-3.1526750">
        <ele>214.3</ele>
        <time>2018-10-21T10:05:30Z</time>
      </trkpt>
      <trkpt lat="43.1135620" lon="-3.1525550">
        <ele>214.3</ele>
        <time>2018-10-21T10:05:31Z</time>
      </trkpt>
      <trkpt lat="43.1136120" lon="-3.1524350">
        <ele>214.3</ele>
        <time>2018-10-21T10:05:32Z</time>
      </trkpt>
      <trkpt lat="43.1136670" lon="-3.1523180">
        <ele>214.3</ele>
        <time>2018-10-21T10:05:33Z</time>
      </trkpt>
      <trkpt lat="43.1137270" lon="-3.1522050">
        <ele>214.3</ele>
        <time>2018-10-21T10:05:34Z</time>
      </trkpt>
      <trkpt lat="43.1137870" lon="-3.1520900">
        <ele>213.2</ele>
        <time>2018-10-21T10:05:35Z</time>
      </trkpt>
      <trkpt lat="43.1138470" lon="-3.1519720">
        <ele>213.2</ele>
        <time>2018-10-21T10:05:36Z</time>
      </trkpt>
      <trkpt lat="43.1139080" lon="-3.1518520">
        <ele>212.3</ele>
        <time>2018-10-21T10:05:37Z</time>
      </trkpt>
      <trkpt lat="43.1139670" lon="-3.1517300">
        <ele>212.3</ele>
        <time>2018-10-21T10:05:38Z</time>
      </trkpt>
      <trkpt lat="43.1140180" lon="-3.1516000">
        <ele>211.2</ele>
        <time>2018-10-21T10:05:39Z</time>
      </trkpt>
      <trkpt lat="43.1140600" lon="-3.1514630">
        <ele>211.2</ele>
        <time>2018-10-21T10:05:40Z</time>
      </trkpt>
      <trkpt lat="43.1140930" lon="-3.1513230">
        <ele>210.2</ele>
        <time>2018-10-21T10:05:41Z</time>
      </trkpt>
      <trkpt lat="43.1141250" lon="-3.1511800">
        <ele>210.2</ele>
        <time>2018-10-21T10:05:42Z</time>
      </trkpt>
      <trkpt lat="43.1141580" lon="-3.1510380">
        <ele>210.2</ele>
        <time>2018-10-21T10:05:43Z</time>
      </trkpt>
      <trkpt lat="43.1141880" lon="-3.1508930">
        <ele>210.2</ele>
        <time>2018-10-21T10:05:44Z</time>
      </trkpt>
      <trkpt lat="43.1142170" lon="-3.1507480">
        <ele>209.2</ele>
        <time>2018-10-21T10:05:45Z</time>
      </trkpt>
      <trkpt lat="43.1142480" lon="-3.1506050">
        <ele>209.2</ele>
        <time>2018-10-21T10:05:46Z</time>
      </trkpt>
      <trkpt lat="43.1142770" lon="-3.1504620">
        <ele>209.2</ele>
        <time>2018-10-21T10:05:47Z</time>
      </trkpt>
      <trkpt lat="43.1143080" lon="-3.1503200">
        <ele>209.2</ele>
        <time>2018-10-21T10:05:48Z</time>
      </trkpt>
      <trkpt lat="43.1143400" lon="-3.1501800">
        <ele>209.2</ele>
        <time>2018-10-21T10:05:49Z</time>
      </trkpt>
      <trkpt lat="43.1143750" lon="-3.1500400">
        <ele>209.2</ele>
        <time>2018-10-21T10:05:50Z</time>
      </trkpt>
      <trkpt lat="43.1144120" lon="-3.1499050">
        <ele>208.2</ele>
        <time>2018-10-21T10:05:51Z</time>
      </trkpt>
      <trkpt lat="43.1144550" lon="-3.1497730">
        <ele>208.2</ele>
        <time>2018-10-21T10:05:52Z</time>
      </trkpt>
      <trkpt lat="43.1145120" lon="-3.1496570">
        <ele>208.2</ele>
        <time>2018-10-21T10:05:53Z</time>
      </trkpt>
      <trkpt lat="43.1145850" lon="-3.1495570">
        <ele>208.2</ele>
        <time>2018-10-21T10:05:54Z</time>
      </trkpt>
      <trkpt lat="43.1146700" lon="-3.1494770">
        <ele>207.3</ele>
        <time>2018-10-21T10:05:55Z</time>
      </trkpt>
      <trkpt lat="43.1147620" lon="-3.1494150">
        <ele>207.3</ele>
        <time>2018-10-21T10:05:56Z</time>
      </trkpt>
      <trkpt lat="43.1148570" lon="-3.1493620">
        <ele>207.3</ele>
        <time>2018-10-21T10:05:57Z</time>
      </trkpt>
      <trkpt lat="43.1149480" lon="-3.1493030">
        <ele>207.3</ele>
        <time>2018-10-21T10:05:58Z</time>
      </trkpt>
      <trkpt lat="43.1150300" lon="-3.1492230">
        <ele>206.2</ele>
        <time>2018-10-21T10:05:59Z</time>
      </trkpt>
      <trkpt lat="43.1150950" lon="-3.1491150">
        <ele>206.2</ele>
        <time>2018-10-21T10:06:00Z</time>
      </trkpt>
      <trkpt lat="43.1151470" lon="-3.1489920">
        <ele>205.3</ele>
        <time>2018-10-21T10:06:01Z</time>
      </trkpt>
      <trkpt lat="43.1151900" lon="-3.1488580">
        <ele>205.3</ele>
        <time>2018-10-21T10:06:02Z</time>
      </trkpt>
      <trkpt lat="43.1152350" lon="-3.1487250">
        <ele>205.3</ele>
        <time>2018-10-21T10:06:03Z</time>
      </trkpt>
      <trkpt lat="43.1152800" lon="-3.1485920">
        <ele>205.3</ele>
        <time>2018-10-21T10:06:04Z</time>
      </trkpt>
      <trkpt lat="43.1153230" lon="-3.1484580">
        <ele>204.2</ele>
        <time>2018-10-21T10:06:05Z</time>
      </trkpt>
      <trkpt lat="43.1153670" lon="-3.1483250">
        <ele>204.2</ele>
        <time>2018-10-21T10:06:06Z</time>
      </trkpt>
      <trkpt lat="43.1154120" lon="-3.1481920">
        <ele>204.2</ele>
        <time>2018-10-21T10:06:07Z</time>
      </trkpt>
      <trkpt lat="43.1154550" lon="-3.1480580">
        <ele>204.2</ele>
        <time>2018-10-21T10:06:08Z</time>
      </trkpt>
      <trkpt lat="43.1155000" lon="-3.1479270">
        <ele>203.3</ele>
        <time>2018-10-21T10:06:09Z</time>
      </trkpt>
      <trkpt lat="43.1155430" lon="-3.1477930">
        <ele>203.3</ele>
        <time>2018-10-21T10:06:10Z</time>
      </trkpt>
      <trkpt lat="43.1155870" lon="-3.1476600">
        <ele>203.3</ele>
        <time>2018-10-21T10:06:11Z</time>
      </trkpt>
      <trkpt lat="43.1156300" lon="-3.1475280">
        <ele>203.3</ele>
        <time>2018-10-21T10:06:12Z</time>
      </trkpt>
      <trkpt lat="43.1156730" lon="-3.1473970">
        <ele>203.3</ele>
        <time>2018-10-21T10:06:13Z</time>
      </trkpt>
      <trkpt lat="43.1157150" lon="-3.1472650">
        <ele>203.3</ele>
        <time>2018-10-21T10:06:14Z</time>
      </trkpt>
      <trkpt lat="43.1157570" lon="-3.1471370">
        <ele>203.3</ele>
        <time>2018-10-21T10:06:15Z</time>
      </trkpt>
      <trkpt lat="43.1158000" lon="-3.1470120">
        <ele>203.3</ele>
        <time>2018-10-21T10:06:16Z</time>
      </trkpt>
      <trkpt lat="43.1158420" lon="-3.1468830">
        <ele>203.3</ele>
        <time>2018-10-21T10:06:17Z</time>
      </trkpt>
      <trkpt lat="43.1158800" lon="-3.1467550">
        <ele>203.3</ele>
        <time>2018-10-21T10:06:18Z</time>
      </trkpt>
      <trkpt lat="43.1159200" lon="-3.1466250">
        <ele>203.3</ele>
        <time>2018-10-21T10:06:19Z</time>
      </trkpt>
      <trkpt lat="43.1159600" lon="-3.1464970">
        <ele>203.3</ele>
        <time>2018-10-21T10:06:20Z</time>
      </trkpt>
      <trkpt lat="43.1160020" lon="-3.1463680">
        <ele>203.3</ele>
        <time>2018-10-21T10:06:21Z</time>
      </trkpt>
      <trkpt lat="43.1160430" lon="-3.1462370">
        <ele>203.3</ele>
        <time>2018-10-21T10:06:22Z</time>
      </trkpt>
      <trkpt lat="43.1160850" lon="-3.1461030">
        <ele>203.3</ele>
        <time>2018-10-21T10:06:23Z</time>
      </trkpt>
      <trkpt lat="43.1161280" lon="-3.1459720">
        <ele>203.3</ele>
        <time>2018-10-21T10:06:24Z</time>
      </trkpt>
      <trkpt lat="43.1161720" lon="-3.1458400">
        <ele>203.3</ele>
        <time>2018-10-21T10:06:25Z</time>
      </trkpt>
      <trkpt lat="43.1162170" lon="-3.1457080">
        <ele>203.3</ele>
        <time>2018-10-21T10:06:26Z</time>
      </trkpt>
      <trkpt lat="43.1162600" lon="-3.1455800">
        <ele>202.2</ele>
        <time>2018-10-21T10:06:27Z</time>
      </trkpt>
      <trkpt lat="43.1163050" lon="-3.1454500">
        <ele>202.2</ele>
        <time>2018-10-21T10:06:28Z</time>
      </trkpt>
      <trkpt lat="43.1163480" lon="-3.1453220">
        <ele>201.2</ele>
        <time>2018-10-21T10:06:29Z</time>
      </trkpt>
      <trkpt lat="43.1163900" lon="-3.1451920">
        <ele>201.2</ele>
        <time>2018-10-21T10:06:30Z</time>
      </trkpt>
      <trkpt lat="43.1164300" lon="-3.1450630">
        <ele>201.2</ele>
        <time>2018-10-21T10:06:31Z</time>
      </trkpt>
      <trkpt lat="43.1164720" lon="-3.1449370">
        <ele>201.2</ele>
        <time>2018-10-21T10:06:32Z</time>
      </trkpt>
      <trkpt lat="43.1165130" lon="-3.1448120">
        <ele>200.3</ele>
        <time>2018-10-21T10:06:33Z</time>
      </trkpt>
      <trkpt lat="43.1165530" lon="-3.1446850">
        <ele>200.3</ele>
        <time>2018-10-21T10:06:34Z</time>
      </trkpt>
      <trkpt lat="43.1165970" lon="-3.1445600">
        <ele>200.3</ele>
        <time>2018-10-21T10:06:35Z</time>
      </trkpt>
      <trkpt lat="43.1166380" lon="-3.1444370">
        <ele>200.3</ele>
        <time>2018-10-21T10:06:36Z</time>
      </trkpt>
      <trkpt lat="43.1166770" lon="-3.1443130">
        <ele>200.3</ele>
        <time>2018-10-21T10:06:37Z</time>
      </trkpt>
      <trkpt lat="43.1167170" lon="-3.1441870">
        <ele>200.3</ele>
        <time>2018-10-21T10:06:38Z</time>
      </trkpt>
      <trkpt lat="43.1167600" lon="-3.1440550">
        <ele>200.3</ele>
        <time>2018-10-21T10:06:39Z</time>
      </trkpt>
      <trkpt lat="43.1168030" lon="-3.1439250">
        <ele>200.3</ele>
        <time>2018-10-21T10:06:40Z</time>
      </trkpt>
      <trkpt lat="43.1168450" lon="-3.1437920">
        <ele>200.3</ele>
        <time>2018-10-21T10:06:41Z</time>
      </trkpt>
      <trkpt lat="43.1168880" lon="-3.1436580">
        <ele>200.3</ele>
        <time>2018-10-21T10:06:42Z</time>
      </trkpt>
      <trkpt lat="43.1169330" lon="-3.1435230">
        <ele>199.2</ele>
        <time>2018-10-21T10:06:43Z</time>
      </trkpt>
      <trkpt lat="43.1169780" lon="-3.1433880">
        <ele>199.2</ele>
        <time>2018-10-21T10:06:44Z</time>
      </trkpt>
      <trkpt lat="43.1170230" lon="-3.1432520">
        <ele>199.2</ele>
        <time>2018-10-21T10:06:45Z</time>
      </trkpt>
      <trkpt lat="43.1170680" lon="-3.1431170">
        <ele>199.2</ele>
        <time>2018-10-21T10:06:46Z</time>
      </trkpt>
      <trkpt lat="43.1171120" lon="-3.1429820">
        <ele>199.2</ele>
        <time>2018-10-21T10:06:47Z</time>
      </trkpt>
      <trkpt lat="43.1171530" lon="-3.1428480">
        <ele>199.2</ele>
        <time>2018-10-21T10:06:48Z</time>
      </trkpt>
      <trkpt lat="43.1171970" lon="-3.1427180">
        <ele>198.3</ele>
        <time>2018-10-21T10:06:49Z</time>
      </trkpt>
      <trkpt lat="43.1172420" lon="-3.1425880">
        <ele>198.3</ele>
        <time>2018-10-21T10:06:50Z</time>
      </trkpt>
      <trkpt lat="43.1172830" lon="-3.1424570">
        <ele>198.3</ele>
        <time>2018-10-21T10:06:51Z</time>
      </trkpt>
      <trkpt lat="43.1173230" lon="-3.1423270">
        <ele>198.3</ele>
        <time>2018-10-21T10:06:52Z</time>
      </trkpt>
      <trkpt lat="43.1173650" lon="-3.1422000">
        <ele>198.3</ele>
        <time>2018-10-21T10:06:53Z</time>
      </trkpt>
      <trkpt lat="43.1174050" lon="-3.1420750">
        <ele>198.3</ele>
        <time>2018-10-21T10:06:54Z</time>
      </trkpt>
      <trkpt lat="43.1174470" lon="-3.1419520">
        <ele>198.3</ele>
        <time>2018-10-21T10:06:55Z</time>
      </trkpt>
      <trkpt lat="43.1174870" lon="-3.1418300">
        <ele>198.3</ele>
        <time>2018-10-21T10:06:56Z</time>
      </trkpt>
      <trkpt lat="43.1175270" lon="-3.1417100">
        <ele>198.3</ele>
        <time>2018-10-21T10:06:57Z</time>
      </trkpt>
      <trkpt lat="43.1175650" lon="-3.1415900">
        <ele>198.3</ele>
        <time>2018-10-21T10:06:58Z</time>
      </trkpt>
      <trkpt lat="43.1176020" lon="-3.1414680">
        <ele>198.3</ele>
        <time>2018-10-21T10:06:59Z</time>
      </trkpt>
      <trkpt lat="43.1176330" lon="-3.1413470">
        <ele>198.3</ele>
        <time>2018-10-21T10:07:00Z</time>
      </trkpt>
      <trkpt lat="43.1176580" lon="-3.1412220">
        <ele>198.3</ele>
        <time>2018-10-21T10:07:01Z</time>
      </trkpt>
      <trkpt lat="43.1176750" lon="-3.1410950">
        <ele>198.3</ele>
        <time>2018-10-21T10:07:02Z</time>
      </trkpt>
      <trkpt lat="43.1176850" lon="-3.1409670">
        <ele>198.3</ele>
        <time>2018-10-21T10:07:03Z</time>
      </trkpt>
      <trkpt lat="43.1176900" lon="-3.1408370">
        <ele>198.3</ele>
        <time>2018-10-21T10:07:04Z</time>
      </trkpt>
      <trkpt lat="43.1176980" lon="-3.1407080">
        <ele>198.3</ele>
        <time>2018-10-21T10:07:05Z</time>
      </trkpt>
      <trkpt lat="43.1177100" lon="-3.1405750">
        <ele>198.3</ele>
        <time>2018-10-21T10:07:06Z</time>
      </trkpt>
      <trkpt lat="43.1177320" lon="-3.1404450">
        <ele>198.3</ele>
        <time>2018-10-21T10:07:07Z</time>
      </trkpt>
      <trkpt lat="43.1177580" lon="-3.1403130">
        <ele>198.3</ele>
        <time>2018-10-21T10:07:08Z</time>
      </trkpt>
      <trkpt lat="43.1177870" lon="-3.1401800">
        <ele>197.2</ele>
        <time>2018-10-21T10:07:09Z</time>
      </trkpt>
      <trkpt lat="43.1178200" lon="-3.1400470">
        <ele>197.2</ele>
        <time>2018-10-21T10:07:10Z</time>
      </trkpt>
      <trkpt lat="43.1178600" lon="-3.1399130">
        <ele>197.2</ele>
        <time>2018-10-21T10:07:11Z</time>
      </trkpt>
      <trkpt lat="43.1179020" lon="-3.1397800">
        <ele>197.2</ele>
        <time>2018-10-21T10:07:12Z</time>
      </trkpt>
      <trkpt lat="43.1179530" lon="-3.1396470">
        <ele>196.3</ele>
        <time>2018-10-21T10:07:13Z</time>
      </trkpt>
      <trkpt lat="43.1180120" lon="-3.1395150">
        <ele>196.3</ele>
        <time>2018-10-21T10:07:14Z</time>
      </trkpt>
      <trkpt lat="43.1180770" lon="-3.1393850">
        <ele>195.2</ele>
        <time>2018-10-21T10:07:15Z</time>
      </trkpt>
      <trkpt lat="43.1181470" lon="-3.1392570">
        <ele>195.2</ele>
        <time>2018-10-21T10:07:16Z</time>
      </trkpt>
      <trkpt lat="43.1182170" lon="-3.1391280">
        <ele>195.2</ele>
        <time>2018-10-21T10:07:17Z</time>
      </trkpt>
      <trkpt lat="43.1182880" lon="-3.1390030">
        <ele>195.2</ele>
        <time>2018-10-21T10:07:18Z</time>
      </trkpt>
      <trkpt lat="43.1183580" lon="-3.1388800">
        <ele>194.2</ele>
        <time>2018-10-21T10:07:19Z</time>
      </trkpt>
      <trkpt lat="43.1184270" lon="-3.1387630">
        <ele>194.2</ele>
        <time>2018-10-21T10:07:20Z</time>
      </trkpt>
      <trkpt lat="43.1184930" lon="-3.1386550">
        <ele>194.2</ele>
        <time>2018-10-21T10:07:21Z</time>
      </trkpt>
      <trkpt lat="43.1185570" lon="-3.1385520">
        <ele>194.2</ele>
        <time>2018-10-21T10:07:22Z</time>
      </trkpt>
      <trkpt lat="43.1186220" lon="-3.1384550">
        <ele>194.2</ele>
        <time>2018-10-21T10:07:23Z</time>
      </trkpt>
      <trkpt lat="43.1186800" lon="-3.1383600">
        <ele>194.2</ele>
        <time>2018-10-21T10:07:24Z</time>
      </trkpt>
      <trkpt lat="43.1187330" lon="-3.1382670">
        <ele>193.2</ele>
        <time>2018-10-21T10:07:25Z</time>
      </trkpt>
      <trkpt lat="43.1187850" lon="-3.1381800">
        <ele>193.2</ele>
        <time>2018-10-21T10:07:26Z</time>
      </trkpt>
      <trkpt lat="43.1188350" lon="-3.1380930">
        <ele>193.2</ele>
        <time>2018-10-21T10:07:27Z</time>
      </trkpt>
      <trkpt lat="43.1188870" lon="-3.1380070">
        <ele>193.2</ele>
        <time>2018-10-21T10:07:28Z</time>
      </trkpt>
      <trkpt lat="43.1189370" lon="-3.1379200">
        <ele>193.2</ele>
        <time>2018-10-21T10:07:29Z</time>
      </trkpt>
      <trkpt lat="43.1189880" lon="-3.1378300">
        <ele>193.2</ele>
        <time>2018-10-21T10:07:30Z</time>
      </trkpt>
      <trkpt lat="43.1190370" lon="-3.1377380">
        <ele>193.2</ele>
        <time>2018-10-21T10:07:31Z</time>
      </trkpt>
      <trkpt lat="43.1190830" lon="-3.1376430">
        <ele>193.2</ele>
        <time>2018-10-21T10:07:32Z</time>
      </trkpt>
      <trkpt lat="43.1191280" lon="-3.1375470">
        <ele>191.3</ele>
        <time>2018-10-21T10:07:33Z</time>
      </trkpt>
      <trkpt lat="43.1191700" lon="-3.1374470">
        <ele>191.3</ele>
        <time>2018-10-21T10:07:34Z</time>
      </trkpt>
      <trkpt lat="43.1192070" lon="-3.1373430">
        <ele>191.3</ele>
        <time>2018-10-21T10:07:35Z</time>
      </trkpt>
      <trkpt lat="43.1192380" lon="-3.1372370">
        <ele>191.3</ele>
        <time>2018-10-21T10:07:36Z</time>
      </trkpt>
      <trkpt lat="43.1192650" lon="-3.1371220">
        <ele>191.3</ele>
        <time>2018-10-21T10:07:37Z</time>
      </trkpt>
      <trkpt lat="43.1192920" lon="-3.1370080">
        <ele>191.3</ele>
        <time>2018-10-21T10:07:38Z</time>
      </trkpt>
      <trkpt lat="43.1193170" lon="-3.1368930">
        <ele>191.3</ele>
        <time>2018-10-21T10:07:39Z</time>
      </trkpt>
      <trkpt lat="43.1193330" lon="-3.1367780">
        <ele>191.3</ele>
        <time>2018-10-21T10:07:40Z</time>
      </trkpt>
      <trkpt lat="43.1193520" lon="-3.1366650">
        <ele>191.3</ele>
        <time>2018-10-21T10:07:41Z</time>
      </trkpt>
      <trkpt lat="43.1193680" lon="-3.1365550">
        <ele>191.3</ele>
        <time>2018-10-21T10:07:42Z</time>
      </trkpt>
      <trkpt lat="43.1193850" lon="-3.1364470">
        <ele>191.3</ele>
        <time>2018-10-21T10:07:43Z</time>
      </trkpt>
      <trkpt lat="43.1194020" lon="-3.1363400">
        <ele>191.3</ele>
        <time>2018-10-21T10:07:44Z</time>
      </trkpt>
      <trkpt lat="43.1194200" lon="-3.1362330">
        <ele>190.2</ele>
        <time>2018-10-21T10:07:45Z</time>
      </trkpt>
      <trkpt lat="43.1194430" lon="-3.1361280">
        <ele>190.2</ele>
        <time>2018-10-21T10:07:46Z</time>
      </trkpt>
      <trkpt lat="43.1194730" lon="-3.1360250">
        <ele>190.2</ele>
        <time>2018-10-21T10:07:47Z</time>
      </trkpt>
      <trkpt lat="43.1195050" lon="-3.1359200">
        <ele>190.2</ele>
        <time>2018-10-21T10:07:48Z</time>
      </trkpt>
      <trkpt lat="43.1195400" lon="-3.1358180">
        <ele>190.2</ele>
        <time>2018-10-21T10:07:49Z</time>
      </trkpt>
      <trkpt lat="43.1195770" lon="-3.1357100">
        <ele>190.2</ele>
        <time>2018-10-21T10:07:50Z</time>
      </trkpt>
      <trkpt lat="43.1196130" lon="-3.1356030">
        <ele>190.2</ele>
        <time>2018-10-21T10:07:51Z</time>
      </trkpt>
      <trkpt lat="43.1196520" lon="-3.1354950">
        <ele>190.2</ele>
        <time>2018-10-21T10:07:52Z</time>
      </trkpt>
      <trkpt lat="43.1196900" lon="-3.1353850">
        <ele>190.2</ele>
        <time>2018-10-21T10:07:53Z</time>
      </trkpt>
      <trkpt lat="43.1197280" lon="-3.1352720">
        <ele>190.2</ele>
        <time>2018-10-21T10:07:54Z</time>
      </trkpt>
      <trkpt lat="43.1197630" lon="-3.1351570">
        <ele>187.3</ele>
        <time>2018-10-21T10:07:55Z</time>
      </trkpt>
      <trkpt lat="43.1197980" lon="-3.1350400">
        <ele>187.3</ele>
        <time>2018-10-21T10:07:56Z</time>
      </trkpt>
      <trkpt lat="43.1198330" lon="-3.1349230">
        <ele>187.3</ele>
        <time>2018-10-21T10:07:57Z</time>
      </trkpt>
      <trkpt lat="43.1198720" lon="-3.1348070">
        <ele>187.3</ele>
        <time>2018-10-21T10:07:58Z</time>
      </trkpt>
      <trkpt lat="43.1199080" lon="-3.1346900">
        <ele>186.2</ele>
        <time>2018-10-21T10:07:59Z</time>
      </trkpt>
      <trkpt lat="43.1199470" lon="-3.1345720">
        <ele>186.2</ele>
        <time>2018-10-21T10:08:00Z</time>
      </trkpt>
      <trkpt lat="43.1199820" lon="-3.1344530">
        <ele>186.2</ele>
        <time>2018-10-21T10:08:01Z</time>
      </trkpt>
      <trkpt lat="43.1200170" lon="-3.1343330">
        <ele>186.2</ele>
        <time>2018-10-21T10:08:02Z</time>
      </trkpt>
      <trkpt lat="43.1200530" lon="-3.1342150">
        <ele>185.2</ele>
        <time>2018-10-21T10:08:03Z</time>
      </trkpt>
      <trkpt lat="43.1200900" lon="-3.1340970">
        <ele>185.2</ele>
        <time>2018-10-21T10:08:04Z</time>
      </trkpt>
      <trkpt lat="43.1201250" lon="-3.1339780">
        <ele>185.2</ele>
        <time>2018-10-21T10:08:05Z</time>
      </trkpt>
      <trkpt lat="43.1201600" lon="-3.1338600">
        <ele>185.2</ele>
        <time>2018-10-21T10:08:06Z</time>
      </trkpt>
      <trkpt lat="43.1201930" lon="-3.1337420">
        <ele>185.2</ele>
        <time>2018-10-21T10:08:07Z</time>
      </trkpt>
      <trkpt lat="43.1202280" lon="-3.1336230">
        <ele>185.2</ele>
        <time>2018-10-21T10:08:08Z</time>
      </trkpt>
      <trkpt lat="43.1202630" lon="-3.1335050">
        <ele>184.3</ele>
        <time>2018-10-21T10:08:09Z</time>
      </trkpt>
      <trkpt lat="43.1202970" lon="-3.1333930">
        <ele>184.3</ele>
        <time>2018-10-21T10:08:10Z</time>
      </trkpt>
      <trkpt lat="43.1203300" lon="-3.1332830">
        <ele>184.3</ele>
        <time>2018-10-21T10:08:11Z</time>
      </trkpt>
      <trkpt lat="43.1203620" lon="-3.1331750">
        <ele>184.3</ele>
        <time>2018-10-21T10:08:12Z</time>
      </trkpt>
      <trkpt lat="43.1203920" lon="-3.1330700">
        <ele>184.3</ele>
        <time>2018-10-21T10:08:13Z</time>
      </trkpt>
      <trkpt lat="43.1204220" lon="-3.1329650">
        <ele>184.3</ele>
        <time>2018-10-21T10:08:14Z</time>
      </trkpt>
      <trkpt lat="43.1204520" lon="-3.1328620">
        <ele>184.3</ele>
        <time>2018-10-21T10:08:15Z</time>
      </trkpt>
      <trkpt lat="43.1204820" lon="-3.1327600">
        <ele>184.3</ele>
        <time>2018-10-21T10:08:16Z</time>
      </trkpt>
      <trkpt lat="43.1205130" lon="-3.1326620">
        <ele>184.3</ele>
        <time>2018-10-21T10:08:17Z</time>
      </trkpt>
      <trkpt lat="43.1205430" lon="-3.1325630">
        <ele>184.3</ele>
        <time>2018-10-21T10:08:18Z</time>
      </trkpt>
      <trkpt lat="43.1205700" lon="-3.1324700">
        <ele>184.3</ele>
        <time>2018-10-21T10:08:19Z</time>
      </trkpt>
      <trkpt lat="43.1205970" lon="-3.1323780">
        <ele>184.3</ele>
        <time>2018-10-21T10:08:20Z</time>
      </trkpt>
      <trkpt lat="43.1206250" lon="-3.1322920">
        <ele>184.3</ele>
        <time>2018-10-21T10:08:21Z</time>
      </trkpt>
      <trkpt lat="43.1206520" lon="-3.1322070">
        <ele>184.3</ele>
        <time>2018-10-21T10:08:22Z</time>
      </trkpt>
      <trkpt lat="43.1206780" lon="-3.1321230">
        <ele>184.3</ele>
        <time>2018-10-21T10:08:23Z</time>
      </trkpt>
      <trkpt lat="43.1207050" lon="-3.1320450">
        <ele>184.3</ele>
        <time>2018-10-21T10:08:24Z</time>
      </trkpt>
      <trkpt lat="43.1207320" lon="-3.1319700">
        <ele>186.2</ele>
        <time>2018-10-21T10:08:25Z</time>
      </trkpt>
      <trkpt lat="43.1207600" lon="-3.1318970">
        <ele>186.2</ele>
        <time>2018-10-21T10:08:26Z</time>
      </trkpt>
      <trkpt lat="43.1207900" lon="-3.1318250">
        <ele>186.2</ele>
        <time>2018-10-21T10:08:27Z</time>
      </trkpt>
      <trkpt lat="43.1208200" lon="-3.1317600">
        <ele>186.2</ele>
        <time>2018-10-21T10:08:28Z</time>
      </trkpt>
      <trkpt lat="43.1208500" lon="-3.1316980">
        <ele>187.3</ele>
        <time>2018-10-21T10:08:29Z</time>
      </trkpt>
      <trkpt lat="43.1208800" lon="-3.1316380">
        <ele>187.3</ele>
        <time>2018-10-21T10:08:30Z</time>
      </trkpt>
      <trkpt lat="43.1209080" lon="-3.1315820">
        <ele>188.2</ele>
        <time>2018-10-21T10:08:31Z</time>
      </trkpt>
      <trkpt lat="43.1209400" lon="-3.1315280">
        <ele>188.2</ele>
        <time>2018-10-21T10:08:32Z</time>
      </trkpt>
      <trkpt lat="43.1209720" lon="-3.1314730">
        <ele>188.2</ele>
        <time>2018-10-21T10:08:33Z</time>
      </trkpt>
      <trkpt lat="43.1210050" lon="-3.1314200">
        <ele>188.2</ele>
        <time>2018-10-21T10:08:34Z</time>
      </trkpt>
      <trkpt lat="43.1210380" lon="-3.1313650">
        <ele>188.2</ele>
        <time>2018-10-21T10:08:35Z</time>
      </trkpt>
      <trkpt lat="43.1210730" lon="-3.1313130">
        <ele>188.2</ele>
        <time>2018-10-21T10:08:36Z</time>
      </trkpt>
      <trkpt lat="43.1211080" lon="-3.1312630">
        <ele>188.2</ele>
        <time>2018-10-21T10:08:37Z</time>
      </trkpt>
      <trkpt lat="43.1211420" lon="-3.1312130">
        <ele>188.2</ele>
        <time>2018-10-21T10:08:38Z</time>
      </trkpt>
      <trkpt lat="43.1211780" lon="-3.1311650">
        <ele>191.3</ele>
        <time>2018-10-21T10:08:39Z</time>
      </trkpt>
      <trkpt lat="43.1212130" lon="-3.1311150">
        <ele>191.3</ele>
        <time>2018-10-21T10:08:40Z</time>
      </trkpt>
      <trkpt lat="43.1212480" lon="-3.1310650">
        <ele>191.3</ele>
        <time>2018-10-21T10:08:41Z</time>
      </trkpt>
      <trkpt lat="43.1212830" lon="-3.1310150">
        <ele>191.3</ele>
        <time>2018-10-21T10:08:42Z</time>
      </trkpt>
      <trkpt lat="43.1213180" lon="-3.1309670">
        <ele>192.2</ele>
        <time>2018-10-21T10:08:43Z</time>
      </trkpt>
      <trkpt lat="43.1213500" lon="-3.1309180">
        <ele>192.2</ele>
        <time>2018-10-21T10:08:44Z</time>
      </trkpt>
      <trkpt lat="43.1213850" lon="-3.1308720">
        <ele>192.2</ele>
        <time>2018-10-21T10:08:45Z</time>
      </trkpt>
      <trkpt lat="43.1214180" lon="-3.1308270">
        <ele>192.2</ele>
        <time>2018-10-21T10:08:46Z</time>
      </trkpt>
      <trkpt lat="43.1214530" lon="-3.1307850">
        <ele>194.2</ele>
        <time>2018-10-21T10:08:47Z</time>
      </trkpt>
      <trkpt lat="43.1214900" lon="-3.1307450">
        <ele>194.2</ele>
        <time>2018-10-21T10:08:48Z</time>
      </trkpt>
      <trkpt lat="43.1215270" lon="-3.1307150">
        <ele>194.2</ele>
        <time>2018-10-21T10:08:49Z</time>
      </trkpt>
      <trkpt lat="43.1215670" lon="-3.1306950">
        <ele>194.2</ele>
        <time>2018-10-21T10:08:50Z</time>
      </trkpt>
      <trkpt lat="43.1216070" lon="-3.1306870">
        <ele>195.2</ele>
        <time>2018-10-21T10:08:51Z</time>
      </trkpt>
      <trkpt lat="43.1216470" lon="-3.1306920">
        <ele>195.2</ele>
        <time>2018-10-21T10:08:52Z</time>
      </trkpt>
      <trkpt lat="43.1216870" lon="-3.1307050">
        <ele>195.2</ele>
        <time>2018-10-21T10:08:53Z</time>
      </trkpt>
      <trkpt lat="43.1217250" lon="-3.1307300">
        <ele>195.2</ele>
        <time>2018-10-21T10:08:54Z</time>
      </trkpt>
      <trkpt lat="43.1217600" lon="-3.1307570">
        <ele>195.2</ele>
        <time>2018-10-21T10:08:55Z</time>
      </trkpt>
      <trkpt lat="43.1217950" lon="-3.1307870">
        <ele>195.2</ele>
        <time>2018-10-21T10:08:56Z</time>
      </trkpt>
      <trkpt lat="43.1218300" lon="-3.1308100">
        <ele>195.2</ele>
        <time>2018-10-21T10:08:57Z</time>
      </trkpt>
      <trkpt lat="43.1218680" lon="-3.1308220">
        <ele>195.2</ele>
        <time>2018-10-21T10:08:58Z</time>
      </trkpt>
      <trkpt lat="43.1219100" lon="-3.1308150">
        <ele>195.2</ele>
        <time>2018-10-21T10:08:59Z</time>
      </trkpt>
      <trkpt lat="43.1219520" lon="-3.1307950">
        <ele>195.2</ele>
        <time>2018-10-21T10:09:00Z</time>
      </trkpt>
      <trkpt lat="43.1219880" lon="-3.1307670">
        <ele>195.2</ele>
        <time>2018-10-21T10:09:01Z</time>
      </trkpt>
      <trkpt lat="43.1220270" lon="-3.1307330">
        <ele>195.2</ele>
        <time>2018-10-21T10:09:02Z</time>
      </trkpt>
      <trkpt lat="43.1220630" lon="-3.1306970">
        <ele>195.2</ele>
        <time>2018-10-21T10:09:03Z</time>
      </trkpt>
      <trkpt lat="43.1221000" lon="-3.1306580">
        <ele>195.2</ele>
        <time>2018-10-21T10:09:04Z</time>
      </trkpt>
      <trkpt lat="43.1221370" lon="-3.1306220">
        <ele>195.2</ele>
        <time>2018-10-21T10:09:05Z</time>
      </trkpt>
      <trkpt lat="43.1221720" lon="-3.1305880">
        <ele>195.2</ele>
        <time>2018-10-21T10:09:06Z</time>
      </trkpt>
      <trkpt lat="43.1222080" lon="-3.1305550">
        <ele>195.2</ele>
        <time>2018-10-21T10:09:07Z</time>
      </trkpt>
      <trkpt lat="43.1222450" lon="-3.1305220">
        <ele>195.2</ele>
        <time>2018-10-21T10:09:08Z</time>
      </trkpt>
      <trkpt lat="43.1222830" lon="-3.1304920">
        <ele>195.2</ele>
        <time>2018-10-21T10:09:09Z</time>
      </trkpt>
      <trkpt lat="43.1223200" lon="-3.1304580">
        <ele>195.2</ele>
        <time>2018-10-21T10:09:10Z</time>
      </trkpt>
      <trkpt lat="43.1223570" lon="-3.1304250">
        <ele>195.2</ele>
        <time>2018-10-21T10:09:11Z</time>
      </trkpt>
      <trkpt lat="43.1223930" lon="-3.1303930">
        <ele>195.2</ele>
        <time>2018-10-21T10:09:12Z</time>
      </trkpt>
      <trkpt lat="43.1224280" lon="-3.1303620">
        <ele>195.2</ele>
        <time>2018-10-21T10:09:13Z</time>
      </trkpt>
      <trkpt lat="43.1224650" lon="-3.1303230">
        <ele>195.2</ele>
        <time>2018-10-21T10:09:14Z</time>
      </trkpt>
      <trkpt lat="43.1225000" lon="-3.1302770">
        <ele>195.2</ele>
        <time>2018-10-21T10:09:15Z</time>
      </trkpt>
      <trkpt lat="43.1225320" lon="-3.1302230">
        <ele>195.2</ele>
        <time>2018-10-21T10:09:16Z</time>
      </trkpt>
      <trkpt lat="43.1225570" lon="-3.1301600">
        <ele>195.2</ele>
        <time>2018-10-21T10:09:17Z</time>
      </trkpt>
      <trkpt lat="43.1225750" lon="-3.1300900">
        <ele>195.2</ele>
        <time>2018-10-21T10:09:18Z</time>
      </trkpt>
      <trkpt lat="43.1225880" lon="-3.1300170">
        <ele>195.2</ele>
        <time>2018-10-21T10:09:19Z</time>
      </trkpt>
      <trkpt lat="43.1225920" lon="-3.1299400">
        <ele>195.2</ele>
        <time>2018-10-21T10:09:20Z</time>
      </trkpt>
      <trkpt lat="43.1225900" lon="-3.1298650">
        <ele>194.2</ele>
        <time>2018-10-21T10:09:21Z</time>
      </trkpt>
      <trkpt lat="43.1225800" lon="-3.1297870">
        <ele>194.2</ele>
        <time>2018-10-21T10:09:22Z</time>
      </trkpt>
      <trkpt lat="43.1225720" lon="-3.1297080">
        <ele>194.2</ele>
        <time>2018-10-21T10:09:23Z</time>
      </trkpt>
      <trkpt lat="43.1225650" lon="-3.1296280">
        <ele>194.2</ele>
        <time>2018-10-21T10:09:24Z</time>
      </trkpt>
      <trkpt lat="43.1225620" lon="-3.1295480">
        <ele>194.2</ele>
        <time>2018-10-21T10:09:25Z</time>
      </trkpt>
      <trkpt lat="43.1225580" lon="-3.1294720">
        <ele>194.2</ele>
        <time>2018-10-21T10:09:26Z</time>
      </trkpt>
      <trkpt lat="43.1225520" lon="-3.1293920">
        <ele>194.2</ele>
        <time>2018-10-21T10:09:27Z</time>
      </trkpt>
      <trkpt lat="43.1225450" lon="-3.1293130">
        <ele>194.2</ele>
        <time>2018-10-21T10:09:28Z</time>
      </trkpt>
      <trkpt lat="43.1225380" lon="-3.1292330">
        <ele>194.2</ele>
        <time>2018-10-21T10:09:29Z</time>
      </trkpt>
      <trkpt lat="43.1225300" lon="-3.1291550">
        <ele>194.2</ele>
        <time>2018-10-21T10:09:30Z</time>
      </trkpt>
      <trkpt lat="43.1225180" lon="-3.1290780">
        <ele>194.2</ele>
        <time>2018-10-21T10:09:31Z</time>
      </trkpt>
      <trkpt lat="43.1225030" lon="-3.1290020">
        <ele>194.2</ele>
        <time>2018-10-21T10:09:32Z</time>
      </trkpt>
      <trkpt lat="43.1224870" lon="-3.1289270">
        <ele>194.2</ele>
        <time>2018-10-21T10:09:33Z</time>
      </trkpt>
      <trkpt lat="43.1224670" lon="-3.1288530">
        <ele>194.2</ele>
        <time>2018-10-21T10:09:34Z</time>
      </trkpt>
      <trkpt lat="43.1224430" lon="-3.1287770">
        <ele>194.2</ele>
        <time>2018-10-21T10:09:35Z</time>
      </trkpt>
      <trkpt lat="43.1224200" lon="-3.1287000">
        <ele>194.2</ele>
        <time>2018-10-21T10:09:36Z</time>
      </trkpt>
      <trkpt lat="43.1223930" lon="-3.1286230">
        <ele>194.2</ele>
        <time>2018-10-21T10:09:37Z</time>
      </trkpt>
      <trkpt lat="43.1223650" lon="-3.1285470">
        <ele>194.2</ele>
        <time>2018-10-21T10:09:38Z</time>
      </trkpt>
      <trkpt lat="43.1223380" lon="-3.1284680">
        <ele>194.2</ele>
        <time>2018-10-21T10:09:39Z</time>
      </trkpt>
      <trkpt lat="43.1223120" lon="-3.1283870">
        <ele>194.2</ele>
        <time>2018-10-21T10:09:40Z</time>
      </trkpt>
      <trkpt lat="43.1222820" lon="-3.1283050">
        <ele>194.2</ele>
        <time>2018-10-21T10:09:41Z</time>
      </trkpt>
      <trkpt lat="43.1222480" lon="-3.1282220">
        <ele>194.2</ele>
        <time>2018-10-21T10:09:42Z</time>
      </trkpt>
      <trkpt lat="43.1222150" lon="-3.1281400">
        <ele>193.2</ele>
        <time>2018-10-21T10:09:43Z</time>
      </trkpt>
      <trkpt lat="43.1221850" lon="-3.1280580">
        <ele>193.2</ele>
        <time>2018-10-21T10:09:44Z</time>
      </trkpt>
      <trkpt lat="43.1221580" lon="-3.1279750">
        <ele>193.2</ele>
        <time>2018-10-21T10:09:45Z</time>
      </trkpt>
      <trkpt lat="43.1221380" lon="-3.1278880">
        <ele>193.2</ele>
        <time>2018-10-21T10:09:46Z</time>
      </trkpt>
      <trkpt lat="43.1221230" lon="-3.1278020">
        <ele>193.2</ele>
        <time>2018-10-21T10:09:47Z</time>
      </trkpt>
      <trkpt lat="43.1221150" lon="-3.1277150">
        <ele>193.2</ele>
        <time>2018-10-21T10:09:48Z</time>
      </trkpt>
      <trkpt lat="43.1221070" lon="-3.1276270">
        <ele>192.2</ele>
        <time>2018-10-21T10:09:49Z</time>
      </trkpt>
      <trkpt lat="43.1221000" lon="-3.1275350">
        <ele>192.2</ele>
        <time>2018-10-21T10:09:50Z</time>
      </trkpt>
      <trkpt lat="43.1220950" lon="-3.1274430">
        <ele>192.2</ele>
        <time>2018-10-21T10:09:51Z</time>
      </trkpt>
      <trkpt lat="43.1220920" lon="-3.1273500">
        <ele>192.2</ele>
        <time>2018-10-21T10:09:52Z</time>
      </trkpt>
      <trkpt lat="43.1220870" lon="-3.1272550">
        <ele>192.2</ele>
        <time>2018-10-21T10:09:53Z</time>
      </trkpt>
      <trkpt lat="43.1220830" lon="-3.1271600">
        <ele>192.2</ele>
        <time>2018-10-21T10:09:54Z</time>
      </trkpt>
      <trkpt lat="43.1220780" lon="-3.1270620">
        <ele>191.3</ele>
        <time>2018-10-21T10:09:55Z</time>
      </trkpt>
      <trkpt lat="43.1220720" lon="-3.1269620">
        <ele>191.3</ele>
        <time>2018-10-21T10:09:56Z</time>
      </trkpt>
      <trkpt lat="43.1220630" lon="-3.1268620">
        <ele>191.3</ele>
        <time>2018-10-21T10:09:57Z</time>
      </trkpt>
      <trkpt lat="43.1220550" lon="-3.1267570">
        <ele>191.3</ele>
        <time>2018-10-21T10:09:58Z</time>
      </trkpt>
      <trkpt lat="43.1220430" lon="-3.1266500">
        <ele>190.2</ele>
        <time>2018-10-21T10:09:59Z</time>
      </trkpt>
      <trkpt lat="43.1220350" lon="-3.1265420">
        <ele>190.2</ele>
        <time>2018-10-21T10:10:00Z</time>
      </trkpt>
      <trkpt lat="43.1220280" lon="-3.1264320">
        <ele>190.2</ele>
        <time>2018-10-21T10:10:01Z</time>
      </trkpt>
      <trkpt lat="43.1220220" lon="-3.1263220">
        <ele>190.2</ele>
        <time>2018-10-21T10:10:02Z</time>
      </trkpt>
      <trkpt lat="43.1220200" lon="-3.1262170">
        <ele>190.2</ele>
        <time>2018-10-21T10:10:03Z</time>
      </trkpt>
      <trkpt lat="43.1220230" lon="-3.1261100">
        <ele>190.2</ele>
        <time>2018-10-21T10:10:04Z</time>
      </trkpt>
      <trkpt lat="43.1220330" lon="-3.1260050">
        <ele>189.3</ele>
        <time>2018-10-21T10:10:05Z</time>
      </trkpt>
      <trkpt lat="43.1220500" lon="-3.1259000">
        <ele>189.3</ele>
        <time>2018-10-21T10:10:06Z</time>
      </trkpt>
      <trkpt lat="43.1220750" lon="-3.1257970">
        <ele>189.3</ele>
        <time>2018-10-21T10:10:07Z</time>
      </trkpt>
      <trkpt lat="43.1221050" lon="-3.1256950">
        <ele>189.3</ele>
        <time>2018-10-21T10:10:08Z</time>
      </trkpt>
      <trkpt lat="43.1221370" lon="-3.1255920">
        <ele>189.3</ele>
        <time>2018-10-21T10:10:09Z</time>
      </trkpt>
      <trkpt lat="43.1221730" lon="-3.1254900">
        <ele>189.3</ele>
        <time>2018-10-21T10:10:10Z</time>
      </trkpt>
      <trkpt lat="43.1222100" lon="-3.1253880">
        <ele>189.3</ele>
        <time>2018-10-21T10:10:11Z</time>
      </trkpt>
      <trkpt lat="43.1222470" lon="-3.1252850">
        <ele>189.3</ele>
        <time>2018-10-21T10:10:12Z</time>
      </trkpt>
      <trkpt lat="43.1222850" lon="-3.1251800">
        <ele>188.2</ele>
        <time>2018-10-21T10:10:13Z</time>
      </trkpt>
      <trkpt lat="43.1223200" lon="-3.1250730">
        <ele>188.2</ele>
        <time>2018-10-21T10:10:14Z</time>
      </trkpt>
      <trkpt lat="43.1223530" lon="-3.1249670">
        <ele>187.3</ele>
        <time>2018-10-21T10:10:15Z</time>
      </trkpt>
      <trkpt lat="43.1223880" lon="-3.1248630">
        <ele>187.3</ele>
        <time>2018-10-21T10:10:16Z</time>
      </trkpt>
      <trkpt lat="43.1224270" lon="-3.1247580">
        <ele>187.3</ele>
        <time>2018-10-21T10:10:17Z</time>
      </trkpt>
      <trkpt lat="43.1224620" lon="-3.1246550">
        <ele>187.3</ele>
        <time>2018-10-21T10:10:18Z</time>
      </trkpt>
      <trkpt lat="43.1224980" lon="-3.1245480">
        <ele>187.3</ele>
        <time>2018-10-21T10:10:19Z</time>
      </trkpt>
      <trkpt lat="43.1225350" lon="-3.1244380">
        <ele>187.3</ele>
        <time>2018-10-21T10:10:20Z</time>
      </trkpt>
      <trkpt lat="43.1225720" lon="-3.1243270">
        <ele>187.3</ele>
        <time>2018-10-21T10:10:21Z</time>
      </trkpt>
      <trkpt lat="43.1226100" lon="-3.1242170">
        <ele>187.3</ele>
        <time>2018-10-21T10:10:22Z</time>
      </trkpt>
      <trkpt lat="43.1226480" lon="-3.1241100">
        <ele>184.3</ele>
        <time>2018-10-21T10:10:23Z</time>
      </trkpt>
      <trkpt lat="43.1226870" lon="-3.1240050">
        <ele>184.3</ele>
        <time>2018-10-21T10:10:24Z</time>
      </trkpt>
      <trkpt lat="43.1227230" lon="-3.1238980">
        <ele>183.2</ele>
        <time>2018-10-21T10:10:25Z</time>
      </trkpt>
      <trkpt lat="43.1227620" lon="-3.1237920">
        <ele>183.2</ele>
        <time>2018-10-21T10:10:26Z</time>
      </trkpt>
      <trkpt lat="43.1227980" lon="-3.1236850">
        <ele>182.3</ele>
        <time>2018-10-21T10:10:27Z</time>
      </trkpt>
      <trkpt lat="43.1228350" lon="-3.1235780">
        <ele>182.3</ele>
        <time>2018-10-21T10:10:28Z</time>
      </trkpt>
      <trkpt lat="43.1228730" lon="-3.1234730">
        <ele>182.3</ele>
        <time>2018-10-21T10:10:29Z</time>
      </trkpt>
      <trkpt lat="43.1229100" lon="-3.1233670">
        <ele>182.3</ele>
        <time>2018-10-21T10:10:30Z</time>
      </trkpt>
      <trkpt lat="43.1229480" lon="-3.1232570">
        <ele>181.2</ele>
        <time>2018-10-21T10:10:31Z</time>
      </trkpt>
      <trkpt lat="43.1229880" lon="-3.1231470">
        <ele>181.2</ele>
        <time>2018-10-21T10:10:32Z</time>
      </trkpt>
      <trkpt lat="43.1230270" lon="-3.1230330">
        <ele>181.2</ele>
        <time>2018-10-21T10:10:33Z</time>
      </trkpt>
      <trkpt lat="43.1230650" lon="-3.1229170">
        <ele>181.2</ele>
        <time>2018-10-21T10:10:34Z</time>
      </trkpt>
      <trkpt lat="43.1231080" lon="-3.1228020">
        <ele>181.2</ele>
        <time>2018-10-21T10:10:35Z</time>
      </trkpt>
      <trkpt lat="43.1231470" lon="-3.1226830">
        <ele>181.2</ele>
        <time>2018-10-21T10:10:36Z</time>
      </trkpt>
      <trkpt lat="43.1231830" lon="-3.1225700">
        <ele>180.3</ele>
        <time>2018-10-21T10:10:37Z</time>
      </trkpt>
      <trkpt lat="43.1232170" lon="-3.1224580">
        <ele>180.3</ele>
        <time>2018-10-21T10:10:38Z</time>
      </trkpt>
      <trkpt lat="43.1232530" lon="-3.1223520">
        <ele>179.2</ele>
        <time>2018-10-21T10:10:39Z</time>
      </trkpt>
      <trkpt lat="43.1232900" lon="-3.1222480">
        <ele>179.2</ele>
        <time>2018-10-21T10:10:40Z</time>
      </trkpt>
      <trkpt lat="43.1233230" lon="-3.1221500">
        <ele>178.3</ele>
        <time>2018-10-21T10:10:41Z</time>
      </trkpt>
      <trkpt lat="43.1233570" lon="-3.1220470">
        <ele>178.3</ele>
        <time>2018-10-21T10:10:42Z</time>
      </trkpt>
      <trkpt lat="43.1233920" lon="-3.1219400">
        <ele>177.2</ele>
        <time>2018-10-21T10:10:43Z</time>
      </trkpt>
      <trkpt lat="43.1234250" lon="-3.1218380">
        <ele>177.2</ele>
        <time>2018-10-21T10:10:44Z</time>
      </trkpt>
      <trkpt lat="43.1234580" lon="-3.1217380">
        <ele>176.2</ele>
        <time>2018-10-21T10:10:45Z</time>
      </trkpt>
      <trkpt lat="43.1234920" lon="-3.1216430">
        <ele>176.2</ele>
        <time>2018-10-21T10:10:46Z</time>
      </trkpt>
      <trkpt lat="43.1235200" lon="-3.1215500">
        <ele>176.2</ele>
        <time>2018-10-21T10:10:47Z</time>
      </trkpt>
      <trkpt lat="43.1235370" lon="-3.1214550">
        <ele>176.2</ele>
        <time>2018-10-21T10:10:48Z</time>
      </trkpt>
      <trkpt lat="43.1235320" lon="-3.1213600">
        <ele>176.2</ele>
        <time>2018-10-21T10:10:49Z</time>
      </trkpt>
      <trkpt lat="43.1235180" lon="-3.1212630">
        <ele>176.2</ele>
        <time>2018-10-21T10:10:50Z</time>
      </trkpt>
      <trkpt lat="43.1235220" lon="-3.1211630">
        <ele>174.2</ele>
        <time>2018-10-21T10:10:51Z</time>
      </trkpt>
      <trkpt lat="43.1235520" lon="-3.1210670">
        <ele>174.2</ele>
        <time>2018-10-21T10:10:52Z</time>
      </trkpt>
      <trkpt lat="43.1236100" lon="-3.1209950">
        <ele>173.3</ele>
        <time>2018-10-21T10:10:53Z</time>
      </trkpt>
      <trkpt lat="43.1236830" lon="-3.1209620">
        <ele>173.3</ele>
        <time>2018-10-21T10:10:54Z</time>
      </trkpt>
      <trkpt lat="43.1237620" lon="-3.1209630">
        <ele>173.3</ele>
        <time>2018-10-21T10:10:55Z</time>
      </trkpt>
      <trkpt lat="43.1238370" lon="-3.1209820">
        <ele>173.3</ele>
        <time>2018-10-21T10:10:56Z</time>
      </trkpt>
      <trkpt lat="43.1239120" lon="-3.1209950">
        <ele>173.3</ele>
        <time>2018-10-21T10:10:57Z</time>
      </trkpt>
      <trkpt lat="43.1239870" lon="-3.1210000">
        <ele>173.3</ele>
        <time>2018-10-21T10:10:58Z</time>
      </trkpt>
      <trkpt lat="43.1240620" lon="-3.1209930">
        <ele>173.3</ele>
        <time>2018-10-21T10:10:59Z</time>
      </trkpt>
      <trkpt lat="43.1241370" lon="-3.1209700">
        <ele>173.3</ele>
        <time>2018-10-21T10:11:00Z</time>
      </trkpt>
      <trkpt lat="43.1242120" lon="-3.1209380">
        <ele>173.3</ele>
        <time>2018-10-21T10:11:01Z</time>
      </trkpt>
      <trkpt lat="43.1242920" lon="-3.1209050">
        <ele>173.3</ele>
        <time>2018-10-21T10:11:02Z</time>
      </trkpt>
      <trkpt lat="43.1243720" lon="-3.1208700">
        <ele>173.3</ele>
        <time>2018-10-21T10:11:03Z</time>
      </trkpt>
      <trkpt lat="43.1244550" lon="-3.1208300">
        <ele>173.3</ele>
        <time>2018-10-21T10:11:04Z</time>
      </trkpt>
      <trkpt lat="43.1245350" lon="-3.1207720">
        <ele>171.3</ele>
        <time>2018-10-21T10:11:05Z</time>
      </trkpt>
      <trkpt lat="43.1246070" lon="-3.1206970">
        <ele>171.3</ele>
        <time>2018-10-21T10:11:06Z</time>
      </trkpt>
      <trkpt lat="43.1246700" lon="-3.1206050">
        <ele>171.3</ele>
        <time>2018-10-21T10:11:07Z</time>
      </trkpt>
      <trkpt lat="43.1247250" lon="-3.1205030">
        <ele>171.3</ele>
        <time>2018-10-21T10:11:08Z</time>
      </trkpt>
      <trkpt lat="43.1247750" lon="-3.1203970">
        <ele>170.2</ele>
        <time>2018-10-21T10:11:09Z</time>
      </trkpt>
      <trkpt lat="43.1248230" lon="-3.1202870">
        <ele>170.2</ele>
        <time>2018-10-21T10:11:10Z</time>
      </trkpt>
      <trkpt lat="43.1248720" lon="-3.1201770">
        <ele>170.2</ele>
        <time>2018-10-21T10:11:11Z</time>
      </trkpt>
      <trkpt lat="43.1249180" lon="-3.1200670">
        <ele>170.2</ele>
        <time>2018-10-21T10:11:12Z</time>
      </trkpt>
      <trkpt lat="43.1249620" lon="-3.1199620">
        <ele>169.2</ele>
        <time>2018-10-21T10:11:13Z</time>
      </trkpt>
      <trkpt lat="43.1250100" lon="-3.1198580">
        <ele>169.2</ele>
        <time>2018-10-21T10:11:14Z</time>
      </trkpt>
      <trkpt lat="43.1250620" lon="-3.1197580">
        <ele>169.2</ele>
        <time>2018-10-21T10:11:15Z</time>
      </trkpt>
      <trkpt lat="43.1251180" lon="-3.1196630">
        <ele>169.2</ele>
        <time>2018-10-21T10:11:16Z</time>
      </trkpt>
      <trkpt lat="43.1251820" lon="-3.1195730">
        <ele>169.2</ele>
        <time>2018-10-21T10:11:17Z</time>
      </trkpt>
      <trkpt lat="43.1252500" lon="-3.1194920">
        <ele>169.2</ele>
        <time>2018-10-21T10:11:18Z</time>
      </trkpt>
      <trkpt lat="43.1253230" lon="-3.1194170">
        <ele>169.2</ele>
        <time>2018-10-21T10:11:19Z</time>
      </trkpt>
      <trkpt lat="43.1254020" lon="-3.1193520">
        <ele>169.2</ele>
        <time>2018-10-21T10:11:20Z</time>
      </trkpt>
      <trkpt lat="43.1254830" lon="-3.1192880">
        <ele>168.3</ele>
        <time>2018-10-21T10:11:21Z</time>
      </trkpt>
      <trkpt lat="43.1255670" lon="-3.1192280">
        <ele>168.3</ele>
        <time>2018-10-21T10:11:22Z</time>
      </trkpt>
      <trkpt lat="43.1256530" lon="-3.1191750">
        <ele>168.3</ele>
        <time>2018-10-21T10:11:23Z</time>
      </trkpt>
      <trkpt lat="43.1257370" lon="-3.1191230">
        <ele>168.3</ele>
        <time>2018-10-21T10:11:24Z</time>
      </trkpt>
      <trkpt lat="43.1258200" lon="-3.1190750">
        <ele>167.2</ele>
        <time>2018-10-21T10:11:25Z</time>
      </trkpt>
      <trkpt lat="43.1259080" lon="-3.1190320">
        <ele>167.2</ele>
        <time>2018-10-21T10:11:26Z</time>
      </trkpt>
      <trkpt lat="43.1260020" lon="-3.1189920">
        <ele>166.3</ele>
        <time>2018-10-21T10:11:27Z</time>
      </trkpt>
      <trkpt lat="43.1261020" lon="-3.1189470">
        <ele>166.3</ele>
        <time>2018-10-21T10:11:28Z</time>
      </trkpt>
      <trkpt lat="43.1262020" lon="-3.1188980">
        <ele>165.2</ele>
        <time>2018-10-21T10:11:29Z</time>
      </trkpt>
      <trkpt lat="43.1263050" lon="-3.1188500">
        <ele>165.2</ele>
        <time>2018-10-21T10:11:30Z</time>
      </trkpt>
      <trkpt lat="43.1264080" lon="-3.1187970">
        <ele>164.3</ele>
        <time>2018-10-21T10:11:31Z</time>
      </trkpt>
      <trkpt lat="43.1265100" lon="-3.1187430">
        <ele>164.3</ele>
        <time>2018-10-21T10:11:32Z</time>
      </trkpt>
      <trkpt lat="43.1266100" lon="-3.1186930">
        <ele>164.3</ele>
        <time>2018-10-21T10:11:33Z</time>
      </trkpt>
      <trkpt lat="43.1267130" lon="-3.1186450">
        <ele>164.3</ele>
        <time>2018-10-21T10:11:34Z</time>
      </trkpt>
      <trkpt lat="43.1268170" lon="-3.1185950">
        <ele>164.3</ele>
        <time>2018-10-21T10:11:35Z</time>
      </trkpt>
      <trkpt lat="43.1269180" lon="-3.1185470">
        <ele>164.3</ele>
        <time>2018-10-21T10:11:36Z</time>
      </trkpt>
      <trkpt lat="43.1270220" lon="-3.1184950">
        <ele>161.2</ele>
        <time>2018-10-21T10:11:37Z</time>
      </trkpt>
      <trkpt lat="43.1271250" lon="-3.1184430">
        <ele>161.2</ele>
        <time>2018-10-21T10:11:38Z</time>
      </trkpt>
      <trkpt lat="43.1272270" lon="-3.1183950">
        <ele>160.2</ele>
        <time>2018-10-21T10:11:39Z</time>
      </trkpt>
      <trkpt lat="43.1273280" lon="-3.1183480">
        <ele>160.2</ele>
        <time>2018-10-21T10:11:40Z</time>
      </trkpt>
      <trkpt lat="43.1274200" lon="-3.1183020">
        <ele>160.2</ele>
        <time>2018-10-21T10:11:41Z</time>
      </trkpt>
      <trkpt lat="43.1275080" lon="-3.1182550">
        <ele>160.2</ele>
        <time>2018-10-21T10:11:42Z</time>
      </trkpt>
      <trkpt lat="43.1275980" lon="-3.1182100">
        <ele>160.2</ele>
        <time>2018-10-21T10:11:43Z</time>
      </trkpt>
      <trkpt lat="43.1276900" lon="-3.1181670">
        <ele>160.2</ele>
        <time>2018-10-21T10:11:44Z</time>
      </trkpt>
      <trkpt lat="43.1277780" lon="-3.1181220">
        <ele>159.3</ele>
        <time>2018-10-21T10:11:45Z</time>
      </trkpt>
      <trkpt lat="43.1278670" lon="-3.1180780">
        <ele>159.3</ele>
        <time>2018-10-21T10:11:46Z</time>
      </trkpt>
      <trkpt lat="43.1279550" lon="-3.1180350">
        <ele>158.2</ele>
        <time>2018-10-21T10:11:47Z</time>
      </trkpt>
      <trkpt lat="43.1280420" lon="-3.1179930">
        <ele>158.2</ele>
        <time>2018-10-21T10:11:48Z</time>
      </trkpt>
      <trkpt lat="43.1281280" lon="-3.1179520">
        <ele>158.2</ele>
        <time>2018-10-21T10:11:49Z</time>
      </trkpt>
      <trkpt lat="43.1282130" lon="-3.1179100">
        <ele>158.2</ele>
        <time>2018-10-21T10:11:50Z</time>
      </trkpt>
      <trkpt lat="43.1282950" lon="-3.1178680">
        <ele>158.2</ele>
        <time>2018-10-21T10:11:51Z</time>
      </trkpt>
      <trkpt lat="43.1283780" lon="-3.1178270">
        <ele>158.2</ele>
        <time>2018-10-21T10:11:52Z</time>
      </trkpt>
      <trkpt lat="43.1284580" lon="-3.1177870">
        <ele>158.2</ele>
        <time>2018-10-21T10:11:53Z</time>
      </trkpt>
      <trkpt lat="43.1285380" lon="-3.1177470">
        <ele>158.2</ele>
        <time>2018-10-21T10:11:54Z</time>
      </trkpt>
      <trkpt lat="43.1286200" lon="-3.1177100">
        <ele>158.2</ele>
        <time>2018-10-21T10:11:55Z</time>
      </trkpt>
      <trkpt lat="43.1287000" lon="-3.1176720">
        <ele>158.2</ele>
        <time>2018-10-21T10:11:56Z</time>
      </trkpt>
      <trkpt lat="43.1287800" lon="-3.1176330">
        <ele>158.2</ele>
        <time>2018-10-21T10:11:57Z</time>
      </trkpt>
      <trkpt lat="43.1288600" lon="-3.1175970">
        <ele>158.2</ele>
        <time>2018-10-21T10:11:58Z</time>
      </trkpt>
      <trkpt lat="43.1289380" lon="-3.1175570">
        <ele>158.2</ele>
        <time>2018-10-21T10:11:59Z</time>
      </trkpt>
      <trkpt lat="43.1290180" lon="-3.1175170">
        <ele>158.2</ele>
        <time>2018-10-21T10:12:00Z</time>
      </trkpt>
      <trkpt lat="43.1290950" lon="-3.1174750">
        <ele>158.2</ele>
        <time>2018-10-21T10:12:01Z</time>
      </trkpt>
      <trkpt lat="43.1291730" lon="-3.1174350">
        <ele>158.2</ele>
        <time>2018-10-21T10:12:02Z</time>
      </trkpt>
      <trkpt lat="43.1292480" lon="-3.1173980">
        <ele>158.2</ele>
        <time>2018-10-21T10:12:03Z</time>
      </trkpt>
      <trkpt lat="43.1293220" lon="-3.1173630">
        <ele>158.2</ele>
        <time>2018-10-21T10:12:04Z</time>
      </trkpt>
      <trkpt lat="43.1293930" lon="-3.1173270">
        <ele>158.2</ele>
        <time>2018-10-21T10:12:05Z</time>
      </trkpt>
      <trkpt lat="43.1294650" lon="-3.1172900">
        <ele>158.2</ele>
        <time>2018-10-21T10:12:06Z</time>
      </trkpt>
      <trkpt lat="43.1295380" lon="-3.1172520">
        <ele>158.2</ele>
        <time>2018-10-21T10:12:07Z</time>
      </trkpt>
      <trkpt lat="43.1296120" lon="-3.1172150">
        <ele>158.2</ele>
        <time>2018-10-21T10:12:08Z</time>
      </trkpt>
      <trkpt lat="43.1296870" lon="-3.1171770">
        <ele>158.2</ele>
        <time>2018-10-21T10:12:09Z</time>
      </trkpt>
      <trkpt lat="43.1297630" lon="-3.1171380">
        <ele>158.2</ele>
        <time>2018-10-21T10:12:10Z</time>
      </trkpt>
      <trkpt lat="43.1298370" lon="-3.1170980">
        <ele>158.2</ele>
        <time>2018-10-21T10:12:11Z</time>
      </trkpt>
      <trkpt lat="43.1299150" lon="-3.1170580">
        <ele>158.2</ele>
        <time>2018-10-21T10:12:12Z</time>
      </trkpt>
      <trkpt lat="43.1299930" lon="-3.1170200">
        <ele>158.2</ele>
        <time>2018-10-21T10:12:13Z</time>
      </trkpt>
      <trkpt lat="43.1300750" lon="-3.1169820">
        <ele>158.2</ele>
        <time>2018-10-21T10:12:14Z</time>
      </trkpt>
      <trkpt lat="43.1301520" lon="-3.1169400">
        <ele>158.2</ele>
        <time>2018-10-21T10:12:15Z</time>
      </trkpt>
      <trkpt lat="43.1302330" lon="-3.1169020">
        <ele>158.2</ele>
        <time>2018-10-21T10:12:16Z</time>
      </trkpt>
      <trkpt lat="43.1303120" lon="-3.1168580">
        <ele>158.2</ele>
        <time>2018-10-21T10:12:17Z</time>
      </trkpt>
      <trkpt lat="43.1303950" lon="-3.1168170">
        <ele>158.2</ele>
        <time>2018-10-21T10:12:18Z</time>
      </trkpt>
      <trkpt lat="43.1304770" lon="-3.1167770">
        <ele>158.2</ele>
        <time>2018-10-21T10:12:19Z</time>
      </trkpt>
      <trkpt lat="43.1305600" lon="-3.1167370">
        <ele>158.2</ele>
        <time>2018-10-21T10:12:20Z</time>
      </trkpt>
      <trkpt lat="43.1306450" lon="-3.1166950">
        <ele>158.2</ele>
        <time>2018-10-21T10:12:21Z</time>
      </trkpt>
      <trkpt lat="43.1307300" lon="-3.1166500">
        <ele>158.2</ele>
        <time>2018-10-21T10:12:22Z</time>
      </trkpt>
      <trkpt lat="43.1308180" lon="-3.1166050">
        <ele>156.2</ele>
        <time>2018-10-21T10:12:23Z</time>
      </trkpt>
      <trkpt lat="43.1309070" lon="-3.1165600">
        <ele>156.2</ele>
        <time>2018-10-21T10:12:24Z</time>
      </trkpt>
      <trkpt lat="43.1309930" lon="-3.1165180">
        <ele>156.2</ele>
        <time>2018-10-21T10:12:25Z</time>
      </trkpt>
      <trkpt lat="43.1310830" lon="-3.1164750">
        <ele>156.2</ele>
        <time>2018-10-21T10:12:26Z</time>
      </trkpt>
      <trkpt lat="43.1311750" lon="-3.1164300">
        <ele>156.2</ele>
        <time>2018-10-21T10:12:27Z</time>
      </trkpt>
      <trkpt lat="43.1312680" lon="-3.1163850">
        <ele>156.2</ele>
        <time>2018-10-21T10:12:28Z</time>
      </trkpt>
      <trkpt lat="43.1313620" lon="-3.1163400">
        <ele>156.2</ele>
        <time>2018-10-21T10:12:29Z</time>
      </trkpt>
      <trkpt lat="43.1314570" lon="-3.1162920">
        <ele>156.2</ele>
        <time>2018-10-21T10:12:30Z</time>
      </trkpt>
      <trkpt lat="43.1315520" lon="-3.1162420">
        <ele>153.2</ele>
        <time>2018-10-21T10:12:31Z</time>
      </trkpt>
      <trkpt lat="43.1316500" lon="-3.1161880">
        <ele>153.2</ele>
        <time>2018-10-21T10:12:32Z</time>
      </trkpt>
      <trkpt lat="43.1317470" lon="-3.1161320">
        <ele>152.2</ele>
        <time>2018-10-21T10:12:33Z</time>
      </trkpt>
      <trkpt lat="43.1318450" lon="-3.1160720">
        <ele>152.2</ele>
        <time>2018-10-21T10:12:34Z</time>
      </trkpt>
      <trkpt lat="43.1319430" lon="-3.1160100">
        <ele>152.2</ele>
        <time>2018-10-21T10:12:35Z</time>
      </trkpt>
      <trkpt lat="43.1320400" lon="-3.1159470">
        <ele>152.2</ele>
        <time>2018-10-21T10:12:36Z</time>
      </trkpt>
      <trkpt lat="43.1321370" lon="-3.1158820">
        <ele>152.2</ele>
        <time>2018-10-21T10:12:37Z</time>
      </trkpt>
      <trkpt lat="43.1322320" lon="-3.1158180">
        <ele>152.2</ele>
        <time>2018-10-21T10:12:38Z</time>
      </trkpt>
      <trkpt lat="43.1323250" lon="-3.1157550">
        <ele>152.2</ele>
        <time>2018-10-21T10:12:39Z</time>
      </trkpt>
      <trkpt lat="43.1324170" lon="-3.1156920">
        <ele>152.2</ele>
        <time>2018-10-21T10:12:40Z</time>
      </trkpt>
      <trkpt lat="43.1325050" lon="-3.1156230">
        <ele>148.3</ele>
        <time>2018-10-21T10:12:41Z</time>
      </trkpt>
      <trkpt lat="43.1325930" lon="-3.1155580">
        <ele>148.3</ele>
        <time>2018-10-21T10:12:42Z</time>
      </trkpt>
      <trkpt lat="43.1326820" lon="-3.1154970">
        <ele>148.3</ele>
        <time>2018-10-21T10:12:43Z</time>
      </trkpt>
      <trkpt lat="43.1327700" lon="-3.1154370">
        <ele>148.3</ele>
        <time>2018-10-21T10:12:44Z</time>
      </trkpt>
      <trkpt lat="43.1328570" lon="-3.1153770">
        <ele>148.3</ele>
        <time>2018-10-21T10:12:45Z</time>
      </trkpt>
      <trkpt lat="43.1329450" lon="-3.1153150">
        <ele>148.3</ele>
        <time>2018-10-21T10:12:46Z</time>
      </trkpt>
      <trkpt lat="43.1330320" lon="-3.1152550">
        <ele>147.2</ele>
        <time>2018-10-21T10:12:47Z</time>
      </trkpt>
      <trkpt lat="43.1331180" lon="-3.1151970">
        <ele>147.2</ele>
        <time>2018-10-21T10:12:48Z</time>
      </trkpt>
      <trkpt lat="43.1332070" lon="-3.1151370">
        <ele>147.2</ele>
        <time>2018-10-21T10:12:49Z</time>
      </trkpt>
      <trkpt lat="43.1332920" lon="-3.1150770">
        <ele>147.2</ele>
        <time>2018-10-21T10:12:50Z</time>
      </trkpt>
      <trkpt lat="43.1333770" lon="-3.1150170">
        <ele>147.2</ele>
        <time>2018-10-21T10:12:51Z</time>
      </trkpt>
      <trkpt lat="43.1334620" lon="-3.1149570">
        <ele>147.2</ele>
        <time>2018-10-21T10:12:52Z</time>
      </trkpt>
      <trkpt lat="43.1335470" lon="-3.1148970">
        <ele>147.2</ele>
        <time>2018-10-21T10:12:53Z</time>
      </trkpt>
      <trkpt lat="43.1336320" lon="-3.1148330">
        <ele>147.2</ele>
        <time>2018-10-21T10:12:54Z</time>
      </trkpt>
      <trkpt lat="43.1337150" lon="-3.1147630">
        <ele>146.3</ele>
        <time>2018-10-21T10:12:55Z</time>
      </trkpt>
      <trkpt lat="43.1337920" lon="-3.1146820">
        <ele>146.3</ele>
        <time>2018-10-21T10:12:56Z</time>
      </trkpt>
      <trkpt lat="43.1338630" lon="-3.1145920">
        <ele>146.3</ele>
        <time>2018-10-21T10:12:57Z</time>
      </trkpt>
      <trkpt lat="43.1339320" lon="-3.1144970">
        <ele>146.3</ele>
        <time>2018-10-21T10:12:58Z</time>
      </trkpt>
      <trkpt lat="43.1339980" lon="-3.1144000">
        <ele>146.3</ele>
        <time>2018-10-21T10:12:59Z</time>
      </trkpt>
      <trkpt lat="43.1340630" lon="-3.1143050">
        <ele>146.3</ele>
        <time>2018-10-21T10:13:00Z</time>
      </trkpt>
      <trkpt lat="43.1341270" lon="-3.1142100">
        <ele>146.3</ele>
        <time>2018-10-21T10:13:01Z</time>
      </trkpt>
      <trkpt lat="43.1341900" lon="-3.1141130">
        <ele>146.3</ele>
        <time>2018-10-21T10:13:02Z</time>
      </trkpt>
      <trkpt lat="43.1342550" lon="-3.1140200">
        <ele>144.2</ele>
        <time>2018-10-21T10:13:03Z</time>
      </trkpt>
      <trkpt lat="43.1343250" lon="-3.1139270">
        <ele>144.2</ele>
        <time>2018-10-21T10:13:04Z</time>
      </trkpt>
      <trkpt lat="43.1343980" lon="-3.1138380">
        <ele>144.2</ele>
        <time>2018-10-21T10:13:05Z</time>
      </trkpt>
      <trkpt lat="43.1344770" lon="-3.1137520">
        <ele>144.2</ele>
        <time>2018-10-21T10:13:06Z</time>
      </trkpt>
      <trkpt lat="43.1345550" lon="-3.1136670">
        <ele>143.3</ele>
        <time>2018-10-21T10:13:07Z</time>
      </trkpt>
      <trkpt lat="43.1346330" lon="-3.1135830">
        <ele>143.3</ele>
        <time>2018-10-21T10:13:08Z</time>
      </trkpt>
      <trkpt lat="43.1347120" lon="-3.1135000">
        <ele>143.3</ele>
        <time>2018-10-21T10:13:09Z</time>
      </trkpt>
      <trkpt lat="43.1347870" lon="-3.1134200">
        <ele>143.3</ele>
        <time>2018-10-21T10:13:10Z</time>
      </trkpt>
      <trkpt lat="43.1348600" lon="-3.1133370">
        <ele>142.2</ele>
        <time>2018-10-21T10:13:11Z</time>
      </trkpt>
      <trkpt lat="43.1349320" lon="-3.1132530">
        <ele>142.2</ele>
        <time>2018-10-21T10:13:12Z</time>
      </trkpt>
      <trkpt lat="43.1349980" lon="-3.1131670">
        <ele>142.2</ele>
        <time>2018-10-21T10:13:13Z</time>
      </trkpt>
      <trkpt lat="43.1350600" lon="-3.1130750">
        <ele>142.2</ele>
        <time>2018-10-21T10:13:14Z</time>
      </trkpt>
      <trkpt lat="43.1351180" lon="-3.1129820">
        <ele>141.3</ele>
        <time>2018-10-21T10:13:15Z</time>
      </trkpt>
      <trkpt lat="43.1351750" lon="-3.1128870">
        <ele>141.3</ele>
        <time>2018-10-21T10:13:16Z</time>
      </trkpt>
      <trkpt lat="43.1352300" lon="-3.1127930">
        <ele>141.3</ele>
        <time>2018-10-21T10:13:17Z</time>
      </trkpt>
      <trkpt lat="43.1352880" lon="-3.1127020">
        <ele>141.3</ele>
        <time>2018-10-21T10:13:18Z</time>
      </trkpt>
      <trkpt lat="43.1353480" lon="-3.1126120">
        <ele>141.3</ele>
        <time>2018-10-21T10:13:19Z</time>
      </trkpt>
      <trkpt lat="43.1354130" lon="-3.1125280">
        <ele>141.3</ele>
        <time>2018-10-21T10:13:20Z</time>
      </trkpt>
      <trkpt lat="43.1354870" lon="-3.1124620">
        <ele>141.3</ele>
        <time>2018-10-21T10:13:21Z</time>
      </trkpt>
      <trkpt lat="43.1355700" lon="-3.1124150">
        <ele>141.3</ele>
        <time>2018-10-21T10:13:22Z</time>
      </trkpt>
      <trkpt lat="43.1356580" lon="-3.1123900">
        <ele>141.3</ele>
        <time>2018-10-21T10:13:23Z</time>
      </trkpt>
      <trkpt lat="43.1357500" lon="-3.1123850">
        <ele>141.3</ele>
        <time>2018-10-21T10:13:24Z</time>
      </trkpt>
      <trkpt lat="43.1358450" lon="-3.1123930">
        <ele>141.3</ele>
        <time>2018-10-21T10:13:25Z</time>
      </trkpt>
      <trkpt lat="43.1359380" lon="-3.1124130">
        <ele>141.3</ele>
        <time>2018-10-21T10:13:26Z</time>
      </trkpt>
      <trkpt lat="43.1360330" lon="-3.1124370">
        <ele>141.3</ele>
        <time>2018-10-21T10:13:27Z</time>
      </trkpt>
      <trkpt lat="43.1361270" lon="-3.1124630">
        <ele>141.3</ele>
        <time>2018-10-21T10:13:28Z</time>
      </trkpt>
      <trkpt lat="43.1362170" lon="-3.1124870">
        <ele>141.3</ele>
        <time>2018-10-21T10:13:29Z</time>
      </trkpt>
      <trkpt lat="43.1363070" lon="-3.1125130">
        <ele>141.3</ele>
        <time>2018-10-21T10:13:30Z</time>
      </trkpt>
      <trkpt lat="43.1363970" lon="-3.1125420">
        <ele>141.3</ele>
        <time>2018-10-21T10:13:31Z</time>
      </trkpt>
      <trkpt lat="43.1364880" lon="-3.1125680">
        <ele>141.3</ele>
        <time>2018-10-21T10:13:32Z</time>
      </trkpt>
      <trkpt lat="43.1365800" lon="-3.1125980">
        <ele>140.2</ele>
        <time>2018-10-21T10:13:33Z</time>
      </trkpt>
      <trkpt lat="43.1366700" lon="-3.1126250">
        <ele>140.2</ele>
        <time>2018-10-21T10:13:34Z</time>
      </trkpt>
      <trkpt lat="43.1367650" lon="-3.1126570">
        <ele>140.2</ele>
        <time>2018-10-21T10:13:35Z</time>
      </trkpt>
      <trkpt lat="43.1368600" lon="-3.1126900">
        <ele>140.2</ele>
        <time>2018-10-21T10:13:36Z</time>
      </trkpt>
      <trkpt lat="43.1369550" lon="-3.1127230">
        <ele>139.3</ele>
        <time>2018-10-21T10:13:37Z</time>
      </trkpt>
      <trkpt lat="43.1370520" lon="-3.1127530">
        <ele>139.3</ele>
        <time>2018-10-21T10:13:38Z</time>
      </trkpt>
      <trkpt lat="43.1371480" lon="-3.1127800">
        <ele>138.2</ele>
        <time>2018-10-21T10:13:39Z</time>
      </trkpt>
      <trkpt lat="43.1372450" lon="-3.1128020">
        <ele>138.2</ele>
        <time>2018-10-21T10:13:40Z</time>
      </trkpt>
      <trkpt lat="43.1373420" lon="-3.1128150">
        <ele>138.2</ele>
        <time>2018-10-21T10:13:41Z</time>
      </trkpt>
      <trkpt lat="43.1374370" lon="-3.1128200">
        <ele>138.2</ele>
        <time>2018-10-21T10:13:42Z</time>
      </trkpt>
      <trkpt lat="43.1375280" lon="-3.1128180">
        <ele>138.2</ele>
        <time>2018-10-21T10:13:43Z</time>
      </trkpt>
      <trkpt lat="43.1376180" lon="-3.1128150">
        <ele>138.2</ele>
        <time>2018-10-21T10:13:44Z</time>
      </trkpt>
      <trkpt lat="43.1377050" lon="-3.1128100">
        <ele>138.2</ele>
        <time>2018-10-21T10:13:45Z</time>
      </trkpt>
      <trkpt lat="43.1377880" lon="-3.1128050">
        <ele>138.2</ele>
        <time>2018-10-21T10:13:46Z</time>
      </trkpt>
      <trkpt lat="43.1378670" lon="-3.1127970">
        <ele>138.2</ele>
        <time>2018-10-21T10:13:47Z</time>
      </trkpt>
      <trkpt lat="43.1379420" lon="-3.1127880">
        <ele>138.2</ele>
        <time>2018-10-21T10:13:48Z</time>
      </trkpt>
      <trkpt lat="43.1380150" lon="-3.1127800">
        <ele>138.2</ele>
        <time>2018-10-21T10:13:49Z</time>
      </trkpt>
      <trkpt lat="43.1380830" lon="-3.1127720">
        <ele>138.2</ele>
        <time>2018-10-21T10:13:50Z</time>
      </trkpt>
      <trkpt lat="43.1381500" lon="-3.1127580">
        <ele>138.2</ele>
        <time>2018-10-21T10:13:51Z</time>
      </trkpt>
      <trkpt lat="43.1382130" lon="-3.1127430">
        <ele>138.2</ele>
        <time>2018-10-21T10:13:52Z</time>
      </trkpt>
      <trkpt lat="43.1382780" lon="-3.1127270">
        <ele>138.2</ele>
        <time>2018-10-21T10:13:53Z</time>
      </trkpt>
      <trkpt lat="43.1383450" lon="-3.1127020">
        <ele>138.2</ele>
        <time>2018-10-21T10:13:54Z</time>
      </trkpt>
      <trkpt lat="43.1384070" lon="-3.1126700">
        <ele>140.2</ele>
        <time>2018-10-21T10:13:55Z</time>
      </trkpt>
      <trkpt lat="43.1384630" lon="-3.1126350">
        <ele>140.2</ele>
        <time>2018-10-21T10:13:56Z</time>
      </trkpt>
      <trkpt lat="43.1385150" lon="-3.1125930">
        <ele>141.3</ele>
        <time>2018-10-21T10:13:57Z</time>
      </trkpt>
      <trkpt lat="43.1385770" lon="-3.1125380">
        <ele>141.3</ele>
        <time>2018-10-21T10:13:58Z</time>
      </trkpt>
      <trkpt lat="43.1386350" lon="-3.1124720">
        <ele>141.3</ele>
        <time>2018-10-21T10:13:59Z</time>
      </trkpt>
      <trkpt lat="43.1386900" lon="-3.1123880">
        <ele>141.3</ele>
        <time>2018-10-21T10:14:00Z</time>
      </trkpt>
      <trkpt lat="43.1387380" lon="-3.1122950">
        <ele>141.3</ele>
        <time>2018-10-21T10:14:01Z</time>
      </trkpt>
      <trkpt lat="43.1387750" lon="-3.1121900">
        <ele>141.3</ele>
        <time>2018-10-21T10:14:02Z</time>
      </trkpt>
      <trkpt lat="43.1388030" lon="-3.1120830">
        <ele>141.3</ele>
        <time>2018-10-21T10:14:03Z</time>
      </trkpt>
      <trkpt lat="43.1388220" lon="-3.1119750">
        <ele>141.3</ele>
        <time>2018-10-21T10:14:04Z</time>
      </trkpt>
      <trkpt lat="43.1388320" lon="-3.1118670">
        <ele>141.3</ele>
        <time>2018-10-21T10:14:05Z</time>
      </trkpt>
      <trkpt lat="43.1388420" lon="-3.1117580">
        <ele>141.3</ele>
        <time>2018-10-21T10:14:06Z</time>
      </trkpt>
      <trkpt lat="43.1388450" lon="-3.1116520">
        <ele>141.3</ele>
        <time>2018-10-21T10:14:07Z</time>
      </trkpt>
      <trkpt lat="43.1388530" lon="-3.1115450">
        <ele>141.3</ele>
        <time>2018-10-21T10:14:08Z</time>
      </trkpt>
      <trkpt lat="43.1388700" lon="-3.1114430">
        <ele>141.3</ele>
        <time>2018-10-21T10:14:09Z</time>
      </trkpt>
      <trkpt lat="43.1388980" lon="-3.1113350">
        <ele>141.3</ele>
        <time>2018-10-21T10:14:10Z</time>
      </trkpt>
      <trkpt lat="43.1389270" lon="-3.1112250">
        <ele>141.3</ele>
        <time>2018-10-21T10:14:11Z</time>
      </trkpt>
      <trkpt lat="43.1389630" lon="-3.1111100">
        <ele>141.3</ele>
        <time>2018-10-21T10:14:12Z</time>
      </trkpt>
      <trkpt lat="43.1390030" lon="-3.1109880">
        <ele>141.3</ele>
        <time>2018-10-21T10:14:13Z</time>
      </trkpt>
      <trkpt lat="43.1390470" lon="-3.1108650">
        <ele>141.3</ele>
        <time>2018-10-21T10:14:14Z</time>
      </trkpt>
      <trkpt lat="43.1390920" lon="-3.1107380">
        <ele>138.2</ele>
        <time>2018-10-21T10:14:15Z</time>
      </trkpt>
      <trkpt lat="43.1391400" lon="-3.1106120">
        <ele>138.2</ele>
        <time>2018-10-21T10:14:16Z</time>
      </trkpt>
      <trkpt lat="43.1391850" lon="-3.1104830">
        <ele>138.2</ele>
        <time>2018-10-21T10:14:17Z</time>
      </trkpt>
      <trkpt lat="43.1392300" lon="-3.1103520">
        <ele>138.2</ele>
        <time>2018-10-21T10:14:18Z</time>
      </trkpt>
      <trkpt lat="43.1392750" lon="-3.1102220">
        <ele>136.2</ele>
        <time>2018-10-21T10:14:19Z</time>
      </trkpt>
      <trkpt lat="43.1393220" lon="-3.1100920">
        <ele>136.2</ele>
        <time>2018-10-21T10:14:20Z</time>
      </trkpt>
      <trkpt lat="43.1393630" lon="-3.1099650">
        <ele>136.2</ele>
        <time>2018-10-21T10:14:21Z</time>
      </trkpt>
      <trkpt lat="43.1394050" lon="-3.1098420">
        <ele>136.2</ele>
        <time>2018-10-21T10:14:22Z</time>
      </trkpt>
      <trkpt lat="43.1394450" lon="-3.1097200">
        <ele>136.2</ele>
        <time>2018-10-21T10:14:23Z</time>
      </trkpt>
      <trkpt lat="43.1394850" lon="-3.1096030">
        <ele>136.2</ele>
        <time>2018-10-21T10:14:24Z</time>
      </trkpt>
      <trkpt lat="43.1395220" lon="-3.1094900">
        <ele>136.2</ele>
        <time>2018-10-21T10:14:25Z</time>
      </trkpt>
      <trkpt lat="43.1395570" lon="-3.1093800">
        <ele>136.2</ele>
        <time>2018-10-21T10:14:26Z</time>
      </trkpt>
      <trkpt lat="43.1395920" lon="-3.1092750">
        <ele>136.2</ele>
        <time>2018-10-21T10:14:27Z</time>
      </trkpt>
      <trkpt lat="43.1396250" lon="-3.1091700">
        <ele>136.2</ele>
        <time>2018-10-21T10:14:28Z</time>
      </trkpt>
      <trkpt lat="43.1396600" lon="-3.1090650">
        <ele>136.2</ele>
        <time>2018-10-21T10:14:29Z</time>
      </trkpt>
      <trkpt lat="43.1396950" lon="-3.1089580">
        <ele>136.2</ele>
        <time>2018-10-21T10:14:30Z</time>
      </trkpt>
      <trkpt lat="43.1397330" lon="-3.1088500">
        <ele>136.2</ele>
        <time>2018-10-21T10:14:31Z</time>
      </trkpt>
      <trkpt lat="43.1397700" lon="-3.1087380">
        <ele>136.2</ele>
        <time>2018-10-21T10:14:32Z</time>
      </trkpt>
      <trkpt lat="43.1398080" lon="-3.1086270">
        <ele>134.3</ele>
        <time>2018-10-21T10:14:33Z</time>
      </trkpt>
      <trkpt lat="43.1398500" lon="-3.1085150">
        <ele>134.3</ele>
        <time>2018-10-21T10:14:34Z</time>
      </trkpt>
      <trkpt lat="43.1398920" lon="-3.1084000">
        <ele>134.3</ele>
        <time>2018-10-21T10:14:35Z</time>
      </trkpt>
      <trkpt lat="43.1399350" lon="-3.1082820">
        <ele>134.3</ele>
        <time>2018-10-21T10:14:36Z</time>
      </trkpt>
      <trkpt lat="43.1399780" lon="-3.1081630">
        <ele>133.2</ele>
        <time>2018-10-21T10:14:37Z</time>
      </trkpt>
      <trkpt lat="43.1400220" lon="-3.1080430">
        <ele>133.2</ele>
        <time>2018-10-21T10:14:38Z</time>
      </trkpt>
      <trkpt lat="43.1400650" lon="-3.1079220">
        <ele>133.2</ele>
        <time>2018-10-21T10:14:39Z</time>
      </trkpt>
      <trkpt lat="43.1401070" lon="-3.1078020">
        <ele>133.2</ele>
        <time>2018-10-21T10:14:40Z</time>
      </trkpt>
      <trkpt lat="43.1401470" lon="-3.1076820">
        <ele>133.2</ele>
        <time>2018-10-21T10:14:41Z</time>
      </trkpt>
      <trkpt lat="43.1401870" lon="-3.1075630">
        <ele>133.2</ele>
        <time>2018-10-21T10:14:42Z</time>
      </trkpt>
      <trkpt lat="43.1402250" lon="-3.1074450">
        <ele>132.3</ele>
        <time>2018-10-21T10:14:43Z</time>
      </trkpt>
      <trkpt lat="43.1402630" lon="-3.1073270">
        <ele>132.3</ele>
        <time>2018-10-21T10:14:44Z</time>
      </trkpt>
      <trkpt lat="43.1403070" lon="-3.1072100">
        <ele>132.3</ele>
        <time>2018-10-21T10:14:45Z</time>
      </trkpt>
      <trkpt lat="43.1403480" lon="-3.1070930">
        <ele>132.3</ele>
        <time>2018-10-21T10:14:46Z</time>
      </trkpt>
      <trkpt lat="43.1403920" lon="-3.1069770">
        <ele>131.2</ele>
        <time>2018-10-21T10:14:47Z</time>
      </trkpt>
      <trkpt lat="43.1404370" lon="-3.1068630">
        <ele>131.2</ele>
        <time>2018-10-21T10:14:48Z</time>
      </trkpt>
      <trkpt lat="43.1404870" lon="-3.1067520">
        <ele>131.2</ele>
        <time>2018-10-21T10:14:49Z</time>
      </trkpt>
      <trkpt lat="43.1405400" lon="-3.1066430">
        <ele>131.2</ele>
        <time>2018-10-21T10:14:50Z</time>
      </trkpt>
      <trkpt lat="43.1405980" lon="-3.1065380">
        <ele>131.2</ele>
        <time>2018-10-21T10:14:51Z</time>
      </trkpt>
      <trkpt lat="43.1406650" lon="-3.1064420">
        <ele>131.2</ele>
        <time>2018-10-21T10:14:52Z</time>
      </trkpt>
      <trkpt lat="43.1407430" lon="-3.1063580">
        <ele>130.3</ele>
        <time>2018-10-21T10:14:53Z</time>
      </trkpt>
      <trkpt lat="43.1408300" lon="-3.1062980">
        <ele>130.3</ele>
        <time>2018-10-21T10:14:54Z</time>
      </trkpt>
      <trkpt lat="43.1409200" lon="-3.1062620">
        <ele>130.3</ele>
        <time>2018-10-21T10:14:55Z</time>
      </trkpt>
      <trkpt lat="43.1410120" lon="-3.1062500">
        <ele>130.3</ele>
        <time>2018-10-21T10:14:56Z</time>
      </trkpt>
      <trkpt lat="43.1411020" lon="-3.1062600">
        <ele>130.3</ele>
        <time>2018-10-21T10:14:57Z</time>
      </trkpt>
      <trkpt lat="43.1411880" lon="-3.1062870">
        <ele>130.3</ele>
        <time>2018-10-21T10:14:58Z</time>
      </trkpt>
      <trkpt lat="43.1412750" lon="-3.1063250">
        <ele>130.3</ele>
        <time>2018-10-21T10:14:59Z</time>
      </trkpt>
      <trkpt lat="43.1413580" lon="-3.1063770">
        <ele>130.3</ele>
        <time>2018-10-21T10:15:00Z</time>
      </trkpt>
      <trkpt lat="43.1414370" lon="-3.1064380">
        <ele>130.3</ele>
        <time>2018-10-21T10:15:01Z</time>
      </trkpt>
      <trkpt lat="43.1415080" lon="-3.1065100">
        <ele>130.3</ele>
        <time>2018-10-21T10:15:02Z</time>
      </trkpt>
      <trkpt lat="43.1415750" lon="-3.1065880">
        <ele>130.3</ele>
        <time>2018-10-21T10:15:03Z</time>
      </trkpt>
      <trkpt lat="43.1416330" lon="-3.1066750">
        <ele>130.3</ele>
        <time>2018-10-21T10:15:04Z</time>
      </trkpt>
      <trkpt lat="43.1416850" lon="-3.1067680">
        <ele>130.3</ele>
        <time>2018-10-21T10:15:05Z</time>
      </trkpt>
      <trkpt lat="43.1417230" lon="-3.1068680">
        <ele>130.3</ele>
        <time>2018-10-21T10:15:06Z</time>
      </trkpt>
      <trkpt lat="43.1417530" lon="-3.1069700">
        <ele>130.3</ele>
        <time>2018-10-21T10:15:07Z</time>
      </trkpt>
      <trkpt lat="43.1417720" lon="-3.1070730">
        <ele>130.3</ele>
        <time>2018-10-21T10:15:08Z</time>
      </trkpt>
      <trkpt lat="43.1417880" lon="-3.1071780">
        <ele>130.3</ele>
        <time>2018-10-21T10:15:09Z</time>
      </trkpt>
      <trkpt lat="43.1418030" lon="-3.1072870">
        <ele>130.3</ele>
        <time>2018-10-21T10:15:10Z</time>
      </trkpt>
      <trkpt lat="43.1418200" lon="-3.1074000">
        <ele>131.2</ele>
        <time>2018-10-21T10:15:11Z</time>
      </trkpt>
      <trkpt lat="43.1418420" lon="-3.1075120">
        <ele>131.2</ele>
        <time>2018-10-21T10:15:12Z</time>
      </trkpt>
      <trkpt lat="43.1418670" lon="-3.1076220">
        <ele>131.2</ele>
        <time>2018-10-21T10:15:13Z</time>
      </trkpt>
      <trkpt lat="43.1418920" lon="-3.1077330">
        <ele>131.2</ele>
        <time>2018-10-21T10:15:14Z</time>
      </trkpt>
      <trkpt lat="43.1419200" lon="-3.1078430">
        <ele>131.2</ele>
        <time>2018-10-21T10:15:15Z</time>
      </trkpt>
      <trkpt lat="43.1419480" lon="-3.1079520">
        <ele>131.2</ele>
        <time>2018-10-21T10:15:16Z</time>
      </trkpt>
      <trkpt lat="43.1419770" lon="-3.1080580">
        <ele>130.3</ele>
        <time>2018-10-21T10:15:17Z</time>
      </trkpt>
      <trkpt lat="43.1420070" lon="-3.1081650">
        <ele>130.3</ele>
        <time>2018-10-21T10:15:18Z</time>
      </trkpt>
      <trkpt lat="43.1420430" lon="-3.1082720">
        <ele>130.3</ele>
        <time>2018-10-21T10:15:19Z</time>
      </trkpt>
      <trkpt lat="43.1420850" lon="-3.1083750">
        <ele>130.3</ele>
        <time>2018-10-21T10:15:20Z</time>
      </trkpt>
      <trkpt lat="43.1421320" lon="-3.1084750">
        <ele>130.3</ele>
        <time>2018-10-21T10:15:21Z</time>
      </trkpt>
      <trkpt lat="43.1421830" lon="-3.1085730">
        <ele>130.3</ele>
        <time>2018-10-21T10:15:22Z</time>
      </trkpt>
      <trkpt lat="43.1422420" lon="-3.1086650">
        <ele>130.3</ele>
        <time>2018-10-21T10:15:23Z</time>
      </trkpt>
      <trkpt lat="43.1423000" lon="-3.1087530">
        <ele>130.3</ele>
        <time>2018-10-21T10:15:24Z</time>
      </trkpt>
      <trkpt lat="43.1423620" lon="-3.1088380">
        <ele>130.3</ele>
        <time>2018-10-21T10:15:25Z</time>
      </trkpt>
      <trkpt lat="43.1424250" lon="-3.1089180">
        <ele>130.3</ele>
        <time>2018-10-21T10:15:26Z</time>
      </trkpt>
      <trkpt lat="43.1424900" lon="-3.1089930">
        <ele>130.3</ele>
        <time>2018-10-21T10:15:27Z</time>
      </trkpt>
      <trkpt lat="43.1425580" lon="-3.1090650">
        <ele>130.3</ele>
        <time>2018-10-21T10:15:28Z</time>
      </trkpt>
      <trkpt lat="43.1426280" lon="-3.1091330">
        <ele>130.3</ele>
        <time>2018-10-21T10:15:29Z</time>
      </trkpt>
      <trkpt lat="43.1427020" lon="-3.1092000">
        <ele>130.3</ele>
        <time>2018-10-21T10:15:30Z</time>
      </trkpt>
      <trkpt lat="43.1427770" lon="-3.1092620">
        <ele>130.3</ele>
        <time>2018-10-21T10:15:31Z</time>
      </trkpt>
      <trkpt lat="43.1428530" lon="-3.1093220">
        <ele>130.3</ele>
        <time>2018-10-21T10:15:32Z</time>
      </trkpt>
      <trkpt lat="43.1429300" lon="-3.1093730">
        <ele>129.2</ele>
        <time>2018-10-21T10:15:33Z</time>
      </trkpt>
      <trkpt lat="43.1430100" lon="-3.1094200">
        <ele>129.2</ele>
        <time>2018-10-21T10:15:34Z</time>
      </trkpt>
      <trkpt lat="43.1430930" lon="-3.1094620">
        <ele>129.2</ele>
        <time>2018-10-21T10:15:35Z</time>
      </trkpt>
      <trkpt lat="43.1431770" lon="-3.1094930">
        <ele>129.2</ele>
        <time>2018-10-21T10:15:36Z</time>
      </trkpt>
      <trkpt lat="43.1432600" lon="-3.1095150">
        <ele>129.2</ele>
        <time>2018-10-21T10:15:37Z</time>
      </trkpt>
      <trkpt lat="43.1433450" lon="-3.1095230">
        <ele>129.2</ele>
        <time>2018-10-21T10:15:38Z</time>
      </trkpt>
      <trkpt lat="43.1434320" lon="-3.1095220">
        <ele>129.2</ele>
        <time>2018-10-21T10:15:39Z</time>
      </trkpt>
      <trkpt lat="43.1435180" lon="-3.1095070">
        <ele>129.2</ele>
        <time>2018-10-21T10:15:40Z</time>
      </trkpt>
      <trkpt lat="43.1436030" lon="-3.1094770">
        <ele>129.2</ele>
        <time>2018-10-21T10:15:41Z</time>
      </trkpt>
      <trkpt lat="43.1436900" lon="-3.1094370">
        <ele>129.2</ele>
        <time>2018-10-21T10:15:42Z</time>
      </trkpt>
      <trkpt lat="43.1437750" lon="-3.1093920">
        <ele>129.2</ele>
        <time>2018-10-21T10:15:43Z</time>
      </trkpt>
      <trkpt lat="43.1438600" lon="-3.1093480">
        <ele>129.2</ele>
        <time>2018-10-21T10:15:44Z</time>
      </trkpt>
      <trkpt lat="43.1439470" lon="-3.1093050">
        <ele>129.2</ele>
        <time>2018-10-21T10:15:45Z</time>
      </trkpt>
      <trkpt lat="43.1440300" lon="-3.1092530">
        <ele>129.2</ele>
        <time>2018-10-21T10:15:46Z</time>
      </trkpt>
      <trkpt lat="43.1441170" lon="-3.1092000">
        <ele>129.2</ele>
        <time>2018-10-21T10:15:47Z</time>
      </trkpt>
      <trkpt lat="43.1442030" lon="-3.1091430">
        <ele>129.2</ele>
        <time>2018-10-21T10:15:48Z</time>
      </trkpt>
      <trkpt lat="43.1442880" lon="-3.1090830">
        <ele>128.2</ele>
        <time>2018-10-21T10:15:49Z</time>
      </trkpt>
      <trkpt lat="43.1443720" lon="-3.1090200">
        <ele>128.2</ele>
        <time>2018-10-21T10:15:50Z</time>
      </trkpt>
      <trkpt lat="43.1444530" lon="-3.1089500">
        <ele>128.2</ele>
        <time>2018-10-21T10:15:51Z</time>
      </trkpt>
      <trkpt lat="43.1445350" lon="-3.1088820">
        <ele>128.2</ele>
        <time>2018-10-21T10:15:52Z</time>
      </trkpt>
      <trkpt lat="43.1446170" lon="-3.1088130">
        <ele>128.2</ele>
        <time>2018-10-21T10:15:53Z</time>
      </trkpt>
      <trkpt lat="43.1446950" lon="-3.1087420">
        <ele>128.2</ele>
        <time>2018-10-21T10:15:54Z</time>
      </trkpt>
      <trkpt lat="43.1447720" lon="-3.1086700">
        <ele>128.2</ele>
        <time>2018-10-21T10:15:55Z</time>
      </trkpt>
      <trkpt lat="43.1448480" lon="-3.1085980">
        <ele>128.2</ele>
        <time>2018-10-21T10:15:56Z</time>
      </trkpt>
      <trkpt lat="43.1449220" lon="-3.1085230">
        <ele>128.2</ele>
        <time>2018-10-21T10:15:57Z</time>
      </trkpt>
      <trkpt lat="43.1449970" lon="-3.1084520">
        <ele>128.2</ele>
        <time>2018-10-21T10:15:58Z</time>
      </trkpt>
      <trkpt lat="43.1450700" lon="-3.1083770">
        <ele>128.2</ele>
        <time>2018-10-21T10:15:59Z</time>
      </trkpt>
      <trkpt lat="43.1451470" lon="-3.1083030">
        <ele>128.2</ele>
        <time>2018-10-21T10:16:00Z</time>
      </trkpt>
      <trkpt lat="43.1452230" lon="-3.1082320">
        <ele>127.3</ele>
        <time>2018-10-21T10:16:01Z</time>
      </trkpt>
      <trkpt lat="43.1452980" lon="-3.1081620">
        <ele>127.3</ele>
        <time>2018-10-21T10:16:02Z</time>
      </trkpt>
      <trkpt lat="43.1453750" lon="-3.1080950">
        <ele>127.3</ele>
        <time>2018-10-21T10:16:03Z</time>
      </trkpt>
      <trkpt lat="43.1454520" lon="-3.1080300">
        <ele>127.3</ele>
        <time>2018-10-21T10:16:04Z</time>
      </trkpt>
      <trkpt lat="43.1455280" lon="-3.1079670">
        <ele>127.3</ele>
        <time>2018-10-21T10:16:05Z</time>
      </trkpt>
      <trkpt lat="43.1456070" lon="-3.1079070">
        <ele>127.3</ele>
        <time>2018-10-21T10:16:06Z</time>
      </trkpt>
      <trkpt lat="43.1456830" lon="-3.1078430">
        <ele>126.2</ele>
        <time>2018-10-21T10:16:07Z</time>
      </trkpt>
      <trkpt lat="43.1457620" lon="-3.1077820">
        <ele>126.2</ele>
        <time>2018-10-21T10:16:08Z</time>
      </trkpt>
      <trkpt lat="43.1458430" lon="-3.1077230">
        <ele>126.2</ele>
        <time>2018-10-21T10:16:09Z</time>
      </trkpt>
      <trkpt lat="43.1459270" lon="-3.1076700">
        <ele>126.2</ele>
        <time>2018-10-21T10:16:10Z</time>
      </trkpt>
      <trkpt lat="43.1460120" lon="-3.1076180">
        <ele>125.3</ele>
        <time>2018-10-21T10:16:11Z</time>
      </trkpt>
      <trkpt lat="43.1460970" lon="-3.1075670">
        <ele>125.3</ele>
        <time>2018-10-21T10:16:12Z</time>
      </trkpt>
      <trkpt lat="43.1461830" lon="-3.1075170">
        <ele>125.3</ele>
        <time>2018-10-21T10:16:13Z</time>
      </trkpt>
      <trkpt lat="43.1462700" lon="-3.1074650">
        <ele>125.3</ele>
        <time>2018-10-21T10:16:14Z</time>
      </trkpt>
      <trkpt lat="43.1463580" lon="-3.1074130">
        <ele>125.3</ele>
        <time>2018-10-21T10:16:15Z</time>
      </trkpt>
      <trkpt lat="43.1464430" lon="-3.1073600">
        <ele>125.3</ele>
        <time>2018-10-21T10:16:16Z</time>
      </trkpt>
      <trkpt lat="43.1465300" lon="-3.1073100">
        <ele>125.3</ele>
        <time>2018-10-21T10:16:17Z</time>
      </trkpt>
      <trkpt lat="43.1466170" lon="-3.1072600">
        <ele>125.3</ele>
        <time>2018-10-21T10:16:18Z</time>
      </trkpt>
      <trkpt lat="43.1467030" lon="-3.1072100">
        <ele>125.3</ele>
        <time>2018-10-21T10:16:19Z</time>
      </trkpt>
      <trkpt lat="43.1467900" lon="-3.1071580">
        <ele>125.3</ele>
        <time>2018-10-21T10:16:20Z</time>
      </trkpt>
      <trkpt lat="43.1468750" lon="-3.1071070">
        <ele>125.3</ele>
        <time>2018-10-21T10:16:21Z</time>
      </trkpt>
      <trkpt lat="43.1469630" lon="-3.1070580">
        <ele>125.3</ele>
        <time>2018-10-21T10:16:22Z</time>
      </trkpt>
      <trkpt lat="43.1470530" lon="-3.1070100">
        <ele>125.3</ele>
        <time>2018-10-21T10:16:23Z</time>
      </trkpt>
      <trkpt lat="43.1471450" lon="-3.1069650">
        <ele>125.3</ele>
        <time>2018-10-21T10:16:24Z</time>
      </trkpt>
      <trkpt lat="43.1472380" lon="-3.1069250">
        <ele>124.2</ele>
        <time>2018-10-21T10:16:25Z</time>
      </trkpt>
      <trkpt lat="43.1473330" lon="-3.1068830">
        <ele>124.2</ele>
        <time>2018-10-21T10:16:26Z</time>
      </trkpt>
      <trkpt lat="43.1474280" lon="-3.1068430">
        <ele>123.3</ele>
        <time>2018-10-21T10:16:27Z</time>
      </trkpt>
      <trkpt lat="43.1475270" lon="-3.1068030">
        <ele>123.3</ele>
        <time>2018-10-21T10:16:28Z</time>
      </trkpt>
      <trkpt lat="43.1476220" lon="-3.1067630">
        <ele>122.2</ele>
        <time>2018-10-21T10:16:29Z</time>
      </trkpt>
      <trkpt lat="43.1477180" lon="-3.1067230">
        <ele>122.2</ele>
        <time>2018-10-21T10:16:30Z</time>
      </trkpt>
      <trkpt lat="43.1478150" lon="-3.1066850">
        <ele>122.2</ele>
        <time>2018-10-21T10:16:31Z</time>
      </trkpt>
      <trkpt lat="43.1479120" lon="-3.1066450">
        <ele>122.2</ele>
        <time>2018-10-21T10:16:32Z</time>
      </trkpt>
      <trkpt lat="43.1480030" lon="-3.1066070">
        <ele>122.2</ele>
        <time>2018-10-21T10:16:33Z</time>
      </trkpt>
      <trkpt lat="43.1480930" lon="-3.1065670">
        <ele>122.2</ele>
        <time>2018-10-21T10:16:34Z</time>
      </trkpt>
      <trkpt lat="43.1481820" lon="-3.1065280">
        <ele>121.2</ele>
        <time>2018-10-21T10:16:35Z</time>
      </trkpt>
      <trkpt lat="43.1482720" lon="-3.1064920">
        <ele>121.2</ele>
        <time>2018-10-21T10:16:36Z</time>
      </trkpt>
      <trkpt lat="43.1483630" lon="-3.1064550">
        <ele>121.2</ele>
        <time>2018-10-21T10:16:37Z</time>
      </trkpt>
      <trkpt lat="43.1484530" lon="-3.1064180">
        <ele>121.2</ele>
        <time>2018-10-21T10:16:38Z</time>
      </trkpt>
      <trkpt lat="43.1485450" lon="-3.1063800">
        <ele>121.2</ele>
        <time>2018-10-21T10:16:39Z</time>
      </trkpt>
      <trkpt lat="43.1486350" lon="-3.1063430">
        <ele>121.2</ele>
        <time>2018-10-21T10:16:40Z</time>
      </trkpt>
      <trkpt lat="43.1487250" lon="-3.1063020">
        <ele>120.2</ele>
        <time>2018-10-21T10:16:41Z</time>
      </trkpt>
      <trkpt lat="43.1488170" lon="-3.1062630">
        <ele>120.2</ele>
        <time>2018-10-21T10:16:42Z</time>
      </trkpt>
      <trkpt lat="43.1489080" lon="-3.1062270">
        <ele>120.2</ele>
        <time>2018-10-21T10:16:43Z</time>
      </trkpt>
      <trkpt lat="43.1490020" lon="-3.1061900">
        <ele>120.2</ele>
        <time>2018-10-21T10:16:44Z</time>
      </trkpt>
      <trkpt lat="43.1490950" lon="-3.1061500">
        <ele>120.2</ele>
        <time>2018-10-21T10:16:45Z</time>
      </trkpt>
      <trkpt lat="43.1491870" lon="-3.1061120">
        <ele>120.2</ele>
        <time>2018-10-21T10:16:46Z</time>
      </trkpt>
      <trkpt lat="43.1492780" lon="-3.1060730">
        <ele>120.2</ele>
        <time>2018-10-21T10:16:47Z</time>
      </trkpt>
      <trkpt lat="43.1493700" lon="-3.1060370">
        <ele>120.2</ele>
        <time>2018-10-21T10:16:48Z</time>
      </trkpt>
      <trkpt lat="43.1494620" lon="-3.1060000">
        <ele>119.2</ele>
        <time>2018-10-21T10:16:49Z</time>
      </trkpt>
      <trkpt lat="43.1495550" lon="-3.1059650">
        <ele>119.2</ele>
        <time>2018-10-21T10:16:50Z</time>
      </trkpt>
      <trkpt lat="43.1496480" lon="-3.1059330">
        <ele>119.2</ele>
        <time>2018-10-21T10:16:51Z</time>
      </trkpt>
      <trkpt lat="43.1497420" lon="-3.1059070">
        <ele>119.2</ele>
        <time>2018-10-21T10:16:52Z</time>
      </trkpt>
      <trkpt lat="43.1498350" lon="-3.1058830">
        <ele>118.3</ele>
        <time>2018-10-21T10:16:53Z</time>
      </trkpt>
      <trkpt lat="43.1499300" lon="-3.1058630">
        <ele>118.3</ele>
        <time>2018-10-21T10:16:54Z</time>
      </trkpt>
      <trkpt lat="43.1500250" lon="-3.1058450">
        <ele>118.3</ele>
        <time>2018-10-21T10:16:55Z</time>
      </trkpt>
      <trkpt lat="43.1501180" lon="-3.1058280">
        <ele>118.3</ele>
        <time>2018-10-21T10:16:56Z</time>
      </trkpt>
      <trkpt lat="43.1502070" lon="-3.1058130">
        <ele>118.3</ele>
        <time>2018-10-21T10:16:57Z</time>
      </trkpt>
      <trkpt lat="43.1503070" lon="-3.1058020">
        <ele>118.3</ele>
        <time>2018-10-21T10:16:58Z</time>
      </trkpt>
      <trkpt lat="43.1504020" lon="-3.1057950">
        <ele>118.3</ele>
        <time>2018-10-21T10:16:59Z</time>
      </trkpt>
      <trkpt lat="43.1504980" lon="-3.1057930">
        <ele>118.3</ele>
        <time>2018-10-21T10:17:00Z</time>
      </trkpt>
      <trkpt lat="43.1505930" lon="-3.1057930">
        <ele>117.2</ele>
        <time>2018-10-21T10:17:01Z</time>
      </trkpt>
      <trkpt lat="43.1506900" lon="-3.1058000">
        <ele>117.2</ele>
        <time>2018-10-21T10:17:02Z</time>
      </trkpt>
      <trkpt lat="43.1507830" lon="-3.1058120">
        <ele>116.3</ele>
        <time>2018-10-21T10:17:03Z</time>
      </trkpt>
      <trkpt lat="43.1508800" lon="-3.1058220">
        <ele>116.3</ele>
        <time>2018-10-21T10:17:04Z</time>
      </trkpt>
      <trkpt lat="43.1509750" lon="-3.1058330">
        <ele>116.3</ele>
        <time>2018-10-21T10:17:05Z</time>
      </trkpt>
      <trkpt lat="43.1510750" lon="-3.1058470">
        <ele>116.3</ele>
        <time>2018-10-21T10:17:06Z</time>
      </trkpt>
      <trkpt lat="43.1511720" lon="-3.1058600">
        <ele>116.3</ele>
        <time>2018-10-21T10:17:07Z</time>
      </trkpt>
      <trkpt lat="43.1512650" lon="-3.1058720">
        <ele>116.3</ele>
        <time>2018-10-21T10:17:08Z</time>
      </trkpt>
      <trkpt lat="43.1513600" lon="-3.1058850">
        <ele>116.3</ele>
        <time>2018-10-21T10:17:09Z</time>
      </trkpt>
      <trkpt lat="43.1514520" lon="-3.1059000">
        <ele>116.3</ele>
        <time>2018-10-21T10:17:10Z</time>
      </trkpt>
      <trkpt lat="43.1515450" lon="-3.1059150">
        <ele>116.3</ele>
        <time>2018-10-21T10:17:11Z</time>
      </trkpt>
      <trkpt lat="43.1516380" lon="-3.1059300">
        <ele>116.3</ele>
        <time>2018-10-21T10:17:12Z</time>
      </trkpt>
      <trkpt lat="43.1517300" lon="-3.1059430">
        <ele>116.3</ele>
        <time>2018-10-21T10:17:13Z</time>
      </trkpt>
      <trkpt lat="43.1518230" lon="-3.1059570">
        <ele>116.3</ele>
        <time>2018-10-21T10:17:14Z</time>
      </trkpt>
      <trkpt lat="43.1519150" lon="-3.1059680">
        <ele>116.3</ele>
        <time>2018-10-21T10:17:15Z</time>
      </trkpt>
      <trkpt lat="43.1520070" lon="-3.1059820">
        <ele>116.3</ele>
        <time>2018-10-21T10:17:16Z</time>
      </trkpt>
      <trkpt lat="43.1521020" lon="-3.1059930">
        <ele>115.2</ele>
        <time>2018-10-21T10:17:17Z</time>
      </trkpt>
      <trkpt lat="43.1521970" lon="-3.1060030">
        <ele>115.2</ele>
        <time>2018-10-21T10:17:18Z</time>
      </trkpt>
      <trkpt lat="43.1522920" lon="-3.1060170">
        <ele>115.2</ele>
        <time>2018-10-21T10:17:19Z</time>
      </trkpt>
      <trkpt lat="43.1523870" lon="-3.1060320">
        <ele>115.2</ele>
        <time>2018-10-21T10:17:20Z</time>
      </trkpt>
      <trkpt lat="43.1524830" lon="-3.1060470">
        <ele>115.2</ele>
        <time>2018-10-21T10:17:21Z</time>
      </trkpt>
      <trkpt lat="43.1525800" lon="-3.1060600">
        <ele>115.2</ele>
        <time>2018-10-21T10:17:22Z</time>
      </trkpt>
      <trkpt lat="43.1526770" lon="-3.1060730">
        <ele>115.2</ele>
        <time>2018-10-21T10:17:23Z</time>
      </trkpt>
      <trkpt lat="43.1527730" lon="-3.1060870">
        <ele>115.2</ele>
        <time>2018-10-21T10:17:24Z</time>
      </trkpt>
      <trkpt lat="43.1528680" lon="-3.1060980">
        <ele>115.2</ele>
        <time>2018-10-21T10:17:25Z</time>
      </trkpt>
      <trkpt lat="43.1529650" lon="-3.1061100">
        <ele>115.2</ele>
        <time>2018-10-21T10:17:26Z</time>
      </trkpt>
      <trkpt lat="43.1530600" lon="-3.1061220">
        <ele>115.2</ele>
        <time>2018-10-21T10:17:27Z</time>
      </trkpt>
      <trkpt lat="43.1531570" lon="-3.1061320">
        <ele>115.2</ele>
        <time>2018-10-21T10:17:28Z</time>
      </trkpt>
      <trkpt lat="43.1532520" lon="-3.1061430">
        <ele>115.2</ele>
        <time>2018-10-21T10:17:29Z</time>
      </trkpt>
      <trkpt lat="43.1533470" lon="-3.1061530">
        <ele>115.2</ele>
        <time>2018-10-21T10:17:30Z</time>
      </trkpt>
      <trkpt lat="43.1534400" lon="-3.1061630">
        <ele>115.2</ele>
        <time>2018-10-21T10:17:31Z</time>
      </trkpt>
      <trkpt lat="43.1535330" lon="-3.1061750">
        <ele>115.2</ele>
        <time>2018-10-21T10:17:32Z</time>
      </trkpt>
      <trkpt lat="43.1536270" lon="-3.1061850">
        <ele>114.3</ele>
        <time>2018-10-21T10:17:33Z</time>
      </trkpt>
      <trkpt lat="43.1537180" lon="-3.1061900">
        <ele>114.3</ele>
        <time>2018-10-21T10:17:34Z</time>
      </trkpt>
      <trkpt lat="43.1538130" lon="-3.1061950">
        <ele>114.3</ele>
        <time>2018-10-21T10:17:35Z</time>
      </trkpt>
      <trkpt lat="43.1539080" lon="-3.1062020">
        <ele>114.3</ele>
        <time>2018-10-21T10:17:36Z</time>
      </trkpt>
      <trkpt lat="43.1540050" lon="-3.1062050">
        <ele>114.3</ele>
        <time>2018-10-21T10:17:37Z</time>
      </trkpt>
      <trkpt lat="43.1541020" lon="-3.1062080">
        <ele>114.3</ele>
        <time>2018-10-21T10:17:38Z</time>
      </trkpt>
      <trkpt lat="43.1541970" lon="-3.1062120">
        <ele>114.3</ele>
        <time>2018-10-21T10:17:39Z</time>
      </trkpt>
      <trkpt lat="43.1542920" lon="-3.1062130">
        <ele>114.3</ele>
        <time>2018-10-21T10:17:40Z</time>
      </trkpt>
      <trkpt lat="43.1543870" lon="-3.1062130">
        <ele>114.3</ele>
        <time>2018-10-21T10:17:41Z</time>
      </trkpt>
      <trkpt lat="43.1544820" lon="-3.1062130">
        <ele>114.3</ele>
        <time>2018-10-21T10:17:42Z</time>
      </trkpt>
      <trkpt lat="43.1545770" lon="-3.1062130">
        <ele>114.3</ele>
        <time>2018-10-21T10:17:43Z</time>
      </trkpt>
      <trkpt lat="43.1546720" lon="-3.1062130">
        <ele>114.3</ele>
        <time>2018-10-21T10:17:44Z</time>
      </trkpt>
      <trkpt lat="43.1547670" lon="-3.1062150">
        <ele>114.3</ele>
        <time>2018-10-21T10:17:45Z</time>
      </trkpt>
      <trkpt lat="43.1548600" lon="-3.1062170">
        <ele>114.3</ele>
        <time>2018-10-21T10:17:46Z</time>
      </trkpt>
      <trkpt lat="43.1549530" lon="-3.1062180">
        <ele>113.2</ele>
        <time>2018-10-21T10:17:47Z</time>
      </trkpt>
      <trkpt lat="43.1550470" lon="-3.1062200">
        <ele>113.2</ele>
        <time>2018-10-21T10:17:48Z</time>
      </trkpt>
      <trkpt lat="43.1551380" lon="-3.1062220">
        <ele>113.2</ele>
        <time>2018-10-21T10:17:49Z</time>
      </trkpt>
      <trkpt lat="43.1552300" lon="-3.1062220">
        <ele>113.2</ele>
        <time>2018-10-21T10:17:50Z</time>
      </trkpt>
      <trkpt lat="43.1553220" lon="-3.1062220">
        <ele>113.2</ele>
        <time>2018-10-21T10:17:51Z</time>
      </trkpt>
      <trkpt lat="43.1554130" lon="-3.1062220">
        <ele>113.2</ele>
        <time>2018-10-21T10:17:52Z</time>
      </trkpt>
      <trkpt lat="43.1555030" lon="-3.1062220">
        <ele>113.2</ele>
        <time>2018-10-21T10:17:53Z</time>
      </trkpt>
      <trkpt lat="43.1555950" lon="-3.1062230">
        <ele>113.2</ele>
        <time>2018-10-21T10:17:54Z</time>
      </trkpt>
      <trkpt lat="43.1556880" lon="-3.1062250">
        <ele>113.2</ele>
        <time>2018-10-21T10:17:55Z</time>
      </trkpt>
      <trkpt lat="43.1557820" lon="-3.1062230">
        <ele>113.2</ele>
        <time>2018-10-21T10:17:56Z</time>
      </trkpt>
      <trkpt lat="43.1558770" lon="-3.1062200">
        <ele>113.2</ele>
        <time>2018-10-21T10:17:57Z</time>
      </trkpt>
      <trkpt lat="43.1559720" lon="-3.1062130">
        <ele>113.2</ele>
        <time>2018-10-21T10:17:58Z</time>
      </trkpt>
      <trkpt lat="43.1560670" lon="-3.1062030">
        <ele>112.2</ele>
        <time>2018-10-21T10:17:59Z</time>
      </trkpt>
      <trkpt lat="43.1561630" lon="-3.1061870">
        <ele>112.2</ele>
        <time>2018-10-21T10:18:00Z</time>
      </trkpt>
      <trkpt lat="43.1562600" lon="-3.1061670">
        <ele>112.2</ele>
        <time>2018-10-21T10:18:01Z</time>
      </trkpt>
      <trkpt lat="43.1563550" lon="-3.1061420">
        <ele>112.2</ele>
        <time>2018-10-21T10:18:02Z</time>
      </trkpt>
      <trkpt lat="43.1564520" lon="-3.1061170">
        <ele>112.2</ele>
        <time>2018-10-21T10:18:03Z</time>
      </trkpt>
      <trkpt lat="43.1565470" lon="-3.1060900">
        <ele>112.2</ele>
        <time>2018-10-21T10:18:04Z</time>
      </trkpt>
      <trkpt lat="43.1566430" lon="-3.1060600">
        <ele>112.2</ele>
        <time>2018-10-21T10:18:05Z</time>
      </trkpt>
      <trkpt lat="43.1567380" lon="-3.1060280">
        <ele>112.2</ele>
        <time>2018-10-21T10:18:06Z</time>
      </trkpt>
      <trkpt lat="43.1568330" lon="-3.1059970">
        <ele>112.2</ele>
        <time>2018-10-21T10:18:07Z</time>
      </trkpt>
      <trkpt lat="43.1569280" lon="-3.1059650">
        <ele>112.2</ele>
        <time>2018-10-21T10:18:08Z</time>
      </trkpt>
      <trkpt lat="43.1570230" lon="-3.1059330">
        <ele>112.2</ele>
        <time>2018-10-21T10:18:09Z</time>
      </trkpt>
      <trkpt lat="43.1571180" lon="-3.1059000">
        <ele>112.2</ele>
        <time>2018-10-21T10:18:10Z</time>
      </trkpt>
      <trkpt lat="43.1572150" lon="-3.1058650">
        <ele>112.2</ele>
        <time>2018-10-21T10:18:11Z</time>
      </trkpt>
      <trkpt lat="43.1573100" lon="-3.1058300">
        <ele>112.2</ele>
        <time>2018-10-21T10:18:12Z</time>
      </trkpt>
      <trkpt lat="43.1574080" lon="-3.1057930">
        <ele>111.3</ele>
        <time>2018-10-21T10:18:13Z</time>
      </trkpt>
      <trkpt lat="43.1575070" lon="-3.1057570">
        <ele>111.3</ele>
        <time>2018-10-21T10:18:14Z</time>
      </trkpt>
      <trkpt lat="43.1576030" lon="-3.1057150">
        <ele>111.3</ele>
        <time>2018-10-21T10:18:15Z</time>
      </trkpt>
      <trkpt lat="43.1577020" lon="-3.1056730">
        <ele>111.3</ele>
        <time>2018-10-21T10:18:16Z</time>
      </trkpt>
      <trkpt lat="43.1577970" lon="-3.1056270">
        <ele>111.3</ele>
        <time>2018-10-21T10:18:17Z</time>
      </trkpt>
      <trkpt lat="43.1578900" lon="-3.1055770">
        <ele>111.3</ele>
        <time>2018-10-21T10:18:18Z</time>
      </trkpt>
      <trkpt lat="43.1579820" lon="-3.1055250">
        <ele>110.2</ele>
        <time>2018-10-21T10:18:19Z</time>
      </trkpt>
      <trkpt lat="43.1580730" lon="-3.1054720">
        <ele>110.2</ele>
        <time>2018-10-21T10:18:20Z</time>
      </trkpt>
      <trkpt lat="43.1581620" lon="-3.1054200">
        <ele>110.2</ele>
        <time>2018-10-21T10:18:21Z</time>
      </trkpt>
      <trkpt lat="43.1582500" lon="-3.1053630">
        <ele>110.2</ele>
        <time>2018-10-21T10:18:22Z</time>
      </trkpt>
      <trkpt lat="43.1583350" lon="-3.1053120">
        <ele>110.2</ele>
        <time>2018-10-21T10:18:23Z</time>
      </trkpt>
      <trkpt lat="43.1584200" lon="-3.1052580">
        <ele>110.2</ele>
        <time>2018-10-21T10:18:24Z</time>
      </trkpt>
      <trkpt lat="43.1585050" lon="-3.1052030">
        <ele>109.3</ele>
        <time>2018-10-21T10:18:25Z</time>
      </trkpt>
      <trkpt lat="43.1585900" lon="-3.1051500">
        <ele>109.3</ele>
        <time>2018-10-21T10:18:26Z</time>
      </trkpt>
      <trkpt lat="43.1586730" lon="-3.1050950">
        <ele>109.3</ele>
        <time>2018-10-21T10:18:27Z</time>
      </trkpt>
      <trkpt lat="43.1587570" lon="-3.1050380">
        <ele>109.3</ele>
        <time>2018-10-21T10:18:28Z</time>
      </trkpt>
      <trkpt lat="43.1588420" lon="-3.1049820">
        <ele>109.3</ele>
        <time>2018-10-21T10:18:29Z</time>
      </trkpt>
      <trkpt lat="43.1589250" lon="-3.1049270">
        <ele>109.3</ele>
        <time>2018-10-21T10:18:30Z</time>
      </trkpt>
      <trkpt lat="43.1590070" lon="-3.1048700">
        <ele>109.3</ele>
        <time>2018-10-21T10:18:31Z</time>
      </trkpt>
      <trkpt lat="43.1590900" lon="-3.1048150">
        <ele>109.3</ele>
        <time>2018-10-21T10:18:32Z</time>
      </trkpt>
      <trkpt lat="43.1591720" lon="-3.1047620">
        <ele>109.3</ele>
        <time>2018-10-21T10:18:33Z</time>
      </trkpt>
      <trkpt lat="43.1592530" lon="-3.1047070">
        <ele>109.3</ele>
        <time>2018-10-21T10:18:34Z</time>
      </trkpt>
      <trkpt lat="43.1593330" lon="-3.1046530">
        <ele>109.3</ele>
        <time>2018-10-21T10:18:35Z</time>
      </trkpt>
      <trkpt lat="43.1594130" lon="-3.1046000">
        <ele>109.3</ele>
        <time>2018-10-21T10:18:36Z</time>
      </trkpt>
      <trkpt lat="43.1594930" lon="-3.1045480">
        <ele>109.3</ele>
        <time>2018-10-21T10:18:37Z</time>
      </trkpt>
      <trkpt lat="43.1595720" lon="-3.1044980">
        <ele>109.3</ele>
        <time>2018-10-21T10:18:38Z</time>
      </trkpt>
      <trkpt lat="43.1596520" lon="-3.1044480">
        <ele>109.3</ele>
        <time>2018-10-21T10:18:39Z</time>
      </trkpt>
      <trkpt lat="43.1597300" lon="-3.1043980">
        <ele>109.3</ele>
        <time>2018-10-21T10:18:40Z</time>
      </trkpt>
      <trkpt lat="43.1598080" lon="-3.1043500">
        <ele>109.3</ele>
        <time>2018-10-21T10:18:41Z</time>
      </trkpt>
      <trkpt lat="43.1598870" lon="-3.1043030">
        <ele>109.3</ele>
        <time>2018-10-21T10:18:42Z</time>
      </trkpt>
      <trkpt lat="43.1599630" lon="-3.1042530">
        <ele>109.3</ele>
        <time>2018-10-21T10:18:43Z</time>
      </trkpt>
      <trkpt lat="43.1600400" lon="-3.1042050">
        <ele>109.3</ele>
        <time>2018-10-21T10:18:44Z</time>
      </trkpt>
      <trkpt lat="43.1601180" lon="-3.1041570">
        <ele>108.2</ele>
        <time>2018-10-21T10:18:45Z</time>
      </trkpt>
      <trkpt lat="43.1601970" lon="-3.1041100">
        <ele>108.2</ele>
        <time>2018-10-21T10:18:46Z</time>
      </trkpt>
      <trkpt lat="43.1602750" lon="-3.1040650">
        <ele>108.2</ele>
        <time>2018-10-21T10:18:47Z</time>
      </trkpt>
      <trkpt lat="43.1603530" lon="-3.1040150">
        <ele>108.2</ele>
        <time>2018-10-21T10:18:48Z</time>
      </trkpt>
      <trkpt lat="43.1604330" lon="-3.1039670">
        <ele>108.2</ele>
        <time>2018-10-21T10:18:49Z</time>
      </trkpt>
      <trkpt lat="43.1605170" lon="-3.1039200">
        <ele>108.2</ele>
        <time>2018-10-21T10:18:50Z</time>
      </trkpt>
      <trkpt lat="43.1605970" lon="-3.1038720">
        <ele>108.2</ele>
        <time>2018-10-21T10:18:51Z</time>
      </trkpt>
      <trkpt lat="43.1606780" lon="-3.1038220">
        <ele>108.2</ele>
        <time>2018-10-21T10:18:52Z</time>
      </trkpt>
      <trkpt lat="43.1607600" lon="-3.1037720">
        <ele>108.2</ele>
        <time>2018-10-21T10:18:53Z</time>
      </trkpt>
      <trkpt lat="43.1608400" lon="-3.1037230">
        <ele>108.2</ele>
        <time>2018-10-21T10:18:54Z</time>
      </trkpt>
      <trkpt lat="43.1609220" lon="-3.1036750">
        <ele>108.2</ele>
        <time>2018-10-21T10:18:55Z</time>
      </trkpt>
      <trkpt lat="43.1610020" lon="-3.1036270">
        <ele>108.2</ele>
        <time>2018-10-21T10:18:56Z</time>
      </trkpt>
      <trkpt lat="43.1610830" lon="-3.1035820">
        <ele>108.2</ele>
        <time>2018-10-21T10:18:57Z</time>
      </trkpt>
      <trkpt lat="43.1611650" lon="-3.1035330">
        <ele>108.2</ele>
        <time>2018-10-21T10:18:58Z</time>
      </trkpt>
      <trkpt lat="43.1612470" lon="-3.1034850">
        <ele>107.3</ele>
        <time>2018-10-21T10:18:59Z</time>
      </trkpt>
      <trkpt lat="43.1613300" lon="-3.1034370">
        <ele>107.3</ele>
        <time>2018-10-21T10:19:00Z</time>
      </trkpt>
      <trkpt lat="43.1614150" lon="-3.1033880">
        <ele>107.3</ele>
        <time>2018-10-21T10:19:01Z</time>
      </trkpt>
      <trkpt lat="43.1615030" lon="-3.1033420">
        <ele>107.3</ele>
        <time>2018-10-21T10:19:02Z</time>
      </trkpt>
      <trkpt lat="43.1615950" lon="-3.1032930">
        <ele>107.3</ele>
        <time>2018-10-21T10:19:03Z</time>
      </trkpt>
      <trkpt lat="43.1616880" lon="-3.1032470">
        <ele>107.3</ele>
        <time>2018-10-21T10:19:04Z</time>
      </trkpt>
      <trkpt lat="43.1617830" lon="-3.1031970">
        <ele>107.3</ele>
        <time>2018-10-21T10:19:05Z</time>
      </trkpt>
      <trkpt lat="43.1618800" lon="-3.1031470">
        <ele>107.3</ele>
        <time>2018-10-21T10:19:06Z</time>
      </trkpt>
      <trkpt lat="43.1619750" lon="-3.1030950">
        <ele>107.3</ele>
        <time>2018-10-21T10:19:07Z</time>
      </trkpt>
      <trkpt lat="43.1620720" lon="-3.1030470">
        <ele>107.3</ele>
        <time>2018-10-21T10:19:08Z</time>
      </trkpt>
      <trkpt lat="43.1621680" lon="-3.1029970">
        <ele>106.2</ele>
        <time>2018-10-21T10:19:09Z</time>
      </trkpt>
      <trkpt lat="43.1622630" lon="-3.1029470">
        <ele>106.2</ele>
        <time>2018-10-21T10:19:10Z</time>
      </trkpt>
      <trkpt lat="43.1623580" lon="-3.1028980">
        <ele>106.2</ele>
        <time>2018-10-21T10:19:11Z</time>
      </trkpt>
      <trkpt lat="43.1624520" lon="-3.1028520">
        <ele>106.2</ele>
        <time>2018-10-21T10:19:12Z</time>
      </trkpt>
      <trkpt lat="43.1625470" lon="-3.1028050">
        <ele>106.2</ele>
        <time>2018-10-21T10:19:13Z</time>
      </trkpt>
      <trkpt lat="43.1626420" lon="-3.1027580">
        <ele>106.2</ele>
        <time>2018-10-21T10:19:14Z</time>
      </trkpt>
      <trkpt lat="43.1627370" lon="-3.1027120">
        <ele>105.3</ele>
        <time>2018-10-21T10:19:15Z</time>
      </trkpt>
      <trkpt lat="43.1628300" lon="-3.1026650">
        <ele>105.3</ele>
        <time>2018-10-21T10:19:16Z</time>
      </trkpt>
      <trkpt lat="43.1629230" lon="-3.1026180">
        <ele>105.3</ele>
        <time>2018-10-21T10:19:17Z</time>
      </trkpt>
      <trkpt lat="43.1630150" lon="-3.1025730">
        <ele>105.3</ele>
        <time>2018-10-21T10:19:18Z</time>
      </trkpt>
      <trkpt lat="43.1631070" lon="-3.1025270">
        <ele>105.3</ele>
        <time>2018-10-21T10:19:19Z</time>
      </trkpt>
      <trkpt lat="43.1631970" lon="-3.1024800">
        <ele>105.3</ele>
        <time>2018-10-21T10:19:20Z</time>
      </trkpt>
      <trkpt lat="43.1632850" lon="-3.1024350">
        <ele>105.3</ele>
        <time>2018-10-21T10:19:21Z</time>
      </trkpt>
      <trkpt lat="43.1633750" lon="-3.1023900">
        <ele>105.3</ele>
        <time>2018-10-21T10:19:22Z</time>
      </trkpt>
      <trkpt lat="43.1634650" lon="-3.1023450">
        <ele>104.2</ele>
        <time>2018-10-21T10:19:23Z</time>
      </trkpt>
      <trkpt lat="43.1635550" lon="-3.1022970">
        <ele>104.2</ele>
        <time>2018-10-21T10:19:24Z</time>
      </trkpt>
      <trkpt lat="43.1636470" lon="-3.1022520">
        <ele>104.2</ele>
        <time>2018-10-21T10:19:25Z</time>
      </trkpt>
      <trkpt lat="43.1637380" lon="-3.1022070">
        <ele>104.2</ele>
        <time>2018-10-21T10:19:26Z</time>
      </trkpt>
      <trkpt lat="43.1638280" lon="-3.1021580">
        <ele>104.2</ele>
        <time>2018-10-21T10:19:27Z</time>
      </trkpt>
      <trkpt lat="43.1639200" lon="-3.1021080">
        <ele>104.2</ele>
        <time>2018-10-21T10:19:28Z</time>
      </trkpt>
      <trkpt lat="43.1640120" lon="-3.1020630">
        <ele>103.2</ele>
        <time>2018-10-21T10:19:29Z</time>
      </trkpt>
      <trkpt lat="43.1641020" lon="-3.1020180">
        <ele>103.2</ele>
        <time>2018-10-21T10:19:30Z</time>
      </trkpt>
      <trkpt lat="43.1641930" lon="-3.1019730">
        <ele>103.2</ele>
        <time>2018-10-21T10:19:31Z</time>
      </trkpt>
      <trkpt lat="43.1642820" lon="-3.1019280">
        <ele>103.2</ele>
        <time>2018-10-21T10:19:32Z</time>
      </trkpt>
      <trkpt lat="43.1643700" lon="-3.1018830">
        <ele>103.2</ele>
        <time>2018-10-21T10:19:33Z</time>
      </trkpt>
      <trkpt lat="43.1644580" lon="-3.1018380">
        <ele>103.2</ele>
        <time>2018-10-21T10:19:34Z</time>
      </trkpt>
      <trkpt lat="43.1645470" lon="-3.1017900">
        <ele>103.2</ele>
        <time>2018-10-21T10:19:35Z</time>
      </trkpt>
      <trkpt lat="43.1646330" lon="-3.1017430">
        <ele>103.2</ele>
        <time>2018-10-21T10:19:36Z</time>
      </trkpt>
      <trkpt lat="43.1647220" lon="-3.1016980">
        <ele>103.2</ele>
        <time>2018-10-21T10:19:37Z</time>
      </trkpt>
      <trkpt lat="43.1648120" lon="-3.1016550">
        <ele>103.2</ele>
        <time>2018-10-21T10:19:38Z</time>
      </trkpt>
      <trkpt lat="43.1649000" lon="-3.1016100">
        <ele>103.2</ele>
        <time>2018-10-21T10:19:39Z</time>
      </trkpt>
      <trkpt lat="43.1649880" lon="-3.1015650">
        <ele>103.2</ele>
        <time>2018-10-21T10:19:40Z</time>
      </trkpt>
      <trkpt lat="43.1650750" lon="-3.1015200">
        <ele>103.2</ele>
        <time>2018-10-21T10:19:41Z</time>
      </trkpt>
      <trkpt lat="43.1651630" lon="-3.1014770">
        <ele>103.2</ele>
        <time>2018-10-21T10:19:42Z</time>
      </trkpt>
      <trkpt lat="43.1652520" lon="-3.1014330">
        <ele>103.2</ele>
        <time>2018-10-21T10:19:43Z</time>
      </trkpt>
      <trkpt lat="43.1653400" lon="-3.1013900">
        <ele>103.2</ele>
        <time>2018-10-21T10:19:44Z</time>
      </trkpt>
      <trkpt lat="43.1654270" lon="-3.1013450">
        <ele>103.2</ele>
        <time>2018-10-21T10:19:45Z</time>
      </trkpt>
      <trkpt lat="43.1655150" lon="-3.1013020">
        <ele>103.2</ele>
        <time>2018-10-21T10:19:46Z</time>
      </trkpt>
      <trkpt lat="43.1656050" lon="-3.1012600">
        <ele>103.2</ele>
        <time>2018-10-21T10:19:47Z</time>
      </trkpt>
      <trkpt lat="43.1656950" lon="-3.1012200">
        <ele>103.2</ele>
        <time>2018-10-21T10:19:48Z</time>
      </trkpt>
      <trkpt lat="43.1657870" lon="-3.1011830">
        <ele>103.2</ele>
        <time>2018-10-21T10:19:49Z</time>
      </trkpt>
      <trkpt lat="43.1658800" lon="-3.1011500">
        <ele>103.2</ele>
        <time>2018-10-21T10:19:50Z</time>
      </trkpt>
      <trkpt lat="43.1659730" lon="-3.1011200">
        <ele>103.2</ele>
        <time>2018-10-21T10:19:51Z</time>
      </trkpt>
      <trkpt lat="43.1660670" lon="-3.1010880">
        <ele>103.2</ele>
        <time>2018-10-21T10:19:52Z</time>
      </trkpt>
      <trkpt lat="43.1661600" lon="-3.1010580">
        <ele>102.3</ele>
        <time>2018-10-21T10:19:53Z</time>
      </trkpt>
      <trkpt lat="43.1662550" lon="-3.1010280">
        <ele>102.3</ele>
        <time>2018-10-21T10:19:54Z</time>
      </trkpt>
      <trkpt lat="43.1663500" lon="-3.1009980">
        <ele>102.3</ele>
        <time>2018-10-21T10:19:55Z</time>
      </trkpt>
      <trkpt lat="43.1664450" lon="-3.1009680">
        <ele>102.3</ele>
        <time>2018-10-21T10:19:56Z</time>
      </trkpt>
      <trkpt lat="43.1665400" lon="-3.1009400">
        <ele>102.3</ele>
        <time>2018-10-21T10:19:57Z</time>
      </trkpt>
      <trkpt lat="43.1666330" lon="-3.1009130">
        <ele>102.3</ele>
        <time>2018-10-21T10:19:58Z</time>
      </trkpt>
      <trkpt lat="43.1667270" lon="-3.1008870">
        <ele>102.3</ele>
        <time>2018-10-21T10:19:59Z</time>
      </trkpt>
      <trkpt lat="43.1668220" lon="-3.1008600">
        <ele>102.3</ele>
        <time>2018-10-21T10:20:00Z</time>
      </trkpt>
      <trkpt lat="43.1669130" lon="-3.1008320">
        <ele>101.2</ele>
        <time>2018-10-21T10:20:01Z</time>
      </trkpt>
      <trkpt lat="43.1670070" lon="-3.1008030">
        <ele>101.2</ele>
        <time>2018-10-21T10:20:02Z</time>
      </trkpt>
      <trkpt lat="43.1670950" lon="-3.1007780">
        <ele>101.2</ele>
        <time>2018-10-21T10:20:03Z</time>
      </trkpt>
      <trkpt lat="43.1671850" lon="-3.1007530">
        <ele>101.2</ele>
        <time>2018-10-21T10:20:04Z</time>
      </trkpt>
      <trkpt lat="43.1672730" lon="-3.1007300">
        <ele>100.3</ele>
        <time>2018-10-21T10:20:05Z</time>
      </trkpt>
      <trkpt lat="43.1673600" lon="-3.1007070">
        <ele>100.3</ele>
        <time>2018-10-21T10:20:06Z</time>
      </trkpt>
      <trkpt lat="43.1674470" lon="-3.1006870">
        <ele>100.3</ele>
        <time>2018-10-21T10:20:07Z</time>
      </trkpt>
      <trkpt lat="43.1675330" lon="-3.1006750">
        <ele>100.3</ele>
        <time>2018-10-21T10:20:08Z</time>
      </trkpt>
      <trkpt lat="43.1676220" lon="-3.1006670">
        <ele>100.3</ele>
        <time>2018-10-21T10:20:09Z</time>
      </trkpt>
      <trkpt lat="43.1677070" lon="-3.1006570">
        <ele>100.3</ele>
        <time>2018-10-21T10:20:10Z</time>
      </trkpt>
      <trkpt lat="43.1677920" lon="-3.1006420">
        <ele>100.3</ele>
        <time>2018-10-21T10:20:11Z</time>
      </trkpt>
      <trkpt lat="43.1678730" lon="-3.1006250">
        <ele>100.3</ele>
        <time>2018-10-21T10:20:12Z</time>
      </trkpt>
      <trkpt lat="43.1679570" lon="-3.1006080">
        <ele>100.3</ele>
        <time>2018-10-21T10:20:13Z</time>
      </trkpt>
      <trkpt lat="43.1680380" lon="-3.1005920">
        <ele>100.3</ele>
        <time>2018-10-21T10:20:14Z</time>
      </trkpt>
      <trkpt lat="43.1681180" lon="-3.1005680">
        <ele>100.3</ele>
        <time>2018-10-21T10:20:15Z</time>
      </trkpt>
      <trkpt lat="43.1681980" lon="-3.1005370">
        <ele>100.3</ele>
        <time>2018-10-21T10:20:16Z</time>
      </trkpt>
      <trkpt lat="43.1682780" lon="-3.1004970">
        <ele>100.3</ele>
        <time>2018-10-21T10:20:17Z</time>
      </trkpt>
      <trkpt lat="43.1683580" lon="-3.1004550">
        <ele>100.3</ele>
        <time>2018-10-21T10:20:18Z</time>
      </trkpt>
      <trkpt lat="43.1684430" lon="-3.1004100">
        <ele>100.3</ele>
        <time>2018-10-21T10:20:19Z</time>
      </trkpt>
      <trkpt lat="43.1685270" lon="-3.1003620">
        <ele>100.3</ele>
        <time>2018-10-21T10:20:20Z</time>
      </trkpt>
      <trkpt lat="43.1686120" lon="-3.1003130">
        <ele>100.3</ele>
        <time>2018-10-21T10:20:21Z</time>
      </trkpt>
      <trkpt lat="43.1686950" lon="-3.1002670">
        <ele>100.3</ele>
        <time>2018-10-21T10:20:22Z</time>
      </trkpt>
      <trkpt lat="43.1687780" lon="-3.1002170">
        <ele>101.2</ele>
        <time>2018-10-21T10:20:23Z</time>
      </trkpt>
      <trkpt lat="43.1688570" lon="-3.1001630">
        <ele>101.2</ele>
        <time>2018-10-21T10:20:24Z</time>
      </trkpt>
      <trkpt lat="43.1689350" lon="-3.1001080">
        <ele>101.2</ele>
        <time>2018-10-21T10:20:25Z</time>
      </trkpt>
      <trkpt lat="43.1690120" lon="-3.1000530">
        <ele>101.2</ele>
        <time>2018-10-21T10:20:26Z</time>
      </trkpt>
      <trkpt lat="43.1690870" lon="-3.0999970">
        <ele>101.2</ele>
        <time>2018-10-21T10:20:27Z</time>
      </trkpt>
      <trkpt lat="43.1691620" lon="-3.0999400">
        <ele>101.2</ele>
        <time>2018-10-21T10:20:28Z</time>
      </trkpt>
      <trkpt lat="43.1692380" lon="-3.0998830">
        <ele>101.2</ele>
        <time>2018-10-21T10:20:29Z</time>
      </trkpt>
      <trkpt lat="43.1693120" lon="-3.0998220">
        <ele>101.2</ele>
        <time>2018-10-21T10:20:30Z</time>
      </trkpt>
      <trkpt lat="43.1693850" lon="-3.0997580">
        <ele>101.2</ele>
        <time>2018-10-21T10:20:31Z</time>
      </trkpt>
      <trkpt lat="43.1694600" lon="-3.0996930">
        <ele>101.2</ele>
        <time>2018-10-21T10:20:32Z</time>
      </trkpt>
      <trkpt lat="43.1695330" lon="-3.0996270">
        <ele>101.2</ele>
        <time>2018-10-21T10:20:33Z</time>
      </trkpt>
      <trkpt lat="43.1696030" lon="-3.0995580">
        <ele>101.2</ele>
        <time>2018-10-21T10:20:34Z</time>
      </trkpt>
      <trkpt lat="43.1696700" lon="-3.0994850">
        <ele>102.3</ele>
        <time>2018-10-21T10:20:35Z</time>
      </trkpt>
      <trkpt lat="43.1697330" lon="-3.0994100">
        <ele>102.3</ele>
        <time>2018-10-21T10:20:36Z</time>
      </trkpt>
      <trkpt lat="43.1697980" lon="-3.0993350">
        <ele>102.3</ele>
        <time>2018-10-21T10:20:37Z</time>
      </trkpt>
      <trkpt lat="43.1698630" lon="-3.0992620">
        <ele>102.3</ele>
        <time>2018-10-21T10:20:38Z</time>
      </trkpt>
      <trkpt lat="43.1699280" lon="-3.0991870">
        <ele>102.3</ele>
        <time>2018-10-21T10:20:39Z</time>
      </trkpt>
      <trkpt lat="43.1699930" lon="-3.0991120">
        <ele>102.3</ele>
        <time>2018-10-21T10:20:40Z</time>
      </trkpt>
      <trkpt lat="43.1700600" lon="-3.0990370">
        <ele>102.3</ele>
        <time>2018-10-21T10:20:41Z</time>
      </trkpt>
      <trkpt lat="43.1701280" lon="-3.0989630">
        <ele>102.3</ele>
        <time>2018-10-21T10:20:42Z</time>
      </trkpt>
      <trkpt lat="43.1701970" lon="-3.0988900">
        <ele>102.3</ele>
        <time>2018-10-21T10:20:43Z</time>
      </trkpt>
      <trkpt lat="43.1702670" lon="-3.0988200">
        <ele>102.3</ele>
        <time>2018-10-21T10:20:44Z</time>
      </trkpt>
      <trkpt lat="43.1703420" lon="-3.0987530">
        <ele>102.3</ele>
        <time>2018-10-21T10:20:45Z</time>
      </trkpt>
      <trkpt lat="43.1704170" lon="-3.0986880">
        <ele>102.3</ele>
        <time>2018-10-21T10:20:46Z</time>
      </trkpt>
      <trkpt lat="43.1704900" lon="-3.0986220">
        <ele>102.3</ele>
        <time>2018-10-21T10:20:47Z</time>
      </trkpt>
      <trkpt lat="43.1705630" lon="-3.0985500">
        <ele>102.3</ele>
        <time>2018-10-21T10:20:48Z</time>
      </trkpt>
      <trkpt lat="43.1706350" lon="-3.0984750">
        <ele>102.3</ele>
        <time>2018-10-21T10:20:49Z</time>
      </trkpt>
      <trkpt lat="43.1707050" lon="-3.0983970">
        <ele>102.3</ele>
        <time>2018-10-21T10:20:50Z</time>
      </trkpt>
      <trkpt lat="43.1707720" lon="-3.0983170">
        <ele>102.3</ele>
        <time>2018-10-21T10:20:51Z</time>
      </trkpt>
      <trkpt lat="43.1708370" lon="-3.0982380">
        <ele>102.3</ele>
        <time>2018-10-21T10:20:52Z</time>
      </trkpt>
      <trkpt lat="43.1709030" lon="-3.0981630">
        <ele>102.3</ele>
        <time>2018-10-21T10:20:53Z</time>
      </trkpt>
      <trkpt lat="43.1709730" lon="-3.0980920">
        <ele>102.3</ele>
        <time>2018-10-21T10:20:54Z</time>
      </trkpt>
      <trkpt lat="43.1710470" lon="-3.0980250">
        <ele>101.2</ele>
        <time>2018-10-21T10:20:55Z</time>
      </trkpt>
      <trkpt lat="43.1711230" lon="-3.0979620">
        <ele>101.2</ele>
        <time>2018-10-21T10:20:56Z</time>
      </trkpt>
      <trkpt lat="43.1712030" lon="-3.0979030">
        <ele>101.2</ele>
        <time>2018-10-21T10:20:57Z</time>
      </trkpt>
      <trkpt lat="43.1712870" lon="-3.0978480">
        <ele>101.2</ele>
        <time>2018-10-21T10:20:58Z</time>
      </trkpt>
      <trkpt lat="43.1713670" lon="-3.0977850">
        <ele>101.2</ele>
        <time>2018-10-21T10:20:59Z</time>
      </trkpt>
      <trkpt lat="43.1714430" lon="-3.0977150">
        <ele>101.2</ele>
        <time>2018-10-21T10:21:00Z</time>
      </trkpt>
      <trkpt lat="43.1715150" lon="-3.0976350">
        <ele>101.2</ele>
        <time>2018-10-21T10:21:01Z</time>
      </trkpt>
      <trkpt lat="43.1715830" lon="-3.0975520">
        <ele>101.2</ele>
        <time>2018-10-21T10:21:02Z</time>
      </trkpt>
      <trkpt lat="43.1716470" lon="-3.0974630">
        <ele>101.2</ele>
        <time>2018-10-21T10:21:03Z</time>
      </trkpt>
      <trkpt lat="43.1717070" lon="-3.0973700">
        <ele>101.2</ele>
        <time>2018-10-21T10:21:04Z</time>
      </trkpt>
      <trkpt lat="43.1717650" lon="-3.0972770">
        <ele>101.2</ele>
        <time>2018-10-21T10:21:05Z</time>
      </trkpt>
      <trkpt lat="43.1718250" lon="-3.0971830">
        <ele>101.2</ele>
        <time>2018-10-21T10:21:06Z</time>
      </trkpt>
      <trkpt lat="43.1718870" lon="-3.0970930">
        <ele>100.3</ele>
        <time>2018-10-21T10:21:07Z</time>
      </trkpt>
      <trkpt lat="43.1719480" lon="-3.0970020">
        <ele>100.3</ele>
        <time>2018-10-21T10:21:08Z</time>
      </trkpt>
      <trkpt lat="43.1720130" lon="-3.0969120">
        <ele>100.3</ele>
        <time>2018-10-21T10:21:09Z</time>
      </trkpt>
      <trkpt lat="43.1720800" lon="-3.0968250">
        <ele>100.3</ele>
        <time>2018-10-21T10:21:10Z</time>
      </trkpt>
      <trkpt lat="43.1721480" lon="-3.0967420">
        <ele>100.3</ele>
        <time>2018-10-21T10:21:11Z</time>
      </trkpt>
      <trkpt lat="43.1722180" lon="-3.0966630">
        <ele>100.3</ele>
        <time>2018-10-21T10:21:12Z</time>
      </trkpt>
      <trkpt lat="43.1722920" lon="-3.0965880">
        <ele>100.3</ele>
        <time>2018-10-21T10:21:13Z</time>
      </trkpt>
      <trkpt lat="43.1723670" lon="-3.0965180">
        <ele>100.3</ele>
        <time>2018-10-21T10:21:14Z</time>
      </trkpt>
      <trkpt lat="43.1724420" lon="-3.0964480">
        <ele>100.3</ele>
        <time>2018-10-21T10:21:15Z</time>
      </trkpt>
      <trkpt lat="43.1725180" lon="-3.0963820">
        <ele>100.3</ele>
        <time>2018-10-21T10:21:16Z</time>
      </trkpt>
      <trkpt lat="43.1725950" lon="-3.0963180">
        <ele>99.2</ele>
        <time>2018-10-21T10:21:17Z</time>
      </trkpt>
      <trkpt lat="43.1726750" lon="-3.0962570">
        <ele>99.2</ele>
        <time>2018-10-21T10:21:18Z</time>
      </trkpt>
      <trkpt lat="43.1727550" lon="-3.0961920">
        <ele>99.2</ele>
        <time>2018-10-21T10:21:19Z</time>
      </trkpt>
      <trkpt lat="43.1728330" lon="-3.0961230">
        <ele>99.2</ele>
        <time>2018-10-21T10:21:20Z</time>
      </trkpt>
      <trkpt lat="43.1729120" lon="-3.0960470">
        <ele>98.3</ele>
        <time>2018-10-21T10:21:21Z</time>
      </trkpt>
      <trkpt lat="43.1729830" lon="-3.0959620">
        <ele>98.3</ele>
        <time>2018-10-21T10:21:22Z</time>
      </trkpt>
      <trkpt lat="43.1730520" lon="-3.0958720">
        <ele>98.3</ele>
        <time>2018-10-21T10:21:23Z</time>
      </trkpt>
      <trkpt lat="43.1731170" lon="-3.0957780">
        <ele>98.3</ele>
        <time>2018-10-21T10:21:24Z</time>
      </trkpt>
      <trkpt lat="43.1731780" lon="-3.0956800">
        <ele>97.2</ele>
        <time>2018-10-21T10:21:25Z</time>
      </trkpt>
      <trkpt lat="43.1732370" lon="-3.0955780">
        <ele>97.2</ele>
        <time>2018-10-21T10:21:26Z</time>
      </trkpt>
      <trkpt lat="43.1732970" lon="-3.0954750">
        <ele>97.2</ele>
        <time>2018-10-21T10:21:27Z</time>
      </trkpt>
      <trkpt lat="43.1733550" lon="-3.0953750">
        <ele>97.2</ele>
        <time>2018-10-21T10:21:28Z</time>
      </trkpt>
      <trkpt lat="43.1734130" lon="-3.0952730">
        <ele>97.2</ele>
        <time>2018-10-21T10:21:29Z</time>
      </trkpt>
      <trkpt lat="43.1734700" lon="-3.0951720">
        <ele>97.2</ele>
        <time>2018-10-21T10:21:30Z</time>
      </trkpt>
      <trkpt lat="43.1735230" lon="-3.0950670">
        <ele>97.2</ele>
        <time>2018-10-21T10:21:31Z</time>
      </trkpt>
      <trkpt lat="43.1735750" lon="-3.0949600">
        <ele>97.2</ele>
        <time>2018-10-21T10:21:32Z</time>
      </trkpt>
      <trkpt lat="43.1736270" lon="-3.0948550">
        <ele>97.2</ele>
        <time>2018-10-21T10:21:33Z</time>
      </trkpt>
      <trkpt lat="43.1736730" lon="-3.0947470">
        <ele>97.2</ele>
        <time>2018-10-21T10:21:34Z</time>
      </trkpt>
      <trkpt lat="43.1737200" lon="-3.0946370">
        <ele>97.2</ele>
        <time>2018-10-21T10:21:35Z</time>
      </trkpt>
      <trkpt lat="43.1737620" lon="-3.0945220">
        <ele>97.2</ele>
        <time>2018-10-21T10:21:36Z</time>
      </trkpt>
      <trkpt lat="43.1738020" lon="-3.0944050">
        <ele>97.2</ele>
        <time>2018-10-21T10:21:37Z</time>
      </trkpt>
      <trkpt lat="43.1738400" lon="-3.0942870">
        <ele>97.2</ele>
        <time>2018-10-21T10:21:38Z</time>
      </trkpt>
      <trkpt lat="43.1738780" lon="-3.0941670">
        <ele>97.2</ele>
        <time>2018-10-21T10:21:39Z</time>
      </trkpt>
      <trkpt lat="43.1739130" lon="-3.0940470">
        <ele>97.2</ele>
        <time>2018-10-21T10:21:40Z</time>
      </trkpt>
      <trkpt lat="43.1739450" lon="-3.0939270">
        <ele>96.2</ele>
        <time>2018-10-21T10:21:41Z</time>
      </trkpt>
      <trkpt lat="43.1739750" lon="-3.0938070">
        <ele>96.2</ele>
        <time>2018-10-21T10:21:42Z</time>
      </trkpt>
      <trkpt lat="43.1740000" lon="-3.0936850">
        <ele>96.2</ele>
        <time>2018-10-21T10:21:43Z</time>
      </trkpt>
      <trkpt lat="43.1740250" lon="-3.0935650">
        <ele>96.2</ele>
        <time>2018-10-21T10:21:44Z</time>
      </trkpt>
      <trkpt lat="43.1740480" lon="-3.0934470">
        <ele>95.3</ele>
        <time>2018-10-21T10:21:45Z</time>
      </trkpt>
      <trkpt lat="43.1740700" lon="-3.0933320">
        <ele>95.3</ele>
        <time>2018-10-21T10:21:46Z</time>
      </trkpt>
      <trkpt lat="43.1740920" lon="-3.0932180">
        <ele>95.3</ele>
        <time>2018-10-21T10:21:47Z</time>
      </trkpt>
      <trkpt lat="43.1741150" lon="-3.0931100">
        <ele>95.3</ele>
        <time>2018-10-21T10:21:48Z</time>
      </trkpt>
      <trkpt lat="43.1741420" lon="-3.0930050">
        <ele>95.3</ele>
        <time>2018-10-21T10:21:49Z</time>
      </trkpt>
      <trkpt lat="43.1741730" lon="-3.0929030">
        <ele>95.3</ele>
        <time>2018-10-21T10:21:50Z</time>
      </trkpt>
      <trkpt lat="43.1742100" lon="-3.0928030">
        <ele>96.2</ele>
        <time>2018-10-21T10:21:51Z</time>
      </trkpt>
      <trkpt lat="43.1742520" lon="-3.0927070">
        <ele>96.2</ele>
        <time>2018-10-21T10:21:52Z</time>
      </trkpt>
      <trkpt lat="43.1742970" lon="-3.0926130">
        <ele>96.2</ele>
        <time>2018-10-21T10:21:53Z</time>
      </trkpt>
      <trkpt lat="43.1743470" lon="-3.0925230">
        <ele>96.2</ele>
        <time>2018-10-21T10:21:54Z</time>
      </trkpt>
      <trkpt lat="43.1744020" lon="-3.0924350">
        <ele>96.2</ele>
        <time>2018-10-21T10:21:55Z</time>
      </trkpt>
      <trkpt lat="43.1744600" lon="-3.0923500">
        <ele>96.2</ele>
        <time>2018-10-21T10:21:56Z</time>
      </trkpt>
      <trkpt lat="43.1745230" lon="-3.0922680">
        <ele>96.2</ele>
        <time>2018-10-21T10:21:57Z</time>
      </trkpt>
      <trkpt lat="43.1745880" lon="-3.0921880">
        <ele>96.2</ele>
        <time>2018-10-21T10:21:58Z</time>
      </trkpt>
      <trkpt lat="43.1746550" lon="-3.0921050">
        <ele>95.3</ele>
        <time>2018-10-21T10:21:59Z</time>
      </trkpt>
      <trkpt lat="43.1747170" lon="-3.0920170">
        <ele>95.3</ele>
        <time>2018-10-21T10:22:00Z</time>
      </trkpt>
      <trkpt lat="43.1747780" lon="-3.0919250">
        <ele>95.3</ele>
        <time>2018-10-21T10:22:01Z</time>
      </trkpt>
      <trkpt lat="43.1748420" lon="-3.0918320">
        <ele>95.3</ele>
        <time>2018-10-21T10:22:02Z</time>
      </trkpt>
      <trkpt lat="43.1749050" lon="-3.0917380">
        <ele>95.3</ele>
        <time>2018-10-21T10:22:03Z</time>
      </trkpt>
      <trkpt lat="43.1749680" lon="-3.0916470">
        <ele>95.3</ele>
        <time>2018-10-21T10:22:04Z</time>
      </trkpt>
      <trkpt lat="43.1750320" lon="-3.0915550">
        <ele>95.3</ele>
        <time>2018-10-21T10:22:05Z</time>
      </trkpt>
      <trkpt lat="43.1750930" lon="-3.0914650">
        <ele>95.3</ele>
        <time>2018-10-21T10:22:06Z</time>
      </trkpt>
      <trkpt lat="43.1751570" lon="-3.0913750">
        <ele>94.2</ele>
        <time>2018-10-21T10:22:07Z</time>
      </trkpt>
      <trkpt lat="43.1752180" lon="-3.0912830">
        <ele>94.2</ele>
        <time>2018-10-21T10:22:08Z</time>
      </trkpt>
      <trkpt lat="43.1752800" lon="-3.0911920">
        <ele>94.2</ele>
        <time>2018-10-21T10:22:09Z</time>
      </trkpt>
      <trkpt lat="43.1753400" lon="-3.0911020">
        <ele>94.2</ele>
        <time>2018-10-21T10:22:10Z</time>
      </trkpt>
      <trkpt lat="43.1754030" lon="-3.0910120">
        <ele>94.2</ele>
        <time>2018-10-21T10:22:11Z</time>
      </trkpt>
      <trkpt lat="43.1754650" lon="-3.0909230">
        <ele>94.2</ele>
        <time>2018-10-21T10:22:12Z</time>
      </trkpt>
      <trkpt lat="43.1755250" lon="-3.0908350">
        <ele>94.2</ele>
        <time>2018-10-21T10:22:13Z</time>
      </trkpt>
      <trkpt lat="43.1755870" lon="-3.0907470">
        <ele>94.2</ele>
        <time>2018-10-21T10:22:14Z</time>
      </trkpt>
      <trkpt lat="43.1756470" lon="-3.0906600">
        <ele>94.2</ele>
        <time>2018-10-21T10:22:15Z</time>
      </trkpt>
      <trkpt lat="43.1757070" lon="-3.0905700">
        <ele>94.2</ele>
        <time>2018-10-21T10:22:16Z</time>
      </trkpt>
      <trkpt lat="43.1757680" lon="-3.0904800">
        <ele>94.2</ele>
        <time>2018-10-21T10:22:17Z</time>
      </trkpt>
      <trkpt lat="43.1758300" lon="-3.0903900">
        <ele>94.2</ele>
        <time>2018-10-21T10:22:18Z</time>
      </trkpt>
      <trkpt lat="43.1758920" lon="-3.0903020">
        <ele>93.3</ele>
        <time>2018-10-21T10:22:19Z</time>
      </trkpt>
      <trkpt lat="43.1759500" lon="-3.0902120">
        <ele>93.3</ele>
        <time>2018-10-21T10:22:20Z</time>
      </trkpt>
      <trkpt lat="43.1760080" lon="-3.0901200">
        <ele>93.3</ele>
        <time>2018-10-21T10:22:21Z</time>
      </trkpt>
      <trkpt lat="43.1760670" lon="-3.0900320">
        <ele>93.3</ele>
        <time>2018-10-21T10:22:22Z</time>
      </trkpt>
      <trkpt lat="43.1761250" lon="-3.0899430">
        <ele>93.3</ele>
        <time>2018-10-21T10:22:23Z</time>
      </trkpt>
      <trkpt lat="43.1761830" lon="-3.0898580">
        <ele>93.3</ele>
        <time>2018-10-21T10:22:24Z</time>
      </trkpt>
      <trkpt lat="43.1762400" lon="-3.0897730">
        <ele>93.3</ele>
        <time>2018-10-21T10:22:25Z</time>
      </trkpt>
      <trkpt lat="43.1762980" lon="-3.0896870">
        <ele>93.3</ele>
        <time>2018-10-21T10:22:26Z</time>
      </trkpt>
      <trkpt lat="43.1763550" lon="-3.0896020">
        <ele>92.2</ele>
        <time>2018-10-21T10:22:27Z</time>
      </trkpt>
      <trkpt lat="43.1764120" lon="-3.0895200">
        <ele>92.2</ele>
        <time>2018-10-21T10:22:28Z</time>
      </trkpt>
      <trkpt lat="43.1764680" lon="-3.0894370">
        <ele>92.2</ele>
        <time>2018-10-21T10:22:29Z</time>
      </trkpt>
      <trkpt lat="43.1765230" lon="-3.0893580">
        <ele>92.2</ele>
        <time>2018-10-21T10:22:30Z</time>
      </trkpt>
      <trkpt lat="43.1765780" lon="-3.0892780">
        <ele>92.2</ele>
        <time>2018-10-21T10:22:31Z</time>
      </trkpt>
      <trkpt lat="43.1766330" lon="-3.0891980">
        <ele>92.2</ele>
        <time>2018-10-21T10:22:32Z</time>
      </trkpt>
      <trkpt lat="43.1766900" lon="-3.0891150">
        <ele>92.2</ele>
        <time>2018-10-21T10:22:33Z</time>
      </trkpt>
      <trkpt lat="43.1767480" lon="-3.0890330">
        <ele>92.2</ele>
        <time>2018-10-21T10:22:34Z</time>
      </trkpt>
      <trkpt lat="43.1768070" lon="-3.0889470">
        <ele>92.2</ele>
        <time>2018-10-21T10:22:35Z</time>
      </trkpt>
      <trkpt lat="43.1768630" lon="-3.0888620">
        <ele>92.2</ele>
        <time>2018-10-21T10:22:36Z</time>
      </trkpt>
      <trkpt lat="43.1769200" lon="-3.0887770">
        <ele>92.2</ele>
        <time>2018-10-21T10:22:37Z</time>
      </trkpt>
      <trkpt lat="43.1769770" lon="-3.0886950">
        <ele>92.2</ele>
        <time>2018-10-21T10:22:38Z</time>
      </trkpt>
      <trkpt lat="43.1770300" lon="-3.0886100">
        <ele>92.2</ele>
        <time>2018-10-21T10:22:39Z</time>
      </trkpt>
      <trkpt lat="43.1770850" lon="-3.0885270">
        <ele>92.2</ele>
        <time>2018-10-21T10:22:40Z</time>
      </trkpt>
      <trkpt lat="43.1771380" lon="-3.0884450">
        <ele>92.2</ele>
        <time>2018-10-21T10:22:41Z</time>
      </trkpt>
      <trkpt lat="43.1771930" lon="-3.0883650">
        <ele>92.2</ele>
        <time>2018-10-21T10:22:42Z</time>
      </trkpt>
      <trkpt lat="43.1772470" lon="-3.0882830">
        <ele>92.2</ele>
        <time>2018-10-21T10:22:43Z</time>
      </trkpt>
      <trkpt lat="43.1773000" lon="-3.0882020">
        <ele>92.2</ele>
        <time>2018-10-21T10:22:44Z</time>
      </trkpt>
      <trkpt lat="43.1773550" lon="-3.0881220">
        <ele>92.2</ele>
        <time>2018-10-21T10:22:45Z</time>
      </trkpt>
      <trkpt lat="43.1774080" lon="-3.0880420">
        <ele>92.2</ele>
        <time>2018-10-21T10:22:46Z</time>
      </trkpt>
      <trkpt lat="43.1774630" lon="-3.0879630">
        <ele>92.2</ele>
        <time>2018-10-21T10:22:47Z</time>
      </trkpt>
      <trkpt lat="43.1775180" lon="-3.0878850">
        <ele>92.2</ele>
        <time>2018-10-21T10:22:48Z</time>
      </trkpt>
      <trkpt lat="43.1775700" lon="-3.0878070">
        <ele>93.3</ele>
        <time>2018-10-21T10:22:49Z</time>
      </trkpt>
      <trkpt lat="43.1776180" lon="-3.0877300">
        <ele>93.3</ele>
        <time>2018-10-21T10:22:50Z</time>
      </trkpt>
      <trkpt lat="43.1776680" lon="-3.0876530">
        <ele>94.2</ele>
        <time>2018-10-21T10:22:51Z</time>
      </trkpt>
      <trkpt lat="43.1777170" lon="-3.0875820">
        <ele>94.2</ele>
        <time>2018-10-21T10:22:52Z</time>
      </trkpt>
      <trkpt lat="43.1777650" lon="-3.0875120">
        <ele>94.2</ele>
        <time>2018-10-21T10:22:53Z</time>
      </trkpt>
      <trkpt lat="43.1778100" lon="-3.0874430">
        <ele>94.2</ele>
        <time>2018-10-21T10:22:54Z</time>
      </trkpt>
      <trkpt lat="43.1778600" lon="-3.0873730">
        <ele>94.2</ele>
        <time>2018-10-21T10:22:55Z</time>
      </trkpt>
      <trkpt lat="43.1779080" lon="-3.0873020">
        <ele>94.2</ele>
        <time>2018-10-21T10:22:56Z</time>
      </trkpt>
      <trkpt lat="43.1779570" lon="-3.0872280">
        <ele>94.2</ele>
        <time>2018-10-21T10:22:57Z</time>
      </trkpt>
      <trkpt lat="43.1780070" lon="-3.0871550">
        <ele>94.2</ele>
        <time>2018-10-21T10:22:58Z</time>
      </trkpt>
      <trkpt lat="43.1780570" lon="-3.0870830">
        <ele>94.2</ele>
        <time>2018-10-21T10:22:59Z</time>
      </trkpt>
      <trkpt lat="43.1781080" lon="-3.0870120">
        <ele>94.2</ele>
        <time>2018-10-21T10:23:00Z</time>
      </trkpt>
      <trkpt lat="43.1781550" lon="-3.0869380">
        <ele>94.2</ele>
        <time>2018-10-21T10:23:01Z</time>
      </trkpt>
      <trkpt lat="43.1782050" lon="-3.0868630">
        <ele>94.2</ele>
        <time>2018-10-21T10:23:02Z</time>
      </trkpt>
      <trkpt lat="43.1782550" lon="-3.0867870">
        <ele>94.2</ele>
        <time>2018-10-21T10:23:03Z</time>
      </trkpt>
      <trkpt lat="43.1783030" lon="-3.0867070">
        <ele>94.2</ele>
        <time>2018-10-21T10:23:04Z</time>
      </trkpt>
      <trkpt lat="43.1783530" lon="-3.0866230">
        <ele>95.3</ele>
        <time>2018-10-21T10:23:05Z</time>
      </trkpt>
      <trkpt lat="43.1784020" lon="-3.0865400">
        <ele>95.3</ele>
        <time>2018-10-21T10:23:06Z</time>
      </trkpt>
      <trkpt lat="43.1784500" lon="-3.0864580">
        <ele>95.3</ele>
        <time>2018-10-21T10:23:07Z</time>
      </trkpt>
      <trkpt lat="43.1784980" lon="-3.0863750">
        <ele>95.3</ele>
        <time>2018-10-21T10:23:08Z</time>
      </trkpt>
      <trkpt lat="43.1785450" lon="-3.0862880">
        <ele>95.3</ele>
        <time>2018-10-21T10:23:09Z</time>
      </trkpt>
      <trkpt lat="43.1785900" lon="-3.0861980">
        <ele>95.3</ele>
        <time>2018-10-21T10:23:10Z</time>
      </trkpt>
      <trkpt lat="43.1786330" lon="-3.0861070">
        <ele>95.3</ele>
        <time>2018-10-21T10:23:11Z</time>
      </trkpt>
      <trkpt lat="43.1786700" lon="-3.0860100">
        <ele>95.3</ele>
        <time>2018-10-21T10:23:12Z</time>
      </trkpt>
      <trkpt lat="43.1787050" lon="-3.0859100">
        <ele>96.2</ele>
        <time>2018-10-21T10:23:13Z</time>
      </trkpt>
      <trkpt lat="43.1787370" lon="-3.0858080">
        <ele>96.2</ele>
        <time>2018-10-21T10:23:14Z</time>
      </trkpt>
      <trkpt lat="43.1787630" lon="-3.0857050">
        <ele>96.2</ele>
        <time>2018-10-21T10:23:15Z</time>
      </trkpt>
      <trkpt lat="43.1787850" lon="-3.0855980">
        <ele>96.2</ele>
        <time>2018-10-21T10:23:16Z</time>
      </trkpt>
      <trkpt lat="43.1788030" lon="-3.0854930">
        <ele>96.2</ele>
        <time>2018-10-21T10:23:17Z</time>
      </trkpt>
      <trkpt lat="43.1788200" lon="-3.0853900">
        <ele>96.2</ele>
        <time>2018-10-21T10:23:18Z</time>
      </trkpt>
      <trkpt lat="43.1788300" lon="-3.0852900">
        <ele>96.2</ele>
        <time>2018-10-21T10:23:19Z</time>
      </trkpt>
      <trkpt lat="43.1788380" lon="-3.0851920">
        <ele>96.2</ele>
        <time>2018-10-21T10:23:20Z</time>
      </trkpt>
      <trkpt lat="43.1788450" lon="-3.0850950">
        <ele>97.2</ele>
        <time>2018-10-21T10:23:21Z</time>
      </trkpt>
      <trkpt lat="43.1788570" lon="-3.0850000">
        <ele>97.2</ele>
        <time>2018-10-21T10:23:22Z</time>
      </trkpt>
      <trkpt lat="43.1788670" lon="-3.0849020">
        <ele>97.2</ele>
        <time>2018-10-21T10:23:23Z</time>
      </trkpt>
      <trkpt lat="43.1788750" lon="-3.0848020">
        <ele>97.2</ele>
        <time>2018-10-21T10:23:24Z</time>
      </trkpt>
      <trkpt lat="43.1788780" lon="-3.0846950">
        <ele>97.2</ele>
        <time>2018-10-21T10:23:25Z</time>
      </trkpt>
      <trkpt lat="43.1788820" lon="-3.0845880">
        <ele>97.2</ele>
        <time>2018-10-21T10:23:26Z</time>
      </trkpt>
      <trkpt lat="43.1788820" lon="-3.0844800">
        <ele>97.2</ele>
        <time>2018-10-21T10:23:27Z</time>
      </trkpt>
      <trkpt lat="43.1788800" lon="-3.0843720">
        <ele>97.2</ele>
        <time>2018-10-21T10:23:28Z</time>
      </trkpt>
      <trkpt lat="43.1788770" lon="-3.0842620">
        <ele>97.2</ele>
        <time>2018-10-21T10:23:29Z</time>
      </trkpt>
      <trkpt lat="43.1788720" lon="-3.0841500">
        <ele>97.2</ele>
        <time>2018-10-21T10:23:30Z</time>
      </trkpt>
      <trkpt lat="43.1788670" lon="-3.0840380">
        <ele>97.2</ele>
        <time>2018-10-21T10:23:31Z</time>
      </trkpt>
      <trkpt lat="43.1788580" lon="-3.0839270">
        <ele>97.2</ele>
        <time>2018-10-21T10:23:32Z</time>
      </trkpt>
      <trkpt lat="43.1788470" lon="-3.0838170">
        <ele>97.2</ele>
        <time>2018-10-21T10:23:33Z</time>
      </trkpt>
      <trkpt lat="43.1788330" lon="-3.0837050">
        <ele>97.2</ele>
        <time>2018-10-21T10:23:34Z</time>
      </trkpt>
      <trkpt lat="43.1788150" lon="-3.0835950">
        <ele>97.2</ele>
        <time>2018-10-21T10:23:35Z</time>
      </trkpt>
      <trkpt lat="43.1787950" lon="-3.0834830">
        <ele>97.2</ele>
        <time>2018-10-21T10:23:36Z</time>
      </trkpt>
      <trkpt lat="43.1787730" lon="-3.0833730">
        <ele>97.2</ele>
        <time>2018-10-21T10:23:37Z</time>
      </trkpt>
      <trkpt lat="43.1787480" lon="-3.0832650">
        <ele>97.2</ele>
        <time>2018-10-21T10:23:38Z</time>
      </trkpt>
      <trkpt lat="43.1787250" lon="-3.0831600">
        <ele>97.2</ele>
        <time>2018-10-21T10:23:39Z</time>
      </trkpt>
      <trkpt lat="43.1786980" lon="-3.0830580">
        <ele>97.2</ele>
        <time>2018-10-21T10:23:40Z</time>
      </trkpt>
      <trkpt lat="43.1786730" lon="-3.0829620">
        <ele>97.2</ele>
        <time>2018-10-21T10:23:41Z</time>
      </trkpt>
      <trkpt lat="43.1786450" lon="-3.0828650">
        <ele>97.2</ele>
        <time>2018-10-21T10:23:42Z</time>
      </trkpt>
      <trkpt lat="43.1786170" lon="-3.0827700">
        <ele>97.2</ele>
        <time>2018-10-21T10:23:43Z</time>
      </trkpt>
      <trkpt lat="43.1785850" lon="-3.0826780">
        <ele>97.2</ele>
        <time>2018-10-21T10:23:44Z</time>
      </trkpt>
      <trkpt lat="43.1785520" lon="-3.0825870">
        <ele>97.2</ele>
        <time>2018-10-21T10:23:45Z</time>
      </trkpt>
      <trkpt lat="43.1785180" lon="-3.0824970">
        <ele>97.2</ele>
        <time>2018-10-21T10:23:46Z</time>
      </trkpt>
      <trkpt lat="43.1784820" lon="-3.0824080">
        <ele>98.3</ele>
        <time>2018-10-21T10:23:47Z</time>
      </trkpt>
      <trkpt lat="43.1784450" lon="-3.0823180">
        <ele>98.3</ele>
        <time>2018-10-21T10:23:48Z</time>
      </trkpt>
      <trkpt lat="43.1784070" lon="-3.0822330">
        <ele>98.3</ele>
        <time>2018-10-21T10:23:49Z</time>
      </trkpt>
      <trkpt lat="43.1783680" lon="-3.0821500">
        <ele>98.3</ele>
        <time>2018-10-21T10:23:50Z</time>
      </trkpt>
      <trkpt lat="43.1783320" lon="-3.0820650">
        <ele>98.3</ele>
        <time>2018-10-21T10:23:51Z</time>
      </trkpt>
      <trkpt lat="43.1782950" lon="-3.0819830">
        <ele>98.3</ele>
        <time>2018-10-21T10:23:52Z</time>
      </trkpt>
      <trkpt lat="43.1782600" lon="-3.0819000">
        <ele>98.3</ele>
        <time>2018-10-21T10:23:53Z</time>
      </trkpt>
      <trkpt lat="43.1782270" lon="-3.0818170">
        <ele>98.3</ele>
        <time>2018-10-21T10:23:54Z</time>
      </trkpt>
      <trkpt lat="43.1781970" lon="-3.0817330">
        <ele>98.3</ele>
        <time>2018-10-21T10:23:55Z</time>
      </trkpt>
      <trkpt lat="43.1781670" lon="-3.0816470">
        <ele>98.3</ele>
        <time>2018-10-21T10:23:56Z</time>
      </trkpt>
      <trkpt lat="43.1781380" lon="-3.0815550">
        <ele>98.3</ele>
        <time>2018-10-21T10:23:57Z</time>
      </trkpt>
      <trkpt lat="43.1781100" lon="-3.0814550">
        <ele>98.3</ele>
        <time>2018-10-21T10:23:58Z</time>
      </trkpt>
      <trkpt lat="43.1780870" lon="-3.0813520">
        <ele>98.3</ele>
        <time>2018-10-21T10:23:59Z</time>
      </trkpt>
      <trkpt lat="43.1780680" lon="-3.0812450">
        <ele>98.3</ele>
        <time>2018-10-21T10:24:00Z</time>
      </trkpt>
      <trkpt lat="43.1780520" lon="-3.0811330">
        <ele>98.3</ele>
        <time>2018-10-21T10:24:01Z</time>
      </trkpt>
      <trkpt lat="43.1780370" lon="-3.0810220">
        <ele>98.3</ele>
        <time>2018-10-21T10:24:02Z</time>
      </trkpt>
      <trkpt lat="43.1780180" lon="-3.0809050">
        <ele>97.2</ele>
        <time>2018-10-21T10:24:03Z</time>
      </trkpt>
      <trkpt lat="43.1780030" lon="-3.0807880">
        <ele>97.2</ele>
        <time>2018-10-21T10:24:04Z</time>
      </trkpt>
      <trkpt lat="43.1779880" lon="-3.0806670">
        <ele>96.2</ele>
        <time>2018-10-21T10:24:05Z</time>
      </trkpt>
      <trkpt lat="43.1779730" lon="-3.0805450">
        <ele>96.2</ele>
        <time>2018-10-21T10:24:06Z</time>
      </trkpt>
      <trkpt lat="43.1779620" lon="-3.0804180">
        <ele>96.2</ele>
        <time>2018-10-21T10:24:07Z</time>
      </trkpt>
      <trkpt lat="43.1779530" lon="-3.0802920">
        <ele>96.2</ele>
        <time>2018-10-21T10:24:08Z</time>
      </trkpt>
      <trkpt lat="43.1779480" lon="-3.0801620">
        <ele>96.2</ele>
        <time>2018-10-21T10:24:09Z</time>
      </trkpt>
      <trkpt lat="43.1779520" lon="-3.0800300">
        <ele>96.2</ele>
        <time>2018-10-21T10:24:10Z</time>
      </trkpt>
      <trkpt lat="43.1779580" lon="-3.0798980">
        <ele>95.3</ele>
        <time>2018-10-21T10:24:11Z</time>
      </trkpt>
      <trkpt lat="43.1779680" lon="-3.0797670">
        <ele>95.3</ele>
        <time>2018-10-21T10:24:12Z</time>
      </trkpt>
      <trkpt lat="43.1779820" lon="-3.0796370">
        <ele>95.3</ele>
        <time>2018-10-21T10:24:13Z</time>
      </trkpt>
      <trkpt lat="43.1779980" lon="-3.0795050">
        <ele>95.3</ele>
        <time>2018-10-21T10:24:14Z</time>
      </trkpt>
      <trkpt lat="43.1780150" lon="-3.0793750">
        <ele>95.3</ele>
        <time>2018-10-21T10:24:15Z</time>
      </trkpt>
      <trkpt lat="43.1780330" lon="-3.0792430">
        <ele>95.3</ele>
        <time>2018-10-21T10:24:16Z</time>
      </trkpt>
      <trkpt lat="43.1780550" lon="-3.0791100">
        <ele>95.3</ele>
        <time>2018-10-21T10:24:17Z</time>
      </trkpt>
      <trkpt lat="43.1780750" lon="-3.0789770">
        <ele>95.3</ele>
        <time>2018-10-21T10:24:18Z</time>
      </trkpt>
      <trkpt lat="43.1780950" lon="-3.0788450">
        <ele>91.3</ele>
        <time>2018-10-21T10:24:19Z</time>
      </trkpt>
      <trkpt lat="43.1781150" lon="-3.0787130">
        <ele>91.3</ele>
        <time>2018-10-21T10:24:20Z</time>
      </trkpt>
      <trkpt lat="43.1781330" lon="-3.0785820">
        <ele>90.2</ele>
        <time>2018-10-21T10:24:21Z</time>
      </trkpt>
      <trkpt lat="43.1781550" lon="-3.0784500">
        <ele>90.2</ele>
        <time>2018-10-21T10:24:22Z</time>
      </trkpt>
      <trkpt lat="43.1781750" lon="-3.0783170">
        <ele>90.2</ele>
        <time>2018-10-21T10:24:23Z</time>
      </trkpt>
      <trkpt lat="43.1781970" lon="-3.0781830">
        <ele>90.2</ele>
        <time>2018-10-21T10:24:24Z</time>
      </trkpt>
      <trkpt lat="43.1782220" lon="-3.0780480">
        <ele>89.3</ele>
        <time>2018-10-21T10:24:25Z</time>
      </trkpt>
      <trkpt lat="43.1782500" lon="-3.0779150">
        <ele>89.3</ele>
        <time>2018-10-21T10:24:26Z</time>
      </trkpt>
      <trkpt lat="43.1782830" lon="-3.0777830">
        <ele>89.3</ele>
        <time>2018-10-21T10:24:27Z</time>
      </trkpt>
      <trkpt lat="43.1783270" lon="-3.0776550">
        <ele>89.3</ele>
        <time>2018-10-21T10:24:28Z</time>
      </trkpt>
      <trkpt lat="43.1783770" lon="-3.0775300">
        <ele>89.3</ele>
        <time>2018-10-21T10:24:29Z</time>
      </trkpt>
      <trkpt lat="43.1784320" lon="-3.0774070">
        <ele>89.3</ele>
        <time>2018-10-21T10:24:30Z</time>
      </trkpt>
      <trkpt lat="43.1784880" lon="-3.0772830">
        <ele>89.3</ele>
        <time>2018-10-21T10:24:31Z</time>
      </trkpt>
      <trkpt lat="43.1785450" lon="-3.0771600">
        <ele>89.3</ele>
        <time>2018-10-21T10:24:32Z</time>
      </trkpt>
      <trkpt lat="43.1786050" lon="-3.0770380">
        <ele>86.3</ele>
        <time>2018-10-21T10:24:33Z</time>
      </trkpt>
      <trkpt lat="43.1786620" lon="-3.0769200">
        <ele>86.3</ele>
        <time>2018-10-21T10:24:34Z</time>
      </trkpt>
      <trkpt lat="43.1787130" lon="-3.0768100">
        <ele>85.2</ele>
        <time>2018-10-21T10:24:35Z</time>
      </trkpt>
      <trkpt lat="43.1787630" lon="-3.0767070">
        <ele>85.2</ele>
        <time>2018-10-21T10:24:36Z</time>
      </trkpt>
      <trkpt lat="43.1788120" lon="-3.0766020">
        <ele>84.3</ele>
        <time>2018-10-21T10:24:37Z</time>
      </trkpt>
      <trkpt lat="43.1788600" lon="-3.0765020">
        <ele>84.3</ele>
        <time>2018-10-21T10:24:38Z</time>
      </trkpt>
      <trkpt lat="43.1789120" lon="-3.0764020">
        <ele>83.2</ele>
        <time>2018-10-21T10:24:39Z</time>
      </trkpt>
      <trkpt lat="43.1789630" lon="-3.0762980">
        <ele>83.2</ele>
        <time>2018-10-21T10:24:40Z</time>
      </trkpt>
      <trkpt lat="43.1790120" lon="-3.0761870">
        <ele>83.2</ele>
        <time>2018-10-21T10:24:41Z</time>
      </trkpt>
      <trkpt lat="43.1790600" lon="-3.0760750">
        <ele>83.2</ele>
        <time>2018-10-21T10:24:42Z</time>
      </trkpt>
      <trkpt lat="43.1791080" lon="-3.0759630">
        <ele>83.2</ele>
        <time>2018-10-21T10:24:43Z</time>
      </trkpt>
      <trkpt lat="43.1791520" lon="-3.0758430">
        <ele>83.2</ele>
        <time>2018-10-21T10:24:44Z</time>
      </trkpt>
      <trkpt lat="43.1791920" lon="-3.0757220">
        <ele>82.3</ele>
        <time>2018-10-21T10:24:45Z</time>
      </trkpt>
      <trkpt lat="43.1792270" lon="-3.0755950">
        <ele>82.3</ele>
        <time>2018-10-21T10:24:46Z</time>
      </trkpt>
      <trkpt lat="43.1792600" lon="-3.0754680">
        <ele>82.3</ele>
        <time>2018-10-21T10:24:47Z</time>
      </trkpt>
      <trkpt lat="43.1792920" lon="-3.0753420">
        <ele>82.3</ele>
        <time>2018-10-21T10:24:48Z</time>
      </trkpt>
      <trkpt lat="43.1793220" lon="-3.0752170">
        <ele>82.3</ele>
        <time>2018-10-21T10:24:49Z</time>
      </trkpt>
      <trkpt lat="43.1793520" lon="-3.0750900">
        <ele>82.3</ele>
        <time>2018-10-21T10:24:50Z</time>
      </trkpt>
      <trkpt lat="43.1793820" lon="-3.0749670">
        <ele>81.2</ele>
        <time>2018-10-21T10:24:51Z</time>
      </trkpt>
      <trkpt lat="43.1794130" lon="-3.0748430">
        <ele>81.2</ele>
        <time>2018-10-21T10:24:52Z</time>
      </trkpt>
      <trkpt lat="43.1794450" lon="-3.0747220">
        <ele>81.2</ele>
        <time>2018-10-21T10:24:53Z</time>
      </trkpt>
      <trkpt lat="43.1794730" lon="-3.0746020">
        <ele>81.2</ele>
        <time>2018-10-21T10:24:54Z</time>
      </trkpt>
      <trkpt lat="43.1795030" lon="-3.0744820">
        <ele>81.2</ele>
        <time>2018-10-21T10:24:55Z</time>
      </trkpt>
      <trkpt lat="43.1795330" lon="-3.0743650">
        <ele>81.2</ele>
        <time>2018-10-21T10:24:56Z</time>
      </trkpt>
      <trkpt lat="43.1795620" lon="-3.0742500">
        <ele>80.2</ele>
        <time>2018-10-21T10:24:57Z</time>
      </trkpt>
      <trkpt lat="43.1795880" lon="-3.0741350">
        <ele>80.2</ele>
        <time>2018-10-21T10:24:58Z</time>
      </trkpt>
      <trkpt lat="43.1796180" lon="-3.0740230">
        <ele>80.2</ele>
        <time>2018-10-21T10:24:59Z</time>
      </trkpt>
      <trkpt lat="43.1796470" lon="-3.0739100">
        <ele>80.2</ele>
        <time>2018-10-21T10:25:00Z</time>
      </trkpt>
      <trkpt lat="43.1796730" lon="-3.0738000">
        <ele>80.2</ele>
        <time>2018-10-21T10:25:01Z</time>
      </trkpt>
      <trkpt lat="43.1797000" lon="-3.0736920">
        <ele>80.2</ele>
        <time>2018-10-21T10:25:02Z</time>
      </trkpt>
      <trkpt lat="43.1797280" lon="-3.0735850">
        <ele>80.2</ele>
        <time>2018-10-21T10:25:03Z</time>
      </trkpt>
      <trkpt lat="43.1797500" lon="-3.0734730">
        <ele>80.2</ele>
        <time>2018-10-21T10:25:04Z</time>
      </trkpt>
      <trkpt lat="43.1797720" lon="-3.0733600">
        <ele>80.2</ele>
        <time>2018-10-21T10:25:05Z</time>
      </trkpt>
      <trkpt lat="43.1797900" lon="-3.0732400">
        <ele>80.2</ele>
        <time>2018-10-21T10:25:06Z</time>
      </trkpt>
      <trkpt lat="43.1798080" lon="-3.0731180">
        <ele>80.2</ele>
        <time>2018-10-21T10:25:07Z</time>
      </trkpt>
      <trkpt lat="43.1798280" lon="-3.0729950">
        <ele>80.2</ele>
        <time>2018-10-21T10:25:08Z</time>
      </trkpt>
      <trkpt lat="43.1798480" lon="-3.0728700">
        <ele>79.2</ele>
        <time>2018-10-21T10:25:09Z</time>
      </trkpt>
      <trkpt lat="43.1798670" lon="-3.0727430">
        <ele>79.2</ele>
        <time>2018-10-21T10:25:10Z</time>
      </trkpt>
      <trkpt lat="43.1798880" lon="-3.0726130">
        <ele>79.2</ele>
        <time>2018-10-21T10:25:11Z</time>
      </trkpt>
      <trkpt lat="43.1799070" lon="-3.0724820">
        <ele>79.2</ele>
        <time>2018-10-21T10:25:12Z</time>
      </trkpt>
      <trkpt lat="43.1799250" lon="-3.0723470">
        <ele>79.2</ele>
        <time>2018-10-21T10:25:13Z</time>
      </trkpt>
      <trkpt lat="43.1799430" lon="-3.0722130">
        <ele>79.2</ele>
        <time>2018-10-21T10:25:14Z</time>
      </trkpt>
      <trkpt lat="43.1799620" lon="-3.0720820">
        <ele>79.2</ele>
        <time>2018-10-21T10:25:15Z</time>
      </trkpt>
      <trkpt lat="43.1799800" lon="-3.0719500">
        <ele>79.2</ele>
        <time>2018-10-21T10:25:16Z</time>
      </trkpt>
      <trkpt lat="43.1800000" lon="-3.0718230">
        <ele>78.2</ele>
        <time>2018-10-21T10:25:17Z</time>
      </trkpt>
      <trkpt lat="43.1800170" lon="-3.0717020">
        <ele>78.2</ele>
        <time>2018-10-21T10:25:18Z</time>
      </trkpt>
      <trkpt lat="43.1800350" lon="-3.0715850">
        <ele>78.2</ele>
        <time>2018-10-21T10:25:19Z</time>
      </trkpt>
      <trkpt lat="43.1800530" lon="-3.0714680">
        <ele>78.2</ele>
        <time>2018-10-21T10:25:20Z</time>
      </trkpt>
      <trkpt lat="43.1800770" lon="-3.0713550">
        <ele>78.2</ele>
        <time>2018-10-21T10:25:21Z</time>
      </trkpt>
      <trkpt lat="43.1801020" lon="-3.0712420">
        <ele>78.2</ele>
        <time>2018-10-21T10:25:22Z</time>
      </trkpt>
      <trkpt lat="43.1801270" lon="-3.0711320">
        <ele>78.2</ele>
        <time>2018-10-21T10:25:23Z</time>
      </trkpt>
      <trkpt lat="43.1801550" lon="-3.0710200">
        <ele>78.2</ele>
        <time>2018-10-21T10:25:24Z</time>
      </trkpt>
      <trkpt lat="43.1801820" lon="-3.0709080">
        <ele>78.2</ele>
        <time>2018-10-21T10:25:25Z</time>
      </trkpt>
      <trkpt lat="43.1802070" lon="-3.0707950">
        <ele>78.2</ele>
        <time>2018-10-21T10:25:26Z</time>
      </trkpt>
      <trkpt lat="43.1802280" lon="-3.0706770">
        <ele>78.2</ele>
        <time>2018-10-21T10:25:27Z</time>
      </trkpt>
      <trkpt lat="43.1802450" lon="-3.0705580">
        <ele>78.2</ele>
        <time>2018-10-21T10:25:28Z</time>
      </trkpt>
      <trkpt lat="43.1802620" lon="-3.0704380">
        <ele>78.2</ele>
        <time>2018-10-21T10:25:29Z</time>
      </trkpt>
      <trkpt lat="43.1802750" lon="-3.0703200">
        <ele>78.2</ele>
        <time>2018-10-21T10:25:30Z</time>
      </trkpt>
      <trkpt lat="43.1802870" lon="-3.0702020">
        <ele>78.2</ele>
        <time>2018-10-21T10:25:31Z</time>
      </trkpt>
      <trkpt lat="43.1802950" lon="-3.0700850">
        <ele>78.2</ele>
        <time>2018-10-21T10:25:32Z</time>
      </trkpt>
      <trkpt lat="43.1803050" lon="-3.0699680">
        <ele>79.2</ele>
        <time>2018-10-21T10:25:33Z</time>
      </trkpt>
      <trkpt lat="43.1803180" lon="-3.0698550">
        <ele>79.2</ele>
        <time>2018-10-21T10:25:34Z</time>
      </trkpt>
      <trkpt lat="43.1803350" lon="-3.0697420">
        <ele>79.2</ele>
        <time>2018-10-21T10:25:35Z</time>
      </trkpt>
      <trkpt lat="43.1803570" lon="-3.0696320">
        <ele>79.2</ele>
        <time>2018-10-21T10:25:36Z</time>
      </trkpt>
      <trkpt lat="43.1803770" lon="-3.0695230">
        <ele>79.2</ele>
        <time>2018-10-21T10:25:37Z</time>
      </trkpt>
      <trkpt lat="43.1803970" lon="-3.0694170">
        <ele>79.2</ele>
        <time>2018-10-21T10:25:38Z</time>
      </trkpt>
      <trkpt lat="43.1804200" lon="-3.0693100">
        <ele>79.2</ele>
        <time>2018-10-21T10:25:39Z</time>
      </trkpt>
      <trkpt lat="43.1804470" lon="-3.0692020">
        <ele>79.2</ele>
        <time>2018-10-21T10:25:40Z</time>
      </trkpt>
      <trkpt lat="43.1804750" lon="-3.0690930">
        <ele>79.2</ele>
        <time>2018-10-21T10:25:41Z</time>
      </trkpt>
      <trkpt lat="43.1805070" lon="-3.0689870">
        <ele>79.2</ele>
        <time>2018-10-21T10:25:42Z</time>
      </trkpt>
      <trkpt lat="43.1805420" lon="-3.0688780">
        <ele>79.2</ele>
        <time>2018-10-21T10:25:43Z</time>
      </trkpt>
      <trkpt lat="43.1805780" lon="-3.0687750">
        <ele>79.2</ele>
        <time>2018-10-21T10:25:44Z</time>
      </trkpt>
      <trkpt lat="43.1806170" lon="-3.0686700">
        <ele>78.2</ele>
        <time>2018-10-21T10:25:45Z</time>
      </trkpt>
      <trkpt lat="43.1806580" lon="-3.0685680">
        <ele>78.2</ele>
        <time>2018-10-21T10:25:46Z</time>
      </trkpt>
      <trkpt lat="43.1806980" lon="-3.0684670">
        <ele>78.2</ele>
        <time>2018-10-21T10:25:47Z</time>
      </trkpt>
      <trkpt lat="43.1807380" lon="-3.0683650">
        <ele>78.2</ele>
        <time>2018-10-21T10:25:48Z</time>
      </trkpt>
      <trkpt lat="43.1807780" lon="-3.0682620">
        <ele>79.2</ele>
        <time>2018-10-21T10:25:49Z</time>
      </trkpt>
      <trkpt lat="43.1808180" lon="-3.0681570">
        <ele>79.2</ele>
        <time>2018-10-21T10:25:50Z</time>
      </trkpt>
      <trkpt lat="43.1808620" lon="-3.0680520">
        <ele>79.2</ele>
        <time>2018-10-21T10:25:51Z</time>
      </trkpt>
      <trkpt lat="43.1809050" lon="-3.0679470">
        <ele>79.2</ele>
        <time>2018-10-21T10:25:52Z</time>
      </trkpt>
      <trkpt lat="43.1809480" lon="-3.0678370">
        <ele>78.2</ele>
        <time>2018-10-21T10:25:53Z</time>
      </trkpt>
      <trkpt lat="43.1809930" lon="-3.0677280">
        <ele>78.2</ele>
        <time>2018-10-21T10:25:54Z</time>
      </trkpt>
      <trkpt lat="43.1810400" lon="-3.0676220">
        <ele>78.2</ele>
        <time>2018-10-21T10:25:55Z</time>
      </trkpt>
      <trkpt lat="43.1810870" lon="-3.0675150">
        <ele>78.2</ele>
        <time>2018-10-21T10:25:56Z</time>
      </trkpt>
      <trkpt lat="43.1811330" lon="-3.0674100">
        <ele>78.2</ele>
        <time>2018-10-21T10:25:57Z</time>
      </trkpt>
      <trkpt lat="43.1811820" lon="-3.0673080">
        <ele>78.2</ele>
        <time>2018-10-21T10:25:58Z</time>
      </trkpt>
      <trkpt lat="43.1812280" lon="-3.0672070">
        <ele>78.2</ele>
        <time>2018-10-21T10:25:59Z</time>
      </trkpt>
      <trkpt lat="43.1812750" lon="-3.0671100">
        <ele>78.2</ele>
        <time>2018-10-21T10:26:00Z</time>
      </trkpt>
      <trkpt lat="43.1813230" lon="-3.0670150">
        <ele>78.2</ele>
        <time>2018-10-21T10:26:01Z</time>
      </trkpt>
      <trkpt lat="43.1813700" lon="-3.0669200">
        <ele>78.2</ele>
        <time>2018-10-21T10:26:02Z</time>
      </trkpt>
      <trkpt lat="43.1814170" lon="-3.0668250">
        <ele>78.2</ele>
        <time>2018-10-21T10:26:03Z</time>
      </trkpt>
      <trkpt lat="43.1814630" lon="-3.0667300">
        <ele>78.2</ele>
        <time>2018-10-21T10:26:04Z</time>
      </trkpt>
      <trkpt lat="43.1815120" lon="-3.0666330">
        <ele>78.2</ele>
        <time>2018-10-21T10:26:05Z</time>
      </trkpt>
      <trkpt lat="43.1815600" lon="-3.0665380">
        <ele>78.2</ele>
        <time>2018-10-21T10:26:06Z</time>
      </trkpt>
      <trkpt lat="43.1816100" lon="-3.0664470">
        <ele>77.3</ele>
        <time>2018-10-21T10:26:07Z</time>
      </trkpt>
      <trkpt lat="43.1816620" lon="-3.0663570">
        <ele>77.3</ele>
        <time>2018-10-21T10:26:08Z</time>
      </trkpt>
      <trkpt lat="43.1817130" lon="-3.0662670">
        <ele>77.3</ele>
        <time>2018-10-21T10:26:09Z</time>
      </trkpt>
      <trkpt lat="43.1817650" lon="-3.0661750">
        <ele>77.3</ele>
        <time>2018-10-21T10:26:10Z</time>
      </trkpt>
      <trkpt lat="43.1818150" lon="-3.0660830">
        <ele>77.3</ele>
        <time>2018-10-21T10:26:11Z</time>
      </trkpt>
      <trkpt lat="43.1818670" lon="-3.0659880">
        <ele>77.3</ele>
        <time>2018-10-21T10:26:12Z</time>
      </trkpt>
      <trkpt lat="43.1819180" lon="-3.0658930">
        <ele>78.2</ele>
        <time>2018-10-21T10:26:13Z</time>
      </trkpt>
      <trkpt lat="43.1819720" lon="-3.0657970">
        <ele>78.2</ele>
        <time>2018-10-21T10:26:14Z</time>
      </trkpt>
      <trkpt lat="43.1820250" lon="-3.0657000">
        <ele>78.2</ele>
        <time>2018-10-21T10:26:15Z</time>
      </trkpt>
      <trkpt lat="43.1820820" lon="-3.0656030">
        <ele>78.2</ele>
        <time>2018-10-21T10:26:16Z</time>
      </trkpt>
      <trkpt lat="43.1821370" lon="-3.0655050">
        <ele>77.3</ele>
        <time>2018-10-21T10:26:17Z</time>
      </trkpt>
      <trkpt lat="43.1821930" lon="-3.0654070">
        <ele>77.3</ele>
        <time>2018-10-21T10:26:18Z</time>
      </trkpt>
      <trkpt lat="43.1822480" lon="-3.0653080">
        <ele>77.3</ele>
        <time>2018-10-21T10:26:19Z</time>
      </trkpt>
      <trkpt lat="43.1823050" lon="-3.0652100">
        <ele>77.3</ele>
        <time>2018-10-21T10:26:20Z</time>
      </trkpt>
      <trkpt lat="43.1823600" lon="-3.0651100">
        <ele>77.3</ele>
        <time>2018-10-21T10:26:21Z</time>
      </trkpt>
      <trkpt lat="43.1824130" lon="-3.0650100">
        <ele>77.3</ele>
        <time>2018-10-21T10:26:22Z</time>
      </trkpt>
      <trkpt lat="43.1824680" lon="-3.0649100">
        <ele>77.3</ele>
        <time>2018-10-21T10:26:23Z</time>
      </trkpt>
      <trkpt lat="43.1825230" lon="-3.0648100">
        <ele>77.3</ele>
        <time>2018-10-21T10:26:24Z</time>
      </trkpt>
      <trkpt lat="43.1825780" lon="-3.0647120">
        <ele>76.2</ele>
        <time>2018-10-21T10:26:25Z</time>
      </trkpt>
      <trkpt lat="43.1826350" lon="-3.0646130">
        <ele>76.2</ele>
        <time>2018-10-21T10:26:26Z</time>
      </trkpt>
      <trkpt lat="43.1826880" lon="-3.0645120">
        <ele>76.2</ele>
        <time>2018-10-21T10:26:27Z</time>
      </trkpt>
      <trkpt lat="43.1827450" lon="-3.0644120">
        <ele>76.2</ele>
        <time>2018-10-21T10:26:28Z</time>
      </trkpt>
      <trkpt lat="43.1828000" lon="-3.0643100">
        <ele>76.2</ele>
        <time>2018-10-21T10:26:29Z</time>
      </trkpt>
      <trkpt lat="43.1828550" lon="-3.0642070">
        <ele>76.2</ele>
        <time>2018-10-21T10:26:30Z</time>
      </trkpt>
      <trkpt lat="43.1829120" lon="-3.0641050">
        <ele>75.3</ele>
        <time>2018-10-21T10:26:31Z</time>
      </trkpt>
      <trkpt lat="43.1829680" lon="-3.0640020">
        <ele>75.3</ele>
        <time>2018-10-21T10:26:32Z</time>
      </trkpt>
      <trkpt lat="43.1830250" lon="-3.0639000">
        <ele>75.3</ele>
        <time>2018-10-21T10:26:33Z</time>
      </trkpt>
      <trkpt lat="43.1830820" lon="-3.0638000">
        <ele>75.3</ele>
        <time>2018-10-21T10:26:34Z</time>
      </trkpt>
      <trkpt lat="43.1831380" lon="-3.0636980">
        <ele>75.3</ele>
        <time>2018-10-21T10:26:35Z</time>
      </trkpt>
      <trkpt lat="43.1831950" lon="-3.0635980">
        <ele>75.3</ele>
        <time>2018-10-21T10:26:36Z</time>
      </trkpt>
      <trkpt lat="43.1832470" lon="-3.0634930">
        <ele>74.2</ele>
        <time>2018-10-21T10:26:37Z</time>
      </trkpt>
      <trkpt lat="43.1832970" lon="-3.0633880">
        <ele>74.2</ele>
        <time>2018-10-21T10:26:38Z</time>
      </trkpt>
      <trkpt lat="43.1833470" lon="-3.0632830">
        <ele>74.2</ele>
        <time>2018-10-21T10:26:39Z</time>
      </trkpt>
      <trkpt lat="43.1833970" lon="-3.0631800">
        <ele>74.2</ele>
        <time>2018-10-21T10:26:40Z</time>
      </trkpt>
      <trkpt lat="43.1834480" lon="-3.0630770">
        <ele>74.2</ele>
        <time>2018-10-21T10:26:41Z</time>
      </trkpt>
      <trkpt lat="43.1835000" lon="-3.0629750">
        <ele>74.2</ele>
        <time>2018-10-21T10:26:42Z</time>
      </trkpt>
      <trkpt lat="43.1835530" lon="-3.0628750">
        <ele>74.2</ele>
        <time>2018-10-21T10:26:43Z</time>
      </trkpt>
      <trkpt lat="43.1836070" lon="-3.0627750">
        <ele>74.2</ele>
        <time>2018-10-21T10:26:44Z</time>
      </trkpt>
      <trkpt lat="43.1836580" lon="-3.0626750">
        <ele>74.2</ele>
        <time>2018-10-21T10:26:45Z</time>
      </trkpt>
      <trkpt lat="43.1837130" lon="-3.0625750">
        <ele>74.2</ele>
        <time>2018-10-21T10:26:46Z</time>
      </trkpt>
      <trkpt lat="43.1837680" lon="-3.0624780">
        <ele>74.2</ele>
        <time>2018-10-21T10:26:47Z</time>
      </trkpt>
      <trkpt lat="43.1838230" lon="-3.0623800">
        <ele>74.2</ele>
        <time>2018-10-21T10:26:48Z</time>
      </trkpt>
      <trkpt lat="43.1838780" lon="-3.0622830">
        <ele>74.2</ele>
        <time>2018-10-21T10:26:49Z</time>
      </trkpt>
      <trkpt lat="43.1839350" lon="-3.0621850">
        <ele>74.2</ele>
        <time>2018-10-21T10:26:50Z</time>
      </trkpt>
      <trkpt lat="43.1839900" lon="-3.0620920">
        <ele>74.2</ele>
        <time>2018-10-21T10:26:51Z</time>
      </trkpt>
      <trkpt lat="43.1840430" lon="-3.0619970">
        <ele>74.2</ele>
        <time>2018-10-21T10:26:52Z</time>
      </trkpt>
      <trkpt lat="43.1840970" lon="-3.0619030">
        <ele>74.2</ele>
        <time>2018-10-21T10:26:53Z</time>
      </trkpt>
      <trkpt lat="43.1841480" lon="-3.0618100">
        <ele>74.2</ele>
        <time>2018-10-21T10:26:54Z</time>
      </trkpt>
      <trkpt lat="43.1842030" lon="-3.0617200">
        <ele>74.2</ele>
        <time>2018-10-21T10:26:55Z</time>
      </trkpt>
      <trkpt lat="43.1842550" lon="-3.0616280">
        <ele>74.2</ele>
        <time>2018-10-21T10:26:56Z</time>
      </trkpt>
      <trkpt lat="43.1843070" lon="-3.0615350">
        <ele>74.2</ele>
        <time>2018-10-21T10:26:57Z</time>
      </trkpt>
      <trkpt lat="43.1843580" lon="-3.0614420">
        <ele>74.2</ele>
        <time>2018-10-21T10:26:58Z</time>
      </trkpt>
      <trkpt lat="43.1844100" lon="-3.0613500">
        <ele>74.2</ele>
        <time>2018-10-21T10:26:59Z</time>
      </trkpt>
      <trkpt lat="43.1844600" lon="-3.0612570">
        <ele>74.2</ele>
        <time>2018-10-21T10:27:00Z</time>
      </trkpt>
      <trkpt lat="43.1845130" lon="-3.0611650">
        <ele>74.2</ele>
        <time>2018-10-21T10:27:01Z</time>
      </trkpt>
      <trkpt lat="43.1845670" lon="-3.0610750">
        <ele>74.2</ele>
        <time>2018-10-21T10:27:02Z</time>
      </trkpt>
      <trkpt lat="43.1846180" lon="-3.0609830">
        <ele>73.3</ele>
        <time>2018-10-21T10:27:03Z</time>
      </trkpt>
      <trkpt lat="43.1846700" lon="-3.0608900">
        <ele>73.3</ele>
        <time>2018-10-21T10:27:04Z</time>
      </trkpt>
      <trkpt lat="43.1847250" lon="-3.0607950">
        <ele>73.3</ele>
        <time>2018-10-21T10:27:05Z</time>
      </trkpt>
      <trkpt lat="43.1847800" lon="-3.0607000">
        <ele>73.3</ele>
        <time>2018-10-21T10:27:06Z</time>
      </trkpt>
      <trkpt lat="43.1848350" lon="-3.0606030">
        <ele>73.3</ele>
        <time>2018-10-21T10:27:07Z</time>
      </trkpt>
      <trkpt lat="43.1848900" lon="-3.0605070">
        <ele>73.3</ele>
        <time>2018-10-21T10:27:08Z</time>
      </trkpt>
      <trkpt lat="43.1849470" lon="-3.0604080">
        <ele>72.2</ele>
        <time>2018-10-21T10:27:09Z</time>
      </trkpt>
      <trkpt lat="43.1850050" lon="-3.0603130">
        <ele>72.2</ele>
        <time>2018-10-21T10:27:10Z</time>
      </trkpt>
      <trkpt lat="43.1850650" lon="-3.0602170">
        <ele>72.2</ele>
        <time>2018-10-21T10:27:11Z</time>
      </trkpt>
      <trkpt lat="43.1851250" lon="-3.0601220">
        <ele>72.2</ele>
        <time>2018-10-21T10:27:12Z</time>
      </trkpt>
      <trkpt lat="43.1851830" lon="-3.0600270">
        <ele>72.2</ele>
        <time>2018-10-21T10:27:13Z</time>
      </trkpt>
      <trkpt lat="43.1852420" lon="-3.0599300">
        <ele>72.2</ele>
        <time>2018-10-21T10:27:14Z</time>
      </trkpt>
      <trkpt lat="43.1852980" lon="-3.0598350">
        <ele>72.2</ele>
        <time>2018-10-21T10:27:15Z</time>
      </trkpt>
      <trkpt lat="43.1853550" lon="-3.0597380">
        <ele>72.2</ele>
        <time>2018-10-21T10:27:16Z</time>
      </trkpt>
      <trkpt lat="43.1854120" lon="-3.0596420">
        <ele>71.2</ele>
        <time>2018-10-21T10:27:17Z</time>
      </trkpt>
      <trkpt lat="43.1854650" lon="-3.0595430">
        <ele>71.2</ele>
        <time>2018-10-21T10:27:18Z</time>
      </trkpt>
      <trkpt lat="43.1855220" lon="-3.0594450">
        <ele>71.2</ele>
        <time>2018-10-21T10:27:19Z</time>
      </trkpt>
      <trkpt lat="43.1855750" lon="-3.0593480">
        <ele>71.2</ele>
        <time>2018-10-21T10:27:20Z</time>
      </trkpt>
      <trkpt lat="43.1856300" lon="-3.0592520">
        <ele>71.2</ele>
        <time>2018-10-21T10:27:21Z</time>
      </trkpt>
      <trkpt lat="43.1856830" lon="-3.0591550">
        <ele>71.2</ele>
        <time>2018-10-21T10:27:22Z</time>
      </trkpt>
      <trkpt lat="43.1857350" lon="-3.0590600">
        <ele>71.2</ele>
        <time>2018-10-21T10:27:23Z</time>
      </trkpt>
      <trkpt lat="43.1857880" lon="-3.0589670">
        <ele>71.2</ele>
        <time>2018-10-21T10:27:24Z</time>
      </trkpt>
      <trkpt lat="43.1858400" lon="-3.0588730">
        <ele>71.2</ele>
        <time>2018-10-21T10:27:25Z</time>
      </trkpt>
      <trkpt lat="43.1858920" lon="-3.0587800">
        <ele>71.2</ele>
        <time>2018-10-21T10:27:26Z</time>
      </trkpt>
      <trkpt lat="43.1859450" lon="-3.0586880">
        <ele>71.2</ele>
        <time>2018-10-21T10:27:27Z</time>
      </trkpt>
      <trkpt lat="43.1859970" lon="-3.0585950">
        <ele>71.2</ele>
        <time>2018-10-21T10:27:28Z</time>
      </trkpt>
      <trkpt lat="43.1860480" lon="-3.0585030">
        <ele>71.2</ele>
        <time>2018-10-21T10:27:29Z</time>
      </trkpt>
      <trkpt lat="43.1861020" lon="-3.0584120">
        <ele>71.2</ele>
        <time>2018-10-21T10:27:30Z</time>
      </trkpt>
      <trkpt lat="43.1861530" lon="-3.0583200">
        <ele>70.3</ele>
        <time>2018-10-21T10:27:31Z</time>
      </trkpt>
      <trkpt lat="43.1862070" lon="-3.0582270">
        <ele>70.3</ele>
        <time>2018-10-21T10:27:32Z</time>
      </trkpt>
      <trkpt lat="43.1862580" lon="-3.0581330">
        <ele>70.3</ele>
        <time>2018-10-21T10:27:33Z</time>
      </trkpt>
      <trkpt lat="43.1863100" lon="-3.0580380">
        <ele>70.3</ele>
        <time>2018-10-21T10:27:34Z</time>
      </trkpt>
      <trkpt lat="43.1863630" lon="-3.0579450">
        <ele>70.3</ele>
        <time>2018-10-21T10:27:35Z</time>
      </trkpt>
      <trkpt lat="43.1864170" lon="-3.0578520">
        <ele>70.3</ele>
        <time>2018-10-21T10:27:36Z</time>
      </trkpt>
      <trkpt lat="43.1864700" lon="-3.0577580">
        <ele>70.3</ele>
        <time>2018-10-21T10:27:37Z</time>
      </trkpt>
      <trkpt lat="43.1865250" lon="-3.0576630">
        <ele>70.3</ele>
        <time>2018-10-21T10:27:38Z</time>
      </trkpt>
      <trkpt lat="43.1865780" lon="-3.0575680">
        <ele>70.3</ele>
        <time>2018-10-21T10:27:39Z</time>
      </trkpt>
      <trkpt lat="43.1866330" lon="-3.0574720">
        <ele>70.3</ele>
        <time>2018-10-21T10:27:40Z</time>
      </trkpt>
      <trkpt lat="43.1866880" lon="-3.0573750">
        <ele>70.3</ele>
        <time>2018-10-21T10:27:41Z</time>
      </trkpt>
      <trkpt lat="43.1867430" lon="-3.0572780">
        <ele>70.3</ele>
        <time>2018-10-21T10:27:42Z</time>
      </trkpt>
      <trkpt lat="43.1867980" lon="-3.0571800">
        <ele>70.3</ele>
        <time>2018-10-21T10:27:43Z</time>
      </trkpt>
      <trkpt lat="43.1868530" lon="-3.0570800">
        <ele>70.3</ele>
        <time>2018-10-21T10:27:44Z</time>
      </trkpt>
      <trkpt lat="43.1869100" lon="-3.0569820">
        <ele>69.2</ele>
        <time>2018-10-21T10:27:45Z</time>
      </trkpt>
      <trkpt lat="43.1869650" lon="-3.0568800">
        <ele>69.2</ele>
        <time>2018-10-21T10:27:46Z</time>
      </trkpt>
      <trkpt lat="43.1870220" lon="-3.0567820">
        <ele>69.2</ele>
        <time>2018-10-21T10:27:47Z</time>
      </trkpt>
      <trkpt lat="43.1870800" lon="-3.0566820">
        <ele>69.2</ele>
        <time>2018-10-21T10:27:48Z</time>
      </trkpt>
      <trkpt lat="43.1871370" lon="-3.0565820">
        <ele>69.2</ele>
        <time>2018-10-21T10:27:49Z</time>
      </trkpt>
      <trkpt lat="43.1871920" lon="-3.0564820">
        <ele>69.2</ele>
        <time>2018-10-21T10:27:50Z</time>
      </trkpt>
      <trkpt lat="43.1872480" lon="-3.0563820">
        <ele>69.2</ele>
        <time>2018-10-21T10:27:51Z</time>
      </trkpt>
      <trkpt lat="43.1873050" lon="-3.0562800">
        <ele>69.2</ele>
        <time>2018-10-21T10:27:52Z</time>
      </trkpt>
      <trkpt lat="43.1873620" lon="-3.0561770">
        <ele>69.2</ele>
        <time>2018-10-21T10:27:53Z</time>
      </trkpt>
      <trkpt lat="43.1874180" lon="-3.0560750">
        <ele>69.2</ele>
        <time>2018-10-21T10:27:54Z</time>
      </trkpt>
      <trkpt lat="43.1874770" lon="-3.0559750">
        <ele>69.2</ele>
        <time>2018-10-21T10:27:55Z</time>
      </trkpt>
      <trkpt lat="43.1875330" lon="-3.0558750">
        <ele>69.2</ele>
        <time>2018-10-21T10:27:56Z</time>
      </trkpt>
      <trkpt lat="43.1875900" lon="-3.0557770">
        <ele>69.2</ele>
        <time>2018-10-21T10:27:57Z</time>
      </trkpt>
      <trkpt lat="43.1876450" lon="-3.0556780">
        <ele>69.2</ele>
        <time>2018-10-21T10:27:58Z</time>
      </trkpt>
      <trkpt lat="43.1877000" lon="-3.0555820">
        <ele>69.2</ele>
        <time>2018-10-21T10:27:59Z</time>
      </trkpt>
      <trkpt lat="43.1877530" lon="-3.0554870">
        <ele>69.2</ele>
        <time>2018-10-21T10:28:00Z</time>
      </trkpt>
      <trkpt lat="43.1878070" lon="-3.0553920">
        <ele>68.3</ele>
        <time>2018-10-21T10:28:01Z</time>
      </trkpt>
      <trkpt lat="43.1878580" lon="-3.0552980">
        <ele>68.3</ele>
        <time>2018-10-21T10:28:02Z</time>
      </trkpt>
      <trkpt lat="43.1879100" lon="-3.0552050">
        <ele>68.3</ele>
        <time>2018-10-21T10:28:03Z</time>
      </trkpt>
      <trkpt lat="43.1879600" lon="-3.0551120">
        <ele>68.3</ele>
        <time>2018-10-21T10:28:04Z</time>
      </trkpt>
      <trkpt lat="43.1880150" lon="-3.0550180">
        <ele>68.3</ele>
        <time>2018-10-21T10:28:05Z</time>
      </trkpt>
      <trkpt lat="43.1880700" lon="-3.0549230">
        <ele>68.3</ele>
        <time>2018-10-21T10:28:06Z</time>
      </trkpt>
      <trkpt lat="43.1881250" lon="-3.0548230">
        <ele>68.3</ele>
        <time>2018-10-21T10:28:07Z</time>
      </trkpt>
      <trkpt lat="43.1881820" lon="-3.0547270">
        <ele>68.3</ele>
        <time>2018-10-21T10:28:08Z</time>
      </trkpt>
      <trkpt lat="43.1882350" lon="-3.0546300">
        <ele>68.3</ele>
        <time>2018-10-21T10:28:09Z</time>
      </trkpt>
      <trkpt lat="43.1882920" lon="-3.0545350">
        <ele>68.3</ele>
        <time>2018-10-21T10:28:10Z</time>
      </trkpt>
      <trkpt lat="43.1883550" lon="-3.0544420">
        <ele>68.3</ele>
        <time>2018-10-21T10:28:11Z</time>
      </trkpt>
      <trkpt lat="43.1884270" lon="-3.0543580">
        <ele>68.3</ele>
        <time>2018-10-21T10:28:12Z</time>
      </trkpt>
      <trkpt lat="43.1885020" lon="-3.0542820">
        <ele>68.3</ele>
        <time>2018-10-21T10:28:13Z</time>
      </trkpt>
      <trkpt lat="43.1885780" lon="-3.0542150">
        <ele>68.3</ele>
        <time>2018-10-21T10:28:14Z</time>
      </trkpt>
      <trkpt lat="43.1886550" lon="-3.0541520">
        <ele>68.3</ele>
        <time>2018-10-21T10:28:15Z</time>
      </trkpt>
      <trkpt lat="43.1887320" lon="-3.0540980">
        <ele>68.3</ele>
        <time>2018-10-21T10:28:16Z</time>
      </trkpt>
      <trkpt lat="43.1888080" lon="-3.0540450">
        <ele>68.3</ele>
        <time>2018-10-21T10:28:17Z</time>
      </trkpt>
      <trkpt lat="43.1888830" lon="-3.0539970">
        <ele>68.3</ele>
        <time>2018-10-21T10:28:18Z</time>
      </trkpt>
      <trkpt lat="43.1889580" lon="-3.0539470">
        <ele>68.3</ele>
        <time>2018-10-21T10:28:19Z</time>
      </trkpt>
      <trkpt lat="43.1890330" lon="-3.0538950">
        <ele>68.3</ele>
        <time>2018-10-21T10:28:20Z</time>
      </trkpt>
      <trkpt lat="43.1891100" lon="-3.0538430">
        <ele>68.3</ele>
        <time>2018-10-21T10:28:21Z</time>
      </trkpt>
      <trkpt lat="43.1891850" lon="-3.0537930">
        <ele>68.3</ele>
        <time>2018-10-21T10:28:22Z</time>
      </trkpt>
      <trkpt lat="43.1892600" lon="-3.0537430">
        <ele>68.3</ele>
        <time>2018-10-21T10:28:23Z</time>
      </trkpt>
      <trkpt lat="43.1893370" lon="-3.0536920">
        <ele>68.3</ele>
        <time>2018-10-21T10:28:24Z</time>
      </trkpt>
      <trkpt lat="43.1894130" lon="-3.0536380">
        <ele>67.2</ele>
        <time>2018-10-21T10:28:25Z</time>
      </trkpt>
      <trkpt lat="43.1894920" lon="-3.0535870">
        <ele>67.2</ele>
        <time>2018-10-21T10:28:26Z</time>
      </trkpt>
      <trkpt lat="43.1895700" lon="-3.0535330">
        <ele>67.2</ele>
        <time>2018-10-21T10:28:27Z</time>
      </trkpt>
      <trkpt lat="43.1896520" lon="-3.0534780">
        <ele>67.2</ele>
        <time>2018-10-21T10:28:28Z</time>
      </trkpt>
      <trkpt lat="43.1897320" lon="-3.0534250">
        <ele>66.3</ele>
        <time>2018-10-21T10:28:29Z</time>
      </trkpt>
      <trkpt lat="43.1898120" lon="-3.0533720">
        <ele>66.3</ele>
        <time>2018-10-21T10:28:30Z</time>
      </trkpt>
      <trkpt lat="43.1898920" lon="-3.0533170">
        <ele>66.3</ele>
        <time>2018-10-21T10:28:31Z</time>
      </trkpt>
      <trkpt lat="43.1899720" lon="-3.0532620">
        <ele>66.3</ele>
        <time>2018-10-21T10:28:32Z</time>
      </trkpt>
      <trkpt lat="43.1900530" lon="-3.0532100">
        <ele>66.3</ele>
        <time>2018-10-21T10:28:33Z</time>
      </trkpt>
      <trkpt lat="43.1901330" lon="-3.0531580">
        <ele>66.3</ele>
        <time>2018-10-21T10:28:34Z</time>
      </trkpt>
      <trkpt lat="43.1902130" lon="-3.0531070">
        <ele>66.3</ele>
        <time>2018-10-21T10:28:35Z</time>
      </trkpt>
      <trkpt lat="43.1902930" lon="-3.0530530">
        <ele>66.3</ele>
        <time>2018-10-21T10:28:36Z</time>
      </trkpt>
      <trkpt lat="43.1903750" lon="-3.0530000">
        <ele>66.3</ele>
        <time>2018-10-21T10:28:37Z</time>
      </trkpt>
      <trkpt lat="43.1904550" lon="-3.0529470">
        <ele>66.3</ele>
        <time>2018-10-21T10:28:38Z</time>
      </trkpt>
      <trkpt lat="43.1905370" lon="-3.0528930">
        <ele>66.3</ele>
        <time>2018-10-21T10:28:39Z</time>
      </trkpt>
      <trkpt lat="43.1906170" lon="-3.0528400">
        <ele>66.3</ele>
        <time>2018-10-21T10:28:40Z</time>
      </trkpt>
      <trkpt lat="43.1906950" lon="-3.0527900">
        <ele>66.3</ele>
        <time>2018-10-21T10:28:41Z</time>
      </trkpt>
      <trkpt lat="43.1907720" lon="-3.0527380">
        <ele>66.3</ele>
        <time>2018-10-21T10:28:42Z</time>
      </trkpt>
      <trkpt lat="43.1908450" lon="-3.0526870">
        <ele>66.3</ele>
        <time>2018-10-21T10:28:43Z</time>
      </trkpt>
      <trkpt lat="43.1909200" lon="-3.0526370">
        <ele>66.3</ele>
        <time>2018-10-21T10:28:44Z</time>
      </trkpt>
      <trkpt lat="43.1909920" lon="-3.0525850">
        <ele>66.3</ele>
        <time>2018-10-21T10:28:45Z</time>
      </trkpt>
      <trkpt lat="43.1910650" lon="-3.0525350">
        <ele>66.3</ele>
        <time>2018-10-21T10:28:46Z</time>
      </trkpt>
      <trkpt lat="43.1911380" lon="-3.0524830">
        <ele>66.3</ele>
        <time>2018-10-21T10:28:47Z</time>
      </trkpt>
      <trkpt lat="43.1912120" lon="-3.0524280">
        <ele>66.3</ele>
        <time>2018-10-21T10:28:48Z</time>
      </trkpt>
      <trkpt lat="43.1912830" lon="-3.0523750">
        <ele>66.3</ele>
        <time>2018-10-21T10:28:49Z</time>
      </trkpt>
      <trkpt lat="43.1913550" lon="-3.0523200">
        <ele>66.3</ele>
        <time>2018-10-21T10:28:50Z</time>
      </trkpt>
      <trkpt lat="43.1914250" lon="-3.0522620">
        <ele>66.3</ele>
        <time>2018-10-21T10:28:51Z</time>
      </trkpt>
      <trkpt lat="43.1914930" lon="-3.0522020">
        <ele>66.3</ele>
        <time>2018-10-21T10:28:52Z</time>
      </trkpt>
      <trkpt lat="43.1915580" lon="-3.0521350">
        <ele>66.3</ele>
        <time>2018-10-21T10:28:53Z</time>
      </trkpt>
      <trkpt lat="43.1916220" lon="-3.0520630">
        <ele>66.3</ele>
        <time>2018-10-21T10:28:54Z</time>
      </trkpt>
      <trkpt lat="43.1916830" lon="-3.0519920">
        <ele>67.2</ele>
        <time>2018-10-21T10:28:55Z</time>
      </trkpt>
      <trkpt lat="43.1917380" lon="-3.0519150">
        <ele>67.2</ele>
        <time>2018-10-21T10:28:56Z</time>
      </trkpt>
      <trkpt lat="43.1917920" lon="-3.0518350">
        <ele>67.2</ele>
        <time>2018-10-21T10:28:57Z</time>
      </trkpt>
      <trkpt lat="43.1918430" lon="-3.0517530">
        <ele>67.2</ele>
        <time>2018-10-21T10:28:58Z</time>
      </trkpt>
      <trkpt lat="43.1918920" lon="-3.0516680">
        <ele>67.2</ele>
        <time>2018-10-21T10:28:59Z</time>
      </trkpt>
      <trkpt lat="43.1919370" lon="-3.0515770">
        <ele>67.2</ele>
        <time>2018-10-21T10:29:00Z</time>
      </trkpt>
      <trkpt lat="43.1919820" lon="-3.0514850">
        <ele>67.2</ele>
        <time>2018-10-21T10:29:01Z</time>
      </trkpt>
      <trkpt lat="43.1920280" lon="-3.0513920">
        <ele>67.2</ele>
        <time>2018-10-21T10:29:02Z</time>
      </trkpt>
      <trkpt lat="43.1920750" lon="-3.0512980">
        <ele>67.2</ele>
        <time>2018-10-21T10:29:03Z</time>
      </trkpt>
      <trkpt lat="43.1921250" lon="-3.0512020">
        <ele>67.2</ele>
        <time>2018-10-21T10:29:04Z</time>
      </trkpt>
      <trkpt lat="43.1921730" lon="-3.0511070">
        <ele>67.2</ele>
        <time>2018-10-21T10:29:05Z</time>
      </trkpt>
      <trkpt lat="43.1922230" lon="-3.0510070">
        <ele>67.2</ele>
        <time>2018-10-21T10:29:06Z</time>
      </trkpt>
      <trkpt lat="43.1922730" lon="-3.0509050">
        <ele>67.2</ele>
        <time>2018-10-21T10:29:07Z</time>
      </trkpt>
      <trkpt lat="43.1923230" lon="-3.0508020">
        <ele>67.2</ele>
        <time>2018-10-21T10:29:08Z</time>
      </trkpt>
      <trkpt lat="43.1923670" lon="-3.0506970">
        <ele>67.2</ele>
        <time>2018-10-21T10:29:09Z</time>
      </trkpt>
      <trkpt lat="43.1924050" lon="-3.0505880">
        <ele>67.2</ele>
        <time>2018-10-21T10:29:10Z</time>
      </trkpt>
      <trkpt lat="43.1924380" lon="-3.0504780">
        <ele>67.2</ele>
        <time>2018-10-21T10:29:11Z</time>
      </trkpt>
      <trkpt lat="43.1924650" lon="-3.0503620">
        <ele>67.2</ele>
        <time>2018-10-21T10:29:12Z</time>
      </trkpt>
      <trkpt lat="43.1924870" lon="-3.0502430">
        <ele>67.2</ele>
        <time>2018-10-21T10:29:13Z</time>
      </trkpt>
      <trkpt lat="43.1925080" lon="-3.0501270">
        <ele>67.2</ele>
        <time>2018-10-21T10:29:14Z</time>
      </trkpt>
      <trkpt lat="43.1925230" lon="-3.0500100">
        <ele>67.2</ele>
        <time>2018-10-21T10:29:15Z</time>
      </trkpt>
      <trkpt lat="43.1925370" lon="-3.0498950">
        <ele>67.2</ele>
        <time>2018-10-21T10:29:16Z</time>
      </trkpt>
      <trkpt lat="43.1925500" lon="-3.0497870">
        <ele>69.2</ele>
        <time>2018-10-21T10:29:17Z</time>
      </trkpt>
      <trkpt lat="43.1925630" lon="-3.0496830">
        <ele>69.2</ele>
        <time>2018-10-21T10:29:18Z</time>
      </trkpt>
      <trkpt lat="43.1925780" lon="-3.0495820">
        <ele>69.2</ele>
        <time>2018-10-21T10:29:19Z</time>
      </trkpt>
      <trkpt lat="43.1925950" lon="-3.0494850">
        <ele>69.2</ele>
        <time>2018-10-21T10:29:20Z</time>
      </trkpt>
      <trkpt lat="43.1926150" lon="-3.0493900">
        <ele>69.2</ele>
        <time>2018-10-21T10:29:21Z</time>
      </trkpt>
      <trkpt lat="43.1926350" lon="-3.0492950">
        <ele>69.2</ele>
        <time>2018-10-21T10:29:22Z</time>
      </trkpt>
      <trkpt lat="43.1926570" lon="-3.0492000">
        <ele>69.2</ele>
        <time>2018-10-21T10:29:23Z</time>
      </trkpt>
      <trkpt lat="43.1926820" lon="-3.0491070">
        <ele>69.2</ele>
        <time>2018-10-21T10:29:24Z</time>
      </trkpt>
      <trkpt lat="43.1927080" lon="-3.0490130">
        <ele>69.2</ele>
        <time>2018-10-21T10:29:25Z</time>
      </trkpt>
      <trkpt lat="43.1927400" lon="-3.0489180">
        <ele>69.2</ele>
        <time>2018-10-21T10:29:26Z</time>
      </trkpt>
      <trkpt lat="43.1927730" lon="-3.0488250">
        <ele>70.3</ele>
        <time>2018-10-21T10:29:27Z</time>
      </trkpt>
      <trkpt lat="43.1928070" lon="-3.0487330">
        <ele>70.3</ele>
        <time>2018-10-21T10:29:28Z</time>
      </trkpt>
      <trkpt lat="43.1928400" lon="-3.0486420">
        <ele>70.3</ele>
        <time>2018-10-21T10:29:29Z</time>
      </trkpt>
      <trkpt lat="43.1928730" lon="-3.0485530">
        <ele>70.3</ele>
        <time>2018-10-21T10:29:30Z</time>
      </trkpt>
      <trkpt lat="43.1929050" lon="-3.0484630">
        <ele>70.3</ele>
        <time>2018-10-21T10:29:31Z</time>
      </trkpt>
      <trkpt lat="43.1929400" lon="-3.0483770">
        <ele>70.3</ele>
        <time>2018-10-21T10:29:32Z</time>
      </trkpt>
      <trkpt lat="43.1929720" lon="-3.0482880">
        <ele>70.3</ele>
        <time>2018-10-21T10:29:33Z</time>
      </trkpt>
      <trkpt lat="43.1930020" lon="-3.0481970">
        <ele>70.3</ele>
        <time>2018-10-21T10:29:34Z</time>
      </trkpt>
      <trkpt lat="43.1930320" lon="-3.0481030">
        <ele>70.3</ele>
        <time>2018-10-21T10:29:35Z</time>
      </trkpt>
      <trkpt lat="43.1930620" lon="-3.0480080">
        <ele>70.3</ele>
        <time>2018-10-21T10:29:36Z</time>
      </trkpt>
      <trkpt lat="43.1930920" lon="-3.0479100">
        <ele>70.3</ele>
        <time>2018-10-21T10:29:37Z</time>
      </trkpt>
      <trkpt lat="43.1931220" lon="-3.0478120">
        <ele>70.3</ele>
        <time>2018-10-21T10:29:38Z</time>
      </trkpt>
      <trkpt lat="43.1931530" lon="-3.0477150">
        <ele>69.2</ele>
        <time>2018-10-21T10:29:39Z</time>
      </trkpt>
      <trkpt lat="43.1931870" lon="-3.0476170">
        <ele>69.2</ele>
        <time>2018-10-21T10:29:40Z</time>
      </trkpt>
      <trkpt lat="43.1932220" lon="-3.0475200">
        <ele>69.2</ele>
        <time>2018-10-21T10:29:41Z</time>
      </trkpt>
      <trkpt lat="43.1932600" lon="-3.0474230">
        <ele>69.2</ele>
        <time>2018-10-21T10:29:42Z</time>
      </trkpt>
      <trkpt lat="43.1932970" lon="-3.0473350">
        <ele>68.3</ele>
        <time>2018-10-21T10:29:43Z</time>
      </trkpt>
      <trkpt lat="43.1933320" lon="-3.0472580">
        <ele>68.3</ele>
        <time>2018-10-21T10:29:44Z</time>
      </trkpt>
      <trkpt lat="43.1933620" lon="-3.0471830">
        <ele>68.3</ele>
        <time>2018-10-21T10:29:45Z</time>
      </trkpt>
      <trkpt lat="43.1933900" lon="-3.0471050">
        <ele>68.3</ele>
        <time>2018-10-21T10:29:46Z</time>
      </trkpt>
      <trkpt lat="43.1934170" lon="-3.0470230">
        <ele>68.3</ele>
        <time>2018-10-21T10:29:47Z</time>
      </trkpt>
      <trkpt lat="43.1934500" lon="-3.0469470">
        <ele>68.3</ele>
        <time>2018-10-21T10:29:48Z</time>
      </trkpt>
      <trkpt lat="43.1934970" lon="-3.0468820">
        <ele>68.3</ele>
        <time>2018-10-21T10:29:49Z</time>
      </trkpt>
      <trkpt lat="43.1935400" lon="-3.0468330">
        <ele>68.3</ele>
        <time>2018-10-21T10:29:50Z</time>
      </trkpt>
      <trkpt lat="43.1935980" lon="-3.0468030">
        <ele>68.3</ele>
        <time>2018-10-21T10:29:51Z</time>
      </trkpt>
      <trkpt lat="43.1936530" lon="-3.0467850">
        <ele>68.3</ele>
        <time>2018-10-21T10:29:52Z</time>
      </trkpt>
      <trkpt lat="43.1937200" lon="-3.0468180">
        <ele>68.3</ele>
        <time>2018-10-21T10:29:53Z</time>
      </trkpt>
      <trkpt lat="43.1937700" lon="-3.0468830">
        <ele>68.3</ele>
        <time>2018-10-21T10:29:54Z</time>
      </trkpt>
      <trkpt lat="43.1938030" lon="-3.0469750">
        <ele>68.3</ele>
        <time>2018-10-21T10:29:55Z</time>
      </trkpt>
      <trkpt lat="43.1938330" lon="-3.0470700">
        <ele>68.3</ele>
        <time>2018-10-21T10:29:56Z</time>
      </trkpt>
      <trkpt lat="43.1938720" lon="-3.0471630">
        <ele>68.3</ele>
        <time>2018-10-21T10:29:57Z</time>
      </trkpt>
      <trkpt lat="43.1939170" lon="-3.0472520">
        <ele>68.3</ele>
        <time>2018-10-21T10:29:58Z</time>
      </trkpt>
      <trkpt lat="43.1939700" lon="-3.0473280">
        <ele>68.3</ele>
        <time>2018-10-21T10:29:59Z</time>
      </trkpt>
      <trkpt lat="43.1940330" lon="-3.0473870">
        <ele>68.3</ele>
        <time>2018-10-21T10:30:00Z</time>
      </trkpt>
      <trkpt lat="43.1941020" lon="-3.0474300">
        <ele>68.3</ele>
        <time>2018-10-21T10:30:01Z</time>
      </trkpt>
      <trkpt lat="43.1941720" lon="-3.0474630">
        <ele>68.3</ele>
        <time>2018-10-21T10:30:02Z</time>
      </trkpt>
      <trkpt lat="43.1942430" lon="-3.0474850">
        <ele>68.3</ele>
        <time>2018-10-21T10:30:03Z</time>
      </trkpt>
      <trkpt lat="43.1943150" lon="-3.0475020">
        <ele>68.3</ele>
        <time>2018-10-21T10:30:04Z</time>
      </trkpt>
      <trkpt lat="43.1943880" lon="-3.0475170">
        <ele>68.3</ele>
        <time>2018-10-21T10:30:05Z</time>
      </trkpt>
      <trkpt lat="43.1944630" lon="-3.0475330">
        <ele>68.3</ele>
        <time>2018-10-21T10:30:06Z</time>
      </trkpt>
      <trkpt lat="43.1945350" lon="-3.0475480">
        <ele>67.2</ele>
        <time>2018-10-21T10:30:07Z</time>
      </trkpt>
      <trkpt lat="43.1946080" lon="-3.0475620">
        <ele>67.2</ele>
        <time>2018-10-21T10:30:08Z</time>
      </trkpt>
      <trkpt lat="43.1946820" lon="-3.0475770">
        <ele>66.3</ele>
        <time>2018-10-21T10:30:09Z</time>
      </trkpt>
      <trkpt lat="43.1947530" lon="-3.0475920">
        <ele>66.3</ele>
        <time>2018-10-21T10:30:10Z</time>
      </trkpt>
      <trkpt lat="43.1948280" lon="-3.0476050">
        <ele>66.3</ele>
        <time>2018-10-21T10:30:11Z</time>
      </trkpt>
      <trkpt lat="43.1949020" lon="-3.0476170">
        <ele>66.3</ele>
        <time>2018-10-21T10:30:12Z</time>
      </trkpt>
      <trkpt lat="43.1949750" lon="-3.0476280">
        <ele>66.3</ele>
        <time>2018-10-21T10:30:13Z</time>
      </trkpt>
      <trkpt lat="43.1950480" lon="-3.0476380">
        <ele>66.3</ele>
        <time>2018-10-21T10:30:14Z</time>
      </trkpt>
      <trkpt lat="43.1951200" lon="-3.0476520">
        <ele>66.3</ele>
        <time>2018-10-21T10:30:15Z</time>
      </trkpt>
      <trkpt lat="43.1951920" lon="-3.0476620">
        <ele>66.3</ele>
        <time>2018-10-21T10:30:16Z</time>
      </trkpt>
      <trkpt lat="43.1952670" lon="-3.0476730">
        <ele>65.2</ele>
        <time>2018-10-21T10:30:17Z</time>
      </trkpt>
      <trkpt lat="43.1953420" lon="-3.0476870">
        <ele>65.2</ele>
        <time>2018-10-21T10:30:18Z</time>
      </trkpt>
      <trkpt lat="43.1954180" lon="-3.0476980">
        <ele>65.2</ele>
        <time>2018-10-21T10:30:19Z</time>
      </trkpt>
      <trkpt lat="43.1954930" lon="-3.0477080">
        <ele>65.2</ele>
        <time>2018-10-21T10:30:20Z</time>
      </trkpt>
      <trkpt lat="43.1955700" lon="-3.0477180">
        <ele>65.2</ele>
        <time>2018-10-21T10:30:21Z</time>
      </trkpt>
      <trkpt lat="43.1956450" lon="-3.0477320">
        <ele>65.2</ele>
        <time>2018-10-21T10:30:22Z</time>
      </trkpt>
      <trkpt lat="43.1957200" lon="-3.0477420">
        <ele>65.2</ele>
        <time>2018-10-21T10:30:23Z</time>
      </trkpt>
      <trkpt lat="43.1957970" lon="-3.0477520">
        <ele>65.2</ele>
        <time>2018-10-21T10:30:24Z</time>
      </trkpt>
      <trkpt lat="43.1958720" lon="-3.0477620">
        <ele>65.2</ele>
        <time>2018-10-21T10:30:25Z</time>
      </trkpt>
      <trkpt lat="43.1959470" lon="-3.0477730">
        <ele>65.2</ele>
        <time>2018-10-21T10:30:26Z</time>
      </trkpt>
      <trkpt lat="43.1960230" lon="-3.0477850">
        <ele>65.2</ele>
        <time>2018-10-21T10:30:27Z</time>
      </trkpt>
      <trkpt lat="43.1960980" lon="-3.0477980">
        <ele>65.2</ele>
        <time>2018-10-21T10:30:28Z</time>
      </trkpt>
      <trkpt lat="43.1961720" lon="-3.0478070">
        <ele>64.2</ele>
        <time>2018-10-21T10:30:29Z</time>
      </trkpt>
      <trkpt lat="43.1962450" lon="-3.0478170">
        <ele>64.2</ele>
        <time>2018-10-21T10:30:30Z</time>
      </trkpt>
      <trkpt lat="43.1963170" lon="-3.0478270">
        <ele>64.2</ele>
        <time>2018-10-21T10:30:31Z</time>
      </trkpt>
      <trkpt lat="43.1963870" lon="-3.0478370">
        <ele>64.2</ele>
        <time>2018-10-21T10:30:32Z</time>
      </trkpt>
      <trkpt lat="43.1964550" lon="-3.0478450">
        <ele>64.2</ele>
        <time>2018-10-21T10:30:33Z</time>
      </trkpt>
      <trkpt lat="43.1965250" lon="-3.0478550">
        <ele>64.2</ele>
        <time>2018-10-21T10:30:34Z</time>
      </trkpt>
      <trkpt lat="43.1965950" lon="-3.0478630">
        <ele>64.2</ele>
        <time>2018-10-21T10:30:35Z</time>
      </trkpt>
      <trkpt lat="43.1966650" lon="-3.0478730">
        <ele>64.2</ele>
        <time>2018-10-21T10:30:36Z</time>
      </trkpt>
      <trkpt lat="43.1967350" lon="-3.0478850">
        <ele>64.2</ele>
        <time>2018-10-21T10:30:37Z</time>
      </trkpt>
      <trkpt lat="43.1968050" lon="-3.0478970">
        <ele>64.2</ele>
        <time>2018-10-21T10:30:38Z</time>
      </trkpt>
      <trkpt lat="43.1968750" lon="-3.0479070">
        <ele>64.2</ele>
        <time>2018-10-21T10:30:39Z</time>
      </trkpt>
      <trkpt lat="43.1969480" lon="-3.0479170">
        <ele>64.2</ele>
        <time>2018-10-21T10:30:40Z</time>
      </trkpt>
      <trkpt lat="43.1970200" lon="-3.0479270">
        <ele>64.2</ele>
        <time>2018-10-21T10:30:41Z</time>
      </trkpt>
      <trkpt lat="43.1970930" lon="-3.0479380">
        <ele>64.2</ele>
        <time>2018-10-21T10:30:42Z</time>
      </trkpt>
      <trkpt lat="43.1971680" lon="-3.0479480">
        <ele>63.2</ele>
        <time>2018-10-21T10:30:43Z</time>
      </trkpt>
      <trkpt lat="43.1972420" lon="-3.0479570">
        <ele>63.2</ele>
        <time>2018-10-21T10:30:44Z</time>
      </trkpt>
      <trkpt lat="43.1973150" lon="-3.0479650">
        <ele>63.2</ele>
        <time>2018-10-21T10:30:45Z</time>
      </trkpt>
      <trkpt lat="43.1973880" lon="-3.0479770">
        <ele>63.2</ele>
        <time>2018-10-21T10:30:46Z</time>
      </trkpt>
      <trkpt lat="43.1974620" lon="-3.0479900">
        <ele>63.2</ele>
        <time>2018-10-21T10:30:47Z</time>
      </trkpt>
      <trkpt lat="43.1975330" lon="-3.0480020">
        <ele>63.2</ele>
        <time>2018-10-21T10:30:48Z</time>
      </trkpt>
      <trkpt lat="43.1976070" lon="-3.0480100">
        <ele>63.2</ele>
        <time>2018-10-21T10:30:49Z</time>
      </trkpt>
      <trkpt lat="43.1976780" lon="-3.0480200">
        <ele>63.2</ele>
        <time>2018-10-21T10:30:50Z</time>
      </trkpt>
      <trkpt lat="43.1977520" lon="-3.0480300">
        <ele>63.2</ele>
        <time>2018-10-21T10:30:51Z</time>
      </trkpt>
      <trkpt lat="43.1978230" lon="-3.0480400">
        <ele>63.2</ele>
        <time>2018-10-21T10:30:52Z</time>
      </trkpt>
      <trkpt lat="43.1978950" lon="-3.0480500">
        <ele>63.2</ele>
        <time>2018-10-21T10:30:53Z</time>
      </trkpt>
      <trkpt lat="43.1979670" lon="-3.0480620">
        <ele>63.2</ele>
        <time>2018-10-21T10:30:54Z</time>
      </trkpt>
      <trkpt lat="43.1980380" lon="-3.0480720">
        <ele>63.2</ele>
        <time>2018-10-21T10:30:55Z</time>
      </trkpt>
      <trkpt lat="43.1981080" lon="-3.0480830">
        <ele>63.2</ele>
        <time>2018-10-21T10:30:56Z</time>
      </trkpt>
      <trkpt lat="43.1981750" lon="-3.0480900">
        <ele>63.2</ele>
        <time>2018-10-21T10:30:57Z</time>
      </trkpt>
      <trkpt lat="43.1982430" lon="-3.0480970">
        <ele>63.2</ele>
        <time>2018-10-21T10:30:58Z</time>
      </trkpt>
      <trkpt lat="43.1983100" lon="-3.0481070">
        <ele>62.2</ele>
        <time>2018-10-21T10:30:59Z</time>
      </trkpt>
      <trkpt lat="43.1983750" lon="-3.0481170">
        <ele>62.2</ele>
        <time>2018-10-21T10:31:00Z</time>
      </trkpt>
      <trkpt lat="43.1984420" lon="-3.0481270">
        <ele>62.2</ele>
        <time>2018-10-21T10:31:01Z</time>
      </trkpt>
      <trkpt lat="43.1985080" lon="-3.0481370">
        <ele>62.2</ele>
        <time>2018-10-21T10:31:02Z</time>
      </trkpt>
      <trkpt lat="43.1985770" lon="-3.0481470">
        <ele>62.2</ele>
        <time>2018-10-21T10:31:03Z</time>
      </trkpt>
      <trkpt lat="43.1986450" lon="-3.0481580">
        <ele>62.2</ele>
        <time>2018-10-21T10:31:04Z</time>
      </trkpt>
      <trkpt lat="43.1987130" lon="-3.0481680">
        <ele>61.3</ele>
        <time>2018-10-21T10:31:05Z</time>
      </trkpt>
      <trkpt lat="43.1987820" lon="-3.0481770">
        <ele>61.3</ele>
        <time>2018-10-21T10:31:06Z</time>
      </trkpt>
      <trkpt lat="43.1988480" lon="-3.0481880">
        <ele>61.3</ele>
        <time>2018-10-21T10:31:07Z</time>
      </trkpt>
      <trkpt lat="43.1989150" lon="-3.0482000">
        <ele>61.3</ele>
        <time>2018-10-21T10:31:08Z</time>
      </trkpt>
      <trkpt lat="43.1989800" lon="-3.0482120">
        <ele>61.3</ele>
        <time>2018-10-21T10:31:09Z</time>
      </trkpt>
      <trkpt lat="43.1990430" lon="-3.0482220">
        <ele>61.3</ele>
        <time>2018-10-21T10:31:10Z</time>
      </trkpt>
      <trkpt lat="43.1991030" lon="-3.0482330">
        <ele>61.3</ele>
        <time>2018-10-21T10:31:11Z</time>
      </trkpt>
      <trkpt lat="43.1991620" lon="-3.0482400">
        <ele>61.3</ele>
        <time>2018-10-21T10:31:12Z</time>
      </trkpt>
      <trkpt lat="43.1992180" lon="-3.0482450">
        <ele>61.3</ele>
        <time>2018-10-21T10:31:13Z</time>
      </trkpt>
      <trkpt lat="43.1992720" lon="-3.0482520">
        <ele>61.3</ele>
        <time>2018-10-21T10:31:14Z</time>
      </trkpt>
      <trkpt lat="43.1993250" lon="-3.0482600">
        <ele>61.3</ele>
        <time>2018-10-21T10:31:15Z</time>
      </trkpt>
      <trkpt lat="43.1993750" lon="-3.0482630">
        <ele>61.3</ele>
        <time>2018-10-21T10:31:16Z</time>
      </trkpt>
      <trkpt lat="43.1994220" lon="-3.0482670">
        <ele>61.3</ele>
        <time>2018-10-21T10:31:17Z</time>
      </trkpt>
      <trkpt lat="43.1994680" lon="-3.0482700">
        <ele>61.3</ele>
        <time>2018-10-21T10:31:18Z</time>
      </trkpt>
      <trkpt lat="43.1995150" lon="-3.0482730">
        <ele>61.3</ele>
        <time>2018-10-21T10:31:19Z</time>
      </trkpt>
      <trkpt lat="43.1995580" lon="-3.0482750">
        <ele>61.3</ele>
        <time>2018-10-21T10:31:20Z</time>
      </trkpt>
      <trkpt lat="43.1996050" lon="-3.0482770">
        <ele>61.3</ele>
        <time>2018-10-21T10:31:21Z</time>
      </trkpt>
      <trkpt lat="43.1996550" lon="-3.0482770">
        <ele>61.3</ele>
        <time>2018-10-21T10:31:22Z</time>
      </trkpt>
      <trkpt lat="43.1997080" lon="-3.0482820">
        <ele>61.3</ele>
        <time>2018-10-21T10:31:23Z</time>
      </trkpt>
      <trkpt lat="43.1997620" lon="-3.0482880">
        <ele>61.3</ele>
        <time>2018-10-21T10:31:24Z</time>
      </trkpt>
      <trkpt lat="43.1998220" lon="-3.0482950">
        <ele>61.3</ele>
        <time>2018-10-21T10:31:25Z</time>
      </trkpt>
      <trkpt lat="43.1998800" lon="-3.0483020">
        <ele>61.3</ele>
        <time>2018-10-21T10:31:26Z</time>
      </trkpt>
      <trkpt lat="43.1999400" lon="-3.0483080">
        <ele>61.3</ele>
        <time>2018-10-21T10:31:27Z</time>
      </trkpt>
      <trkpt lat="43.2000020" lon="-3.0483180">
        <ele>61.3</ele>
        <time>2018-10-21T10:31:28Z</time>
      </trkpt>
      <trkpt lat="43.2000650" lon="-3.0483250">
        <ele>61.3</ele>
        <time>2018-10-21T10:31:29Z</time>
      </trkpt>
      <trkpt lat="43.2001300" lon="-3.0483330">
        <ele>61.3</ele>
        <time>2018-10-21T10:31:30Z</time>
      </trkpt>
      <trkpt lat="43.2001980" lon="-3.0483430">
        <ele>62.2</ele>
        <time>2018-10-21T10:31:31Z</time>
      </trkpt>
      <trkpt lat="43.2002700" lon="-3.0483520">
        <ele>62.2</ele>
        <time>2018-10-21T10:31:32Z</time>
      </trkpt>
      <trkpt lat="43.2003450" lon="-3.0483620">
        <ele>62.2</ele>
        <time>2018-10-21T10:31:33Z</time>
      </trkpt>
      <trkpt lat="43.2004200" lon="-3.0483750">
        <ele>62.2</ele>
        <time>2018-10-21T10:31:34Z</time>
      </trkpt>
      <trkpt lat="43.2004970" lon="-3.0483850">
        <ele>61.3</ele>
        <time>2018-10-21T10:31:35Z</time>
      </trkpt>
      <trkpt lat="43.2005750" lon="-3.0483950">
        <ele>61.3</ele>
        <time>2018-10-21T10:31:36Z</time>
      </trkpt>
      <trkpt lat="43.2006570" lon="-3.0484070">
        <ele>61.3</ele>
        <time>2018-10-21T10:31:37Z</time>
      </trkpt>
      <trkpt lat="43.2007370" lon="-3.0484170">
        <ele>61.3</ele>
        <time>2018-10-21T10:31:38Z</time>
      </trkpt>
      <trkpt lat="43.2008200" lon="-3.0484300">
        <ele>61.3</ele>
        <time>2018-10-21T10:31:39Z</time>
      </trkpt>
      <trkpt lat="43.2009020" lon="-3.0484430">
        <ele>61.3</ele>
        <time>2018-10-21T10:31:40Z</time>
      </trkpt>
      <trkpt lat="43.2009830" lon="-3.0484550">
        <ele>61.3</ele>
        <time>2018-10-21T10:31:41Z</time>
      </trkpt>
      <trkpt lat="43.2010620" lon="-3.0484670">
        <ele>61.3</ele>
        <time>2018-10-21T10:31:42Z</time>
      </trkpt>
      <trkpt lat="43.2011370" lon="-3.0484770">
        <ele>60.2</ele>
        <time>2018-10-21T10:31:43Z</time>
      </trkpt>
      <trkpt lat="43.2012100" lon="-3.0484830">
        <ele>60.2</ele>
        <time>2018-10-21T10:31:44Z</time>
      </trkpt>
      <trkpt lat="43.2012850" lon="-3.0484900">
        <ele>60.2</ele>
        <time>2018-10-21T10:31:45Z</time>
      </trkpt>
      <trkpt lat="43.2013620" lon="-3.0485020">
        <ele>60.2</ele>
        <time>2018-10-21T10:31:46Z</time>
      </trkpt>
      <trkpt lat="43.2014400" lon="-3.0485170">
        <ele>60.2</ele>
        <time>2018-10-21T10:31:47Z</time>
      </trkpt>
      <trkpt lat="43.2015200" lon="-3.0485330">
        <ele>60.2</ele>
        <time>2018-10-21T10:31:48Z</time>
      </trkpt>
      <trkpt lat="43.2016000" lon="-3.0485530">
        <ele>59.3</ele>
        <time>2018-10-21T10:31:49Z</time>
      </trkpt>
      <trkpt lat="43.2016800" lon="-3.0485750">
        <ele>59.3</ele>
        <time>2018-10-21T10:31:50Z</time>
      </trkpt>
      <trkpt lat="43.2017600" lon="-3.0486070">
        <ele>59.3</ele>
        <time>2018-10-21T10:31:51Z</time>
      </trkpt>
      <trkpt lat="43.2018350" lon="-3.0486480">
        <ele>59.3</ele>
        <time>2018-10-21T10:31:52Z</time>
      </trkpt>
      <trkpt lat="43.2019100" lon="-3.0486970">
        <ele>58.2</ele>
        <time>2018-10-21T10:31:53Z</time>
      </trkpt>
      <trkpt lat="43.2019820" lon="-3.0487530">
        <ele>58.2</ele>
        <time>2018-10-21T10:31:54Z</time>
      </trkpt>
      <trkpt lat="43.2020480" lon="-3.0488200">
        <ele>58.2</ele>
        <time>2018-10-21T10:31:55Z</time>
      </trkpt>
      <trkpt lat="43.2021030" lon="-3.0489000">
        <ele>58.2</ele>
        <time>2018-10-21T10:31:56Z</time>
      </trkpt>
      <trkpt lat="43.2021470" lon="-3.0489900">
        <ele>58.2</ele>
        <time>2018-10-21T10:31:57Z</time>
      </trkpt>
      <trkpt lat="43.2021830" lon="-3.0490800">
        <ele>58.2</ele>
        <time>2018-10-21T10:31:58Z</time>
      </trkpt>
      <trkpt lat="43.2022120" lon="-3.0491700">
        <ele>58.2</ele>
        <time>2018-10-21T10:31:59Z</time>
      </trkpt>
      <trkpt lat="43.2022350" lon="-3.0492580">
        <ele>58.2</ele>
        <time>2018-10-21T10:32:00Z</time>
      </trkpt>
      <trkpt lat="43.2022600" lon="-3.0493420">
        <ele>58.2</ele>
        <time>2018-10-21T10:32:01Z</time>
      </trkpt>
      <trkpt lat="43.2022920" lon="-3.0494180">
        <ele>58.2</ele>
        <time>2018-10-21T10:32:02Z</time>
      </trkpt>
      <trkpt lat="43.2023270" lon="-3.0494850">
        <ele>58.2</ele>
        <time>2018-10-21T10:32:03Z</time>
      </trkpt>
      <trkpt lat="43.2023670" lon="-3.0495450">
        <ele>58.2</ele>
        <time>2018-10-21T10:32:04Z</time>
      </trkpt>
      <trkpt lat="43.2024050" lon="-3.0496000">
        <ele>59.3</ele>
        <time>2018-10-21T10:32:05Z</time>
      </trkpt>
      <trkpt lat="43.2024430" lon="-3.0496480">
        <ele>59.3</ele>
        <time>2018-10-21T10:32:06Z</time>
      </trkpt>
      <trkpt lat="43.2024820" lon="-3.0496880">
        <ele>59.3</ele>
        <time>2018-10-21T10:32:07Z</time>
      </trkpt>
      <trkpt lat="43.2025230" lon="-3.0497150">
        <ele>59.3</ele>
        <time>2018-10-21T10:32:08Z</time>
      </trkpt>
      <trkpt lat="43.2025580" lon="-3.0497300">
        <ele>59.3</ele>
        <time>2018-10-21T10:32:09Z</time>
      </trkpt>
      <trkpt lat="43.2025900" lon="-3.0497370">
        <ele>59.3</ele>
        <time>2018-10-21T10:32:10Z</time>
      </trkpt>
      <trkpt lat="43.2026250" lon="-3.0497400">
        <ele>59.3</ele>
        <time>2018-10-21T10:32:11Z</time>
      </trkpt>
      <trkpt lat="43.2026580" lon="-3.0497350">
        <ele>59.3</ele>
        <time>2018-10-21T10:32:12Z</time>
      </trkpt>
      <trkpt lat="43.2026920" lon="-3.0497120">
        <ele>59.3</ele>
        <time>2018-10-21T10:32:13Z</time>
      </trkpt>
      <trkpt lat="43.2027220" lon="-3.0496680">
        <ele>59.3</ele>
        <time>2018-10-21T10:32:14Z</time>
      </trkpt>
      <trkpt lat="43.2027500" lon="-3.0496120">
        <ele>59.3</ele>
        <time>2018-10-21T10:32:15Z</time>
      </trkpt>
      <trkpt lat="43.2027850" lon="-3.0495470">
        <ele>59.3</ele>
        <time>2018-10-21T10:32:16Z</time>
      </trkpt>
      <trkpt lat="43.2028270" lon="-3.0494770">
        <ele>60.2</ele>
        <time>2018-10-21T10:32:17Z</time>
      </trkpt>
      <trkpt lat="43.2028750" lon="-3.0494030">
        <ele>60.2</ele>
        <time>2018-10-21T10:32:18Z</time>
      </trkpt>
      <trkpt lat="43.2029220" lon="-3.0493300">
        <ele>60.2</ele>
        <time>2018-10-21T10:32:19Z</time>
      </trkpt>
      <trkpt lat="43.2029700" lon="-3.0492570">
        <ele>60.2</ele>
        <time>2018-10-21T10:32:20Z</time>
      </trkpt>
      <trkpt lat="43.2030150" lon="-3.0491870">
        <ele>59.3</ele>
        <time>2018-10-21T10:32:21Z</time>
      </trkpt>
      <trkpt lat="43.2030630" lon="-3.0491100">
        <ele>59.3</ele>
        <time>2018-10-21T10:32:22Z</time>
      </trkpt>
      <trkpt lat="43.2031070" lon="-3.0490300">
        <ele>59.3</ele>
        <time>2018-10-21T10:32:23Z</time>
      </trkpt>
      <trkpt lat="43.2031520" lon="-3.0489480">
        <ele>59.3</ele>
        <time>2018-10-21T10:32:24Z</time>
      </trkpt>
      <trkpt lat="43.2031970" lon="-3.0488700">
        <ele>59.3</ele>
        <time>2018-10-21T10:32:25Z</time>
      </trkpt>
      <trkpt lat="43.2032430" lon="-3.0487920">
        <ele>59.3</ele>
        <time>2018-10-21T10:32:26Z</time>
      </trkpt>
      <trkpt lat="43.2032880" lon="-3.0487120">
        <ele>60.2</ele>
        <time>2018-10-21T10:32:27Z</time>
      </trkpt>
      <trkpt lat="43.2033350" lon="-3.0486300">
        <ele>60.2</ele>
        <time>2018-10-21T10:32:28Z</time>
      </trkpt>
      <trkpt lat="43.2033820" lon="-3.0485550">
        <ele>59.3</ele>
        <time>2018-10-21T10:32:29Z</time>
      </trkpt>
      <trkpt lat="43.2034280" lon="-3.0484770">
        <ele>59.3</ele>
        <time>2018-10-21T10:32:30Z</time>
      </trkpt>
      <trkpt lat="43.2034730" lon="-3.0484000">
        <ele>59.3</ele>
        <time>2018-10-21T10:32:31Z</time>
      </trkpt>
      <trkpt lat="43.2035180" lon="-3.0483230">
        <ele>59.3</ele>
        <time>2018-10-21T10:32:32Z</time>
      </trkpt>
      <trkpt lat="43.2035630" lon="-3.0482450">
        <ele>59.3</ele>
        <time>2018-10-21T10:32:33Z</time>
      </trkpt>
      <trkpt lat="43.2036080" lon="-3.0481700">
        <ele>59.3</ele>
        <time>2018-10-21T10:32:34Z</time>
      </trkpt>
      <trkpt lat="43.2036550" lon="-3.0480950">
        <ele>59.3</ele>
        <time>2018-10-21T10:32:35Z</time>
      </trkpt>
      <trkpt lat="43.2037020" lon="-3.0480250">
        <ele>59.3</ele>
        <time>2018-10-21T10:32:36Z</time>
      </trkpt>
      <trkpt lat="43.2037520" lon="-3.0479570">
        <ele>59.3</ele>
        <time>2018-10-21T10:32:37Z</time>
      </trkpt>
      <trkpt lat="43.2038020" lon="-3.0478930">
        <ele>59.3</ele>
        <time>2018-10-21T10:32:38Z</time>
      </trkpt>
      <trkpt lat="43.2038570" lon="-3.0478330">
        <ele>59.3</ele>
        <time>2018-10-21T10:32:39Z</time>
      </trkpt>
      <trkpt lat="43.2039130" lon="-3.0477750">
        <ele>59.3</ele>
        <time>2018-10-21T10:32:40Z</time>
      </trkpt>
      <trkpt lat="43.2039700" lon="-3.0477200">
        <ele>59.3</ele>
        <time>2018-10-21T10:32:41Z</time>
      </trkpt>
      <trkpt lat="43.2040230" lon="-3.0476670">
        <ele>59.3</ele>
        <time>2018-10-21T10:32:42Z</time>
      </trkpt>
      <trkpt lat="43.2040750" lon="-3.0476120">
        <ele>59.3</ele>
        <time>2018-10-21T10:32:43Z</time>
      </trkpt>
      <trkpt lat="43.2041270" lon="-3.0475530">
        <ele>59.3</ele>
        <time>2018-10-21T10:32:44Z</time>
      </trkpt>
      <trkpt lat="43.2041830" lon="-3.0474950">
        <ele>58.2</ele>
        <time>2018-10-21T10:32:45Z</time>
      </trkpt>
      <trkpt lat="43.2042430" lon="-3.0474370">
        <ele>58.2</ele>
        <time>2018-10-21T10:32:46Z</time>
      </trkpt>
      <trkpt lat="43.2043050" lon="-3.0473770">
        <ele>57.3</ele>
        <time>2018-10-21T10:32:47Z</time>
      </trkpt>
      <trkpt lat="43.2043700" lon="-3.0473180">
        <ele>57.3</ele>
        <time>2018-10-21T10:32:48Z</time>
      </trkpt>
      <trkpt lat="43.2044300" lon="-3.0472630">
        <ele>57.3</ele>
        <time>2018-10-21T10:32:49Z</time>
      </trkpt>
      <trkpt lat="43.2044900" lon="-3.0472150">
        <ele>57.3</ele>
        <time>2018-10-21T10:32:50Z</time>
      </trkpt>
      <trkpt lat="43.2045430" lon="-3.0471770">
        <ele>56.2</ele>
        <time>2018-10-21T10:32:51Z</time>
      </trkpt>
      <trkpt lat="43.2045850" lon="-3.0471520">
        <ele>56.2</ele>
        <time>2018-10-21T10:32:52Z</time>
      </trkpt>
      <trkpt lat="43.2046170" lon="-3.0471400">
        <ele>56.2</ele>
        <time>2018-10-21T10:32:53Z</time>
      </trkpt>
      <trkpt lat="43.2046380" lon="-3.0471330">
        <ele>56.2</ele>
        <time>2018-10-21T10:32:54Z</time>
      </trkpt>
      <trkpt lat="43.2046430" lon="-3.0471320">
        <ele>56.2</ele>
        <time>2018-10-21T10:32:55Z</time>
      </trkpt>
      <trkpt lat="43.2046400" lon="-3.0471320">
        <ele>56.2</ele>
        <time>2018-10-21T10:32:56Z</time>
      </trkpt>
      <trkpt lat="43.2046380" lon="-3.0471320">
        <ele>56.2</ele>
        <time>2018-10-21T10:32:57Z</time>
      </trkpt>
      <trkpt lat="43.2046400" lon="-3.0471330">
        <ele>56.2</ele>
        <time>2018-10-21T10:32:58Z</time>
      </trkpt>
      <trkpt lat="43.2046400" lon="-3.0471220">
        <ele>56.2</ele>
        <time>2018-10-21T10:33:32Z</time>
      </trkpt>
      <trkpt lat="43.2046400" lon="-3.0471220">
        <ele>56.2</ele>
        <time>2018-10-21T10:33:33Z</time>
      </trkpt>
      <trkpt lat="43.2046400" lon="-3.0471220">
        <ele>56.2</ele>
        <time>2018-10-21T10:33:34Z</time>
      </trkpt>
      <trkpt lat="43.2046400" lon="-3.0471230">
        <ele>56.2</ele>
        <time>2018-10-21T10:33:35Z</time>
      </trkpt>
      <trkpt lat="43.2046400" lon="-3.0471230">
        <ele>56.2</ele>
        <time>2018-10-21T10:33:36Z</time>
      </trkpt>
      <trkpt lat="43.2046370" lon="-3.0471200">
        <ele>56.2</ele>
        <time>2018-10-21T10:34:39Z</time>
      </trkpt>
      <trkpt lat="43.2046370" lon="-3.0471200">
        <ele>56.2</ele>
        <time>2018-10-21T10:34:40Z</time>
      </trkpt>
      <trkpt lat="43.2046370" lon="-3.0471200">
        <ele>56.2</ele>
        <time>2018-10-21T10:34:41Z</time>
      </trkpt>
      <trkpt lat="43.2046370" lon="-3.0471200">
        <ele>56.2</ele>
        <time>2018-10-21T10:34:42Z</time>
      </trkpt>
      <trkpt lat="43.2046370" lon="-3.0471200">
        <ele>56.2</ele>
        <time>2018-10-21T10:34:43Z</time>
      </trkpt>
      <trkpt lat="43.2046370" lon="-3.0471200">
        <ele>56.2</ele>
        <time>2018-10-21T10:34:44Z</time>
      </trkpt>
      <trkpt lat="43.2046370" lon="-3.0471200">
        <ele>56.2</ele>
        <time>2018-10-21T10:34:45Z</time>
      </trkpt>
      <trkpt lat="43.2046370" lon="-3.0471200">
        <ele>56.2</ele>
        <time>2018-10-21T10:34:46Z</time>
      </trkpt>
      <trkpt lat="43.2046370" lon="-3.0471200">
        <ele>56.2</ele>
        <time>2018-10-21T10:34:47Z</time>
      </trkpt>
      <trkpt lat="43.2046370" lon="-3.0471200">
        <ele>56.2</ele>
        <time>2018-10-21T10:34:48Z</time>
      </trkpt>
      <trkpt lat="43.2046370" lon="-3.0471200">
        <ele>56.2</ele>
        <time>2018-10-21T10:34:49Z</time>
      </trkpt>
      <trkpt lat="43.2046370" lon="-3.0471200">
        <ele>56.2</ele>
        <time>2018-10-21T10:34:50Z</time>
      </trkpt>
      <trkpt lat="43.2046370" lon="-3.0471200">
        <ele>56.2</ele>
        <time>2018-10-21T10:34:51Z</time>
      </trkpt>
      <trkpt lat="43.2046370" lon="-3.0471200">
        <ele>56.2</ele>
        <time>2018-10-21T10:34:52Z</time>
      </trkpt>
      <trkpt lat="43.2046370" lon="-3.0471200">
        <ele>56.2</ele>
        <time>2018-10-21T10:34:53Z</time>
      </trkpt>
      <trkpt lat="43.2046370" lon="-3.0471200">
        <ele>56.2</ele>
        <time>2018-10-21T10:34:54Z</time>
      </trkpt>
      <trkpt lat="43.2046370" lon="-3.0471200">
        <ele>56.2</ele>
        <time>2018-10-21T10:34:55Z</time>
      </trkpt>
      <trkpt lat="43.2046370" lon="-3.0471200">
        <ele>56.2</ele>
        <time>2018-10-21T10:34:56Z</time>
      </trkpt>
      <trkpt lat="43.2046370" lon="-3.0471200">
        <ele>56.2</ele>
        <time>2018-10-21T10:34:57Z</time>
      </trkpt>
      <trkpt lat="43.2046370" lon="-3.0471200">
        <ele>56.2</ele>
        <time>2018-10-21T10:34:58Z</time>
      </trkpt>
      <trkpt lat="43.2046370" lon="-3.0471200">
        <ele>56.2</ele>
        <time>2018-10-21T10:34:59Z</time>
      </trkpt>
      <trkpt lat="43.2046370" lon="-3.0471200">
        <ele>56.2</ele>
        <time>2018-10-21T10:35:00Z</time>
      </trkpt>
      <trkpt lat="43.2046370" lon="-3.0471200">
        <ele>56.2</ele>
        <time>2018-10-21T10:35:01Z</time>
      </trkpt>
      <trkpt lat="43.2046370" lon="-3.0471200">
        <ele>56.2</ele>
        <time>2018-10-21T10:35:02Z</time>
      </trkpt>
      <trkpt lat="43.2046370" lon="-3.0471200">
        <ele>56.2</ele>
        <time>2018-10-21T10:35:03Z</time>
      </trkpt>
      <trkpt lat="43.2046370" lon="-3.0471200">
        <ele>56.2</ele>
        <time>2018-10-21T10:35:04Z</time>
      </trkpt>
      <trkpt lat="43.2046370" lon="-3.0471200">
        <ele>56.2</ele>
        <time>2018-10-21T10:35:05Z</time>
      </trkpt>
      <trkpt lat="43.2046370" lon="-3.0471200">
        <ele>56.2</ele>
        <time>2018-10-21T10:35:06Z</time>
      </trkpt>
      <trkpt lat="43.2046370" lon="-3.0471200">
        <ele>56.2</ele>
        <time>2018-10-21T10:35:07Z</time>
      </trkpt>
      <trkpt lat="43.2046370" lon="-3.0471200">
        <ele>56.2</ele>
        <time>2018-10-21T10:35:08Z</time>
      </trkpt>
      <trkpt lat="43.2046370" lon="-3.0471200">
        <ele>56.2</ele>
        <time>2018-10-21T10:35:09Z</time>
      </trkpt>
      <trkpt lat="43.2046370" lon="-3.0471200">
        <ele>56.2</ele>
        <time>2018-10-21T10:35:10Z</time>
      </trkpt>
      <trkpt lat="43.2046370" lon="-3.0471200">
        <ele>56.2</ele>
        <time>2018-10-21T10:35:11Z</time>
      </trkpt>
      <trkpt lat="43.2046370" lon="-3.0471200">
        <ele>56.2</ele>
        <time>2018-10-21T10:35:12Z</time>
      </trkpt>
      <trkpt lat="43.2046370" lon="-3.0471200">
        <ele>56.2</ele>
        <time>2018-10-21T10:35:13Z</time>
      </trkpt>
      <trkpt lat="43.2046370" lon="-3.0471200">
        <ele>56.2</ele>
        <time>2018-10-21T10:35:14Z</time>
      </trkpt>
      <trkpt lat="43.2046370" lon="-3.0471200">
        <ele>56.2</ele>
        <time>2018-10-21T10:35:15Z</time>
      </trkpt>
      <trkpt lat="43.2046370" lon="-3.0471200">
        <ele>56.2</ele>
        <time>2018-10-21T10:35:16Z</time>
      </trkpt>
      <trkpt lat="43.2046370" lon="-3.0471200">
        <ele>56.2</ele>
        <time>2018-10-21T10:35:17Z</time>
      </trkpt>
      <trkpt lat="43.2046370" lon="-3.0471200">
        <ele>56.2</ele>
        <time>2018-10-21T10:35:18Z</time>
      </trkpt>
      <trkpt lat="43.2046370" lon="-3.0471200">
        <ele>56.2</ele>
        <time>2018-10-21T10:35:19Z</time>
      </trkpt>
      <trkpt lat="43.2046370" lon="-3.0471200">
        <ele>56.2</ele>
        <time>2018-10-21T10:35:20Z</time>
      </trkpt>
      <trkpt lat="43.2046370" lon="-3.0471200">
        <ele>56.2</ele>
        <time>2018-10-21T10:35:21Z</time>
      </trkpt>
      <trkpt lat="43.2046370" lon="-3.0471200">
        <ele>56.2</ele>
        <time>2018-10-21T10:35:22Z</time>
      </trkpt>
      <trkpt lat="43.2046370" lon="-3.0471200">
        <ele>56.2</ele>
        <time>2018-10-21T10:35:23Z</time>
      </trkpt>
      <trkpt lat="43.2046370" lon="-3.0471200">
        <ele>56.2</ele>
        <time>2018-10-21T10:35:24Z</time>
      </trkpt>
      <trkpt lat="43.2046370" lon="-3.0471200">
        <ele>56.2</ele>
        <time>2018-10-21T10:35:25Z</time>
      </trkpt>
      <trkpt lat="43.2046370" lon="-3.0471200">
        <ele>56.2</ele>
        <time>2018-10-21T10:35:26Z</time>
      </trkpt>
      <trkpt lat="43.2046370" lon="-3.0471200">
        <ele>56.2</ele>
        <time>2018-10-21T10:35:27Z</time>
      </trkpt>
      <trkpt lat="43.2046370" lon="-3.0471200">
        <ele>56.2</ele>
        <time>2018-10-21T10:35:28Z</time>
      </trkpt>
      <trkpt lat="43.2046370" lon="-3.0471200">
        <ele>56.2</ele>
        <time>2018-10-21T10:35:29Z</time>
      </trkpt>
      <trkpt lat="43.2046370" lon="-3.0471200">
        <ele>56.2</ele>
        <time>2018-10-21T10:35:30Z</time>
      </trkpt>
      <trkpt lat="43.2046370" lon="-3.0471200">
        <ele>56.2</ele>
        <time>2018-10-21T10:35:31Z</time>
      </trkpt>
      <trkpt lat="43.2046370" lon="-3.0471200">
        <ele>56.2</ele>
        <time>2018-10-21T10:35:32Z</time>
      </trkpt>
      <trkpt lat="43.2046370" lon="-3.0471200">
        <ele>56.2</ele>
        <time>2018-10-21T10:35:33Z</time>
      </trkpt>
      <trkpt lat="43.2046370" lon="-3.0471200">
        <ele>56.2</ele>
        <time>2018-10-21T10:35:34Z</time>
      </trkpt>
      <trkpt lat="43.2046370" lon="-3.0471200">
        <ele>56.2</ele>
        <time>2018-10-21T10:35:35Z</time>
      </trkpt>
      <trkpt lat="43.2046370" lon="-3.0471200">
        <ele>56.2</ele>
        <time>2018-10-21T10:35:36Z</time>
      </trkpt>
      <trkpt lat="43.2046370" lon="-3.0471200">
        <ele>56.2</ele>
        <time>2018-10-21T10:35:37Z</time>
      </trkpt>
      <trkpt lat="43.2046370" lon="-3.0471200">
        <ele>56.2</ele>
        <time>2018-10-21T10:35:38Z</time>
      </trkpt>
      <trkpt lat="43.2046370" lon="-3.0471200">
        <ele>56.2</ele>
        <time>2018-10-21T10:35:39Z</time>
      </trkpt>
      <trkpt lat="43.2046370" lon="-3.0471200">
        <ele>56.2</ele>
        <time>2018-10-21T10:35:40Z</time>
      </trkpt>
      <trkpt lat="43.2046370" lon="-3.0471200">
        <ele>56.2</ele>
        <time>2018-10-21T10:35:41Z</time>
      </trkpt>
      <trkpt lat="43.2046370" lon="-3.0471200">
        <ele>56.2</ele>
        <time>2018-10-21T10:35:42Z</time>
      </trkpt>
      <trkpt lat="43.2046370" lon="-3.0471200">
        <ele>56.2</ele>
        <time>2018-10-21T10:35:43Z</time>
      </trkpt>
      <trkpt lat="43.2046370" lon="-3.0471200">
        <ele>56.2</ele>
        <time>2018-10-21T10:35:44Z</time>
      </trkpt>
      <trkpt lat="43.2046370" lon="-3.0471200">
        <ele>56.2</ele>
        <time>2018-10-21T10:35:45Z</time>
      </trkpt>
      <trkpt lat="43.2046370" lon="-3.0471200">
        <ele>56.2</ele>
        <time>2018-10-21T10:35:46Z</time>
      </trkpt>
      <trkpt lat="43.2046370" lon="-3.0471200">
        <ele>56.2</ele>
        <time>2018-10-21T10:35:47Z</time>
      </trkpt>
      <trkpt lat="43.2046370" lon="-3.0471200">
        <ele>56.2</ele>
        <time>2018-10-21T10:35:48Z</time>
      </trkpt>
      <trkpt lat="43.2046370" lon="-3.0471200">
        <ele>56.2</ele>
        <time>2018-10-21T10:35:49Z</time>
      </trkpt>
      <trkpt lat="43.2046370" lon="-3.0471200">
        <ele>56.2</ele>
        <time>2018-10-21T10:35:50Z</time>
      </trkpt>
      <trkpt lat="43.2046370" lon="-3.0471200">
        <ele>56.2</ele>
        <time>2018-10-21T10:35:51Z</time>
      </trkpt>
      <trkpt lat="43.2046370" lon="-3.0471200">
        <ele>56.2</ele>
        <time>2018-10-21T10:35:52Z</time>
      </trkpt>
      <trkpt lat="43.2046370" lon="-3.0471200">
        <ele>57.3</ele>
        <time>2018-10-21T10:35:53Z</time>
      </trkpt>
      <trkpt lat="43.2046370" lon="-3.0471200">
        <ele>57.3</ele>
        <time>2018-10-21T10:35:54Z</time>
      </trkpt>
      <trkpt lat="43.2046370" lon="-3.0471200">
        <ele>57.3</ele>
        <time>2018-10-21T10:35:55Z</time>
      </trkpt>
      <trkpt lat="43.2046370" lon="-3.0471200">
        <ele>57.3</ele>
        <time>2018-10-21T10:35:56Z</time>
      </trkpt>
      <trkpt lat="43.2046370" lon="-3.0471200">
        <ele>57.3</ele>
        <time>2018-10-21T10:35:57Z</time>
      </trkpt>
      <trkpt lat="43.2046370" lon="-3.0471200">
        <ele>57.3</ele>
        <time>2018-10-21T10:35:58Z</time>
      </trkpt>
      <trkpt lat="43.2046370" lon="-3.0471200">
        <ele>57.3</ele>
        <time>2018-10-21T10:35:59Z</time>
      </trkpt>
      <trkpt lat="43.2046370" lon="-3.0471200">
        <ele>57.3</ele>
        <time>2018-10-21T10:36:00Z</time>
      </trkpt>
      <trkpt lat="43.2046370" lon="-3.0471200">
        <ele>57.3</ele>
        <time>2018-10-21T10:36:01Z</time>
      </trkpt>
      <trkpt lat="43.2046370" lon="-3.0471200">
        <ele>57.3</ele>
        <time>2018-10-21T10:36:02Z</time>
      </trkpt>
      <trkpt lat="43.2046370" lon="-3.0471200">
        <ele>57.3</ele>
        <time>2018-10-21T10:36:03Z</time>
      </trkpt>
      <trkpt lat="43.2046370" lon="-3.0471200">
        <ele>57.3</ele>
        <time>2018-10-21T10:36:04Z</time>
      </trkpt>
      <trkpt lat="43.2046370" lon="-3.0471200">
        <ele>57.3</ele>
        <time>2018-10-21T10:36:05Z</time>
      </trkpt>
      <trkpt lat="43.2046370" lon="-3.0471200">
        <ele>57.3</ele>
        <time>2018-10-21T10:36:06Z</time>
      </trkpt>
      <trkpt lat="43.2046370" lon="-3.0471200">
        <ele>57.3</ele>
        <time>2018-10-21T10:36:07Z</time>
      </trkpt>
      <trkpt lat="43.2046370" lon="-3.0471200">
        <ele>57.3</ele>
        <time>2018-10-21T10:36:08Z</time>
      </trkpt>
      <trkpt lat="43.2046370" lon="-3.0471200">
        <ele>57.3</ele>
        <time>2018-10-21T10:36:09Z</time>
      </trkpt>
      <trkpt lat="43.2046370" lon="-3.0471200">
        <ele>57.3</ele>
        <time>2018-10-21T10:36:10Z</time>
      </trkpt>
      <trkpt lat="43.2046370" lon="-3.0471200">
        <ele>57.3</ele>
        <time>2018-10-21T10:36:11Z</time>
      </trkpt>
      <trkpt lat="43.2046370" lon="-3.0471200">
        <ele>57.3</ele>
        <time>2018-10-21T10:36:12Z</time>
      </trkpt>
      <trkpt lat="43.2046370" lon="-3.0471200">
        <ele>57.3</ele>
        <time>2018-10-21T10:36:13Z</time>
      </trkpt>
      <trkpt lat="43.2046370" lon="-3.0471200">
        <ele>57.3</ele>
        <time>2018-10-21T10:36:14Z</time>
      </trkpt>
      <trkpt lat="43.2046370" lon="-3.0471200">
        <ele>57.3</ele>
        <time>2018-10-21T10:36:15Z</time>
      </trkpt>
      <trkpt lat="43.2046370" lon="-3.0471200">
        <ele>57.3</ele>
        <time>2018-10-21T10:36:16Z</time>
      </trkpt>
      <trkpt lat="43.2046370" lon="-3.0471200">
        <ele>57.3</ele>
        <time>2018-10-21T10:36:17Z</time>
      </trkpt>
      <trkpt lat="43.2046370" lon="-3.0471200">
        <ele>57.3</ele>
        <time>2018-10-21T10:36:18Z</time>
      </trkpt>
      <trkpt lat="43.2046370" lon="-3.0471200">
        <ele>57.3</ele>
        <time>2018-10-21T10:36:19Z</time>
      </trkpt>
      <trkpt lat="43.2046370" lon="-3.0471200">
        <ele>57.3</ele>
        <time>2018-10-21T10:36:20Z</time>
      </trkpt>
      <trkpt lat="43.2046370" lon="-3.0471200">
        <ele>57.3</ele>
        <time>2018-10-21T10:36:21Z</time>
      </trkpt>
      <trkpt lat="43.2046370" lon="-3.0471200">
        <ele>57.3</ele>
        <time>2018-10-21T10:36:22Z</time>
      </trkpt>
      <trkpt lat="43.2046370" lon="-3.0471200">
        <ele>57.3</ele>
        <time>2018-10-21T10:36:23Z</time>
      </trkpt>
      <trkpt lat="43.2046370" lon="-3.0471200">
        <ele>57.3</ele>
        <time>2018-10-21T10:36:24Z</time>
      </trkpt>
      <trkpt lat="43.2046370" lon="-3.0471200">
        <ele>57.3</ele>
        <time>2018-10-21T10:36:25Z</time>
      </trkpt>
      <trkpt lat="43.2046370" lon="-3.0471200">
        <ele>57.3</ele>
        <time>2018-10-21T10:36:26Z</time>
      </trkpt>
      <trkpt lat="43.2046370" lon="-3.0471200">
        <ele>57.3</ele>
        <time>2018-10-21T10:36:27Z</time>
      </trkpt>
      <trkpt lat="43.2046370" lon="-3.0471200">
        <ele>57.3</ele>
        <time>2018-10-21T10:36:28Z</time>
      </trkpt>
      <trkpt lat="43.2046370" lon="-3.0471200">
        <ele>57.3</ele>
        <time>2018-10-21T10:36:29Z</time>
      </trkpt>
      <trkpt lat="43.2046370" lon="-3.0471200">
        <ele>57.3</ele>
        <time>2018-10-21T10:36:30Z</time>
      </trkpt>
      <trkpt lat="43.2046370" lon="-3.0471200">
        <ele>57.3</ele>
        <time>2018-10-21T10:36:31Z</time>
      </trkpt>
      <trkpt lat="43.2046370" lon="-3.0471200">
        <ele>57.3</ele>
        <time>2018-10-21T10:36:32Z</time>
      </trkpt>
      <trkpt lat="43.2046370" lon="-3.0471200">
        <ele>57.3</ele>
        <time>2018-10-21T10:36:33Z</time>
      </trkpt>
      <trkpt lat="43.2046370" lon="-3.0471200">
        <ele>57.3</ele>
        <time>2018-10-21T10:36:34Z</time>
      </trkpt>
      <trkpt lat="43.2046370" lon="-3.0471200">
        <ele>57.3</ele>
        <time>2018-10-21T10:36:35Z</time>
      </trkpt>
      <trkpt lat="43.2046370" lon="-3.0471200">
        <ele>57.3</ele>
        <time>2018-10-21T10:36:36Z</time>
      </trkpt>
      <trkpt lat="43.2046370" lon="-3.0471200">
        <ele>57.3</ele>
        <time>2018-10-21T10:36:37Z</time>
      </trkpt>
      <trkpt lat="43.2046370" lon="-3.0471200">
        <ele>57.3</ele>
        <time>2018-10-21T10:36:38Z</time>
      </trkpt>
      <trkpt lat="43.2046370" lon="-3.0471200">
        <ele>57.3</ele>
        <time>2018-10-21T10:36:39Z</time>
      </trkpt>
      <trkpt lat="43.2046370" lon="-3.0471200">
        <ele>57.3</ele>
        <time>2018-10-21T10:36:40Z</time>
      </trkpt>
      <trkpt lat="43.2046370" lon="-3.0471200">
        <ele>57.3</ele>
        <time>2018-10-21T10:36:41Z</time>
      </trkpt>
      <trkpt lat="43.2046370" lon="-3.0471200">
        <ele>57.3</ele>
        <time>2018-10-21T10:36:42Z</time>
      </trkpt>
      <trkpt lat="43.2046370" lon="-3.0471200">
        <ele>57.3</ele>
        <time>2018-10-21T10:36:43Z</time>
      </trkpt>
      <trkpt lat="43.2046370" lon="-3.0471200">
        <ele>57.3</ele>
        <time>2018-10-21T10:36:44Z</time>
      </trkpt>
      <trkpt lat="43.2046370" lon="-3.0471200">
        <ele>57.3</ele>
        <time>2018-10-21T10:36:45Z</time>
      </trkpt>
      <trkpt lat="43.2046370" lon="-3.0471200">
        <ele>57.3</ele>
        <time>2018-10-21T10:36:46Z</time>
      </trkpt>
      <trkpt lat="43.2046370" lon="-3.0471200">
        <ele>57.3</ele>
        <time>2018-10-21T10:36:47Z</time>
      </trkpt>
      <trkpt lat="43.2046370" lon="-3.0471200">
        <ele>57.3</ele>
        <time>2018-10-21T10:36:48Z</time>
      </trkpt>
      <trkpt lat="43.2046370" lon="-3.0471200">
        <ele>57.3</ele>
        <time>2018-10-21T10:36:49Z</time>
      </trkpt>
      <trkpt lat="43.2046370" lon="-3.0471200">
        <ele>57.3</ele>
        <time>2018-10-21T10:36:50Z</time>
      </trkpt>
      <trkpt lat="43.2046370" lon="-3.0471200">
        <ele>57.3</ele>
        <time>2018-10-21T10:36:51Z</time>
      </trkpt>
      <trkpt lat="43.2046370" lon="-3.0471200">
        <ele>57.3</ele>
        <time>2018-10-21T10:36:52Z</time>
      </trkpt>
      <trkpt lat="43.2046370" lon="-3.0471200">
        <ele>57.3</ele>
        <time>2018-10-21T10:36:53Z</time>
      </trkpt>
      <trkpt lat="43.2046370" lon="-3.0471200">
        <ele>57.3</ele>
        <time>2018-10-21T10:36:54Z</time>
      </trkpt>
      <trkpt lat="43.2046370" lon="-3.0471200">
        <ele>57.3</ele>
        <time>2018-10-21T10:36:55Z</time>
      </trkpt>
      <trkpt lat="43.2046370" lon="-3.0471200">
        <ele>57.3</ele>
        <time>2018-10-21T10:36:56Z</time>
      </trkpt>
      <trkpt lat="43.2046370" lon="-3.0471200">
        <ele>57.3</ele>
        <time>2018-10-21T10:36:57Z</time>
      </trkpt>
      <trkpt lat="43.2046370" lon="-3.0471200">
        <ele>57.3</ele>
        <time>2018-10-21T10:36:58Z</time>
      </trkpt>
      <trkpt lat="43.2046370" lon="-3.0471200">
        <ele>57.3</ele>
        <time>2018-10-21T10:36:59Z</time>
      </trkpt>
      <trkpt lat="43.2046370" lon="-3.0471200">
        <ele>57.3</ele>
        <time>2018-10-21T10:37:00Z</time>
      </trkpt>
      <trkpt lat="43.2046370" lon="-3.0471200">
        <ele>57.3</ele>
        <time>2018-10-21T10:37:01Z</time>
      </trkpt>
      <trkpt lat="43.2046370" lon="-3.0471200">
        <ele>57.3</ele>
        <time>2018-10-21T10:37:02Z</time>
      </trkpt>
      <trkpt lat="43.2046370" lon="-3.0471200">
        <ele>57.3</ele>
        <time>2018-10-21T10:37:03Z</time>
      </trkpt>
      <trkpt lat="43.2046370" lon="-3.0471200">
        <ele>57.3</ele>
        <time>2018-10-21T10:37:04Z</time>
      </trkpt>
      <trkpt lat="43.2046370" lon="-3.0471200">
        <ele>57.3</ele>
        <time>2018-10-21T10:37:05Z</time>
      </trkpt>
      <trkpt lat="43.2046370" lon="-3.0471200">
        <ele>57.3</ele>
        <time>2018-10-21T10:37:06Z</time>
      </trkpt>
      <trkpt lat="43.2046370" lon="-3.0471200">
        <ele>57.3</ele>
        <time>2018-10-21T10:37:07Z</time>
      </trkpt>
      <trkpt lat="43.2046370" lon="-3.0471200">
        <ele>57.3</ele>
        <time>2018-10-21T10:37:08Z</time>
      </trkpt>
      <trkpt lat="43.2046370" lon="-3.0471200">
        <ele>57.3</ele>
        <time>2018-10-21T10:37:09Z</time>
      </trkpt>
      <trkpt lat="43.2046370" lon="-3.0471200">
        <ele>57.3</ele>
        <time>2018-10-21T10:37:10Z</time>
      </trkpt>
      <trkpt lat="43.2046370" lon="-3.0471200">
        <ele>57.3</ele>
        <time>2018-10-21T10:37:11Z</time>
      </trkpt>
      <trkpt lat="43.2046370" lon="-3.0471200">
        <ele>57.3</ele>
        <time>2018-10-21T10:37:12Z</time>
      </trkpt>
      <trkpt lat="43.2046370" lon="-3.0471200">
        <ele>57.3</ele>
        <time>2018-10-21T10:37:13Z</time>
      </trkpt>
      <trkpt lat="43.2046370" lon="-3.0471200">
        <ele>57.3</ele>
        <time>2018-10-21T10:37:14Z</time>
      </trkpt>
      <trkpt lat="43.2046370" lon="-3.0471200">
        <ele>57.3</ele>
        <time>2018-10-21T10:37:15Z</time>
      </trkpt>
      <trkpt lat="43.2046370" lon="-3.0471200">
        <ele>57.3</ele>
        <time>2018-10-21T10:37:16Z</time>
      </trkpt>
      <trkpt lat="43.2046370" lon="-3.0471200">
        <ele>57.3</ele>
        <time>2018-10-21T10:37:17Z</time>
      </trkpt>
      <trkpt lat="43.2046370" lon="-3.0471200">
        <ele>57.3</ele>
        <time>2018-10-21T10:37:18Z</time>
      </trkpt>
      <trkpt lat="43.2046370" lon="-3.0471200">
        <ele>57.3</ele>
        <time>2018-10-21T10:37:19Z</time>
      </trkpt>
      <trkpt lat="43.2046370" lon="-3.0471200">
        <ele>57.3</ele>
        <time>2018-10-21T10:37:20Z</time>
      </trkpt>
      <trkpt lat="43.2046370" lon="-3.0471200">
        <ele>57.3</ele>
        <time>2018-10-21T10:37:21Z</time>
      </trkpt>
      <trkpt lat="43.2046370" lon="-3.0471200">
        <ele>57.3</ele>
        <time>2018-10-21T10:37:22Z</time>
      </trkpt>
      <trkpt lat="43.2046370" lon="-3.0471200">
        <ele>57.3</ele>
        <time>2018-10-21T10:37:23Z</time>
      </trkpt>
      <trkpt lat="43.2046370" lon="-3.0471200">
        <ele>57.3</ele>
        <time>2018-10-21T10:37:24Z</time>
      </trkpt>
      <trkpt lat="43.2046370" lon="-3.0471200">
        <ele>57.3</ele>
        <time>2018-10-21T10:37:25Z</time>
      </trkpt>
      <trkpt lat="43.2046370" lon="-3.0471200">
        <ele>57.3</ele>
        <time>2018-10-21T10:37:26Z</time>
      </trkpt>
      <trkpt lat="43.2046370" lon="-3.0471200">
        <ele>57.3</ele>
        <time>2018-10-21T10:37:27Z</time>
      </trkpt>
      <trkpt lat="43.2046370" lon="-3.0471200">
        <ele>57.3</ele>
        <time>2018-10-21T10:37:28Z</time>
      </trkpt>
      <trkpt lat="43.2046370" lon="-3.0471200">
        <ele>57.3</ele>
        <time>2018-10-21T10:37:29Z</time>
      </trkpt>
      <trkpt lat="43.2046370" lon="-3.0471200">
        <ele>57.3</ele>
        <time>2018-10-21T10:37:30Z</time>
      </trkpt>
      <trkpt lat="43.2046370" lon="-3.0471200">
        <ele>57.3</ele>
        <time>2018-10-21T10:37:31Z</time>
      </trkpt>
      <trkpt lat="43.2046370" lon="-3.0471200">
        <ele>57.3</ele>
        <time>2018-10-21T10:37:32Z</time>
      </trkpt>
      <trkpt lat="43.2046370" lon="-3.0471200">
        <ele>57.3</ele>
        <time>2018-10-21T10:37:33Z</time>
      </trkpt>
      <trkpt lat="43.2046370" lon="-3.0471200">
        <ele>57.3</ele>
        <time>2018-10-21T10:37:34Z</time>
      </trkpt>
      <trkpt lat="43.2046370" lon="-3.0471200">
        <ele>57.3</ele>
        <time>2018-10-21T10:37:35Z</time>
      </trkpt>
      <trkpt lat="43.2046370" lon="-3.0471200">
        <ele>57.3</ele>
        <time>2018-10-21T10:37:36Z</time>
      </trkpt>
      <trkpt lat="43.2046370" lon="-3.0471200">
        <ele>57.3</ele>
        <time>2018-10-21T10:37:37Z</time>
      </trkpt>
      <trkpt lat="43.2046370" lon="-3.0471200">
        <ele>57.3</ele>
        <time>2018-10-21T10:37:38Z</time>
      </trkpt>
      <trkpt lat="43.2046370" lon="-3.0471200">
        <ele>57.3</ele>
        <time>2018-10-21T10:37:39Z</time>
      </trkpt>
      <trkpt lat="43.2046370" lon="-3.0471200">
        <ele>57.3</ele>
        <time>2018-10-21T10:37:40Z</time>
      </trkpt>
      <trkpt lat="43.2046370" lon="-3.0471200">
        <ele>57.3</ele>
        <time>2018-10-21T10:37:41Z</time>
      </trkpt>
      <trkpt lat="43.2046370" lon="-3.0471200">
        <ele>57.3</ele>
        <time>2018-10-21T10:37:42Z</time>
      </trkpt>
      <trkpt lat="43.2046370" lon="-3.0471200">
        <ele>57.3</ele>
        <time>2018-10-21T10:37:43Z</time>
      </trkpt>
      <trkpt lat="43.2046370" lon="-3.0471200">
        <ele>57.3</ele>
        <time>2018-10-21T10:37:44Z</time>
      </trkpt>
      <trkpt lat="43.2046370" lon="-3.0471200">
        <ele>57.3</ele>
        <time>2018-10-21T10:37:45Z</time>
      </trkpt>
      <trkpt lat="43.2046370" lon="-3.0471200">
        <ele>57.3</ele>
        <time>2018-10-21T10:37:46Z</time>
      </trkpt>
      <trkpt lat="43.2046370" lon="-3.0471200">
        <ele>57.3</ele>
        <time>2018-10-21T10:37:47Z</time>
      </trkpt>
      <trkpt lat="43.2046370" lon="-3.0471200">
        <ele>57.3</ele>
        <time>2018-10-21T10:37:48Z</time>
      </trkpt>
      <trkpt lat="43.2046370" lon="-3.0471200">
        <ele>58.2</ele>
        <time>2018-10-21T10:37:49Z</time>
      </trkpt>
      <trkpt lat="43.2046370" lon="-3.0471200">
        <ele>58.2</ele>
        <time>2018-10-21T10:37:50Z</time>
      </trkpt>
      <trkpt lat="43.2046370" lon="-3.0471200">
        <ele>58.2</ele>
        <time>2018-10-21T10:37:51Z</time>
      </trkpt>
      <trkpt lat="43.2046370" lon="-3.0471200">
        <ele>58.2</ele>
        <time>2018-10-21T10:37:52Z</time>
      </trkpt>
      <trkpt lat="43.2046370" lon="-3.0471200">
        <ele>58.2</ele>
        <time>2018-10-21T10:37:53Z</time>
      </trkpt>
      <trkpt lat="43.2046370" lon="-3.0471200">
        <ele>58.2</ele>
        <time>2018-10-21T10:37:54Z</time>
      </trkpt>
      <trkpt lat="43.2046370" lon="-3.0471200">
        <ele>58.2</ele>
        <time>2018-10-21T10:37:55Z</time>
      </trkpt>
      <trkpt lat="43.2046370" lon="-3.0471200">
        <ele>58.2</ele>
        <time>2018-10-21T10:37:56Z</time>
      </trkpt>
      <trkpt lat="43.2046370" lon="-3.0471200">
        <ele>58.2</ele>
        <time>2018-10-21T10:37:57Z</time>
      </trkpt>
      <trkpt lat="43.2046370" lon="-3.0471200">
        <ele>58.2</ele>
        <time>2018-10-21T10:37:58Z</time>
      </trkpt>
      <trkpt lat="43.2046370" lon="-3.0471200">
        <ele>58.2</ele>
        <time>2018-10-21T10:37:59Z</time>
      </trkpt>
      <trkpt lat="43.2046370" lon="-3.0471200">
        <ele>58.2</ele>
        <time>2018-10-21T10:38:00Z</time>
      </trkpt>
      <trkpt lat="43.2046370" lon="-3.0471200">
        <ele>58.2</ele>
        <time>2018-10-21T10:38:01Z</time>
      </trkpt>
      <trkpt lat="43.2046370" lon="-3.0471200">
        <ele>58.2</ele>
        <time>2018-10-21T10:38:02Z</time>
      </trkpt>
      <trkpt lat="43.2046370" lon="-3.0471200">
        <ele>58.2</ele>
        <time>2018-10-21T10:38:03Z</time>
      </trkpt>
      <trkpt lat="43.2046370" lon="-3.0471200">
        <ele>58.2</ele>
        <time>2018-10-21T10:38:04Z</time>
      </trkpt>
      <trkpt lat="43.2046370" lon="-3.0471200">
        <ele>58.2</ele>
        <time>2018-10-21T10:38:05Z</time>
      </trkpt>
      <trkpt lat="43.2046370" lon="-3.0471200">
        <ele>58.2</ele>
        <time>2018-10-21T10:38:06Z</time>
      </trkpt>
      <trkpt lat="43.2046370" lon="-3.0471200">
        <ele>58.2</ele>
        <time>2018-10-21T10:38:07Z</time>
      </trkpt>
      <trkpt lat="43.2046370" lon="-3.0471200">
        <ele>58.2</ele>
        <time>2018-10-21T10:38:08Z</time>
      </trkpt>
      <trkpt lat="43.2046370" lon="-3.0471200">
        <ele>58.2</ele>
        <time>2018-10-21T10:38:09Z</time>
      </trkpt>
      <trkpt lat="43.2046370" lon="-3.0471200">
        <ele>58.2</ele>
        <time>2018-10-21T10:38:10Z</time>
      </trkpt>
      <trkpt lat="43.2046370" lon="-3.0471200">
        <ele>58.2</ele>
        <time>2018-10-21T10:38:11Z</time>
      </trkpt>
      <trkpt lat="43.2046370" lon="-3.0471200">
        <ele>58.2</ele>
        <time>2018-10-21T10:38:12Z</time>
      </trkpt>
      <trkpt lat="43.2046370" lon="-3.0471200">
        <ele>58.2</ele>
        <time>2018-10-21T10:38:13Z</time>
      </trkpt>
      <trkpt lat="43.2046370" lon="-3.0471200">
        <ele>58.2</ele>
        <time>2018-10-21T10:38:14Z</time>
      </trkpt>
      <trkpt lat="43.2046370" lon="-3.0471200">
        <ele>58.2</ele>
        <time>2018-10-21T10:38:15Z</time>
      </trkpt>
      <trkpt lat="43.2046370" lon="-3.0471200">
        <ele>58.2</ele>
        <time>2018-10-21T10:38:16Z</time>
      </trkpt>
      <trkpt lat="43.2046370" lon="-3.0471200">
        <ele>58.2</ele>
        <time>2018-10-21T10:38:17Z</time>
      </trkpt>
      <trkpt lat="43.2046370" lon="-3.0471200">
        <ele>58.2</ele>
        <time>2018-10-21T10:38:18Z</time>
      </trkpt>
      <trkpt lat="43.2046370" lon="-3.0471200">
        <ele>58.2</ele>
        <time>2018-10-21T10:38:19Z</time>
      </trkpt>
      <trkpt lat="43.2046370" lon="-3.0471200">
        <ele>58.2</ele>
        <time>2018-10-21T10:38:20Z</time>
      </trkpt>
      <trkpt lat="43.2046370" lon="-3.0471200">
        <ele>58.2</ele>
        <time>2018-10-21T10:38:21Z</time>
      </trkpt>
      <trkpt lat="43.2046370" lon="-3.0471200">
        <ele>58.2</ele>
        <time>2018-10-21T10:38:22Z</time>
      </trkpt>
      <trkpt lat="43.2046370" lon="-3.0471200">
        <ele>58.2</ele>
        <time>2018-10-21T10:38:23Z</time>
      </trkpt>
      <trkpt lat="43.2046370" lon="-3.0471200">
        <ele>58.2</ele>
        <time>2018-10-21T10:38:24Z</time>
      </trkpt>
      <trkpt lat="43.2046370" lon="-3.0471200">
        <ele>58.2</ele>
        <time>2018-10-21T10:38:25Z</time>
      </trkpt>
      <trkpt lat="43.2046370" lon="-3.0471200">
        <ele>58.2</ele>
        <time>2018-10-21T10:38:26Z</time>
      </trkpt>
      <trkpt lat="43.2046370" lon="-3.0471200">
        <ele>58.2</ele>
        <time>2018-10-21T10:38:27Z</time>
      </trkpt>
      <trkpt lat="43.2046370" lon="-3.0471200">
        <ele>58.2</ele>
        <time>2018-10-21T10:38:28Z</time>
      </trkpt>
      <trkpt lat="43.2046370" lon="-3.0471200">
        <ele>58.2</ele>
        <time>2018-10-21T10:38:29Z</time>
      </trkpt>
      <trkpt lat="43.2046370" lon="-3.0471200">
        <ele>58.2</ele>
        <time>2018-10-21T10:38:30Z</time>
      </trkpt>
      <trkpt lat="43.2046370" lon="-3.0471200">
        <ele>58.2</ele>
        <time>2018-10-21T10:38:31Z</time>
      </trkpt>
      <trkpt lat="43.2046370" lon="-3.0471200">
        <ele>58.2</ele>
        <time>2018-10-21T10:38:32Z</time>
      </trkpt>
      <trkpt lat="43.2046370" lon="-3.0471200">
        <ele>58.2</ele>
        <time>2018-10-21T10:38:33Z</time>
      </trkpt>
      <trkpt lat="43.2046370" lon="-3.0471200">
        <ele>58.2</ele>
        <time>2018-10-21T10:38:34Z</time>
      </trkpt>
      <trkpt lat="43.2046370" lon="-3.0471200">
        <ele>58.2</ele>
        <time>2018-10-21T10:38:35Z</time>
      </trkpt>
      <trkpt lat="43.2046370" lon="-3.0471200">
        <ele>58.2</ele>
        <time>2018-10-21T10:38:36Z</time>
      </trkpt>
      <trkpt lat="43.2046370" lon="-3.0471200">
        <ele>58.2</ele>
        <time>2018-10-21T10:38:37Z</time>
      </trkpt>
      <trkpt lat="43.2046370" lon="-3.0471200">
        <ele>58.2</ele>
        <time>2018-10-21T10:38:38Z</time>
      </trkpt>
      <trkpt lat="43.2046370" lon="-3.0471200">
        <ele>58.2</ele>
        <time>2018-10-21T10:38:39Z</time>
      </trkpt>
      <trkpt lat="43.2046370" lon="-3.0471200">
        <ele>58.2</ele>
        <time>2018-10-21T10:38:40Z</time>
      </trkpt>
      <trkpt lat="43.2046370" lon="-3.0471200">
        <ele>58.2</ele>
        <time>2018-10-21T10:38:41Z</time>
      </trkpt>
      <trkpt lat="43.2046370" lon="-3.0471200">
        <ele>58.2</ele>
        <time>2018-10-21T10:38:42Z</time>
      </trkpt>
      <trkpt lat="43.2046370" lon="-3.0471200">
        <ele>58.2</ele>
        <time>2018-10-21T10:38:43Z</time>
      </trkpt>
      <trkpt lat="43.2046370" lon="-3.0471200">
        <ele>58.2</ele>
        <time>2018-10-21T10:38:44Z</time>
      </trkpt>
      <trkpt lat="43.2046370" lon="-3.0471200">
        <ele>58.2</ele>
        <time>2018-10-21T10:38:45Z</time>
      </trkpt>
      <trkpt lat="43.2046370" lon="-3.0471200">
        <ele>58.2</ele>
        <time>2018-10-21T10:38:46Z</time>
      </trkpt>
      <trkpt lat="43.2046370" lon="-3.0471200">
        <ele>58.2</ele>
        <time>2018-10-21T10:38:47Z</time>
      </trkpt>
      <trkpt lat="43.2046370" lon="-3.0471200">
        <ele>58.2</ele>
        <time>2018-10-21T10:38:48Z</time>
      </trkpt>
      <trkpt lat="43.2046370" lon="-3.0471200">
        <ele>58.2</ele>
        <time>2018-10-21T10:38:49Z</time>
      </trkpt>
      <trkpt lat="43.2046370" lon="-3.0471200">
        <ele>58.2</ele>
        <time>2018-10-21T10:38:50Z</time>
      </trkpt>
      <trkpt lat="43.2046370" lon="-3.0471200">
        <ele>58.2</ele>
        <time>2018-10-21T10:38:51Z</time>
      </trkpt>
      <trkpt lat="43.2046370" lon="-3.0471200">
        <ele>58.2</ele>
        <time>2018-10-21T10:38:52Z</time>
      </trkpt>
      <trkpt lat="43.2046370" lon="-3.0471200">
        <ele>58.2</ele>
        <time>2018-10-21T10:38:53Z</time>
      </trkpt>
      <trkpt lat="43.2046370" lon="-3.0471200">
        <ele>58.2</ele>
        <time>2018-10-21T10:38:54Z</time>
      </trkpt>
      <trkpt lat="43.2046370" lon="-3.0471200">
        <ele>58.2</ele>
        <time>2018-10-21T10:38:55Z</time>
      </trkpt>
      <trkpt lat="43.2046370" lon="-3.0471200">
        <ele>58.2</ele>
        <time>2018-10-21T10:38:56Z</time>
      </trkpt>
      <trkpt lat="43.2046370" lon="-3.0471200">
        <ele>58.2</ele>
        <time>2018-10-21T10:38:57Z</time>
      </trkpt>
      <trkpt lat="43.2046370" lon="-3.0471200">
        <ele>58.2</ele>
        <time>2018-10-21T10:38:58Z</time>
      </trkpt>
      <trkpt lat="43.2046370" lon="-3.0471200">
        <ele>58.2</ele>
        <time>2018-10-21T10:38:59Z</time>
      </trkpt>
      <trkpt lat="43.2046370" lon="-3.0471200">
        <ele>58.2</ele>
        <time>2018-10-21T10:39:00Z</time>
      </trkpt>
      <trkpt lat="43.2046370" lon="-3.0471200">
        <ele>58.2</ele>
        <time>2018-10-21T10:39:01Z</time>
      </trkpt>
      <trkpt lat="43.2046370" lon="-3.0471200">
        <ele>58.2</ele>
        <time>2018-10-21T10:39:02Z</time>
      </trkpt>
      <trkpt lat="43.2046370" lon="-3.0471200">
        <ele>58.2</ele>
        <time>2018-10-21T10:39:03Z</time>
      </trkpt>
      <trkpt lat="43.2046370" lon="-3.0471200">
        <ele>58.2</ele>
        <time>2018-10-21T10:39:04Z</time>
      </trkpt>
      <trkpt lat="43.2046370" lon="-3.0471200">
        <ele>58.2</ele>
        <time>2018-10-21T10:39:05Z</time>
      </trkpt>
      <trkpt lat="43.2046370" lon="-3.0471200">
        <ele>58.2</ele>
        <time>2018-10-21T10:39:06Z</time>
      </trkpt>
      <trkpt lat="43.2046370" lon="-3.0471200">
        <ele>58.2</ele>
        <time>2018-10-21T10:39:07Z</time>
      </trkpt>
      <trkpt lat="43.2046370" lon="-3.0471200">
        <ele>58.2</ele>
        <time>2018-10-21T10:39:08Z</time>
      </trkpt>
      <trkpt lat="43.2046370" lon="-3.0471200">
        <ele>57.3</ele>
        <time>2018-10-21T10:39:09Z</time>
      </trkpt>
      <trkpt lat="43.2046370" lon="-3.0471200">
        <ele>57.3</ele>
        <time>2018-10-21T10:39:10Z</time>
      </trkpt>
      <trkpt lat="43.2046370" lon="-3.0471200">
        <ele>57.3</ele>
        <time>2018-10-21T10:39:11Z</time>
      </trkpt>
      <trkpt lat="43.2046370" lon="-3.0471200">
        <ele>57.3</ele>
        <time>2018-10-21T10:39:12Z</time>
      </trkpt>
      <trkpt lat="43.2046370" lon="-3.0471200">
        <ele>57.3</ele>
        <time>2018-10-21T10:39:13Z</time>
      </trkpt>
      <trkpt lat="43.2046370" lon="-3.0471200">
        <ele>57.3</ele>
        <time>2018-10-21T10:39:14Z</time>
      </trkpt>
      <trkpt lat="43.2046370" lon="-3.0471200">
        <ele>58.2</ele>
        <time>2018-10-21T10:39:15Z</time>
      </trkpt>
      <trkpt lat="43.2046370" lon="-3.0471200">
        <ele>58.2</ele>
        <time>2018-10-21T10:39:16Z</time>
      </trkpt>
      <trkpt lat="43.2046370" lon="-3.0471200">
        <ele>58.2</ele>
        <time>2018-10-21T10:39:17Z</time>
      </trkpt>
      <trkpt lat="43.2046370" lon="-3.0471200">
        <ele>58.2</ele>
        <time>2018-10-21T10:39:18Z</time>
      </trkpt>
      <trkpt lat="43.2046370" lon="-3.0471200">
        <ele>58.2</ele>
        <time>2018-10-21T10:39:19Z</time>
      </trkpt>
      <trkpt lat="43.2046370" lon="-3.0471200">
        <ele>58.2</ele>
        <time>2018-10-21T10:39:20Z</time>
      </trkpt>
      <trkpt lat="43.2046370" lon="-3.0471200">
        <ele>58.2</ele>
        <time>2018-10-21T10:39:21Z</time>
      </trkpt>
      <trkpt lat="43.2046370" lon="-3.0471200">
        <ele>58.2</ele>
        <time>2018-10-21T10:39:22Z</time>
      </trkpt>
      <trkpt lat="43.2046370" lon="-3.0471200">
        <ele>58.2</ele>
        <time>2018-10-21T10:39:23Z</time>
      </trkpt>
      <trkpt lat="43.2046370" lon="-3.0471200">
        <ele>58.2</ele>
        <time>2018-10-21T10:39:24Z</time>
      </trkpt>
      <trkpt lat="43.2046370" lon="-3.0471200">
        <ele>58.2</ele>
        <time>2018-10-21T10:39:25Z</time>
      </trkpt>
      <trkpt lat="43.2046370" lon="-3.0471200">
        <ele>58.2</ele>
        <time>2018-10-21T10:39:26Z</time>
      </trkpt>
      <trkpt lat="43.2046370" lon="-3.0471200">
        <ele>59.3</ele>
        <time>2018-10-21T10:39:27Z</time>
      </trkpt>
      <trkpt lat="43.2046370" lon="-3.0471200">
        <ele>59.3</ele>
        <time>2018-10-21T10:39:28Z</time>
      </trkpt>
      <trkpt lat="43.2046370" lon="-3.0471200">
        <ele>59.3</ele>
        <time>2018-10-21T10:39:29Z</time>
      </trkpt>
      <trkpt lat="43.2046370" lon="-3.0471200">
        <ele>59.3</ele>
        <time>2018-10-21T10:39:30Z</time>
      </trkpt>
      <trkpt lat="43.2046370" lon="-3.0471200">
        <ele>60.2</ele>
        <time>2018-10-21T10:39:31Z</time>
      </trkpt>
      <trkpt lat="43.2046370" lon="-3.0471200">
        <ele>60.2</ele>
        <time>2018-10-21T10:39:32Z</time>
      </trkpt>
      <trkpt lat="43.2046370" lon="-3.0471200">
        <ele>60.2</ele>
        <time>2018-10-21T10:39:33Z</time>
      </trkpt>
      <trkpt lat="43.2046370" lon="-3.0471200">
        <ele>60.2</ele>
        <time>2018-10-21T10:39:34Z</time>
      </trkpt>
      <trkpt lat="43.2046370" lon="-3.0471200">
        <ele>60.2</ele>
        <time>2018-10-21T10:39:35Z</time>
      </trkpt>
      <trkpt lat="43.2046370" lon="-3.0471200">
        <ele>60.2</ele>
        <time>2018-10-21T10:39:36Z</time>
      </trkpt>
      <trkpt lat="43.2046370" lon="-3.0471200">
        <ele>61.3</ele>
        <time>2018-10-21T10:39:37Z</time>
      </trkpt>
      <trkpt lat="43.2046370" lon="-3.0471200">
        <ele>61.3</ele>
        <time>2018-10-21T10:39:38Z</time>
      </trkpt>
      <trkpt lat="43.2046370" lon="-3.0471200">
        <ele>61.3</ele>
        <time>2018-10-21T10:39:39Z</time>
      </trkpt>
      <trkpt lat="43.2046370" lon="-3.0471200">
        <ele>61.3</ele>
        <time>2018-10-21T10:39:40Z</time>
      </trkpt>
      <trkpt lat="43.2046370" lon="-3.0471200">
        <ele>61.3</ele>
        <time>2018-10-21T10:39:41Z</time>
      </trkpt>
      <trkpt lat="43.2046370" lon="-3.0471200">
        <ele>61.3</ele>
        <time>2018-10-21T10:39:42Z</time>
      </trkpt>
      <trkpt lat="43.2046370" lon="-3.0471200">
        <ele>61.3</ele>
        <time>2018-10-21T10:39:43Z</time>
      </trkpt>
      <trkpt lat="43.2046370" lon="-3.0471200">
        <ele>61.3</ele>
        <time>2018-10-21T10:39:44Z</time>
      </trkpt>
      <trkpt lat="43.2046370" lon="-3.0471200">
        <ele>61.3</ele>
        <time>2018-10-21T10:39:45Z</time>
      </trkpt>
      <trkpt lat="43.2046370" lon="-3.0471200">
        <ele>61.3</ele>
        <time>2018-10-21T10:39:46Z</time>
      </trkpt>
      <trkpt lat="43.2046370" lon="-3.0471200">
        <ele>60.2</ele>
        <time>2018-10-21T10:39:47Z</time>
      </trkpt>
      <trkpt lat="43.2046370" lon="-3.0471200">
        <ele>60.2</ele>
        <time>2018-10-21T10:39:48Z</time>
      </trkpt>
      <trkpt lat="43.2046370" lon="-3.0471200">
        <ele>60.2</ele>
        <time>2018-10-21T10:39:49Z</time>
      </trkpt>
      <trkpt lat="43.2046370" lon="-3.0471200">
        <ele>60.2</ele>
        <time>2018-10-21T10:39:50Z</time>
      </trkpt>
      <trkpt lat="43.2046370" lon="-3.0471200">
        <ele>60.2</ele>
        <time>2018-10-21T10:39:51Z</time>
      </trkpt>
      <trkpt lat="43.2046370" lon="-3.0471200">
        <ele>60.2</ele>
        <time>2018-10-21T10:39:52Z</time>
      </trkpt>
      <trkpt lat="43.2046370" lon="-3.0471200">
        <ele>59.3</ele>
        <time>2018-10-21T10:39:53Z</time>
      </trkpt>
      <trkpt lat="43.2046370" lon="-3.0471200">
        <ele>59.3</ele>
        <time>2018-10-21T10:39:54Z</time>
      </trkpt>
      <trkpt lat="43.2046370" lon="-3.0471200">
        <ele>58.2</ele>
        <time>2018-10-21T10:39:55Z</time>
      </trkpt>
      <trkpt lat="43.2046370" lon="-3.0471200">
        <ele>58.2</ele>
        <time>2018-10-21T10:39:56Z</time>
      </trkpt>
      <trkpt lat="43.2046370" lon="-3.0471200">
        <ele>58.2</ele>
        <time>2018-10-21T10:39:57Z</time>
      </trkpt>
      <trkpt lat="43.2046370" lon="-3.0471200">
        <ele>58.2</ele>
        <time>2018-10-21T10:39:58Z</time>
      </trkpt>
      <trkpt lat="43.2046370" lon="-3.0471200">
        <ele>58.2</ele>
        <time>2018-10-21T10:39:59Z</time>
      </trkpt>
      <trkpt lat="43.2046370" lon="-3.0471200">
        <ele>58.2</ele>
        <time>2018-10-21T10:40:00Z</time>
      </trkpt>
      <trkpt lat="43.2046370" lon="-3.0471200">
        <ele>57.3</ele>
        <time>2018-10-21T10:40:01Z</time>
      </trkpt>
      <trkpt lat="43.2046370" lon="-3.0471200">
        <ele>57.3</ele>
        <time>2018-10-21T10:40:02Z</time>
      </trkpt>
      <trkpt lat="43.2046370" lon="-3.0471200">
        <ele>57.3</ele>
        <time>2018-10-21T10:40:03Z</time>
      </trkpt>
      <trkpt lat="43.2046370" lon="-3.0471200">
        <ele>57.3</ele>
        <time>2018-10-21T10:40:04Z</time>
      </trkpt>
      <trkpt lat="43.2046370" lon="-3.0471200">
        <ele>57.3</ele>
        <time>2018-10-21T10:40:05Z</time>
      </trkpt>
      <trkpt lat="43.2046370" lon="-3.0471200">
        <ele>57.3</ele>
        <time>2018-10-21T10:40:06Z</time>
      </trkpt>
      <trkpt lat="43.2046370" lon="-3.0471200">
        <ele>57.3</ele>
        <time>2018-10-21T10:40:07Z</time>
      </trkpt>
      <trkpt lat="43.2046370" lon="-3.0471200">
        <ele>57.3</ele>
        <time>2018-10-21T10:40:08Z</time>
      </trkpt>
      <trkpt lat="43.2046370" lon="-3.0471200">
        <ele>57.3</ele>
        <time>2018-10-21T10:40:09Z</time>
      </trkpt>
      <trkpt lat="43.2046370" lon="-3.0471200">
        <ele>57.3</ele>
        <time>2018-10-21T10:40:10Z</time>
      </trkpt>
      <trkpt lat="43.2046370" lon="-3.0471200">
        <ele>58.2</ele>
        <time>2018-10-21T10:40:11Z</time>
      </trkpt>
      <trkpt lat="43.2046370" lon="-3.0471200">
        <ele>58.2</ele>
        <time>2018-10-21T10:40:12Z</time>
      </trkpt>
      <trkpt lat="43.2046370" lon="-3.0471200">
        <ele>59.3</ele>
        <time>2018-10-21T10:40:13Z</time>
      </trkpt>
      <trkpt lat="43.2046370" lon="-3.0471200">
        <ele>59.3</ele>
        <time>2018-10-21T10:40:14Z</time>
      </trkpt>
      <trkpt lat="43.2046370" lon="-3.0471200">
        <ele>59.3</ele>
        <time>2018-10-21T10:40:15Z</time>
      </trkpt>
      <trkpt lat="43.2046370" lon="-3.0471200">
        <ele>59.3</ele>
        <time>2018-10-21T10:40:16Z</time>
      </trkpt>
      <trkpt lat="43.2046370" lon="-3.0471200">
        <ele>60.2</ele>
        <time>2018-10-21T10:40:17Z</time>
      </trkpt>
      <trkpt lat="43.2046370" lon="-3.0471200">
        <ele>60.2</ele>
        <time>2018-10-21T10:40:18Z</time>
      </trkpt>
      <trkpt lat="43.2046370" lon="-3.0471200">
        <ele>61.3</ele>
        <time>2018-10-21T10:40:19Z</time>
      </trkpt>
      <trkpt lat="43.2046370" lon="-3.0471200">
        <ele>61.3</ele>
        <time>2018-10-21T10:40:20Z</time>
      </trkpt>
      <trkpt lat="43.2046370" lon="-3.0471200">
        <ele>61.3</ele>
        <time>2018-10-21T10:40:21Z</time>
      </trkpt>
      <trkpt lat="43.2046370" lon="-3.0471200">
        <ele>61.3</ele>
        <time>2018-10-21T10:40:22Z</time>
      </trkpt>
      <trkpt lat="43.2046370" lon="-3.0471200">
        <ele>61.3</ele>
        <time>2018-10-21T10:40:23Z</time>
      </trkpt>
      <trkpt lat="43.2046370" lon="-3.0471200">
        <ele>61.3</ele>
        <time>2018-10-21T10:40:24Z</time>
      </trkpt>
      <trkpt lat="43.2046370" lon="-3.0471200">
        <ele>61.3</ele>
        <time>2018-10-21T10:40:25Z</time>
      </trkpt>
      <trkpt lat="43.2046370" lon="-3.0471200">
        <ele>61.3</ele>
        <time>2018-10-21T10:40:26Z</time>
      </trkpt>
      <trkpt lat="43.2046370" lon="-3.0471200">
        <ele>63.2</ele>
        <time>2018-10-21T10:40:27Z</time>
      </trkpt>
      <trkpt lat="43.2046370" lon="-3.0471200">
        <ele>63.2</ele>
        <time>2018-10-21T10:40:28Z</time>
      </trkpt>
      <trkpt lat="43.2046370" lon="-3.0471200">
        <ele>63.2</ele>
        <time>2018-10-21T10:40:29Z</time>
      </trkpt>
      <trkpt lat="43.2046370" lon="-3.0471200">
        <ele>63.2</ele>
        <time>2018-10-21T10:40:30Z</time>
      </trkpt>
      <trkpt lat="43.2046370" lon="-3.0471200">
        <ele>63.2</ele>
        <time>2018-10-21T10:40:31Z</time>
      </trkpt>
      <trkpt lat="43.2046370" lon="-3.0471200">
        <ele>63.2</ele>
        <time>2018-10-21T10:40:32Z</time>
      </trkpt>
      <trkpt lat="43.2046370" lon="-3.0471200">
        <ele>62.2</ele>
        <time>2018-10-21T10:40:33Z</time>
      </trkpt>
      <trkpt lat="43.2046370" lon="-3.0471200">
        <ele>62.2</ele>
        <time>2018-10-21T10:40:34Z</time>
      </trkpt>
      <trkpt lat="43.2046370" lon="-3.0471200">
        <ele>62.2</ele>
        <time>2018-10-21T10:40:35Z</time>
      </trkpt>
      <trkpt lat="43.2046370" lon="-3.0471200">
        <ele>62.2</ele>
        <time>2018-10-21T10:40:36Z</time>
      </trkpt>
      <trkpt lat="43.2046370" lon="-3.0471200">
        <ele>62.2</ele>
        <time>2018-10-21T10:40:37Z</time>
      </trkpt>
      <trkpt lat="43.2046370" lon="-3.0471200">
        <ele>62.2</ele>
        <time>2018-10-21T10:40:38Z</time>
      </trkpt>
      <trkpt lat="43.2046370" lon="-3.0471200">
        <ele>61.3</ele>
        <time>2018-10-21T10:40:39Z</time>
      </trkpt>
      <trkpt lat="43.2046370" lon="-3.0471200">
        <ele>61.3</ele>
        <time>2018-10-21T10:40:40Z</time>
      </trkpt>
      <trkpt lat="43.2046370" lon="-3.0471200">
        <ele>61.3</ele>
        <time>2018-10-21T10:40:41Z</time>
      </trkpt>
      <trkpt lat="43.2046370" lon="-3.0471200">
        <ele>61.3</ele>
        <time>2018-10-21T10:40:42Z</time>
      </trkpt>
      <trkpt lat="43.2046370" lon="-3.0471200">
        <ele>61.3</ele>
        <time>2018-10-21T10:40:43Z</time>
      </trkpt>
      <trkpt lat="43.2046370" lon="-3.0471200">
        <ele>61.3</ele>
        <time>2018-10-21T10:40:44Z</time>
      </trkpt>
      <trkpt lat="43.2046370" lon="-3.0471200">
        <ele>60.2</ele>
        <time>2018-10-21T10:40:45Z</time>
      </trkpt>
      <trkpt lat="43.2046370" lon="-3.0471200">
        <ele>60.2</ele>
        <time>2018-10-21T10:40:46Z</time>
      </trkpt>
      <trkpt lat="43.2046370" lon="-3.0471200">
        <ele>60.2</ele>
        <time>2018-10-21T10:40:47Z</time>
      </trkpt>
      <trkpt lat="43.2046370" lon="-3.0471200">
        <ele>60.2</ele>
        <time>2018-10-21T10:40:48Z</time>
      </trkpt>
      <trkpt lat="43.2046370" lon="-3.0471200">
        <ele>59.3</ele>
        <time>2018-10-21T10:40:49Z</time>
      </trkpt>
      <trkpt lat="43.2046370" lon="-3.0471200">
        <ele>59.3</ele>
        <time>2018-10-21T10:40:50Z</time>
      </trkpt>
      <trkpt lat="43.2046370" lon="-3.0471200">
        <ele>59.3</ele>
        <time>2018-10-21T10:40:51Z</time>
      </trkpt>
      <trkpt lat="43.2046370" lon="-3.0471200">
        <ele>59.3</ele>
        <time>2018-10-21T10:40:52Z</time>
      </trkpt>
      <trkpt lat="43.2046370" lon="-3.0471200">
        <ele>58.2</ele>
        <time>2018-10-21T10:40:53Z</time>
      </trkpt>
      <trkpt lat="43.2046370" lon="-3.0471200">
        <ele>58.2</ele>
        <time>2018-10-21T10:40:54Z</time>
      </trkpt>
      <trkpt lat="43.2046370" lon="-3.0471200">
        <ele>58.2</ele>
        <time>2018-10-21T10:40:55Z</time>
      </trkpt>
      <trkpt lat="43.2046370" lon="-3.0471200">
        <ele>58.2</ele>
        <time>2018-10-21T10:40:56Z</time>
      </trkpt>
      <trkpt lat="43.2046370" lon="-3.0471200">
        <ele>58.2</ele>
        <time>2018-10-21T10:40:57Z</time>
      </trkpt>
      <trkpt lat="43.2046370" lon="-3.0471200">
        <ele>58.2</ele>
        <time>2018-10-21T10:40:58Z</time>
      </trkpt>
      <trkpt lat="43.2046370" lon="-3.0471200">
        <ele>58.2</ele>
        <time>2018-10-21T10:40:59Z</time>
      </trkpt>
      <trkpt lat="43.2046370" lon="-3.0471200">
        <ele>58.2</ele>
        <time>2018-10-21T10:41:00Z</time>
      </trkpt>
      <trkpt lat="43.2046370" lon="-3.0471200">
        <ele>56.2</ele>
        <time>2018-10-21T10:41:01Z</time>
      </trkpt>
      <trkpt lat="43.2046370" lon="-3.0471200">
        <ele>56.2</ele>
        <time>2018-10-21T10:41:02Z</time>
      </trkpt>
      <trkpt lat="43.2046370" lon="-3.0471200">
        <ele>56.2</ele>
        <time>2018-10-21T10:41:03Z</time>
      </trkpt>
      <trkpt lat="43.2046370" lon="-3.0471200">
        <ele>56.2</ele>
        <time>2018-10-21T10:41:04Z</time>
      </trkpt>
      <trkpt lat="43.2046370" lon="-3.0471200">
        <ele>56.2</ele>
        <time>2018-10-21T10:41:05Z</time>
      </trkpt>
      <trkpt lat="43.2046370" lon="-3.0471200">
        <ele>56.2</ele>
        <time>2018-10-21T10:41:06Z</time>
      </trkpt>
      <trkpt lat="43.2046370" lon="-3.0471200">
        <ele>55.2</ele>
        <time>2018-10-21T10:41:07Z</time>
      </trkpt>
      <trkpt lat="43.2046370" lon="-3.0471200">
        <ele>55.2</ele>
        <time>2018-10-21T10:41:08Z</time>
      </trkpt>
      <trkpt lat="43.2046370" lon="-3.0471200">
        <ele>54.3</ele>
        <time>2018-10-21T10:41:09Z</time>
      </trkpt>
      <trkpt lat="43.2046370" lon="-3.0471200">
        <ele>54.3</ele>
        <time>2018-10-21T10:41:10Z</time>
      </trkpt>
      <trkpt lat="43.2046370" lon="-3.0471200">
        <ele>53.2</ele>
        <time>2018-10-21T10:41:11Z</time>
      </trkpt>
      <trkpt lat="43.2046370" lon="-3.0471200">
        <ele>53.2</ele>
        <time>2018-10-21T10:41:12Z</time>
      </trkpt>
      <trkpt lat="43.2046370" lon="-3.0471200">
        <ele>53.2</ele>
        <time>2018-10-21T10:41:13Z</time>
      </trkpt>
      <trkpt lat="43.2046370" lon="-3.0471200">
        <ele>53.2</ele>
        <time>2018-10-21T10:41:14Z</time>
      </trkpt>
      <trkpt lat="43.2046370" lon="-3.0471200">
        <ele>53.2</ele>
        <time>2018-10-21T10:41:15Z</time>
      </trkpt>
      <trkpt lat="43.2046370" lon="-3.0471200">
        <ele>53.2</ele>
        <time>2018-10-21T10:41:16Z</time>
      </trkpt>
      <trkpt lat="43.2046370" lon="-3.0471200">
        <ele>53.2</ele>
        <time>2018-10-21T10:41:17Z</time>
      </trkpt>
      <trkpt lat="43.2046370" lon="-3.0471200">
        <ele>53.2</ele>
        <time>2018-10-21T10:41:18Z</time>
      </trkpt>
      <trkpt lat="43.2046370" lon="-3.0471200">
        <ele>53.2</ele>
        <time>2018-10-21T10:41:19Z</time>
      </trkpt>
      <trkpt lat="43.2046370" lon="-3.0471200">
        <ele>53.2</ele>
        <time>2018-10-21T10:41:20Z</time>
      </trkpt>
      <trkpt lat="43.2046370" lon="-3.0471200">
        <ele>53.2</ele>
        <time>2018-10-21T10:41:21Z</time>
      </trkpt>
      <trkpt lat="43.2046370" lon="-3.0471200">
        <ele>53.2</ele>
        <time>2018-10-21T10:41:22Z</time>
      </trkpt>
      <trkpt lat="43.2046370" lon="-3.0471200">
        <ele>54.3</ele>
        <time>2018-10-21T10:41:23Z</time>
      </trkpt>
      <trkpt lat="43.2046370" lon="-3.0471200">
        <ele>54.3</ele>
        <time>2018-10-21T10:41:24Z</time>
      </trkpt>
      <trkpt lat="43.2046370" lon="-3.0471200">
        <ele>54.3</ele>
        <time>2018-10-21T10:41:25Z</time>
      </trkpt>
      <trkpt lat="43.2046370" lon="-3.0471200">
        <ele>54.3</ele>
        <time>2018-10-21T10:41:26Z</time>
      </trkpt>
      <trkpt lat="43.2046370" lon="-3.0471200">
        <ele>55.2</ele>
        <time>2018-10-21T10:41:27Z</time>
      </trkpt>
      <trkpt lat="43.2046370" lon="-3.0471200">
        <ele>55.2</ele>
        <time>2018-10-21T10:41:28Z</time>
      </trkpt>
      <trkpt lat="43.2046370" lon="-3.0471200">
        <ele>55.2</ele>
        <time>2018-10-21T10:41:29Z</time>
      </trkpt>
      <trkpt lat="43.2046370" lon="-3.0471200">
        <ele>55.2</ele>
        <time>2018-10-21T10:41:30Z</time>
      </trkpt>
      <trkpt lat="43.2046370" lon="-3.0471200">
        <ele>55.2</ele>
        <time>2018-10-21T10:41:31Z</time>
      </trkpt>
      <trkpt lat="43.2046370" lon="-3.0471200">
        <ele>55.2</ele>
        <time>2018-10-21T10:41:32Z</time>
      </trkpt>
      <trkpt lat="43.2046370" lon="-3.0471200">
        <ele>55.2</ele>
        <time>2018-10-21T10:41:33Z</time>
      </trkpt>
      <trkpt lat="43.2046370" lon="-3.0471200">
        <ele>55.2</ele>
        <time>2018-10-21T10:41:34Z</time>
      </trkpt>
      <trkpt lat="43.2046370" lon="-3.0471200">
        <ele>55.2</ele>
        <time>2018-10-21T10:41:35Z</time>
      </trkpt>
      <trkpt lat="43.2046370" lon="-3.0471200">
        <ele>55.2</ele>
        <time>2018-10-21T10:41:36Z</time>
      </trkpt>
      <trkpt lat="43.2046370" lon="-3.0471200">
        <ele>55.2</ele>
        <time>2018-10-21T10:41:37Z</time>
      </trkpt>
      <trkpt lat="43.2046370" lon="-3.0471200">
        <ele>55.2</ele>
        <time>2018-10-21T10:41:38Z</time>
      </trkpt>
      <trkpt lat="43.2046370" lon="-3.0471200">
        <ele>55.2</ele>
        <time>2018-10-21T10:41:39Z</time>
      </trkpt>
      <trkpt lat="43.2046370" lon="-3.0471200">
        <ele>55.2</ele>
        <time>2018-10-21T10:41:40Z</time>
      </trkpt>
      <trkpt lat="43.2046370" lon="-3.0471200">
        <ele>54.3</ele>
        <time>2018-10-21T10:41:41Z</time>
      </trkpt>
      <trkpt lat="43.2046370" lon="-3.0471200">
        <ele>54.3</ele>
        <time>2018-10-21T10:41:42Z</time>
      </trkpt>
      <trkpt lat="43.2046370" lon="-3.0471200">
        <ele>54.3</ele>
        <time>2018-10-21T10:41:43Z</time>
      </trkpt>
      <trkpt lat="43.2046370" lon="-3.0471200">
        <ele>54.3</ele>
        <time>2018-10-21T10:41:44Z</time>
      </trkpt>
      <trkpt lat="43.2046370" lon="-3.0471200">
        <ele>54.3</ele>
        <time>2018-10-21T10:41:45Z</time>
      </trkpt>
      <trkpt lat="43.2046370" lon="-3.0471200">
        <ele>54.3</ele>
        <time>2018-10-21T10:41:46Z</time>
      </trkpt>
      <trkpt lat="43.2046370" lon="-3.0471200">
        <ele>54.3</ele>
        <time>2018-10-21T10:41:47Z</time>
      </trkpt>
      <trkpt lat="43.2046370" lon="-3.0471200">
        <ele>54.3</ele>
        <time>2018-10-21T10:41:48Z</time>
      </trkpt>
      <trkpt lat="43.2046370" lon="-3.0471200">
        <ele>54.3</ele>
        <time>2018-10-21T10:41:49Z</time>
      </trkpt>
      <trkpt lat="43.2046370" lon="-3.0471200">
        <ele>54.3</ele>
        <time>2018-10-21T10:41:50Z</time>
      </trkpt>
      <trkpt lat="43.2046370" lon="-3.0471200">
        <ele>54.3</ele>
        <time>2018-10-21T10:41:51Z</time>
      </trkpt>
      <trkpt lat="43.2046370" lon="-3.0471200">
        <ele>54.3</ele>
        <time>2018-10-21T10:41:52Z</time>
      </trkpt>
      <trkpt lat="43.2046370" lon="-3.0471200">
        <ele>54.3</ele>
        <time>2018-10-21T10:41:53Z</time>
      </trkpt>
      <trkpt lat="43.2046370" lon="-3.0471200">
        <ele>54.3</ele>
        <time>2018-10-21T10:41:54Z</time>
      </trkpt>
      <trkpt lat="43.2046370" lon="-3.0471200">
        <ele>54.3</ele>
        <time>2018-10-21T10:41:55Z</time>
      </trkpt>
      <trkpt lat="43.2046370" lon="-3.0471200">
        <ele>54.3</ele>
        <time>2018-10-21T10:41:56Z</time>
      </trkpt>
      <trkpt lat="43.2046370" lon="-3.0471200">
        <ele>54.3</ele>
        <time>2018-10-21T10:41:57Z</time>
      </trkpt>
      <trkpt lat="43.2046370" lon="-3.0471200">
        <ele>54.3</ele>
        <time>2018-10-21T10:41:58Z</time>
      </trkpt>
      <trkpt lat="43.2046370" lon="-3.0471200">
        <ele>53.2</ele>
        <time>2018-10-21T10:41:59Z</time>
      </trkpt>
      <trkpt lat="43.2046370" lon="-3.0471200">
        <ele>53.2</ele>
        <time>2018-10-21T10:42:00Z</time>
      </trkpt>
      <trkpt lat="43.2046370" lon="-3.0471200">
        <ele>53.2</ele>
        <time>2018-10-21T10:42:01Z</time>
      </trkpt>
      <trkpt lat="43.2046370" lon="-3.0471200">
        <ele>53.2</ele>
        <time>2018-10-21T10:42:02Z</time>
      </trkpt>
      <trkpt lat="43.2046370" lon="-3.0471200">
        <ele>53.2</ele>
        <time>2018-10-21T10:42:03Z</time>
      </trkpt>
      <trkpt lat="43.2046370" lon="-3.0471200">
        <ele>53.2</ele>
        <time>2018-10-21T10:42:04Z</time>
      </trkpt>
      <trkpt lat="43.2046370" lon="-3.0471200">
        <ele>53.2</ele>
        <time>2018-10-21T10:42:05Z</time>
      </trkpt>
      <trkpt lat="43.2046370" lon="-3.0471200">
        <ele>53.2</ele>
        <time>2018-10-21T10:42:06Z</time>
      </trkpt>
      <trkpt lat="43.2046370" lon="-3.0471200">
        <ele>53.2</ele>
        <time>2018-10-21T10:42:07Z</time>
      </trkpt>
      <trkpt lat="43.2046370" lon="-3.0471200">
        <ele>53.2</ele>
        <time>2018-10-21T10:42:08Z</time>
      </trkpt>
      <trkpt lat="43.2046370" lon="-3.0471200">
        <ele>54.3</ele>
        <time>2018-10-21T10:42:09Z</time>
      </trkpt>
      <trkpt lat="43.2046370" lon="-3.0471200">
        <ele>54.3</ele>
        <time>2018-10-21T10:42:10Z</time>
      </trkpt>
      <trkpt lat="43.2046370" lon="-3.0471200">
        <ele>54.3</ele>
        <time>2018-10-21T10:42:11Z</time>
      </trkpt>
      <trkpt lat="43.2046370" lon="-3.0471200">
        <ele>54.3</ele>
        <time>2018-10-21T10:42:12Z</time>
      </trkpt>
      <trkpt lat="43.2046370" lon="-3.0471200">
        <ele>54.3</ele>
        <time>2018-10-21T10:42:13Z</time>
      </trkpt>
      <trkpt lat="43.2046370" lon="-3.0471200">
        <ele>54.3</ele>
        <time>2018-10-21T10:42:14Z</time>
      </trkpt>
      <trkpt lat="43.2046370" lon="-3.0471200">
        <ele>54.3</ele>
        <time>2018-10-21T10:42:15Z</time>
      </trkpt>
      <trkpt lat="43.2046370" lon="-3.0471200">
        <ele>54.3</ele>
        <time>2018-10-21T10:42:16Z</time>
      </trkpt>
      <trkpt lat="43.2046370" lon="-3.0471200">
        <ele>55.2</ele>
        <time>2018-10-21T10:42:17Z</time>
      </trkpt>
      <trkpt lat="43.2046370" lon="-3.0471200">
        <ele>55.2</ele>
        <time>2018-10-21T10:42:18Z</time>
      </trkpt>
      <trkpt lat="43.2046370" lon="-3.0471200">
        <ele>55.2</ele>
        <time>2018-10-21T10:42:19Z</time>
      </trkpt>
      <trkpt lat="43.2046370" lon="-3.0471200">
        <ele>55.2</ele>
        <time>2018-10-21T10:42:20Z</time>
      </trkpt>
      <trkpt lat="43.2046370" lon="-3.0471200">
        <ele>55.2</ele>
        <time>2018-10-21T10:42:21Z</time>
      </trkpt>
      <trkpt lat="43.2046370" lon="-3.0471200">
        <ele>55.2</ele>
        <time>2018-10-21T10:42:22Z</time>
      </trkpt>
      <trkpt lat="43.2046370" lon="-3.0471200">
        <ele>55.2</ele>
        <time>2018-10-21T10:42:23Z</time>
      </trkpt>
      <trkpt lat="43.2046370" lon="-3.0471200">
        <ele>55.2</ele>
        <time>2018-10-21T10:42:24Z</time>
      </trkpt>
      <trkpt lat="43.2046370" lon="-3.0471200">
        <ele>55.2</ele>
        <time>2018-10-21T10:42:25Z</time>
      </trkpt>
      <trkpt lat="43.2046370" lon="-3.0471200">
        <ele>55.2</ele>
        <time>2018-10-21T10:42:26Z</time>
      </trkpt>
      <trkpt lat="43.2046370" lon="-3.0471200">
        <ele>55.2</ele>
        <time>2018-10-21T10:42:27Z</time>
      </trkpt>
      <trkpt lat="43.2046370" lon="-3.0471200">
        <ele>55.2</ele>
        <time>2018-10-21T10:42:28Z</time>
      </trkpt>
      <trkpt lat="43.2046370" lon="-3.0471200">
        <ele>55.2</ele>
        <time>2018-10-21T10:42:29Z</time>
      </trkpt>
      <trkpt lat="43.2046370" lon="-3.0471200">
        <ele>55.2</ele>
        <time>2018-10-21T10:42:30Z</time>
      </trkpt>
      <trkpt lat="43.2046370" lon="-3.0471200">
        <ele>55.2</ele>
        <time>2018-10-21T10:42:31Z</time>
      </trkpt>
      <trkpt lat="43.2046370" lon="-3.0471200">
        <ele>55.2</ele>
        <time>2018-10-21T10:42:32Z</time>
      </trkpt>
      <trkpt lat="43.2046370" lon="-3.0471200">
        <ele>55.2</ele>
        <time>2018-10-21T10:42:33Z</time>
      </trkpt>
      <trkpt lat="43.2046370" lon="-3.0471200">
        <ele>55.2</ele>
        <time>2018-10-21T10:42:34Z</time>
      </trkpt>
      <trkpt lat="43.2046370" lon="-3.0471200">
        <ele>55.2</ele>
        <time>2018-10-21T10:42:35Z</time>
      </trkpt>
      <trkpt lat="43.2046370" lon="-3.0471200">
        <ele>55.2</ele>
        <time>2018-10-21T10:42:36Z</time>
      </trkpt>
      <trkpt lat="43.2046370" lon="-3.0471200">
        <ele>55.2</ele>
        <time>2018-10-21T10:42:37Z</time>
      </trkpt>
      <trkpt lat="43.2046370" lon="-3.0471200">
        <ele>55.2</ele>
        <time>2018-10-21T10:42:38Z</time>
      </trkpt>
      <trkpt lat="43.2046370" lon="-3.0471200">
        <ele>55.2</ele>
        <time>2018-10-21T10:42:39Z</time>
      </trkpt>
      <trkpt lat="43.2046370" lon="-3.0471200">
        <ele>55.2</ele>
        <time>2018-10-21T10:42:40Z</time>
      </trkpt>
      <trkpt lat="43.2046370" lon="-3.0471200">
        <ele>55.2</ele>
        <time>2018-10-21T10:42:41Z</time>
      </trkpt>
      <trkpt lat="43.2046370" lon="-3.0471200">
        <ele>55.2</ele>
        <time>2018-10-21T10:42:42Z</time>
      </trkpt>
      <trkpt lat="43.2046370" lon="-3.0471200">
        <ele>56.2</ele>
        <time>2018-10-21T10:42:43Z</time>
      </trkpt>
      <trkpt lat="43.2046370" lon="-3.0471200">
        <ele>56.2</ele>
        <time>2018-10-21T10:42:44Z</time>
      </trkpt>
      <trkpt lat="43.2046370" lon="-3.0471200">
        <ele>56.2</ele>
        <time>2018-10-21T10:42:45Z</time>
      </trkpt>
      <trkpt lat="43.2046370" lon="-3.0471200">
        <ele>56.2</ele>
        <time>2018-10-21T10:42:46Z</time>
      </trkpt>
      <trkpt lat="43.2046370" lon="-3.0471200">
        <ele>56.2</ele>
        <time>2018-10-21T10:42:47Z</time>
      </trkpt>
      <trkpt lat="43.2046370" lon="-3.0471200">
        <ele>56.2</ele>
        <time>2018-10-21T10:42:48Z</time>
      </trkpt>
      <trkpt lat="43.2046370" lon="-3.0471200">
        <ele>56.2</ele>
        <time>2018-10-21T10:42:49Z</time>
      </trkpt>
      <trkpt lat="43.2046370" lon="-3.0471200">
        <ele>56.2</ele>
        <time>2018-10-21T10:42:50Z</time>
      </trkpt>
      <trkpt lat="43.2046370" lon="-3.0471200">
        <ele>56.2</ele>
        <time>2018-10-21T10:42:51Z</time>
      </trkpt>
      <trkpt lat="43.2046370" lon="-3.0471200">
        <ele>56.2</ele>
        <time>2018-10-21T10:42:52Z</time>
      </trkpt>
      <trkpt lat="43.2046370" lon="-3.0471200">
        <ele>56.2</ele>
        <time>2018-10-21T10:42:53Z</time>
      </trkpt>
      <trkpt lat="43.2046370" lon="-3.0471200">
        <ele>56.2</ele>
        <time>2018-10-21T10:42:54Z</time>
      </trkpt>
      <trkpt lat="43.2046370" lon="-3.0471200">
        <ele>56.2</ele>
        <time>2018-10-21T10:42:55Z</time>
      </trkpt>
      <trkpt lat="43.2046370" lon="-3.0471200">
        <ele>56.2</ele>
        <time>2018-10-21T10:42:56Z</time>
      </trkpt>
      <trkpt lat="43.2046370" lon="-3.0471200">
        <ele>56.2</ele>
        <time>2018-10-21T10:42:57Z</time>
      </trkpt>
      <trkpt lat="43.2046370" lon="-3.0471200">
        <ele>56.2</ele>
        <time>2018-10-21T10:42:58Z</time>
      </trkpt>
      <trkpt lat="43.2046370" lon="-3.0471200">
        <ele>56.2</ele>
        <time>2018-10-21T10:42:59Z</time>
      </trkpt>
      <trkpt lat="43.2046370" lon="-3.0471200">
        <ele>56.2</ele>
        <time>2018-10-21T10:43:00Z</time>
      </trkpt>
      <trkpt lat="43.2046370" lon="-3.0471200">
        <ele>56.2</ele>
        <time>2018-10-21T10:43:01Z</time>
      </trkpt>
      <trkpt lat="43.2046370" lon="-3.0471200">
        <ele>56.2</ele>
        <time>2018-10-21T10:43:02Z</time>
      </trkpt>
      <trkpt lat="43.2046370" lon="-3.0471200">
        <ele>56.2</ele>
        <time>2018-10-21T10:43:03Z</time>
      </trkpt>
      <trkpt lat="43.2046370" lon="-3.0471200">
        <ele>56.2</ele>
        <time>2018-10-21T10:43:04Z</time>
      </trkpt>
      <trkpt lat="43.2046370" lon="-3.0471200">
        <ele>57.3</ele>
        <time>2018-10-21T10:43:05Z</time>
      </trkpt>
      <trkpt lat="43.2046370" lon="-3.0471200">
        <ele>57.3</ele>
        <time>2018-10-21T10:43:06Z</time>
      </trkpt>
      <trkpt lat="43.2046370" lon="-3.0471200">
        <ele>58.2</ele>
        <time>2018-10-21T10:43:07Z</time>
      </trkpt>
      <trkpt lat="43.2046370" lon="-3.0471200">
        <ele>58.2</ele>
        <time>2018-10-21T10:43:08Z</time>
      </trkpt>
      <trkpt lat="43.2046370" lon="-3.0471200">
        <ele>58.2</ele>
        <time>2018-10-21T10:43:09Z</time>
      </trkpt>
      <trkpt lat="43.2046370" lon="-3.0471200">
        <ele>58.2</ele>
        <time>2018-10-21T10:43:10Z</time>
      </trkpt>
      <trkpt lat="43.2046370" lon="-3.0471200">
        <ele>59.3</ele>
        <time>2018-10-21T10:43:11Z</time>
      </trkpt>
      <trkpt lat="43.2046370" lon="-3.0471200">
        <ele>59.3</ele>
        <time>2018-10-21T10:43:12Z</time>
      </trkpt>
      <trkpt lat="43.2046370" lon="-3.0471200">
        <ele>60.2</ele>
        <time>2018-10-21T10:43:13Z</time>
      </trkpt>
      <trkpt lat="43.2046370" lon="-3.0471200">
        <ele>60.2</ele>
        <time>2018-10-21T10:43:14Z</time>
      </trkpt>
      <trkpt lat="43.2046370" lon="-3.0471200">
        <ele>61.3</ele>
        <time>2018-10-21T10:43:15Z</time>
      </trkpt>
      <trkpt lat="43.2046370" lon="-3.0471200">
        <ele>61.3</ele>
        <time>2018-10-21T10:43:16Z</time>
      </trkpt>
      <trkpt lat="43.2046370" lon="-3.0471200">
        <ele>61.3</ele>
        <time>2018-10-21T10:43:17Z</time>
      </trkpt>
      <trkpt lat="43.2046370" lon="-3.0471200">
        <ele>61.3</ele>
        <time>2018-10-21T10:43:18Z</time>
      </trkpt>
      <trkpt lat="43.2046370" lon="-3.0471200">
        <ele>62.2</ele>
        <time>2018-10-21T10:43:19Z</time>
      </trkpt>
      <trkpt lat="43.2046370" lon="-3.0471200">
        <ele>62.2</ele>
        <time>2018-10-21T10:43:20Z</time>
      </trkpt>
      <trkpt lat="43.2046370" lon="-3.0471200">
        <ele>63.2</ele>
        <time>2018-10-21T10:43:21Z</time>
      </trkpt>
      <trkpt lat="43.2046370" lon="-3.0471200">
        <ele>63.2</ele>
        <time>2018-10-21T10:43:22Z</time>
      </trkpt>
      <trkpt lat="43.2046370" lon="-3.0471200">
        <ele>63.2</ele>
        <time>2018-10-21T10:43:23Z</time>
      </trkpt>
      <trkpt lat="43.2046370" lon="-3.0471200">
        <ele>63.2</ele>
        <time>2018-10-21T10:43:24Z</time>
      </trkpt>
      <trkpt lat="43.2046370" lon="-3.0471200">
        <ele>64.2</ele>
        <time>2018-10-21T10:43:25Z</time>
      </trkpt>
      <trkpt lat="43.2046370" lon="-3.0471200">
        <ele>64.2</ele>
        <time>2018-10-21T10:43:26Z</time>
      </trkpt>
      <trkpt lat="43.2046370" lon="-3.0471200">
        <ele>65.2</ele>
        <time>2018-10-21T10:43:27Z</time>
      </trkpt>
      <trkpt lat="43.2046370" lon="-3.0471200">
        <ele>65.2</ele>
        <time>2018-10-21T10:43:28Z</time>
      </trkpt>
      <trkpt lat="43.2046370" lon="-3.0471200">
        <ele>65.2</ele>
        <time>2018-10-21T10:43:29Z</time>
      </trkpt>
      <trkpt lat="43.2046370" lon="-3.0471200">
        <ele>65.2</ele>
        <time>2018-10-21T10:43:30Z</time>
      </trkpt>
      <trkpt lat="43.2046370" lon="-3.0471200">
        <ele>66.3</ele>
        <time>2018-10-21T10:43:31Z</time>
      </trkpt>
      <trkpt lat="43.2046370" lon="-3.0471200">
        <ele>66.3</ele>
        <time>2018-10-21T10:43:32Z</time>
      </trkpt>
      <trkpt lat="43.2046370" lon="-3.0471200">
        <ele>66.3</ele>
        <time>2018-10-21T10:43:33Z</time>
      </trkpt>
      <trkpt lat="43.2046370" lon="-3.0471200">
        <ele>66.3</ele>
        <time>2018-10-21T10:43:34Z</time>
      </trkpt>
      <trkpt lat="43.2046370" lon="-3.0471200">
        <ele>67.2</ele>
        <time>2018-10-21T10:43:35Z</time>
      </trkpt>
      <trkpt lat="43.2046370" lon="-3.0471200">
        <ele>67.2</ele>
        <time>2018-10-21T10:43:36Z</time>
      </trkpt>
      <trkpt lat="43.2046370" lon="-3.0471200">
        <ele>67.2</ele>
        <time>2018-10-21T10:43:37Z</time>
      </trkpt>
      <trkpt lat="43.2046370" lon="-3.0471200">
        <ele>67.2</ele>
        <time>2018-10-21T10:43:38Z</time>
      </trkpt>
      <trkpt lat="43.2046370" lon="-3.0471200">
        <ele>68.3</ele>
        <time>2018-10-21T10:43:39Z</time>
      </trkpt>
      <trkpt lat="43.2046370" lon="-3.0471200">
        <ele>68.3</ele>
        <time>2018-10-21T10:43:40Z</time>
      </trkpt>
      <trkpt lat="43.2046370" lon="-3.0471200">
        <ele>69.2</ele>
        <time>2018-10-21T10:43:41Z</time>
      </trkpt>
      <trkpt lat="43.2046370" lon="-3.0471200">
        <ele>69.2</ele>
        <time>2018-10-21T10:43:42Z</time>
      </trkpt>
      <trkpt lat="43.2046370" lon="-3.0471200">
        <ele>70.3</ele>
        <time>2018-10-21T10:43:43Z</time>
      </trkpt>
      <trkpt lat="43.2046370" lon="-3.0471200">
        <ele>70.3</ele>
        <time>2018-10-21T10:43:44Z</time>
      </trkpt>
      <trkpt lat="43.2046370" lon="-3.0471200">
        <ele>71.2</ele>
        <time>2018-10-21T10:43:45Z</time>
      </trkpt>
      <trkpt lat="43.2046370" lon="-3.0471200">
        <ele>71.2</ele>
        <time>2018-10-21T10:43:46Z</time>
      </trkpt>
      <trkpt lat="43.2046370" lon="-3.0471200">
        <ele>72.2</ele>
        <time>2018-10-21T10:43:47Z</time>
      </trkpt>
      <trkpt lat="43.2046370" lon="-3.0471200">
        <ele>72.2</ele>
        <time>2018-10-21T10:43:48Z</time>
      </trkpt>
      <trkpt lat="43.2046370" lon="-3.0471200">
        <ele>72.2</ele>
        <time>2018-10-21T10:43:49Z</time>
      </trkpt>
      <trkpt lat="43.2046370" lon="-3.0471200">
        <ele>72.2</ele>
        <time>2018-10-21T10:43:50Z</time>
      </trkpt>
      <trkpt lat="43.2046370" lon="-3.0471200">
        <ele>72.2</ele>
        <time>2018-10-21T10:43:51Z</time>
      </trkpt>
      <trkpt lat="43.2046370" lon="-3.0471200">
        <ele>72.2</ele>
        <time>2018-10-21T10:43:52Z</time>
      </trkpt>
      <trkpt lat="43.2046370" lon="-3.0471200">
        <ele>73.3</ele>
        <time>2018-10-21T10:43:53Z</time>
      </trkpt>
      <trkpt lat="43.2046370" lon="-3.0471200">
        <ele>73.3</ele>
        <time>2018-10-21T10:43:54Z</time>
      </trkpt>
      <trkpt lat="43.2046370" lon="-3.0471200">
        <ele>73.3</ele>
        <time>2018-10-21T10:43:55Z</time>
      </trkpt>
      <trkpt lat="43.2046370" lon="-3.0471200">
        <ele>73.3</ele>
        <time>2018-10-21T10:43:56Z</time>
      </trkpt>
      <trkpt lat="43.2046370" lon="-3.0471200">
        <ele>73.3</ele>
        <time>2018-10-21T10:43:57Z</time>
      </trkpt>
      <trkpt lat="43.2046370" lon="-3.0471200">
        <ele>73.3</ele>
        <time>2018-10-21T10:43:58Z</time>
      </trkpt>
      <trkpt lat="43.2046370" lon="-3.0471200">
        <ele>73.3</ele>
        <time>2018-10-21T10:43:59Z</time>
      </trkpt>
      <trkpt lat="43.2046370" lon="-3.0471200">
        <ele>73.3</ele>
        <time>2018-10-21T10:44:00Z</time>
      </trkpt>
      <trkpt lat="43.2046370" lon="-3.0471200">
        <ele>76.2</ele>
        <time>2018-10-21T10:44:01Z</time>
      </trkpt>
      <trkpt lat="43.2046370" lon="-3.0471200">
        <ele>76.2</ele>
        <time>2018-10-21T10:44:02Z</time>
      </trkpt>
      <trkpt lat="43.2046370" lon="-3.0471200">
        <ele>76.2</ele>
        <time>2018-10-21T10:44:03Z</time>
      </trkpt>
      <trkpt lat="43.2046370" lon="-3.0471200">
        <ele>76.2</ele>
        <time>2018-10-21T10:44:04Z</time>
      </trkpt>
      <trkpt lat="43.2046370" lon="-3.0471200">
        <ele>77.3</ele>
        <time>2018-10-21T10:44:05Z</time>
      </trkpt>
      <trkpt lat="43.2046370" lon="-3.0471200">
        <ele>77.3</ele>
        <time>2018-10-21T10:44:06Z</time>
      </trkpt>
      <trkpt lat="43.2046370" lon="-3.0471200">
        <ele>77.3</ele>
        <time>2018-10-21T10:44:07Z</time>
      </trkpt>
      <trkpt lat="43.2046370" lon="-3.0471200">
        <ele>77.3</ele>
        <time>2018-10-21T10:44:08Z</time>
      </trkpt>
      <trkpt lat="43.2046370" lon="-3.0471200">
        <ele>77.3</ele>
        <time>2018-10-21T10:44:09Z</time>
      </trkpt>
      <trkpt lat="43.2046370" lon="-3.0471200">
        <ele>77.3</ele>
        <time>2018-10-21T10:44:10Z</time>
      </trkpt>
      <trkpt lat="43.2046370" lon="-3.0471200">
        <ele>77.3</ele>
        <time>2018-10-21T10:44:11Z</time>
      </trkpt>
      <trkpt lat="43.2046370" lon="-3.0471200">
        <ele>77.3</ele>
        <time>2018-10-21T10:44:12Z</time>
      </trkpt>
      <trkpt lat="43.2046370" lon="-3.0471200">
        <ele>77.3</ele>
        <time>2018-10-21T10:44:13Z</time>
      </trkpt>
      <trkpt lat="43.2046370" lon="-3.0471200">
        <ele>77.3</ele>
        <time>2018-10-21T10:44:14Z</time>
      </trkpt>
      <trkpt lat="43.2046370" lon="-3.0471200">
        <ele>77.3</ele>
        <time>2018-10-21T10:44:15Z</time>
      </trkpt>
      <trkpt lat="43.2046370" lon="-3.0471200">
        <ele>77.3</ele>
        <time>2018-10-21T10:44:16Z</time>
      </trkpt>
      <trkpt lat="43.2046370" lon="-3.0471200">
        <ele>77.3</ele>
        <time>2018-10-21T10:44:17Z</time>
      </trkpt>
      <trkpt lat="43.2046370" lon="-3.0471200">
        <ele>77.3</ele>
        <time>2018-10-21T10:44:18Z</time>
      </trkpt>
      <trkpt lat="43.2046370" lon="-3.0471200">
        <ele>76.2</ele>
        <time>2018-10-21T10:44:19Z</time>
      </trkpt>
      <trkpt lat="43.2046370" lon="-3.0471200">
        <ele>76.2</ele>
        <time>2018-10-21T10:44:20Z</time>
      </trkpt>
      <trkpt lat="43.2046370" lon="-3.0471200">
        <ele>75.3</ele>
        <time>2018-10-21T10:44:21Z</time>
      </trkpt>
      <trkpt lat="43.2046370" lon="-3.0471200">
        <ele>75.3</ele>
        <time>2018-10-21T10:44:22Z</time>
      </trkpt>
      <trkpt lat="43.2046370" lon="-3.0471200">
        <ele>74.2</ele>
        <time>2018-10-21T10:44:23Z</time>
      </trkpt>
      <trkpt lat="43.2046370" lon="-3.0471200">
        <ele>74.2</ele>
        <time>2018-10-21T10:44:24Z</time>
      </trkpt>
      <trkpt lat="43.2046370" lon="-3.0471200">
        <ele>74.2</ele>
        <time>2018-10-21T10:44:25Z</time>
      </trkpt>
      <trkpt lat="43.2046370" lon="-3.0471200">
        <ele>74.2</ele>
        <time>2018-10-21T10:44:26Z</time>
      </trkpt>
      <trkpt lat="43.2046370" lon="-3.0471200">
        <ele>74.2</ele>
        <time>2018-10-21T10:44:27Z</time>
      </trkpt>
      <trkpt lat="43.2046370" lon="-3.0471200">
        <ele>74.2</ele>
        <time>2018-10-21T10:44:28Z</time>
      </trkpt>
      <trkpt lat="43.2046370" lon="-3.0471200">
        <ele>74.2</ele>
        <time>2018-10-21T10:44:29Z</time>
      </trkpt>
      <trkpt lat="43.2046370" lon="-3.0471200">
        <ele>74.2</ele>
        <time>2018-10-21T10:44:30Z</time>
      </trkpt>
      <trkpt lat="43.2046370" lon="-3.0471200">
        <ele>72.2</ele>
        <time>2018-10-21T10:44:31Z</time>
      </trkpt>
      <trkpt lat="43.2046370" lon="-3.0471200">
        <ele>72.2</ele>
        <time>2018-10-21T10:44:32Z</time>
      </trkpt>
      <trkpt lat="43.2046370" lon="-3.0471200">
        <ele>71.2</ele>
        <time>2018-10-21T10:44:33Z</time>
      </trkpt>
      <trkpt lat="43.2046370" lon="-3.0471200">
        <ele>71.2</ele>
        <time>2018-10-21T10:44:34Z</time>
      </trkpt>
      <trkpt lat="43.2046370" lon="-3.0471200">
        <ele>71.2</ele>
        <time>2018-10-21T10:44:35Z</time>
      </trkpt>
      <trkpt lat="43.2046370" lon="-3.0471200">
        <ele>71.2</ele>
        <time>2018-10-21T10:44:36Z</time>
      </trkpt>
      <trkpt lat="43.2046370" lon="-3.0471200">
        <ele>70.3</ele>
        <time>2018-10-21T10:44:37Z</time>
      </trkpt>
      <trkpt lat="43.2046370" lon="-3.0471200">
        <ele>70.3</ele>
        <time>2018-10-21T10:44:38Z</time>
      </trkpt>
      <trkpt lat="43.2046370" lon="-3.0471200">
        <ele>68.3</ele>
        <time>2018-10-21T10:44:39Z</time>
      </trkpt>
      <trkpt lat="43.2046370" lon="-3.0471200">
        <ele>68.3</ele>
        <time>2018-10-21T10:44:40Z</time>
      </trkpt>
      <trkpt lat="43.2046370" lon="-3.0471200">
        <ele>67.2</ele>
        <time>2018-10-21T10:44:41Z</time>
      </trkpt>
      <trkpt lat="43.2046370" lon="-3.0471200">
        <ele>67.2</ele>
        <time>2018-10-21T10:44:42Z</time>
      </trkpt>
      <trkpt lat="43.2046370" lon="-3.0471200">
        <ele>65.2</ele>
        <time>2018-10-21T10:44:43Z</time>
      </trkpt>
      <trkpt lat="43.2046370" lon="-3.0471200">
        <ele>65.2</ele>
        <time>2018-10-21T10:44:44Z</time>
      </trkpt>
      <trkpt lat="43.2046370" lon="-3.0471200">
        <ele>63.2</ele>
        <time>2018-10-21T10:44:45Z</time>
      </trkpt>
      <trkpt lat="43.2046370" lon="-3.0471200">
        <ele>63.2</ele>
        <time>2018-10-21T10:44:46Z</time>
      </trkpt>
      <trkpt lat="43.2046370" lon="-3.0471200">
        <ele>60.2</ele>
        <time>2018-10-21T10:44:47Z</time>
      </trkpt>
      <trkpt lat="43.2046370" lon="-3.0471200">
        <ele>60.2</ele>
        <time>2018-10-21T10:44:48Z</time>
      </trkpt>
      <trkpt lat="43.2046370" lon="-3.0471200">
        <ele>60.2</ele>
        <time>2018-10-21T10:44:49Z</time>
      </trkpt>
      <trkpt lat="43.2046370" lon="-3.0471200">
        <ele>60.2</ele>
        <time>2018-10-21T10:44:50Z</time>
      </trkpt>
      <trkpt lat="43.2046370" lon="-3.0471200">
        <ele>58.2</ele>
        <time>2018-10-21T10:44:51Z</time>
      </trkpt>
      <trkpt lat="43.2046370" lon="-3.0471200">
        <ele>58.2</ele>
        <time>2018-10-21T10:44:52Z</time>
      </trkpt>
      <trkpt lat="43.2046370" lon="-3.0471200">
        <ele>56.2</ele>
        <time>2018-10-21T10:44:53Z</time>
      </trkpt>
      <trkpt lat="43.2046370" lon="-3.0471200">
        <ele>56.2</ele>
        <time>2018-10-21T10:44:54Z</time>
      </trkpt>
      <trkpt lat="43.2046370" lon="-3.0471200">
        <ele>55.2</ele>
        <time>2018-10-21T10:44:55Z</time>
      </trkpt>
      <trkpt lat="43.2046370" lon="-3.0471200">
        <ele>55.2</ele>
        <time>2018-10-21T10:44:56Z</time>
      </trkpt>
      <trkpt lat="43.2046370" lon="-3.0471200">
        <ele>54.3</ele>
        <time>2018-10-21T10:44:57Z</time>
      </trkpt>
      <trkpt lat="43.2046370" lon="-3.0471200">
        <ele>54.3</ele>
        <time>2018-10-21T10:44:58Z</time>
      </trkpt>
      <trkpt lat="43.2046370" lon="-3.0471200">
        <ele>54.3</ele>
        <time>2018-10-21T10:44:59Z</time>
      </trkpt>
      <trkpt lat="43.2046370" lon="-3.0471200">
        <ele>54.3</ele>
        <time>2018-10-21T10:45:00Z</time>
      </trkpt>
      <trkpt lat="43.2046370" lon="-3.0471200">
        <ele>53.2</ele>
        <time>2018-10-21T10:45:01Z</time>
      </trkpt>
      <trkpt lat="43.2056267" lon="-3.046506">
        <ele>51.6</ele>
        <time>2018-10-21T10:39:23Z</time>
      </trkpt>
      <trkpt lat="43.2056267" lon="-3.046506">
        <ele>55.2</ele>
        <time>2018-10-21T10:39:26Z</time>
      </trkpt>
      <trkpt lat="43.2057468" lon="-3.0464118">
        <ele>55.6</ele>
        <time>2018-10-21T10:39:29Z</time>
      </trkpt>
      <trkpt lat="43.2058733" lon="-3.0463706">
        <ele>55.9</ele>
        <time>2018-10-21T10:39:32Z</time>
      </trkpt>
      <trkpt lat="43.2060393" lon="-3.046263">
        <ele>55.8</ele>
        <time>2018-10-21T10:39:36Z</time>
      </trkpt>
      <trkpt lat="43.2062298" lon="-3.0461295">
        <ele>55.9</ele>
        <time>2018-10-21T10:39:40Z</time>
      </trkpt>
      <trkpt lat="43.2063794" lon="-3.0460153">
        <ele>55.8</ele>
        <time>2018-10-21T10:39:43Z</time>
      </trkpt>
      <trkpt lat="43.2065092" lon="-3.0458475">
        <ele>55.6</ele>
        <time>2018-10-21T10:39:46Z</time>
      </trkpt>
      <trkpt lat="43.2066451" lon="-3.0456823">
        <ele>55.5</ele>
        <time>2018-10-21T10:39:49Z</time>
      </trkpt>
      <trkpt lat="43.2067496" lon="-3.0455583">
        <ele>55.4</ele>
        <time>2018-10-21T10:39:51Z</time>
      </trkpt>
      <trkpt lat="43.2068424" lon="-3.0454063">
        <ele>55.3</ele>
        <time>2018-10-21T10:39:53Z</time>
      </trkpt>
      <trkpt lat="43.2069445" lon="-3.0452689">
        <ele>55.2</ele>
        <time>2018-10-21T10:39:55Z</time>
      </trkpt>
      <trkpt lat="43.2070445" lon="-3.0451148">
        <ele>55.0</ele>
        <time>2018-10-21T10:39:57Z</time>
      </trkpt>
      <trkpt lat="43.2071503" lon="-3.0449543">
        <ele>54.8</ele>
        <time>2018-10-21T10:39:59Z</time>
      </trkpt>
      <trkpt lat="43.2072615" lon="-3.0447873">
        <ele>54.3</ele>
        <time>2018-10-21T10:40:01Z</time>
      </trkpt>
      <trkpt lat="43.2073738" lon="-3.0446383">
        <ele>53.9</ele>
        <time>2018-10-21T10:40:03Z</time>
      </trkpt>
      <trkpt lat="43.207473" lon="-3.044485">
        <ele>53.7</ele>
        <time>2018-10-21T10:40:05Z</time>
      </trkpt>
      <trkpt lat="43.2075662" lon="-3.0443442">
        <ele>53.6</ele>
        <time>2018-10-21T10:40:07Z</time>
      </trkpt>
      <trkpt lat="43.2076533" lon="-3.0441985">
        <ele>53.4</ele>
        <time>2018-10-21T10:40:09Z</time>
      </trkpt>
      <trkpt lat="43.2077762" lon="-3.0439967">
        <ele>53.1</ele>
        <time>2018-10-21T10:40:12Z</time>
      </trkpt>
      <trkpt lat="43.2078436" lon="-3.0437694">
        <ele>52.9</ele>
        <time>2018-10-21T10:40:15Z</time>
      </trkpt>
      <trkpt lat="43.2079333" lon="-3.0435686">
        <ele>53.2</ele>
        <time>2018-10-21T10:40:18Z</time>
      </trkpt>
      <trkpt lat="43.2079878" lon="-3.0433858">
        <ele>53.4</ele>
        <time>2018-10-21T10:40:21Z</time>
      </trkpt>
      <trkpt lat="43.2080442" lon="-3.0432021">
        <ele>53.5</ele>
        <time>2018-10-21T10:40:25Z</time>
      </trkpt>
      <trkpt lat="43.208046" lon="-3.0430566">
        <ele>53.5</ele>
        <time>2018-10-21T10:40:29Z</time>
      </trkpt>
      <trkpt lat="43.2081133" lon="-3.0428743">
        <ele>53.5</ele>
        <time>2018-10-21T10:40:33Z</time>
      </trkpt>
      <trkpt lat="43.2082309" lon="-3.0427412">
        <ele>53.5</ele>
        <time>2018-10-21T10:40:36Z</time>
      </trkpt>
      <trkpt lat="43.2083565" lon="-3.0425693">
        <ele>53.5</ele>
        <time>2018-10-21T10:40:39Z</time>
      </trkpt>
      <trkpt lat="43.2085032" lon="-3.0423759">
        <ele>53.5</ele>
        <time>2018-10-21T10:40:42Z</time>
      </trkpt>
      <trkpt lat="43.208608" lon="-3.0422242">
        <ele>53.5</ele>
        <time>2018-10-21T10:40:44Z</time>
      </trkpt>
      <trkpt lat="43.2087329" lon="-3.0420893">
        <ele>53.2</ele>
        <time>2018-10-21T10:40:46Z</time>
      </trkpt>
      <trkpt lat="43.2088553" lon="-3.0419362">
        <ele>53.0</ele>
        <time>2018-10-21T10:40:48Z</time>
      </trkpt>
      <trkpt lat="43.2089921" lon="-3.0417803">
        <ele>53.0</ele>
        <time>2018-10-21T10:40:50Z</time>
      </trkpt>
      <trkpt lat="43.2091445" lon="-3.0416412">
        <ele>53.0</ele>
        <time>2018-10-21T10:40:52Z</time>
      </trkpt>
      <trkpt lat="43.2092704" lon="-3.0414946">
        <ele>52.9</ele>
        <time>2018-10-21T10:40:54Z</time>
      </trkpt>
      <trkpt lat="43.2094033" lon="-3.0413679">
        <ele>52.9</ele>
        <time>2018-10-21T10:40:56Z</time>
      </trkpt>
      <trkpt lat="43.2095464" lon="-3.0412495">
        <ele>52.9</ele>
        <time>2018-10-21T10:40:58Z</time>
      </trkpt>
      <trkpt lat="43.2096897" lon="-3.0411192">
        <ele>52.9</ele>
        <time>2018-10-21T10:41:00Z</time>
      </trkpt>
      <trkpt lat="43.2098367" lon="-3.0409945">
        <ele>52.9</ele>
        <time>2018-10-21T10:41:02Z</time>
      </trkpt>
      <trkpt lat="43.2099994" lon="-3.0408948">
        <ele>52.9</ele>
        <time>2018-10-21T10:41:04Z</time>
      </trkpt>
      <trkpt lat="43.2101304" lon="-3.0407485">
        <ele>52.9</ele>
        <time>2018-10-21T10:41:06Z</time>
      </trkpt>
      <trkpt lat="43.2103288" lon="-3.040542">
        <ele>52.9</ele>
        <time>2018-10-21T10:41:09Z</time>
      </trkpt>
      <trkpt lat="43.2104767" lon="-3.0403954">
        <ele>52.9</ele>
        <time>2018-10-21T10:41:11Z</time>
      </trkpt>
      <trkpt lat="43.2106213" lon="-3.0402433">
        <ele>52.9</ele>
        <time>2018-10-21T10:41:13Z</time>
      </trkpt>
      <trkpt lat="43.210755" lon="-3.0400715">
        <ele>52.7</ele>
        <time>2018-10-21T10:41:15Z</time>
      </trkpt>
      <trkpt lat="43.2108883" lon="-3.0399382">
        <ele>51.9</ele>
        <time>2018-10-21T10:41:17Z</time>
      </trkpt>
      <trkpt lat="43.2110147" lon="-3.0397772">
        <ele>51.2</ele>
        <time>2018-10-21T10:41:19Z</time>
      </trkpt>
      <trkpt lat="43.2111501" lon="-3.0396476">
        <ele>50.6</ele>
        <time>2018-10-21T10:41:21Z</time>
      </trkpt>
      <trkpt lat="43.2112697" lon="-3.0394904">
        <ele>50.3</ele>
        <time>2018-10-21T10:41:23Z</time>
      </trkpt>
      <trkpt lat="43.2113945" lon="-3.0393445">
        <ele>50.0</ele>
        <time>2018-10-21T10:41:25Z</time>
      </trkpt>
      <trkpt lat="43.2115024" lon="-3.0391867">
        <ele>49.5</ele>
        <time>2018-10-21T10:41:27Z</time>
      </trkpt>
      <trkpt lat="43.2116263" lon="-3.039039">
        <ele>49.2</ele>
        <time>2018-10-21T10:41:29Z</time>
      </trkpt>
      <trkpt lat="43.2117468" lon="-3.038911">
        <ele>49.0</ele>
        <time>2018-10-21T10:41:31Z</time>
      </trkpt>
      <trkpt lat="43.2118852" lon="-3.0388092">
        <ele>48.9</ele>
        <time>2018-10-21T10:41:33Z</time>
      </trkpt>
      <trkpt lat="43.2120076" lon="-3.0386706">
        <ele>48.7</ele>
        <time>2018-10-21T10:41:35Z</time>
      </trkpt>
      <trkpt lat="43.2121608" lon="-3.0385479">
        <ele>48.4</ele>
        <time>2018-10-21T10:41:37Z</time>
      </trkpt>
      <trkpt lat="43.2123126" lon="-3.0384369">
        <ele>48.1</ele>
        <time>2018-10-21T10:41:39Z</time>
      </trkpt>
      <trkpt lat="43.2126243" lon="-3.0382842">
        <ele>48.0</ele>
        <time>2018-10-21T10:41:43Z</time>
      </trkpt>
      <trkpt lat="43.2127847" lon="-3.038227">
        <ele>47.9</ele>
        <time>2018-10-21T10:41:45Z</time>
      </trkpt>
      <trkpt lat="43.2128593" lon="-3.0381968">
        <ele>47.9</ele>
        <time>2018-10-21T10:41:46Z</time>
      </trkpt>
      <trkpt lat="43.2130815" lon="-3.0380952">
        <ele>47.9</ele>
        <time>2018-10-21T10:41:49Z</time>
      </trkpt>
      <trkpt lat="43.2131538" lon="-3.0380458">
        <ele>47.6</ele>
        <time>2018-10-21T10:41:50Z</time>
      </trkpt>
      <trkpt lat="43.2134523" lon="-3.0378777">
        <ele>47.5</ele>
        <time>2018-10-21T10:41:54Z</time>
      </trkpt>
      <trkpt lat="43.2135731" lon="-3.0377588">
        <ele>47.4</ele>
        <time>2018-10-21T10:41:56Z</time>
      </trkpt>
      <trkpt lat="43.2137085" lon="-3.0376067">
        <ele>47.3</ele>
        <time>2018-10-21T10:41:58Z</time>
      </trkpt>
      <trkpt lat="43.2138284" lon="-3.0374608">
        <ele>47.1</ele>
        <time>2018-10-21T10:42:00Z</time>
      </trkpt>
      <trkpt lat="43.2139474" lon="-3.0373153">
        <ele>47.0</ele>
        <time>2018-10-21T10:42:02Z</time>
      </trkpt>
      <trkpt lat="43.2140606" lon="-3.0371718">
        <ele>47.0</ele>
        <time>2018-10-21T10:42:04Z</time>
      </trkpt>
      <trkpt lat="43.2141719" lon="-3.0370219">
        <ele>46.9</ele>
        <time>2018-10-21T10:42:06Z</time>
      </trkpt>
      <trkpt lat="43.2142782" lon="-3.0368626">
        <ele>46.9</ele>
        <time>2018-10-21T10:42:08Z</time>
      </trkpt>
      <trkpt lat="43.2143934" lon="-3.0367368">
        <ele>46.9</ele>
        <time>2018-10-21T10:42:10Z</time>
      </trkpt>
      <trkpt lat="43.2145128" lon="-3.0366034">
        <ele>46.8</ele>
        <time>2018-10-21T10:42:12Z</time>
      </trkpt>
      <trkpt lat="43.2146373" lon="-3.0364857">
        <ele>46.8</ele>
        <time>2018-10-21T10:42:14Z</time>
      </trkpt>
      <trkpt lat="43.2147631" lon="-3.036373">
        <ele>46.9</ele>
        <time>2018-10-21T10:42:16Z</time>
      </trkpt>
      <trkpt lat="43.2148994" lon="-3.036246">
        <ele>46.9</ele>
        <time>2018-10-21T10:42:18Z</time>
      </trkpt>
      <trkpt lat="43.2150256" lon="-3.0361186">
        <ele>46.9</ele>
        <time>2018-10-21T10:42:20Z</time>
      </trkpt>
      <trkpt lat="43.21523" lon="-3.0359928">
        <ele>47.0</ele>
        <time>2018-10-21T10:42:23Z</time>
      </trkpt>
      <trkpt lat="43.215371" lon="-3.035891">
        <ele>47.0</ele>
        <time>2018-10-21T10:42:25Z</time>
      </trkpt>
      <trkpt lat="43.2154908" lon="-3.035733">
        <ele>47.0</ele>
        <time>2018-10-21T10:42:27Z</time>
      </trkpt>
      <trkpt lat="43.2156129" lon="-3.0355956">
        <ele>47.0</ele>
        <time>2018-10-21T10:42:29Z</time>
      </trkpt>
      <trkpt lat="43.2157364" lon="-3.0354773">
        <ele>47.0</ele>
        <time>2018-10-21T10:42:31Z</time>
      </trkpt>
      <trkpt lat="43.2158616" lon="-3.0353456">
        <ele>47.0</ele>
        <time>2018-10-21T10:42:33Z</time>
      </trkpt>
      <trkpt lat="43.2159882" lon="-3.0352216">
        <ele>47.0</ele>
        <time>2018-10-21T10:42:35Z</time>
      </trkpt>
      <trkpt lat="43.2161793" lon="-3.0350814">
        <ele>47.2</ele>
        <time>2018-10-21T10:42:38Z</time>
      </trkpt>
      <trkpt lat="43.2163062" lon="-3.0349316">
        <ele>47.3</ele>
        <time>2018-10-21T10:42:40Z</time>
      </trkpt>
      <trkpt lat="43.2164122" lon="-3.0347668">
        <ele>47.3</ele>
        <time>2018-10-21T10:42:42Z</time>
      </trkpt>
      <trkpt lat="43.2165051" lon="-3.0346291">
        <ele>47.4</ele>
        <time>2018-10-21T10:42:44Z</time>
      </trkpt>
      <trkpt lat="43.2166056" lon="-3.0344792">
        <ele>47.5</ele>
        <time>2018-10-21T10:42:46Z</time>
      </trkpt>
      <trkpt lat="43.216711" lon="-3.0343226">
        <ele>47.5</ele>
        <time>2018-10-21T10:42:48Z</time>
      </trkpt>
      <trkpt lat="43.2168087" lon="-3.034162">
        <ele>47.5</ele>
        <time>2018-10-21T10:42:50Z</time>
      </trkpt>
      <trkpt lat="43.2168906" lon="-3.0339875">
        <ele>47.5</ele>
        <time>2018-10-21T10:42:52Z</time>
      </trkpt>
      <trkpt lat="43.2169574" lon="-3.0338203">
        <ele>47.5</ele>
        <time>2018-10-21T10:42:54Z</time>
      </trkpt>
      <trkpt lat="43.2170273" lon="-3.033635">
        <ele>47.6</ele>
        <time>2018-10-21T10:42:56Z</time>
      </trkpt>
      <trkpt lat="43.2170862" lon="-3.0334567">
        <ele>47.6</ele>
        <time>2018-10-21T10:42:58Z</time>
      </trkpt>
      <trkpt lat="43.217122" lon="-3.0332733">
        <ele>47.6</ele>
        <time>2018-10-21T10:43:00Z</time>
      </trkpt>
      <trkpt lat="43.2171448" lon="-3.0330143">
        <ele>47.7</ele>
        <time>2018-10-21T10:43:03Z</time>
      </trkpt>
      <trkpt lat="43.2171663" lon="-3.0327905">
        <ele>47.7</ele>
        <time>2018-10-21T10:43:06Z</time>
      </trkpt>
      <trkpt lat="43.2171877" lon="-3.0325923">
        <ele>47.8</ele>
        <time>2018-10-21T10:43:09Z</time>
      </trkpt>
      <trkpt lat="43.2171992" lon="-3.0324046">
        <ele>47.8</ele>
        <time>2018-10-21T10:43:12Z</time>
      </trkpt>
      <trkpt lat="43.2172287" lon="-3.0321781">
        <ele>47.9</ele>
        <time>2018-10-21T10:43:16Z</time>
      </trkpt>
      <trkpt lat="43.2172664" lon="-3.0319698">
        <ele>47.9</ele>
        <time>2018-10-21T10:43:20Z</time>
      </trkpt>
      <trkpt lat="43.2172948" lon="-3.0317647">
        <ele>48.1</ele>
        <time>2018-10-21T10:43:24Z</time>
      </trkpt>
      <trkpt lat="43.2173186" lon="-3.0315802">
        <ele>48.2</ele>
        <time>2018-10-21T10:43:28Z</time>
      </trkpt>
      <trkpt lat="43.2173467" lon="-3.0313879">
        <ele>49.3</ele>
        <time>2018-10-21T10:43:32Z</time>
      </trkpt>
      <trkpt lat="43.2172827" lon="-3.0312036">
        <ele>50.5</ele>
        <time>2018-10-21T10:43:36Z</time>
      </trkpt>
      <trkpt lat="43.2172075" lon="-3.0310384">
        <ele>52.5</ele>
        <time>2018-10-21T10:43:40Z</time>
      </trkpt>
      <trkpt lat="43.2171857" lon="-3.0309651">
        <ele>52.5</ele>
        <time>2018-10-21T10:43:42Z</time>
      </trkpt>
      <trkpt lat="43.2171721" lon="-3.0308908">
        <ele>52.5</ele>
        <time>2018-10-21T10:43:44Z</time>
      </trkpt>
      <trkpt lat="43.217164" lon="-3.0308093">
        <ele>54.4</ele>
        <time>2018-10-21T10:43:46Z</time>
      </trkpt>
      <trkpt lat="43.2171507" lon="-3.030603">
        <ele>55.9</ele>
        <time>2018-10-21T10:43:51Z</time>
      </trkpt>
      <trkpt lat="43.2171482" lon="-3.0305192">
        <ele>55.9</ele>
        <time>2018-10-21T10:43:53Z</time>
      </trkpt>
      <trkpt lat="43.2171505" lon="-3.0304414">
        <ele>55.9</ele>
        <time>2018-10-21T10:43:55Z</time>
      </trkpt>
      <trkpt lat="43.2171588" lon="-3.0303619">
        <ele>57.9</ele>
        <time>2018-10-21T10:43:57Z</time>
      </trkpt>
      <trkpt lat="43.2171707" lon="-3.0302816">
        <ele>57.9</ele>
        <time>2018-10-21T10:43:59Z</time>
      </trkpt>
      <trkpt lat="43.2171999" lon="-3.0301945">
        <ele>57.9</ele>
        <time>2018-10-21T10:44:01Z</time>
      </trkpt>
      <trkpt lat="43.2172322" lon="-3.0301162">
        <ele>59.9</ele>
        <time>2018-10-21T10:44:03Z</time>
      </trkpt>
      <trkpt lat="43.2172592" lon="-3.0300475">
        <ele>59.9</ele>
        <time>2018-10-21T10:44:05Z</time>
      </trkpt>
      <trkpt lat="43.217298" lon="-3.0299843">
        <ele>59.9</ele>
        <time>2018-10-21T10:44:07Z</time>
      </trkpt>
      <trkpt lat="43.21735" lon="-3.0299192">
        <ele>61.6</ele>
        <time>2018-10-21T10:44:09Z</time>
      </trkpt>
      <trkpt lat="43.2174589" lon="-3.0297748">
        <ele>62.4</ele>
        <time>2018-10-21T10:44:13Z</time>
      </trkpt>
      <trkpt lat="43.217552" lon="-3.0296304">
        <ele>63.2</ele>
        <time>2018-10-21T10:44:16Z</time>
      </trkpt>
      <trkpt lat="43.2176795" lon="-3.0294513">
        <ele>63.7</ele>
        <time>2018-10-21T10:44:19Z</time>
      </trkpt>
      <trkpt lat="43.2177837" lon="-3.0292915">
        <ele>64.4</ele>
        <time>2018-10-21T10:44:21Z</time>
      </trkpt>
      <trkpt lat="43.2178907" lon="-3.0291107">
        <ele>65.2</ele>
        <time>2018-10-21T10:44:23Z</time>
      </trkpt>
      <trkpt lat="43.2180213" lon="-3.0289417">
        <ele>65.8</ele>
        <time>2018-10-21T10:44:25Z</time>
      </trkpt>
      <trkpt lat="43.2181598" lon="-3.0287673">
        <ele>65.9</ele>
        <time>2018-10-21T10:44:27Z</time>
      </trkpt>
      <trkpt lat="43.2182775" lon="-3.0285412">
        <ele>66.0</ele>
        <time>2018-10-21T10:44:29Z</time>
      </trkpt>
      <trkpt lat="43.2184205" lon="-3.028337">
        <ele>66.0</ele>
        <time>2018-10-21T10:44:31Z</time>
      </trkpt>
      <trkpt lat="43.218548" lon="-3.0281382">
        <ele>66.0</ele>
        <time>2018-10-21T10:44:33Z</time>
      </trkpt>
      <trkpt lat="43.2186759" lon="-3.0279416">
        <ele>66.0</ele>
        <time>2018-10-21T10:44:35Z</time>
      </trkpt>
      <trkpt lat="43.2188046" lon="-3.027747">
        <ele>66.0</ele>
        <time>2018-10-21T10:44:37Z</time>
      </trkpt>
      <trkpt lat="43.2189797" lon="-3.0275255">
        <ele>66.0</ele>
        <time>2018-10-21T10:44:39Z</time>
      </trkpt>
      <trkpt lat="43.2191456" lon="-3.0273023">
        <ele>66.0</ele>
        <time>2018-10-21T10:44:41Z</time>
      </trkpt>
      <trkpt lat="43.219351" lon="-3.0270939">
        <ele>66.0</ele>
        <time>2018-10-21T10:44:43Z</time>
      </trkpt>
      <trkpt lat="43.219574" lon="-3.0269401">
        <ele>66.0</ele>
        <time>2018-10-21T10:44:45Z</time>
      </trkpt>
      <trkpt lat="43.2198136" lon="-3.026765">
        <ele>66.0</ele>
        <time>2018-10-21T10:44:47Z</time>
      </trkpt>
      <trkpt lat="43.2202454" lon="-3.0265837">
        <ele>66.0</ele>
        <time>2018-10-21T10:44:50Z</time>
      </trkpt>
      <trkpt lat="43.2208095" lon="-3.0263615">
        <ele>66.0</ele>
        <time>2018-10-21T10:44:54Z</time>
      </trkpt>
      <trkpt lat="43.2209426" lon="-3.0263146">
        <ele>65.6</ele>
        <time>2018-10-21T10:44:55Z</time>
      </trkpt>
      <trkpt lat="43.2212934" lon="-3.0261298">
        <ele>64.3</ele>
        <time>2018-10-21T10:44:58Z</time>
      </trkpt>
      <trkpt lat="43.2213967" lon="-3.0260533">
        <ele>64.3</ele>
        <time>2018-10-21T10:44:59Z</time>
      </trkpt>
      <trkpt lat="43.2214819" lon="-3.0259791">
        <ele>64.3</ele>
        <time>2018-10-21T10:45:00Z</time>
      </trkpt>
      <trkpt lat="43.2215695" lon="-3.0258977">
        <ele>64.3</ele>
        <time>2018-10-21T10:45:01Z</time>
      </trkpt>
      <trkpt lat="43.2216526" lon="-3.0258241">
        <ele>64.1</ele>
        <time>2018-10-21T10:45:02Z</time>
      </trkpt>
      <trkpt lat="43.2218394" lon="-3.0257152">
        <ele>63.8</ele>
        <time>2018-10-21T10:45:04Z</time>
      </trkpt>
      <trkpt lat="43.2220211" lon="-3.0255909">
        <ele>61.0</ele>
        <time>2018-10-21T10:45:06Z</time>
      </trkpt>
      <trkpt lat="43.2221164" lon="-3.0255626">
        <ele>61.0</ele>
        <time>2018-10-21T10:45:07Z</time>
      </trkpt>
      <trkpt lat="43.2222148" lon="-3.0254977">
        <ele>61.0</ele>
        <time>2018-10-21T10:45:08Z</time>
      </trkpt>
      <trkpt lat="43.2223008" lon="-3.0254323">
        <ele>61.0</ele>
        <time>2018-10-21T10:45:09Z</time>
      </trkpt>
      <trkpt lat="43.2223838" lon="-3.0253544">
        <ele>61.0</ele>
        <time>2018-10-21T10:45:10Z</time>
      </trkpt>
      <trkpt lat="43.2224665" lon="-3.0252812">
        <ele>59.7</ele>
        <time>2018-10-21T10:45:11Z</time>
      </trkpt>
      <trkpt lat="43.2226446" lon="-3.0251532">
        <ele>58.0</ele>
        <time>2018-10-21T10:45:13Z</time>
      </trkpt>
      <trkpt lat="43.2228231" lon="-3.0249966">
        <ele>56.1</ele>
        <time>2018-10-21T10:45:15Z</time>
      </trkpt>
      <trkpt lat="43.2229917" lon="-3.0248832">
        <ele>53.8</ele>
        <time>2018-10-21T10:45:17Z</time>
      </trkpt>
      <trkpt lat="43.2231519" lon="-3.0247758">
        <ele>52.0</ele>
        <time>2018-10-21T10:45:19Z</time>
      </trkpt>
      <trkpt lat="43.2233091" lon="-3.0246687">
        <ele>50.8</ele>
        <time>2018-10-21T10:45:21Z</time>
      </trkpt>
      <trkpt lat="43.22347" lon="-3.024572">
        <ele>50.1</ele>
        <time>2018-10-21T10:45:23Z</time>
      </trkpt>
      <trkpt lat="43.2236231" lon="-3.024477">
        <ele>49.7</ele>
        <time>2018-10-21T10:45:25Z</time>
      </trkpt>
      <trkpt lat="43.2237797" lon="-3.0244242">
        <ele>49.4</ele>
        <time>2018-10-21T10:45:27Z</time>
      </trkpt>
      <trkpt lat="43.2240125" lon="-3.024269">
        <ele>49.3</ele>
        <time>2018-10-21T10:45:30Z</time>
      </trkpt>
      <trkpt lat="43.2241584" lon="-3.0241552">
        <ele>49.2</ele>
        <time>2018-10-21T10:45:32Z</time>
      </trkpt>
      <trkpt lat="43.2242892" lon="-3.024026">
        <ele>48.7</ele>
        <time>2018-10-21T10:45:34Z</time>
      </trkpt>
      <trkpt lat="43.2244167" lon="-3.0238781">
        <ele>48.0</ele>
        <time>2018-10-21T10:45:36Z</time>
      </trkpt>
      <trkpt lat="43.2245311" lon="-3.0237055">
        <ele>47.4</ele>
        <time>2018-10-21T10:45:38Z</time>
      </trkpt>
      <trkpt lat="43.2246488" lon="-3.0235303">
        <ele>46.6</ele>
        <time>2018-10-21T10:45:40Z</time>
      </trkpt>
      <trkpt lat="43.2247536" lon="-3.02336">
        <ele>46.3</ele>
        <time>2018-10-21T10:45:42Z</time>
      </trkpt>
      <trkpt lat="43.224854" lon="-3.023162">
        <ele>46.1</ele>
        <time>2018-10-21T10:45:44Z</time>
      </trkpt>
      <trkpt lat="43.2249404" lon="-3.0229531">
        <ele>46.0</ele>
        <time>2018-10-21T10:45:46Z</time>
      </trkpt>
      <trkpt lat="43.2250267" lon="-3.0227421">
        <ele>45.9</ele>
        <time>2018-10-21T10:45:48Z</time>
      </trkpt>
      <trkpt lat="43.2251158" lon="-3.0225369">
        <ele>45.9</ele>
        <time>2018-10-21T10:45:50Z</time>
      </trkpt>
      <trkpt lat="43.2252002" lon="-3.0223223">
        <ele>45.9</ele>
        <time>2018-10-21T10:45:52Z</time>
      </trkpt>
      <trkpt lat="43.2252828" lon="-3.0221121">
        <ele>45.8</ele>
        <time>2018-10-21T10:45:54Z</time>
      </trkpt>
      <trkpt lat="43.2253652" lon="-3.0218952">
        <ele>45.8</ele>
        <time>2018-10-21T10:45:56Z</time>
      </trkpt>
      <trkpt lat="43.225433" lon="-3.0216713">
        <ele>45.7</ele>
        <time>2018-10-21T10:45:58Z</time>
      </trkpt>
      <trkpt lat="43.2254949" lon="-3.0214466">
        <ele>45.6</ele>
        <time>2018-10-21T10:46:00Z</time>
      </trkpt>
      <trkpt lat="43.2255373" lon="-3.0212121">
        <ele>45.6</ele>
        <time>2018-10-21T10:46:02Z</time>
      </trkpt>
      <trkpt lat="43.2255752" lon="-3.020977">
        <ele>45.6</ele>
        <time>2018-10-21T10:46:04Z</time>
      </trkpt>
      <trkpt lat="43.2256143" lon="-3.0207472">
        <ele>45.5</ele>
        <time>2018-10-21T10:46:06Z</time>
      </trkpt>
      <trkpt lat="43.2256601" lon="-3.0205123">
        <ele>45.5</ele>
        <time>2018-10-21T10:46:08Z</time>
      </trkpt>
      <trkpt lat="43.2256983" lon="-3.0202787">
        <ele>45.4</ele>
        <time>2018-10-21T10:46:10Z</time>
      </trkpt>
      <trkpt lat="43.2257402" lon="-3.0200546">
        <ele>45.2</ele>
        <time>2018-10-21T10:46:12Z</time>
      </trkpt>
      <trkpt lat="43.2257809" lon="-3.019827">
        <ele>44.9</ele>
        <time>2018-10-21T10:46:14Z</time>
      </trkpt>
      <trkpt lat="43.225817" lon="-3.0196012">
        <ele>44.8</ele>
        <time>2018-10-21T10:46:16Z</time>
      </trkpt>
      <trkpt lat="43.2258625" lon="-3.0193604">
        <ele>44.7</ele>
        <time>2018-10-21T10:46:18Z</time>
      </trkpt>
      <trkpt lat="43.2258981" lon="-3.0191256">
        <ele>44.6</ele>
        <time>2018-10-21T10:46:20Z</time>
      </trkpt>
      <trkpt lat="43.2259287" lon="-3.0188874">
        <ele>44.5</ele>
        <time>2018-10-21T10:46:22Z</time>
      </trkpt>
      <trkpt lat="43.2259788" lon="-3.0186548">
        <ele>44.4</ele>
        <time>2018-10-21T10:46:24Z</time>
      </trkpt>
      <trkpt lat="43.2260372" lon="-3.0184265">
        <ele>44.2</ele>
        <time>2018-10-21T10:46:26Z</time>
      </trkpt>
      <trkpt lat="43.2261199" lon="-3.0182163">
        <ele>44.0</ele>
        <time>2018-10-21T10:46:28Z</time>
      </trkpt>
      <trkpt lat="43.2262032" lon="-3.0180085">
        <ele>43.9</ele>
        <time>2018-10-21T10:46:30Z</time>
      </trkpt>
      <trkpt lat="43.2263001" lon="-3.0178238">
        <ele>43.9</ele>
        <time>2018-10-21T10:46:32Z</time>
      </trkpt>
      <trkpt lat="43.2264131" lon="-3.0176527">
        <ele>43.9</ele>
        <time>2018-10-21T10:46:34Z</time>
      </trkpt>
      <trkpt lat="43.2265411" lon="-3.0175059">
        <ele>43.9</ele>
        <time>2018-10-21T10:46:36Z</time>
      </trkpt>
      <trkpt lat="43.2266715" lon="-3.0173718">
        <ele>43.8</ele>
        <time>2018-10-21T10:46:38Z</time>
      </trkpt>
      <trkpt lat="43.2268053" lon="-3.017253">
        <ele>43.8</ele>
        <time>2018-10-21T10:46:40Z</time>
      </trkpt>
      <trkpt lat="43.2269462" lon="-3.017142">
        <ele>43.7</ele>
        <time>2018-10-21T10:46:42Z</time>
      </trkpt>
      <trkpt lat="43.2272378" lon="-3.0169428">
        <ele>43.7</ele>
        <time>2018-10-21T10:46:46Z</time>
      </trkpt>
      <trkpt lat="43.2274612" lon="-3.0167984">
        <ele>43.6</ele>
        <time>2018-10-21T10:46:49Z</time>
      </trkpt>
      <trkpt lat="43.2276154" lon="-3.0167078">
        <ele>43.6</ele>
        <time>2018-10-21T10:46:51Z</time>
      </trkpt>
      <trkpt lat="43.2277765" lon="-3.0166117">
        <ele>43.5</ele>
        <time>2018-10-21T10:46:53Z</time>
      </trkpt>
      <trkpt lat="43.2280066" lon="-3.0164582">
        <ele>43.5</ele>
        <time>2018-10-21T10:46:56Z</time>
      </trkpt>
      <trkpt lat="43.2281637" lon="-3.016366">
        <ele>43.5</ele>
        <time>2018-10-21T10:46:58Z</time>
      </trkpt>
      <trkpt lat="43.228308" lon="-3.0162635">
        <ele>43.4</ele>
        <time>2018-10-21T10:47:00Z</time>
      </trkpt>
      <trkpt lat="43.2284515" lon="-3.0161492">
        <ele>43.4</ele>
        <time>2018-10-21T10:47:02Z</time>
      </trkpt>
      <trkpt lat="43.2285976" lon="-3.0160359">
        <ele>43.3</ele>
        <time>2018-10-21T10:47:04Z</time>
      </trkpt>
      <trkpt lat="43.2287376" lon="-3.0159243">
        <ele>43.3</ele>
        <time>2018-10-21T10:47:06Z</time>
      </trkpt>
      <trkpt lat="43.2288648" lon="-3.0157992">
        <ele>43.2</ele>
        <time>2018-10-21T10:47:08Z</time>
      </trkpt>
      <trkpt lat="43.228999" lon="-3.0156794">
        <ele>43.2</ele>
        <time>2018-10-21T10:47:10Z</time>
      </trkpt>
      <trkpt lat="43.229142" lon="-3.01556">
        <ele>43.0</ele>
        <time>2018-10-21T10:47:12Z</time>
      </trkpt>
      <trkpt lat="43.2292762" lon="-3.0154357">
        <ele>42.6</ele>
        <time>2018-10-21T10:47:14Z</time>
      </trkpt>
      <trkpt lat="43.2294175" lon="-3.0153036">
        <ele>42.4</ele>
        <time>2018-10-21T10:47:16Z</time>
      </trkpt>
      <trkpt lat="43.2295541" lon="-3.0151765">
        <ele>42.1</ele>
        <time>2018-10-21T10:47:18Z</time>
      </trkpt>
      <trkpt lat="43.2296926" lon="-3.0150603">
        <ele>41.8</ele>
        <time>2018-10-21T10:47:20Z</time>
      </trkpt>
      <trkpt lat="43.2298264" lon="-3.0149365">
        <ele>41.6</ele>
        <time>2018-10-21T10:47:22Z</time>
      </trkpt>
      <trkpt lat="43.2299837" lon="-3.0148183">
        <ele>41.2</ele>
        <time>2018-10-21T10:47:24Z</time>
      </trkpt>
      <trkpt lat="43.2301247" lon="-3.0147195">
        <ele>41.1</ele>
        <time>2018-10-21T10:47:26Z</time>
      </trkpt>
      <trkpt lat="43.2302397" lon="-3.0145942">
        <ele>40.9</ele>
        <time>2018-10-21T10:47:28Z</time>
      </trkpt>
      <trkpt lat="43.2303646" lon="-3.0144625">
        <ele>40.7</ele>
        <time>2018-10-21T10:47:30Z</time>
      </trkpt>
      <trkpt lat="43.2304928" lon="-3.0143478">
        <ele>40.6</ele>
        <time>2018-10-21T10:47:32Z</time>
      </trkpt>
      <trkpt lat="43.2306224" lon="-3.0142196">
        <ele>40.6</ele>
        <time>2018-10-21T10:47:34Z</time>
      </trkpt>
      <trkpt lat="43.2307548" lon="-3.0141026">
        <ele>40.3</ele>
        <time>2018-10-21T10:47:36Z</time>
      </trkpt>
      <trkpt lat="43.2308763" lon="-3.0139828">
        <ele>40.1</ele>
        <time>2018-10-21T10:47:38Z</time>
      </trkpt>
      <trkpt lat="43.2310175" lon="-3.0138719">
        <ele>39.8</ele>
        <time>2018-10-21T10:47:40Z</time>
      </trkpt>
      <trkpt lat="43.2311419" lon="-3.0137588">
        <ele>39.4</ele>
        <time>2018-10-21T10:47:42Z</time>
      </trkpt>
      <trkpt lat="43.2312575" lon="-3.0136399">
        <ele>39.2</ele>
        <time>2018-10-21T10:47:44Z</time>
      </trkpt>
      <trkpt lat="43.231373" lon="-3.0135186">
        <ele>39.1</ele>
        <time>2018-10-21T10:47:46Z</time>
      </trkpt>
      <trkpt lat="43.2315393" lon="-3.013373">
        <ele>39.1</ele>
        <time>2018-10-21T10:47:49Z</time>
      </trkpt>
      <trkpt lat="43.2316667" lon="-3.013326">
        <ele>39.1</ele>
        <time>2018-10-21T10:47:51Z</time>
      </trkpt>
      <trkpt lat="43.2318352" lon="-3.0133167">
        <ele>39.1</ele>
        <time>2018-10-21T10:47:54Z</time>
      </trkpt>
      <trkpt lat="43.2319909" lon="-3.0133888">
        <ele>39.1</ele>
        <time>2018-10-21T10:47:57Z</time>
      </trkpt>
      <trkpt lat="43.232143" lon="-3.0135001">
        <ele>39.1</ele>
        <time>2018-10-21T10:48:00Z</time>
      </trkpt>
      <trkpt lat="43.2323154" lon="-3.0136298">
        <ele>39.1</ele>
        <time>2018-10-21T10:48:03Z</time>
      </trkpt>
      <trkpt lat="43.2324359" lon="-3.0136983">
        <ele>39.1</ele>
        <time>2018-10-21T10:48:05Z</time>
      </trkpt>
      <trkpt lat="43.2325485" lon="-3.0137819">
        <ele>39.1</ele>
        <time>2018-10-21T10:48:07Z</time>
      </trkpt>
      <trkpt lat="43.2326628" lon="-3.0138984">
        <ele>39.1</ele>
        <time>2018-10-21T10:48:09Z</time>
      </trkpt>
      <trkpt lat="43.2327763" lon="-3.014016">
        <ele>39.1</ele>
        <time>2018-10-21T10:48:11Z</time>
      </trkpt>
      <trkpt lat="43.2329279" lon="-3.0142388">
        <ele>39.1</ele>
        <time>2018-10-21T10:48:14Z</time>
      </trkpt>
      <trkpt lat="43.2330545" lon="-3.0143994">
        <ele>39.3</ele>
        <time>2018-10-21T10:48:16Z</time>
      </trkpt>
      <trkpt lat="43.2331825" lon="-3.0145498">
        <ele>39.6</ele>
        <time>2018-10-21T10:48:18Z</time>
      </trkpt>
      <trkpt lat="43.2333291" lon="-3.0146397">
        <ele>40.0</ele>
        <time>2018-10-21T10:48:20Z</time>
      </trkpt>
      <trkpt lat="43.233466" lon="-3.0147313">
        <ele>40.3</ele>
        <time>2018-10-21T10:48:22Z</time>
      </trkpt>
      <trkpt lat="43.2336059" lon="-3.0148024">
        <ele>40.4</ele>
        <time>2018-10-21T10:48:24Z</time>
      </trkpt>
      <trkpt lat="43.2337519" lon="-3.0148748">
        <ele>40.8</ele>
        <time>2018-10-21T10:48:26Z</time>
      </trkpt>
      <trkpt lat="43.2339525" lon="-3.0149972">
        <ele>41.2</ele>
        <time>2018-10-21T10:48:29Z</time>
      </trkpt>
      <trkpt lat="43.2341648" lon="-3.0150976">
        <ele>41.4</ele>
        <time>2018-10-21T10:48:32Z</time>
      </trkpt>
      <trkpt lat="43.2342843" lon="-3.0151775">
        <ele>41.6</ele>
        <time>2018-10-21T10:48:34Z</time>
      </trkpt>
      <trkpt lat="43.2344898" lon="-3.0152737">
        <ele>41.8</ele>
        <time>2018-10-21T10:48:37Z</time>
      </trkpt>
      <trkpt lat="43.2347318" lon="-3.0152693">
        <ele>42.2</ele>
        <time>2018-10-21T10:48:41Z</time>
      </trkpt>
      <trkpt lat="43.234787" lon="-3.0152511">
        <ele>42.2</ele>
        <time>2018-10-21T10:48:42Z</time>
      </trkpt>
      <trkpt lat="43.2348372" lon="-3.0152262">
        <ele>42.2</ele>
        <time>2018-10-21T10:48:43Z</time>
      </trkpt>
      <trkpt lat="43.23488" lon="-3.0152053">
        <ele>42.2</ele>
        <time>2018-10-21T10:48:44Z</time>
      </trkpt>
      <trkpt lat="43.2349274" lon="-3.0151727">
        <ele>42.2</ele>
        <time>2018-10-21T10:48:45Z</time>
      </trkpt>
      <trkpt lat="43.2349737" lon="-3.0151296">
        <ele>42.3</ele>
        <time>2018-10-21T10:48:46Z</time>
      </trkpt>
      <trkpt lat="43.2350729" lon="-3.0149928">
        <ele>42.4</ele>
        <time>2018-10-21T10:48:48Z</time>
      </trkpt>
      <trkpt lat="43.2351607" lon="-3.0148429">
        <ele>42.4</ele>
        <time>2018-10-21T10:48:50Z</time>
      </trkpt>
      <trkpt lat="43.2352419" lon="-3.0146645">
        <ele>42.5</ele>
        <time>2018-10-21T10:48:52Z</time>
      </trkpt>
      <trkpt lat="43.2353223" lon="-3.0144448">
        <ele>42.5</ele>
        <time>2018-10-21T10:48:54Z</time>
      </trkpt>
      <trkpt lat="43.2353626" lon="-3.0142044">
        <ele>42.5</ele>
        <time>2018-10-21T10:48:56Z</time>
      </trkpt>
      <trkpt lat="43.2354192" lon="-3.0139618">
        <ele>42.5</ele>
        <time>2018-10-21T10:48:58Z</time>
      </trkpt>
      <trkpt lat="43.2354609" lon="-3.0137201">
        <ele>42.4</ele>
        <time>2018-10-21T10:49:00Z</time>
      </trkpt>
      <trkpt lat="43.2354973" lon="-3.0134632">
        <ele>42.3</ele>
        <time>2018-10-21T10:49:02Z</time>
      </trkpt>
      <trkpt lat="43.2355027" lon="-3.0131996">
        <ele>42.3</ele>
        <time>2018-10-21T10:49:04Z</time>
      </trkpt>
      <trkpt lat="43.2354975" lon="-3.0129282">
        <ele>42.2</ele>
        <time>2018-10-21T10:49:06Z</time>
      </trkpt>
      <trkpt lat="43.2354909" lon="-3.0126666">
        <ele>42.1</ele>
        <time>2018-10-21T10:49:08Z</time>
      </trkpt>
      <trkpt lat="43.2354942" lon="-3.0124196">
        <ele>41.9</ele>
        <time>2018-10-21T10:49:10Z</time>
      </trkpt>
      <trkpt lat="43.2354939" lon="-3.012189">
        <ele>41.7</ele>
        <time>2018-10-21T10:49:12Z</time>
      </trkpt>
      <trkpt lat="43.2354995" lon="-3.0119521">
        <ele>41.6</ele>
        <time>2018-10-21T10:49:14Z</time>
      </trkpt>
      <trkpt lat="43.235527" lon="-3.011706">
        <ele>41.6</ele>
        <time>2018-10-21T10:49:16Z</time>
      </trkpt>
      <trkpt lat="43.235539" lon="-3.011482">
        <ele>41.6</ele>
        <time>2018-10-21T10:49:18Z</time>
      </trkpt>
      <trkpt lat="43.235547" lon="-3.0112686">
        <ele>41.5</ele>
        <time>2018-10-21T10:49:20Z</time>
      </trkpt>
      <trkpt lat="43.2355311" lon="-3.0110558">
        <ele>41.5</ele>
        <time>2018-10-21T10:49:22Z</time>
      </trkpt>
      <trkpt lat="43.2354945" lon="-3.0108502">
        <ele>41.5</ele>
        <time>2018-10-21T10:49:24Z</time>
      </trkpt>
      <trkpt lat="43.2354481" lon="-3.010652">
        <ele>40.4</ele>
        <time>2018-10-21T10:49:26Z</time>
      </trkpt>
      <trkpt lat="43.2354692" lon="-3.0104013">
        <ele>39.6</ele>
        <time>2018-10-21T10:49:29Z</time>
      </trkpt>
      <trkpt lat="43.2355481" lon="-3.0102243">
        <ele>38.2</ele>
        <time>2018-10-21T10:49:31Z</time>
      </trkpt>
      <trkpt lat="43.2356026" lon="-3.0100296">
        <ele>37.5</ele>
        <time>2018-10-21T10:49:33Z</time>
      </trkpt>
      <trkpt lat="43.2356564" lon="-3.009832">
        <ele>36.9</ele>
        <time>2018-10-21T10:49:35Z</time>
      </trkpt>
      <trkpt lat="43.2356977" lon="-3.0096323">
        <ele>36.2</ele>
        <time>2018-10-21T10:49:37Z</time>
      </trkpt>
      <trkpt lat="43.2357402" lon="-3.0094366">
        <ele>35.9</ele>
        <time>2018-10-21T10:49:39Z</time>
      </trkpt>
      <trkpt lat="43.2357865" lon="-3.0092312">
        <ele>35.7</ele>
        <time>2018-10-21T10:49:41Z</time>
      </trkpt>
      <trkpt lat="43.2358395" lon="-3.0090285">
        <ele>35.6</ele>
        <time>2018-10-21T10:49:43Z</time>
      </trkpt>
      <trkpt lat="43.2358828" lon="-3.0088285">
        <ele>35.5</ele>
        <time>2018-10-21T10:49:45Z</time>
      </trkpt>
      <trkpt lat="43.2359252" lon="-3.0086318">
        <ele>35.2</ele>
        <time>2018-10-21T10:49:47Z</time>
      </trkpt>
      <trkpt lat="43.2359724" lon="-3.0084366">
        <ele>35.1</ele>
        <time>2018-10-21T10:49:49Z</time>
      </trkpt>
      <trkpt lat="43.2360106" lon="-3.0082345">
        <ele>35.0</ele>
        <time>2018-10-21T10:49:51Z</time>
      </trkpt>
      <trkpt lat="43.2360564" lon="-3.0080318">
        <ele>34.8</ele>
        <time>2018-10-21T10:49:53Z</time>
      </trkpt>
      <trkpt lat="43.2360968" lon="-3.0078248">
        <ele>34.7</ele>
        <time>2018-10-21T10:49:55Z</time>
      </trkpt>
      <trkpt lat="43.2361436" lon="-3.0076248">
        <ele>34.7</ele>
        <time>2018-10-21T10:49:57Z</time>
      </trkpt>
      <trkpt lat="43.2361954" lon="-3.0074212">
        <ele>34.4</ele>
        <time>2018-10-21T10:49:59Z</time>
      </trkpt>
      <trkpt lat="43.2362414" lon="-3.0072084">
        <ele>34.2</ele>
        <time>2018-10-21T10:50:01Z</time>
      </trkpt>
      <trkpt lat="43.2362756" lon="-3.0069972">
        <ele>33.7</ele>
        <time>2018-10-21T10:50:03Z</time>
      </trkpt>
      <trkpt lat="43.236326" lon="-3.0067911">
        <ele>33.6</ele>
        <time>2018-10-21T10:50:05Z</time>
      </trkpt>
      <trkpt lat="43.2363784" lon="-3.0065919">
        <ele>33.3</ele>
        <time>2018-10-21T10:50:07Z</time>
      </trkpt>
      <trkpt lat="43.2364348" lon="-3.0063695">
        <ele>33.1</ele>
        <time>2018-10-21T10:50:09Z</time>
      </trkpt>
      <trkpt lat="43.2364843" lon="-3.0061484">
        <ele>33.0</ele>
        <time>2018-10-21T10:50:11Z</time>
      </trkpt>
      <trkpt lat="43.2365162" lon="-3.0059438">
        <ele>32.5</ele>
        <time>2018-10-21T10:50:13Z</time>
      </trkpt>
      <trkpt lat="43.2365735" lon="-3.0057634">
        <ele>32.3</ele>
        <time>2018-10-21T10:50:15Z</time>
      </trkpt>
      <trkpt lat="43.2366206" lon="-3.0055722">
        <ele>32.2</ele>
        <time>2018-10-21T10:50:17Z</time>
      </trkpt>
      <trkpt lat="43.2366772" lon="-3.0053635">
        <ele>31.8</ele>
        <time>2018-10-21T10:50:19Z</time>
      </trkpt>
      <trkpt lat="43.2367253" lon="-3.0051644">
        <ele>31.5</ele>
        <time>2018-10-21T10:50:21Z</time>
      </trkpt>
      <trkpt lat="43.2367771" lon="-3.0049461">
        <ele>31.3</ele>
        <time>2018-10-21T10:50:23Z</time>
      </trkpt>
      <trkpt lat="43.2368347" lon="-3.0047444">
        <ele>31.2</ele>
        <time>2018-10-21T10:50:25Z</time>
      </trkpt>
      <trkpt lat="43.2368786" lon="-3.0045553">
        <ele>31.2</ele>
        <time>2018-10-21T10:50:27Z</time>
      </trkpt>
      <trkpt lat="43.2369391" lon="-3.0043678">
        <ele>31.2</ele>
        <time>2018-10-21T10:50:29Z</time>
      </trkpt>
      <trkpt lat="43.2370325" lon="-3.0041947">
        <ele>31.2</ele>
        <time>2018-10-21T10:50:31Z</time>
      </trkpt>
      <trkpt lat="43.2371289" lon="-3.0040241">
        <ele>31.2</ele>
        <time>2018-10-21T10:50:33Z</time>
      </trkpt>
      <trkpt lat="43.237217" lon="-3.0038693">
        <ele>31.2</ele>
        <time>2018-10-21T10:50:35Z</time>
      </trkpt>
      <trkpt lat="43.2372926" lon="-3.0036924">
        <ele>31.2</ele>
        <time>2018-10-21T10:50:37Z</time>
      </trkpt>
      <trkpt lat="43.2373803" lon="-3.0035268">
        <ele>31.2</ele>
        <time>2018-10-21T10:50:39Z</time>
      </trkpt>
      <trkpt lat="43.2374657" lon="-3.0033584">
        <ele>31.2</ele>
        <time>2018-10-21T10:50:41Z</time>
      </trkpt>
      <trkpt lat="43.237535" lon="-3.0031792">
        <ele>31.2</ele>
        <time>2018-10-21T10:50:43Z</time>
      </trkpt>
      <trkpt lat="43.2375965" lon="-3.0029255">
        <ele>31.2</ele>
        <time>2018-10-21T10:50:46Z</time>
      </trkpt>
      <trkpt lat="43.2376584" lon="-3.002721">
        <ele>31.2</ele>
        <time>2018-10-21T10:50:49Z</time>
      </trkpt>
      <trkpt lat="43.2377339" lon="-3.0025221">
        <ele>31.3</ele>
        <time>2018-10-21T10:50:52Z</time>
      </trkpt>
      <trkpt lat="43.2377708" lon="-3.0023277">
        <ele>31.4</ele>
        <time>2018-10-21T10:50:55Z</time>
      </trkpt>
      <trkpt lat="43.2378417" lon="-3.0021356">
        <ele>31.6</ele>
        <time>2018-10-21T10:50:58Z</time>
      </trkpt>
      <trkpt lat="43.2379058" lon="-3.0019474">
        <ele>31.8</ele>
        <time>2018-10-21T10:51:01Z</time>
      </trkpt>
      <trkpt lat="43.2379429" lon="-3.0017612">
        <ele>32.0</ele>
        <time>2018-10-21T10:51:04Z</time>
      </trkpt>
      <trkpt lat="43.2380022" lon="-3.0015465">
        <ele>32.3</ele>
        <time>2018-10-21T10:51:07Z</time>
      </trkpt>
      <trkpt lat="43.238059" lon="-3.0013183">
        <ele>32.5</ele>
        <time>2018-10-21T10:51:10Z</time>
      </trkpt>
      <trkpt lat="43.2381122" lon="-3.001103">
        <ele>33.4</ele>
        <time>2018-10-21T10:51:13Z</time>
      </trkpt>
      <trkpt lat="43.2381864" lon="-3.0008823">
        <ele>34.7</ele>
        <time>2018-10-21T10:51:16Z</time>
      </trkpt>
      <trkpt lat="43.2382913" lon="-3.0006759">
        <ele>35.8</ele>
        <time>2018-10-21T10:51:19Z</time>
      </trkpt>
      <trkpt lat="43.2383619" lon="-3.0004731">
        <ele>36.7</ele>
        <time>2018-10-21T10:51:22Z</time>
      </trkpt>
      <trkpt lat="43.2384488" lon="-3.0002779">
        <ele>37.4</ele>
        <time>2018-10-21T10:51:25Z</time>
      </trkpt>
      <trkpt lat="43.2385533" lon="-3.0000651">
        <ele>38.0</ele>
        <time>2018-10-21T10:51:28Z</time>
      </trkpt>
      <trkpt lat="43.2386738" lon="-2.9999127">
        <ele>38.7</ele>
        <time>2018-10-21T10:51:31Z</time>
      </trkpt>
      <trkpt lat="43.2388106" lon="-2.9997365">
        <ele>39.0</ele>
        <time>2018-10-21T10:51:34Z</time>
      </trkpt>
      <trkpt lat="43.2389159" lon="-2.9996032">
        <ele>39.2</ele>
        <time>2018-10-21T10:51:36Z</time>
      </trkpt>
      <trkpt lat="43.2390199" lon="-2.9994636">
        <ele>39.3</ele>
        <time>2018-10-21T10:51:38Z</time>
      </trkpt>
      <trkpt lat="43.2391131" lon="-2.9992994">
        <ele>39.3</ele>
        <time>2018-10-21T10:51:40Z</time>
      </trkpt>
      <trkpt lat="43.2391982" lon="-2.9991422">
        <ele>39.3</ele>
        <time>2018-10-21T10:51:42Z</time>
      </trkpt>
      <trkpt lat="43.2392971" lon="-2.9989945">
        <ele>39.3</ele>
        <time>2018-10-21T10:51:44Z</time>
      </trkpt>
      <trkpt lat="43.2393823" lon="-2.998823">
        <ele>39.3</ele>
        <time>2018-10-21T10:51:46Z</time>
      </trkpt>
      <trkpt lat="43.2394871" lon="-2.998648">
        <ele>39.3</ele>
        <time>2018-10-21T10:51:48Z</time>
      </trkpt>
      <trkpt lat="43.2396096" lon="-2.9984715">
        <ele>39.3</ele>
        <time>2018-10-21T10:51:50Z</time>
      </trkpt>
      <trkpt lat="43.2397215" lon="-2.9982856">
        <ele>39.3</ele>
        <time>2018-10-21T10:51:52Z</time>
      </trkpt>
      <trkpt lat="43.2398365" lon="-2.998096">
        <ele>39.3</ele>
        <time>2018-10-21T10:51:54Z</time>
      </trkpt>
      <trkpt lat="43.239937" lon="-2.9979018">
        <ele>39.3</ele>
        <time>2018-10-21T10:51:56Z</time>
      </trkpt>
      <trkpt lat="43.2400427" lon="-2.9977086">
        <ele>39.3</ele>
        <time>2018-10-21T10:51:58Z</time>
      </trkpt>
      <trkpt lat="43.2401287" lon="-2.9975055">
        <ele>39.3</ele>
        <time>2018-10-21T10:52:00Z</time>
      </trkpt>
      <trkpt lat="43.2402031" lon="-2.9972894">
        <ele>39.3</ele>
        <time>2018-10-21T10:52:02Z</time>
      </trkpt>
      <trkpt lat="43.2402659" lon="-2.9970741">
        <ele>39.3</ele>
        <time>2018-10-21T10:52:04Z</time>
      </trkpt>
      <trkpt lat="43.2403471" lon="-2.9968883">
        <ele>39.3</ele>
        <time>2018-10-21T10:52:06Z</time>
      </trkpt>
      <trkpt lat="43.2404539" lon="-2.9967181">
        <ele>39.2</ele>
        <time>2018-10-21T10:52:08Z</time>
      </trkpt>
      <trkpt lat="43.2405528" lon="-2.9965239">
        <ele>39.1</ele>
        <time>2018-10-21T10:52:10Z</time>
      </trkpt>
      <trkpt lat="43.2406511" lon="-2.9963348">
        <ele>38.9</ele>
        <time>2018-10-21T10:52:12Z</time>
      </trkpt>
      <trkpt lat="43.2407378" lon="-2.9961487">
        <ele>38.6</ele>
        <time>2018-10-21T10:52:14Z</time>
      </trkpt>
      <trkpt lat="43.2408137" lon="-2.9959546">
        <ele>38.3</ele>
        <time>2018-10-21T10:52:16Z</time>
      </trkpt>
      <trkpt lat="43.2409054" lon="-2.9957552">
        <ele>37.9</ele>
        <time>2018-10-21T10:52:18Z</time>
      </trkpt>
      <trkpt lat="43.2409896" lon="-2.9955484">
        <ele>37.2</ele>
        <time>2018-10-21T10:52:20Z</time>
      </trkpt>
      <trkpt lat="43.2410597" lon="-2.9953381">
        <ele>36.7</ele>
        <time>2018-10-21T10:52:22Z</time>
      </trkpt>
      <trkpt lat="43.241156" lon="-2.995148">
        <ele>35.8</ele>
        <time>2018-10-21T10:52:24Z</time>
      </trkpt>
      <trkpt lat="43.2412661" lon="-2.9949837">
        <ele>34.9</ele>
        <time>2018-10-21T10:52:26Z</time>
      </trkpt>
      <trkpt lat="43.2413755" lon="-2.9948073">
        <ele>34.4</ele>
        <time>2018-10-21T10:52:28Z</time>
      </trkpt>
      <trkpt lat="43.2415164" lon="-2.9946322">
        <ele>34.1</ele>
        <time>2018-10-21T10:52:30Z</time>
      </trkpt>
      <trkpt lat="43.241642" lon="-2.9944756">
        <ele>34.0</ele>
        <time>2018-10-21T10:52:32Z</time>
      </trkpt>
      <trkpt lat="43.2417522" lon="-2.9943292">
        <ele>34.0</ele>
        <time>2018-10-21T10:52:34Z</time>
      </trkpt>
      <trkpt lat="43.2418775" lon="-2.9941539">
        <ele>33.7</ele>
        <time>2018-10-21T10:52:36Z</time>
      </trkpt>
      <trkpt lat="43.2419911" lon="-2.9940033">
        <ele>33.4</ele>
        <time>2018-10-21T10:52:38Z</time>
      </trkpt>
      <trkpt lat="43.2421065" lon="-2.9938337">
        <ele>33.1</ele>
        <time>2018-10-21T10:52:40Z</time>
      </trkpt>
      <trkpt lat="43.2422302" lon="-2.9936554">
        <ele>32.8</ele>
        <time>2018-10-21T10:52:42Z</time>
      </trkpt>
      <trkpt lat="43.2423527" lon="-2.9935004">
        <ele>32.4</ele>
        <time>2018-10-21T10:52:44Z</time>
      </trkpt>
      <trkpt lat="43.2424758" lon="-2.9933433">
        <ele>31.9</ele>
        <time>2018-10-21T10:52:46Z</time>
      </trkpt>
      <trkpt lat="43.2425839" lon="-2.9931722">
        <ele>31.4</ele>
        <time>2018-10-21T10:52:48Z</time>
      </trkpt>
      <trkpt lat="43.2426977" lon="-2.9930078">
        <ele>30.9</ele>
        <time>2018-10-21T10:52:50Z</time>
      </trkpt>
      <trkpt lat="43.2428142" lon="-2.9928452">
        <ele>30.5</ele>
        <time>2018-10-21T10:52:52Z</time>
      </trkpt>
      <trkpt lat="43.2429283" lon="-2.9926831">
        <ele>29.9</ele>
        <time>2018-10-21T10:52:54Z</time>
      </trkpt>
      <trkpt lat="43.243052" lon="-2.9925362">
        <ele>29.7</ele>
        <time>2018-10-21T10:52:56Z</time>
      </trkpt>
      <trkpt lat="43.2431683" lon="-2.9923733">
        <ele>29.4</ele>
        <time>2018-10-21T10:52:58Z</time>
      </trkpt>
      <trkpt lat="43.243279" lon="-2.9922048">
        <ele>29.3</ele>
        <time>2018-10-21T10:53:00Z</time>
      </trkpt>
      <trkpt lat="43.2433856" lon="-2.9920406">
        <ele>29.2</ele>
        <time>2018-10-21T10:53:02Z</time>
      </trkpt>
      <trkpt lat="43.243483" lon="-2.9918922">
        <ele>29.1</ele>
        <time>2018-10-21T10:53:04Z</time>
      </trkpt>
      <trkpt lat="43.2435936" lon="-2.9917417">
        <ele>29.0</ele>
        <time>2018-10-21T10:53:06Z</time>
      </trkpt>
      <trkpt lat="43.2436928" lon="-2.9916028">
        <ele>28.8</ele>
        <time>2018-10-21T10:53:08Z</time>
      </trkpt>
      <trkpt lat="43.243819" lon="-2.9913972">
        <ele>28.8</ele>
        <time>2018-10-21T10:53:11Z</time>
      </trkpt>
      <trkpt lat="43.2439205" lon="-2.9912577">
        <ele>28.7</ele>
        <time>2018-10-21T10:53:13Z</time>
      </trkpt>
      <trkpt lat="43.2440241" lon="-2.9911246">
        <ele>28.6</ele>
        <time>2018-10-21T10:53:15Z</time>
      </trkpt>
      <trkpt lat="43.2441247" lon="-2.9909833">
        <ele>28.4</ele>
        <time>2018-10-21T10:53:17Z</time>
      </trkpt>
      <trkpt lat="43.2442281" lon="-2.9908567">
        <ele>28.3</ele>
        <time>2018-10-21T10:53:19Z</time>
      </trkpt>
      <trkpt lat="43.2443309" lon="-2.9907113">
        <ele>28.0</ele>
        <time>2018-10-21T10:53:21Z</time>
      </trkpt>
      <trkpt lat="43.2444592" lon="-2.990501">
        <ele>28.0</ele>
        <time>2018-10-21T10:53:24Z</time>
      </trkpt>
      <trkpt lat="43.2446056" lon="-2.9902963">
        <ele>27.9</ele>
        <time>2018-10-21T10:53:27Z</time>
      </trkpt>
      <trkpt lat="43.2447102" lon="-2.9901654">
        <ele>27.9</ele>
        <time>2018-10-21T10:53:29Z</time>
      </trkpt>
      <trkpt lat="43.2448001" lon="-2.9900259">
        <ele>27.9</ele>
        <time>2018-10-21T10:53:31Z</time>
      </trkpt>
      <trkpt lat="43.2449279" lon="-2.9898318">
        <ele>27.9</ele>
        <time>2018-10-21T10:53:34Z</time>
      </trkpt>
      <trkpt lat="43.2450371" lon="-2.9896049">
        <ele>27.9</ele>
        <time>2018-10-21T10:53:37Z</time>
      </trkpt>
      <trkpt lat="43.2450827" lon="-2.9894257">
        <ele>27.9</ele>
        <time>2018-10-21T10:53:39Z</time>
      </trkpt>
      <trkpt lat="43.245113" lon="-2.9892349">
        <ele>27.9</ele>
        <time>2018-10-21T10:53:41Z</time>
      </trkpt>
      <trkpt lat="43.2451591" lon="-2.9890329">
        <ele>27.9</ele>
        <time>2018-10-21T10:53:43Z</time>
      </trkpt>
      <trkpt lat="43.245177" lon="-2.9887703">
        <ele>27.9</ele>
        <time>2018-10-21T10:53:45Z</time>
      </trkpt>
      <trkpt lat="43.2452172" lon="-2.9884868">
        <ele>27.8</ele>
        <time>2018-10-21T10:53:47Z</time>
      </trkpt>
      <trkpt lat="43.2452499" lon="-2.9881984">
        <ele>27.7</ele>
        <time>2018-10-21T10:53:49Z</time>
      </trkpt>
      <trkpt lat="43.2453027" lon="-2.9878986">
        <ele>27.6</ele>
        <time>2018-10-21T10:53:51Z</time>
      </trkpt>
      <trkpt lat="43.2453393" lon="-2.9876016">
        <ele>27.5</ele>
        <time>2018-10-21T10:53:53Z</time>
      </trkpt>
      <trkpt lat="43.2453773" lon="-2.9873218">
        <ele>27.3</ele>
        <time>2018-10-21T10:53:55Z</time>
      </trkpt>
      <trkpt lat="43.2454269" lon="-2.9870471">
        <ele>27.2</ele>
        <time>2018-10-21T10:53:57Z</time>
      </trkpt>
      <trkpt lat="43.2454632" lon="-2.9867872">
        <ele>27.2</ele>
        <time>2018-10-21T10:53:59Z</time>
      </trkpt>
      <trkpt lat="43.2455061" lon="-2.9865326">
        <ele>27.2</ele>
        <time>2018-10-21T10:54:01Z</time>
      </trkpt>
      <trkpt lat="43.2455325" lon="-2.9862872">
        <ele>27.2</ele>
        <time>2018-10-21T10:54:03Z</time>
      </trkpt>
      <trkpt lat="43.2455603" lon="-2.9860327">
        <ele>27.1</ele>
        <time>2018-10-21T10:54:05Z</time>
      </trkpt>
      <trkpt lat="43.2455941" lon="-2.9857658">
        <ele>27.1</ele>
        <time>2018-10-21T10:54:07Z</time>
      </trkpt>
      <trkpt lat="43.2456341" lon="-2.9855167">
        <ele>27.1</ele>
        <time>2018-10-21T10:54:09Z</time>
      </trkpt>
      <trkpt lat="43.2456784" lon="-2.9852624">
        <ele>27.1</ele>
        <time>2018-10-21T10:54:11Z</time>
      </trkpt>
      <trkpt lat="43.2457195" lon="-2.9850015">
        <ele>27.1</ele>
        <time>2018-10-21T10:54:13Z</time>
      </trkpt>
      <trkpt lat="43.2457459" lon="-2.9847674">
        <ele>26.3</ele>
        <time>2018-10-21T10:54:15Z</time>
      </trkpt>
      <trkpt lat="43.2457762" lon="-2.984546">
        <ele>25.5</ele>
        <time>2018-10-21T10:54:17Z</time>
      </trkpt>
      <trkpt lat="43.2458223" lon="-2.9843413">
        <ele>24.2</ele>
        <time>2018-10-21T10:54:19Z</time>
      </trkpt>
      <trkpt lat="43.2458706" lon="-2.9841634">
        <ele>23.3</ele>
        <time>2018-10-21T10:54:21Z</time>
      </trkpt>
      <trkpt lat="43.2459439" lon="-2.9838992">
        <ele>22.9</ele>
        <time>2018-10-21T10:54:24Z</time>
      </trkpt>
      <trkpt lat="43.2460016" lon="-2.9837298">
        <ele>22.5</ele>
        <time>2018-10-21T10:54:26Z</time>
      </trkpt>
      <trkpt lat="43.2460614" lon="-2.9835476">
        <ele>22.3</ele>
        <time>2018-10-21T10:54:28Z</time>
      </trkpt>
      <trkpt lat="43.2461296" lon="-2.9833613">
        <ele>22.1</ele>
        <time>2018-10-21T10:54:30Z</time>
      </trkpt>
      <trkpt lat="43.2461999" lon="-2.9831522">
        <ele>22.0</ele>
        <time>2018-10-21T10:54:32Z</time>
      </trkpt>
      <trkpt lat="43.2462652" lon="-2.9829601">
        <ele>21.9</ele>
        <time>2018-10-21T10:54:34Z</time>
      </trkpt>
      <trkpt lat="43.2463165" lon="-2.9827313">
        <ele>21.8</ele>
        <time>2018-10-21T10:54:36Z</time>
      </trkpt>
      <trkpt lat="43.246383" lon="-2.9825182">
        <ele>21.7</ele>
        <time>2018-10-21T10:54:38Z</time>
      </trkpt>
      <trkpt lat="43.2464613" lon="-2.9823108">
        <ele>21.6</ele>
        <time>2018-10-21T10:54:40Z</time>
      </trkpt>
      <trkpt lat="43.2465466" lon="-2.9821074">
        <ele>21.5</ele>
        <time>2018-10-21T10:54:42Z</time>
      </trkpt>
      <trkpt lat="43.2466287" lon="-2.9819001">
        <ele>21.5</ele>
        <time>2018-10-21T10:54:44Z</time>
      </trkpt>
      <trkpt lat="43.2467069" lon="-2.9816811">
        <ele>21.4</ele>
        <time>2018-10-21T10:54:46Z</time>
      </trkpt>
      <trkpt lat="43.2467869" lon="-2.9814665">
        <ele>21.2</ele>
        <time>2018-10-21T10:54:48Z</time>
      </trkpt>
      <trkpt lat="43.2468707" lon="-2.9812591">
        <ele>21.1</ele>
        <time>2018-10-21T10:54:50Z</time>
      </trkpt>
      <trkpt lat="43.2469443" lon="-2.9810515">
        <ele>20.9</ele>
        <time>2018-10-21T10:54:52Z</time>
      </trkpt>
      <trkpt lat="43.2470137" lon="-2.9808585">
        <ele>20.7</ele>
        <time>2018-10-21T10:54:54Z</time>
      </trkpt>
      <trkpt lat="43.2470901" lon="-2.9806499">
        <ele>20.6</ele>
        <time>2018-10-21T10:54:56Z</time>
      </trkpt>
      <trkpt lat="43.2471678" lon="-2.9804435">
        <ele>20.5</ele>
        <time>2018-10-21T10:54:58Z</time>
      </trkpt>
      <trkpt lat="43.2472368" lon="-2.9802348">
        <ele>20.2</ele>
        <time>2018-10-21T10:55:00Z</time>
      </trkpt>
      <trkpt lat="43.2472999" lon="-2.980021">
        <ele>20.1</ele>
        <time>2018-10-21T10:55:02Z</time>
      </trkpt>
      <trkpt lat="43.2473705" lon="-2.979811">
        <ele>19.8</ele>
        <time>2018-10-21T10:55:04Z</time>
      </trkpt>
      <trkpt lat="43.2474433" lon="-2.9795996">
        <ele>19.6</ele>
        <time>2018-10-21T10:55:06Z</time>
      </trkpt>
      <trkpt lat="43.247522" lon="-2.979412">
        <ele>19.2</ele>
        <time>2018-10-21T10:55:08Z</time>
      </trkpt>
      <trkpt lat="43.2475779" lon="-2.9792272">
        <ele>19.1</ele>
        <time>2018-10-21T10:55:10Z</time>
      </trkpt>
      <trkpt lat="43.2476194" lon="-2.9790377">
        <ele>19.1</ele>
        <time>2018-10-21T10:55:12Z</time>
      </trkpt>
      <trkpt lat="43.2476653" lon="-2.9788486">
        <ele>19.1</ele>
        <time>2018-10-21T10:55:14Z</time>
      </trkpt>
      <trkpt lat="43.2476802" lon="-2.9785784">
        <ele>18.9</ele>
        <time>2018-10-21T10:55:17Z</time>
      </trkpt>
      <trkpt lat="43.2477322" lon="-2.978338">
        <ele>18.8</ele>
        <time>2018-10-21T10:55:20Z</time>
      </trkpt>
      <trkpt lat="43.2478372" lon="-2.9781567">
        <ele>18.6</ele>
        <time>2018-10-21T10:55:23Z</time>
      </trkpt>
      <trkpt lat="43.2479621" lon="-2.9779716">
        <ele>18.5</ele>
        <time>2018-10-21T10:55:26Z</time>
      </trkpt>
      <trkpt lat="43.2481023" lon="-2.9777942">
        <ele>18.5</ele>
        <time>2018-10-21T10:55:29Z</time>
      </trkpt>
      <trkpt lat="43.248249" lon="-2.9776535">
        <ele>18.5</ele>
        <time>2018-10-21T10:55:32Z</time>
      </trkpt>
      <trkpt lat="43.2484111" lon="-2.9775193">
        <ele>18.5</ele>
        <time>2018-10-21T10:55:35Z</time>
      </trkpt>
      <trkpt lat="43.248565" lon="-2.9774073">
        <ele>18.5</ele>
        <time>2018-10-21T10:55:38Z</time>
      </trkpt>
      <trkpt lat="43.2486758" lon="-2.9773314">
        <ele>18.5</ele>
        <time>2018-10-21T10:55:40Z</time>
      </trkpt>
      <trkpt lat="43.2488885" lon="-2.9771778">
        <ele>18.5</ele>
        <time>2018-10-21T10:55:44Z</time>
      </trkpt>
      <trkpt lat="43.2489853" lon="-2.9771269">
        <ele>18.6</ele>
        <time>2018-10-21T10:55:46Z</time>
      </trkpt>
      <trkpt lat="43.2491203" lon="-2.9769789">
        <ele>18.7</ele>
        <time>2018-10-21T10:55:49Z</time>
      </trkpt>
      <trkpt lat="43.2492423" lon="-2.976812">
        <ele>18.8</ele>
        <time>2018-10-21T10:55:52Z</time>
      </trkpt>
      <trkpt lat="43.2493487" lon="-2.9766234">
        <ele>19.4</ele>
        <time>2018-10-21T10:55:55Z</time>
      </trkpt>
      <trkpt lat="43.2494808" lon="-2.9764307">
        <ele>19.9</ele>
        <time>2018-10-21T10:55:58Z</time>
      </trkpt>
      <trkpt lat="43.249576" lon="-2.9762903">
        <ele>20.0</ele>
        <time>2018-10-21T10:56:00Z</time>
      </trkpt>
      <trkpt lat="43.2496774" lon="-2.9761332">
        <ele>20.1</ele>
        <time>2018-10-21T10:56:02Z</time>
      </trkpt>
      <trkpt lat="43.2497647" lon="-2.9759894">
        <ele>20.2</ele>
        <time>2018-10-21T10:56:04Z</time>
      </trkpt>
      <trkpt lat="43.2498442" lon="-2.9758354">
        <ele>20.2</ele>
        <time>2018-10-21T10:56:06Z</time>
      </trkpt>
      <trkpt lat="43.2499481" lon="-2.9756823">
        <ele>20.2</ele>
        <time>2018-10-21T10:56:08Z</time>
      </trkpt>
      <trkpt lat="43.2500379" lon="-2.9755395">
        <ele>20.2</ele>
        <time>2018-10-21T10:56:10Z</time>
      </trkpt>
      <trkpt lat="43.2501282" lon="-2.9753919">
        <ele>20.2</ele>
        <time>2018-10-21T10:56:12Z</time>
      </trkpt>
      <trkpt lat="43.2502485" lon="-2.9752433">
        <ele>20.2</ele>
        <time>2018-10-21T10:56:14Z</time>
      </trkpt>
      <trkpt lat="43.2503694" lon="-2.9751098">
        <ele>20.2</ele>
        <time>2018-10-21T10:56:16Z</time>
      </trkpt>
      <trkpt lat="43.250499" lon="-2.9749957">
        <ele>20.2</ele>
        <time>2018-10-21T10:56:18Z</time>
      </trkpt>
      <trkpt lat="43.2506316" lon="-2.9748656">
        <ele>20.2</ele>
        <time>2018-10-21T10:56:20Z</time>
      </trkpt>
      <trkpt lat="43.2507724" lon="-2.9747081">
        <ele>20.2</ele>
        <time>2018-10-21T10:56:22Z</time>
      </trkpt>
      <trkpt lat="43.2509022" lon="-2.9745493">
        <ele>20.2</ele>
        <time>2018-10-21T10:56:24Z</time>
      </trkpt>
      <trkpt lat="43.2510528" lon="-2.9743841">
        <ele>20.2</ele>
        <time>2018-10-21T10:56:26Z</time>
      </trkpt>
      <trkpt lat="43.2512029" lon="-2.9742312">
        <ele>20.2</ele>
        <time>2018-10-21T10:56:28Z</time>
      </trkpt>
      <trkpt lat="43.2513348" lon="-2.9740718">
        <ele>20.1</ele>
        <time>2018-10-21T10:56:30Z</time>
      </trkpt>
      <trkpt lat="43.2514967" lon="-2.9739344">
        <ele>20.1</ele>
        <time>2018-10-21T10:56:32Z</time>
      </trkpt>
      <trkpt lat="43.2516721" lon="-2.9737963">
        <ele>19.9</ele>
        <time>2018-10-21T10:56:34Z</time>
      </trkpt>
      <trkpt lat="43.2518527" lon="-2.9736936">
        <ele>19.5</ele>
        <time>2018-10-21T10:56:36Z</time>
      </trkpt>
      <trkpt lat="43.2520277" lon="-2.9736569">
        <ele>19.4</ele>
        <time>2018-10-21T10:56:38Z</time>
      </trkpt>
      <trkpt lat="43.2522484" lon="-2.9736148">
        <ele>19.0</ele>
        <time>2018-10-21T10:56:40Z</time>
      </trkpt>
      <trkpt lat="43.252491" lon="-2.9736613">
        <ele>18.5</ele>
        <time>2018-10-21T10:56:43Z</time>
      </trkpt>
      <trkpt lat="43.2526957" lon="-2.9737127">
        <ele>18.2</ele>
        <time>2018-10-21T10:56:46Z</time>
      </trkpt>
      <trkpt lat="43.2528389" lon="-2.973763">
        <ele>16.9</ele>
        <time>2018-10-21T10:56:48Z</time>
      </trkpt>
      <trkpt lat="43.2529068" lon="-2.9737685">
        <ele>16.9</ele>
        <time>2018-10-21T10:56:49Z</time>
      </trkpt>
      <trkpt lat="43.2531637" lon="-2.9737722">
        <ele>16.1</ele>
        <time>2018-10-21T10:56:53Z</time>
      </trkpt>
      <trkpt lat="43.2533664" lon="-2.9737697">
        <ele>15.8</ele>
        <time>2018-10-21T10:56:56Z</time>
      </trkpt>
      <trkpt lat="43.2534861" lon="-2.9737407">
        <ele>15.7</ele>
        <time>2018-10-21T10:56:58Z</time>
      </trkpt>
      <trkpt lat="43.2535883" lon="-2.9737387">
        <ele>15.7</ele>
        <time>2018-10-21T10:57:00Z</time>
      </trkpt>
      <trkpt lat="43.2536367" lon="-2.9737283">
        <ele>15.7</ele>
        <time>2018-10-21T10:57:01Z</time>
      </trkpt>
      <trkpt lat="43.2536867" lon="-2.9736948">
        <ele>15.7</ele>
        <time>2018-10-21T10:57:02Z</time>
      </trkpt>
      <trkpt lat="43.2537184" lon="-2.9736497">
        <ele>15.7</ele>
        <time>2018-10-21T10:57:03Z</time>
      </trkpt>
      <trkpt lat="43.2537976" lon="-2.9734872">
        <ele>15.7</ele>
        <time>2018-10-21T10:57:06Z</time>
      </trkpt>
      <trkpt lat="43.2539177" lon="-2.9733544">
        <ele>15.7</ele>
        <time>2018-10-21T10:57:09Z</time>
      </trkpt>
      <trkpt lat="43.2540286" lon="-2.973391">
        <ele>15.7</ele>
        <time>2018-10-21T10:57:11Z</time>
      </trkpt>
      <trkpt lat="43.2541169" lon="-2.9734575">
        <ele>15.7</ele>
        <time>2018-10-21T10:57:13Z</time>
      </trkpt>
      <trkpt lat="43.2542763" lon="-2.9734594">
        <ele>15.7</ele>
        <time>2018-10-21T10:57:16Z</time>
      </trkpt>
      <trkpt lat="43.2544014" lon="-2.9733178">
        <ele>15.7</ele>
        <time>2018-10-21T10:57:19Z</time>
      </trkpt>
      <trkpt lat="43.2545477" lon="-2.9731491">
        <ele>15.7</ele>
        <time>2018-10-21T10:57:22Z</time>
      </trkpt>
      <trkpt lat="43.25467" lon="-2.9729411">
        <ele>16.1</ele>
        <time>2018-10-21T10:57:25Z</time>
      </trkpt>
      <trkpt lat="43.2547622" lon="-2.9727953">
        <ele>16.7</ele>
        <time>2018-10-21T10:57:27Z</time>
      </trkpt>
      <trkpt lat="43.2548508" lon="-2.9726479">
        <ele>17.4</ele>
        <time>2018-10-21T10:57:29Z</time>
      </trkpt>
      <trkpt lat="43.2549323" lon="-2.9724688">
        <ele>18.1</ele>
        <time>2018-10-21T10:57:31Z</time>
      </trkpt>
      <trkpt lat="43.2550256" lon="-2.9723088">
        <ele>18.3</ele>
        <time>2018-10-21T10:57:33Z</time>
      </trkpt>
      <trkpt lat="43.2551508" lon="-2.9720753">
        <ele>18.4</ele>
        <time>2018-10-21T10:57:36Z</time>
      </trkpt>
      <trkpt lat="43.2552209" lon="-2.9718925">
        <ele>18.4</ele>
        <time>2018-10-21T10:57:38Z</time>
      </trkpt>
      <trkpt lat="43.2553039" lon="-2.9717049">
        <ele>18.4</ele>
        <time>2018-10-21T10:57:40Z</time>
      </trkpt>
      <trkpt lat="43.2553867" lon="-2.9715242">
        <ele>18.4</ele>
        <time>2018-10-21T10:57:42Z</time>
      </trkpt>
      <trkpt lat="43.2554901" lon="-2.9713632">
        <ele>18.4</ele>
        <time>2018-10-21T10:57:44Z</time>
      </trkpt>
      <trkpt lat="43.255616" lon="-2.9712172">
        <ele>18.4</ele>
        <time>2018-10-21T10:57:46Z</time>
      </trkpt>
      <trkpt lat="43.255749" lon="-2.9711001">
        <ele>18.4</ele>
        <time>2018-10-21T10:57:48Z</time>
      </trkpt>
      <trkpt lat="43.2559107" lon="-2.971003">
        <ele>18.4</ele>
        <time>2018-10-21T10:57:50Z</time>
      </trkpt>
      <trkpt lat="43.2560773" lon="-2.9709083">
        <ele>18.4</ele>
        <time>2018-10-21T10:57:52Z</time>
      </trkpt>
      <trkpt lat="43.2562591" lon="-2.9708349">
        <ele>18.4</ele>
        <time>2018-10-21T10:57:54Z</time>
      </trkpt>
      <trkpt lat="43.2566033" lon="-2.9706916">
        <ele>18.4</ele>
        <time>2018-10-21T10:57:58Z</time>
      </trkpt>
      <trkpt lat="43.2568915" lon="-2.9705502">
        <ele>18.4</ele>
        <time>2018-10-21T10:58:02Z</time>
      </trkpt>
      <trkpt lat="43.2570081" lon="-2.9704558">
        <ele>18.1</ele>
        <time>2018-10-21T10:58:04Z</time>
      </trkpt>
      <trkpt lat="43.2571516" lon="-2.9703498">
        <ele>17.3</ele>
        <time>2018-10-21T10:58:06Z</time>
      </trkpt>
      <trkpt lat="43.2573845" lon="-2.970197">
        <ele>16.7</ele>
        <time>2018-10-21T10:58:10Z</time>
      </trkpt>
      <trkpt lat="43.2575436" lon="-2.9700476">
        <ele>16.1</ele>
        <time>2018-10-21T10:58:13Z</time>
      </trkpt>
      <trkpt lat="43.257703" lon="-2.9698981">
        <ele>15.5</ele>
        <time>2018-10-21T10:58:16Z</time>
      </trkpt>
      <trkpt lat="43.257864" lon="-2.9697735">
        <ele>15.4</ele>
        <time>2018-10-21T10:58:19Z</time>
      </trkpt>
      <trkpt lat="43.2580094" lon="-2.9697329">
        <ele>15.2</ele>
        <time>2018-10-21T10:58:21Z</time>
      </trkpt>
      <trkpt lat="43.2581409" lon="-2.9696942">
        <ele>15.2</ele>
        <time>2018-10-21T10:58:23Z</time>
      </trkpt>
      <trkpt lat="43.2583794" lon="-2.9695934">
        <ele>15.1</ele>
        <time>2018-10-21T10:58:26Z</time>
      </trkpt>
      <trkpt lat="43.258637" lon="-2.9696312">
        <ele>15.1</ele>
        <time>2018-10-21T10:58:30Z</time>
      </trkpt>
      <trkpt lat="43.2587881" lon="-2.969729">
        <ele>15.1</ele>
        <time>2018-10-21T10:58:33Z</time>
      </trkpt>
      <trkpt lat="43.258979" lon="-2.9698284">
        <ele>15.1</ele>
        <time>2018-10-21T10:58:36Z</time>
      </trkpt>
      <trkpt lat="43.2591063" lon="-2.9699034">
        <ele>15.1</ele>
        <time>2018-10-21T10:58:38Z</time>
      </trkpt>
      <trkpt lat="43.2592386" lon="-2.9699791">
        <ele>15.1</ele>
        <time>2018-10-21T10:58:40Z</time>
      </trkpt>
      <trkpt lat="43.2593028" lon="-2.9700092">
        <ele>15.1</ele>
        <time>2018-10-21T10:58:41Z</time>
      </trkpt>
      <trkpt lat="43.2593751" lon="-2.9700404">
        <ele>15.1</ele>
        <time>2018-10-21T10:58:42Z</time>
      </trkpt>
      <trkpt lat="43.2594414" lon="-2.9700615">
        <ele>15.1</ele>
        <time>2018-10-21T10:58:43Z</time>
      </trkpt>
      <trkpt lat="43.2595067" lon="-2.9700758">
        <ele>15.1</ele>
        <time>2018-10-21T10:58:44Z</time>
      </trkpt>
      <trkpt lat="43.2595747" lon="-2.9701001">
        <ele>15.3</ele>
        <time>2018-10-21T10:58:45Z</time>
      </trkpt>
      <trkpt lat="43.2596436" lon="-2.9701155">
        <ele>15.3</ele>
        <time>2018-10-21T10:58:46Z</time>
      </trkpt>
      <trkpt lat="43.2597191" lon="-2.970124">
        <ele>15.3</ele>
        <time>2018-10-21T10:58:47Z</time>
      </trkpt>
      <trkpt lat="43.2597916" lon="-2.9701359">
        <ele>15.3</ele>
        <time>2018-10-21T10:58:48Z</time>
      </trkpt>
      <trkpt lat="43.2598614" lon="-2.9701297">
        <ele>15.3</ele>
        <time>2018-10-21T10:58:49Z</time>
      </trkpt>
      <trkpt lat="43.2599325" lon="-2.9701239">
        <ele>15.4</ele>
        <time>2018-10-21T10:58:50Z</time>
      </trkpt>
      <trkpt lat="43.2600653" lon="-2.9701541">
        <ele>15.5</ele>
        <time>2018-10-21T10:58:52Z</time>
      </trkpt>
      <trkpt lat="43.2602016" lon="-2.9701957">
        <ele>15.6</ele>
        <time>2018-10-21T10:58:54Z</time>
      </trkpt>
      <trkpt lat="43.2603354" lon="-2.9702312">
        <ele>15.9</ele>
        <time>2018-10-21T10:58:56Z</time>
      </trkpt>
      <trkpt lat="43.260458" lon="-2.9703079">
        <ele>16.0</ele>
        <time>2018-10-21T10:58:58Z</time>
      </trkpt>
      <trkpt lat="43.2605716" lon="-2.9703878">
        <ele>16.2</ele>
        <time>2018-10-21T10:59:00Z</time>
      </trkpt>
      <trkpt lat="43.2607434" lon="-2.9705104">
        <ele>16.2</ele>
        <time>2018-10-21T10:59:03Z</time>
      </trkpt>
      <trkpt lat="43.2608495" lon="-2.9706005">
        <ele>16.3</ele>
        <time>2018-10-21T10:59:05Z</time>
      </trkpt>
      <trkpt lat="43.2609713" lon="-2.9707846">
        <ele>16.4</ele>
        <time>2018-10-21T10:59:08Z</time>
      </trkpt>
      <trkpt lat="43.2611018" lon="-2.9709801">
        <ele>16.6</ele>
        <time>2018-10-21T10:59:11Z</time>
      </trkpt>
      <trkpt lat="43.2612145" lon="-2.9711708">
        <ele>17.0</ele>
        <time>2018-10-21T10:59:14Z</time>
      </trkpt>
      <trkpt lat="43.2613233" lon="-2.971346">
        <ele>17.2</ele>
        <time>2018-10-21T10:59:17Z</time>
      </trkpt>
      <trkpt lat="43.2614405" lon="-2.9714835">
        <ele>17.3</ele>
        <time>2018-10-21T10:59:20Z</time>
      </trkpt>
      <trkpt lat="43.2615583" lon="-2.9716562">
        <ele>17.7</ele>
        <time>2018-10-21T10:59:23Z</time>
      </trkpt>
      <trkpt lat="43.2616775" lon="-2.971806">
        <ele>18.1</ele>
        <time>2018-10-21T10:59:26Z</time>
      </trkpt>
      <trkpt lat="43.2618066" lon="-2.971921">
        <ele>18.5</ele>
        <time>2018-10-21T10:59:29Z</time>
      </trkpt>
      <trkpt lat="43.2618975" lon="-2.971983">
        <ele>18.9</ele>
        <time>2018-10-21T10:59:31Z</time>
      </trkpt>
      <trkpt lat="43.2620296" lon="-2.9721038">
        <ele>19.7</ele>
        <time>2018-10-21T10:59:34Z</time>
      </trkpt>
      <trkpt lat="43.2621475" lon="-2.9722291">
        <ele>20.0</ele>
        <time>2018-10-21T10:59:37Z</time>
      </trkpt>
      <trkpt lat="43.2622401" lon="-2.972408">
        <ele>20.3</ele>
        <time>2018-10-21T10:59:40Z</time>
      </trkpt>
      <trkpt lat="43.2623392" lon="-2.9725961">
        <ele>20.7</ele>
        <time>2018-10-21T10:59:43Z</time>
      </trkpt>
      <trkpt lat="43.2624387" lon="-2.9727513">
        <ele>21.2</ele>
        <time>2018-10-21T10:59:46Z</time>
      </trkpt>
      <trkpt lat="43.2625185" lon="-2.9729469">
        <ele>21.8</ele>
        <time>2018-10-21T10:59:49Z</time>
      </trkpt>
      <trkpt lat="43.2626064" lon="-2.9730885">
        <ele>22.3</ele>
        <time>2018-10-21T10:59:52Z</time>
      </trkpt>
      <trkpt lat="43.2626955" lon="-2.9732495">
        <ele>22.5</ele>
        <time>2018-10-21T10:59:55Z</time>
      </trkpt>
      <trkpt lat="43.262794" lon="-2.9733806">
        <ele>23.0</ele>
        <time>2018-10-21T10:59:58Z</time>
      </trkpt>
      <trkpt lat="43.2629132" lon="-2.9735047">
        <ele>23.6</ele>
        <time>2018-10-21T11:00:01Z</time>
      </trkpt>
      <trkpt lat="43.2629967" lon="-2.9735679">
        <ele>24.0</ele>
        <time>2018-10-21T11:00:03Z</time>
      </trkpt>
      <trkpt lat="43.2631206" lon="-2.9736718">
        <ele>24.3</ele>
        <time>2018-10-21T11:00:06Z</time>
      </trkpt>
      <trkpt lat="43.263224" lon="-2.9737331">
        <ele>24.9</ele>
        <time>2018-10-21T11:00:08Z</time>
      </trkpt>
      <trkpt lat="43.2633792" lon="-2.9738199">
        <ele>25.5</ele>
        <time>2018-10-21T11:00:11Z</time>
      </trkpt>
      <trkpt lat="43.2634393" lon="-2.9738407">
        <ele>25.5</ele>
        <time>2018-10-21T11:00:12Z</time>
      </trkpt>
      <trkpt lat="43.2634925" lon="-2.9738526">
        <ele>25.5</ele>
        <time>2018-10-21T11:00:13Z</time>
      </trkpt>
      <trkpt lat="43.2635515" lon="-2.9738605">
        <ele>25.5</ele>
        <time>2018-10-21T11:00:14Z</time>
      </trkpt>
      <trkpt lat="43.2636089" lon="-2.9738725">
        <ele>25.5</ele>
        <time>2018-10-21T11:00:15Z</time>
      </trkpt>
      <trkpt lat="43.2636623" lon="-2.9738692">
        <ele>26.2</ele>
        <time>2018-10-21T11:00:16Z</time>
      </trkpt>
      <trkpt lat="43.2637209" lon="-2.9738689">
        <ele>26.2</ele>
        <time>2018-10-21T11:00:17Z</time>
      </trkpt>
      <trkpt lat="43.2637823" lon="-2.9738609">
        <ele>26.2</ele>
        <time>2018-10-21T11:00:18Z</time>
      </trkpt>
      <trkpt lat="43.2638394" lon="-2.9738453">
        <ele>26.2</ele>
        <time>2018-10-21T11:00:19Z</time>
      </trkpt>
      <trkpt lat="43.2638927" lon="-2.9738283">
        <ele>26.2</ele>
        <time>2018-10-21T11:00:20Z</time>
      </trkpt>
      <trkpt lat="43.2639475" lon="-2.9738029">
        <ele>26.7</ele>
        <time>2018-10-21T11:00:21Z</time>
      </trkpt>
      <trkpt lat="43.2642057" lon="-2.9736523">
        <ele>27.5</ele>
        <time>2018-10-21T11:00:25Z</time>
      </trkpt>
      <trkpt lat="43.2642668" lon="-2.9736387">
        <ele>27.5</ele>
        <time>2018-10-21T11:00:26Z</time>
      </trkpt>
      <trkpt lat="43.2643317" lon="-2.9736112">
        <ele>27.5</ele>
        <time>2018-10-21T11:00:27Z</time>
      </trkpt>
      <trkpt lat="43.2643846" lon="-2.9735808">
        <ele>27.5</ele>
        <time>2018-10-21T11:00:28Z</time>
      </trkpt>
      <trkpt lat="43.2644438" lon="-2.9735447">
        <ele>27.5</ele>
        <time>2018-10-21T11:00:29Z</time>
      </trkpt>
      <trkpt lat="43.2644968" lon="-2.9735061">
        <ele>27.8</ele>
        <time>2018-10-21T11:00:30Z</time>
      </trkpt>
      <trkpt lat="43.2646269" lon="-2.9733981">
        <ele>27.9</ele>
        <time>2018-10-21T11:00:32Z</time>
      </trkpt>
      <trkpt lat="43.2647491" lon="-2.9732705">
        <ele>28.0</ele>
        <time>2018-10-21T11:00:34Z</time>
      </trkpt>
      <trkpt lat="43.2649058" lon="-2.9731126">
        <ele>28.1</ele>
        <time>2018-10-21T11:00:37Z</time>
      </trkpt>
      <trkpt lat="43.2651245" lon="-2.9729736">
        <ele>28.1</ele>
        <time>2018-10-21T11:00:41Z</time>
      </trkpt>
      <trkpt lat="43.265274" lon="-2.9728739">
        <ele>28.1</ele>
        <time>2018-10-21T11:00:44Z</time>
      </trkpt>
      <trkpt lat="43.2653986" lon="-2.9727934">
        <ele>28.1</ele>
        <time>2018-10-21T11:00:46Z</time>
      </trkpt>
      <trkpt lat="43.2654652" lon="-2.9727556">
        <ele>28.1</ele>
        <time>2018-10-21T11:00:47Z</time>
      </trkpt>
      <trkpt lat="43.2657337" lon="-2.9725881">
        <ele>28.1</ele>
        <time>2018-10-21T11:00:51Z</time>
      </trkpt>
      <trkpt lat="43.2659164" lon="-2.9725302">
        <ele>28.1</ele>
        <time>2018-10-21T11:00:54Z</time>
      </trkpt>
      <trkpt lat="43.2660615" lon="-2.9725202">
        <ele>28.1</ele>
        <time>2018-10-21T11:00:56Z</time>
      </trkpt>
      <trkpt lat="43.2661922" lon="-2.9725115">
        <ele>28.1</ele>
        <time>2018-10-21T11:00:58Z</time>
      </trkpt>
      <trkpt lat="43.2663512" lon="-2.9725341">
        <ele>28.1</ele>
        <time>2018-10-21T11:01:00Z</time>
      </trkpt>
      <trkpt lat="43.2665072" lon="-2.9725853">
        <ele>28.1</ele>
        <time>2018-10-21T11:01:02Z</time>
      </trkpt>
      <trkpt lat="43.2666396" lon="-2.9725986">
        <ele>28.0</ele>
        <time>2018-10-21T11:01:04Z</time>
      </trkpt>
      <trkpt lat="43.2669182" lon="-2.9727018">
        <ele>28.0</ele>
        <time>2018-10-21T11:01:08Z</time>
      </trkpt>
      <trkpt lat="43.2670553" lon="-2.97274">
        <ele>27.9</ele>
        <time>2018-10-21T11:01:10Z</time>
      </trkpt>
      <trkpt lat="43.2672542" lon="-2.9727808">
        <ele>27.5</ele>
        <time>2018-10-21T11:01:13Z</time>
      </trkpt>
      <trkpt lat="43.2673202" lon="-2.972802">
        <ele>27.5</ele>
        <time>2018-10-21T11:01:14Z</time>
      </trkpt>
      <trkpt lat="43.2673882" lon="-2.9728187">
        <ele>27.5</ele>
        <time>2018-10-21T11:01:15Z</time>
      </trkpt>
      <trkpt lat="43.2674562" lon="-2.9728347">
        <ele>27.5</ele>
        <time>2018-10-21T11:01:16Z</time>
      </trkpt>
      <trkpt lat="43.2675324" lon="-2.9728417">
        <ele>27.5</ele>
        <time>2018-10-21T11:01:17Z</time>
      </trkpt>
      <trkpt lat="43.2676092" lon="-2.9728498">
        <ele>27.4</ele>
        <time>2018-10-21T11:01:18Z</time>
      </trkpt>
      <trkpt lat="43.2677547" lon="-2.9728841">
        <ele>27.2</ele>
        <time>2018-10-21T11:01:20Z</time>
      </trkpt>
      <trkpt lat="43.2679022" lon="-2.9729208">
        <ele>27.0</ele>
        <time>2018-10-21T11:01:22Z</time>
      </trkpt>
      <trkpt lat="43.2681065" lon="-2.9730045">
        <ele>26.9</ele>
        <time>2018-10-21T11:01:25Z</time>
      </trkpt>
      <trkpt lat="43.2682512" lon="-2.9730404">
        <ele>26.6</ele>
        <time>2018-10-21T11:01:27Z</time>
      </trkpt>
      <trkpt lat="43.2683861" lon="-2.9731164">
        <ele>26.5</ele>
        <time>2018-10-21T11:01:29Z</time>
      </trkpt>
      <trkpt lat="43.2685209" lon="-2.9731717">
        <ele>26.4</ele>
        <time>2018-10-21T11:01:31Z</time>
      </trkpt>
      <trkpt lat="43.2686599" lon="-2.9732334">
        <ele>26.3</ele>
        <time>2018-10-21T11:01:33Z</time>
      </trkpt>
      <trkpt lat="43.2688749" lon="-2.9733108">
        <ele>26.1</ele>
        <time>2018-10-21T11:01:36Z</time>
      </trkpt>
      <trkpt lat="43.2690019" lon="-2.9733771">
        <ele>26.0</ele>
        <time>2018-10-21T11:01:38Z</time>
      </trkpt>
      <trkpt lat="43.2691333" lon="-2.9734396">
        <ele>25.9</ele>
        <time>2018-10-21T11:01:40Z</time>
      </trkpt>
      <trkpt lat="43.2692652" lon="-2.9735053">
        <ele>25.6</ele>
        <time>2018-10-21T11:01:42Z</time>
      </trkpt>
      <trkpt lat="43.2693297" lon="-2.9735494">
        <ele>25.6</ele>
        <time>2018-10-21T11:01:43Z</time>
      </trkpt>
      <trkpt lat="43.2693954" lon="-2.9735826">
        <ele>25.6</ele>
        <time>2018-10-21T11:01:44Z</time>
      </trkpt>
      <trkpt lat="43.2695893" lon="-2.9736874">
        <ele>25.5</ele>
        <time>2018-10-21T11:01:47Z</time>
      </trkpt>
      <trkpt lat="43.2697131" lon="-2.9737564">
        <ele>25.4</ele>
        <time>2018-10-21T11:01:49Z</time>
      </trkpt>
      <trkpt lat="43.2699676" lon="-2.9739065">
        <ele>25.2</ele>
        <time>2018-10-21T11:01:53Z</time>
      </trkpt>
      <trkpt lat="43.2701593" lon="-2.9740287">
        <ele>24.8</ele>
        <time>2018-10-21T11:01:56Z</time>
      </trkpt>
      <trkpt lat="43.2702234" lon="-2.9740655">
        <ele>24.8</ele>
        <time>2018-10-21T11:01:57Z</time>
      </trkpt>
      <trkpt lat="43.2702849" lon="-2.9740963">
        <ele>24.8</ele>
        <time>2018-10-21T11:01:58Z</time>
      </trkpt>
      <trkpt lat="43.2704744" lon="-2.9741946">
        <ele>24.4</ele>
        <time>2018-10-21T11:02:01Z</time>
      </trkpt>
      <trkpt lat="43.2706591" lon="-2.9742857">
        <ele>23.7</ele>
        <time>2018-10-21T11:02:04Z</time>
      </trkpt>
      <trkpt lat="43.2707998" lon="-2.9743118">
        <ele>23.5</ele>
        <time>2018-10-21T11:02:06Z</time>
      </trkpt>
      <trkpt lat="43.2709441" lon="-2.9743246">
        <ele>23.3</ele>
        <time>2018-10-21T11:02:08Z</time>
      </trkpt>
      <trkpt lat="43.2711349" lon="-2.9743656">
        <ele>23.0</ele>
        <time>2018-10-21T11:02:11Z</time>
      </trkpt>
      <trkpt lat="43.2713237" lon="-2.9743629">
        <ele>22.7</ele>
        <time>2018-10-21T11:02:14Z</time>
      </trkpt>
      <trkpt lat="43.2714548" lon="-2.9743547">
        <ele>22.4</ele>
        <time>2018-10-21T11:02:16Z</time>
      </trkpt>
      <trkpt lat="43.2715734" lon="-2.9743266">
        <ele>22.0</ele>
        <time>2018-10-21T11:02:18Z</time>
      </trkpt>
      <trkpt lat="43.2716408" lon="-2.9743187">
        <ele>22.0</ele>
        <time>2018-10-21T11:02:19Z</time>
      </trkpt>
      <trkpt lat="43.2717048" lon="-2.9743107">
        <ele>22.0</ele>
        <time>2018-10-21T11:02:20Z</time>
      </trkpt>
      <trkpt lat="43.2717608" lon="-2.9742969">
        <ele>22.0</ele>
        <time>2018-10-21T11:02:21Z</time>
      </trkpt>
      <trkpt lat="43.2718998" lon="-2.9742645">
        <ele>21.8</ele>
        <time>2018-10-21T11:02:23Z</time>
      </trkpt>
      <trkpt lat="43.2720146" lon="-2.9742399">
        <ele>21.8</ele>
        <time>2018-10-21T11:02:25Z</time>
      </trkpt>
      <trkpt lat="43.2721126" lon="-2.9742243">
        <ele>21.7</ele>
        <time>2018-10-21T11:02:27Z</time>
      </trkpt>
      <trkpt lat="43.2723589" lon="-2.974223">
        <ele>21.6</ele>
        <time>2018-10-21T11:02:30Z</time>
      </trkpt>
      <trkpt lat="43.2724808" lon="-2.9742095">
        <ele>21.4</ele>
        <time>2018-10-21T11:02:32Z</time>
      </trkpt>
      <trkpt lat="43.2726194" lon="-2.9741826">
        <ele>21.2</ele>
        <time>2018-10-21T11:02:34Z</time>
      </trkpt>
      <trkpt lat="43.2727748" lon="-2.9741629">
        <ele>20.8</ele>
        <time>2018-10-21T11:02:36Z</time>
      </trkpt>
      <trkpt lat="43.2728523" lon="-2.9741484">
        <ele>20.8</ele>
        <time>2018-10-21T11:02:37Z</time>
      </trkpt>
      <trkpt lat="43.2729244" lon="-2.9741332">
        <ele>20.8</ele>
        <time>2018-10-21T11:02:38Z</time>
      </trkpt>
      <trkpt lat="43.2729827" lon="-2.9741082">
        <ele>20.8</ele>
        <time>2018-10-21T11:02:39Z</time>
      </trkpt>
      <trkpt lat="43.2730371" lon="-2.9740911">
        <ele>20.8</ele>
        <time>2018-10-21T11:02:40Z</time>
      </trkpt>
      <trkpt lat="43.2730938" lon="-2.9740589">
        <ele>20.6</ele>
        <time>2018-10-21T11:02:41Z</time>
      </trkpt>
      <trkpt lat="43.2732263" lon="-2.974007">
        <ele>20.2</ele>
        <time>2018-10-21T11:02:43Z</time>
      </trkpt>
      <trkpt lat="43.2733865" lon="-2.9739458">
        <ele>19.9</ele>
        <time>2018-10-21T11:02:45Z</time>
      </trkpt>
      <trkpt lat="43.2734624" lon="-2.9739252">
        <ele>19.9</ele>
        <time>2018-10-21T11:02:46Z</time>
      </trkpt>
      <trkpt lat="43.2736224" lon="-2.9738779">
        <ele>19.9</ele>
        <time>2018-10-21T11:02:48Z</time>
      </trkpt>
      <trkpt lat="43.2736825" lon="-2.9738486">
        <ele>19.9</ele>
        <time>2018-10-21T11:02:49Z</time>
      </trkpt>
      <trkpt lat="43.2737482" lon="-2.9738195">
        <ele>19.7</ele>
        <time>2018-10-21T11:02:50Z</time>
      </trkpt>
      <trkpt lat="43.274022" lon="-2.973692">
        <ele>19.5</ele>
        <time>2018-10-21T11:02:54Z</time>
      </trkpt>
      <trkpt lat="43.274096" lon="-2.9736566">
        <ele>19.5</ele>
        <time>2018-10-21T11:02:55Z</time>
      </trkpt>
      <trkpt lat="43.2741554" lon="-2.9736098">
        <ele>19.5</ele>
        <time>2018-10-21T11:02:56Z</time>
      </trkpt>
      <trkpt lat="43.2742117" lon="-2.9735689">
        <ele>19.3</ele>
        <time>2018-10-21T11:02:57Z</time>
      </trkpt>
      <trkpt lat="43.2743113" lon="-2.9735972">
        <ele>19.3</ele>
        <time>2018-10-21T11:03:01Z</time>
      </trkpt>
      <trkpt lat="43.2744724" lon="-2.9734056">
        <ele>19.3</ele>
        <time>2018-10-21T11:03:03Z</time>
      </trkpt>
      <trkpt lat="43.2746092" lon="-2.973286">
        <ele>19.2</ele>
        <time>2018-10-21T11:03:05Z</time>
      </trkpt>
      <trkpt lat="43.2747393" lon="-2.9731771">
        <ele>19.0</ele>
        <time>2018-10-21T11:03:07Z</time>
      </trkpt>
      <trkpt lat="43.2748251" lon="-2.9730326">
        <ele>18.7</ele>
        <time>2018-10-21T11:03:09Z</time>
      </trkpt>
      <trkpt lat="43.2749606" lon="-2.9728838">
        <ele>18.1</ele>
        <time>2018-10-21T11:03:12Z</time>
      </trkpt>
      <trkpt lat="43.2750798" lon="-2.9727619">
        <ele>17.1</ele>
        <time>2018-10-21T11:03:16Z</time>
      </trkpt>
      <trkpt lat="43.2751331" lon="-2.9726801">
        <ele>15.7</ele>
        <time>2018-10-21T11:03:21Z</time>
      </trkpt>
      <trkpt lat="43.2751141" lon="-2.9726695">
        <ele>16.0</ele>
        <time>2018-10-21T11:03:25Z</time>
      </trkpt>
      <trkpt lat="43.2751141" lon="-2.9726695">
        <ele>15.9</ele>
        <time>2018-10-21T11:03:25Z</time>
      </trkpt>
      <trkpt lat="43.2751141" lon="-2.9726695">
        <ele>15.8</ele>
        <time>2018-10-21T11:03:44Z</time>
      </trkpt>
      <trkpt lat="43.2752139" lon="-2.9725092">
        <ele>15.7</ele>
        <time>2018-10-21T11:03:45Z</time>
      </trkpt>
      <trkpt lat="43.2753545" lon="-2.9723935">
        <ele>15.7</ele>
        <time>2018-10-21T11:03:48Z</time>
      </trkpt>
      <trkpt lat="43.2754687" lon="-2.972216">
        <ele>15.7</ele>
        <time>2018-10-21T11:03:51Z</time>
      </trkpt>
      <trkpt lat="43.2755738" lon="-2.9720662">
        <ele>15.6</ele>
        <time>2018-10-21T11:03:54Z</time>
      </trkpt>
      <trkpt lat="43.2757237" lon="-2.9719495">
        <ele>15.6</ele>
        <time>2018-10-21T11:03:57Z</time>
      </trkpt>
      <trkpt lat="43.2758038" lon="-2.9717673">
        <ele>15.6</ele>
        <time>2018-10-21T11:03:59Z</time>
      </trkpt>
      <trkpt lat="43.2759356" lon="-2.971556">
        <ele>15.6</ele>
        <time>2018-10-21T11:04:02Z</time>
      </trkpt>
      <trkpt lat="43.2760478" lon="-2.971433">
        <ele>15.5</ele>
        <time>2018-10-21T11:04:04Z</time>
      </trkpt>
      <trkpt lat="43.27615" lon="-2.9712988">
        <ele>15.5</ele>
        <time>2018-10-21T11:04:06Z</time>
      </trkpt>
      <trkpt lat="43.2762715" lon="-2.9711841">
        <ele>15.4</ele>
        <time>2018-10-21T11:04:08Z</time>
      </trkpt>
      <trkpt lat="43.2762636" lon="-2.9709476">
        <ele>15.3</ele>
        <time>2018-10-21T11:04:10Z</time>
      </trkpt>
      <trkpt lat="43.2762203" lon="-2.9707495">
        <ele>15.3</ele>
        <time>2018-10-21T11:04:12Z</time>
      </trkpt>
      <trkpt lat="43.2761252" lon="-2.9705592">
        <ele>14.9</ele>
        <time>2018-10-21T11:04:15Z</time>
      </trkpt>
      <trkpt lat="43.2760188" lon="-2.9704104">
        <ele>14.7</ele>
        <time>2018-10-21T11:04:17Z</time>
      </trkpt>
      <trkpt lat="43.275875" lon="-2.970294">
        <ele>14.5</ele>
        <time>2018-10-21T11:04:19Z</time>
      </trkpt>
      <trkpt lat="43.2757165" lon="-2.9701723">
        <ele>14.5</ele>
        <time>2018-10-21T11:04:22Z</time>
      </trkpt>
      <trkpt lat="43.2756004" lon="-2.9701206">
        <ele>14.5</ele>
        <time>2018-10-21T11:04:24Z</time>
      </trkpt>
      <trkpt lat="43.2754953" lon="-2.9700605">
        <ele>14.5</ele>
        <time>2018-10-21T11:04:26Z</time>
      </trkpt>
      <trkpt lat="43.2752466" lon="-2.9699942">
        <ele>14.5</ele>
        <time>2018-10-21T11:04:30Z</time>
      </trkpt>
      <trkpt lat="43.2751228" lon="-2.9699438">
        <ele>14.5</ele>
        <time>2018-10-21T11:04:32Z</time>
      </trkpt>
      <trkpt lat="43.2750586" lon="-2.9699063">
        <ele>14.5</ele>
        <time>2018-10-21T11:04:33Z</time>
      </trkpt>
      <trkpt lat="43.2749995" lon="-2.9698693">
        <ele>14.5</ele>
        <time>2018-10-21T11:04:34Z</time>
      </trkpt>
      <trkpt lat="43.2749419" lon="-2.9698356">
        <ele>14.5</ele>
        <time>2018-10-21T11:04:35Z</time>
      </trkpt>
      <trkpt lat="43.2748755" lon="-2.9697883">
        <ele>14.5</ele>
        <time>2018-10-21T11:04:36Z</time>
      </trkpt>
      <trkpt lat="43.274632" lon="-2.9696765">
        <ele>14.5</ele>
        <time>2018-10-21T11:04:40Z</time>
      </trkpt>
      <trkpt lat="43.274511" lon="-2.9695924">
        <ele>14.5</ele>
        <time>2018-10-21T11:04:42Z</time>
      </trkpt>
      <trkpt lat="43.274454" lon="-2.9695505">
        <ele>14.5</ele>
        <time>2018-10-21T11:04:43Z</time>
      </trkpt>
      <trkpt lat="43.2743951" lon="-2.9694981">
        <ele>14.5</ele>
        <time>2018-10-21T11:04:44Z</time>
      </trkpt>
      <trkpt lat="43.2742779" lon="-2.969396">
        <ele>14.5</ele>
        <time>2018-10-21T11:04:46Z</time>
      </trkpt>
      <trkpt lat="43.2741172" lon="-2.96922">
        <ele>14.6</ele>
        <time>2018-10-21T11:04:49Z</time>
      </trkpt>
      <trkpt lat="43.273985" lon="-2.9690564">
        <ele>14.8</ele>
        <time>2018-10-21T11:04:52Z</time>
      </trkpt>
      <trkpt lat="43.2738407" lon="-2.9688635">
        <ele>15.3</ele>
        <time>2018-10-21T11:04:55Z</time>
      </trkpt>
      <trkpt lat="43.2736895" lon="-2.9686719">
        <ele>15.8</ele>
        <time>2018-10-21T11:04:58Z</time>
      </trkpt>
      <trkpt lat="43.2735461" lon="-2.9684979">
        <ele>16.5</ele>
        <time>2018-10-21T11:05:01Z</time>
      </trkpt>
      <trkpt lat="43.273418" lon="-2.9683194">
        <ele>16.9</ele>
        <time>2018-10-21T11:05:04Z</time>
      </trkpt>
      <trkpt lat="43.2732676" lon="-2.968139">
        <ele>17.3</ele>
        <time>2018-10-21T11:05:07Z</time>
      </trkpt>
      <trkpt lat="43.2731284" lon="-2.9679654">
        <ele>17.7</ele>
        <time>2018-10-21T11:05:10Z</time>
      </trkpt>
      <trkpt lat="43.272992" lon="-2.9677912">
        <ele>18.1</ele>
        <time>2018-10-21T11:05:13Z</time>
      </trkpt>
      <trkpt lat="43.2728482" lon="-2.9676189">
        <ele>18.8</ele>
        <time>2018-10-21T11:05:16Z</time>
      </trkpt>
      <trkpt lat="43.2727123" lon="-2.9674537">
        <ele>19.1</ele>
        <time>2018-10-21T11:05:19Z</time>
      </trkpt>
      <trkpt lat="43.2726157" lon="-2.9673245">
        <ele>19.2</ele>
        <time>2018-10-21T11:05:21Z</time>
      </trkpt>
      <trkpt lat="43.2724782" lon="-2.9671916">
        <ele>19.5</ele>
        <time>2018-10-21T11:05:24Z</time>
      </trkpt>
      <trkpt lat="43.2723268" lon="-2.9670433">
        <ele>20.0</ele>
        <time>2018-10-21T11:05:27Z</time>
      </trkpt>
      <trkpt lat="43.2722279" lon="-2.9669566">
        <ele>20.3</ele>
        <time>2018-10-21T11:05:29Z</time>
      </trkpt>
      <trkpt lat="43.2720653" lon="-2.9668248">
        <ele>20.7</ele>
        <time>2018-10-21T11:05:32Z</time>
      </trkpt>
      <trkpt lat="43.2718938" lon="-2.9667035">
        <ele>20.9</ele>
        <time>2018-10-21T11:05:35Z</time>
      </trkpt>
      <trkpt lat="43.2717258" lon="-2.9665973">
        <ele>21.6</ele>
        <time>2018-10-21T11:05:38Z</time>
      </trkpt>
      <trkpt lat="43.2715817" lon="-2.9664773">
        <ele>22.1</ele>
        <time>2018-10-21T11:05:41Z</time>
      </trkpt>
      <trkpt lat="43.271469" lon="-2.9664">
        <ele>22.3</ele>
        <time>2018-10-21T11:05:43Z</time>
      </trkpt>
      <trkpt lat="43.2712493" lon="-2.9662718">
        <ele>22.5</ele>
        <time>2018-10-21T11:05:47Z</time>
      </trkpt>
      <trkpt lat="43.2710269" lon="-2.966118">
        <ele>22.9</ele>
        <time>2018-10-21T11:05:51Z</time>
      </trkpt>
      <trkpt lat="43.2709136" lon="-2.9660379">
        <ele>23.2</ele>
        <time>2018-10-21T11:05:53Z</time>
      </trkpt>
      <trkpt lat="43.2708056" lon="-2.9659457">
        <ele>23.7</ele>
        <time>2018-10-21T11:05:55Z</time>
      </trkpt>
      <trkpt lat="43.2706233" lon="-2.9658499">
        <ele>23.9</ele>
        <time>2018-10-21T11:05:58Z</time>
      </trkpt>
      <trkpt lat="43.2705046" lon="-2.9657755">
        <ele>24.0</ele>
        <time>2018-10-21T11:06:00Z</time>
      </trkpt>
      <trkpt lat="43.2703359" lon="-2.9656404">
        <ele>24.1</ele>
        <time>2018-10-21T11:06:03Z</time>
      </trkpt>
      <trkpt lat="43.2702323" lon="-2.9655618">
        <ele>24.3</ele>
        <time>2018-10-21T11:06:05Z</time>
      </trkpt>
      <trkpt lat="43.2700607" lon="-2.9654563">
        <ele>24.5</ele>
        <time>2018-10-21T11:06:08Z</time>
      </trkpt>
      <trkpt lat="43.2699082" lon="-2.9653592">
        <ele>24.8</ele>
        <time>2018-10-21T11:06:11Z</time>
      </trkpt>
      <trkpt lat="43.2697494" lon="-2.9652298">
        <ele>25.4</ele>
        <time>2018-10-21T11:06:14Z</time>
      </trkpt>
      <trkpt lat="43.2695849" lon="-2.9651241">
        <ele>25.4</ele>
        <time>2018-10-21T11:06:17Z</time>
      </trkpt>
      <trkpt lat="43.2694236" lon="-2.9650191">
        <ele>25.6</ele>
        <time>2018-10-21T11:06:20Z</time>
      </trkpt>
      <trkpt lat="43.2693116" lon="-2.9649429">
        <ele>25.7</ele>
        <time>2018-10-21T11:06:22Z</time>
      </trkpt>
      <trkpt lat="43.2692129" lon="-2.9648487">
        <ele>26.4</ele>
        <time>2018-10-21T11:06:24Z</time>
      </trkpt>
      <trkpt lat="43.2690892" lon="-2.9647561">
        <ele>27.1</ele>
        <time>2018-10-21T11:06:26Z</time>
      </trkpt>
      <trkpt lat="43.2689837" lon="-2.9646527">
        <ele>28.0</ele>
        <time>2018-10-21T11:06:28Z</time>
      </trkpt>
      <trkpt lat="43.2688407" lon="-2.9645017">
        <ele>28.5</ele>
        <time>2018-10-21T11:06:31Z</time>
      </trkpt>
      <trkpt lat="43.268686" lon="-2.964359">
        <ele>29.2</ele>
        <time>2018-10-21T11:06:34Z</time>
      </trkpt>
      <trkpt lat="43.2685565" lon="-2.9641989">
        <ele>30.1</ele>
        <time>2018-10-21T11:06:37Z</time>
      </trkpt>
      <trkpt lat="43.2684024" lon="-2.9640496">
        <ele>30.5</ele>
        <time>2018-10-21T11:06:40Z</time>
      </trkpt>
      <trkpt lat="43.2682325" lon="-2.9639092">
        <ele>31.3</ele>
        <time>2018-10-21T11:06:43Z</time>
      </trkpt>
      <trkpt lat="43.2680573" lon="-2.9638094">
        <ele>31.6</ele>
        <time>2018-10-21T11:06:46Z</time>
      </trkpt>
      <trkpt lat="43.2679607" lon="-2.9636972">
        <ele>32.2</ele>
        <time>2018-10-21T11:06:48Z</time>
      </trkpt>
      <trkpt lat="43.2677728" lon="-2.9636338">
        <ele>33.3</ele>
        <time>2018-10-21T11:06:51Z</time>
      </trkpt>
      <trkpt lat="43.2676476" lon="-2.9635333">
        <ele>34.2</ele>
        <time>2018-10-21T11:06:53Z</time>
      </trkpt>
      <trkpt lat="43.2675424" lon="-2.9634789">
        <ele>34.6</ele>
        <time>2018-10-21T11:06:55Z</time>
      </trkpt>
      <trkpt lat="43.2672532" lon="-2.9632818">
        <ele>35.2</ele>
        <time>2018-10-21T11:07:00Z</time>
      </trkpt>
      <trkpt lat="43.2670412" lon="-2.9631333">
        <ele>35.5</ele>
        <time>2018-10-21T11:07:04Z</time>
      </trkpt>
      <trkpt lat="43.266898" lon="-2.9630008">
        <ele>35.7</ele>
        <time>2018-10-21T11:07:07Z</time>
      </trkpt>
      <trkpt lat="43.2667977" lon="-2.9629093">
        <ele>36.0</ele>
        <time>2018-10-21T11:07:09Z</time>
      </trkpt>
      <trkpt lat="43.2666422" lon="-2.9627888">
        <ele>36.3</ele>
        <time>2018-10-21T11:07:12Z</time>
      </trkpt>
      <trkpt lat="43.2664885" lon="-2.9626521">
        <ele>36.5</ele>
        <time>2018-10-21T11:07:15Z</time>
      </trkpt>
      <trkpt lat="43.2663287" lon="-2.9625148">
        <ele>36.6</ele>
        <time>2018-10-21T11:07:18Z</time>
      </trkpt>
      <trkpt lat="43.2661701" lon="-2.9623805">
        <ele>36.7</ele>
        <time>2018-10-21T11:07:21Z</time>
      </trkpt>
      <trkpt lat="43.2660227" lon="-2.9622362">
        <ele>37.0</ele>
        <time>2018-10-21T11:07:24Z</time>
      </trkpt>
      <trkpt lat="43.2658567" lon="-2.9620979">
        <ele>37.3</ele>
        <time>2018-10-21T11:07:27Z</time>
      </trkpt>
      <trkpt lat="43.2657514" lon="-2.9619986">
        <ele>37.4</ele>
        <time>2018-10-21T11:07:29Z</time>
      </trkpt>
      <trkpt lat="43.2655833" lon="-2.9618654">
        <ele>37.6</ele>
        <time>2018-10-21T11:07:32Z</time>
      </trkpt>
      <trkpt lat="43.2654099" lon="-2.9617327">
        <ele>37.6</ele>
        <time>2018-10-21T11:07:35Z</time>
      </trkpt>
      <trkpt lat="43.2652791" lon="-2.9616364">
        <ele>37.7</ele>
        <time>2018-10-21T11:07:37Z</time>
      </trkpt>
      <trkpt lat="43.2649875" lon="-2.9613981">
        <ele>37.7</ele>
        <time>2018-10-21T11:07:42Z</time>
      </trkpt>
      <trkpt lat="43.2648085" lon="-2.9612908">
        <ele>37.7</ele>
        <time>2018-10-21T11:07:45Z</time>
      </trkpt>
      <trkpt lat="43.2645681" lon="-2.9611097">
        <ele>37.8</ele>
        <time>2018-10-21T11:07:49Z</time>
      </trkpt>
      <trkpt lat="43.2644671" lon="-2.9610091">
        <ele>37.8</ele>
        <time>2018-10-21T11:07:51Z</time>
      </trkpt>
      <trkpt lat="43.2643138" lon="-2.9608645">
        <ele>37.8</ele>
        <time>2018-10-21T11:07:54Z</time>
      </trkpt>
      <trkpt lat="43.2642203" lon="-2.9607058">
        <ele>37.9</ele>
        <time>2018-10-21T11:07:56Z</time>
      </trkpt>
      <trkpt lat="43.264147" lon="-2.9605269">
        <ele>38.0</ele>
        <time>2018-10-21T11:07:58Z</time>
      </trkpt>
      <trkpt lat="43.2640637" lon="-2.960362">
        <ele>38.2</ele>
        <time>2018-10-21T11:08:00Z</time>
      </trkpt>
      <trkpt lat="43.2639737" lon="-2.9602129">
        <ele>38.3</ele>
        <time>2018-10-21T11:08:02Z</time>
      </trkpt>
      <trkpt lat="43.2639013" lon="-2.9600491">
        <ele>38.5</ele>
        <time>2018-10-21T11:08:04Z</time>
      </trkpt>
      <trkpt lat="43.2638021" lon="-2.959888">
        <ele>38.7</ele>
        <time>2018-10-21T11:08:06Z</time>
      </trkpt>
      <trkpt lat="43.263724" lon="-2.9597207">
        <ele>38.9</ele>
        <time>2018-10-21T11:08:08Z</time>
      </trkpt>
      <trkpt lat="43.2636375" lon="-2.9595599">
        <ele>39.1</ele>
        <time>2018-10-21T11:08:10Z</time>
      </trkpt>
      <trkpt lat="43.2635487" lon="-2.9594034">
        <ele>39.6</ele>
        <time>2018-10-21T11:08:12Z</time>
      </trkpt>
      <trkpt lat="43.2634635" lon="-2.9592432">
        <ele>39.9</ele>
        <time>2018-10-21T11:08:14Z</time>
      </trkpt>
      <trkpt lat="43.2634009" lon="-2.959079">
        <ele>40.1</ele>
        <time>2018-10-21T11:08:16Z</time>
      </trkpt>
      <trkpt lat="43.2633212" lon="-2.9588178">
        <ele>40.3</ele>
        <time>2018-10-21T11:08:19Z</time>
      </trkpt>
      <trkpt lat="43.2632953" lon="-2.9586234">
        <ele>40.4</ele>
        <time>2018-10-21T11:08:21Z</time>
      </trkpt>
      <trkpt lat="43.2632964" lon="-2.9584153">
        <ele>40.5</ele>
        <time>2018-10-21T11:08:23Z</time>
      </trkpt>
      <trkpt lat="43.2632734" lon="-2.958146">
        <ele>40.6</ele>
        <time>2018-10-21T11:08:26Z</time>
      </trkpt>
      <trkpt lat="43.2632529" lon="-2.957962">
        <ele>40.7</ele>
        <time>2018-10-21T11:08:28Z</time>
      </trkpt>
      <trkpt lat="43.2632209" lon="-2.9576954">
        <ele>40.8</ele>
        <time>2018-10-21T11:08:31Z</time>
      </trkpt>
      <trkpt lat="43.2631798" lon="-2.9574567">
        <ele>41.1</ele>
        <time>2018-10-21T11:08:34Z</time>
      </trkpt>
      <trkpt lat="43.2631045" lon="-2.957226">
        <ele>41.4</ele>
        <time>2018-10-21T11:08:37Z</time>
      </trkpt>
      <trkpt lat="43.2630286" lon="-2.956995">
        <ele>41.5</ele>
        <time>2018-10-21T11:08:40Z</time>
      </trkpt>
      <trkpt lat="43.2629172" lon="-2.9567894">
        <ele>41.6</ele>
        <time>2018-10-21T11:08:43Z</time>
      </trkpt>
      <trkpt lat="43.2627947" lon="-2.9565986">
        <ele>41.7</ele>
        <time>2018-10-21T11:08:46Z</time>
      </trkpt>
      <trkpt lat="43.2626404" lon="-2.9564221">
        <ele>41.8</ele>
        <time>2018-10-21T11:08:49Z</time>
      </trkpt>
      <trkpt lat="43.2625111" lon="-2.9563164">
        <ele>41.8</ele>
        <time>2018-10-21T11:08:51Z</time>
      </trkpt>
      <trkpt lat="43.2623886" lon="-2.9562207">
        <ele>42.2</ele>
        <time>2018-10-21T11:08:53Z</time>
      </trkpt>
      <trkpt lat="43.2622572" lon="-2.9561333">
        <ele>42.6</ele>
        <time>2018-10-21T11:08:55Z</time>
      </trkpt>
      <trkpt lat="43.2621319" lon="-2.9560636">
        <ele>42.7</ele>
        <time>2018-10-21T11:08:57Z</time>
      </trkpt>
      <trkpt lat="43.2619343" lon="-2.9559367">
        <ele>42.8</ele>
        <time>2018-10-21T11:09:00Z</time>
      </trkpt>
      <trkpt lat="43.2617436" lon="-2.9558184">
        <ele>42.9</ele>
        <time>2018-10-21T11:09:03Z</time>
      </trkpt>
      <trkpt lat="43.2616249" lon="-2.955726">
        <ele>43.0</ele>
        <time>2018-10-21T11:09:05Z</time>
      </trkpt>
      <trkpt lat="43.261538" lon="-2.9555668">
        <ele>43.0</ele>
        <time>2018-10-21T11:09:07Z</time>
      </trkpt>
      <trkpt lat="43.2614103" lon="-2.9554744">
        <ele>43.0</ele>
        <time>2018-10-21T11:09:09Z</time>
      </trkpt>
      <trkpt lat="43.2613108" lon="-2.9553819">
        <ele>43.2</ele>
        <time>2018-10-21T11:09:11Z</time>
      </trkpt>
      <trkpt lat="43.2611997" lon="-2.9552797">
        <ele>43.4</ele>
        <time>2018-10-21T11:09:13Z</time>
      </trkpt>
      <trkpt lat="43.261089" lon="-2.9551642">
        <ele>43.5</ele>
        <time>2018-10-21T11:09:15Z</time>
      </trkpt>
      <trkpt lat="43.2609475" lon="-2.9550917">
        <ele>43.6</ele>
        <time>2018-10-21T11:09:17Z</time>
      </trkpt>
      <trkpt lat="43.2607237" lon="-2.9548883">
        <ele>43.7</ele>
        <time>2018-10-21T11:09:21Z</time>
      </trkpt>
      <trkpt lat="43.2606079" lon="-2.9547788">
        <ele>43.7</ele>
        <time>2018-10-21T11:09:23Z</time>
      </trkpt>
      <trkpt lat="43.2605364" lon="-2.954591">
        <ele>43.8</ele>
        <time>2018-10-21T11:09:25Z</time>
      </trkpt>
      <trkpt lat="43.2604927" lon="-2.9543819">
        <ele>43.9</ele>
        <time>2018-10-21T11:09:27Z</time>
      </trkpt>
      <trkpt lat="43.2604725" lon="-2.9541956">
        <ele>44.0</ele>
        <time>2018-10-21T11:09:29Z</time>
      </trkpt>
      <trkpt lat="43.2604135" lon="-2.9540232">
        <ele>44.7</ele>
        <time>2018-10-21T11:09:31Z</time>
      </trkpt>
      <trkpt lat="43.2603419" lon="-2.9538664">
        <ele>46.4</ele>
        <time>2018-10-21T11:09:33Z</time>
      </trkpt>
      <trkpt lat="43.2602541" lon="-2.9536511">
        <ele>46.3</ele>
        <time>2018-10-21T11:09:36Z</time>
      </trkpt>
      <trkpt lat="43.2602185" lon="-2.9535025">
        <ele>46.0</ele>
        <time>2018-10-21T11:09:40Z</time>
      </trkpt>
      <trkpt lat="43.2602036" lon="-2.9534828">
        <ele>45.9</ele>
        <time>2018-10-21T11:09:44Z</time>
      </trkpt>
      <trkpt lat="43.2602036" lon="-2.9534828">
        <ele>45.9</ele>
        <time>2018-10-21T11:09:44Z</time>
      </trkpt>
      <trkpt lat="43.2602036" lon="-2.9534828">
        <ele>45.9</ele>
        <time>2018-10-21T11:10:45Z</time>
      </trkpt>
      <trkpt lat="43.2601292" lon="-2.9533535">
        <ele>45.9</ele>
        <time>2018-10-21T11:10:46Z</time>
      </trkpt>
      <trkpt lat="43.2600366" lon="-2.9531723">
        <ele>45.9</ele>
        <time>2018-10-21T11:10:50Z</time>
      </trkpt>
      <trkpt lat="43.2599566" lon="-2.9530228">
        <ele>45.9</ele>
        <time>2018-10-21T11:10:53Z</time>
      </trkpt>
      <trkpt lat="43.2598602" lon="-2.9528717">
        <ele>45.9</ele>
        <time>2018-10-21T11:10:56Z</time>
      </trkpt>
      <trkpt lat="43.2597542" lon="-2.9527135">
        <ele>45.9</ele>
        <time>2018-10-21T11:10:59Z</time>
      </trkpt>
      <trkpt lat="43.2596644" lon="-2.9525533">
        <ele>45.9</ele>
        <time>2018-10-21T11:11:02Z</time>
      </trkpt>
      <trkpt lat="43.2595825" lon="-2.9523887">
        <ele>45.9</ele>
        <time>2018-10-21T11:11:05Z</time>
      </trkpt>
      <trkpt lat="43.259478" lon="-2.9522168">
        <ele>45.9</ele>
        <time>2018-10-21T11:11:08Z</time>
      </trkpt>
      <trkpt lat="43.2593523" lon="-2.9520741">
        <ele>46.1</ele>
        <time>2018-10-21T11:11:11Z</time>
      </trkpt>
      <trkpt lat="43.2592607" lon="-2.9519548">
        <ele>46.2</ele>
        <time>2018-10-21T11:11:13Z</time>
      </trkpt>
      <trkpt lat="43.2591013" lon="-2.9518139">
        <ele>46.2</ele>
        <time>2018-10-21T11:11:16Z</time>
      </trkpt>
      <trkpt lat="43.2589448" lon="-2.9516933">
        <ele>46.3</ele>
        <time>2018-10-21T11:11:19Z</time>
      </trkpt>
      <trkpt lat="43.2588514" lon="-2.951517">
        <ele>46.3</ele>
        <time>2018-10-21T11:11:22Z</time>
      </trkpt>
      <trkpt lat="43.2587353" lon="-2.9513021">
        <ele>46.3</ele>
        <time>2018-10-21T11:11:25Z</time>
      </trkpt>
      <trkpt lat="43.258654" lon="-2.9511535">
        <ele>46.3</ele>
        <time>2018-10-21T11:11:27Z</time>
      </trkpt>
      <trkpt lat="43.258547" lon="-2.9510042">
        <ele>46.3</ele>
        <time>2018-10-21T11:11:29Z</time>
      </trkpt>
      <trkpt lat="43.2584567" lon="-2.9508423">
        <ele>46.3</ele>
        <time>2018-10-21T11:11:31Z</time>
      </trkpt>
      <trkpt lat="43.2583731" lon="-2.9506732">
        <ele>46.3</ele>
        <time>2018-10-21T11:11:33Z</time>
      </trkpt>
      <trkpt lat="43.2582784" lon="-2.9505293">
        <ele>46.3</ele>
        <time>2018-10-21T11:11:35Z</time>
      </trkpt>
      <trkpt lat="43.2581719" lon="-2.9503337">
        <ele>42.6</ele>
        <time>2018-10-21T11:11:38Z</time>
      </trkpt>
      <trkpt lat="43.2580415" lon="-2.950208">
        <ele>43.5</ele>
        <time>2018-10-21T11:11:42Z</time>
      </trkpt>
      <trkpt lat="43.2579715" lon="-2.9501716">
        <ele>43.3</ele>
        <time>2018-10-21T11:11:44Z</time>
      </trkpt>
      <trkpt lat="43.2579508" lon="-2.9501093">
        <ele>43.2</ele>
        <time>2018-10-21T11:11:47Z</time>
      </trkpt>
      <trkpt lat="43.2579609" lon="-2.9500695">
        <ele>43.0</ele>
        <time>2018-10-21T11:11:50Z</time>
      </trkpt>
      <trkpt lat="43.2579591" lon="-2.9500588">
        <ele>43.0</ele>
        <time>2018-10-21T11:11:54Z</time>
      </trkpt>
      <trkpt lat="43.2579591" lon="-2.9500588">
        <ele>42.9</ele>
        <time>2018-10-21T11:11:54Z</time>
      </trkpt>
      <trkpt lat="43.2579591" lon="-2.9500588">
        <ele>42.8</ele>
        <time>2018-10-21T11:12:07Z</time>
      </trkpt>
      <trkpt lat="43.2580221" lon="-2.9499323">
        <ele>42.6</ele>
        <time>2018-10-21T11:12:08Z</time>
      </trkpt>
      <trkpt lat="43.2581577" lon="-2.9497915">
        <ele>42.6</ele>
        <time>2018-10-21T11:12:12Z</time>
      </trkpt>
      <trkpt lat="43.2584306" lon="-2.9496541">
        <ele>42.6</ele>
        <time>2018-10-21T11:12:16Z</time>
      </trkpt>
      <trkpt lat="43.2586177" lon="-2.9495573">
        <ele>42.5</ele>
        <time>2018-10-21T11:12:19Z</time>
      </trkpt>
      <trkpt lat="43.2587877" lon="-2.9495206">
        <ele>42.3</ele>
        <time>2018-10-21T11:12:21Z</time>
      </trkpt>
      <trkpt lat="43.2589178" lon="-2.9494742">
        <ele>41.0</ele>
        <time>2018-10-21T11:12:23Z</time>
      </trkpt>
      <trkpt lat="43.2592107" lon="-2.9493435">
        <ele>39.8</ele>
        <time>2018-10-21T11:12:27Z</time>
      </trkpt>
      <trkpt lat="43.2593404" lon="-2.9492321">
        <ele>37.9</ele>
        <time>2018-10-21T11:12:29Z</time>
      </trkpt>
      <trkpt lat="43.2594581" lon="-2.9491213">
        <ele>37.9</ele>
        <time>2018-10-21T11:12:31Z</time>
      </trkpt>
      <trkpt lat="43.2596201" lon="-2.949082">
        <ele>36.5</ele>
        <time>2018-10-21T11:12:34Z</time>
      </trkpt>
      <trkpt lat="43.2597724" lon="-2.9490234">
        <ele>36.1</ele>
        <time>2018-10-21T11:12:40Z</time>
      </trkpt>
      <trkpt lat="43.2599149" lon="-2.9489646">
        <ele>33.4</ele>
        <time>2018-10-21T11:12:43Z</time>
      </trkpt>
      <trkpt lat="43.2600301" lon="-2.9488997">
        <ele>33.5</ele>
        <time>2018-10-21T11:12:46Z</time>
      </trkpt>
      <trkpt lat="43.2601306" lon="-2.9488393">
        <ele>33.5</ele>
        <time>2018-10-21T11:12:49Z</time>
      </trkpt>
      <trkpt lat="43.2601828" lon="-2.9488208">
        <ele>33.5</ele>
        <time>2018-10-21T11:12:51Z</time>
      </trkpt>
      <trkpt lat="43.2602415" lon="-2.9487798">
        <ele>33.5</ele>
        <time>2018-10-21T11:12:53Z</time>
      </trkpt>
      <trkpt lat="43.2602938" lon="-2.9487559">
        <ele>33.5</ele>
        <time>2018-10-21T11:12:55Z</time>
      </trkpt>
      <trkpt lat="43.2603094" lon="-2.948755">
        <ele>33.4</ele>
        <time>2018-10-21T11:12:56Z</time>
      </trkpt>
      <trkpt lat="43.2603248" lon="-2.9487742">
        <ele>33.3</ele>
        <time>2018-10-21T11:13:00Z</time>
      </trkpt>
      <trkpt lat="43.2603248" lon="-2.9487742">
        <ele>33.3</ele>
        <time>2018-10-21T11:13:00Z</time>
      </trkpt>
      <trkpt lat="43.2603248" lon="-2.9487742">
        <ele>33.2</ele>
        <time>2018-10-21T11:14:03Z</time>
      </trkpt>
      <trkpt lat="43.2604849" lon="-2.948799">
        <ele>32.8</ele>
        <time>2018-10-21T11:14:04Z</time>
      </trkpt>
      <trkpt lat="43.2606384" lon="-2.9487048">
        <ele>32.4</ele>
        <time>2018-10-21T11:14:09Z</time>
      </trkpt>
      <trkpt lat="43.2607574" lon="-2.9486717">
        <ele>31.9</ele>
        <time>2018-10-21T11:14:12Z</time>
      </trkpt>
      <trkpt lat="43.2609172" lon="-2.9486102">
        <ele>31.7</ele>
        <time>2018-10-21T11:14:15Z</time>
      </trkpt>
      <trkpt lat="43.2610276" lon="-2.9485715">
        <ele>31.6</ele>
        <time>2018-10-21T11:14:17Z</time>
      </trkpt>
      <trkpt lat="43.2611573" lon="-2.9485325">
        <ele>31.6</ele>
        <time>2018-10-21T11:14:21Z</time>
      </trkpt>
      <trkpt lat="43.2612044" lon="-2.948493">
        <ele>31.6</ele>
        <time>2018-10-21T11:14:27Z</time>
      </trkpt>
      <trkpt lat="43.2613013" lon="-2.9484756">
        <ele>31.5</ele>
        <time>2018-10-21T11:14:35Z</time>
      </trkpt>
      <trkpt lat="43.2613996" lon="-2.9484385">
        <ele>31.5</ele>
        <time>2018-10-21T11:14:39Z</time>
      </trkpt>
      <trkpt lat="43.2614944" lon="-2.9483936">
        <ele>31.5</ele>
        <time>2018-10-21T11:14:44Z</time>
      </trkpt>
      <trkpt lat="43.2615248" lon="-2.9483298">
        <ele>31.3</ele>
        <time>2018-10-21T11:14:49Z</time>
      </trkpt>
      <trkpt lat="43.2616165" lon="-2.9483095">
        <ele>31.0</ele>
        <time>2018-10-21T11:14:58Z</time>
      </trkpt>
      <trkpt lat="43.2617051" lon="-2.9483752">
        <ele>30.8</ele>
        <time>2018-10-21T11:15:05Z</time>
      </trkpt>
      <trkpt lat="43.2617468" lon="-2.9483505">
        <ele>30.8</ele>
        <time>2018-10-21T11:15:10Z</time>
      </trkpt>
      <trkpt lat="43.261788" lon="-2.94831">
        <ele>30.7</ele>
        <time>2018-10-21T11:15:14Z</time>
      </trkpt>
      <trkpt lat="43.261903" lon="-2.9482661">
        <ele>30.6</ele>
        <time>2018-10-21T11:15:22Z</time>
      </trkpt>
      <trkpt lat="43.2619554" lon="-2.9482891">
        <ele>30.6</ele>
        <time>2018-10-21T11:15:25Z</time>
      </trkpt>
      <trkpt lat="43.2619962" lon="-2.9483189">
        <ele>30.5</ele>
        <time>2018-10-21T11:15:28Z</time>
      </trkpt>
      <trkpt lat="43.2621107" lon="-2.9483537">
        <ele>30.4</ele>
        <time>2018-10-21T11:15:36Z</time>
      </trkpt>
      <trkpt lat="43.2622296" lon="-2.9483258">
        <ele>30.3</ele>
        <time>2018-10-21T11:15:43Z</time>
      </trkpt>
      <trkpt lat="43.2623827" lon="-2.9483002">
        <ele>30.2</ele>
        <time>2018-10-21T11:15:54Z</time>
      </trkpt>
      <trkpt lat="43.2624332" lon="-2.948241">
        <ele>30.2</ele>
        <time>2018-10-21T11:15:56Z</time>
      </trkpt>
      <trkpt lat="43.2624712" lon="-2.9481668">
        <ele>30.0</ele>
        <time>2018-10-21T11:15:58Z</time>
      </trkpt>
      <trkpt lat="43.2625988" lon="-2.9480446">
        <ele>27.9</ele>
        <time>2018-10-21T11:16:02Z</time>
      </trkpt>
      <trkpt lat="43.2627986" lon="-2.9479827">
        <ele>31.4</ele>
        <time>2018-10-21T11:16:05Z</time>
      </trkpt>
      <trkpt lat="43.2628893" lon="-2.9479462">
        <ele>31.4</ele>
        <time>2018-10-21T11:16:07Z</time>
      </trkpt>
      <trkpt lat="43.2630293" lon="-2.9479023">
        <ele>31.4</ele>
        <time>2018-10-21T11:16:10Z</time>
      </trkpt>
      <trkpt lat="43.2632151" lon="-2.9478929">
        <ele>31.4</ele>
        <time>2018-10-21T11:16:14Z</time>
      </trkpt>
      <trkpt lat="43.263305" lon="-2.947855">
        <ele>31.4</ele>
        <time>2018-10-21T11:16:16Z</time>
      </trkpt>
      <trkpt lat="43.263381" lon="-2.9478185">
        <ele>31.3</ele>
        <time>2018-10-21T11:16:18Z</time>
      </trkpt>
      <trkpt lat="43.2634298" lon="-2.9477691">
        <ele>31.3</ele>
        <time>2018-10-21T11:16:20Z</time>
      </trkpt>
      <trkpt lat="43.2634677" lon="-2.9477366">
        <ele>31.0</ele>
        <time>2018-10-21T11:16:24Z</time>
      </trkpt>
      <trkpt lat="43.2634677" lon="-2.9477366">
        <ele>30.7</ele>
        <time>2018-10-21T11:16:28Z</time>
      </trkpt>
      <trkpt lat="43.2634677" lon="-2.9477366">
        <ele>30.6</ele>
        <time>2018-10-21T11:16:28Z</time>
      </trkpt>
      <trkpt lat="43.2634677" lon="-2.9477366">
        <ele>30.4</ele>
        <time>2018-10-21T11:22:22Z</time>
      </trkpt>
      <trkpt lat="43.263585" lon="-2.9477418">
        <ele>25.2</ele>
        <time>2018-10-21T11:22:23Z</time>
      </trkpt>
      <trkpt lat="43.263667" lon="-2.9476525">
        <ele>25.0</ele>
        <time>2018-10-21T11:22:28Z</time>
      </trkpt>
      <trkpt lat="43.2637752" lon="-2.9475194">
        <ele>25.0</ele>
        <time>2018-10-21T11:22:34Z</time>
      </trkpt>
      <trkpt lat="43.2638696" lon="-2.9473659">
        <ele>25.0</ele>
        <time>2018-10-21T11:22:38Z</time>
      </trkpt>
      <trkpt lat="43.2639365" lon="-2.9471932">
        <ele>24.9</ele>
        <time>2018-10-21T11:22:41Z</time>
      </trkpt>
      <trkpt lat="43.2639479" lon="-2.9470042">
        <ele>24.9</ele>
        <time>2018-10-21T11:22:45Z</time>
      </trkpt>
      <trkpt lat="43.2639806" lon="-2.9468197">
        <ele>24.9</ele>
        <time>2018-10-21T11:22:48Z</time>
      </trkpt>
      <trkpt lat="43.2639547" lon="-2.9466001">
        <ele>24.9</ele>
        <time>2018-10-21T11:22:51Z</time>
      </trkpt>
      <trkpt lat="43.2638787" lon="-2.9463843">
        <ele>24.9</ele>
        <time>2018-10-21T11:22:54Z</time>
      </trkpt>
      <trkpt lat="43.2638418" lon="-2.9461953">
        <ele>24.9</ele>
        <time>2018-10-21T11:22:58Z</time>
      </trkpt>
      <trkpt lat="43.2638271" lon="-2.9462103">
        <ele>23.1</ele>
        <time>2018-10-21T11:23:00Z</time>
      </trkpt>
      <trkpt lat="43.2638271" lon="-2.9462103">
        <ele>24.5</ele>
        <time>2018-10-21T11:23:04Z</time>
      </trkpt>
      <trkpt lat="43.2638271" lon="-2.9462103">
        <ele>24.3</ele>
        <time>2018-10-21T11:23:04Z</time>
      </trkpt>
      <trkpt lat="43.2638271" lon="-2.9462103">
        <ele>24.0</ele>
        <time>2018-10-21T11:24:05Z</time>
      </trkpt>
      <trkpt lat="43.2637899" lon="-2.9460232">
        <ele>23.6</ele>
        <time>2018-10-21T11:24:06Z</time>
      </trkpt>
      <trkpt lat="43.2638219" lon="-2.9458109">
        <ele>23.5</ele>
        <time>2018-10-21T11:24:11Z</time>
      </trkpt>
      <trkpt lat="43.2639507" lon="-2.9457008">
        <ele>23.3</ele>
        <time>2018-10-21T11:24:15Z</time>
      </trkpt>
      <trkpt lat="43.2640073" lon="-2.9456606">
        <ele>23.3</ele>
        <time>2018-10-21T11:24:16Z</time>
      </trkpt>
      <trkpt lat="43.2640545" lon="-2.9456236">
        <ele>23.3</ele>
        <time>2018-10-21T11:24:17Z</time>
      </trkpt>
      <trkpt lat="43.2641447" lon="-2.9455423">
        <ele>23.1</ele>
        <time>2018-10-21T11:24:20Z</time>
      </trkpt>
      <trkpt lat="43.2642576" lon="-2.9454815">
        <ele>23.1</ele>
        <time>2018-10-21T11:24:23Z</time>
      </trkpt>
      <trkpt lat="43.2643794" lon="-2.9454201">
        <ele>23.0</ele>
        <time>2018-10-21T11:24:27Z</time>
      </trkpt>
      <trkpt lat="43.2643846" lon="-2.9454221">
        <ele>23.0</ele>
        <time>2018-10-21T11:24:28Z</time>
      </trkpt>
      <trkpt lat="43.2644039" lon="-2.9454211">
        <ele>22.9</ele>
        <time>2018-10-21T11:24:32Z</time>
      </trkpt>
      <trkpt lat="43.2644039" lon="-2.9454211">
        <ele>22.8</ele>
        <time>2018-10-21T11:24:32Z</time>
      </trkpt>
      <trkpt lat="43.2644039" lon="-2.9454211">
        <ele>22.5</ele>
        <time>2018-10-21T11:24:42Z</time>
      </trkpt>
      <trkpt lat="43.2645232" lon="-2.945329">
        <ele>22.3</ele>
        <time>2018-10-21T11:24:43Z</time>
      </trkpt>
      <trkpt lat="43.2646587" lon="-2.9452596">
        <ele>22.0</ele>
        <time>2018-10-21T11:24:46Z</time>
      </trkpt>
      <trkpt lat="43.2647827" lon="-2.9451842">
        <ele>21.8</ele>
        <time>2018-10-21T11:24:49Z</time>
      </trkpt>
      <trkpt lat="43.2649232" lon="-2.9450384">
        <ele>21.8</ele>
        <time>2018-10-21T11:24:52Z</time>
      </trkpt>
      <trkpt lat="43.2650295" lon="-2.9448216">
        <ele>21.7</ele>
        <time>2018-10-21T11:24:55Z</time>
      </trkpt>
      <trkpt lat="43.2652252" lon="-2.9447987">
        <ele>21.6</ele>
        <time>2018-10-21T11:24:58Z</time>
      </trkpt>
      <trkpt lat="43.2653128" lon="-2.9448637">
        <ele>21.4</ele>
        <time>2018-10-21T11:25:00Z</time>
      </trkpt>
      <trkpt lat="43.2654216" lon="-2.9448797">
        <ele>21.1</ele>
        <time>2018-10-21T11:25:02Z</time>
      </trkpt>
      <trkpt lat="43.2656189" lon="-2.944856">
        <ele>20.8</ele>
        <time>2018-10-21T11:25:06Z</time>
      </trkpt>
      <trkpt lat="43.26573" lon="-2.9448283">
        <ele>20.2</ele>
        <time>2018-10-21T11:25:10Z</time>
      </trkpt>
      <trkpt lat="43.2658976" lon="-2.9446872">
        <ele>19.8</ele>
        <time>2018-10-21T11:25:14Z</time>
      </trkpt>
      <trkpt lat="43.2659983" lon="-2.9444768">
        <ele>19.3</ele>
        <time>2018-10-21T11:25:16Z</time>
      </trkpt>
      <trkpt lat="43.2660496" lon="-2.9442426">
        <ele>19.1</ele>
        <time>2018-10-21T11:25:19Z</time>
      </trkpt>
      <trkpt lat="43.2661003" lon="-2.9440305">
        <ele>18.5</ele>
        <time>2018-10-21T11:25:21Z</time>
      </trkpt>
      <trkpt lat="43.2661616" lon="-2.9437733">
        <ele>17.8</ele>
        <time>2018-10-21T11:25:24Z</time>
      </trkpt>
      <trkpt lat="43.2662006" lon="-2.9435653">
        <ele>17.1</ele>
        <time>2018-10-21T11:25:26Z</time>
      </trkpt>
      <trkpt lat="43.2662697" lon="-2.943366">
        <ele>16.7</ele>
        <time>2018-10-21T11:25:28Z</time>
      </trkpt>
      <trkpt lat="43.2663818" lon="-2.9431473">
        <ele>16.1</ele>
        <time>2018-10-21T11:25:31Z</time>
      </trkpt>
      <trkpt lat="43.2664772" lon="-2.9430069">
        <ele>15.8</ele>
        <time>2018-10-21T11:25:33Z</time>
      </trkpt>
      <trkpt lat="43.2666045" lon="-2.9428862">
        <ele>15.6</ele>
        <time>2018-10-21T11:25:35Z</time>
      </trkpt>
      <trkpt lat="43.2667689" lon="-2.9427646">
        <ele>15.4</ele>
        <time>2018-10-21T11:25:38Z</time>
      </trkpt>
      <trkpt lat="43.2669132" lon="-2.9426534">
        <ele>15.3</ele>
        <time>2018-10-21T11:25:41Z</time>
      </trkpt>
      <trkpt lat="43.267008" lon="-2.942592">
        <ele>15.0</ele>
        <time>2018-10-21T11:25:44Z</time>
      </trkpt>
      <trkpt lat="43.267089" lon="-2.9425331">
        <ele>14.7</ele>
        <time>2018-10-21T11:25:47Z</time>
      </trkpt>
      <trkpt lat="43.2672248" lon="-2.9424351">
        <ele>14.4</ele>
        <time>2018-10-21T11:25:54Z</time>
      </trkpt>
      <trkpt lat="43.2673528" lon="-2.942332">
        <ele>14.0</ele>
        <time>2018-10-21T11:25:57Z</time>
      </trkpt>
      <trkpt lat="43.2675074" lon="-2.9421983">
        <ele>13.8</ele>
        <time>2018-10-21T11:26:00Z</time>
      </trkpt>
      <trkpt lat="43.2676152" lon="-2.9420763">
        <ele>13.6</ele>
        <time>2018-10-21T11:26:02Z</time>
      </trkpt>
      <trkpt lat="43.267748" lon="-2.9419324">
        <ele>13.5</ele>
        <time>2018-10-21T11:26:05Z</time>
      </trkpt>
      <trkpt lat="43.2678811" lon="-2.9418147">
        <ele>13.3</ele>
        <time>2018-10-21T11:26:08Z</time>
      </trkpt>
      <trkpt lat="43.2679913" lon="-2.9416142">
        <ele>13.2</ele>
        <time>2018-10-21T11:26:11Z</time>
      </trkpt>
      <trkpt lat="43.268075" lon="-2.9414615">
        <ele>13.1</ele>
        <time>2018-10-21T11:26:13Z</time>
      </trkpt>
      <trkpt lat="43.2681828" lon="-2.9412611">
        <ele>13.1</ele>
        <time>2018-10-21T11:26:16Z</time>
      </trkpt>
      <trkpt lat="43.2682927" lon="-2.9410579">
        <ele>13.1</ele>
        <time>2018-10-21T11:26:19Z</time>
      </trkpt>
      <trkpt lat="43.2683294" lon="-2.9408554">
        <ele>13.1</ele>
        <time>2018-10-21T11:26:21Z</time>
      </trkpt>
      <trkpt lat="43.268396" lon="-2.9406584">
        <ele>13.1</ele>
        <time>2018-10-21T11:26:23Z</time>
      </trkpt>
      <trkpt lat="43.2684601" lon="-2.940441">
        <ele>13.1</ele>
        <time>2018-10-21T11:26:25Z</time>
      </trkpt>
      <trkpt lat="43.268499" lon="-2.9402394">
        <ele>13.1</ele>
        <time>2018-10-21T11:26:27Z</time>
      </trkpt>
      <trkpt lat="43.2685503" lon="-2.939996">
        <ele>13.3</ele>
        <time>2018-10-21T11:26:29Z</time>
      </trkpt>
      <trkpt lat="43.2685921" lon="-2.9397784">
        <ele>13.4</ele>
        <time>2018-10-21T11:26:31Z</time>
      </trkpt>
      <trkpt lat="43.2686271" lon="-2.9395464">
        <ele>13.4</ele>
        <time>2018-10-21T11:26:33Z</time>
      </trkpt>
      <trkpt lat="43.2686747" lon="-2.9393567">
        <ele>13.6</ele>
        <time>2018-10-21T11:26:35Z</time>
      </trkpt>
      <trkpt lat="43.2687072" lon="-2.9391694">
        <ele>13.7</ele>
        <time>2018-10-21T11:26:37Z</time>
      </trkpt>
      <trkpt lat="43.2687391" lon="-2.9389676">
        <ele>13.8</ele>
        <time>2018-10-21T11:26:39Z</time>
      </trkpt>
      <trkpt lat="43.2687901" lon="-2.9387679">
        <ele>13.8</ele>
        <time>2018-10-21T11:26:41Z</time>
      </trkpt>
      <trkpt lat="43.268808" lon="-2.9385825">
        <ele>13.8</ele>
        <time>2018-10-21T11:26:43Z</time>
      </trkpt>
      <trkpt lat="43.2688259" lon="-2.9383933">
        <ele>13.8</ele>
        <time>2018-10-21T11:26:47Z</time>
      </trkpt>
      <trkpt lat="43.2688273" lon="-2.9382538">
        <ele>13.8</ele>
        <time>2018-10-21T11:26:50Z</time>
      </trkpt>
      <trkpt lat="43.2688236" lon="-2.9381672">
        <ele>13.8</ele>
        <time>2018-10-21T11:26:53Z</time>
      </trkpt>
      <trkpt lat="43.2688343" lon="-2.9381018">
        <ele>13.8</ele>
        <time>2018-10-21T11:26:56Z</time>
      </trkpt>
      <trkpt lat="43.2688368" lon="-2.9380158">
        <ele>13.8</ele>
        <time>2018-10-21T11:27:00Z</time>
      </trkpt>
      <trkpt lat="43.2688124" lon="-2.9378415">
        <ele>13.8</ele>
        <time>2018-10-21T11:27:05Z</time>
      </trkpt>
      <trkpt lat="43.2687818" lon="-2.9376571">
        <ele>13.8</ele>
        <time>2018-10-21T11:27:16Z</time>
      </trkpt>
      <trkpt lat="43.2687544" lon="-2.9375996">
        <ele>13.8</ele>
        <time>2018-10-21T11:27:20Z</time>
      </trkpt>
      <trkpt lat="43.268726" lon="-2.9375423">
        <ele>13.8</ele>
        <time>2018-10-21T11:27:24Z</time>
      </trkpt>
      <trkpt lat="43.2686906" lon="-2.9375038">
        <ele>13.8</ele>
        <time>2018-10-21T11:27:27Z</time>
      </trkpt>
      <trkpt lat="43.2686528" lon="-2.9374146">
        <ele>13.6</ele>
        <time>2018-10-21T11:27:31Z</time>
      </trkpt>
      <trkpt lat="43.2686796" lon="-2.937219">
        <ele>13.6</ele>
        <time>2018-10-21T11:27:39Z</time>
      </trkpt>
      <trkpt lat="43.2686675" lon="-2.9371426">
        <ele>13.4</ele>
        <time>2018-10-21T11:27:43Z</time>
      </trkpt>
      <trkpt lat="43.2686459" lon="-2.937095">
        <ele>12.9</ele>
        <time>2018-10-21T11:27:45Z</time>
      </trkpt>
      <trkpt lat="43.2686188" lon="-2.937062">
        <ele>12.5</ele>
        <time>2018-10-21T11:27:49Z</time>
      </trkpt>
      <trkpt lat="43.2686188" lon="-2.937062">
        <ele>12.0</ele>
        <time>2018-10-21T11:27:49Z</time>
      </trkpt>
      <trkpt lat="43.2686188" lon="-2.937062">
        <ele>11.9</ele>
        <time>2018-10-21T11:27:54Z</time>
      </trkpt>
      <trkpt lat="43.2686034" lon="-2.93691">
        <ele>11.9</ele>
        <time>2018-10-21T11:27:55Z</time>
      </trkpt>
      <trkpt lat="43.2685315" lon="-2.936741">
        <ele>11.9</ele>
        <time>2018-10-21T11:27:58Z</time>
      </trkpt>
      <trkpt lat="43.2684318" lon="-2.9365753">
        <ele>11.9</ele>
        <time>2018-10-21T11:28:01Z</time>
      </trkpt>
      <trkpt lat="43.2683741" lon="-2.9363854">
        <ele>11.9</ele>
        <time>2018-10-21T11:28:04Z</time>
      </trkpt>
      <trkpt lat="43.2683767" lon="-2.936182">
        <ele>11.9</ele>
        <time>2018-10-21T11:28:07Z</time>
      </trkpt>
      <trkpt lat="43.2682551" lon="-2.9359788">
        <ele>11.9</ele>
        <time>2018-10-21T11:28:10Z</time>
      </trkpt>
      <trkpt lat="43.268154" lon="-2.9357659">
        <ele>11.9</ele>
        <time>2018-10-21T11:28:13Z</time>
      </trkpt>
      <trkpt lat="43.2680637" lon="-2.9356242">
        <ele>11.9</ele>
        <time>2018-10-21T11:28:15Z</time>
      </trkpt>
      <trkpt lat="43.2679948" lon="-2.9354617">
        <ele>11.9</ele>
        <time>2018-10-21T11:28:18Z</time>
      </trkpt>
      <trkpt lat="43.2679041" lon="-2.935312">
        <ele>12.2</ele>
        <time>2018-10-21T11:28:21Z</time>
      </trkpt>
      <trkpt lat="43.2678654" lon="-2.9352452">
        <ele>12.2</ele>
        <time>2018-10-21T11:28:23Z</time>
      </trkpt>
      <trkpt lat="43.2678157" lon="-2.9352334">
        <ele>12.7</ele>
        <time>2018-10-21T11:28:25Z</time>
      </trkpt>
      <trkpt lat="43.2678086" lon="-2.9353039">
        <ele>12.7</ele>
        <time>2018-10-21T11:28:28Z</time>
      </trkpt>
      <trkpt lat="43.2679195" lon="-2.9354433">
        <ele>13.4</ele>
        <time>2018-10-21T11:28:35Z</time>
      </trkpt>
      <trkpt lat="43.2679966" lon="-2.9355496">
        <ele>13.4</ele>
        <time>2018-10-21T11:28:39Z</time>
      </trkpt>
      <trkpt lat="43.2680626" lon="-2.9356531">
        <ele>14.0</ele>
        <time>2018-10-21T11:28:43Z</time>
      </trkpt>
      <trkpt lat="43.2680466" lon="-2.9357398">
        <ele>14.0</ele>
        <time>2018-10-21T11:28:46Z</time>
      </trkpt>
      <trkpt lat="43.2680574" lon="-2.9358106">
        <ele>14.4</ele>
        <time>2018-10-21T11:28:49Z</time>
      </trkpt>
      <trkpt lat="43.2680492" lon="-2.9358808">
        <ele>15.3</ele>
        <time>2018-10-21T11:28:51Z</time>
      </trkpt>
      <trkpt lat="43.2680335" lon="-2.9359519">
        <ele>16.4</ele>
        <time>2018-10-21T11:28:53Z</time>
      </trkpt>
      <trkpt lat="43.2679757" lon="-2.9361362">
        <ele>17.0</ele>
        <time>2018-10-21T11:28:58Z</time>
      </trkpt>
      <trkpt lat="43.2679472" lon="-2.9361987">
        <ele>18.0</ele>
        <time>2018-10-21T11:29:00Z</time>
      </trkpt>
      <trkpt lat="43.2679142" lon="-2.9362602">
        <ele>18.6</ele>
        <time>2018-10-21T11:29:02Z</time>
      </trkpt>
      <trkpt lat="43.2678777" lon="-2.936304">
        <ele>18.7</ele>
        <time>2018-10-21T11:29:04Z</time>
      </trkpt>
      <trkpt lat="43.2677987" lon="-2.9363974">
        <ele>18.9</ele>
        <time>2018-10-21T11:29:08Z</time>
      </trkpt>
      <trkpt lat="43.2677256" lon="-2.9365432">
        <ele>19.2</ele>
        <time>2018-10-21T11:29:13Z</time>
      </trkpt>
      <trkpt lat="43.2677006" lon="-2.9366122">
        <ele>19.6</ele>
        <time>2018-10-21T11:29:15Z</time>
      </trkpt>
      <trkpt lat="43.2676835" lon="-2.936692">
        <ele>20.0</ele>
        <time>2018-10-21T11:29:17Z</time>
      </trkpt>
      <trkpt lat="43.2676731" lon="-2.9367848">
        <ele>20.4</ele>
        <time>2018-10-21T11:29:19Z</time>
      </trkpt>
      <trkpt lat="43.2676713" lon="-2.9368539">
        <ele>20.4</ele>
        <time>2018-10-21T11:29:21Z</time>
      </trkpt>
      <trkpt lat="43.2676882" lon="-2.9369299">
        <ele>20.4</ele>
        <time>2018-10-21T11:29:23Z</time>
      </trkpt>
      <trkpt lat="43.2676956" lon="-2.9370034">
        <ele>20.4</ele>
        <time>2018-10-21T11:29:25Z</time>
      </trkpt>
      <trkpt lat="43.2676259" lon="-2.9370282">
        <ele>20.4</ele>
        <time>2018-10-21T11:29:28Z</time>
      </trkpt>
      <trkpt lat="43.2675806" lon="-2.9369875">
        <ele>20.4</ele>
        <time>2018-10-21T11:29:31Z</time>
      </trkpt>
      <trkpt lat="43.267497" lon="-2.9368898">
        <ele>20.4</ele>
        <time>2018-10-21T11:29:35Z</time>
      </trkpt>
      <trkpt lat="43.2674582" lon="-2.936733">
        <ele>20.4</ele>
        <time>2018-10-21T11:29:40Z</time>
      </trkpt>
      <trkpt lat="43.2674115" lon="-2.9366176">
        <ele>20.4</ele>
        <time>2018-10-21T11:29:45Z</time>
      </trkpt>
      <trkpt lat="43.2673823" lon="-2.936487">
        <ele>20.4</ele>
        <time>2018-10-21T11:29:51Z</time>
      </trkpt>
      <trkpt lat="43.2674027" lon="-2.936298">
        <ele>20.2</ele>
        <time>2018-10-21T11:29:56Z</time>
      </trkpt>
      <trkpt lat="43.2674272" lon="-2.93607">
        <ele>22.6</ele>
        <time>2018-10-21T11:30:00Z</time>
      </trkpt>
      <trkpt lat="43.2674732" lon="-2.9358688">
        <ele>22.7</ele>
        <time>2018-10-21T11:30:03Z</time>
      </trkpt>
      <trkpt lat="43.2675211" lon="-2.9356759">
        <ele>22.7</ele>
        <time>2018-10-21T11:30:06Z</time>
      </trkpt>
      <trkpt lat="43.2675451" lon="-2.9354718">
        <ele>22.7</ele>
        <time>2018-10-21T11:30:09Z</time>
      </trkpt>
      <trkpt lat="43.2675381" lon="-2.9352407">
        <ele>22.7</ele>
        <time>2018-10-21T11:30:13Z</time>
      </trkpt>
      <trkpt lat="43.2675231" lon="-2.9350374">
        <ele>22.7</ele>
        <time>2018-10-21T11:30:17Z</time>
      </trkpt>
      <trkpt lat="43.2675433" lon="-2.9348425">
        <ele>22.7</ele>
        <time>2018-10-21T11:30:22Z</time>
      </trkpt>
      <trkpt lat="43.2675606" lon="-2.9347705">
        <ele>22.8</ele>
        <time>2018-10-21T11:30:24Z</time>
      </trkpt>
      <trkpt lat="43.2675988" lon="-2.9347226">
        <ele>22.8</ele>
        <time>2018-10-21T11:30:26Z</time>
      </trkpt>
      <trkpt lat="43.2676402" lon="-2.9346748">
        <ele>22.8</ele>
        <time>2018-10-21T11:30:28Z</time>
      </trkpt>
      <trkpt lat="43.2677333" lon="-2.9345906">
        <ele>22.8</ele>
        <time>2018-10-21T11:30:32Z</time>
      </trkpt>
      <trkpt lat="43.2677717" lon="-2.9345539">
        <ele>22.9</ele>
        <time>2018-10-21T11:30:34Z</time>
      </trkpt>
      <trkpt lat="43.267806" lon="-2.9344973">
        <ele>22.9</ele>
        <time>2018-10-21T11:30:36Z</time>
      </trkpt>
      <trkpt lat="43.2678449" lon="-2.9344504">
        <ele>22.9</ele>
        <time>2018-10-21T11:30:38Z</time>
      </trkpt>
      <trkpt lat="43.2678935" lon="-2.9344383">
        <ele>22.9</ele>
        <time>2018-10-21T11:30:42Z</time>
      </trkpt>
      <trkpt lat="43.2678971" lon="-2.9344343">
        <ele>23.0</ele>
        <time>2018-10-21T11:30:43Z</time>
      </trkpt>
      <trkpt lat="43.2678995" lon="-2.9344307">
        <ele>23.1</ele>
        <time>2018-10-21T11:30:45Z</time>
      </trkpt>
      <trkpt lat="43.2678995" lon="-2.9344307">
        <ele>23.2</ele>
        <time>2018-10-21T11:30:45Z</time>
      </trkpt>
      <trkpt lat="43.2678995" lon="-2.9344307">
        <ele>23.2</ele>
        <time>2018-10-21T11:40:06Z</time>
      </trkpt>
      <trkpt lat="43.2677844" lon="-2.9345398">
        <ele>24.2</ele>
        <time>2018-10-21T11:40:08Z</time>
      </trkpt>
      <trkpt lat="43.2677257" lon="-2.9345711">
        <time>2018-10-21T11:40:11Z</time>
      </trkpt>
      <trkpt lat="43.2676682" lon="-2.9345726">
        <time>2018-10-21T11:40:14Z</time>
      </trkpt>
      <trkpt lat="43.2676214" lon="-2.9345584">
        <time>2018-10-21T11:40:17Z</time>
      </trkpt>
      <trkpt lat="43.267578" lon="-2.9345227">
        <time>2018-10-21T11:40:20Z</time>
      </trkpt>
      <trkpt lat="43.2675828" lon="-2.934443">
        <time>2018-10-21T11:40:24Z</time>
      </trkpt>
      <trkpt lat="43.2675938" lon="-2.9343708">
        <time>2018-10-21T11:40:27Z</time>
      </trkpt>
      <trkpt lat="43.2675838" lon="-2.9342419">
        <time>2018-10-21T11:40:31Z</time>
      </trkpt>
      <trkpt lat="43.2675778" lon="-2.9341052">
        <time>2018-10-21T11:40:38Z</time>
      </trkpt>
      <trkpt lat="43.2675853" lon="-2.9340395">
        <time>2018-10-21T11:40:41Z</time>
      </trkpt>
      <trkpt lat="43.2675953" lon="-2.9339723">
        <time>2018-10-21T11:40:44Z</time>
      </trkpt>
      <trkpt lat="43.2675948" lon="-2.933905">
        <time>2018-10-21T11:40:46Z</time>
      </trkpt>
      <trkpt lat="43.2676182" lon="-2.9338001">
        <time>2018-10-21T11:40:48Z</time>
      </trkpt>
      <trkpt lat="43.2676351" lon="-2.9337393">
        <time>2018-10-21T11:40:49Z</time>
      </trkpt>
      <trkpt lat="43.2676524" lon="-2.9336774">
        <time>2018-10-21T11:40:50Z</time>
      </trkpt>
      <trkpt lat="43.2676964" lon="-2.9334822">
        <time>2018-10-21T11:40:53Z</time>
      </trkpt>
      <trkpt lat="43.2677079" lon="-2.9333304">
        <time>2018-10-21T11:40:58Z</time>
      </trkpt>
      <trkpt lat="43.2677117" lon="-2.9332562">
        <time>2018-10-21T11:41:02Z</time>
      </trkpt>
      <trkpt lat="43.2676823" lon="-2.9331981">
        <time>2018-10-21T11:41:06Z</time>
      </trkpt>
      <trkpt lat="43.2676837" lon="-2.933193">
        <time>2018-10-21T11:41:10Z</time>
      </trkpt>
      <trkpt lat="43.2676837" lon="-2.933193">
        <time>2018-10-21T11:41:10Z</time>
      </trkpt>
      <trkpt lat="43.2676837" lon="-2.933193">
        <time>2018-10-21T11:41:17Z</time>
      </trkpt>
    </trkseg>
  </trk>
</gpx>
